<?xml version='1.0' encoding='UTF-8'?><gpx version="1.1" creator="JPX - https://github.com/jenetics/jpx" xmlns="http://www.topografix.com/GPX/1/1"><trk><trkseg><trkpt lat="40.341796" lon="9.5431388"><ele>182.0</ele><time>2026-03-28T08:39:28.752Z</time></trkpt><trkpt lat="40.3417015" lon="9.543106"><ele>182.0</ele><time>2026-03-28T08:39:29.806Z</time></trkpt><trkpt lat="40.3416253" lon="9.5430821"><ele>182.0</ele><time>2026-03-28T08:39:30.835Z</time></trkpt><trkpt lat="40.3415628" lon="9.5430636"><ele>182.0</ele><time>2026-03-28T08:39:31.806Z</time></trkpt><trkpt lat="40.3414947" lon="9.5430387"><ele>182.0</ele><time>2026-03-28T08:39:32.816Z</time></trkpt><trkpt lat="40.3414252" lon="9.5430049"><ele>182.0</ele><time>2026-03-28T08:39:33.801Z</time></trkpt><trkpt lat="40.3413523" lon="9.5429739"><ele>181.8</ele><time>2026-03-28T08:39:34.805Z</time></trkpt><trkpt lat="40.3412865" lon="9.5429154"><ele>181.6</ele><time>2026-03-28T08:39:35.809Z</time></trkpt><trkpt lat="40.3412245" lon="9.5428425"><ele>181.4</ele><time>2026-03-28T08:39:37.276Z</time></trkpt><trkpt lat="40.3411067" lon="9.5426891"><ele>181.20000000000002</ele><time>2026-03-28T08:39:38.81Z</time></trkpt><trkpt lat="40.3410551" lon="9.5426107"><ele>181.0</ele><time>2026-03-28T08:39:39.813Z</time></trkpt><trkpt lat="40.3410038" lon="9.5425295"><ele>180.66666666666669</ele><time>2026-03-28T08:39:40.814Z</time></trkpt><trkpt lat="40.3409553" lon="9.5424439"><ele>180.33333333333334</ele><time>2026-03-28T08:39:41.824Z</time></trkpt><trkpt lat="40.3409057" lon="9.5423644"><ele>180.0</ele><time>2026-03-28T08:39:42.813Z</time></trkpt><trkpt lat="40.3408681" lon="9.542268"><ele>179.66666666666666</ele><time>2026-03-28T08:39:43.806Z</time></trkpt><trkpt lat="40.3408372" lon="9.542167"><ele>179.33333333333331</ele><time>2026-03-28T08:39:44.81Z</time></trkpt><trkpt lat="40.3408126" lon="9.5420585"><ele>179.0</ele><time>2026-03-28T08:39:45.81Z</time></trkpt><trkpt lat="40.3407938" lon="9.5419426"><ele>178.33333333333331</ele><time>2026-03-28T08:39:46.803Z</time></trkpt><trkpt lat="40.3407843" lon="9.5418272"><ele>177.66666666666666</ele><time>2026-03-28T08:39:47.81Z</time></trkpt><trkpt lat="40.3407765" lon="9.5417129"><ele>177.0</ele><time>2026-03-28T08:39:48.803Z</time></trkpt><trkpt lat="40.3407664" lon="9.5415986"><ele>176.33333333333334</ele><time>2026-03-28T08:39:49.81Z</time></trkpt><trkpt lat="40.3407567" lon="9.541481"><ele>175.66666666666669</ele><time>2026-03-28T08:39:50.82Z</time></trkpt><trkpt lat="40.3407466" lon="9.5413672"><ele>175.0</ele><time>2026-03-28T08:39:51.825Z</time></trkpt><trkpt lat="40.3407388" lon="9.5412508"><ele>174.2</ele><time>2026-03-28T08:39:52.813Z</time></trkpt><trkpt lat="40.3407302" lon="9.5411245"><ele>173.4</ele><time>2026-03-28T08:39:53.814Z</time></trkpt><trkpt lat="40.3407216" lon="9.5409927"><ele>172.60000000000002</ele><time>2026-03-28T08:39:54.813Z</time></trkpt><trkpt lat="40.3407151" lon="9.5408595"><ele>171.8</ele><time>2026-03-28T08:39:55.805Z</time></trkpt><trkpt lat="40.3407047" lon="9.540725"><ele>171.0</ele><time>2026-03-28T08:39:56.81Z</time></trkpt><trkpt lat="40.3406959" lon="9.5405957"><ele>171.0</ele><time>2026-03-28T08:39:57.822Z</time></trkpt><trkpt lat="40.34069" lon="9.5404656"><ele>171.0</ele><time>2026-03-28T08:39:58.805Z</time></trkpt><trkpt lat="40.3406897" lon="9.5403352"><ele>171.0</ele><time>2026-03-28T08:39:59.807Z</time></trkpt><trkpt lat="40.3406962" lon="9.5400873"><ele>171.0</ele><time>2026-03-28T08:40:01.799Z</time></trkpt><trkpt lat="40.3406465" lon="9.5397446"><ele>170.66666666666666</ele><time>2026-03-28T08:40:05.809Z</time></trkpt><trkpt lat="40.3406251" lon="9.5396441"><ele>170.33333333333334</ele><time>2026-03-28T08:40:07.808Z</time></trkpt><trkpt lat="40.3405608" lon="9.539578"><ele>170.0</ele><time>2026-03-28T08:40:09.83Z</time></trkpt><trkpt lat="40.3404607" lon="9.5395292"><ele>169.66666666666669</ele><time>2026-03-28T08:40:11.81Z</time></trkpt><trkpt lat="40.340395" lon="9.5395063"><ele>169.33333333333334</ele><time>2026-03-28T08:40:12.809Z</time></trkpt><trkpt lat="40.3403308" lon="9.5394735"><ele>169.0</ele><time>2026-03-28T08:40:13.801Z</time></trkpt><trkpt lat="40.3402657" lon="9.5394353"><ele>169.0</ele><time>2026-03-28T08:40:14.846Z</time></trkpt><trkpt lat="40.3402005" lon="9.5393914"><ele>169.0</ele><time>2026-03-28T08:40:15.809Z</time></trkpt><trkpt lat="40.3401368" lon="9.5393411"><ele>169.0</ele><time>2026-03-28T08:40:16.808Z</time></trkpt><trkpt lat="40.3400741" lon="9.5392897"><ele>169.0</ele><time>2026-03-28T08:40:17.809Z</time></trkpt><trkpt lat="40.3400125" lon="9.5392369"><ele>169.0</ele><time>2026-03-28T08:40:18.92Z</time></trkpt><trkpt lat="40.3398842" lon="9.539124"><ele>169.0</ele><time>2026-03-28T08:40:20.848Z</time></trkpt><trkpt lat="40.3398091" lon="9.539061"><ele>169.0</ele><time>2026-03-28T08:40:21.808Z</time></trkpt><trkpt lat="40.3397328" lon="9.5389966"><ele>169.0</ele><time>2026-03-28T08:40:22.82Z</time></trkpt><trkpt lat="40.3396593" lon="9.5389331"><ele>169.0</ele><time>2026-03-28T08:40:23.814Z</time></trkpt><trkpt lat="40.3395894" lon="9.5388702"><ele>169.0</ele><time>2026-03-28T08:40:24.808Z</time></trkpt><trkpt lat="40.3395211" lon="9.5388076"><ele>169.0</ele><time>2026-03-28T08:40:25.808Z</time></trkpt><trkpt lat="40.3394566" lon="9.5387469"><ele>168.79999999999998</ele><time>2026-03-28T08:40:26.807Z</time></trkpt><trkpt lat="40.3393909" lon="9.5386826"><ele>168.6</ele><time>2026-03-28T08:40:27.801Z</time></trkpt><trkpt lat="40.3393199" lon="9.5386123"><ele>168.4</ele><time>2026-03-28T08:40:28.813Z</time></trkpt><trkpt lat="40.3392455" lon="9.5385379"><ele>168.2</ele><time>2026-03-28T08:40:29.803Z</time></trkpt><trkpt lat="40.3391661" lon="9.5384576"><ele>168.0</ele><time>2026-03-28T08:40:30.81Z</time></trkpt><trkpt lat="40.3390826" lon="9.5383765"><ele>168.0</ele><time>2026-03-28T08:40:31.806Z</time></trkpt><trkpt lat="40.3389948" lon="9.5382984"><ele>168.0</ele><time>2026-03-28T08:40:32.809Z</time></trkpt><trkpt lat="40.3389094" lon="9.5382222"><ele>168.0</ele><time>2026-03-28T08:40:33.807Z</time></trkpt><trkpt lat="40.3388258" lon="9.5381436"><ele>168.0</ele><time>2026-03-28T08:40:34.806Z</time></trkpt><trkpt lat="40.3387379" lon="9.5380645"><ele>168.0</ele><time>2026-03-28T08:40:35.806Z</time></trkpt><trkpt lat="40.3386531" lon="9.5379864"><ele>168.60000000000002</ele><time>2026-03-28T08:40:36.808Z</time></trkpt><trkpt lat="40.338572" lon="9.5379166"><ele>169.20000000000002</ele><time>2026-03-28T08:40:37.806Z</time></trkpt><trkpt lat="40.3384879" lon="9.5378408"><ele>169.8</ele><time>2026-03-28T08:40:38.811Z</time></trkpt><trkpt lat="40.3384048" lon="9.5377572"><ele>170.4</ele><time>2026-03-28T08:40:39.806Z</time></trkpt><trkpt lat="40.3383245" lon="9.53767"><ele>171.0</ele><time>2026-03-28T08:40:40.805Z</time></trkpt><trkpt lat="40.3382433" lon="9.5375781"><ele>171.0</ele><time>2026-03-28T08:40:41.808Z</time></trkpt><trkpt lat="40.338163" lon="9.5374864"><ele>171.0</ele><time>2026-03-28T08:40:42.806Z</time></trkpt><trkpt lat="40.338084" lon="9.5373985"><ele>171.0</ele><time>2026-03-28T08:40:43.806Z</time></trkpt><trkpt lat="40.3379986" lon="9.5373146"><ele>171.0</ele><time>2026-03-28T08:40:44.804Z</time></trkpt><trkpt lat="40.3379068" lon="9.5372306"><ele>171.0</ele><time>2026-03-28T08:40:45.806Z</time></trkpt><trkpt lat="40.337813" lon="9.5371508"><ele>171.60000000000002</ele><time>2026-03-28T08:40:46.81Z</time></trkpt><trkpt lat="40.3377046" lon="9.5370748"><ele>172.2</ele><time>2026-03-28T08:40:47.851Z</time></trkpt><trkpt lat="40.337604" lon="9.5370044"><ele>172.8</ele><time>2026-03-28T08:40:48.808Z</time></trkpt><trkpt lat="40.3375193" lon="9.5369358"><ele>173.39999999999998</ele><time>2026-03-28T08:40:49.807Z</time></trkpt><trkpt lat="40.3374478" lon="9.5368579"><ele>174.0</ele><time>2026-03-28T08:40:50.811Z</time></trkpt><trkpt lat="40.3373787" lon="9.5367564"><ele>174.0</ele><time>2026-03-28T08:40:51.806Z</time></trkpt><trkpt lat="40.3373088" lon="9.5366535"><ele>174.0</ele><time>2026-03-28T08:40:52.815Z</time></trkpt><trkpt lat="40.3372432" lon="9.5365499"><ele>174.0</ele><time>2026-03-28T08:40:53.81Z</time></trkpt><trkpt lat="40.3371854" lon="9.5364486"><ele>174.0</ele><time>2026-03-28T08:40:54.805Z</time></trkpt><trkpt lat="40.3371311" lon="9.5363515"><ele>174.0</ele><time>2026-03-28T08:40:55.811Z</time></trkpt><trkpt lat="40.3370747" lon="9.5362526"><ele>174.6</ele><time>2026-03-28T08:40:56.816Z</time></trkpt><trkpt lat="40.3370131" lon="9.5361472"><ele>175.2</ele><time>2026-03-28T08:40:57.803Z</time></trkpt><trkpt lat="40.3369599" lon="9.5360368"><ele>175.79999999999998</ele><time>2026-03-28T08:40:58.812Z</time></trkpt><trkpt lat="40.3369045" lon="9.5359214"><ele>176.39999999999998</ele><time>2026-03-28T08:40:59.804Z</time></trkpt><trkpt lat="40.3368531" lon="9.535808"><ele>177.0</ele><time>2026-03-28T08:41:00.81Z</time></trkpt><trkpt lat="40.3367974" lon="9.5356934"><ele>177.0</ele><time>2026-03-28T08:41:01.804Z</time></trkpt><trkpt lat="40.3367442" lon="9.5355849"><ele>177.0</ele><time>2026-03-28T08:41:02.813Z</time></trkpt><trkpt lat="40.3366931" lon="9.5354911"><ele>177.0</ele><time>2026-03-28T08:41:03.807Z</time></trkpt><trkpt lat="40.3366453" lon="9.5354069"><ele>177.0</ele><time>2026-03-28T08:41:04.806Z</time></trkpt><trkpt lat="40.3365928" lon="9.5353132"><ele>177.0</ele><time>2026-03-28T08:41:05.811Z</time></trkpt><trkpt lat="40.3365421" lon="9.535217"><ele>177.0</ele><time>2026-03-28T08:41:06.808Z</time></trkpt><trkpt lat="40.3364948" lon="9.5351105"><ele>177.0</ele><time>2026-03-28T08:41:07.807Z</time></trkpt><trkpt lat="40.3364544" lon="9.5350057"><ele>177.0</ele><time>2026-03-28T08:41:08.808Z</time></trkpt><trkpt lat="40.3364153" lon="9.534895"><ele>177.0</ele><time>2026-03-28T08:41:09.813Z</time></trkpt><trkpt lat="40.3363774" lon="9.5347819"><ele>177.0</ele><time>2026-03-28T08:41:10.807Z</time></trkpt><trkpt lat="40.3363312" lon="9.5346744"><ele>177.0</ele><time>2026-03-28T08:41:11.806Z</time></trkpt><trkpt lat="40.3362794" lon="9.5345709"><ele>176.6</ele><time>2026-03-28T08:41:12.81Z</time></trkpt><trkpt lat="40.3362233" lon="9.5344691"><ele>176.2</ele><time>2026-03-28T08:41:13.811Z</time></trkpt><trkpt lat="40.3361613" lon="9.5343681"><ele>175.8</ele><time>2026-03-28T08:41:14.809Z</time></trkpt><trkpt lat="40.3360967" lon="9.5342626"><ele>175.4</ele><time>2026-03-28T08:41:15.81Z</time></trkpt><trkpt lat="40.3360304" lon="9.5341571"><ele>175.0</ele><time>2026-03-28T08:41:16.807Z</time></trkpt><trkpt lat="40.3359637" lon="9.5340515"><ele>175.0</ele><time>2026-03-28T08:41:17.809Z</time></trkpt><trkpt lat="40.3358967" lon="9.5339478"><ele>175.0</ele><time>2026-03-28T08:41:18.82Z</time></trkpt><trkpt lat="40.3358345" lon="9.5338425"><ele>175.0</ele><time>2026-03-28T08:41:19.807Z</time></trkpt><trkpt lat="40.3357748" lon="9.5337359"><ele>175.0</ele><time>2026-03-28T08:41:20.807Z</time></trkpt><trkpt lat="40.3357155" lon="9.5336319"><ele>175.0</ele><time>2026-03-28T08:41:21.811Z</time></trkpt><trkpt lat="40.335659" lon="9.5335325"><ele>175.0</ele><time>2026-03-28T08:41:22.816Z</time></trkpt><trkpt lat="40.3356041" lon="9.5334346"><ele>175.0</ele><time>2026-03-28T08:41:23.809Z</time></trkpt><trkpt lat="40.3355432" lon="9.5333423"><ele>175.0</ele><time>2026-03-28T08:41:24.808Z</time></trkpt><trkpt lat="40.3354721" lon="9.5332517"><ele>175.0</ele><time>2026-03-28T08:41:25.806Z</time></trkpt><trkpt lat="40.3354" lon="9.5331635"><ele>175.0</ele><time>2026-03-28T08:41:26.805Z</time></trkpt><trkpt lat="40.335327" lon="9.5330745"><ele>176.0</ele><time>2026-03-28T08:41:27.813Z</time></trkpt><trkpt lat="40.335253" lon="9.5329825"><ele>177.0</ele><time>2026-03-28T08:41:28.804Z</time></trkpt><trkpt lat="40.3351797" lon="9.5328908"><ele>178.0</ele><time>2026-03-28T08:41:29.806Z</time></trkpt><trkpt lat="40.3351149" lon="9.5327978"><ele>179.0</ele><time>2026-03-28T08:41:30.804Z</time></trkpt><trkpt lat="40.3350661" lon="9.5326991"><ele>180.0</ele><time>2026-03-28T08:41:31.812Z</time></trkpt><trkpt lat="40.3350347" lon="9.5325887"><ele>180.0</ele><time>2026-03-28T08:41:32.802Z</time></trkpt><trkpt lat="40.3350148" lon="9.5324702"><ele>180.0</ele><time>2026-03-28T08:41:33.809Z</time></trkpt><trkpt lat="40.334998" lon="9.532349"><ele>180.0</ele><time>2026-03-28T08:41:34.81Z</time></trkpt><trkpt lat="40.3349747" lon="9.5322334"><ele>180.0</ele><time>2026-03-28T08:41:35.809Z</time></trkpt><trkpt lat="40.3349397" lon="9.5321245"><ele>180.0</ele><time>2026-03-28T08:41:36.803Z</time></trkpt><trkpt lat="40.3348975" lon="9.5320153"><ele>180.0</ele><time>2026-03-28T08:41:37.807Z</time></trkpt><trkpt lat="40.3348522" lon="9.5319072"><ele>180.0</ele><time>2026-03-28T08:41:38.809Z</time></trkpt><trkpt lat="40.3348094" lon="9.5318136"><ele>180.0</ele><time>2026-03-28T08:41:39.814Z</time></trkpt><trkpt lat="40.3347738" lon="9.5317364"><ele>180.0</ele><time>2026-03-28T08:41:40.802Z</time></trkpt><trkpt lat="40.3346596" lon="9.5316314"><ele>180.0</ele><time>2026-03-28T08:41:42.802Z</time></trkpt><trkpt lat="40.3345836" lon="9.5315777"><ele>180.4</ele><time>2026-03-28T08:41:43.808Z</time></trkpt><trkpt lat="40.3345001" lon="9.5315196"><ele>180.8</ele><time>2026-03-28T08:41:44.807Z</time></trkpt><trkpt lat="40.334414" lon="9.5314408"><ele>181.2</ele><time>2026-03-28T08:41:45.808Z</time></trkpt><trkpt lat="40.3343292" lon="9.5313538"><ele>181.6</ele><time>2026-03-28T08:41:46.808Z</time></trkpt><trkpt lat="40.3342476" lon="9.5312699"><ele>182.0</ele><time>2026-03-28T08:41:47.803Z</time></trkpt><trkpt lat="40.3341818" lon="9.5311827"><ele>182.0</ele><time>2026-03-28T08:41:48.804Z</time></trkpt><trkpt lat="40.3341292" lon="9.5311054"><ele>182.0</ele><time>2026-03-28T08:41:49.811Z</time></trkpt><trkpt lat="40.3340881" lon="9.531037"><ele>182.0</ele><time>2026-03-28T08:41:50.802Z</time></trkpt><trkpt lat="40.3340332" lon="9.5309449"><ele>182.0</ele><time>2026-03-28T08:41:52.81Z</time></trkpt><trkpt lat="40.3339785" lon="9.5308724"><ele>182.0</ele><time>2026-03-28T08:41:55.808Z</time></trkpt><trkpt lat="40.3338927" lon="9.5308499"><ele>182.0</ele><time>2026-03-28T08:41:57.802Z</time></trkpt><trkpt lat="40.3338197" lon="9.5308564"><ele>182.6</ele><time>2026-03-28T08:41:58.817Z</time></trkpt><trkpt lat="40.3337436" lon="9.530872"><ele>183.2</ele><time>2026-03-28T08:41:59.804Z</time></trkpt><trkpt lat="40.3336616" lon="9.5308933"><ele>183.8</ele><time>2026-03-28T08:42:00.808Z</time></trkpt><trkpt lat="40.3335678" lon="9.5309198"><ele>184.4</ele><time>2026-03-28T08:42:01.806Z</time></trkpt><trkpt lat="40.3334567" lon="9.5309537"><ele>185.0</ele><time>2026-03-28T08:42:02.803Z</time></trkpt><trkpt lat="40.333338" lon="9.5309904"><ele>185.0</ele><time>2026-03-28T08:42:03.806Z</time></trkpt><trkpt lat="40.3332232" lon="9.5310249"><ele>185.0</ele><time>2026-03-28T08:42:04.801Z</time></trkpt><trkpt lat="40.3330999" lon="9.5310621"><ele>185.0</ele><time>2026-03-28T08:42:05.805Z</time></trkpt><trkpt lat="40.3329698" lon="9.5310978"><ele>185.0</ele><time>2026-03-28T08:42:06.81Z</time></trkpt><trkpt lat="40.33284" lon="9.5311345"><ele>185.25</ele><time>2026-03-28T08:42:07.807Z</time></trkpt><trkpt lat="40.332715" lon="9.5311712"><ele>185.5</ele><time>2026-03-28T08:42:08.806Z</time></trkpt><trkpt lat="40.332589" lon="9.5312088"><ele>185.75</ele><time>2026-03-28T08:42:09.806Z</time></trkpt><trkpt lat="40.3324612" lon="9.5312448"><ele>186.0</ele><time>2026-03-28T08:42:10.816Z</time></trkpt><trkpt lat="40.3323317" lon="9.5312805"><ele>186.75</ele><time>2026-03-28T08:42:11.813Z</time></trkpt><trkpt lat="40.3322068" lon="9.5313151"><ele>187.5</ele><time>2026-03-28T08:42:12.806Z</time></trkpt><trkpt lat="40.3320857" lon="9.5313505"><ele>188.25</ele><time>2026-03-28T08:42:13.814Z</time></trkpt><trkpt lat="40.3319672" lon="9.5313867"><ele>189.0</ele><time>2026-03-28T08:42:14.809Z</time></trkpt><trkpt lat="40.3318487" lon="9.5314216"><ele>189.0</ele><time>2026-03-28T08:42:15.801Z</time></trkpt><trkpt lat="40.3317284" lon="9.5314542"><ele>189.0</ele><time>2026-03-28T08:42:16.816Z</time></trkpt><trkpt lat="40.3316038" lon="9.5314869"><ele>189.0</ele><time>2026-03-28T08:42:17.814Z</time></trkpt><trkpt lat="40.3314754" lon="9.5315191"><ele>189.0</ele><time>2026-03-28T08:42:18.814Z</time></trkpt><trkpt lat="40.3313442" lon="9.5315541"><ele>188.75</ele><time>2026-03-28T08:42:19.808Z</time></trkpt><trkpt lat="40.3312111" lon="9.531592"><ele>188.5</ele><time>2026-03-28T08:42:20.813Z</time></trkpt><trkpt lat="40.3310794" lon="9.5316311"><ele>188.25</ele><time>2026-03-28T08:42:21.816Z</time></trkpt><trkpt lat="40.3309504" lon="9.5316711"><ele>188.0</ele><time>2026-03-28T08:42:22.81Z</time></trkpt><trkpt lat="40.3308217" lon="9.5317113"><ele>188.0</ele><time>2026-03-28T08:42:23.809Z</time></trkpt><trkpt lat="40.3306936" lon="9.5317507"><ele>188.0</ele><time>2026-03-28T08:42:24.805Z</time></trkpt><trkpt lat="40.3305655" lon="9.5317905"><ele>188.0</ele><time>2026-03-28T08:42:25.808Z</time></trkpt><trkpt lat="40.3304353" lon="9.5318333"><ele>188.0</ele><time>2026-03-28T08:42:26.813Z</time></trkpt><trkpt lat="40.3302991" lon="9.5318792"><ele>188.25</ele><time>2026-03-28T08:42:27.806Z</time></trkpt><trkpt lat="40.3301583" lon="9.5319248"><ele>188.5</ele><time>2026-03-28T08:42:28.815Z</time></trkpt><trkpt lat="40.330022" lon="9.5319678"><ele>188.75</ele><time>2026-03-28T08:42:29.807Z</time></trkpt><trkpt lat="40.3298859" lon="9.5320114"><ele>189.0</ele><time>2026-03-28T08:42:30.807Z</time></trkpt><trkpt lat="40.3297491" lon="9.532057"><ele>188.5</ele><time>2026-03-28T08:42:31.812Z</time></trkpt><trkpt lat="40.329612" lon="9.5321032"><ele>188.0</ele><time>2026-03-28T08:42:32.811Z</time></trkpt><trkpt lat="40.3294765" lon="9.5321473"><ele>187.5</ele><time>2026-03-28T08:42:33.813Z</time></trkpt><trkpt lat="40.3293364" lon="9.5321934"><ele>187.0</ele><time>2026-03-28T08:42:34.808Z</time></trkpt><trkpt lat="40.3291976" lon="9.5322401"><ele>187.0</ele><time>2026-03-28T08:42:35.813Z</time></trkpt><trkpt lat="40.3290599" lon="9.5322875"><ele>187.0</ele><time>2026-03-28T08:42:36.814Z</time></trkpt><trkpt lat="40.3289214" lon="9.5323343"><ele>187.0</ele><time>2026-03-28T08:42:37.809Z</time></trkpt><trkpt lat="40.328779" lon="9.5323802"><ele>187.0</ele><time>2026-03-28T08:42:38.803Z</time></trkpt><trkpt lat="40.3286331" lon="9.5324279"><ele>186.66666666666669</ele><time>2026-03-28T08:42:39.812Z</time></trkpt><trkpt lat="40.3284835" lon="9.532479"><ele>186.33333333333334</ele><time>2026-03-28T08:42:40.805Z</time></trkpt><trkpt lat="40.3283343" lon="9.5325309"><ele>186.0</ele><time>2026-03-28T08:42:41.809Z</time></trkpt><trkpt lat="40.328185" lon="9.5325917"><ele>186.33333333333334</ele><time>2026-03-28T08:42:42.811Z</time></trkpt><trkpt lat="40.328037" lon="9.532662"><ele>186.66666666666669</ele><time>2026-03-28T08:42:43.809Z</time></trkpt><trkpt lat="40.3278893" lon="9.5327406"><ele>187.0</ele><time>2026-03-28T08:42:44.811Z</time></trkpt><trkpt lat="40.3277446" lon="9.5328294"><ele>186.66666666666669</ele><time>2026-03-28T08:42:45.812Z</time></trkpt><trkpt lat="40.3276034" lon="9.5329303"><ele>186.33333333333334</ele><time>2026-03-28T08:42:46.814Z</time></trkpt><trkpt lat="40.3274644" lon="9.533041"><ele>186.0</ele><time>2026-03-28T08:42:47.81Z</time></trkpt><trkpt lat="40.3273278" lon="9.5331584"><ele>186.33333333333334</ele><time>2026-03-28T08:42:48.814Z</time></trkpt><trkpt lat="40.3271925" lon="9.5332791"><ele>186.66666666666669</ele><time>2026-03-28T08:42:49.804Z</time></trkpt><trkpt lat="40.3270564" lon="9.5334011"><ele>187.0</ele><time>2026-03-28T08:42:50.813Z</time></trkpt><trkpt lat="40.3269196" lon="9.5335228"><ele>187.0</ele><time>2026-03-28T08:42:51.805Z</time></trkpt><trkpt lat="40.3267813" lon="9.5336441"><ele>187.0</ele><time>2026-03-28T08:42:52.811Z</time></trkpt><trkpt lat="40.3266433" lon="9.5337674"><ele>187.0</ele><time>2026-03-28T08:42:53.811Z</time></trkpt><trkpt lat="40.3265056" lon="9.5338932"><ele>187.66666666666669</ele><time>2026-03-28T08:42:54.807Z</time></trkpt><trkpt lat="40.3263677" lon="9.5340194"><ele>188.33333333333334</ele><time>2026-03-28T08:42:55.804Z</time></trkpt><trkpt lat="40.3262275" lon="9.5341428"><ele>189.0</ele><time>2026-03-28T08:42:56.802Z</time></trkpt><trkpt lat="40.3260839" lon="9.5342567"><ele>189.0</ele><time>2026-03-28T08:42:57.809Z</time></trkpt><trkpt lat="40.3259367" lon="9.5343532"><ele>189.0</ele><time>2026-03-28T08:42:58.804Z</time></trkpt><trkpt lat="40.325784" lon="9.5344325"><ele>189.0</ele><time>2026-03-28T08:42:59.809Z</time></trkpt><trkpt lat="40.3256274" lon="9.5344967"><ele>188.66666666666666</ele><time>2026-03-28T08:43:00.808Z</time></trkpt><trkpt lat="40.3254689" lon="9.5345444"><ele>188.33333333333331</ele><time>2026-03-28T08:43:01.805Z</time></trkpt><trkpt lat="40.3253045" lon="9.5345739"><ele>188.0</ele><time>2026-03-28T08:43:02.81Z</time></trkpt><trkpt lat="40.3251362" lon="9.5345845"><ele>187.66666666666666</ele><time>2026-03-28T08:43:03.811Z</time></trkpt><trkpt lat="40.3249645" lon="9.5345799"><ele>187.33333333333334</ele><time>2026-03-28T08:43:04.811Z</time></trkpt><trkpt lat="40.3247896" lon="9.5345639"><ele>187.0</ele><time>2026-03-28T08:43:05.809Z</time></trkpt><trkpt lat="40.3246166" lon="9.5345427"><ele>187.0</ele><time>2026-03-28T08:43:06.809Z</time></trkpt><trkpt lat="40.3244431" lon="9.5345189"><ele>187.0</ele><time>2026-03-28T08:43:07.814Z</time></trkpt><trkpt lat="40.3242654" lon="9.5344932"><ele>187.0</ele><time>2026-03-28T08:43:08.813Z</time></trkpt><trkpt lat="40.324084" lon="9.5344684"><ele>187.0</ele><time>2026-03-28T08:43:09.809Z</time></trkpt><trkpt lat="40.3238992" lon="9.5344444"><ele>187.0</ele><time>2026-03-28T08:43:10.81Z</time></trkpt><trkpt lat="40.3237117" lon="9.5344195"><ele>187.0</ele><time>2026-03-28T08:43:11.81Z</time></trkpt><trkpt lat="40.3235222" lon="9.5343934"><ele>186.33333333333334</ele><time>2026-03-28T08:43:12.806Z</time></trkpt><trkpt lat="40.3233334" lon="9.534366"><ele>185.66666666666666</ele><time>2026-03-28T08:43:13.81Z</time></trkpt><trkpt lat="40.3231476" lon="9.5343396"><ele>185.0</ele><time>2026-03-28T08:43:14.804Z</time></trkpt><trkpt lat="40.322965" lon="9.5343139"><ele>184.66666666666666</ele><time>2026-03-28T08:43:15.813Z</time></trkpt><trkpt lat="40.3227917" lon="9.5342906"><ele>184.33333333333334</ele><time>2026-03-28T08:43:16.81Z</time></trkpt><trkpt lat="40.3226341" lon="9.5342747"><ele>184.0</ele><time>2026-03-28T08:43:17.814Z</time></trkpt><trkpt lat="40.3224911" lon="9.5342781"><ele>184.0</ele><time>2026-03-28T08:43:18.809Z</time></trkpt><trkpt lat="40.3223621" lon="9.5343157"><ele>184.0</ele><time>2026-03-28T08:43:19.802Z</time></trkpt><trkpt lat="40.3222445" lon="9.5343964"><ele>184.0</ele><time>2026-03-28T08:43:20.809Z</time></trkpt><trkpt lat="40.3221397" lon="9.5345189"><ele>184.0</ele><time>2026-03-28T08:43:21.805Z</time></trkpt><trkpt lat="40.3220301" lon="9.5346587"><ele>183.75</ele><time>2026-03-28T08:43:22.803Z</time></trkpt><trkpt lat="40.3219533" lon="9.5348177"><ele>183.5</ele><time>2026-03-28T08:43:23.811Z</time></trkpt><trkpt lat="40.3218764" lon="9.5349725"><ele>183.25</ele><time>2026-03-28T08:43:24.81Z</time></trkpt><trkpt lat="40.3217743" lon="9.5350876"><ele>183.0</ele><time>2026-03-28T08:43:25.806Z</time></trkpt><trkpt lat="40.3216518" lon="9.5351574"><ele>183.0</ele><time>2026-03-28T08:43:26.804Z</time></trkpt><trkpt lat="40.3215142" lon="9.5351793"><ele>183.0</ele><time>2026-03-28T08:43:27.803Z</time></trkpt><trkpt lat="40.3213682" lon="9.5351537"><ele>183.0</ele><time>2026-03-28T08:43:28.81Z</time></trkpt><trkpt lat="40.3212265" lon="9.5351031"><ele>183.0</ele><time>2026-03-28T08:43:29.8Z</time></trkpt><trkpt lat="40.3210996" lon="9.5349701"><ele>181.66666666666666</ele><time>2026-03-28T08:43:30.811Z</time></trkpt><trkpt lat="40.3209601" lon="9.5348466"><ele>180.33333333333331</ele><time>2026-03-28T08:43:31.805Z</time></trkpt><trkpt lat="40.3208005" lon="9.5347385"><ele>179.0</ele><time>2026-03-28T08:43:32.803Z</time></trkpt><trkpt lat="40.3206291" lon="9.5346416"><ele>177.0</ele><time>2026-03-28T08:43:33.813Z</time></trkpt><trkpt lat="40.3204595" lon="9.5345526"><ele>175.0</ele><time>2026-03-28T08:43:34.819Z</time></trkpt><trkpt lat="40.3203042" lon="9.5344729"><ele>173.0</ele><time>2026-03-28T08:43:35.81Z</time></trkpt><trkpt lat="40.3201634" lon="9.5344042"><ele>173.0</ele><time>2026-03-28T08:43:36.807Z</time></trkpt><trkpt lat="40.3200366" lon="9.5343594"><ele>173.0</ele><time>2026-03-28T08:43:37.801Z</time></trkpt><trkpt lat="40.3198031" lon="9.5343717"><ele>173.0</ele><time>2026-03-28T08:43:39.811Z</time></trkpt><trkpt lat="40.3196997" lon="9.5344619"><ele>172.5</ele><time>2026-03-28T08:43:40.805Z</time></trkpt><trkpt lat="40.3196006" lon="9.534585"><ele>172.0</ele><time>2026-03-28T08:43:41.798Z</time></trkpt><trkpt lat="40.3195296" lon="9.5347564"><ele>171.5</ele><time>2026-03-28T08:43:42.806Z</time></trkpt><trkpt lat="40.3194513" lon="9.5349406"><ele>171.0</ele><time>2026-03-28T08:43:43.805Z</time></trkpt><trkpt lat="40.3193676" lon="9.5351324"><ele>171.0</ele><time>2026-03-28T08:43:44.806Z</time></trkpt><trkpt lat="40.3192803" lon="9.535315"><ele>171.0</ele><time>2026-03-28T08:43:45.81Z</time></trkpt><trkpt lat="40.3191999" lon="9.5354823"><ele>171.0</ele><time>2026-03-28T08:43:46.811Z</time></trkpt><trkpt lat="40.319126" lon="9.535635"><ele>171.0</ele><time>2026-03-28T08:43:47.806Z</time></trkpt><trkpt lat="40.3190418" lon="9.5357475"><ele>171.0</ele><time>2026-03-28T08:43:48.814Z</time></trkpt><trkpt lat="40.3189322" lon="9.5358267"><ele>171.0</ele><time>2026-03-28T08:43:49.803Z</time></trkpt><trkpt lat="40.3188015" lon="9.5358741"><ele>171.0</ele><time>2026-03-28T08:43:50.81Z</time></trkpt><trkpt lat="40.3186614" lon="9.5358993"><ele>169.66666666666666</ele><time>2026-03-28T08:43:51.801Z</time></trkpt><trkpt lat="40.3185083" lon="9.5359123"><ele>168.33333333333331</ele><time>2026-03-28T08:43:52.806Z</time></trkpt><trkpt lat="40.3183478" lon="9.5359069"><ele>167.0</ele><time>2026-03-28T08:43:53.813Z</time></trkpt><trkpt lat="40.318199" lon="9.5358857"><ele>168.33333333333331</ele><time>2026-03-28T08:43:54.802Z</time></trkpt><trkpt lat="40.3180506" lon="9.5358297"><ele>169.66666666666666</ele><time>2026-03-28T08:43:55.809Z</time></trkpt><trkpt lat="40.3179147" lon="9.5357336"><ele>171.0</ele><time>2026-03-28T08:43:56.812Z</time></trkpt><trkpt lat="40.3177866" lon="9.5356236"><ele>171.0</ele><time>2026-03-28T08:43:57.811Z</time></trkpt><trkpt lat="40.3176757" lon="9.53548"><ele>171.0</ele><time>2026-03-28T08:43:58.804Z</time></trkpt><trkpt lat="40.3175624" lon="9.5353292"><ele>171.0</ele><time>2026-03-28T08:43:59.805Z</time></trkpt><trkpt lat="40.3174529" lon="9.5351905"><ele>169.25</ele><time>2026-03-28T08:44:00.81Z</time></trkpt><trkpt lat="40.3173495" lon="9.5350633"><ele>167.5</ele><time>2026-03-28T08:44:01.801Z</time></trkpt><trkpt lat="40.3172529" lon="9.5349465"><ele>165.75</ele><time>2026-03-28T08:44:02.804Z</time></trkpt><trkpt lat="40.3171595" lon="9.5348302"><ele>164.0</ele><time>2026-03-28T08:44:03.807Z</time></trkpt><trkpt lat="40.3170693" lon="9.5347132"><ele>164.0</ele><time>2026-03-28T08:44:04.806Z</time></trkpt><trkpt lat="40.316984" lon="9.5346045"><ele>164.0</ele><time>2026-03-28T08:44:05.804Z</time></trkpt><trkpt lat="40.3169003" lon="9.5345079"><ele>164.0</ele><time>2026-03-28T08:44:06.805Z</time></trkpt><trkpt lat="40.3168093" lon="9.534432"><ele>164.0</ele><time>2026-03-28T08:44:07.803Z</time></trkpt><trkpt lat="40.3167063" lon="9.5343877"><ele>164.0</ele><time>2026-03-28T08:44:08.803Z</time></trkpt><trkpt lat="40.3165946" lon="9.5343691"><ele>162.0</ele><time>2026-03-28T08:44:09.803Z</time></trkpt><trkpt lat="40.3164747" lon="9.5343629"><ele>160.0</ele><time>2026-03-28T08:44:10.799Z</time></trkpt><trkpt lat="40.3163477" lon="9.5343569"><ele>158.0</ele><time>2026-03-28T08:44:11.809Z</time></trkpt><trkpt lat="40.3162123" lon="9.5343455"><ele>156.0</ele><time>2026-03-28T08:44:12.812Z</time></trkpt><trkpt lat="40.3160763" lon="9.5343183"><ele>155.0</ele><time>2026-03-28T08:44:13.812Z</time></trkpt><trkpt lat="40.3159468" lon="9.5342959"><ele>154.0</ele><time>2026-03-28T08:44:14.806Z</time></trkpt><trkpt lat="40.3158253" lon="9.5342777"><ele>153.0</ele><time>2026-03-28T08:44:15.809Z</time></trkpt><trkpt lat="40.3157036" lon="9.5342821"><ele>152.0</ele><time>2026-03-28T08:44:16.813Z</time></trkpt><trkpt lat="40.3155951" lon="9.5343495"><ele>151.75</ele><time>2026-03-28T08:44:17.808Z</time></trkpt><trkpt lat="40.3154976" lon="9.5344518"><ele>151.5</ele><time>2026-03-28T08:44:18.808Z</time></trkpt><trkpt lat="40.3154119" lon="9.5345869"><ele>151.25</ele><time>2026-03-28T08:44:19.809Z</time></trkpt><trkpt lat="40.3153344" lon="9.5347336"><ele>151.0</ele><time>2026-03-28T08:44:20.802Z</time></trkpt><trkpt lat="40.315252" lon="9.5348641"><ele>151.0</ele><time>2026-03-28T08:44:21.808Z</time></trkpt><trkpt lat="40.3151676" lon="9.5349677"><ele>151.0</ele><time>2026-03-28T08:44:22.805Z</time></trkpt><trkpt lat="40.3150932" lon="9.535049"><ele>151.0</ele><time>2026-03-28T08:44:23.808Z</time></trkpt><trkpt lat="40.3149967" lon="9.5350763"><ele>151.0</ele><time>2026-03-28T08:44:24.805Z</time></trkpt><trkpt lat="40.3148985" lon="9.5350297"><ele>151.0</ele><time>2026-03-28T08:44:25.805Z</time></trkpt><trkpt lat="40.3148109" lon="9.5349416"><ele>151.75</ele><time>2026-03-28T08:44:26.809Z</time></trkpt><trkpt lat="40.3147268" lon="9.5348159"><ele>152.5</ele><time>2026-03-28T08:44:27.802Z</time></trkpt><trkpt lat="40.3146508" lon="9.5346749"><ele>153.25</ele><time>2026-03-28T08:44:28.806Z</time></trkpt><trkpt lat="40.3145663" lon="9.5345505"><ele>154.0</ele><time>2026-03-28T08:44:29.809Z</time></trkpt><trkpt lat="40.3144617" lon="9.5344574"><ele>151.5</ele><time>2026-03-28T08:44:30.81Z</time></trkpt><trkpt lat="40.314332" lon="9.5344004"><ele>149.0</ele><time>2026-03-28T08:44:31.807Z</time></trkpt><trkpt lat="40.3141901" lon="9.5343694"><ele>146.5</ele><time>2026-03-28T08:44:32.805Z</time></trkpt><trkpt lat="40.3140377" lon="9.5343504"><ele>144.0</ele><time>2026-03-28T08:44:33.805Z</time></trkpt><trkpt lat="40.3138815" lon="9.5343324"><ele>143.33333333333334</ele><time>2026-03-28T08:44:34.81Z</time></trkpt><trkpt lat="40.3137268" lon="9.5343133"><ele>142.66666666666669</ele><time>2026-03-28T08:44:35.803Z</time></trkpt><trkpt lat="40.3135753" lon="9.5342931"><ele>142.0</ele><time>2026-03-28T08:44:36.801Z</time></trkpt><trkpt lat="40.3134308" lon="9.5342734"><ele>142.0</ele><time>2026-03-28T08:44:37.809Z</time></trkpt><trkpt lat="40.3132909" lon="9.5342544"><ele>142.0</ele><time>2026-03-28T08:44:38.804Z</time></trkpt><trkpt lat="40.3131591" lon="9.534236"><ele>142.0</ele><time>2026-03-28T08:44:39.807Z</time></trkpt><trkpt lat="40.3130299" lon="9.5342156"><ele>142.0</ele><time>2026-03-28T08:44:40.804Z</time></trkpt><trkpt lat="40.312903" lon="9.5341979"><ele>141.5</ele><time>2026-03-28T08:44:41.809Z</time></trkpt><trkpt lat="40.3127784" lon="9.5341872"><ele>141.0</ele><time>2026-03-28T08:44:42.805Z</time></trkpt><trkpt lat="40.3126578" lon="9.5341871"><ele>140.5</ele><time>2026-03-28T08:44:43.811Z</time></trkpt><trkpt lat="40.3125398" lon="9.5341952"><ele>140.0</ele><time>2026-03-28T08:44:44.814Z</time></trkpt><trkpt lat="40.312425" lon="9.5342063"><ele>140.0</ele><time>2026-03-28T08:44:45.808Z</time></trkpt><trkpt lat="40.3123157" lon="9.5342073"><ele>140.0</ele><time>2026-03-28T08:44:46.819Z</time></trkpt><trkpt lat="40.3122122" lon="9.5341827"><ele>140.0</ele><time>2026-03-28T08:44:47.812Z</time></trkpt><trkpt lat="40.312116" lon="9.5341263"><ele>140.0</ele><time>2026-03-28T08:44:48.805Z</time></trkpt><trkpt lat="40.3120315" lon="9.5340349"><ele>140.0</ele><time>2026-03-28T08:44:49.81Z</time></trkpt><trkpt lat="40.3119575" lon="9.5339306"><ele>139.2</ele><time>2026-03-28T08:44:50.811Z</time></trkpt><trkpt lat="40.3119002" lon="9.5338216"><ele>138.4</ele><time>2026-03-28T08:44:51.804Z</time></trkpt><trkpt lat="40.3118235" lon="9.5337529"><ele>137.6</ele><time>2026-03-28T08:44:52.813Z</time></trkpt><trkpt lat="40.311728" lon="9.5337334"><ele>136.8</ele><time>2026-03-28T08:44:53.805Z</time></trkpt><trkpt lat="40.3116227" lon="9.5337597"><ele>136.0</ele><time>2026-03-28T08:44:54.806Z</time></trkpt><trkpt lat="40.3115152" lon="9.533822"><ele>136.75</ele><time>2026-03-28T08:44:55.805Z</time></trkpt><trkpt lat="40.3114015" lon="9.5339055"><ele>137.5</ele><time>2026-03-28T08:44:56.809Z</time></trkpt><trkpt lat="40.3112846" lon="9.5340119"><ele>138.25</ele><time>2026-03-28T08:44:57.817Z</time></trkpt><trkpt lat="40.3111746" lon="9.534142"><ele>139.0</ele><time>2026-03-28T08:44:58.807Z</time></trkpt><trkpt lat="40.3110833" lon="9.5342968"><ele>139.0</ele><time>2026-03-28T08:44:59.805Z</time></trkpt><trkpt lat="40.3110053" lon="9.5344754"><ele>139.0</ele><time>2026-03-28T08:45:00.809Z</time></trkpt><trkpt lat="40.3109342" lon="9.5346578"><ele>139.0</ele><time>2026-03-28T08:45:01.805Z</time></trkpt><trkpt lat="40.310868" lon="9.5348385"><ele>138.0</ele><time>2026-03-28T08:45:02.807Z</time></trkpt><trkpt lat="40.3108029" lon="9.5350146"><ele>137.0</ele><time>2026-03-28T08:45:03.805Z</time></trkpt><trkpt lat="40.3107386" lon="9.5351817"><ele>136.0</ele><time>2026-03-28T08:45:04.809Z</time></trkpt><trkpt lat="40.3106773" lon="9.5353333"><ele>135.0</ele><time>2026-03-28T08:45:05.819Z</time></trkpt><trkpt lat="40.3106165" lon="9.5354786"><ele>136.5</ele><time>2026-03-28T08:45:06.797Z</time></trkpt><trkpt lat="40.3105506" lon="9.5356225"><ele>138.0</ele><time>2026-03-28T08:45:07.8Z</time></trkpt><trkpt lat="40.3104748" lon="9.5357632"><ele>139.5</ele><time>2026-03-28T08:45:08.808Z</time></trkpt><trkpt lat="40.3103878" lon="9.5358972"><ele>141.0</ele><time>2026-03-28T08:45:09.805Z</time></trkpt><trkpt lat="40.3102901" lon="9.5360213"><ele>141.0</ele><time>2026-03-28T08:45:10.804Z</time></trkpt><trkpt lat="40.3101823" lon="9.5361343"><ele>141.0</ele><time>2026-03-28T08:45:11.8Z</time></trkpt><trkpt lat="40.3100648" lon="9.5362319"><ele>141.0</ele><time>2026-03-28T08:45:12.808Z</time></trkpt><trkpt lat="40.3099402" lon="9.5363158"><ele>141.0</ele><time>2026-03-28T08:45:13.814Z</time></trkpt><trkpt lat="40.3098108" lon="9.5363882"><ele>141.0</ele><time>2026-03-28T08:45:14.805Z</time></trkpt><trkpt lat="40.3096811" lon="9.5364569"><ele>141.0</ele><time>2026-03-28T08:45:15.801Z</time></trkpt><trkpt lat="40.3095618" lon="9.5365268"><ele>141.0</ele><time>2026-03-28T08:45:16.808Z</time></trkpt><trkpt lat="40.3094501" lon="9.5366047"><ele>141.0</ele><time>2026-03-28T08:45:17.805Z</time></trkpt><trkpt lat="40.3093406" lon="9.5367034"><ele>141.0</ele><time>2026-03-28T08:45:18.806Z</time></trkpt><trkpt lat="40.3092376" lon="9.5368309"><ele>141.0</ele><time>2026-03-28T08:45:19.811Z</time></trkpt><trkpt lat="40.3091426" lon="9.5369821"><ele>141.0</ele><time>2026-03-28T08:45:20.803Z</time></trkpt><trkpt lat="40.3090483" lon="9.5371461"><ele>141.0</ele><time>2026-03-28T08:45:21.808Z</time></trkpt><trkpt lat="40.308949" lon="9.5373169"><ele>144.0</ele><time>2026-03-28T08:45:22.806Z</time></trkpt><trkpt lat="40.3088472" lon="9.5374903"><ele>147.0</ele><time>2026-03-28T08:45:23.805Z</time></trkpt><trkpt lat="40.3087475" lon="9.5376641"><ele>150.0</ele><time>2026-03-28T08:45:24.807Z</time></trkpt><trkpt lat="40.308649" lon="9.5378369"><ele>144.0</ele><time>2026-03-28T08:45:25.801Z</time></trkpt><trkpt lat="40.3085513" lon="9.5380077"><ele>138.0</ele><time>2026-03-28T08:45:26.811Z</time></trkpt><trkpt lat="40.3084588" lon="9.5381673"><ele>132.0</ele><time>2026-03-28T08:45:27.8Z</time></trkpt><trkpt lat="40.3083737" lon="9.5383103"><ele>132.0</ele><time>2026-03-28T08:45:28.811Z</time></trkpt><trkpt lat="40.3082853" lon="9.5384357"><ele>132.0</ele><time>2026-03-28T08:45:29.808Z</time></trkpt><trkpt lat="40.3081832" lon="9.5385406"><ele>132.0</ele><time>2026-03-28T08:45:30.806Z</time></trkpt><trkpt lat="40.308088" lon="9.5386234"><ele>132.0</ele><time>2026-03-28T08:45:31.807Z</time></trkpt><trkpt lat="40.3079624" lon="9.5386732"><ele>135.0</ele><time>2026-03-28T08:45:32.811Z</time></trkpt><trkpt lat="40.3078044" lon="9.5386608"><ele>138.0</ele><time>2026-03-28T08:45:33.809Z</time></trkpt><trkpt lat="40.3076442" lon="9.5386203"><ele>141.0</ele><time>2026-03-28T08:45:34.806Z</time></trkpt><trkpt lat="40.3074827" lon="9.5385656"><ele>141.0</ele><time>2026-03-28T08:45:35.801Z</time></trkpt><trkpt lat="40.3073269" lon="9.5385228"><ele>141.0</ele><time>2026-03-28T08:45:36.804Z</time></trkpt><trkpt lat="40.3071817" lon="9.5384884"><ele>141.0</ele><time>2026-03-28T08:45:37.811Z</time></trkpt><trkpt lat="40.307059" lon="9.5384708"><ele>141.0</ele><time>2026-03-28T08:45:38.805Z</time></trkpt><trkpt lat="40.3069375" lon="9.5385097"><ele>140.25</ele><time>2026-03-28T08:45:39.804Z</time></trkpt><trkpt lat="40.3068268" lon="9.5385881"><ele>139.5</ele><time>2026-03-28T08:45:40.799Z</time></trkpt><trkpt lat="40.3067382" lon="9.5387096"><ele>138.75</ele><time>2026-03-28T08:45:41.804Z</time></trkpt><trkpt lat="40.3066737" lon="9.5388631"><ele>138.0</ele><time>2026-03-28T08:45:42.802Z</time></trkpt><trkpt lat="40.3066237" lon="9.5390398"><ele>127.66666666666666</ele><time>2026-03-28T08:45:43.805Z</time></trkpt><trkpt lat="40.3065733" lon="9.5392313"><ele>117.33333333333333</ele><time>2026-03-28T08:45:44.803Z</time></trkpt><trkpt lat="40.3065316" lon="9.5394337"><ele>107.0</ele><time>2026-03-28T08:45:45.805Z</time></trkpt><trkpt lat="40.3064848" lon="9.5396306"><ele>105.66666666666666</ele><time>2026-03-28T08:45:46.802Z</time></trkpt><trkpt lat="40.3064458" lon="9.5398368"><ele>104.33333333333334</ele><time>2026-03-28T08:45:47.801Z</time></trkpt><trkpt lat="40.3064091" lon="9.540051"><ele>103.0</ele><time>2026-03-28T08:45:48.807Z</time></trkpt><trkpt lat="40.30637" lon="9.5402548"><ele>108.66666666666667</ele><time>2026-03-28T08:45:49.815Z</time></trkpt><trkpt lat="40.3063321" lon="9.540454"><ele>114.33333333333334</ele><time>2026-03-28T08:45:50.808Z</time></trkpt><trkpt lat="40.3062926" lon="9.5406469"><ele>120.0</ele><time>2026-03-28T08:45:51.807Z</time></trkpt><trkpt lat="40.3062544" lon="9.5408286"><ele>120.0</ele><time>2026-03-28T08:45:52.809Z</time></trkpt><trkpt lat="40.3062172" lon="9.5409955"><ele>120.0</ele><time>2026-03-28T08:45:53.809Z</time></trkpt><trkpt lat="40.3061783" lon="9.5411456"><ele>120.0</ele><time>2026-03-28T08:45:54.801Z</time></trkpt><trkpt lat="40.3061357" lon="9.5412802"><ele>120.0</ele><time>2026-03-28T08:45:55.807Z</time></trkpt><trkpt lat="40.3060866" lon="9.5413938"><ele>126.4</ele><time>2026-03-28T08:45:56.814Z</time></trkpt><trkpt lat="40.3060229" lon="9.5415052"><ele>132.8</ele><time>2026-03-28T08:45:57.807Z</time></trkpt><trkpt lat="40.3059378" lon="9.5415651"><ele>139.2</ele><time>2026-03-28T08:45:58.8Z</time></trkpt><trkpt lat="40.3058304" lon="9.5416051"><ele>145.6</ele><time>2026-03-28T08:45:59.802Z</time></trkpt><trkpt lat="40.3057001" lon="9.5415758"><ele>152.0</ele><time>2026-03-28T08:46:00.809Z</time></trkpt><trkpt lat="40.3055688" lon="9.5415137"><ele>155.0</ele><time>2026-03-28T08:46:01.804Z</time></trkpt><trkpt lat="40.3054407" lon="9.541427"><ele>158.0</ele><time>2026-03-28T08:46:02.805Z</time></trkpt><trkpt lat="40.3053145" lon="9.5413179"><ele>161.0</ele><time>2026-03-28T08:46:03.808Z</time></trkpt><trkpt lat="40.3051864" lon="9.5412003"><ele>152.0</ele><time>2026-03-28T08:46:04.813Z</time></trkpt><trkpt lat="40.3050583" lon="9.5410819"><ele>143.0</ele><time>2026-03-28T08:46:05.804Z</time></trkpt><trkpt lat="40.3049376" lon="9.540966"><ele>134.0</ele><time>2026-03-28T08:46:06.806Z</time></trkpt><trkpt lat="40.3048166" lon="9.5408547"><ele>138.5</ele><time>2026-03-28T08:46:07.805Z</time></trkpt><trkpt lat="40.3046991" lon="9.5407546"><ele>143.0</ele><time>2026-03-28T08:46:08.808Z</time></trkpt><trkpt lat="40.3045797" lon="9.5406774"><ele>147.5</ele><time>2026-03-28T08:46:09.808Z</time></trkpt><trkpt lat="40.3044513" lon="9.5406337"><ele>152.0</ele><time>2026-03-28T08:46:10.8Z</time></trkpt><trkpt lat="40.3043175" lon="9.5406294"><ele>152.0</ele><time>2026-03-28T08:46:11.805Z</time></trkpt><trkpt lat="40.304183" lon="9.5406654"><ele>152.0</ele><time>2026-03-28T08:46:12.802Z</time></trkpt><trkpt lat="40.3040556" lon="9.5407403"><ele>152.0</ele><time>2026-03-28T08:46:13.801Z</time></trkpt><trkpt lat="40.3039396" lon="9.5408512"><ele>152.0</ele><time>2026-03-28T08:46:14.802Z</time></trkpt><trkpt lat="40.3038302" lon="9.5409876"><ele>153.33333333333331</ele><time>2026-03-28T08:46:15.812Z</time></trkpt><trkpt lat="40.3037213" lon="9.5411322"><ele>154.66666666666666</ele><time>2026-03-28T08:46:16.809Z</time></trkpt><trkpt lat="40.3036107" lon="9.5412788"><ele>156.0</ele><time>2026-03-28T08:46:17.804Z</time></trkpt><trkpt lat="40.303504" lon="9.5414159"><ele>156.0</ele><time>2026-03-28T08:46:18.805Z</time></trkpt><trkpt lat="40.303405" lon="9.5415418"><ele>156.0</ele><time>2026-03-28T08:46:19.805Z</time></trkpt><trkpt lat="40.3033135" lon="9.5416608"><ele>156.0</ele><time>2026-03-28T08:46:20.805Z</time></trkpt><trkpt lat="40.3032287" lon="9.5417718"><ele>156.0</ele><time>2026-03-28T08:46:21.804Z</time></trkpt><trkpt lat="40.3031514" lon="9.5418725"><ele>156.6</ele><time>2026-03-28T08:46:22.8Z</time></trkpt><trkpt lat="40.3030764" lon="9.5419681"><ele>157.2</ele><time>2026-03-28T08:46:23.804Z</time></trkpt><trkpt lat="40.3030017" lon="9.5420631"><ele>157.8</ele><time>2026-03-28T08:46:24.808Z</time></trkpt><trkpt lat="40.3029279" lon="9.5421598"><ele>158.4</ele><time>2026-03-28T08:46:25.807Z</time></trkpt><trkpt lat="40.3028521" lon="9.5422589"><ele>159.0</ele><time>2026-03-28T08:46:26.807Z</time></trkpt><trkpt lat="40.3027737" lon="9.5423635"><ele>159.0</ele><time>2026-03-28T08:46:27.809Z</time></trkpt><trkpt lat="40.3026988" lon="9.5424777"><ele>159.0</ele><time>2026-03-28T08:46:28.809Z</time></trkpt><trkpt lat="40.3026312" lon="9.5426006"><ele>159.0</ele><time>2026-03-28T08:46:29.809Z</time></trkpt><trkpt lat="40.302572" lon="9.5427305"><ele>159.0</ele><time>2026-03-28T08:46:30.807Z</time></trkpt><trkpt lat="40.3025223" lon="9.5428623"><ele>162.0</ele><time>2026-03-28T08:46:31.81Z</time></trkpt><trkpt lat="40.3024822" lon="9.5429978"><ele>165.0</ele><time>2026-03-28T08:46:32.808Z</time></trkpt><trkpt lat="40.3024545" lon="9.5431415"><ele>168.0</ele><time>2026-03-28T08:46:33.804Z</time></trkpt><trkpt lat="40.3024381" lon="9.5432905"><ele>171.0</ele><time>2026-03-28T08:46:34.805Z</time></trkpt><trkpt lat="40.302434" lon="9.543444"><ele>171.0</ele><time>2026-03-28T08:46:35.806Z</time></trkpt><trkpt lat="40.3024414" lon="9.5435982"><ele>171.0</ele><time>2026-03-28T08:46:36.805Z</time></trkpt><trkpt lat="40.3024628" lon="9.543755"><ele>171.0</ele><time>2026-03-28T08:46:37.802Z</time></trkpt><trkpt lat="40.302497" lon="9.5439101"><ele>171.0</ele><time>2026-03-28T08:46:38.805Z</time></trkpt><trkpt lat="40.3025446" lon="9.5440624"><ele>171.5</ele><time>2026-03-28T08:46:39.801Z</time></trkpt><trkpt lat="40.3026089" lon="9.5442106"><ele>172.0</ele><time>2026-03-28T08:46:40.808Z</time></trkpt><trkpt lat="40.3026959" lon="9.544359"><ele>172.5</ele><time>2026-03-28T08:46:41.807Z</time></trkpt><trkpt lat="40.3028037" lon="9.54452"><ele>173.0</ele><time>2026-03-28T08:46:42.81Z</time></trkpt><trkpt lat="40.3029203" lon="9.5446983"><ele>173.0</ele><time>2026-03-28T08:46:43.8Z</time></trkpt><trkpt lat="40.3030372" lon="9.5448917"><ele>173.0</ele><time>2026-03-28T08:46:44.802Z</time></trkpt><trkpt lat="40.3031573" lon="9.545097"><ele>173.0</ele><time>2026-03-28T08:46:45.808Z</time></trkpt><trkpt lat="40.3032827" lon="9.5453072"><ele>174.66666666666666</ele><time>2026-03-28T08:46:46.807Z</time></trkpt><trkpt lat="40.3034147" lon="9.5455206"><ele>176.33333333333334</ele><time>2026-03-28T08:46:47.809Z</time></trkpt><trkpt lat="40.3035498" lon="9.5457349"><ele>178.0</ele><time>2026-03-28T08:46:48.816Z</time></trkpt><trkpt lat="40.303687" lon="9.5459504"><ele>178.0</ele><time>2026-03-28T08:46:49.807Z</time></trkpt><trkpt lat="40.3038254" lon="9.5461656"><ele>178.0</ele><time>2026-03-28T08:46:50.809Z</time></trkpt><trkpt lat="40.3039656" lon="9.5463833"><ele>178.0</ele><time>2026-03-28T08:46:51.812Z</time></trkpt><trkpt lat="40.3041051" lon="9.5466004"><ele>179.0</ele><time>2026-03-28T08:46:52.81Z</time></trkpt><trkpt lat="40.3042455" lon="9.5468105"><ele>180.0</ele><time>2026-03-28T08:46:53.81Z</time></trkpt><trkpt lat="40.3043938" lon="9.5470067"><ele>181.0</ele><time>2026-03-28T08:46:54.825Z</time></trkpt><trkpt lat="40.3045488" lon="9.5471866"><ele>183.0</ele><time>2026-03-28T08:46:55.814Z</time></trkpt><trkpt lat="40.3046921" lon="9.5473457"><ele>185.0</ele><time>2026-03-28T08:46:56.806Z</time></trkpt><trkpt lat="40.3048289" lon="9.5474953"><ele>187.0</ele><time>2026-03-28T08:46:57.809Z</time></trkpt><trkpt lat="40.3049602" lon="9.5476719"><ele>187.33333333333334</ele><time>2026-03-28T08:46:58.815Z</time></trkpt><trkpt lat="40.3050653" lon="9.5478723"><ele>187.66666666666666</ele><time>2026-03-28T08:46:59.809Z</time></trkpt><trkpt lat="40.3051438" lon="9.5480952"><ele>188.0</ele><time>2026-03-28T08:47:00.809Z</time></trkpt><trkpt lat="40.3052065" lon="9.5483268"><ele>188.0</ele><time>2026-03-28T08:47:01.809Z</time></trkpt><trkpt lat="40.3052589" lon="9.5485706"><ele>188.0</ele><time>2026-03-28T08:47:02.806Z</time></trkpt><trkpt lat="40.3053261" lon="9.5488004"><ele>188.0</ele><time>2026-03-28T08:47:03.808Z</time></trkpt><trkpt lat="40.3054156" lon="9.5490105"><ele>188.66666666666666</ele><time>2026-03-28T08:47:04.813Z</time></trkpt><trkpt lat="40.3055273" lon="9.5492118"><ele>189.33333333333334</ele><time>2026-03-28T08:47:05.809Z</time></trkpt><trkpt lat="40.3056443" lon="9.5494083"><ele>190.0</ele><time>2026-03-28T08:47:06.809Z</time></trkpt><trkpt lat="40.3057522" lon="9.549614"><ele>192.33333333333334</ele><time>2026-03-28T08:47:07.812Z</time></trkpt><trkpt lat="40.3058568" lon="9.5498196"><ele>194.66666666666669</ele><time>2026-03-28T08:47:08.816Z</time></trkpt><trkpt lat="40.3059474" lon="9.550045"><ele>197.0</ele><time>2026-03-28T08:47:09.805Z</time></trkpt><trkpt lat="40.3060471" lon="9.5502688"><ele>199.33333333333334</ele><time>2026-03-28T08:47:10.805Z</time></trkpt><trkpt lat="40.3061574" lon="9.5504837"><ele>201.66666666666669</ele><time>2026-03-28T08:47:11.802Z</time></trkpt><trkpt lat="40.3062744" lon="9.5506797"><ele>204.0</ele><time>2026-03-28T08:47:12.799Z</time></trkpt><trkpt lat="40.3063924" lon="9.5508733"><ele>204.66666666666669</ele><time>2026-03-28T08:47:13.8Z</time></trkpt><trkpt lat="40.3064895" lon="9.5510711"><ele>205.33333333333334</ele><time>2026-03-28T08:47:14.806Z</time></trkpt><trkpt lat="40.306563" lon="9.5512646"><ele>206.0</ele><time>2026-03-28T08:47:15.798Z</time></trkpt><trkpt lat="40.3066196" lon="9.5514468"><ele>206.0</ele><time>2026-03-28T08:47:16.797Z</time></trkpt><trkpt lat="40.3066662" lon="9.5516063"><ele>206.0</ele><time>2026-03-28T08:47:17.8Z</time></trkpt><trkpt lat="40.3067074" lon="9.5517557"><ele>206.0</ele><time>2026-03-28T08:47:18.802Z</time></trkpt><trkpt lat="40.3067465" lon="9.5518906"><ele>206.0</ele><time>2026-03-28T08:47:19.808Z</time></trkpt><trkpt lat="40.3067834" lon="9.5520079"><ele>206.83333333333334</ele><time>2026-03-28T08:47:20.805Z</time></trkpt><trkpt lat="40.3068149" lon="9.552105"><ele>207.66666666666669</ele><time>2026-03-28T08:47:21.811Z</time></trkpt><trkpt lat="40.3068432" lon="9.5521825"><ele>208.5</ele><time>2026-03-28T08:47:22.804Z</time></trkpt><trkpt lat="40.3069115" lon="9.5522681"><ele>209.33333333333331</ele><time>2026-03-28T08:47:24.81Z</time></trkpt><trkpt lat="40.3069758" lon="9.5522879"><ele>210.16666666666666</ele><time>2026-03-28T08:47:26.805Z</time></trkpt><trkpt lat="40.3070625" lon="9.5523149"><ele>211.0</ele><time>2026-03-28T08:49:45.809Z</time></trkpt><trkpt lat="40.307067" lon="9.5524182"><ele>210.99999999999997</ele><time>2026-03-28T08:49:48.807Z</time></trkpt><trkpt lat="40.3070514" lon="9.552522"><ele>211.0</ele><time>2026-03-28T08:50:37.805Z</time></trkpt><trkpt lat="40.30705" lon="9.5524238"><ele>211.0</ele><time>2026-03-28T08:54:05.779Z</time></trkpt><trkpt lat="40.3070741" lon="9.5523365"><ele>211.0</ele><time>2026-03-28T08:54:09.844Z</time></trkpt><trkpt lat="40.3071313" lon="9.5523764"><ele>210.99999999999997</ele><time>2026-03-28T09:05:24.809Z</time></trkpt><trkpt lat="40.3071393" lon="9.5524874"><ele>211.0</ele><time>2026-03-28T09:05:27.807Z</time></trkpt><trkpt lat="40.3071067" lon="9.5525765"><ele>210.99999999999997</ele><time>2026-03-28T09:05:30.8Z</time></trkpt><trkpt lat="40.3070805" lon="9.5526692"><ele>211.0</ele><time>2026-03-28T09:05:33.813Z</time></trkpt><trkpt lat="40.3070516" lon="9.5527498"><ele>211.0</ele><time>2026-03-28T09:05:49.808Z</time></trkpt><trkpt lat="40.3070408" lon="9.5528426"><ele>211.0</ele><time>2026-03-28T09:05:51.807Z</time></trkpt><trkpt lat="40.3070724" lon="9.5530032"><ele>210.99999999999997</ele><time>2026-03-28T09:05:53.801Z</time></trkpt><trkpt lat="40.3070996" lon="9.5530967"><ele>211.0</ele><time>2026-03-28T09:05:54.806Z</time></trkpt><trkpt lat="40.3071314" lon="9.5532025"><ele>211.20000000000002</ele><time>2026-03-28T09:05:55.827Z</time></trkpt><trkpt lat="40.3071659" lon="9.553318"><ele>211.4</ele><time>2026-03-28T09:05:56.803Z</time></trkpt><trkpt lat="40.3072027" lon="9.5534402"><ele>211.6</ele><time>2026-03-28T09:05:57.806Z</time></trkpt><trkpt lat="40.307242" lon="9.5535664"><ele>211.8</ele><time>2026-03-28T09:05:58.803Z</time></trkpt><trkpt lat="40.3072819" lon="9.5536891"><ele>212.0</ele><time>2026-03-28T09:05:59.801Z</time></trkpt><trkpt lat="40.3073204" lon="9.553817"><ele>212.8</ele><time>2026-03-28T09:06:00.798Z</time></trkpt><trkpt lat="40.3073601" lon="9.5539473"><ele>213.6</ele><time>2026-03-28T09:06:01.81Z</time></trkpt><trkpt lat="40.3073973" lon="9.5540882"><ele>214.40000000000003</ele><time>2026-03-28T09:06:02.803Z</time></trkpt><trkpt lat="40.3074311" lon="9.5542306"><ele>215.20000000000002</ele><time>2026-03-28T09:06:03.806Z</time></trkpt><trkpt lat="40.3074562" lon="9.5543765"><ele>216.0</ele><time>2026-03-28T09:06:04.809Z</time></trkpt><trkpt lat="40.3074736" lon="9.5545283"><ele>216.75</ele><time>2026-03-28T09:06:05.808Z</time></trkpt><trkpt lat="40.3074827" lon="9.5546841"><ele>217.5</ele><time>2026-03-28T09:06:06.807Z</time></trkpt><trkpt lat="40.3074863" lon="9.5548531"><ele>218.25</ele><time>2026-03-28T09:06:07.81Z</time></trkpt><trkpt lat="40.3074779" lon="9.5550296"><ele>219.0</ele><time>2026-03-28T09:06:08.808Z</time></trkpt><trkpt lat="40.3074687" lon="9.5552056"><ele>219.0</ele><time>2026-03-28T09:06:09.807Z</time></trkpt><trkpt lat="40.3074401" lon="9.5553754"><ele>219.0</ele><time>2026-03-28T09:06:10.806Z</time></trkpt><trkpt lat="40.3074019" lon="9.5555412"><ele>219.0</ele><time>2026-03-28T09:06:11.811Z</time></trkpt><trkpt lat="40.3073572" lon="9.5557037"><ele>219.0</ele><time>2026-03-28T09:06:12.804Z</time></trkpt><trkpt lat="40.3073089" lon="9.5558627"><ele>219.0</ele><time>2026-03-28T09:06:13.811Z</time></trkpt><trkpt lat="40.307255" lon="9.5560221"><ele>219.0</ele><time>2026-03-28T09:06:14.808Z</time></trkpt><trkpt lat="40.3072012" lon="9.5561831"><ele>219.0</ele><time>2026-03-28T09:06:15.81Z</time></trkpt><trkpt lat="40.3071453" lon="9.5563471"><ele>219.0</ele><time>2026-03-28T09:06:16.804Z</time></trkpt><trkpt lat="40.3070893" lon="9.5565124"><ele>220.5</ele><time>2026-03-28T09:06:17.808Z</time></trkpt><trkpt lat="40.3070313" lon="9.5566786"><ele>222.0</ele><time>2026-03-28T09:06:18.806Z</time></trkpt><trkpt lat="40.3069735" lon="9.5568473"><ele>223.5</ele><time>2026-03-28T09:06:19.81Z</time></trkpt><trkpt lat="40.3069151" lon="9.5570176"><ele>225.0</ele><time>2026-03-28T09:06:20.809Z</time></trkpt><trkpt lat="40.3068569" lon="9.5571891"><ele>225.0</ele><time>2026-03-28T09:06:21.803Z</time></trkpt><trkpt lat="40.3067978" lon="9.5573636"><ele>225.0</ele><time>2026-03-28T09:06:22.813Z</time></trkpt><trkpt lat="40.3067387" lon="9.5575372"><ele>225.0</ele><time>2026-03-28T09:06:23.805Z</time></trkpt><trkpt lat="40.3066811" lon="9.5577062"><ele>225.0</ele><time>2026-03-28T09:06:24.828Z</time></trkpt><trkpt lat="40.3066254" lon="9.5578673"><ele>225.25</ele><time>2026-03-28T09:06:25.803Z</time></trkpt><trkpt lat="40.3065713" lon="9.5580266"><ele>225.5</ele><time>2026-03-28T09:06:26.809Z</time></trkpt><trkpt lat="40.3065181" lon="9.5581841"><ele>225.75</ele><time>2026-03-28T09:06:27.804Z</time></trkpt><trkpt lat="40.3064651" lon="9.55834"><ele>226.0</ele><time>2026-03-28T09:06:28.805Z</time></trkpt><trkpt lat="40.3064115" lon="9.5584947"><ele>227.0</ele><time>2026-03-28T09:06:29.807Z</time></trkpt><trkpt lat="40.306358" lon="9.5586521"><ele>228.0</ele><time>2026-03-28T09:06:30.798Z</time></trkpt><trkpt lat="40.3063034" lon="9.558812"><ele>229.0</ele><time>2026-03-28T09:06:31.807Z</time></trkpt><trkpt lat="40.3062479" lon="9.5589758"><ele>230.0</ele><time>2026-03-28T09:06:32.804Z</time></trkpt><trkpt lat="40.3061916" lon="9.5591427"><ele>230.5</ele><time>2026-03-28T09:06:33.805Z</time></trkpt><trkpt lat="40.306134" lon="9.5593122"><ele>231.0</ele><time>2026-03-28T09:06:34.803Z</time></trkpt><trkpt lat="40.3060757" lon="9.5594849"><ele>231.5</ele><time>2026-03-28T09:06:35.806Z</time></trkpt><trkpt lat="40.306019" lon="9.5596624"><ele>232.0</ele><time>2026-03-28T09:06:36.813Z</time></trkpt><trkpt lat="40.3059575" lon="9.5598426"><ele>232.0</ele><time>2026-03-28T09:06:37.807Z</time></trkpt><trkpt lat="40.3058936" lon="9.5600239"><ele>232.0</ele><time>2026-03-28T09:06:38.804Z</time></trkpt><trkpt lat="40.305829" lon="9.5602101"><ele>232.0</ele><time>2026-03-28T09:06:39.81Z</time></trkpt><trkpt lat="40.3057633" lon="9.5604028"><ele>232.0</ele><time>2026-03-28T09:06:40.811Z</time></trkpt><trkpt lat="40.3056971" lon="9.5606009"><ele>232.0</ele><time>2026-03-28T09:06:41.806Z</time></trkpt><trkpt lat="40.305632" lon="9.560799"><ele>232.0</ele><time>2026-03-28T09:06:42.804Z</time></trkpt><trkpt lat="40.3055652" lon="9.5609993"><ele>233.66666666666666</ele><time>2026-03-28T09:06:43.805Z</time></trkpt><trkpt lat="40.3054957" lon="9.5612026"><ele>235.33333333333331</ele><time>2026-03-28T09:06:44.809Z</time></trkpt><trkpt lat="40.3054259" lon="9.5614098"><ele>237.0</ele><time>2026-03-28T09:06:45.802Z</time></trkpt><trkpt lat="40.3053555" lon="9.5616194"><ele>237.0</ele><time>2026-03-28T09:06:46.81Z</time></trkpt><trkpt lat="40.3052855" lon="9.5618269"><ele>237.0</ele><time>2026-03-28T09:06:47.803Z</time></trkpt><trkpt lat="40.3052175" lon="9.5620279"><ele>237.0</ele><time>2026-03-28T09:06:48.803Z</time></trkpt><trkpt lat="40.3051502" lon="9.5622275"><ele>237.0</ele><time>2026-03-28T09:06:49.808Z</time></trkpt><trkpt lat="40.3050826" lon="9.5624279"><ele>237.0</ele><time>2026-03-28T09:06:50.805Z</time></trkpt><trkpt lat="40.3050136" lon="9.5626293"><ele>237.0</ele><time>2026-03-28T09:06:51.806Z</time></trkpt><trkpt lat="40.3049436" lon="9.5628321"><ele>237.66666666666669</ele><time>2026-03-28T09:06:52.806Z</time></trkpt><trkpt lat="40.3048734" lon="9.5630368"><ele>238.33333333333334</ele><time>2026-03-28T09:06:53.802Z</time></trkpt><trkpt lat="40.3048028" lon="9.563243"><ele>239.0</ele><time>2026-03-28T09:06:54.805Z</time></trkpt><trkpt lat="40.3047326" lon="9.5634503"><ele>240.33333333333334</ele><time>2026-03-28T09:06:55.799Z</time></trkpt><trkpt lat="40.3046622" lon="9.5636581"><ele>241.66666666666669</ele><time>2026-03-28T09:06:56.803Z</time></trkpt><trkpt lat="40.3045915" lon="9.5638664"><ele>243.0</ele><time>2026-03-28T09:06:57.806Z</time></trkpt><trkpt lat="40.3045234" lon="9.5640655"><ele>243.33333333333331</ele><time>2026-03-28T09:06:58.804Z</time></trkpt><trkpt lat="40.3044571" lon="9.5642579"><ele>243.66666666666666</ele><time>2026-03-28T09:06:59.806Z</time></trkpt><trkpt lat="40.3043926" lon="9.564448"><ele>244.0</ele><time>2026-03-28T09:07:00.806Z</time></trkpt><trkpt lat="40.3043329" lon="9.5646384"><ele>245.0</ele><time>2026-03-28T09:07:01.805Z</time></trkpt><trkpt lat="40.3042872" lon="9.5648323"><ele>246.0</ele><time>2026-03-28T09:07:02.803Z</time></trkpt><trkpt lat="40.3042622" lon="9.5650327"><ele>247.0</ele><time>2026-03-28T09:07:03.808Z</time></trkpt><trkpt lat="40.3042588" lon="9.5652371"><ele>248.33333333333331</ele><time>2026-03-28T09:07:04.807Z</time></trkpt><trkpt lat="40.3042727" lon="9.5654441"><ele>249.66666666666669</ele><time>2026-03-28T09:07:05.809Z</time></trkpt><trkpt lat="40.3042871" lon="9.5656544"><ele>251.0</ele><time>2026-03-28T09:07:06.816Z</time></trkpt><trkpt lat="40.3042942" lon="9.5658552"><ele>251.0</ele><time>2026-03-28T09:07:07.802Z</time></trkpt><trkpt lat="40.3042723" lon="9.566061"><ele>251.0</ele><time>2026-03-28T09:07:08.802Z</time></trkpt><trkpt lat="40.304224" lon="9.5662643"><ele>251.0</ele><time>2026-03-28T09:07:09.805Z</time></trkpt><trkpt lat="40.304166" lon="9.5664674"><ele>252.33333333333334</ele><time>2026-03-28T09:07:10.805Z</time></trkpt><trkpt lat="40.3041051" lon="9.5666741"><ele>253.66666666666669</ele><time>2026-03-28T09:07:11.801Z</time></trkpt><trkpt lat="40.3040401" lon="9.5668773"><ele>255.0</ele><time>2026-03-28T09:07:12.802Z</time></trkpt><trkpt lat="40.3039779" lon="9.5670833"><ele>255.33333333333331</ele><time>2026-03-28T09:07:13.804Z</time></trkpt><trkpt lat="40.303916" lon="9.5672975"><ele>255.66666666666666</ele><time>2026-03-28T09:07:14.799Z</time></trkpt><trkpt lat="40.3038523" lon="9.5675068"><ele>256.0</ele><time>2026-03-28T09:07:15.805Z</time></trkpt><trkpt lat="40.3037824" lon="9.5677171"><ele>259.3333333333333</ele><time>2026-03-28T09:07:16.802Z</time></trkpt><trkpt lat="40.303717" lon="9.5679305"><ele>262.6666666666667</ele><time>2026-03-28T09:07:17.813Z</time></trkpt><trkpt lat="40.3036519" lon="9.5681451"><ele>266.0</ele><time>2026-03-28T09:07:18.802Z</time></trkpt><trkpt lat="40.3035885" lon="9.5683618"><ele>266.0</ele><time>2026-03-28T09:07:19.808Z</time></trkpt><trkpt lat="40.3035214" lon="9.5685799"><ele>266.0</ele><time>2026-03-28T09:07:20.807Z</time></trkpt><trkpt lat="40.3034547" lon="9.5687952"><ele>266.0</ele><time>2026-03-28T09:07:21.808Z</time></trkpt><trkpt lat="40.3033933" lon="9.5690021"><ele>267.33333333333337</ele><time>2026-03-28T09:07:22.802Z</time></trkpt><trkpt lat="40.3033355" lon="9.5691945"><ele>268.6666666666667</ele><time>2026-03-28T09:07:23.805Z</time></trkpt><trkpt lat="40.3032775" lon="9.5693788"><ele>270.0</ele><time>2026-03-28T09:07:24.805Z</time></trkpt><trkpt lat="40.3032234" lon="9.5695579"><ele>270.25</ele><time>2026-03-28T09:07:25.805Z</time></trkpt><trkpt lat="40.3031788" lon="9.5697364"><ele>270.5</ele><time>2026-03-28T09:07:26.798Z</time></trkpt><trkpt lat="40.3031524" lon="9.5699196"><ele>270.75</ele><time>2026-03-28T09:07:27.807Z</time></trkpt><trkpt lat="40.3031553" lon="9.5701025"><ele>271.0</ele><time>2026-03-28T09:07:28.802Z</time></trkpt><trkpt lat="40.3031907" lon="9.5702822"><ele>272.75</ele><time>2026-03-28T09:07:29.8Z</time></trkpt><trkpt lat="40.3032437" lon="9.5704556"><ele>274.5</ele><time>2026-03-28T09:07:30.807Z</time></trkpt><trkpt lat="40.3032953" lon="9.5706327"><ele>276.25</ele><time>2026-03-28T09:07:31.815Z</time></trkpt><trkpt lat="40.3033243" lon="9.5708161"><ele>278.0</ele><time>2026-03-28T09:07:32.798Z</time></trkpt><trkpt lat="40.3033273" lon="9.5710058"><ele>278.0</ele><time>2026-03-28T09:07:33.824Z</time></trkpt><trkpt lat="40.303331" lon="9.5711861"><ele>278.0</ele><time>2026-03-28T09:07:34.802Z</time></trkpt><trkpt lat="40.3033115" lon="9.5713661"><ele>278.0</ele><time>2026-03-28T09:07:35.803Z</time></trkpt><trkpt lat="40.3032752" lon="9.5715272"><ele>278.0</ele><time>2026-03-28T09:07:36.807Z</time></trkpt><trkpt lat="40.3032447" lon="9.5716791"><ele>278.2</ele><time>2026-03-28T09:07:37.808Z</time></trkpt><trkpt lat="40.303212" lon="9.571811"><ele>278.4</ele><time>2026-03-28T09:07:38.799Z</time></trkpt><trkpt lat="40.3031816" lon="9.5719193"><ele>278.59999999999997</ele><time>2026-03-28T09:07:39.801Z</time></trkpt><trkpt lat="40.3031487" lon="9.5720045"><ele>278.8</ele><time>2026-03-28T09:07:40.799Z</time></trkpt><trkpt lat="40.3030687" lon="9.5720889"><ele>279.0</ele><time>2026-03-28T09:07:42.797Z</time></trkpt><trkpt lat="40.3029738" lon="9.5720787"><ele>280.8</ele><time>2026-03-28T09:07:44.802Z</time></trkpt><trkpt lat="40.302921" lon="9.5719375"><ele>282.59999999999997</ele><time>2026-03-28T09:07:46.802Z</time></trkpt><trkpt lat="40.3028637" lon="9.5718463"><ele>284.4</ele><time>2026-03-28T09:07:47.804Z</time></trkpt><trkpt lat="40.302772" lon="9.5717647"><ele>286.2</ele><time>2026-03-28T09:07:48.804Z</time></trkpt><trkpt lat="40.3026781" lon="9.5717028"><ele>288.0</ele><time>2026-03-28T09:07:49.8Z</time></trkpt><trkpt lat="40.3025667" lon="9.5716817"><ele>288.0</ele><time>2026-03-28T09:07:50.801Z</time></trkpt><trkpt lat="40.3024487" lon="9.5716611"><ele>288.0</ele><time>2026-03-28T09:07:51.802Z</time></trkpt><trkpt lat="40.3023199" lon="9.5716364"><ele>288.0</ele><time>2026-03-28T09:07:52.801Z</time></trkpt><trkpt lat="40.3021852" lon="9.5716177"><ele>288.0</ele><time>2026-03-28T09:07:53.808Z</time></trkpt><trkpt lat="40.3020455" lon="9.5715778"><ele>289.0</ele><time>2026-03-28T09:07:54.808Z</time></trkpt><trkpt lat="40.3019077" lon="9.5715139"><ele>290.0</ele><time>2026-03-28T09:07:55.809Z</time></trkpt><trkpt lat="40.3017838" lon="9.5714181"><ele>291.0</ele><time>2026-03-28T09:07:56.81Z</time></trkpt><trkpt lat="40.3016743" lon="9.5712882"><ele>292.0</ele><time>2026-03-28T09:07:57.808Z</time></trkpt><trkpt lat="40.3015785" lon="9.5711415"><ele>292.0</ele><time>2026-03-28T09:07:58.802Z</time></trkpt><trkpt lat="40.3014956" lon="9.5710057"><ele>292.0</ele><time>2026-03-28T09:07:59.806Z</time></trkpt><trkpt lat="40.3014114" lon="9.5708961"><ele>292.0</ele><time>2026-03-28T09:08:00.812Z</time></trkpt><trkpt lat="40.3013185" lon="9.5708179"><ele>292.0</ele><time>2026-03-28T09:08:01.812Z</time></trkpt><trkpt lat="40.3012134" lon="9.5707875"><ele>291.4</ele><time>2026-03-28T09:08:02.801Z</time></trkpt><trkpt lat="40.3011111" lon="9.5708117"><ele>290.79999999999995</ele><time>2026-03-28T09:08:03.807Z</time></trkpt><trkpt lat="40.3010246" lon="9.5708897"><ele>290.2</ele><time>2026-03-28T09:08:04.807Z</time></trkpt><trkpt lat="40.3009569" lon="9.57101"><ele>289.59999999999997</ele><time>2026-03-28T09:08:05.811Z</time></trkpt><trkpt lat="40.300908" lon="9.5711617"><ele>289.0</ele><time>2026-03-28T09:08:06.807Z</time></trkpt><trkpt lat="40.3008732" lon="9.571333"><ele>291.66666666666663</ele><time>2026-03-28T09:08:07.81Z</time></trkpt><trkpt lat="40.3008473" lon="9.5715205"><ele>294.3333333333333</ele><time>2026-03-28T09:08:08.806Z</time></trkpt><trkpt lat="40.3008136" lon="9.5717153"><ele>297.0</ele><time>2026-03-28T09:08:09.807Z</time></trkpt><trkpt lat="40.3007743" lon="9.5719092"><ele>296.6666666666667</ele><time>2026-03-28T09:08:10.808Z</time></trkpt><trkpt lat="40.3007193" lon="9.5720939"><ele>296.33333333333337</ele><time>2026-03-28T09:08:11.807Z</time></trkpt><trkpt lat="40.3006511" lon="9.5722719"><ele>296.0</ele><time>2026-03-28T09:08:12.811Z</time></trkpt><trkpt lat="40.3005728" lon="9.5724453"><ele>296.0</ele><time>2026-03-28T09:08:13.805Z</time></trkpt><trkpt lat="40.3004863" lon="9.5726155"><ele>296.0</ele><time>2026-03-28T09:08:14.805Z</time></trkpt><trkpt lat="40.3003935" lon="9.5727819"><ele>296.0</ele><time>2026-03-28T09:08:15.81Z</time></trkpt><trkpt lat="40.3002959" lon="9.5729441"><ele>299.0</ele><time>2026-03-28T09:08:16.803Z</time></trkpt><trkpt lat="40.3001968" lon="9.5731055"><ele>302.0</ele><time>2026-03-28T09:08:17.803Z</time></trkpt><trkpt lat="40.3001031" lon="9.5732647"><ele>305.0</ele><time>2026-03-28T09:08:18.807Z</time></trkpt><trkpt lat="40.3000212" lon="9.5734292"><ele>305.0</ele><time>2026-03-28T09:08:19.812Z</time></trkpt><trkpt lat="40.2999567" lon="9.5736041"><ele>305.0</ele><time>2026-03-28T09:08:20.806Z</time></trkpt><trkpt lat="40.2999085" lon="9.5737881"><ele>305.0</ele><time>2026-03-28T09:08:21.806Z</time></trkpt><trkpt lat="40.2998707" lon="9.5739797"><ele>305.0</ele><time>2026-03-28T09:08:22.808Z</time></trkpt><trkpt lat="40.299836" lon="9.574175"><ele>308.0</ele><time>2026-03-28T09:08:23.812Z</time></trkpt><trkpt lat="40.2997986" lon="9.5743696"><ele>311.0</ele><time>2026-03-28T09:08:24.802Z</time></trkpt><trkpt lat="40.2997517" lon="9.5745597"><ele>314.0</ele><time>2026-03-28T09:08:25.805Z</time></trkpt><trkpt lat="40.2996902" lon="9.5747421"><ele>314.25</ele><time>2026-03-28T09:08:26.807Z</time></trkpt><trkpt lat="40.2996179" lon="9.5749171"><ele>314.5</ele><time>2026-03-28T09:08:27.802Z</time></trkpt><trkpt lat="40.299542" lon="9.5750849"><ele>314.75</ele><time>2026-03-28T09:08:28.808Z</time></trkpt><trkpt lat="40.2994687" lon="9.5752476"><ele>315.0</ele><time>2026-03-28T09:08:29.809Z</time></trkpt><trkpt lat="40.2993967" lon="9.5754075"><ele>317.0</ele><time>2026-03-28T09:08:30.805Z</time></trkpt><trkpt lat="40.2993257" lon="9.5755642"><ele>319.0</ele><time>2026-03-28T09:08:31.807Z</time></trkpt><trkpt lat="40.2992592" lon="9.5757115"><ele>321.0</ele><time>2026-03-28T09:08:32.805Z</time></trkpt><trkpt lat="40.2991936" lon="9.5758555"><ele>323.0</ele><time>2026-03-28T09:08:33.805Z</time></trkpt><trkpt lat="40.299128" lon="9.5759997"><ele>323.0</ele><time>2026-03-28T09:08:34.808Z</time></trkpt><trkpt lat="40.2990621" lon="9.5761476"><ele>323.0</ele><time>2026-03-28T09:08:35.812Z</time></trkpt><trkpt lat="40.2989977" lon="9.5763007"><ele>323.0</ele><time>2026-03-28T09:08:36.806Z</time></trkpt><trkpt lat="40.298936" lon="9.5764574"><ele>323.0</ele><time>2026-03-28T09:08:37.813Z</time></trkpt><trkpt lat="40.298876" lon="9.5766145"><ele>324.0</ele><time>2026-03-28T09:08:38.81Z</time></trkpt><trkpt lat="40.2988143" lon="9.5767704"><ele>325.0</ele><time>2026-03-28T09:08:39.804Z</time></trkpt><trkpt lat="40.2987461" lon="9.5769199"><ele>326.0</ele><time>2026-03-28T09:08:40.805Z</time></trkpt><trkpt lat="40.2986719" lon="9.5770572"><ele>327.0</ele><time>2026-03-28T09:08:41.812Z</time></trkpt><trkpt lat="40.298594" lon="9.5771857"><ele>328.25</ele><time>2026-03-28T09:08:42.805Z</time></trkpt><trkpt lat="40.2985141" lon="9.577312"><ele>329.5</ele><time>2026-03-28T09:08:43.811Z</time></trkpt><trkpt lat="40.2984334" lon="9.5774328"><ele>330.75</ele><time>2026-03-28T09:08:44.801Z</time></trkpt><trkpt lat="40.2983507" lon="9.5775449"><ele>332.0</ele><time>2026-03-28T09:08:45.805Z</time></trkpt><trkpt lat="40.2982602" lon="9.577639"><ele>332.0</ele><time>2026-03-28T09:08:46.808Z</time></trkpt><trkpt lat="40.2981581" lon="9.5777015"><ele>332.0</ele><time>2026-03-28T09:08:47.808Z</time></trkpt><trkpt lat="40.2980484" lon="9.577723"><ele>332.0</ele><time>2026-03-28T09:08:48.804Z</time></trkpt><trkpt lat="40.2979419" lon="9.5776943"><ele>332.0</ele><time>2026-03-28T09:08:49.806Z</time></trkpt><trkpt lat="40.2978441" lon="9.5776241"><ele>332.0</ele><time>2026-03-28T09:08:50.805Z</time></trkpt><trkpt lat="40.2977496" lon="9.5775337"><ele>332.75</ele><time>2026-03-28T09:08:51.808Z</time></trkpt><trkpt lat="40.2976466" lon="9.5774493"><ele>333.5</ele><time>2026-03-28T09:08:52.807Z</time></trkpt><trkpt lat="40.2975283" lon="9.5774023"><ele>334.25</ele><time>2026-03-28T09:08:53.81Z</time></trkpt><trkpt lat="40.2974015" lon="9.5774036"><ele>335.0</ele><time>2026-03-28T09:08:54.804Z</time></trkpt><trkpt lat="40.2972726" lon="9.5774422"><ele>335.75</ele><time>2026-03-28T09:08:55.808Z</time></trkpt><trkpt lat="40.2971446" lon="9.5775008"><ele>336.5</ele><time>2026-03-28T09:08:56.81Z</time></trkpt><trkpt lat="40.2970215" lon="9.5775722"><ele>337.25</ele><time>2026-03-28T09:08:57.818Z</time></trkpt><trkpt lat="40.2969091" lon="9.5776553"><ele>338.0</ele><time>2026-03-28T09:08:58.808Z</time></trkpt><trkpt lat="40.296812" lon="9.5777521"><ele>339.75</ele><time>2026-03-28T09:08:59.808Z</time></trkpt><trkpt lat="40.2967284" lon="9.5778627"><ele>341.5</ele><time>2026-03-28T09:09:00.806Z</time></trkpt><trkpt lat="40.2966575" lon="9.5779832"><ele>343.25</ele><time>2026-03-28T09:09:01.808Z</time></trkpt><trkpt lat="40.2965982" lon="9.5781127"><ele>345.0</ele><time>2026-03-28T09:09:02.81Z</time></trkpt><trkpt lat="40.2965513" lon="9.5782496"><ele>345.0</ele><time>2026-03-28T09:09:03.81Z</time></trkpt><trkpt lat="40.2965182" lon="9.5783952"><ele>345.0</ele><time>2026-03-28T09:09:04.811Z</time></trkpt><trkpt lat="40.2965014" lon="9.5785472"><ele>345.0</ele><time>2026-03-28T09:09:05.808Z</time></trkpt><trkpt lat="40.2964983" lon="9.5787019"><ele>345.0</ele><time>2026-03-28T09:09:06.812Z</time></trkpt><trkpt lat="40.2965045" lon="9.5788589"><ele>345.0</ele><time>2026-03-28T09:09:07.811Z</time></trkpt><trkpt lat="40.2965146" lon="9.5790195"><ele>345.0</ele><time>2026-03-28T09:09:08.813Z</time></trkpt><trkpt lat="40.296527" lon="9.5791844"><ele>345.0</ele><time>2026-03-28T09:09:09.806Z</time></trkpt><trkpt lat="40.2965413" lon="9.5793486"><ele>345.0</ele><time>2026-03-28T09:09:10.812Z</time></trkpt><trkpt lat="40.2965547" lon="9.579508"><ele>345.5</ele><time>2026-03-28T09:09:11.806Z</time></trkpt><trkpt lat="40.2965661" lon="9.5796668"><ele>346.0</ele><time>2026-03-28T09:09:12.811Z</time></trkpt><trkpt lat="40.296568" lon="9.5798233"><ele>346.5</ele><time>2026-03-28T09:09:13.805Z</time></trkpt><trkpt lat="40.2965534" lon="9.5799725"><ele>347.0</ele><time>2026-03-28T09:09:14.806Z</time></trkpt><trkpt lat="40.2965178" lon="9.5801134"><ele>347.0</ele><time>2026-03-28T09:09:15.814Z</time></trkpt><trkpt lat="40.2964626" lon="9.5802444"><ele>347.0</ele><time>2026-03-28T09:09:16.815Z</time></trkpt><trkpt lat="40.2963986" lon="9.5803733"><ele>347.0</ele><time>2026-03-28T09:09:17.803Z</time></trkpt><trkpt lat="40.2963334" lon="9.5805048"><ele>347.0</ele><time>2026-03-28T09:09:18.801Z</time></trkpt><trkpt lat="40.2962764" lon="9.5806375"><ele>347.25</ele><time>2026-03-28T09:09:19.803Z</time></trkpt><trkpt lat="40.2962299" lon="9.5807772"><ele>347.5</ele><time>2026-03-28T09:09:20.808Z</time></trkpt><trkpt lat="40.2961945" lon="9.5809228"><ele>347.75</ele><time>2026-03-28T09:09:21.807Z</time></trkpt><trkpt lat="40.2961677" lon="9.5810686"><ele>348.0</ele><time>2026-03-28T09:09:22.809Z</time></trkpt><trkpt lat="40.2961469" lon="9.5812151"><ele>349.0</ele><time>2026-03-28T09:09:23.81Z</time></trkpt><trkpt lat="40.2961328" lon="9.5813647"><ele>350.0</ele><time>2026-03-28T09:09:24.809Z</time></trkpt><trkpt lat="40.2961266" lon="9.5815205"><ele>351.0</ele><time>2026-03-28T09:09:25.808Z</time></trkpt><trkpt lat="40.2961272" lon="9.5816813"><ele>352.0</ele><time>2026-03-28T09:09:26.81Z</time></trkpt><trkpt lat="40.2961321" lon="9.5818429"><ele>352.0</ele><time>2026-03-28T09:09:27.815Z</time></trkpt><trkpt lat="40.2961375" lon="9.5819965"><ele>352.0</ele><time>2026-03-28T09:09:28.809Z</time></trkpt><trkpt lat="40.2961444" lon="9.5821409"><ele>352.0</ele><time>2026-03-28T09:09:29.812Z</time></trkpt><trkpt lat="40.2961523" lon="9.5822842"><ele>352.0</ele><time>2026-03-28T09:09:30.809Z</time></trkpt><trkpt lat="40.2961567" lon="9.5824127"><ele>352.0</ele><time>2026-03-28T09:09:31.809Z</time></trkpt><trkpt lat="40.2961572" lon="9.5825376"><ele>352.0</ele><time>2026-03-28T09:09:32.81Z</time></trkpt><trkpt lat="40.2961618" lon="9.5826492"><ele>352.0</ele><time>2026-03-28T09:09:33.836Z</time></trkpt><trkpt lat="40.2961669" lon="9.5827602"><ele>352.0</ele><time>2026-03-28T09:09:34.812Z</time></trkpt><trkpt lat="40.2961744" lon="9.5828638"><ele>352.0</ele><time>2026-03-28T09:09:35.805Z</time></trkpt><trkpt lat="40.2961828" lon="9.5829686"><ele>352.0</ele><time>2026-03-28T09:09:36.81Z</time></trkpt><trkpt lat="40.2961874" lon="9.5830711"><ele>352.0</ele><time>2026-03-28T09:09:37.8Z</time></trkpt><trkpt lat="40.2961983" lon="9.5831801"><ele>353.0</ele><time>2026-03-28T09:09:38.81Z</time></trkpt><trkpt lat="40.2962113" lon="9.5832798"><ele>354.0</ele><time>2026-03-28T09:09:39.814Z</time></trkpt><trkpt lat="40.2962202" lon="9.5833719"><ele>355.0</ele><time>2026-03-28T09:09:40.81Z</time></trkpt><trkpt lat="40.2962285" lon="9.5834571"><ele>356.0</ele><time>2026-03-28T09:09:41.806Z</time></trkpt><trkpt lat="40.2962318" lon="9.583544"><ele>357.0</ele><time>2026-03-28T09:09:42.808Z</time></trkpt><trkpt lat="40.2962346" lon="9.5836327"><ele>358.0</ele><time>2026-03-28T09:09:43.806Z</time></trkpt><trkpt lat="40.2962535" lon="9.5837174"><ele>359.0</ele><time>2026-03-28T09:09:44.806Z</time></trkpt><trkpt lat="40.29635" lon="9.583794"><ele>360.33333333333337</ele><time>2026-03-28T09:09:46.809Z</time></trkpt><trkpt lat="40.2964171" lon="9.5837878"><ele>361.6666666666667</ele><time>2026-03-28T09:09:47.811Z</time></trkpt><trkpt lat="40.2965014" lon="9.5837802"><ele>363.0</ele><time>2026-03-28T09:09:48.811Z</time></trkpt><trkpt lat="40.2965783" lon="9.5838188"><ele>364.3333333333333</ele><time>2026-03-28T09:09:49.808Z</time></trkpt><trkpt lat="40.2966501" lon="9.5838904"><ele>365.66666666666663</ele><time>2026-03-28T09:09:50.811Z</time></trkpt><trkpt lat="40.2967211" lon="9.5839738"><ele>367.0</ele><time>2026-03-28T09:09:51.809Z</time></trkpt><trkpt lat="40.2967798" lon="9.5840857"><ele>367.75</ele><time>2026-03-28T09:09:52.807Z</time></trkpt><trkpt lat="40.2968437" lon="9.5842112"><ele>368.5</ele><time>2026-03-28T09:09:53.806Z</time></trkpt><trkpt lat="40.2968972" lon="9.5843421"><ele>369.25</ele><time>2026-03-28T09:09:54.805Z</time></trkpt><trkpt lat="40.2969517" lon="9.5844783"><ele>370.0</ele><time>2026-03-28T09:09:55.809Z</time></trkpt><trkpt lat="40.2970017" lon="9.5846008"><ele>370.8</ele><time>2026-03-28T09:09:56.816Z</time></trkpt><trkpt lat="40.2970459" lon="9.5847262"><ele>371.6</ele><time>2026-03-28T09:09:57.8Z</time></trkpt><trkpt lat="40.297089" lon="9.5848668"><ele>372.4</ele><time>2026-03-28T09:09:58.805Z</time></trkpt><trkpt lat="40.2971191" lon="9.5850082"><ele>373.2</ele><time>2026-03-28T09:09:59.812Z</time></trkpt><trkpt lat="40.2971508" lon="9.5851514"><ele>374.0</ele><time>2026-03-28T09:10:00.804Z</time></trkpt><trkpt lat="40.2971763" lon="9.5852874"><ele>374.6</ele><time>2026-03-28T09:10:01.819Z</time></trkpt><trkpt lat="40.2971982" lon="9.5854239"><ele>375.2</ele><time>2026-03-28T09:10:02.801Z</time></trkpt><trkpt lat="40.2972218" lon="9.5855633"><ele>375.8</ele><time>2026-03-28T09:10:03.809Z</time></trkpt><trkpt lat="40.2972472" lon="9.5857071"><ele>376.40000000000003</ele><time>2026-03-28T09:10:04.812Z</time></trkpt><trkpt lat="40.297271" lon="9.5858526"><ele>377.0</ele><time>2026-03-28T09:10:05.807Z</time></trkpt><trkpt lat="40.297299" lon="9.5860025"><ele>378.0</ele><time>2026-03-28T09:10:06.806Z</time></trkpt><trkpt lat="40.2973239" lon="9.5861511"><ele>379.0</ele><time>2026-03-28T09:10:07.809Z</time></trkpt><trkpt lat="40.2973505" lon="9.5863021"><ele>380.0</ele><time>2026-03-28T09:10:08.824Z</time></trkpt><trkpt lat="40.2973767" lon="9.5864544"><ele>381.0</ele><time>2026-03-28T09:10:09.808Z</time></trkpt><trkpt lat="40.2974024" lon="9.5866038"><ele>382.0</ele><time>2026-03-28T09:10:10.802Z</time></trkpt><trkpt lat="40.2974264" lon="9.5867501"><ele>383.0</ele><time>2026-03-28T09:10:11.809Z</time></trkpt><trkpt lat="40.2974455" lon="9.5868954"><ele>384.0</ele><time>2026-03-28T09:10:12.81Z</time></trkpt><trkpt lat="40.2974567" lon="9.5870399"><ele>385.0</ele><time>2026-03-28T09:10:13.805Z</time></trkpt><trkpt lat="40.2974542" lon="9.5871855"><ele>386.0</ele><time>2026-03-28T09:10:14.823Z</time></trkpt><trkpt lat="40.2974351" lon="9.5873319"><ele>387.0</ele><time>2026-03-28T09:10:15.808Z</time></trkpt><trkpt lat="40.2974017" lon="9.5874788"><ele>388.0</ele><time>2026-03-28T09:10:16.803Z</time></trkpt><trkpt lat="40.2973527" lon="9.5876223"><ele>389.0</ele><time>2026-03-28T09:10:17.809Z</time></trkpt><trkpt lat="40.2972922" lon="9.5877587"><ele>390.0</ele><time>2026-03-28T09:10:18.802Z</time></trkpt><trkpt lat="40.2972349" lon="9.5878923"><ele>390.6666666666667</ele><time>2026-03-28T09:10:19.805Z</time></trkpt><trkpt lat="40.2971826" lon="9.5879931"><ele>391.33333333333337</ele><time>2026-03-28T09:10:20.808Z</time></trkpt><trkpt lat="40.2971303" lon="9.588089"><ele>392.0</ele><time>2026-03-28T09:10:21.805Z</time></trkpt><trkpt lat="40.2970799" lon="9.5881797"><ele>392.6666666666667</ele><time>2026-03-28T09:10:22.814Z</time></trkpt><trkpt lat="40.2970359" lon="9.5882557"><ele>393.33333333333337</ele><time>2026-03-28T09:10:23.806Z</time></trkpt><trkpt lat="40.2969953" lon="9.5883234"><ele>394.0</ele><time>2026-03-28T09:10:24.804Z</time></trkpt><trkpt lat="40.2969478" lon="9.5884029"><ele>394.0</ele><time>2026-03-28T09:10:25.805Z</time></trkpt><trkpt lat="40.2968932" lon="9.5884913"><ele>394.0</ele><time>2026-03-28T09:10:26.803Z</time></trkpt><trkpt lat="40.2968373" lon="9.5885864"><ele>394.0</ele><time>2026-03-28T09:10:27.809Z</time></trkpt><trkpt lat="40.2967834" lon="9.5886848"><ele>394.0</ele><time>2026-03-28T09:10:28.806Z</time></trkpt><trkpt lat="40.2967273" lon="9.5887846"><ele>394.0</ele><time>2026-03-28T09:10:29.806Z</time></trkpt><trkpt lat="40.296669" lon="9.5888852"><ele>395.2</ele><time>2026-03-28T09:10:30.806Z</time></trkpt><trkpt lat="40.2966112" lon="9.5889884"><ele>396.4</ele><time>2026-03-28T09:10:31.809Z</time></trkpt><trkpt lat="40.296551" lon="9.589093"><ele>397.6</ele><time>2026-03-28T09:10:32.811Z</time></trkpt><trkpt lat="40.2964889" lon="9.5892028"><ele>398.8</ele><time>2026-03-28T09:10:33.812Z</time></trkpt><trkpt lat="40.2964248" lon="9.5893133"><ele>400.0</ele><time>2026-03-28T09:10:34.809Z</time></trkpt><trkpt lat="40.2963561" lon="9.5894308"><ele>401.5</ele><time>2026-03-28T09:10:35.802Z</time></trkpt><trkpt lat="40.2962868" lon="9.5895506"><ele>403.0</ele><time>2026-03-28T09:10:36.81Z</time></trkpt><trkpt lat="40.2962159" lon="9.5896697"><ele>404.5</ele><time>2026-03-28T09:10:37.804Z</time></trkpt><trkpt lat="40.2961449" lon="9.5897893"><ele>406.0</ele><time>2026-03-28T09:10:38.81Z</time></trkpt><trkpt lat="40.2960644" lon="9.589906"><ele>406.0</ele><time>2026-03-28T09:10:39.808Z</time></trkpt><trkpt lat="40.2959758" lon="9.5900085"><ele>406.0</ele><time>2026-03-28T09:10:40.812Z</time></trkpt><trkpt lat="40.2958788" lon="9.590098"><ele>406.0</ele><time>2026-03-28T09:10:41.806Z</time></trkpt><trkpt lat="40.2957722" lon="9.5901759"><ele>406.0</ele><time>2026-03-28T09:10:42.808Z</time></trkpt><trkpt lat="40.2956622" lon="9.5902425"><ele>407.0</ele><time>2026-03-28T09:10:43.808Z</time></trkpt><trkpt lat="40.2955462" lon="9.5902947"><ele>408.0</ele><time>2026-03-28T09:10:44.808Z</time></trkpt><trkpt lat="40.2954251" lon="9.5903394"><ele>409.0</ele><time>2026-03-28T09:10:45.809Z</time></trkpt><trkpt lat="40.2953024" lon="9.5903805"><ele>410.0</ele><time>2026-03-28T09:10:46.799Z</time></trkpt><trkpt lat="40.295179" lon="9.590422"><ele>411.0</ele><time>2026-03-28T09:10:47.801Z</time></trkpt><trkpt lat="40.2950541" lon="9.5904663"><ele>412.0</ele><time>2026-03-28T09:10:48.81Z</time></trkpt><trkpt lat="40.2949293" lon="9.5905119"><ele>413.0</ele><time>2026-03-28T09:10:49.806Z</time></trkpt><trkpt lat="40.2948076" lon="9.5905641"><ele>414.0</ele><time>2026-03-28T09:10:50.806Z</time></trkpt><trkpt lat="40.2946914" lon="9.5906286"><ele>415.0</ele><time>2026-03-28T09:10:51.81Z</time></trkpt><trkpt lat="40.2945807" lon="9.5907047"><ele>416.0</ele><time>2026-03-28T09:10:52.809Z</time></trkpt><trkpt lat="40.2944733" lon="9.590791"><ele>417.0</ele><time>2026-03-28T09:10:53.809Z</time></trkpt><trkpt lat="40.294367" lon="9.5908851"><ele>418.0</ele><time>2026-03-28T09:10:54.81Z</time></trkpt><trkpt lat="40.2942671" lon="9.5909797"><ele>418.0</ele><time>2026-03-28T09:10:55.809Z</time></trkpt><trkpt lat="40.2941716" lon="9.5910733"><ele>418.0</ele><time>2026-03-28T09:10:56.801Z</time></trkpt><trkpt lat="40.2940769" lon="9.5911669"><ele>418.0</ele><time>2026-03-28T09:10:57.804Z</time></trkpt><trkpt lat="40.2939817" lon="9.5912597"><ele>418.0</ele><time>2026-03-28T09:10:58.808Z</time></trkpt><trkpt lat="40.2938886" lon="9.5913527"><ele>419.5</ele><time>2026-03-28T09:10:59.804Z</time></trkpt><trkpt lat="40.2937951" lon="9.5914448"><ele>421.0</ele><time>2026-03-28T09:11:00.804Z</time></trkpt><trkpt lat="40.2937" lon="9.5915363"><ele>422.5</ele><time>2026-03-28T09:11:01.81Z</time></trkpt><trkpt lat="40.2936069" lon="9.5916268"><ele>424.0</ele><time>2026-03-28T09:11:02.807Z</time></trkpt><trkpt lat="40.293516" lon="9.5917187"><ele>424.0</ele><time>2026-03-28T09:11:03.805Z</time></trkpt><trkpt lat="40.2934237" lon="9.5918125"><ele>424.0</ele><time>2026-03-28T09:11:04.802Z</time></trkpt><trkpt lat="40.2933299" lon="9.5919059"><ele>424.0</ele><time>2026-03-28T09:11:05.805Z</time></trkpt><trkpt lat="40.2932357" lon="9.5919995"><ele>424.0</ele><time>2026-03-28T09:11:06.805Z</time></trkpt><trkpt lat="40.2931401" lon="9.5920947"><ele>425.5</ele><time>2026-03-28T09:11:07.799Z</time></trkpt><trkpt lat="40.293043" lon="9.5921904"><ele>427.0</ele><time>2026-03-28T09:11:08.8Z</time></trkpt><trkpt lat="40.2929439" lon="9.5922857"><ele>428.5</ele><time>2026-03-28T09:11:09.797Z</time></trkpt><trkpt lat="40.2928388" lon="9.5923857"><ele>430.0</ele><time>2026-03-28T09:11:10.798Z</time></trkpt><trkpt lat="40.2927342" lon="9.5924893"><ele>430.0</ele><time>2026-03-28T09:11:11.801Z</time></trkpt><trkpt lat="40.2926301" lon="9.5925979"><ele>430.0</ele><time>2026-03-28T09:11:12.797Z</time></trkpt><trkpt lat="40.2925239" lon="9.5927068"><ele>430.0</ele><time>2026-03-28T09:11:13.801Z</time></trkpt><trkpt lat="40.2924195" lon="9.5928115"><ele>430.0</ele><time>2026-03-28T09:11:14.803Z</time></trkpt><trkpt lat="40.2923162" lon="9.5929118"><ele>431.75</ele><time>2026-03-28T09:11:15.809Z</time></trkpt><trkpt lat="40.2922149" lon="9.5930128"><ele>433.5</ele><time>2026-03-28T09:11:16.801Z</time></trkpt><trkpt lat="40.2921133" lon="9.5931167"><ele>435.25</ele><time>2026-03-28T09:11:17.797Z</time></trkpt><trkpt lat="40.2920091" lon="9.5932217"><ele>437.0</ele><time>2026-03-28T09:11:18.808Z</time></trkpt><trkpt lat="40.2919004" lon="9.593321"><ele>437.0</ele><time>2026-03-28T09:11:19.798Z</time></trkpt><trkpt lat="40.2917853" lon="9.5934078"><ele>437.0</ele><time>2026-03-28T09:11:20.801Z</time></trkpt><trkpt lat="40.2916599" lon="9.5934793"><ele>437.0</ele><time>2026-03-28T09:11:21.799Z</time></trkpt><trkpt lat="40.2915243" lon="9.5935274"><ele>437.0</ele><time>2026-03-28T09:11:22.798Z</time></trkpt><trkpt lat="40.2913826" lon="9.593554"><ele>437.0</ele><time>2026-03-28T09:11:23.796Z</time></trkpt><trkpt lat="40.291235" lon="9.5935652"><ele>437.0</ele><time>2026-03-28T09:11:24.807Z</time></trkpt><trkpt lat="40.2910853" lon="9.5935682"><ele>437.0</ele><time>2026-03-28T09:11:25.796Z</time></trkpt><trkpt lat="40.2909368" lon="9.5935619"><ele>437.0</ele><time>2026-03-28T09:11:26.799Z</time></trkpt><trkpt lat="40.2907884" lon="9.5935392"><ele>437.0</ele><time>2026-03-28T09:11:27.805Z</time></trkpt><trkpt lat="40.290642" lon="9.5935138"><ele>437.0</ele><time>2026-03-28T09:11:28.808Z</time></trkpt><trkpt lat="40.2904963" lon="9.5934379"><ele>437.0</ele><time>2026-03-28T09:11:29.798Z</time></trkpt><trkpt lat="40.2903566" lon="9.5933574"><ele>440.3333333333333</ele><time>2026-03-28T09:11:30.823Z</time></trkpt><trkpt lat="40.2902131" lon="9.5932699"><ele>443.66666666666663</ele><time>2026-03-28T09:11:31.797Z</time></trkpt><trkpt lat="40.2900652" lon="9.5931994"><ele>447.0</ele><time>2026-03-28T09:11:32.801Z</time></trkpt><trkpt lat="40.2899168" lon="9.5931487"><ele>447.0</ele><time>2026-03-28T09:11:33.802Z</time></trkpt><trkpt lat="40.289771" lon="9.5931142"><ele>447.0</ele><time>2026-03-28T09:11:34.8Z</time></trkpt><trkpt lat="40.289623" lon="9.5930882"><ele>447.0</ele><time>2026-03-28T09:11:35.802Z</time></trkpt><trkpt lat="40.2894737" lon="9.5930766"><ele>447.0</ele><time>2026-03-28T09:11:36.802Z</time></trkpt><trkpt lat="40.2893255" lon="9.5930927"><ele>447.25</ele><time>2026-03-28T09:11:37.804Z</time></trkpt><trkpt lat="40.2891841" lon="9.5931405"><ele>447.5</ele><time>2026-03-28T09:11:38.799Z</time></trkpt><trkpt lat="40.2890507" lon="9.5932117"><ele>447.75</ele><time>2026-03-28T09:11:39.802Z</time></trkpt><trkpt lat="40.288925" lon="9.5932825"><ele>448.0</ele><time>2026-03-28T09:11:40.809Z</time></trkpt><trkpt lat="40.2888058" lon="9.593345"><ele>448.25</ele><time>2026-03-28T09:11:41.8Z</time></trkpt><trkpt lat="40.2886669" lon="9.5933696"><ele>448.5</ele><time>2026-03-28T09:11:42.802Z</time></trkpt><trkpt lat="40.2885263" lon="9.5933673"><ele>448.75</ele><time>2026-03-28T09:11:43.806Z</time></trkpt><trkpt lat="40.2883913" lon="9.5933309"><ele>449.0</ele><time>2026-03-28T09:11:44.805Z</time></trkpt><trkpt lat="40.288267" lon="9.5932739"><ele>449.0</ele><time>2026-03-28T09:11:45.806Z</time></trkpt><trkpt lat="40.2881346" lon="9.5932158"><ele>449.0</ele><time>2026-03-28T09:11:46.801Z</time></trkpt><trkpt lat="40.2880117" lon="9.5931507"><ele>449.0</ele><time>2026-03-28T09:11:47.804Z</time></trkpt><trkpt lat="40.2878906" lon="9.5930887"><ele>449.0</ele><time>2026-03-28T09:11:48.798Z</time></trkpt><trkpt lat="40.2877739" lon="9.5930295"><ele>452.5</ele><time>2026-03-28T09:11:49.803Z</time></trkpt><trkpt lat="40.2876638" lon="9.592977"><ele>456.0</ele><time>2026-03-28T09:11:50.8Z</time></trkpt><trkpt lat="40.287562" lon="9.5929236"><ele>459.5</ele><time>2026-03-28T09:11:51.806Z</time></trkpt><trkpt lat="40.2874499" lon="9.5928653"><ele>463.0</ele><time>2026-03-28T09:11:52.799Z</time></trkpt><trkpt lat="40.287338" lon="9.5928104"><ele>459.75</ele><time>2026-03-28T09:11:53.799Z</time></trkpt><trkpt lat="40.2872224" lon="9.5927562"><ele>456.5</ele><time>2026-03-28T09:11:54.8Z</time></trkpt><trkpt lat="40.2871052" lon="9.592697"><ele>453.25</ele><time>2026-03-28T09:11:55.797Z</time></trkpt><trkpt lat="40.2869899" lon="9.5926401"><ele>450.0</ele><time>2026-03-28T09:11:56.802Z</time></trkpt><trkpt lat="40.2868721" lon="9.5925809"><ele>450.0</ele><time>2026-03-28T09:11:57.8Z</time></trkpt><trkpt lat="40.2867613" lon="9.5925266"><ele>450.0</ele><time>2026-03-28T09:11:58.806Z</time></trkpt><trkpt lat="40.2866547" lon="9.5924737"><ele>450.0</ele><time>2026-03-28T09:11:59.819Z</time></trkpt><trkpt lat="40.2865514" lon="9.5924224"><ele>450.0</ele><time>2026-03-28T09:12:00.797Z</time></trkpt><trkpt lat="40.2864513" lon="9.5923619"><ele>453.75</ele><time>2026-03-28T09:12:01.798Z</time></trkpt><trkpt lat="40.2863492" lon="9.5923139"><ele>457.5</ele><time>2026-03-28T09:12:02.8Z</time></trkpt><trkpt lat="40.2862434" lon="9.5922638"><ele>461.25</ele><time>2026-03-28T09:12:03.8Z</time></trkpt><trkpt lat="40.2861342" lon="9.5922109"><ele>465.0</ele><time>2026-03-28T09:12:04.825Z</time></trkpt><trkpt lat="40.2860278" lon="9.5921617"><ele>465.0</ele><time>2026-03-28T09:12:05.821Z</time></trkpt><trkpt lat="40.2859298" lon="9.5921095"><ele>465.0</ele><time>2026-03-28T09:12:06.798Z</time></trkpt><trkpt lat="40.2858385" lon="9.592065"><ele>465.0</ele><time>2026-03-28T09:12:07.799Z</time></trkpt><trkpt lat="40.2857558" lon="9.5920256"><ele>465.0</ele><time>2026-03-28T09:12:08.799Z</time></trkpt><trkpt lat="40.2856681" lon="9.5919885"><ele>465.0</ele><time>2026-03-28T09:12:09.8Z</time></trkpt><trkpt lat="40.2855735" lon="9.5919601"><ele>461.0</ele><time>2026-03-28T09:12:10.801Z</time></trkpt><trkpt lat="40.2854736" lon="9.5919382"><ele>457.0</ele><time>2026-03-28T09:12:11.799Z</time></trkpt><trkpt lat="40.2853693" lon="9.5919127"><ele>453.0</ele><time>2026-03-28T09:12:12.797Z</time></trkpt><trkpt lat="40.2852667" lon="9.5918888"><ele>449.0</ele><time>2026-03-28T09:12:13.801Z</time></trkpt><trkpt lat="40.2851611" lon="9.5918634"><ele>445.0</ele><time>2026-03-28T09:12:14.8Z</time></trkpt><trkpt lat="40.2850601" lon="9.5918296"><ele>445.0</ele><time>2026-03-28T09:12:15.8Z</time></trkpt><trkpt lat="40.2849568" lon="9.5918017"><ele>445.0</ele><time>2026-03-28T09:12:16.798Z</time></trkpt><trkpt lat="40.2848613" lon="9.5917591"><ele>445.0</ele><time>2026-03-28T09:12:17.808Z</time></trkpt><trkpt lat="40.2847673" lon="9.5917145"><ele>445.0</ele><time>2026-03-28T09:12:18.806Z</time></trkpt><trkpt lat="40.2846866" lon="9.5916559"><ele>445.0</ele><time>2026-03-28T09:12:19.794Z</time></trkpt><trkpt lat="40.284611" lon="9.5916082"><ele>446.2</ele><time>2026-03-28T09:12:20.797Z</time></trkpt><trkpt lat="40.2845406" lon="9.59156"><ele>447.4</ele><time>2026-03-28T09:12:21.803Z</time></trkpt><trkpt lat="40.2844619" lon="9.5915162"><ele>448.6</ele><time>2026-03-28T09:12:22.797Z</time></trkpt><trkpt lat="40.2843842" lon="9.5914636"><ele>449.8</ele><time>2026-03-28T09:12:23.801Z</time></trkpt><trkpt lat="40.2842984" lon="9.5914079"><ele>451.0</ele><time>2026-03-28T09:12:24.796Z</time></trkpt><trkpt lat="40.2841975" lon="9.5913546"><ele>451.0</ele><time>2026-03-28T09:12:25.801Z</time></trkpt><trkpt lat="40.284093" lon="9.5913084"><ele>451.0</ele><time>2026-03-28T09:12:26.795Z</time></trkpt><trkpt lat="40.2839943" lon="9.591274"><ele>451.0</ele><time>2026-03-28T09:12:27.8Z</time></trkpt><trkpt lat="40.2838974" lon="9.5912456"><ele>451.0</ele><time>2026-03-28T09:12:28.798Z</time></trkpt><trkpt lat="40.2838008" lon="9.5912148"><ele>451.0</ele><time>2026-03-28T09:12:29.807Z</time></trkpt><trkpt lat="40.2836992" lon="9.5911858"><ele>448.20000000000005</ele><time>2026-03-28T09:12:30.8Z</time></trkpt><trkpt lat="40.2835957" lon="9.5911554"><ele>445.40000000000003</ele><time>2026-03-28T09:12:31.8Z</time></trkpt><trkpt lat="40.2834906" lon="9.5911291"><ele>442.6</ele><time>2026-03-28T09:12:32.802Z</time></trkpt><trkpt lat="40.2833785" lon="9.5911158"><ele>439.8</ele><time>2026-03-28T09:12:33.8Z</time></trkpt><trkpt lat="40.2832605" lon="9.5911216"><ele>437.0</ele><time>2026-03-28T09:12:34.796Z</time></trkpt><trkpt lat="40.2831394" lon="9.5911414"><ele>444.0</ele><time>2026-03-28T09:12:35.802Z</time></trkpt><trkpt lat="40.2830186" lon="9.5911743"><ele>451.0</ele><time>2026-03-28T09:12:36.797Z</time></trkpt><trkpt lat="40.2828994" lon="9.5912072"><ele>458.0</ele><time>2026-03-28T09:12:37.802Z</time></trkpt><trkpt lat="40.282778" lon="9.5912211"><ele>465.0</ele><time>2026-03-28T09:12:38.805Z</time></trkpt><trkpt lat="40.282659" lon="9.5911982"><ele>458.0</ele><time>2026-03-28T09:12:39.803Z</time></trkpt><trkpt lat="40.2825462" lon="9.591149"><ele>451.0</ele><time>2026-03-28T09:12:40.807Z</time></trkpt><trkpt lat="40.2824305" lon="9.5911007"><ele>444.0</ele><time>2026-03-28T09:12:41.798Z</time></trkpt><trkpt lat="40.28231" lon="9.5910642"><ele>437.0</ele><time>2026-03-28T09:12:42.806Z</time></trkpt><trkpt lat="40.2821876" lon="9.5910428"><ele>436.5</ele><time>2026-03-28T09:12:43.813Z</time></trkpt><trkpt lat="40.2820651" lon="9.5910363"><ele>436.0</ele><time>2026-03-28T09:12:44.806Z</time></trkpt><trkpt lat="40.281946" lon="9.5910373"><ele>435.5</ele><time>2026-03-28T09:12:45.809Z</time></trkpt><trkpt lat="40.2818287" lon="9.5910403"><ele>435.0</ele><time>2026-03-28T09:12:46.798Z</time></trkpt><trkpt lat="40.2817131" lon="9.5910438"><ele>435.0</ele><time>2026-03-28T09:12:47.803Z</time></trkpt><trkpt lat="40.2816015" lon="9.5910508"><ele>435.0</ele><time>2026-03-28T09:12:48.806Z</time></trkpt><trkpt lat="40.2814894" lon="9.5910602"><ele>435.0</ele><time>2026-03-28T09:12:49.809Z</time></trkpt><trkpt lat="40.2813857" lon="9.5910605"><ele>435.0</ele><time>2026-03-28T09:12:50.806Z</time></trkpt><trkpt lat="40.2812859" lon="9.5910679"><ele>435.0</ele><time>2026-03-28T09:12:51.797Z</time></trkpt><trkpt lat="40.2811847" lon="9.5910827"><ele>435.2</ele><time>2026-03-28T09:12:52.803Z</time></trkpt><trkpt lat="40.2810901" lon="9.591109"><ele>435.4</ele><time>2026-03-28T09:12:53.801Z</time></trkpt><trkpt lat="40.2809945" lon="9.5911368"><ele>435.6</ele><time>2026-03-28T09:12:54.796Z</time></trkpt><trkpt lat="40.2808975" lon="9.5911728"><ele>435.8</ele><time>2026-03-28T09:12:55.796Z</time></trkpt><trkpt lat="40.2807982" lon="9.5912116"><ele>436.0</ele><time>2026-03-28T09:12:56.802Z</time></trkpt><trkpt lat="40.2806969" lon="9.5912501"><ele>441.20000000000005</ele><time>2026-03-28T09:12:57.798Z</time></trkpt><trkpt lat="40.2805911" lon="9.5912865"><ele>446.40000000000003</ele><time>2026-03-28T09:12:58.797Z</time></trkpt><trkpt lat="40.2804824" lon="9.5913134"><ele>451.6</ele><time>2026-03-28T09:12:59.796Z</time></trkpt><trkpt lat="40.280372" lon="9.5913327"><ele>456.8</ele><time>2026-03-28T09:13:00.804Z</time></trkpt><trkpt lat="40.28026" lon="9.591349"><ele>462.0</ele><time>2026-03-28T09:13:01.798Z</time></trkpt><trkpt lat="40.2801417" lon="9.5913646"><ele>462.0</ele><time>2026-03-28T09:13:02.799Z</time></trkpt><trkpt lat="40.2800185" lon="9.5913806"><ele>462.0</ele><time>2026-03-28T09:13:03.795Z</time></trkpt><trkpt lat="40.2798897" lon="9.5913926"><ele>462.0</ele><time>2026-03-28T09:13:04.801Z</time></trkpt><trkpt lat="40.2797583" lon="9.5914037"><ele>462.0</ele><time>2026-03-28T09:13:05.797Z</time></trkpt><trkpt lat="40.2796196" lon="9.5914211"><ele>461.75</ele><time>2026-03-28T09:13:06.799Z</time></trkpt><trkpt lat="40.2794797" lon="9.5914376"><ele>461.5</ele><time>2026-03-28T09:13:07.798Z</time></trkpt><trkpt lat="40.2793367" lon="9.5914542"><ele>461.25</ele><time>2026-03-28T09:13:08.798Z</time></trkpt><trkpt lat="40.2791899" lon="9.5914758"><ele>461.0</ele><time>2026-03-28T09:13:09.799Z</time></trkpt><trkpt lat="40.2790394" lon="9.5915022"><ele>456.0</ele><time>2026-03-28T09:13:10.804Z</time></trkpt><trkpt lat="40.2788899" lon="9.591536"><ele>451.0</ele><time>2026-03-28T09:13:11.806Z</time></trkpt><trkpt lat="40.278737" lon="9.5915713"><ele>446.0</ele><time>2026-03-28T09:13:12.797Z</time></trkpt><trkpt lat="40.2785843" lon="9.5916102"><ele>446.0</ele><time>2026-03-28T09:13:13.796Z</time></trkpt><trkpt lat="40.2784307" lon="9.59165"><ele>446.0</ele><time>2026-03-28T09:13:14.799Z</time></trkpt><trkpt lat="40.2782772" lon="9.5916922"><ele>446.0</ele><time>2026-03-28T09:13:15.799Z</time></trkpt><trkpt lat="40.278122" lon="9.591733"><ele>444.3333333333333</ele><time>2026-03-28T09:13:16.795Z</time></trkpt><trkpt lat="40.2779651" lon="9.5917756"><ele>442.66666666666663</ele><time>2026-03-28T09:13:17.803Z</time></trkpt><trkpt lat="40.2778043" lon="9.5918183"><ele>441.0</ele><time>2026-03-28T09:13:18.806Z</time></trkpt><trkpt lat="40.2776407" lon="9.591861"><ele>441.0</ele><time>2026-03-28T09:13:19.797Z</time></trkpt><trkpt lat="40.2774751" lon="9.591905"><ele>441.0</ele><time>2026-03-28T09:13:20.797Z</time></trkpt><trkpt lat="40.2773077" lon="9.5919489"><ele>441.0</ele><time>2026-03-28T09:13:21.802Z</time></trkpt><trkpt lat="40.2771408" lon="9.5919937"><ele>451.33333333333337</ele><time>2026-03-28T09:13:22.797Z</time></trkpt><trkpt lat="40.2769745" lon="9.5920383"><ele>461.6666666666667</ele><time>2026-03-28T09:13:23.806Z</time></trkpt><trkpt lat="40.2768163" lon="9.592079"><ele>472.0</ele><time>2026-03-28T09:13:24.803Z</time></trkpt><trkpt lat="40.2766718" lon="9.5921153"><ele>472.0</ele><time>2026-03-28T09:13:25.801Z</time></trkpt><trkpt lat="40.2765381" lon="9.5921459"><ele>472.0</ele><time>2026-03-28T09:13:26.803Z</time></trkpt><trkpt lat="40.2764196" lon="9.5921748"><ele>472.0</ele><time>2026-03-28T09:13:27.803Z</time></trkpt><trkpt lat="40.2763034" lon="9.5921996"><ele>472.0</ele><time>2026-03-28T09:13:28.797Z</time></trkpt><trkpt lat="40.2761794" lon="9.5922148"><ele>472.0</ele><time>2026-03-28T09:13:29.801Z</time></trkpt><trkpt lat="40.2760555" lon="9.5922163"><ele>472.0</ele><time>2026-03-28T09:13:30.8Z</time></trkpt><trkpt lat="40.2759231" lon="9.5922183"><ele>472.0</ele><time>2026-03-28T09:13:31.798Z</time></trkpt><trkpt lat="40.2757848" lon="9.5922224"><ele>472.0</ele><time>2026-03-28T09:13:32.801Z</time></trkpt><trkpt lat="40.2756377" lon="9.5922271"><ele>473.33333333333337</ele><time>2026-03-28T09:13:33.797Z</time></trkpt><trkpt lat="40.2754826" lon="9.592233"><ele>474.66666666666663</ele><time>2026-03-28T09:13:34.803Z</time></trkpt><trkpt lat="40.2753291" lon="9.5922344"><ele>476.0</ele><time>2026-03-28T09:13:35.798Z</time></trkpt><trkpt lat="40.2751644" lon="9.5922162"><ele>476.0</ele><time>2026-03-28T09:13:36.799Z</time></trkpt><trkpt lat="40.2750039" lon="9.5921728"><ele>476.0</ele><time>2026-03-28T09:13:37.802Z</time></trkpt><trkpt lat="40.2748553" lon="9.592088"><ele>476.0</ele><time>2026-03-28T09:13:38.796Z</time></trkpt><trkpt lat="40.2747114" lon="9.5919742"><ele>473.3333333333333</ele><time>2026-03-28T09:13:39.803Z</time></trkpt><trkpt lat="40.2745738" lon="9.5918535"><ele>470.66666666666663</ele><time>2026-03-28T09:13:40.802Z</time></trkpt><trkpt lat="40.2744347" lon="9.5917117"><ele>468.0</ele><time>2026-03-28T09:13:41.796Z</time></trkpt><trkpt lat="40.2742945" lon="9.5915753"><ele>468.0</ele><time>2026-03-28T09:13:42.797Z</time></trkpt><trkpt lat="40.2741591" lon="9.591442"><ele>468.0</ele><time>2026-03-28T09:13:43.8Z</time></trkpt><trkpt lat="40.2740245" lon="9.591288"><ele>468.0</ele><time>2026-03-28T09:13:44.793Z</time></trkpt><trkpt lat="40.2738964" lon="9.5911258"><ele>469.66666666666663</ele><time>2026-03-28T09:13:45.795Z</time></trkpt><trkpt lat="40.273771" lon="9.5909554"><ele>471.3333333333333</ele><time>2026-03-28T09:13:46.797Z</time></trkpt><trkpt lat="40.2736521" lon="9.5907883"><ele>473.0</ele><time>2026-03-28T09:13:47.797Z</time></trkpt><trkpt lat="40.2735444" lon="9.5906277"><ele>473.0</ele><time>2026-03-28T09:13:48.797Z</time></trkpt><trkpt lat="40.2734413" lon="9.5904691"><ele>473.0</ele><time>2026-03-28T09:13:49.801Z</time></trkpt><trkpt lat="40.2733488" lon="9.5903074"><ele>473.0</ele><time>2026-03-28T09:13:50.798Z</time></trkpt><trkpt lat="40.2732806" lon="9.5901318"><ele>467.66666666666663</ele><time>2026-03-28T09:13:51.8Z</time></trkpt><trkpt lat="40.2732336" lon="9.5899382"><ele>462.33333333333337</ele><time>2026-03-28T09:13:52.797Z</time></trkpt><trkpt lat="40.2731975" lon="9.5897309"><ele>457.0</ele><time>2026-03-28T09:13:53.799Z</time></trkpt><trkpt lat="40.2731616" lon="9.5895187"><ele>454.0</ele><time>2026-03-28T09:13:54.803Z</time></trkpt><trkpt lat="40.2731214" lon="9.589316"><ele>451.0</ele><time>2026-03-28T09:13:55.797Z</time></trkpt><trkpt lat="40.2730742" lon="9.5891344"><ele>448.0</ele><time>2026-03-28T09:13:56.803Z</time></trkpt><trkpt lat="40.2730157" lon="9.5889724"><ele>445.0</ele><time>2026-03-28T09:13:57.802Z</time></trkpt><trkpt lat="40.2729366" lon="9.58884"><ele>449.25</ele><time>2026-03-28T09:13:58.793Z</time></trkpt><trkpt lat="40.2728312" lon="9.5887333"><ele>453.5</ele><time>2026-03-28T09:13:59.801Z</time></trkpt><trkpt lat="40.272709" lon="9.5886438"><ele>457.75</ele><time>2026-03-28T09:14:00.802Z</time></trkpt><trkpt lat="40.2725978" lon="9.5885383"><ele>462.0</ele><time>2026-03-28T09:14:01.798Z</time></trkpt><trkpt lat="40.2724864" lon="9.5884306"><ele>462.0</ele><time>2026-03-28T09:14:02.803Z</time></trkpt><trkpt lat="40.272433" lon="9.5882561"><ele>462.0</ele><time>2026-03-28T09:14:03.797Z</time></trkpt><trkpt lat="40.2724273" lon="9.5880738"><ele>462.0</ele><time>2026-03-28T09:14:04.796Z</time></trkpt><trkpt lat="40.2723929" lon="9.587928"><ele>462.0</ele><time>2026-03-28T09:14:05.798Z</time></trkpt><trkpt lat="40.2723265" lon="9.5877801"><ele>464.0</ele><time>2026-03-28T09:14:06.801Z</time></trkpt><trkpt lat="40.2722314" lon="9.5876517"><ele>466.0</ele><time>2026-03-28T09:14:07.8Z</time></trkpt><trkpt lat="40.2721127" lon="9.5875442"><ele>468.0</ele><time>2026-03-28T09:14:08.807Z</time></trkpt><trkpt lat="40.2719732" lon="9.5874599"><ele>470.0</ele><time>2026-03-28T09:14:09.801Z</time></trkpt><trkpt lat="40.2718468" lon="9.587391"><ele>470.0</ele><time>2026-03-28T09:14:10.802Z</time></trkpt><trkpt lat="40.2717182" lon="9.5873293"><ele>470.0</ele><time>2026-03-28T09:14:11.796Z</time></trkpt><trkpt lat="40.2716126" lon="9.5872335"><ele>470.0</ele><time>2026-03-28T09:14:12.808Z</time></trkpt><trkpt lat="40.2715147" lon="9.5871432"><ele>470.0</ele><time>2026-03-28T09:14:13.801Z</time></trkpt><trkpt lat="40.2714442" lon="9.5869961"><ele>474.25</ele><time>2026-03-28T09:14:14.798Z</time></trkpt><trkpt lat="40.2713744" lon="9.5868268"><ele>478.5</ele><time>2026-03-28T09:14:15.8Z</time></trkpt><trkpt lat="40.2713148" lon="9.5866653"><ele>482.75</ele><time>2026-03-28T09:14:16.801Z</time></trkpt><trkpt lat="40.2712806" lon="9.5865134"><ele>487.0</ele><time>2026-03-28T09:14:17.808Z</time></trkpt><trkpt lat="40.2712445" lon="9.5863467"><ele>487.0</ele><time>2026-03-28T09:14:18.803Z</time></trkpt><trkpt lat="40.2712103" lon="9.5861817"><ele>487.0</ele><time>2026-03-28T09:14:19.803Z</time></trkpt><trkpt lat="40.2711717" lon="9.5860211"><ele>487.0</ele><time>2026-03-28T09:14:20.803Z</time></trkpt><trkpt lat="40.2711192" lon="9.5858644"><ele>487.0</ele><time>2026-03-28T09:14:21.8Z</time></trkpt><trkpt lat="40.2710521" lon="9.5857193"><ele>483.75</ele><time>2026-03-28T09:14:22.802Z</time></trkpt><trkpt lat="40.2709769" lon="9.5855857"><ele>480.5</ele><time>2026-03-28T09:14:23.798Z</time></trkpt><trkpt lat="40.2709071" lon="9.5854509"><ele>477.25</ele><time>2026-03-28T09:14:24.801Z</time></trkpt><trkpt lat="40.2708466" lon="9.5853158"><ele>474.0</ele><time>2026-03-28T09:14:25.804Z</time></trkpt><trkpt lat="40.270803" lon="9.5851849"><ele>477.6</ele><time>2026-03-28T09:14:26.802Z</time></trkpt><trkpt lat="40.2707627" lon="9.5850529"><ele>481.2</ele><time>2026-03-28T09:14:27.803Z</time></trkpt><trkpt lat="40.2707162" lon="9.5849295"><ele>484.80000000000007</ele><time>2026-03-28T09:14:28.808Z</time></trkpt><trkpt lat="40.2706392" lon="9.5848285"><ele>488.40000000000003</ele><time>2026-03-28T09:14:29.807Z</time></trkpt><trkpt lat="40.2705446" lon="9.5847461"><ele>492.0</ele><time>2026-03-28T09:14:30.805Z</time></trkpt><trkpt lat="40.2704384" lon="9.5846654"><ele>492.0</ele><time>2026-03-28T09:14:31.802Z</time></trkpt><trkpt lat="40.2703244" lon="9.5845695"><ele>492.0</ele><time>2026-03-28T09:14:32.807Z</time></trkpt><trkpt lat="40.2702191" lon="9.5844557"><ele>492.0</ele><time>2026-03-28T09:14:33.805Z</time></trkpt><trkpt lat="40.2701176" lon="9.5843312"><ele>492.0</ele><time>2026-03-28T09:14:34.803Z</time></trkpt><trkpt lat="40.2700166" lon="9.5842052"><ele>493.25</ele><time>2026-03-28T09:14:35.804Z</time></trkpt><trkpt lat="40.2699174" lon="9.5840896"><ele>494.5</ele><time>2026-03-28T09:14:36.8Z</time></trkpt><trkpt lat="40.2698412" lon="9.5839442"><ele>495.75</ele><time>2026-03-28T09:14:37.806Z</time></trkpt><trkpt lat="40.269765" lon="9.5838081"><ele>497.0</ele><time>2026-03-28T09:14:38.806Z</time></trkpt><trkpt lat="40.2696717" lon="9.5836934"><ele>488.75</ele><time>2026-03-28T09:14:39.808Z</time></trkpt><trkpt lat="40.2695598" lon="9.5836022"><ele>480.5</ele><time>2026-03-28T09:14:40.807Z</time></trkpt><trkpt lat="40.2694331" lon="9.583541"><ele>472.25</ele><time>2026-03-28T09:14:41.813Z</time></trkpt><trkpt lat="40.2693089" lon="9.583479"><ele>464.0</ele><time>2026-03-28T09:14:42.801Z</time></trkpt><trkpt lat="40.2692095" lon="9.5833924"><ele>464.0</ele><time>2026-03-28T09:14:43.803Z</time></trkpt><trkpt lat="40.2691232" lon="9.5833063"><ele>464.0</ele><time>2026-03-28T09:14:44.805Z</time></trkpt><trkpt lat="40.2690613" lon="9.5831756"><ele>464.0</ele><time>2026-03-28T09:14:45.811Z</time></trkpt><trkpt lat="40.2689871" lon="9.5830752"><ele>464.0</ele><time>2026-03-28T09:14:46.83Z</time></trkpt><trkpt lat="40.2688874" lon="9.5830194"><ele>464.0</ele><time>2026-03-28T09:14:47.8Z</time></trkpt><trkpt lat="40.2687726" lon="9.5829987"><ele>461.75</ele><time>2026-03-28T09:14:48.801Z</time></trkpt><trkpt lat="40.2686583" lon="9.5830029"><ele>459.5</ele><time>2026-03-28T09:14:49.804Z</time></trkpt><trkpt lat="40.2685435" lon="9.582984"><ele>457.25</ele><time>2026-03-28T09:14:50.801Z</time></trkpt><trkpt lat="40.2684228" lon="9.5829163"><ele>455.0</ele><time>2026-03-28T09:14:51.8Z</time></trkpt><trkpt lat="40.2683266" lon="9.5828216"><ele>455.0</ele><time>2026-03-28T09:14:52.798Z</time></trkpt><trkpt lat="40.2682397" lon="9.5826966"><ele>455.0</ele><time>2026-03-28T09:14:53.803Z</time></trkpt><trkpt lat="40.2681401" lon="9.5825832"><ele>455.0</ele><time>2026-03-28T09:14:54.8Z</time></trkpt><trkpt lat="40.2680236" lon="9.5824732"><ele>455.0</ele><time>2026-03-28T09:14:55.803Z</time></trkpt><trkpt lat="40.2679067" lon="9.5823705"><ele>455.25</ele><time>2026-03-28T09:14:56.798Z</time></trkpt><trkpt lat="40.2677891" lon="9.5822632"><ele>455.5</ele><time>2026-03-28T09:14:57.807Z</time></trkpt><trkpt lat="40.2676697" lon="9.5821552"><ele>455.75</ele><time>2026-03-28T09:14:58.808Z</time></trkpt><trkpt lat="40.2675529" lon="9.5820519"><ele>456.0</ele><time>2026-03-28T09:14:59.802Z</time></trkpt><trkpt lat="40.2674419" lon="9.5819534"><ele>456.0</ele><time>2026-03-28T09:15:00.801Z</time></trkpt><trkpt lat="40.2673302" lon="9.581857"><ele>456.0</ele><time>2026-03-28T09:15:01.798Z</time></trkpt><trkpt lat="40.2672211" lon="9.5817635"><ele>456.0</ele><time>2026-03-28T09:15:02.804Z</time></trkpt><trkpt lat="40.2671134" lon="9.5816702"><ele>456.0</ele><time>2026-03-28T09:15:03.805Z</time></trkpt><trkpt lat="40.26701" lon="9.5815686"><ele>456.25</ele><time>2026-03-28T09:15:04.807Z</time></trkpt><trkpt lat="40.2669081" lon="9.5814675"><ele>456.5</ele><time>2026-03-28T09:15:05.804Z</time></trkpt><trkpt lat="40.2668219" lon="9.5813335"><ele>456.75</ele><time>2026-03-28T09:15:06.811Z</time></trkpt><trkpt lat="40.2667357" lon="9.5812088"><ele>457.0</ele><time>2026-03-28T09:15:07.805Z</time></trkpt><trkpt lat="40.266638" lon="9.581097"><ele>457.0</ele><time>2026-03-28T09:15:08.806Z</time></trkpt><trkpt lat="40.2665295" lon="9.581006"><ele>457.0</ele><time>2026-03-28T09:15:09.801Z</time></trkpt><trkpt lat="40.2664075" lon="9.5809298"><ele>457.0</ele><time>2026-03-28T09:15:10.807Z</time></trkpt><trkpt lat="40.266282" lon="9.580866"><ele>457.0</ele><time>2026-03-28T09:15:11.81Z</time></trkpt><trkpt lat="40.2661581" lon="9.5807996"><ele>462.5</ele><time>2026-03-28T09:15:12.802Z</time></trkpt><trkpt lat="40.2660419" lon="9.5807229"><ele>468.0</ele><time>2026-03-28T09:15:13.801Z</time></trkpt><trkpt lat="40.2659303" lon="9.5806432"><ele>473.5</ele><time>2026-03-28T09:15:14.802Z</time></trkpt><trkpt lat="40.2658407" lon="9.5805246"><ele>479.0</ele><time>2026-03-28T09:15:15.798Z</time></trkpt><trkpt lat="40.2657474" lon="9.5803857"><ele>478.25</ele><time>2026-03-28T09:15:16.807Z</time></trkpt><trkpt lat="40.2656555" lon="9.5802515"><ele>477.5</ele><time>2026-03-28T09:15:17.809Z</time></trkpt><trkpt lat="40.2655667" lon="9.5801196"><ele>476.75</ele><time>2026-03-28T09:15:18.804Z</time></trkpt><trkpt lat="40.2654846" lon="9.5799997"><ele>476.0</ele><time>2026-03-28T09:15:19.807Z</time></trkpt><trkpt lat="40.2654097" lon="9.5798919"><ele>476.0</ele><time>2026-03-28T09:15:20.8Z</time></trkpt><trkpt lat="40.2653206" lon="9.5797955"><ele>476.0</ele><time>2026-03-28T09:15:21.801Z</time></trkpt><trkpt lat="40.2652219" lon="9.5797422"><ele>476.0</ele><time>2026-03-28T09:15:22.802Z</time></trkpt><trkpt lat="40.2651115" lon="9.5797311"><ele>476.0</ele><time>2026-03-28T09:15:23.807Z</time></trkpt><trkpt lat="40.2649955" lon="9.5797631"><ele>476.0</ele><time>2026-03-28T09:15:24.803Z</time></trkpt><trkpt lat="40.2648741" lon="9.5798214"><ele>476.0</ele><time>2026-03-28T09:15:25.801Z</time></trkpt><trkpt lat="40.2647549" lon="9.5798762"><ele>476.0</ele><time>2026-03-28T09:15:26.807Z</time></trkpt><trkpt lat="40.2646261" lon="9.5799119"><ele>476.0</ele><time>2026-03-28T09:15:27.805Z</time></trkpt><trkpt lat="40.2644943" lon="9.5799002"><ele>476.75</ele><time>2026-03-28T09:15:28.813Z</time></trkpt><trkpt lat="40.2643665" lon="9.5798768"><ele>477.5</ele><time>2026-03-28T09:15:29.806Z</time></trkpt><trkpt lat="40.2642367" lon="9.5798127"><ele>478.25</ele><time>2026-03-28T09:15:30.805Z</time></trkpt><trkpt lat="40.2640972" lon="9.579757"><ele>479.0</ele><time>2026-03-28T09:15:31.805Z</time></trkpt><trkpt lat="40.2639594" lon="9.5797137"><ele>481.0</ele><time>2026-03-28T09:15:32.802Z</time></trkpt><trkpt lat="40.2638173" lon="9.5796955"><ele>483.0</ele><time>2026-03-28T09:15:33.801Z</time></trkpt><trkpt lat="40.2636748" lon="9.5797126"><ele>485.0</ele><time>2026-03-28T09:15:34.803Z</time></trkpt><trkpt lat="40.2635331" lon="9.579744"><ele>487.0</ele><time>2026-03-28T09:15:35.802Z</time></trkpt><trkpt lat="40.2633899" lon="9.5797726"><ele>487.0</ele><time>2026-03-28T09:15:36.805Z</time></trkpt><trkpt lat="40.2632441" lon="9.5797543"><ele>487.0</ele><time>2026-03-28T09:15:37.802Z</time></trkpt><trkpt lat="40.2631001" lon="9.5797401"><ele>487.0</ele><time>2026-03-28T09:15:38.807Z</time></trkpt><trkpt lat="40.2629594" lon="9.5797394"><ele>487.0</ele><time>2026-03-28T09:15:39.804Z</time></trkpt><trkpt lat="40.2628228" lon="9.5797299"><ele>488.75</ele><time>2026-03-28T09:15:40.803Z</time></trkpt><trkpt lat="40.2626886" lon="9.5796966"><ele>490.5</ele><time>2026-03-28T09:15:41.806Z</time></trkpt><trkpt lat="40.2625624" lon="9.5796469"><ele>492.25</ele><time>2026-03-28T09:15:42.808Z</time></trkpt><trkpt lat="40.2624408" lon="9.5795812"><ele>494.0</ele><time>2026-03-28T09:15:43.808Z</time></trkpt><trkpt lat="40.262323" lon="9.5795142"><ele>488.5</ele><time>2026-03-28T09:15:44.797Z</time></trkpt><trkpt lat="40.2622067" lon="9.5794426"><ele>483.0</ele><time>2026-03-28T09:15:45.804Z</time></trkpt><trkpt lat="40.2620977" lon="9.5793688"><ele>477.5</ele><time>2026-03-28T09:15:46.801Z</time></trkpt><trkpt lat="40.2619974" lon="9.5792891"><ele>472.0</ele><time>2026-03-28T09:15:47.798Z</time></trkpt><trkpt lat="40.2618933" lon="9.5792303"><ele>472.0</ele><time>2026-03-28T09:15:48.805Z</time></trkpt><trkpt lat="40.2617792" lon="9.5791853"><ele>472.0</ele><time>2026-03-28T09:15:49.804Z</time></trkpt><trkpt lat="40.2616498" lon="9.5791727"><ele>472.0</ele><time>2026-03-28T09:15:50.805Z</time></trkpt><trkpt lat="40.2615192" lon="9.5791631"><ele>472.0</ele><time>2026-03-28T09:15:51.801Z</time></trkpt><trkpt lat="40.2613824" lon="9.5791451"><ele>476.0</ele><time>2026-03-28T09:15:52.804Z</time></trkpt><trkpt lat="40.2612421" lon="9.5791027"><ele>480.0</ele><time>2026-03-28T09:15:53.796Z</time></trkpt><trkpt lat="40.2611079" lon="9.5790407"><ele>484.0</ele><time>2026-03-28T09:15:54.804Z</time></trkpt><trkpt lat="40.2609788" lon="9.5789664"><ele>488.0</ele><time>2026-03-28T09:15:55.801Z</time></trkpt><trkpt lat="40.2608499" lon="9.5788988"><ele>488.0</ele><time>2026-03-28T09:15:56.801Z</time></trkpt><trkpt lat="40.2607166" lon="9.5788356"><ele>488.0</ele><time>2026-03-28T09:15:57.803Z</time></trkpt><trkpt lat="40.2605788" lon="9.5787761"><ele>488.0</ele><time>2026-03-28T09:15:58.798Z</time></trkpt><trkpt lat="40.2604416" lon="9.5787183"><ele>488.0</ele><time>2026-03-28T09:15:59.805Z</time></trkpt><trkpt lat="40.2603031" lon="9.5786604"><ele>484.25</ele><time>2026-03-28T09:16:00.801Z</time></trkpt><trkpt lat="40.2601701" lon="9.5786054"><ele>480.5</ele><time>2026-03-28T09:16:01.794Z</time></trkpt><trkpt lat="40.2600455" lon="9.5785538"><ele>476.75</ele><time>2026-03-28T09:16:02.802Z</time></trkpt><trkpt lat="40.2599354" lon="9.5784873"><ele>473.0</ele><time>2026-03-28T09:16:03.804Z</time></trkpt><trkpt lat="40.2598406" lon="9.5783958"><ele>481.25</ele><time>2026-03-28T09:16:04.801Z</time></trkpt><trkpt lat="40.2597666" lon="9.5783024"><ele>489.5</ele><time>2026-03-28T09:16:05.803Z</time></trkpt><trkpt lat="40.2597344" lon="9.5781579"><ele>497.75</ele><time>2026-03-28T09:16:06.804Z</time></trkpt><trkpt lat="40.2596793" lon="9.5780178"><ele>506.0</ele><time>2026-03-28T09:16:07.801Z</time></trkpt><trkpt lat="40.2596029" lon="9.577895"><ele>496.75</ele><time>2026-03-28T09:16:08.799Z</time></trkpt><trkpt lat="40.2595046" lon="9.5777954"><ele>487.5</ele><time>2026-03-28T09:16:09.804Z</time></trkpt><trkpt lat="40.2593928" lon="9.5777386"><ele>478.25</ele><time>2026-03-28T09:16:10.801Z</time></trkpt><trkpt lat="40.2592687" lon="9.5777178"><ele>469.0</ele><time>2026-03-28T09:16:11.799Z</time></trkpt><trkpt lat="40.2591381" lon="9.5777219"><ele>469.0</ele><time>2026-03-28T09:16:12.802Z</time></trkpt><trkpt lat="40.2589963" lon="9.5777227"><ele>469.0</ele><time>2026-03-28T09:16:13.798Z</time></trkpt><trkpt lat="40.25886" lon="9.5776918"><ele>469.0</ele><time>2026-03-28T09:16:14.805Z</time></trkpt><trkpt lat="40.2587229" lon="9.577638"><ele>469.0</ele><time>2026-03-28T09:16:15.805Z</time></trkpt><trkpt lat="40.2585817" lon="9.5775868"><ele>472.33333333333337</ele><time>2026-03-28T09:16:16.797Z</time></trkpt><trkpt lat="40.258431" lon="9.5775463"><ele>475.66666666666663</ele><time>2026-03-28T09:16:17.802Z</time></trkpt><trkpt lat="40.2582769" lon="9.5775148"><ele>479.0</ele><time>2026-03-28T09:16:18.805Z</time></trkpt><trkpt lat="40.2581158" lon="9.577487"><ele>485.66666666666663</ele><time>2026-03-28T09:16:19.8Z</time></trkpt><trkpt lat="40.2579511" lon="9.5774591"><ele>492.33333333333337</ele><time>2026-03-28T09:16:20.804Z</time></trkpt><trkpt lat="40.2577924" lon="9.5774353"><ele>499.0</ele><time>2026-03-28T09:16:21.8Z</time></trkpt><trkpt lat="40.25763" lon="9.5773982"><ele>499.0</ele><time>2026-03-28T09:16:22.811Z</time></trkpt><trkpt lat="40.2574806" lon="9.5773483"><ele>499.0</ele><time>2026-03-28T09:16:23.805Z</time></trkpt><trkpt lat="40.2573238" lon="9.5772937"><ele>499.0</ele><time>2026-03-28T09:16:24.802Z</time></trkpt><trkpt lat="40.257166" lon="9.5772493"><ele>504.33333333333337</ele><time>2026-03-28T09:16:25.806Z</time></trkpt><trkpt lat="40.2570021" lon="9.5772263"><ele>509.66666666666663</ele><time>2026-03-28T09:16:26.804Z</time></trkpt><trkpt lat="40.2568388" lon="9.577215"><ele>515.0</ele><time>2026-03-28T09:16:27.802Z</time></trkpt><trkpt lat="40.2566727" lon="9.5772076"><ele>515.0</ele><time>2026-03-28T09:16:28.804Z</time></trkpt><trkpt lat="40.2565094" lon="9.5772002"><ele>515.0</ele><time>2026-03-28T09:16:29.8Z</time></trkpt><trkpt lat="40.2563451" lon="9.57718"><ele>515.0</ele><time>2026-03-28T09:16:30.804Z</time></trkpt><trkpt lat="40.2561881" lon="9.577148"><ele>521.3333333333333</ele><time>2026-03-28T09:16:31.801Z</time></trkpt><trkpt lat="40.256033" lon="9.5770648"><ele>527.6666666666666</ele><time>2026-03-28T09:16:32.801Z</time></trkpt><trkpt lat="40.2558782" lon="9.5770063"><ele>534.0</ele><time>2026-03-28T09:16:33.799Z</time></trkpt><trkpt lat="40.2557275" lon="9.5769615"><ele>531.25</ele><time>2026-03-28T09:16:34.801Z</time></trkpt><trkpt lat="40.2555845" lon="9.5769118"><ele>528.5</ele><time>2026-03-28T09:16:35.801Z</time></trkpt><trkpt lat="40.2554482" lon="9.5768416"><ele>525.75</ele><time>2026-03-28T09:16:36.799Z</time></trkpt><trkpt lat="40.2553274" lon="9.5767763"><ele>523.0</ele><time>2026-03-28T09:16:37.801Z</time></trkpt><trkpt lat="40.2552336" lon="9.5766398"><ele>523.0</ele><time>2026-03-28T09:16:38.806Z</time></trkpt><trkpt lat="40.2551458" lon="9.576497"><ele>523.0</ele><time>2026-03-28T09:16:39.807Z</time></trkpt><trkpt lat="40.2550413" lon="9.5763535"><ele>523.0</ele><time>2026-03-28T09:16:40.809Z</time></trkpt><trkpt lat="40.2549295" lon="9.5762186"><ele>523.0</ele><time>2026-03-28T09:16:41.805Z</time></trkpt><trkpt lat="40.2548133" lon="9.5760912"><ele>524.5</ele><time>2026-03-28T09:16:42.805Z</time></trkpt><trkpt lat="40.2547022" lon="9.5759744"><ele>526.0</ele><time>2026-03-28T09:16:43.806Z</time></trkpt><trkpt lat="40.2546002" lon="9.5758719"><ele>527.5</ele><time>2026-03-28T09:16:44.801Z</time></trkpt><trkpt lat="40.2545176" lon="9.575769"><ele>529.0</ele><time>2026-03-28T09:16:45.801Z</time></trkpt><trkpt lat="40.2544774" lon="9.5756357"><ele>529.0</ele><time>2026-03-28T09:16:46.806Z</time></trkpt><trkpt lat="40.2544486" lon="9.575502"><ele>529.0</ele><time>2026-03-28T09:16:47.8Z</time></trkpt><trkpt lat="40.2544087" lon="9.5753743"><ele>529.0</ele><time>2026-03-28T09:16:48.798Z</time></trkpt><trkpt lat="40.2543462" lon="9.5752596"><ele>529.0</ele><time>2026-03-28T09:16:49.805Z</time></trkpt><trkpt lat="40.2542579" lon="9.5751772"><ele>529.0</ele><time>2026-03-28T09:16:50.801Z</time></trkpt><trkpt lat="40.2541459" lon="9.5751248"><ele>528.25</ele><time>2026-03-28T09:16:51.83Z</time></trkpt><trkpt lat="40.2540196" lon="9.5750915"><ele>527.5</ele><time>2026-03-28T09:16:52.808Z</time></trkpt><trkpt lat="40.2538849" lon="9.5750659"><ele>526.75</ele><time>2026-03-28T09:16:53.797Z</time></trkpt><trkpt lat="40.2537462" lon="9.5750399"><ele>526.0</ele><time>2026-03-28T09:16:54.801Z</time></trkpt><trkpt lat="40.2536036" lon="9.5750189"><ele>526.0</ele><time>2026-03-28T09:16:55.809Z</time></trkpt><trkpt lat="40.2534563" lon="9.5749993"><ele>526.0</ele><time>2026-03-28T09:16:56.805Z</time></trkpt><trkpt lat="40.2533048" lon="9.5749576"><ele>526.0</ele><time>2026-03-28T09:16:57.816Z</time></trkpt><trkpt lat="40.253159" lon="9.5748928"><ele>530.5</ele><time>2026-03-28T09:16:58.799Z</time></trkpt><trkpt lat="40.2530145" lon="9.5748225"><ele>535.0</ele><time>2026-03-28T09:16:59.805Z</time></trkpt><trkpt lat="40.2528786" lon="9.574756"><ele>539.5</ele><time>2026-03-28T09:17:00.803Z</time></trkpt><trkpt lat="40.2527471" lon="9.5746836"><ele>544.0</ele><time>2026-03-28T09:17:01.801Z</time></trkpt><trkpt lat="40.2526201" lon="9.5746095"><ele>544.0</ele><time>2026-03-28T09:17:02.811Z</time></trkpt><trkpt lat="40.2524919" lon="9.5745336"><ele>544.0</ele><time>2026-03-28T09:17:03.808Z</time></trkpt><trkpt lat="40.2523617" lon="9.5744599"><ele>544.0</ele><time>2026-03-28T09:17:04.805Z</time></trkpt><trkpt lat="40.2522318" lon="9.5743882"><ele>544.0</ele><time>2026-03-28T09:17:05.806Z</time></trkpt><trkpt lat="40.2520895" lon="9.5743418"><ele>541.25</ele><time>2026-03-28T09:17:06.803Z</time></trkpt><trkpt lat="40.2519503" lon="9.57429"><ele>538.5</ele><time>2026-03-28T09:17:07.801Z</time></trkpt><trkpt lat="40.2518228" lon="9.5742009"><ele>535.75</ele><time>2026-03-28T09:17:08.802Z</time></trkpt><trkpt lat="40.251697" lon="9.5740996"><ele>533.0</ele><time>2026-03-28T09:17:09.796Z</time></trkpt><trkpt lat="40.2515668" lon="9.5740082"><ele>539.6666666666666</ele><time>2026-03-28T09:17:10.801Z</time></trkpt><trkpt lat="40.2514253" lon="9.573935"><ele>546.3333333333334</ele><time>2026-03-28T09:17:11.807Z</time></trkpt><trkpt lat="40.2512825" lon="9.5738775"><ele>553.0</ele><time>2026-03-28T09:17:12.803Z</time></trkpt><trkpt lat="40.251124" lon="9.5738198"><ele>553.0</ele><time>2026-03-28T09:17:13.8Z</time></trkpt><trkpt lat="40.250995" lon="9.5737506"><ele>553.0</ele><time>2026-03-28T09:17:14.8Z</time></trkpt><trkpt lat="40.2508821" lon="9.5736552"><ele>553.0</ele><time>2026-03-28T09:17:15.808Z</time></trkpt><trkpt lat="40.2507776" lon="9.573555"><ele>553.0</ele><time>2026-03-28T09:17:16.803Z</time></trkpt><trkpt lat="40.2506631" lon="9.5734876"><ele>548.75</ele><time>2026-03-28T09:17:17.803Z</time></trkpt><trkpt lat="40.2505358" lon="9.573455"><ele>544.5</ele><time>2026-03-28T09:17:18.804Z</time></trkpt><trkpt lat="40.2504073" lon="9.5734235"><ele>540.25</ele><time>2026-03-28T09:17:19.804Z</time></trkpt><trkpt lat="40.2502742" lon="9.5733658"><ele>536.0</ele><time>2026-03-28T09:17:20.8Z</time></trkpt><trkpt lat="40.2501451" lon="9.5732898"><ele>536.0</ele><time>2026-03-28T09:17:21.802Z</time></trkpt><trkpt lat="40.250017" lon="9.5732111"><ele>536.0</ele><time>2026-03-28T09:17:22.8Z</time></trkpt><trkpt lat="40.2498866" lon="9.5731304"><ele>536.0</ele><time>2026-03-28T09:17:23.806Z</time></trkpt><trkpt lat="40.2497544" lon="9.5730503"><ele>536.0</ele><time>2026-03-28T09:17:24.806Z</time></trkpt><trkpt lat="40.2496178" lon="9.5729855"><ele>542.25</ele><time>2026-03-28T09:17:25.812Z</time></trkpt><trkpt lat="40.2494802" lon="9.5729481"><ele>548.5</ele><time>2026-03-28T09:17:26.809Z</time></trkpt><trkpt lat="40.2493421" lon="9.5729285"><ele>554.75</ele><time>2026-03-28T09:17:27.804Z</time></trkpt><trkpt lat="40.2492027" lon="9.5729166"><ele>561.0</ele><time>2026-03-28T09:17:28.805Z</time></trkpt><trkpt lat="40.249062" lon="9.5729095"><ele>557.0</ele><time>2026-03-28T09:17:29.805Z</time></trkpt><trkpt lat="40.2489237" lon="9.5728823"><ele>553.0</ele><time>2026-03-28T09:17:30.804Z</time></trkpt><trkpt lat="40.2487903" lon="9.5728396"><ele>549.0</ele><time>2026-03-28T09:17:31.803Z</time></trkpt><trkpt lat="40.24866" lon="9.5727793"><ele>545.0</ele><time>2026-03-28T09:17:32.805Z</time></trkpt><trkpt lat="40.248534" lon="9.5727068"><ele>545.0</ele><time>2026-03-28T09:17:33.804Z</time></trkpt><trkpt lat="40.2484094" lon="9.5726262"><ele>545.0</ele><time>2026-03-28T09:17:34.804Z</time></trkpt><trkpt lat="40.2482926" lon="9.5725362"><ele>545.0</ele><time>2026-03-28T09:17:35.8Z</time></trkpt><trkpt lat="40.2481718" lon="9.5724397"><ele>545.0</ele><time>2026-03-28T09:17:36.807Z</time></trkpt><trkpt lat="40.2480534" lon="9.5723324"><ele>542.75</ele><time>2026-03-28T09:17:37.803Z</time></trkpt><trkpt lat="40.2479399" lon="9.5722216"><ele>540.5</ele><time>2026-03-28T09:17:38.809Z</time></trkpt><trkpt lat="40.2478311" lon="9.5721107"><ele>538.25</ele><time>2026-03-28T09:17:39.804Z</time></trkpt><trkpt lat="40.2477005" lon="9.5720274"><ele>536.0</ele><time>2026-03-28T09:17:40.806Z</time></trkpt><trkpt lat="40.2475702" lon="9.5719615"><ele>536.0</ele><time>2026-03-28T09:17:41.805Z</time></trkpt><trkpt lat="40.2474319" lon="9.5719273"><ele>536.0</ele><time>2026-03-28T09:17:42.804Z</time></trkpt><trkpt lat="40.2472868" lon="9.5719007"><ele>536.0</ele><time>2026-03-28T09:17:43.804Z</time></trkpt><trkpt lat="40.2471449" lon="9.5718789"><ele>536.0</ele><time>2026-03-28T09:17:44.803Z</time></trkpt><trkpt lat="40.2470187" lon="9.5718155"><ele>542.0</ele><time>2026-03-28T09:17:45.802Z</time></trkpt><trkpt lat="40.2469148" lon="9.5717157"><ele>548.0</ele><time>2026-03-28T09:17:46.801Z</time></trkpt><trkpt lat="40.2468186" lon="9.571607"><ele>554.0</ele><time>2026-03-28T09:17:47.806Z</time></trkpt><trkpt lat="40.2467138" lon="9.571489"><ele>560.0</ele><time>2026-03-28T09:17:48.801Z</time></trkpt><trkpt lat="40.2465992" lon="9.5713694"><ele>560.0</ele><time>2026-03-28T09:17:49.802Z</time></trkpt><trkpt lat="40.246463" lon="9.5712646"><ele>560.0</ele><time>2026-03-28T09:17:50.809Z</time></trkpt><trkpt lat="40.2463168" lon="9.5711611"><ele>560.0</ele><time>2026-03-28T09:17:51.807Z</time></trkpt><trkpt lat="40.2461728" lon="9.571059"><ele>559.0</ele><time>2026-03-28T09:17:52.808Z</time></trkpt><trkpt lat="40.2460315" lon="9.5709463"><ele>558.0</ele><time>2026-03-28T09:17:53.806Z</time></trkpt><trkpt lat="40.2458928" lon="9.5708285"><ele>557.0</ele><time>2026-03-28T09:17:54.799Z</time></trkpt><trkpt lat="40.2457587" lon="9.570706"><ele>576.3333333333333</ele><time>2026-03-28T09:17:55.807Z</time></trkpt><trkpt lat="40.2456255" lon="9.5705868"><ele>595.6666666666666</ele><time>2026-03-28T09:17:56.802Z</time></trkpt><trkpt lat="40.2454949" lon="9.570473"><ele>615.0</ele><time>2026-03-28T09:17:57.798Z</time></trkpt><trkpt lat="40.2453703" lon="9.5703669"><ele>602.0</ele><time>2026-03-28T09:17:58.805Z</time></trkpt><trkpt lat="40.2452527" lon="9.5702605"><ele>589.0</ele><time>2026-03-28T09:17:59.802Z</time></trkpt><trkpt lat="40.2451358" lon="9.5701466"><ele>576.0</ele><time>2026-03-28T09:18:00.803Z</time></trkpt><trkpt lat="40.2450374" lon="9.5700039"><ele>563.0</ele><time>2026-03-28T09:18:01.806Z</time></trkpt><trkpt lat="40.2449281" lon="9.5698628"><ele>563.0</ele><time>2026-03-28T09:18:02.806Z</time></trkpt><trkpt lat="40.2448085" lon="9.5697207"><ele>563.0</ele><time>2026-03-28T09:18:03.802Z</time></trkpt><trkpt lat="40.2446824" lon="9.5695779"><ele>563.0</ele><time>2026-03-28T09:18:04.807Z</time></trkpt><trkpt lat="40.2445515" lon="9.5694325"><ele>563.3333333333333</ele><time>2026-03-28T09:18:05.804Z</time></trkpt><trkpt lat="40.244416" lon="9.5692939"><ele>563.6666666666666</ele><time>2026-03-28T09:18:06.803Z</time></trkpt><trkpt lat="40.2442918" lon="9.5691568"><ele>564.0</ele><time>2026-03-28T09:18:07.804Z</time></trkpt><trkpt lat="40.2441811" lon="9.5690308"><ele>564.0</ele><time>2026-03-28T09:18:08.802Z</time></trkpt><trkpt lat="40.244069" lon="9.5689098"><ele>564.0</ele><time>2026-03-28T09:18:09.806Z</time></trkpt><trkpt lat="40.2439615" lon="9.5687915"><ele>564.0</ele><time>2026-03-28T09:18:10.801Z</time></trkpt><trkpt lat="40.2438441" lon="9.5686761"><ele>564.0</ele><time>2026-03-28T09:18:11.804Z</time></trkpt><trkpt lat="40.2437131" lon="9.568581"><ele>561.6666666666666</ele><time>2026-03-28T09:18:12.8Z</time></trkpt><trkpt lat="40.2435703" lon="9.5685063"><ele>559.3333333333333</ele><time>2026-03-28T09:18:13.799Z</time></trkpt><trkpt lat="40.2434176" lon="9.5684457"><ele>557.0</ele><time>2026-03-28T09:18:14.801Z</time></trkpt><trkpt lat="40.2432648" lon="9.5683835"><ele>570.0</ele><time>2026-03-28T09:18:15.798Z</time></trkpt><trkpt lat="40.2431152" lon="9.5683101"><ele>583.0</ele><time>2026-03-28T09:18:16.801Z</time></trkpt><trkpt lat="40.2429697" lon="9.5682153"><ele>596.0</ele><time>2026-03-28T09:18:17.802Z</time></trkpt><trkpt lat="40.2428245" lon="9.5681156"><ele>596.0</ele><time>2026-03-28T09:18:18.804Z</time></trkpt><trkpt lat="40.2426646" lon="9.5679969"><ele>596.0</ele><time>2026-03-28T09:18:19.796Z</time></trkpt><trkpt lat="40.2424919" lon="9.5678638"><ele>596.0</ele><time>2026-03-28T09:18:20.823Z</time></trkpt><trkpt lat="40.2423256" lon="9.567726"><ele>596.6666666666666</ele><time>2026-03-28T09:18:21.802Z</time></trkpt><trkpt lat="40.2421724" lon="9.5675991"><ele>597.3333333333334</ele><time>2026-03-28T09:18:22.798Z</time></trkpt><trkpt lat="40.2420477" lon="9.5674773"><ele>598.0</ele><time>2026-03-28T09:18:23.797Z</time></trkpt><trkpt lat="40.2419596" lon="9.5673421"><ele>598.0</ele><time>2026-03-28T09:18:24.808Z</time></trkpt><trkpt lat="40.2418854" lon="9.567212"><ele>598.0</ele><time>2026-03-28T09:18:25.797Z</time></trkpt><trkpt lat="40.2418644" lon="9.5670467"><ele>598.0</ele><time>2026-03-28T09:18:26.798Z</time></trkpt><trkpt lat="40.2418148" lon="9.5668682"><ele>598.0</ele><time>2026-03-28T09:18:27.8Z</time></trkpt><trkpt lat="40.2417588" lon="9.5667053"><ele>591.0</ele><time>2026-03-28T09:18:28.799Z</time></trkpt><trkpt lat="40.24169" lon="9.5665347"><ele>584.0</ele><time>2026-03-28T09:18:29.802Z</time></trkpt><trkpt lat="40.2415746" lon="9.5663852"><ele>577.0</ele><time>2026-03-28T09:18:30.799Z</time></trkpt><trkpt lat="40.2414276" lon="9.566253"><ele>574.6666666666667</ele><time>2026-03-28T09:18:31.808Z</time></trkpt><trkpt lat="40.2412657" lon="9.5661444"><ele>572.3333333333334</ele><time>2026-03-28T09:18:32.804Z</time></trkpt><trkpt lat="40.241096" lon="9.566053"><ele>570.0</ele><time>2026-03-28T09:18:33.796Z</time></trkpt><trkpt lat="40.2409106" lon="9.565978"><ele>570.0</ele><time>2026-03-28T09:18:34.802Z</time></trkpt><trkpt lat="40.2407206" lon="9.5659059"><ele>570.0</ele><time>2026-03-28T09:18:35.803Z</time></trkpt><trkpt lat="40.2405379" lon="9.5658311"><ele>570.0</ele><time>2026-03-28T09:18:36.801Z</time></trkpt><trkpt lat="40.2403571" lon="9.5657475"><ele>581.3333333333334</ele><time>2026-03-28T09:18:37.802Z</time></trkpt><trkpt lat="40.2401807" lon="9.565646"><ele>592.6666666666667</ele><time>2026-03-28T09:18:38.804Z</time></trkpt><trkpt lat="40.2400068" lon="9.5655408"><ele>604.0</ele><time>2026-03-28T09:18:39.805Z</time></trkpt><trkpt lat="40.2398413" lon="9.565422"><ele>605.0</ele><time>2026-03-28T09:18:40.808Z</time></trkpt><trkpt lat="40.2396872" lon="9.5652827"><ele>606.0</ele><time>2026-03-28T09:18:41.808Z</time></trkpt><trkpt lat="40.2395437" lon="9.5651263"><ele>607.0</ele><time>2026-03-28T09:18:42.798Z</time></trkpt><trkpt lat="40.2394002" lon="9.5649606"><ele>607.0</ele><time>2026-03-28T09:18:43.797Z</time></trkpt><trkpt lat="40.2392463" lon="9.5648296"><ele>607.0</ele><time>2026-03-28T09:18:44.807Z</time></trkpt><trkpt lat="40.2390796" lon="9.5647366"><ele>607.0</ele><time>2026-03-28T09:18:45.802Z</time></trkpt><trkpt lat="40.2389145" lon="9.5646408"><ele>611.0</ele><time>2026-03-28T09:18:46.805Z</time></trkpt><trkpt lat="40.2387584" lon="9.5645152"><ele>615.0</ele><time>2026-03-28T09:18:47.797Z</time></trkpt><trkpt lat="40.2386042" lon="9.5643856"><ele>619.0</ele><time>2026-03-28T09:18:48.802Z</time></trkpt><trkpt lat="40.2384747" lon="9.5642148"><ele>619.0</ele><time>2026-03-28T09:18:49.8Z</time></trkpt><trkpt lat="40.2383573" lon="9.5640263"><ele>619.0</ele><time>2026-03-28T09:18:50.806Z</time></trkpt><trkpt lat="40.2382351" lon="9.5638183"><ele>619.0</ele><time>2026-03-28T09:18:51.799Z</time></trkpt><trkpt lat="40.2381463" lon="9.5635851"><ele>624.0</ele><time>2026-03-28T09:18:52.807Z</time></trkpt><trkpt lat="40.2380776" lon="9.5633488"><ele>629.0</ele><time>2026-03-28T09:18:53.803Z</time></trkpt><trkpt lat="40.2379864" lon="9.563118"><ele>634.0</ele><time>2026-03-28T09:18:54.797Z</time></trkpt><trkpt lat="40.2378797" lon="9.5629104"><ele>626.25</ele><time>2026-03-28T09:18:55.8Z</time></trkpt><trkpt lat="40.2377683" lon="9.5627317"><ele>618.5</ele><time>2026-03-28T09:18:56.808Z</time></trkpt><trkpt lat="40.2376667" lon="9.5625881"><ele>610.75</ele><time>2026-03-28T09:18:57.805Z</time></trkpt><trkpt lat="40.2375789" lon="9.5624801"><ele>603.0</ele><time>2026-03-28T09:18:58.804Z</time></trkpt><trkpt lat="40.2375055" lon="9.5623922"><ele>603.0</ele><time>2026-03-28T09:18:59.805Z</time></trkpt><trkpt lat="40.237455" lon="9.5623323"><ele>603.0</ele><time>2026-03-28T09:19:00.8Z</time></trkpt><trkpt lat="40.2373821" lon="9.5622598"><ele>603.0</ele><time>2026-03-28T09:19:02.812Z</time></trkpt><trkpt lat="40.2372775" lon="9.5621797"><ele>603.0</ele><time>2026-03-28T09:19:53.802Z</time></trkpt><trkpt lat="40.2372083" lon="9.5621319"><ele>603.0</ele><time>2026-03-28T09:19:54.806Z</time></trkpt><trkpt lat="40.2371208" lon="9.5620631"><ele>605.25</ele><time>2026-03-28T09:19:55.808Z</time></trkpt><trkpt lat="40.237025" lon="9.5619808"><ele>607.5</ele><time>2026-03-28T09:19:56.804Z</time></trkpt><trkpt lat="40.2369192" lon="9.5618873"><ele>609.75</ele><time>2026-03-28T09:19:57.809Z</time></trkpt><trkpt lat="40.2368026" lon="9.5617801"><ele>612.0</ele><time>2026-03-28T09:19:58.805Z</time></trkpt><trkpt lat="40.2366841" lon="9.5616682"><ele>612.0</ele><time>2026-03-28T09:19:59.802Z</time></trkpt><trkpt lat="40.2365689" lon="9.561547"><ele>612.0</ele><time>2026-03-28T09:20:00.802Z</time></trkpt><trkpt lat="40.236469" lon="9.5614267"><ele>612.0</ele><time>2026-03-28T09:20:01.803Z</time></trkpt><trkpt lat="40.2363761" lon="9.5613064"><ele>612.0</ele><time>2026-03-28T09:20:02.804Z</time></trkpt><trkpt lat="40.2362919" lon="9.5611756"><ele>613.0</ele><time>2026-03-28T09:20:03.813Z</time></trkpt><trkpt lat="40.2362155" lon="9.5610603"><ele>614.0</ele><time>2026-03-28T09:20:04.806Z</time></trkpt><trkpt lat="40.2361372" lon="9.5609525"><ele>615.0</ele><time>2026-03-28T09:20:05.8Z</time></trkpt><trkpt lat="40.2360539" lon="9.5608625"><ele>616.0</ele><time>2026-03-28T09:20:06.798Z</time></trkpt><trkpt lat="40.2359683" lon="9.5607878"><ele>617.0</ele><time>2026-03-28T09:20:07.807Z</time></trkpt><trkpt lat="40.235872" lon="9.5607196"><ele>617.0</ele><time>2026-03-28T09:20:08.81Z</time></trkpt><trkpt lat="40.235764" lon="9.5606555"><ele>617.0</ele><time>2026-03-28T09:20:09.802Z</time></trkpt><trkpt lat="40.2356435" lon="9.560595"><ele>617.0</ele><time>2026-03-28T09:20:10.805Z</time></trkpt><trkpt lat="40.2355171" lon="9.5605422"><ele>617.0</ele><time>2026-03-28T09:20:11.805Z</time></trkpt><trkpt lat="40.2353806" lon="9.5604942"><ele>613.3333333333333</ele><time>2026-03-28T09:20:12.796Z</time></trkpt><trkpt lat="40.235235" lon="9.5604465"><ele>609.6666666666666</ele><time>2026-03-28T09:20:13.804Z</time></trkpt><trkpt lat="40.2350846" lon="9.5603855"><ele>606.0</ele><time>2026-03-28T09:20:14.803Z</time></trkpt><trkpt lat="40.2349372" lon="9.5602998"><ele>616.6666666666666</ele><time>2026-03-28T09:20:15.805Z</time></trkpt><trkpt lat="40.2347995" lon="9.5601893"><ele>627.3333333333333</ele><time>2026-03-28T09:20:16.805Z</time></trkpt><trkpt lat="40.2346672" lon="9.5600703"><ele>638.0</ele><time>2026-03-28T09:20:17.802Z</time></trkpt><trkpt lat="40.2345296" lon="9.5599435"><ele>638.0</ele><time>2026-03-28T09:20:18.799Z</time></trkpt><trkpt lat="40.2343844" lon="9.5598168"><ele>638.0</ele><time>2026-03-28T09:20:19.805Z</time></trkpt><trkpt lat="40.2342326" lon="9.5596932"><ele>638.0</ele><time>2026-03-28T09:20:20.811Z</time></trkpt><trkpt lat="40.2340768" lon="9.5595755"><ele>640.0</ele><time>2026-03-28T09:20:21.801Z</time></trkpt><trkpt lat="40.233925" lon="9.5594573"><ele>642.0</ele><time>2026-03-28T09:20:22.797Z</time></trkpt><trkpt lat="40.2337729" lon="9.5593355"><ele>644.0</ele><time>2026-03-28T09:20:23.809Z</time></trkpt><trkpt lat="40.2336394" lon="9.5591822"><ele>644.0</ele><time>2026-03-28T09:20:24.799Z</time></trkpt><trkpt lat="40.2335149" lon="9.5590061"><ele>644.0</ele><time>2026-03-28T09:20:25.818Z</time></trkpt><trkpt lat="40.2333625" lon="9.5588672"><ele>644.0</ele><time>2026-03-28T09:20:26.797Z</time></trkpt><trkpt lat="40.2332296" lon="9.5587645"><ele>645.75</ele><time>2026-03-28T09:20:27.802Z</time></trkpt><trkpt lat="40.2331254" lon="9.5586595"><ele>647.5</ele><time>2026-03-28T09:20:28.796Z</time></trkpt><trkpt lat="40.2330614" lon="9.558543"><ele>649.25</ele><time>2026-03-28T09:20:29.809Z</time></trkpt><trkpt lat="40.233041" lon="9.5583494"><ele>651.0</ele><time>2026-03-28T09:20:30.803Z</time></trkpt><trkpt lat="40.2329834" lon="9.5581915"><ele>651.0</ele><time>2026-03-28T09:20:31.797Z</time></trkpt><trkpt lat="40.2328878" lon="9.5580572"><ele>651.0</ele><time>2026-03-28T09:20:32.801Z</time></trkpt><trkpt lat="40.2327685" lon="9.5579478"><ele>651.0</ele><time>2026-03-28T09:20:33.803Z</time></trkpt><trkpt lat="40.2326256" lon="9.5578569"><ele>651.0</ele><time>2026-03-28T09:20:34.801Z</time></trkpt><trkpt lat="40.2324696" lon="9.5577702"><ele>644.0</ele><time>2026-03-28T09:20:35.801Z</time></trkpt><trkpt lat="40.2323035" lon="9.5576924"><ele>637.0</ele><time>2026-03-28T09:20:36.803Z</time></trkpt><trkpt lat="40.2321316" lon="9.5576179"><ele>630.0</ele><time>2026-03-28T09:20:37.804Z</time></trkpt><trkpt lat="40.2319654" lon="9.5575587"><ele>630.0</ele><time>2026-03-28T09:20:38.8Z</time></trkpt><trkpt lat="40.231808" lon="9.557503"><ele>630.0</ele><time>2026-03-28T09:20:39.796Z</time></trkpt><trkpt lat="40.2316602" lon="9.5575172"><ele>630.0</ele><time>2026-03-28T09:20:40.805Z</time></trkpt><trkpt lat="40.2315279" lon="9.5575315"><ele>630.0</ele><time>2026-03-28T09:20:41.812Z</time></trkpt><trkpt lat="40.2314" lon="9.5575439"><ele>627.75</ele><time>2026-03-28T09:20:42.801Z</time></trkpt><trkpt lat="40.2312828" lon="9.5574823"><ele>625.5</ele><time>2026-03-28T09:20:43.8Z</time></trkpt><trkpt lat="40.2311871" lon="9.5573293"><ele>623.25</ele><time>2026-03-28T09:20:44.802Z</time></trkpt><trkpt lat="40.231093" lon="9.5571621"><ele>621.0</ele><time>2026-03-28T09:20:45.799Z</time></trkpt><trkpt lat="40.2309814" lon="9.5570273"><ele>621.0</ele><time>2026-03-28T09:20:46.804Z</time></trkpt><trkpt lat="40.2308452" lon="9.556936"><ele>621.0</ele><time>2026-03-28T09:20:47.812Z</time></trkpt><trkpt lat="40.2306866" lon="9.5568793"><ele>621.0</ele><time>2026-03-28T09:20:48.802Z</time></trkpt><trkpt lat="40.2305137" lon="9.5568434"><ele>626.3333333333334</ele><time>2026-03-28T09:20:49.797Z</time></trkpt><trkpt lat="40.2303376" lon="9.5568017"><ele>631.6666666666667</ele><time>2026-03-28T09:20:50.801Z</time></trkpt><trkpt lat="40.2301632" lon="9.5567483"><ele>637.0</ele><time>2026-03-28T09:20:51.801Z</time></trkpt><trkpt lat="40.2299869" lon="9.5566386"><ele>637.0</ele><time>2026-03-28T09:20:52.796Z</time></trkpt><trkpt lat="40.2298277" lon="9.5565366"><ele>637.0</ele><time>2026-03-28T09:20:53.8Z</time></trkpt><trkpt lat="40.2296966" lon="9.556423"><ele>637.0</ele><time>2026-03-28T09:20:54.801Z</time></trkpt><trkpt lat="40.229595" lon="9.5562861"><ele>641.25</ele><time>2026-03-28T09:20:55.801Z</time></trkpt><trkpt lat="40.229493" lon="9.5561934"><ele>645.5</ele><time>2026-03-28T09:20:56.807Z</time></trkpt><trkpt lat="40.2293803" lon="9.556152"><ele>649.75</ele><time>2026-03-28T09:20:57.805Z</time></trkpt><trkpt lat="40.2292637" lon="9.5561706"><ele>654.0</ele><time>2026-03-28T09:20:58.799Z</time></trkpt><trkpt lat="40.2291589" lon="9.5562397"><ele>654.0</ele><time>2026-03-28T09:20:59.8Z</time></trkpt><trkpt lat="40.2290527" lon="9.5563285"><ele>654.0</ele><time>2026-03-28T09:21:00.799Z</time></trkpt><trkpt lat="40.2289308" lon="9.5563702"><ele>654.0</ele><time>2026-03-28T09:21:01.798Z</time></trkpt><trkpt lat="40.2287984" lon="9.5563504"><ele>654.0</ele><time>2026-03-28T09:21:02.806Z</time></trkpt><trkpt lat="40.2286574" lon="9.5563132"><ele>658.0</ele><time>2026-03-28T09:21:03.801Z</time></trkpt><trkpt lat="40.2285041" lon="9.5562399"><ele>662.0</ele><time>2026-03-28T09:21:04.801Z</time></trkpt><trkpt lat="40.2283441" lon="9.5561517"><ele>666.0</ele><time>2026-03-28T09:21:05.801Z</time></trkpt><trkpt lat="40.2281792" lon="9.5560478"><ele>664.3333333333334</ele><time>2026-03-28T09:21:06.801Z</time></trkpt><trkpt lat="40.2280341" lon="9.5559296"><ele>662.6666666666667</ele><time>2026-03-28T09:21:07.795Z</time></trkpt><trkpt lat="40.2279135" lon="9.5558146"><ele>661.0</ele><time>2026-03-28T09:21:08.809Z</time></trkpt><trkpt lat="40.2277786" lon="9.5557099"><ele>661.0</ele><time>2026-03-28T09:21:09.804Z</time></trkpt><trkpt lat="40.2276311" lon="9.5556221"><ele>661.0</ele><time>2026-03-28T09:21:10.801Z</time></trkpt><trkpt lat="40.2274654" lon="9.5555451"><ele>661.0</ele><time>2026-03-28T09:21:11.804Z</time></trkpt><trkpt lat="40.2272946" lon="9.5554647"><ele>668.6666666666667</ele><time>2026-03-28T09:21:12.801Z</time></trkpt><trkpt lat="40.2271103" lon="9.555392"><ele>676.3333333333334</ele><time>2026-03-28T09:21:13.798Z</time></trkpt><trkpt lat="40.2269339" lon="9.5553221"><ele>684.0</ele><time>2026-03-28T09:21:14.807Z</time></trkpt><trkpt lat="40.2267586" lon="9.5552484"><ele>673.6666666666666</ele><time>2026-03-28T09:21:15.806Z</time></trkpt><trkpt lat="40.2265751" lon="9.555168"><ele>663.3333333333333</ele><time>2026-03-28T09:21:16.808Z</time></trkpt><trkpt lat="40.2263837" lon="9.5550962"><ele>653.0</ele><time>2026-03-28T09:21:17.804Z</time></trkpt><trkpt lat="40.2262079" lon="9.555029"><ele>653.0</ele><time>2026-03-28T09:21:18.802Z</time></trkpt><trkpt lat="40.2260371" lon="9.5549785"><ele>653.0</ele><time>2026-03-28T09:21:19.802Z</time></trkpt><trkpt lat="40.2258694" lon="9.5549398"><ele>653.0</ele><time>2026-03-28T09:21:20.798Z</time></trkpt><trkpt lat="40.2257136" lon="9.5549055"><ele>657.0</ele><time>2026-03-28T09:21:21.798Z</time></trkpt><trkpt lat="40.225565" lon="9.5548737"><ele>661.0</ele><time>2026-03-28T09:21:22.798Z</time></trkpt><trkpt lat="40.225435" lon="9.5548156"><ele>665.0</ele><time>2026-03-28T09:21:23.802Z</time></trkpt><trkpt lat="40.2253337" lon="9.5546635"><ele>669.0</ele><time>2026-03-28T09:21:24.809Z</time></trkpt><trkpt lat="40.2252157" lon="9.5545271"><ele>666.6666666666666</ele><time>2026-03-28T09:21:25.802Z</time></trkpt><trkpt lat="40.2250749" lon="9.5544255"><ele>664.3333333333333</ele><time>2026-03-28T09:21:26.81Z</time></trkpt><trkpt lat="40.2249242" lon="9.5543416"><ele>662.0</ele><time>2026-03-28T09:21:27.804Z</time></trkpt><trkpt lat="40.2247716" lon="9.5542619"><ele>662.0</ele><time>2026-03-28T09:21:28.803Z</time></trkpt><trkpt lat="40.2245994" lon="9.5542011"><ele>662.0</ele><time>2026-03-28T09:21:29.804Z</time></trkpt><trkpt lat="40.2244333" lon="9.5541436"><ele>662.0</ele><time>2026-03-28T09:21:30.8Z</time></trkpt><trkpt lat="40.2242757" lon="9.5540736"><ele>662.0</ele><time>2026-03-28T09:21:31.801Z</time></trkpt><trkpt lat="40.2241235" lon="9.5540009"><ele>662.0</ele><time>2026-03-28T09:21:32.804Z</time></trkpt><trkpt lat="40.2239698" lon="9.5539361"><ele>662.0</ele><time>2026-03-28T09:21:33.802Z</time></trkpt><trkpt lat="40.2238106" lon="9.5538973"><ele>666.6666666666666</ele><time>2026-03-28T09:21:34.804Z</time></trkpt><trkpt lat="40.2236496" lon="9.5538845"><ele>671.3333333333334</ele><time>2026-03-28T09:21:35.805Z</time></trkpt><trkpt lat="40.223481" lon="9.5538926"><ele>676.0</ele><time>2026-03-28T09:21:36.798Z</time></trkpt><trkpt lat="40.2233088" lon="9.5539022"><ele>678.3333333333334</ele><time>2026-03-28T09:21:37.802Z</time></trkpt><trkpt lat="40.2231332" lon="9.5539242"><ele>680.6666666666666</ele><time>2026-03-28T09:21:38.797Z</time></trkpt><trkpt lat="40.2229594" lon="9.5539205"><ele>683.0</ele><time>2026-03-28T09:21:39.805Z</time></trkpt><trkpt lat="40.2227899" lon="9.5538893"><ele>683.0</ele><time>2026-03-28T09:21:40.804Z</time></trkpt><trkpt lat="40.2226217" lon="9.5538551"><ele>683.0</ele><time>2026-03-28T09:21:41.809Z</time></trkpt><trkpt lat="40.2224557" lon="9.5538363"><ele>683.0</ele><time>2026-03-28T09:21:42.804Z</time></trkpt><trkpt lat="40.2222913" lon="9.5538379"><ele>683.6666666666666</ele><time>2026-03-28T09:21:43.801Z</time></trkpt><trkpt lat="40.2221281" lon="9.5538464"><ele>684.3333333333334</ele><time>2026-03-28T09:21:44.797Z</time></trkpt><trkpt lat="40.2219666" lon="9.5538503"><ele>685.0</ele><time>2026-03-28T09:21:45.801Z</time></trkpt><trkpt lat="40.2218101" lon="9.553843"><ele>685.0</ele><time>2026-03-28T09:21:46.805Z</time></trkpt><trkpt lat="40.2216591" lon="9.5538318"><ele>685.0</ele><time>2026-03-28T09:21:47.801Z</time></trkpt><trkpt lat="40.2215144" lon="9.5538175"><ele>685.0</ele><time>2026-03-28T09:21:48.804Z</time></trkpt><trkpt lat="40.2213722" lon="9.5537988"><ele>685.0</ele><time>2026-03-28T09:21:49.805Z</time></trkpt><trkpt lat="40.2212381" lon="9.5537789"><ele>687.0</ele><time>2026-03-28T09:21:50.8Z</time></trkpt><trkpt lat="40.2211127" lon="9.5537607"><ele>689.0</ele><time>2026-03-28T09:21:51.802Z</time></trkpt><trkpt lat="40.2209914" lon="9.5537624"><ele>691.0</ele><time>2026-03-28T09:21:52.807Z</time></trkpt><trkpt lat="40.2208706" lon="9.5537936"><ele>693.0</ele><time>2026-03-28T09:21:53.802Z</time></trkpt><trkpt lat="40.2207505" lon="9.5538446"><ele>694.75</ele><time>2026-03-28T09:21:54.801Z</time></trkpt><trkpt lat="40.2206249" lon="9.5538835"><ele>696.5</ele><time>2026-03-28T09:21:55.804Z</time></trkpt><trkpt lat="40.220488" lon="9.553917"><ele>698.25</ele><time>2026-03-28T09:21:56.801Z</time></trkpt><trkpt lat="40.2203552" lon="9.5539044"><ele>700.0</ele><time>2026-03-28T09:21:57.802Z</time></trkpt><trkpt lat="40.2202205" lon="9.5538967"><ele>700.0</ele><time>2026-03-28T09:21:58.809Z</time></trkpt><trkpt lat="40.2200819" lon="9.5538703"><ele>700.0</ele><time>2026-03-28T09:21:59.802Z</time></trkpt><trkpt lat="40.2199536" lon="9.5538525"><ele>700.0</ele><time>2026-03-28T09:22:00.813Z</time></trkpt><trkpt lat="40.2198312" lon="9.5538324"><ele>700.0</ele><time>2026-03-28T09:22:01.808Z</time></trkpt><trkpt lat="40.2197118" lon="9.5538089"><ele>695.5</ele><time>2026-03-28T09:22:02.804Z</time></trkpt><trkpt lat="40.2195969" lon="9.5537817"><ele>691.0</ele><time>2026-03-28T09:22:03.801Z</time></trkpt><trkpt lat="40.2194988" lon="9.55371"><ele>686.5</ele><time>2026-03-28T09:22:04.804Z</time></trkpt><trkpt lat="40.2194105" lon="9.553625"><ele>682.0</ele><time>2026-03-28T09:22:05.803Z</time></trkpt><trkpt lat="40.2193573" lon="9.553497"><ele>682.0</ele><time>2026-03-28T09:22:06.802Z</time></trkpt><trkpt lat="40.2192928" lon="9.553394"><ele>682.0</ele><time>2026-03-28T09:22:07.805Z</time></trkpt><trkpt lat="40.2192105" lon="9.5533047"><ele>682.0</ele><time>2026-03-28T09:22:08.805Z</time></trkpt><trkpt lat="40.2191088" lon="9.5532654"><ele>682.0</ele><time>2026-03-28T09:22:09.808Z</time></trkpt><trkpt lat="40.2189988" lon="9.5532504"><ele>682.0</ele><time>2026-03-28T09:22:10.799Z</time></trkpt><trkpt lat="40.2188857" lon="9.5532332"><ele>690.0</ele><time>2026-03-28T09:22:11.81Z</time></trkpt><trkpt lat="40.2187717" lon="9.5532105"><ele>698.0</ele><time>2026-03-28T09:22:12.804Z</time></trkpt><trkpt lat="40.2186627" lon="9.5531322"><ele>706.0</ele><time>2026-03-28T09:22:13.803Z</time></trkpt><trkpt lat="40.218562" lon="9.553046"><ele>714.0</ele><time>2026-03-28T09:22:14.797Z</time></trkpt><trkpt lat="40.2184452" lon="9.552978"><ele>714.0</ele><time>2026-03-28T09:22:15.804Z</time></trkpt><trkpt lat="40.2183103" lon="9.5529327"><ele>714.0</ele><time>2026-03-28T09:22:16.803Z</time></trkpt><trkpt lat="40.2181727" lon="9.5529219"><ele>714.0</ele><time>2026-03-28T09:22:17.806Z</time></trkpt><trkpt lat="40.2180377" lon="9.5529086"><ele>714.0</ele><time>2026-03-28T09:22:18.801Z</time></trkpt><trkpt lat="40.2178996" lon="9.5528759"><ele>709.5</ele><time>2026-03-28T09:22:19.806Z</time></trkpt><trkpt lat="40.2177656" lon="9.5528181"><ele>705.0</ele><time>2026-03-28T09:22:20.797Z</time></trkpt><trkpt lat="40.2176332" lon="9.5527732"><ele>700.5</ele><time>2026-03-28T09:22:21.797Z</time></trkpt><trkpt lat="40.2175133" lon="9.5526745"><ele>696.0</ele><time>2026-03-28T09:22:22.804Z</time></trkpt><trkpt lat="40.2173987" lon="9.5525592"><ele>700.0</ele><time>2026-03-28T09:22:23.8Z</time></trkpt><trkpt lat="40.2172919" lon="9.5524333"><ele>704.0</ele><time>2026-03-28T09:22:24.809Z</time></trkpt><trkpt lat="40.2171753" lon="9.5523316"><ele>708.0</ele><time>2026-03-28T09:22:25.8Z</time></trkpt><trkpt lat="40.2170419" lon="9.5522677"><ele>712.0</ele><time>2026-03-28T09:22:26.806Z</time></trkpt><trkpt lat="40.2169072" lon="9.552221"><ele>712.0</ele><time>2026-03-28T09:22:27.801Z</time></trkpt><trkpt lat="40.216764" lon="9.5521935"><ele>712.0</ele><time>2026-03-28T09:22:28.799Z</time></trkpt><trkpt lat="40.2166165" lon="9.5521785"><ele>712.0</ele><time>2026-03-28T09:22:29.797Z</time></trkpt><trkpt lat="40.2164697" lon="9.5521829"><ele>712.0</ele><time>2026-03-28T09:22:30.8Z</time></trkpt><trkpt lat="40.2163239" lon="9.5521925"><ele>717.3333333333334</ele><time>2026-03-28T09:22:31.798Z</time></trkpt><trkpt lat="40.2161781" lon="9.5521998"><ele>722.6666666666666</ele><time>2026-03-28T09:22:32.799Z</time></trkpt><trkpt lat="40.2160225" lon="9.5521841"><ele>728.0</ele><time>2026-03-28T09:22:33.798Z</time></trkpt><trkpt lat="40.2158724" lon="9.5521477"><ele>728.0</ele><time>2026-03-28T09:22:34.797Z</time></trkpt><trkpt lat="40.2157274" lon="9.5521005"><ele>728.0</ele><time>2026-03-28T09:22:35.801Z</time></trkpt><trkpt lat="40.215586" lon="9.5520542"><ele>728.0</ele><time>2026-03-28T09:22:36.802Z</time></trkpt><trkpt lat="40.2154464" lon="9.551998"><ele>728.0</ele><time>2026-03-28T09:22:37.805Z</time></trkpt><trkpt lat="40.215319" lon="9.5519182"><ele>724.75</ele><time>2026-03-28T09:22:38.8Z</time></trkpt><trkpt lat="40.2151961" lon="9.5518417"><ele>721.5</ele><time>2026-03-28T09:22:39.806Z</time></trkpt><trkpt lat="40.2150738" lon="9.5517893"><ele>718.25</ele><time>2026-03-28T09:22:40.799Z</time></trkpt><trkpt lat="40.2149419" lon="9.5517656"><ele>715.0</ele><time>2026-03-28T09:22:41.801Z</time></trkpt><trkpt lat="40.2148054" lon="9.5517649"><ele>715.0</ele><time>2026-03-28T09:22:42.804Z</time></trkpt><trkpt lat="40.214664" lon="9.5517718"><ele>715.0</ele><time>2026-03-28T09:22:43.796Z</time></trkpt><trkpt lat="40.2145228" lon="9.5517768"><ele>715.0</ele><time>2026-03-28T09:22:44.806Z</time></trkpt><trkpt lat="40.2143846" lon="9.5517717"><ele>715.0</ele><time>2026-03-28T09:22:45.799Z</time></trkpt><trkpt lat="40.2142475" lon="9.5517534"><ele>715.0</ele><time>2026-03-28T09:22:46.797Z</time></trkpt><trkpt lat="40.2141137" lon="9.5517126"><ele>715.0</ele><time>2026-03-28T09:22:47.8Z</time></trkpt><trkpt lat="40.2139796" lon="9.5516519"><ele>715.0</ele><time>2026-03-28T09:22:48.805Z</time></trkpt><trkpt lat="40.213845" lon="9.5515773"><ele>715.0</ele><time>2026-03-28T09:22:49.803Z</time></trkpt><trkpt lat="40.2137065" lon="9.5514952"><ele>725.0</ele><time>2026-03-28T09:22:50.806Z</time></trkpt><trkpt lat="40.2135652" lon="9.5514117"><ele>735.0</ele><time>2026-03-28T09:22:51.797Z</time></trkpt><trkpt lat="40.2134198" lon="9.5513214"><ele>745.0</ele><time>2026-03-28T09:22:52.82Z</time></trkpt><trkpt lat="40.2132687" lon="9.551226"><ele>741.6666666666667</ele><time>2026-03-28T09:22:53.801Z</time></trkpt><trkpt lat="40.213117" lon="9.5511244"><ele>738.3333333333334</ele><time>2026-03-28T09:22:54.802Z</time></trkpt><trkpt lat="40.2129668" lon="9.5510156"><ele>735.0</ele><time>2026-03-28T09:22:55.799Z</time></trkpt><trkpt lat="40.2128215" lon="9.5508999"><ele>735.0</ele><time>2026-03-28T09:22:56.798Z</time></trkpt><trkpt lat="40.2126819" lon="9.5507687"><ele>735.0</ele><time>2026-03-28T09:22:57.801Z</time></trkpt><trkpt lat="40.2125494" lon="9.5506253"><ele>735.0</ele><time>2026-03-28T09:22:58.8Z</time></trkpt><trkpt lat="40.2124216" lon="9.5504735"><ele>741.3333333333334</ele><time>2026-03-28T09:22:59.804Z</time></trkpt><trkpt lat="40.2122932" lon="9.5503199"><ele>747.6666666666667</ele><time>2026-03-28T09:23:00.801Z</time></trkpt><trkpt lat="40.2121633" lon="9.5501715"><ele>754.0</ele><time>2026-03-28T09:23:01.804Z</time></trkpt><trkpt lat="40.2120296" lon="9.5500287"><ele>754.0</ele><time>2026-03-28T09:23:02.8Z</time></trkpt><trkpt lat="40.2119023" lon="9.5498905"><ele>754.0</ele><time>2026-03-28T09:23:03.806Z</time></trkpt><trkpt lat="40.2117785" lon="9.5497564"><ele>754.0</ele><time>2026-03-28T09:23:04.803Z</time></trkpt><trkpt lat="40.2116772" lon="9.5496022"><ele>758.0</ele><time>2026-03-28T09:23:05.802Z</time></trkpt><trkpt lat="40.2115764" lon="9.5494365"><ele>762.0</ele><time>2026-03-28T09:23:06.804Z</time></trkpt><trkpt lat="40.2114773" lon="9.549269"><ele>766.0</ele><time>2026-03-28T09:23:07.798Z</time></trkpt><trkpt lat="40.2113664" lon="9.5491102"><ele>766.0</ele><time>2026-03-28T09:23:08.801Z</time></trkpt><trkpt lat="40.2112476" lon="9.5489567"><ele>766.0</ele><time>2026-03-28T09:23:09.805Z</time></trkpt><trkpt lat="40.2111165" lon="9.5488159"><ele>766.0</ele><time>2026-03-28T09:23:10.8Z</time></trkpt><trkpt lat="40.2109783" lon="9.5486904"><ele>766.0</ele><time>2026-03-28T09:23:11.804Z</time></trkpt><trkpt lat="40.2108365" lon="9.5485755"><ele>766.0</ele><time>2026-03-28T09:23:12.803Z</time></trkpt><trkpt lat="40.210694" lon="9.5484626"><ele>766.0</ele><time>2026-03-28T09:23:13.8Z</time></trkpt><trkpt lat="40.2105476" lon="9.5483549"><ele>766.0</ele><time>2026-03-28T09:23:14.802Z</time></trkpt><trkpt lat="40.2104018" lon="9.5482472"><ele>766.0</ele><time>2026-03-28T09:23:15.802Z</time></trkpt><trkpt lat="40.2102666" lon="9.5481302"><ele>766.0</ele><time>2026-03-28T09:23:16.804Z</time></trkpt><trkpt lat="40.2101448" lon="9.5479846"><ele>757.6666666666667</ele><time>2026-03-28T09:23:17.805Z</time></trkpt><trkpt lat="40.2100341" lon="9.547825"><ele>749.3333333333334</ele><time>2026-03-28T09:23:18.8Z</time></trkpt><trkpt lat="40.209942" lon="9.5476481"><ele>741.0</ele><time>2026-03-28T09:23:19.804Z</time></trkpt><trkpt lat="40.2098274" lon="9.5474906"><ele>753.6666666666667</ele><time>2026-03-28T09:23:20.808Z</time></trkpt><trkpt lat="40.2097033" lon="9.5473518"><ele>766.3333333333334</ele><time>2026-03-28T09:23:21.803Z</time></trkpt><trkpt lat="40.2095773" lon="9.5472085"><ele>779.0</ele><time>2026-03-28T09:23:22.807Z</time></trkpt><trkpt lat="40.2094582" lon="9.5470652"><ele>770.6666666666667</ele><time>2026-03-28T09:23:23.805Z</time></trkpt><trkpt lat="40.2093499" lon="9.5469051"><ele>762.3333333333334</ele><time>2026-03-28T09:23:24.804Z</time></trkpt><trkpt lat="40.2092426" lon="9.5467381"><ele>754.0</ele><time>2026-03-28T09:23:25.808Z</time></trkpt><trkpt lat="40.2091452" lon="9.5465541"><ele>754.0</ele><time>2026-03-28T09:23:26.804Z</time></trkpt><trkpt lat="40.2090487" lon="9.5463756"><ele>754.0</ele><time>2026-03-28T09:23:27.807Z</time></trkpt><trkpt lat="40.2089503" lon="9.5461918"><ele>754.0</ele><time>2026-03-28T09:23:28.811Z</time></trkpt><trkpt lat="40.2088553" lon="9.5460079"><ele>763.6666666666667</ele><time>2026-03-28T09:23:29.801Z</time></trkpt><trkpt lat="40.2087614" lon="9.5458212"><ele>773.3333333333334</ele><time>2026-03-28T09:23:30.797Z</time></trkpt><trkpt lat="40.2086677" lon="9.5456372"><ele>783.0</ele><time>2026-03-28T09:23:31.801Z</time></trkpt><trkpt lat="40.2085797" lon="9.5454637"><ele>776.25</ele><time>2026-03-28T09:23:32.813Z</time></trkpt><trkpt lat="40.2085003" lon="9.5453063"><ele>769.5</ele><time>2026-03-28T09:23:33.801Z</time></trkpt><trkpt lat="40.2084196" lon="9.5451665"><ele>762.75</ele><time>2026-03-28T09:23:34.803Z</time></trkpt><trkpt lat="40.2083286" lon="9.5450495"><ele>756.0</ele><time>2026-03-28T09:23:35.799Z</time></trkpt><trkpt lat="40.2082176" lon="9.5449579"><ele>762.75</ele><time>2026-03-28T09:23:36.799Z</time></trkpt><trkpt lat="40.2080881" lon="9.5448891"><ele>769.5</ele><time>2026-03-28T09:23:37.813Z</time></trkpt><trkpt lat="40.2079515" lon="9.5448306"><ele>776.25</ele><time>2026-03-28T09:23:38.8Z</time></trkpt><trkpt lat="40.2078051" lon="9.5447774"><ele>783.0</ele><time>2026-03-28T09:23:39.808Z</time></trkpt><trkpt lat="40.2076527" lon="9.544729"><ele>783.0</ele><time>2026-03-28T09:23:40.804Z</time></trkpt><trkpt lat="40.2074938" lon="9.5446869"><ele>783.0</ele><time>2026-03-28T09:23:41.804Z</time></trkpt><trkpt lat="40.2073302" lon="9.5446498"><ele>783.0</ele><time>2026-03-28T09:23:42.798Z</time></trkpt><trkpt lat="40.2071625" lon="9.5446068"><ele>788.6666666666667</ele><time>2026-03-28T09:23:43.799Z</time></trkpt><trkpt lat="40.2069938" lon="9.544553"><ele>794.3333333333334</ele><time>2026-03-28T09:23:44.799Z</time></trkpt><trkpt lat="40.2068236" lon="9.5444954"><ele>800.0</ele><time>2026-03-28T09:23:45.806Z</time></trkpt><trkpt lat="40.2066639" lon="9.5444409"><ele>789.6666666666667</ele><time>2026-03-28T09:23:46.81Z</time></trkpt><trkpt lat="40.2064962" lon="9.5443888"><ele>779.3333333333333</ele><time>2026-03-28T09:23:47.799Z</time></trkpt><trkpt lat="40.2063325" lon="9.5443581"><ele>769.0</ele><time>2026-03-28T09:23:48.809Z</time></trkpt><trkpt lat="40.2061682" lon="9.5443489"><ele>769.0</ele><time>2026-03-28T09:23:49.801Z</time></trkpt><trkpt lat="40.2059989" lon="9.544354"><ele>769.0</ele><time>2026-03-28T09:23:50.806Z</time></trkpt><trkpt lat="40.2058298" lon="9.5443693"><ele>769.0</ele><time>2026-03-28T09:23:51.801Z</time></trkpt><trkpt lat="40.2056659" lon="9.5443763"><ele>774.75</ele><time>2026-03-28T09:23:52.799Z</time></trkpt><trkpt lat="40.2055111" lon="9.5443684"><ele>780.5</ele><time>2026-03-28T09:23:53.806Z</time></trkpt><trkpt lat="40.2053632" lon="9.5443524"><ele>786.25</ele><time>2026-03-28T09:23:54.806Z</time></trkpt><trkpt lat="40.205244" lon="9.5442658"><ele>792.0</ele><time>2026-03-28T09:23:55.801Z</time></trkpt><trkpt lat="40.2051542" lon="9.5441551"><ele>792.0</ele><time>2026-03-28T09:23:56.81Z</time></trkpt><trkpt lat="40.2050563" lon="9.5440292"><ele>792.0</ele><time>2026-03-28T09:23:57.802Z</time></trkpt><trkpt lat="40.2049299" lon="9.5439161"><ele>792.0</ele><time>2026-03-28T09:23:58.8Z</time></trkpt><trkpt lat="40.2047873" lon="9.5438442"><ele>792.0</ele><time>2026-03-28T09:23:59.796Z</time></trkpt><trkpt lat="40.2046426" lon="9.5437788"><ele>787.3333333333333</ele><time>2026-03-28T09:24:00.802Z</time></trkpt><trkpt lat="40.2044901" lon="9.5437142"><ele>782.6666666666666</ele><time>2026-03-28T09:24:01.803Z</time></trkpt><trkpt lat="40.2043435" lon="9.5436254"><ele>778.0</ele><time>2026-03-28T09:24:02.806Z</time></trkpt><trkpt lat="40.2042035" lon="9.5434974"><ele>778.0</ele><time>2026-03-28T09:24:03.801Z</time></trkpt><trkpt lat="40.2040595" lon="9.5433941"><ele>778.0</ele><time>2026-03-28T09:24:04.805Z</time></trkpt><trkpt lat="40.2039141" lon="9.5433092"><ele>778.0</ele><time>2026-03-28T09:24:05.8Z</time></trkpt><trkpt lat="40.2037731" lon="9.5432196"><ele>779.6666666666666</ele><time>2026-03-28T09:24:06.809Z</time></trkpt><trkpt lat="40.2036436" lon="9.5431185"><ele>781.3333333333333</ele><time>2026-03-28T09:24:07.796Z</time></trkpt><trkpt lat="40.2035267" lon="9.5429984"><ele>783.0</ele><time>2026-03-28T09:24:08.797Z</time></trkpt><trkpt lat="40.2034163" lon="9.5428642"><ele>783.0</ele><time>2026-03-28T09:24:09.806Z</time></trkpt><trkpt lat="40.2033072" lon="9.5427323"><ele>783.0</ele><time>2026-03-28T09:24:10.802Z</time></trkpt><trkpt lat="40.2031989" lon="9.5425963"><ele>783.0</ele><time>2026-03-28T09:24:11.801Z</time></trkpt><trkpt lat="40.2030934" lon="9.542461"><ele>783.0</ele><time>2026-03-28T09:24:12.804Z</time></trkpt><trkpt lat="40.2029958" lon="9.5423104"><ele>785.75</ele><time>2026-03-28T09:24:13.798Z</time></trkpt><trkpt lat="40.2029151" lon="9.5421527"><ele>788.5</ele><time>2026-03-28T09:24:14.803Z</time></trkpt><trkpt lat="40.2028505" lon="9.5419965"><ele>791.25</ele><time>2026-03-28T09:24:15.803Z</time></trkpt><trkpt lat="40.202786" lon="9.5418624"><ele>794.0</ele><time>2026-03-28T09:24:16.796Z</time></trkpt><trkpt lat="40.202706" lon="9.5417519"><ele>794.0</ele><time>2026-03-28T09:24:17.798Z</time></trkpt><trkpt lat="40.2026076" lon="9.5416734"><ele>794.0</ele><time>2026-03-28T09:24:18.8Z</time></trkpt><trkpt lat="40.2024929" lon="9.5416334"><ele>794.0</ele><time>2026-03-28T09:24:19.796Z</time></trkpt><trkpt lat="40.2023673" lon="9.5416194"><ele>794.0</ele><time>2026-03-28T09:24:20.797Z</time></trkpt><trkpt lat="40.2022316" lon="9.5416147"><ele>799.0</ele><time>2026-03-28T09:24:21.797Z</time></trkpt><trkpt lat="40.2020913" lon="9.5416009"><ele>804.0</ele><time>2026-03-28T09:24:22.796Z</time></trkpt><trkpt lat="40.2019457" lon="9.5415773"><ele>809.0</ele><time>2026-03-28T09:24:23.802Z</time></trkpt><trkpt lat="40.2017993" lon="9.5415498"><ele>814.0</ele><time>2026-03-28T09:24:24.809Z</time></trkpt><trkpt lat="40.2016577" lon="9.5415098"><ele>814.0</ele><time>2026-03-28T09:24:25.803Z</time></trkpt><trkpt lat="40.201535" lon="9.5414372"><ele>814.0</ele><time>2026-03-28T09:24:26.801Z</time></trkpt><trkpt lat="40.2014336" lon="9.5413314"><ele>814.0</ele><time>2026-03-28T09:24:27.802Z</time></trkpt><trkpt lat="40.2013484" lon="9.5412162"><ele>814.0</ele><time>2026-03-28T09:24:28.806Z</time></trkpt><trkpt lat="40.2012978" lon="9.5410592"><ele>812.75</ele><time>2026-03-28T09:24:29.807Z</time></trkpt><trkpt lat="40.2012446" lon="9.5409051"><ele>811.5</ele><time>2026-03-28T09:24:30.802Z</time></trkpt><trkpt lat="40.2011424" lon="9.5407932"><ele>810.25</ele><time>2026-03-28T09:24:31.801Z</time></trkpt><trkpt lat="40.2010306" lon="9.5406992"><ele>809.0</ele><time>2026-03-28T09:24:32.8Z</time></trkpt><trkpt lat="40.20091" lon="9.5406603"><ele>809.0</ele><time>2026-03-28T09:24:33.798Z</time></trkpt><trkpt lat="40.200779" lon="9.5406675"><ele>809.0</ele><time>2026-03-28T09:24:34.804Z</time></trkpt><trkpt lat="40.2006569" lon="9.5407215"><ele>809.0</ele><time>2026-03-28T09:24:35.806Z</time></trkpt><trkpt lat="40.200527" lon="9.5408002"><ele>809.0</ele><time>2026-03-28T09:24:36.803Z</time></trkpt><trkpt lat="40.2004019" lon="9.5408625"><ele>811.25</ele><time>2026-03-28T09:24:37.805Z</time></trkpt><trkpt lat="40.2002745" lon="9.5408807"><ele>813.5</ele><time>2026-03-28T09:24:38.798Z</time></trkpt><trkpt lat="40.2001396" lon="9.5409024"><ele>815.75</ele><time>2026-03-28T09:24:39.803Z</time></trkpt><trkpt lat="40.2000214" lon="9.5408233"><ele>818.0</ele><time>2026-03-28T09:24:40.802Z</time></trkpt><trkpt lat="40.199911" lon="9.5407051"><ele>820.25</ele><time>2026-03-28T09:24:41.809Z</time></trkpt><trkpt lat="40.1998164" lon="9.5405639"><ele>822.5</ele><time>2026-03-28T09:24:42.803Z</time></trkpt><trkpt lat="40.1997028" lon="9.5404755"><ele>824.75</ele><time>2026-03-28T09:24:43.805Z</time></trkpt><trkpt lat="40.1995956" lon="9.5404081"><ele>827.0</ele><time>2026-03-28T09:24:44.804Z</time></trkpt><trkpt lat="40.1995001" lon="9.5403627"><ele>827.0</ele><time>2026-03-28T09:24:45.806Z</time></trkpt><trkpt lat="40.1994225" lon="9.540288"><ele>827.0</ele><time>2026-03-28T09:24:46.807Z</time></trkpt><trkpt lat="40.1993829" lon="9.5401533"><ele>827.0</ele><time>2026-03-28T09:24:47.806Z</time></trkpt><trkpt lat="40.1993972" lon="9.5400115"><ele>827.0</ele><time>2026-03-28T09:24:48.806Z</time></trkpt><trkpt lat="40.1994167" lon="9.539867"><ele>827.0</ele><time>2026-03-28T09:24:49.808Z</time></trkpt><trkpt lat="40.1994156" lon="9.5397154"><ele>827.0</ele><time>2026-03-28T09:24:50.818Z</time></trkpt><trkpt lat="40.1993784" lon="9.5395601"><ele>827.0</ele><time>2026-03-28T09:24:51.803Z</time></trkpt><trkpt lat="40.1993116" lon="9.539422"><ele>827.0</ele><time>2026-03-28T09:24:52.803Z</time></trkpt><trkpt lat="40.1992184" lon="9.5393075"><ele>827.0</ele><time>2026-03-28T09:24:53.796Z</time></trkpt><trkpt lat="40.1991095" lon="9.5392209"><ele>824.5</ele><time>2026-03-28T09:24:54.806Z</time></trkpt><trkpt lat="40.1989889" lon="9.5391741"><ele>822.0</ele><time>2026-03-28T09:24:55.803Z</time></trkpt><trkpt lat="40.198863" lon="9.5391685"><ele>819.5</ele><time>2026-03-28T09:24:56.8Z</time></trkpt><trkpt lat="40.1987387" lon="9.5392021"><ele>817.0</ele><time>2026-03-28T09:24:57.803Z</time></trkpt><trkpt lat="40.1986245" lon="9.5392404"><ele>817.0</ele><time>2026-03-28T09:24:58.798Z</time></trkpt><trkpt lat="40.198523" lon="9.5392938"><ele>817.0</ele><time>2026-03-28T09:24:59.803Z</time></trkpt><trkpt lat="40.1984265" lon="9.5393362"><ele>817.0</ele><time>2026-03-28T09:25:00.801Z</time></trkpt><trkpt lat="40.1983148" lon="9.5393304"><ele>817.0</ele><time>2026-03-28T09:25:01.805Z</time></trkpt><trkpt lat="40.1982302" lon="9.5392209"><ele>817.0</ele><time>2026-03-28T09:25:02.809Z</time></trkpt><trkpt lat="40.1981565" lon="9.5390956"><ele>819.75</ele><time>2026-03-28T09:25:03.804Z</time></trkpt><trkpt lat="40.1980907" lon="9.5389694"><ele>822.5</ele><time>2026-03-28T09:25:04.795Z</time></trkpt><trkpt lat="40.198013" lon="9.5388525"><ele>825.25</ele><time>2026-03-28T09:25:05.804Z</time></trkpt><trkpt lat="40.1979393" lon="9.538736"><ele>828.0</ele><time>2026-03-28T09:25:06.802Z</time></trkpt><trkpt lat="40.1978624" lon="9.5386374"><ele>828.0</ele><time>2026-03-28T09:25:07.801Z</time></trkpt><trkpt lat="40.1977687" lon="9.538569"><ele>828.0</ele><time>2026-03-28T09:25:08.803Z</time></trkpt><trkpt lat="40.1976682" lon="9.538516"><ele>828.0</ele><time>2026-03-28T09:25:09.805Z</time></trkpt><trkpt lat="40.1975786" lon="9.5384577"><ele>828.0</ele><time>2026-03-28T09:25:10.807Z</time></trkpt><trkpt lat="40.1974922" lon="9.5383856"><ele>828.0</ele><time>2026-03-28T09:25:11.803Z</time></trkpt><trkpt lat="40.1974126" lon="9.5383042"><ele>828.0</ele><time>2026-03-28T09:25:12.804Z</time></trkpt><trkpt lat="40.1973696" lon="9.5381712"><ele>828.0</ele><time>2026-03-28T09:25:13.802Z</time></trkpt><trkpt lat="40.1973749" lon="9.5380161"><ele>828.0</ele><time>2026-03-28T09:25:14.796Z</time></trkpt><trkpt lat="40.1973957" lon="9.5378686"><ele>828.0</ele><time>2026-03-28T09:25:15.805Z</time></trkpt><trkpt lat="40.1974062" lon="9.5377225"><ele>826.5</ele><time>2026-03-28T09:25:16.809Z</time></trkpt><trkpt lat="40.1974063" lon="9.537566"><ele>825.0</ele><time>2026-03-28T09:25:17.806Z</time></trkpt><trkpt lat="40.1974015" lon="9.5374016"><ele>823.5</ele><time>2026-03-28T09:25:18.806Z</time></trkpt><trkpt lat="40.1973952" lon="9.5372272"><ele>822.0</ele><time>2026-03-28T09:25:19.804Z</time></trkpt><trkpt lat="40.1973837" lon="9.5370475"><ele>822.0</ele><time>2026-03-28T09:25:20.805Z</time></trkpt><trkpt lat="40.1973727" lon="9.5368617"><ele>822.0</ele><time>2026-03-28T09:25:21.803Z</time></trkpt><trkpt lat="40.1973633" lon="9.5366739"><ele>822.0</ele><time>2026-03-28T09:25:22.806Z</time></trkpt><trkpt lat="40.1973608" lon="9.5364844"><ele>822.0</ele><time>2026-03-28T09:25:23.802Z</time></trkpt><trkpt lat="40.1973562" lon="9.5363202"><ele>822.2</ele><time>2026-03-28T09:25:24.801Z</time></trkpt><trkpt lat="40.1973436" lon="9.5361777"><ele>822.4000000000001</ele><time>2026-03-28T09:25:25.803Z</time></trkpt><trkpt lat="40.1973032" lon="9.5360584"><ele>822.5999999999999</ele><time>2026-03-28T09:25:26.809Z</time></trkpt><trkpt lat="40.1972436" lon="9.53597"><ele>822.8</ele><time>2026-03-28T09:25:27.821Z</time></trkpt><trkpt lat="40.1971612" lon="9.5358923"><ele>823.0</ele><time>2026-03-28T09:25:28.808Z</time></trkpt><trkpt lat="40.1970514" lon="9.5358944"><ele>820.5</ele><time>2026-03-28T09:25:29.817Z</time></trkpt><trkpt lat="40.1969307" lon="9.5359258"><ele>818.0</ele><time>2026-03-28T09:25:30.801Z</time></trkpt><trkpt lat="40.1968014" lon="9.5359757"><ele>815.5</ele><time>2026-03-28T09:25:31.804Z</time></trkpt><trkpt lat="40.1966644" lon="9.536042"><ele>813.0</ele><time>2026-03-28T09:25:32.808Z</time></trkpt><trkpt lat="40.196522" lon="9.5361211"><ele>816.3333333333333</ele><time>2026-03-28T09:25:33.797Z</time></trkpt><trkpt lat="40.1963782" lon="9.5362027"><ele>819.6666666666666</ele><time>2026-03-28T09:25:34.799Z</time></trkpt><trkpt lat="40.1962372" lon="9.5362937"><ele>823.0</ele><time>2026-03-28T09:25:35.8Z</time></trkpt><trkpt lat="40.1961125" lon="9.5363843"><ele>823.0</ele><time>2026-03-28T09:25:36.801Z</time></trkpt><trkpt lat="40.1960009" lon="9.5365079"><ele>823.0</ele><time>2026-03-28T09:25:37.799Z</time></trkpt><trkpt lat="40.1958997" lon="9.5366294"><ele>823.0</ele><time>2026-03-28T09:25:38.8Z</time></trkpt><trkpt lat="40.1958152" lon="9.5367723"><ele>823.0</ele><time>2026-03-28T09:25:39.8Z</time></trkpt><trkpt lat="40.1957347" lon="9.5369157"><ele>827.5</ele><time>2026-03-28T09:25:40.803Z</time></trkpt><trkpt lat="40.1956606" lon="9.5370474"><ele>832.0</ele><time>2026-03-28T09:25:41.801Z</time></trkpt><trkpt lat="40.1955835" lon="9.5371646"><ele>836.5</ele><time>2026-03-28T09:25:42.804Z</time></trkpt><trkpt lat="40.1954955" lon="9.5372621"><ele>841.0</ele><time>2026-03-28T09:25:43.805Z</time></trkpt><trkpt lat="40.1953994" lon="9.5373418"><ele>841.0</ele><time>2026-03-28T09:25:44.803Z</time></trkpt><trkpt lat="40.195307" lon="9.5374123"><ele>841.0</ele><time>2026-03-28T09:25:45.807Z</time></trkpt><trkpt lat="40.1952162" lon="9.5374712"><ele>841.0</ele><time>2026-03-28T09:25:46.802Z</time></trkpt><trkpt lat="40.195118" lon="9.5374849"><ele>841.0</ele><time>2026-03-28T09:25:47.8Z</time></trkpt><trkpt lat="40.1950195" lon="9.537467"><ele>841.0</ele><time>2026-03-28T09:25:48.803Z</time></trkpt><trkpt lat="40.1949401" lon="9.5373664"><ele>841.0</ele><time>2026-03-28T09:25:49.803Z</time></trkpt><trkpt lat="40.1948706" lon="9.5372438"><ele>841.0</ele><time>2026-03-28T09:25:50.798Z</time></trkpt><trkpt lat="40.1947934" lon="9.5371143"><ele>841.0</ele><time>2026-03-28T09:25:51.801Z</time></trkpt><trkpt lat="40.1946764" lon="9.5370426"><ele>841.0</ele><time>2026-03-28T09:25:52.8Z</time></trkpt><trkpt lat="40.1945435" lon="9.5370042"><ele>842.5</ele><time>2026-03-28T09:25:53.803Z</time></trkpt><trkpt lat="40.1943993" lon="9.5369936"><ele>844.0</ele><time>2026-03-28T09:25:54.803Z</time></trkpt><trkpt lat="40.194267" lon="9.5370287"><ele>845.5</ele><time>2026-03-28T09:25:55.807Z</time></trkpt><trkpt lat="40.1941557" lon="9.5371122"><ele>847.0</ele><time>2026-03-28T09:25:56.8Z</time></trkpt><trkpt lat="40.1940613" lon="9.5372191"><ele>848.6</ele><time>2026-03-28T09:25:57.806Z</time></trkpt><trkpt lat="40.193971" lon="9.5373078"><ele>850.2</ele><time>2026-03-28T09:25:58.8Z</time></trkpt><trkpt lat="40.1938728" lon="9.537341"><ele>851.8</ele><time>2026-03-28T09:25:59.814Z</time></trkpt><trkpt lat="40.1937715" lon="9.5373572"><ele>853.4</ele><time>2026-03-28T09:26:00.805Z</time></trkpt><trkpt lat="40.1936742" lon="9.5372728"><ele>855.0</ele><time>2026-03-28T09:26:01.803Z</time></trkpt><trkpt lat="40.1935769" lon="9.537148"><ele>842.0</ele><time>2026-03-28T09:26:02.802Z</time></trkpt><trkpt lat="40.1934683" lon="9.5370144"><ele>829.0</ele><time>2026-03-28T09:26:03.801Z</time></trkpt><trkpt lat="40.1933421" lon="9.5368703"><ele>816.0</ele><time>2026-03-28T09:26:04.801Z</time></trkpt><trkpt lat="40.1932264" lon="9.536732"><ele>826.0</ele><time>2026-03-28T09:26:05.804Z</time></trkpt><trkpt lat="40.1931166" lon="9.5366074"><ele>836.0</ele><time>2026-03-28T09:26:06.798Z</time></trkpt><trkpt lat="40.1930072" lon="9.5364921"><ele>846.0</ele><time>2026-03-28T09:26:07.804Z</time></trkpt><trkpt lat="40.1929111" lon="9.5363859"><ele>856.0</ele><time>2026-03-28T09:26:08.81Z</time></trkpt><trkpt lat="40.1928353" lon="9.5362844"><ele>849.1999999999999</ele><time>2026-03-28T09:26:09.796Z</time></trkpt><trkpt lat="40.1927793" lon="9.5361678"><ele>842.3999999999999</ele><time>2026-03-28T09:26:10.797Z</time></trkpt><trkpt lat="40.192734" lon="9.5360411"><ele>835.6</ele><time>2026-03-28T09:26:11.801Z</time></trkpt><trkpt lat="40.1927259" lon="9.5359025"><ele>828.8</ele><time>2026-03-28T09:26:12.801Z</time></trkpt><trkpt lat="40.1926868" lon="9.5357712"><ele>822.0</ele><time>2026-03-28T09:26:13.8Z</time></trkpt><trkpt lat="40.1926107" lon="9.5356808"><ele>822.0</ele><time>2026-03-28T09:26:14.802Z</time></trkpt><trkpt lat="40.1925119" lon="9.5356318"><ele>822.0</ele><time>2026-03-28T09:26:15.8Z</time></trkpt><trkpt lat="40.1923971" lon="9.535613"><ele>822.0</ele><time>2026-03-28T09:26:16.801Z</time></trkpt><trkpt lat="40.1922658" lon="9.5356225"><ele>822.0</ele><time>2026-03-28T09:26:17.801Z</time></trkpt><trkpt lat="40.1921252" lon="9.5356565"><ele>820.6666666666667</ele><time>2026-03-28T09:26:18.799Z</time></trkpt><trkpt lat="40.1919768" lon="9.5357119"><ele>819.3333333333334</ele><time>2026-03-28T09:26:19.806Z</time></trkpt><trkpt lat="40.1918306" lon="9.5357836"><ele>818.0</ele><time>2026-03-28T09:26:20.801Z</time></trkpt><trkpt lat="40.1916951" lon="9.5358551"><ele>818.0</ele><time>2026-03-28T09:26:21.799Z</time></trkpt><trkpt lat="40.1915691" lon="9.5359201"><ele>818.0</ele><time>2026-03-28T09:26:22.807Z</time></trkpt><trkpt lat="40.191454" lon="9.5359783"><ele>818.0</ele><time>2026-03-28T09:26:23.804Z</time></trkpt><trkpt lat="40.1913474" lon="9.5360379"><ele>818.0</ele><time>2026-03-28T09:26:24.808Z</time></trkpt><trkpt lat="40.191238" lon="9.5361021"><ele>811.75</ele><time>2026-03-28T09:26:25.806Z</time></trkpt><trkpt lat="40.1911258" lon="9.5361717"><ele>805.5</ele><time>2026-03-28T09:26:26.806Z</time></trkpt><trkpt lat="40.1910184" lon="9.5362485"><ele>799.25</ele><time>2026-03-28T09:26:27.806Z</time></trkpt><trkpt lat="40.1909199" lon="9.5363381"><ele>793.0</ele><time>2026-03-28T09:26:28.798Z</time></trkpt><trkpt lat="40.1908218" lon="9.536419"><ele>805.0</ele><time>2026-03-28T09:26:29.799Z</time></trkpt><trkpt lat="40.1907168" lon="9.5364661"><ele>817.0</ele><time>2026-03-28T09:26:30.81Z</time></trkpt><trkpt lat="40.1905954" lon="9.5364753"><ele>829.0</ele><time>2026-03-28T09:26:31.803Z</time></trkpt><trkpt lat="40.1904759" lon="9.5364908"><ele>841.0</ele><time>2026-03-28T09:26:32.809Z</time></trkpt><trkpt lat="40.1903684" lon="9.5365332"><ele>841.0</ele><time>2026-03-28T09:26:33.801Z</time></trkpt><trkpt lat="40.1902675" lon="9.536572"><ele>841.0</ele><time>2026-03-28T09:26:34.812Z</time></trkpt><trkpt lat="40.1901809" lon="9.5366138"><ele>841.0</ele><time>2026-03-28T09:26:35.799Z</time></trkpt><trkpt lat="40.1900986" lon="9.536565"><ele>841.0</ele><time>2026-03-28T09:26:36.806Z</time></trkpt><trkpt lat="40.1900247" lon="9.5364691"><ele>841.0</ele><time>2026-03-28T09:26:37.796Z</time></trkpt><trkpt lat="40.1899637" lon="9.5363428"><ele>838.0</ele><time>2026-03-28T09:26:38.803Z</time></trkpt><trkpt lat="40.1899064" lon="9.5362076"><ele>835.0</ele><time>2026-03-28T09:26:39.802Z</time></trkpt><trkpt lat="40.1898418" lon="9.5360674"><ele>832.0</ele><time>2026-03-28T09:26:40.8Z</time></trkpt><trkpt lat="40.1897551" lon="9.5359586"><ele>829.0</ele><time>2026-03-28T09:26:41.8Z</time></trkpt><trkpt lat="40.1896648" lon="9.535854"><ele>829.0</ele><time>2026-03-28T09:26:42.801Z</time></trkpt><trkpt lat="40.1895398" lon="9.5357907"><ele>829.0</ele><time>2026-03-28T09:26:43.808Z</time></trkpt><trkpt lat="40.1894045" lon="9.5357195"><ele>829.0</ele><time>2026-03-28T09:26:44.802Z</time></trkpt><trkpt lat="40.1892677" lon="9.5356451"><ele>829.0</ele><time>2026-03-28T09:26:45.804Z</time></trkpt><trkpt lat="40.1891378" lon="9.535588"><ele>828.0</ele><time>2026-03-28T09:26:46.803Z</time></trkpt><trkpt lat="40.1890063" lon="9.5355698"><ele>827.0</ele><time>2026-03-28T09:26:47.802Z</time></trkpt><trkpt lat="40.1888643" lon="9.5355706"><ele>826.0</ele><time>2026-03-28T09:26:48.801Z</time></trkpt><trkpt lat="40.188724" lon="9.5356293"><ele>825.0</ele><time>2026-03-28T09:26:49.802Z</time></trkpt><trkpt lat="40.1886011" lon="9.5357037"><ele>825.0</ele><time>2026-03-28T09:26:50.817Z</time></trkpt><trkpt lat="40.188486" lon="9.535796"><ele>825.0</ele><time>2026-03-28T09:26:51.797Z</time></trkpt><trkpt lat="40.1883897" lon="9.5358915"><ele>825.0</ele><time>2026-03-28T09:26:52.798Z</time></trkpt><trkpt lat="40.1883022" lon="9.5359717"><ele>825.0</ele><time>2026-03-28T09:26:53.8Z</time></trkpt><trkpt lat="40.1882218" lon="9.5360429"><ele>826.2</ele><time>2026-03-28T09:26:54.799Z</time></trkpt><trkpt lat="40.1881326" lon="9.5360757"><ele>827.4</ele><time>2026-03-28T09:26:55.8Z</time></trkpt><trkpt lat="40.188031" lon="9.5360748"><ele>828.5999999999999</ele><time>2026-03-28T09:26:56.807Z</time></trkpt><trkpt lat="40.1879343" lon="9.5360516"><ele>829.8</ele><time>2026-03-28T09:26:57.807Z</time></trkpt><trkpt lat="40.1878396" lon="9.5359811"><ele>831.0</ele><time>2026-03-28T09:26:58.798Z</time></trkpt><trkpt lat="40.1877352" lon="9.5359082"><ele>831.0</ele><time>2026-03-28T09:26:59.809Z</time></trkpt><trkpt lat="40.1876318" lon="9.5358154"><ele>831.0</ele><time>2026-03-28T09:27:00.803Z</time></trkpt><trkpt lat="40.1875362" lon="9.5357062"><ele>831.0</ele><time>2026-03-28T09:27:01.804Z</time></trkpt><trkpt lat="40.1874404" lon="9.5356053"><ele>831.0</ele><time>2026-03-28T09:27:02.803Z</time></trkpt><trkpt lat="40.1873312" lon="9.5355355"><ele>830.5</ele><time>2026-03-28T09:27:03.808Z</time></trkpt><trkpt lat="40.1872213" lon="9.5355203"><ele>830.0</ele><time>2026-03-28T09:27:04.801Z</time></trkpt><trkpt lat="40.1871108" lon="9.5355534"><ele>829.5</ele><time>2026-03-28T09:27:05.804Z</time></trkpt><trkpt lat="40.1870027" lon="9.5356228"><ele>829.0</ele><time>2026-03-28T09:27:06.805Z</time></trkpt><trkpt lat="40.1868941" lon="9.5357068"><ele>829.0</ele><time>2026-03-28T09:27:07.804Z</time></trkpt><trkpt lat="40.1867774" lon="9.5357981"><ele>829.0</ele><time>2026-03-28T09:27:08.803Z</time></trkpt><trkpt lat="40.1866614" lon="9.5359043"><ele>829.0</ele><time>2026-03-28T09:27:09.798Z</time></trkpt><trkpt lat="40.1865516" lon="9.5360232"><ele>829.0</ele><time>2026-03-28T09:27:10.803Z</time></trkpt><trkpt lat="40.186453" lon="9.536137"><ele>831.6</ele><time>2026-03-28T09:27:11.802Z</time></trkpt><trkpt lat="40.1863545" lon="9.5362276"><ele>834.2</ele><time>2026-03-28T09:27:12.804Z</time></trkpt><trkpt lat="40.1862493" lon="9.5362814"><ele>836.8000000000001</ele><time>2026-03-28T09:27:13.804Z</time></trkpt><trkpt lat="40.1861474" lon="9.5363207"><ele>839.4000000000001</ele><time>2026-03-28T09:27:14.801Z</time></trkpt><trkpt lat="40.1860446" lon="9.536294"><ele>842.0</ele><time>2026-03-28T09:27:15.805Z</time></trkpt><trkpt lat="40.1859662" lon="9.536188"><ele>842.0</ele><time>2026-03-28T09:27:16.809Z</time></trkpt><trkpt lat="40.1858812" lon="9.5360747"><ele>842.0</ele><time>2026-03-28T09:27:17.806Z</time></trkpt><trkpt lat="40.1857864" lon="9.5359758"><ele>842.0</ele><time>2026-03-28T09:27:18.8Z</time></trkpt><trkpt lat="40.1856951" lon="9.5358823"><ele>842.0</ele><time>2026-03-28T09:27:19.799Z</time></trkpt><trkpt lat="40.1856305" lon="9.5357613"><ele>848.25</ele><time>2026-03-28T09:27:20.798Z</time></trkpt><trkpt lat="40.1856228" lon="9.5355679"><ele>854.5</ele><time>2026-03-28T09:27:21.801Z</time></trkpt><trkpt lat="40.1856292" lon="9.5353961"><ele>860.75</ele><time>2026-03-28T09:27:22.801Z</time></trkpt><trkpt lat="40.1856269" lon="9.5352153"><ele>867.0</ele><time>2026-03-28T09:27:23.808Z</time></trkpt><trkpt lat="40.1856053" lon="9.5350228"><ele>867.0</ele><time>2026-03-28T09:27:24.802Z</time></trkpt><trkpt lat="40.1855611" lon="9.5348377"><ele>867.0</ele><time>2026-03-28T09:27:25.806Z</time></trkpt><trkpt lat="40.18552" lon="9.5346721"><ele>867.0</ele><time>2026-03-28T09:27:26.804Z</time></trkpt><trkpt lat="40.1854774" lon="9.5345297"><ele>867.0</ele><time>2026-03-28T09:27:27.8Z</time></trkpt><trkpt lat="40.1854169" lon="9.5344176"><ele>861.2</ele><time>2026-03-28T09:27:28.801Z</time></trkpt><trkpt lat="40.1853352" lon="9.5343416"><ele>855.4000000000001</ele><time>2026-03-28T09:27:29.805Z</time></trkpt><trkpt lat="40.1852312" lon="9.5343048"><ele>849.5999999999999</ele><time>2026-03-28T09:27:30.801Z</time></trkpt><trkpt lat="40.1851153" lon="9.5343012"><ele>843.8</ele><time>2026-03-28T09:27:31.805Z</time></trkpt><trkpt lat="40.184994" lon="9.5343163"><ele>838.0</ele><time>2026-03-28T09:27:32.806Z</time></trkpt><trkpt lat="40.1848793" lon="9.5343419"><ele>843.8</ele><time>2026-03-28T09:27:33.797Z</time></trkpt><trkpt lat="40.1847764" lon="9.5343662"><ele>849.5999999999999</ele><time>2026-03-28T09:27:34.799Z</time></trkpt><trkpt lat="40.1846867" lon="9.5343699"><ele>855.4000000000001</ele><time>2026-03-28T09:27:35.8Z</time></trkpt><trkpt lat="40.1846002" lon="9.5343328"><ele>861.2</ele><time>2026-03-28T09:27:36.803Z</time></trkpt><trkpt lat="40.1845335" lon="9.5342497"><ele>867.0</ele><time>2026-03-28T09:27:37.806Z</time></trkpt><trkpt lat="40.1844714" lon="9.5341514"><ele>867.0</ele><time>2026-03-28T09:27:38.803Z</time></trkpt><trkpt lat="40.1844481" lon="9.5340035"><ele>867.0</ele><time>2026-03-28T09:27:39.808Z</time></trkpt><trkpt lat="40.1844034" lon="9.5338545"><ele>867.0</ele><time>2026-03-28T09:27:40.802Z</time></trkpt><trkpt lat="40.1843285" lon="9.5337127"><ele>867.0</ele><time>2026-03-28T09:27:41.808Z</time></trkpt><trkpt lat="40.1842283" lon="9.5336013"><ele>863.75</ele><time>2026-03-28T09:27:42.803Z</time></trkpt><trkpt lat="40.1841059" lon="9.5335065"><ele>860.5</ele><time>2026-03-28T09:27:43.809Z</time></trkpt><trkpt lat="40.1839741" lon="9.5334398"><ele>857.25</ele><time>2026-03-28T09:27:44.81Z</time></trkpt><trkpt lat="40.1838362" lon="9.5333823"><ele>854.0</ele><time>2026-03-28T09:27:45.809Z</time></trkpt><trkpt lat="40.1836914" lon="9.5333122"><ele>854.0</ele><time>2026-03-28T09:27:46.802Z</time></trkpt><trkpt lat="40.1835372" lon="9.5332732"><ele>854.0</ele><time>2026-03-28T09:27:47.806Z</time></trkpt><trkpt lat="40.1833785" lon="9.5332471"><ele>854.0</ele><time>2026-03-28T09:27:48.808Z</time></trkpt><trkpt lat="40.1832228" lon="9.5332283"><ele>859.0</ele><time>2026-03-28T09:27:49.809Z</time></trkpt><trkpt lat="40.1830648" lon="9.5332118"><ele>864.0</ele><time>2026-03-28T09:27:50.804Z</time></trkpt><trkpt lat="40.182907" lon="9.5331939"><ele>869.0</ele><time>2026-03-28T09:27:51.818Z</time></trkpt><trkpt lat="40.1827577" lon="9.5331739"><ele>869.0</ele><time>2026-03-28T09:27:52.802Z</time></trkpt><trkpt lat="40.1826211" lon="9.5331446"><ele>869.0</ele><time>2026-03-28T09:27:53.8Z</time></trkpt><trkpt lat="40.1824993" lon="9.533105"><ele>869.0</ele><time>2026-03-28T09:27:54.801Z</time></trkpt><trkpt lat="40.1823816" lon="9.5330646"><ele>869.0</ele><time>2026-03-28T09:27:55.809Z</time></trkpt><trkpt lat="40.1822738" lon="9.5330093"><ele>870.75</ele><time>2026-03-28T09:27:56.803Z</time></trkpt><trkpt lat="40.1821655" lon="9.5329571"><ele>872.5</ele><time>2026-03-28T09:27:57.807Z</time></trkpt><trkpt lat="40.1820557" lon="9.5329048"><ele>874.25</ele><time>2026-03-28T09:27:58.804Z</time></trkpt><trkpt lat="40.181942" lon="9.5328563"><ele>876.0</ele><time>2026-03-28T09:27:59.807Z</time></trkpt><trkpt lat="40.1818165" lon="9.5328165"><ele>878.25</ele><time>2026-03-28T09:28:00.81Z</time></trkpt><trkpt lat="40.1816876" lon="9.5328123"><ele>880.5</ele><time>2026-03-28T09:28:01.811Z</time></trkpt><trkpt lat="40.1815585" lon="9.5328497"><ele>882.75</ele><time>2026-03-28T09:28:02.797Z</time></trkpt><trkpt lat="40.1814314" lon="9.5329109"><ele>885.0</ele><time>2026-03-28T09:28:03.799Z</time></trkpt><trkpt lat="40.181306" lon="9.5329758"><ele>885.0</ele><time>2026-03-28T09:28:04.808Z</time></trkpt><trkpt lat="40.1811858" lon="9.533003"><ele>885.0</ele><time>2026-03-28T09:28:05.799Z</time></trkpt><trkpt lat="40.1810524" lon="9.5329699"><ele>885.0</ele><time>2026-03-28T09:28:06.799Z</time></trkpt><trkpt lat="40.1809243" lon="9.5329372"><ele>885.0</ele><time>2026-03-28T09:28:07.797Z</time></trkpt><trkpt lat="40.180788" lon="9.5328816"><ele>874.75</ele><time>2026-03-28T09:28:08.806Z</time></trkpt><trkpt lat="40.1806632" lon="9.5328318"><ele>864.5</ele><time>2026-03-28T09:28:09.802Z</time></trkpt><trkpt lat="40.1805409" lon="9.5327918"><ele>854.25</ele><time>2026-03-28T09:28:10.805Z</time></trkpt><trkpt lat="40.1804259" lon="9.5327658"><ele>844.0</ele><time>2026-03-28T09:28:11.8Z</time></trkpt><trkpt lat="40.1803111" lon="9.5327604"><ele>844.0</ele><time>2026-03-28T09:28:12.805Z</time></trkpt><trkpt lat="40.1801911" lon="9.532759"><ele>844.0</ele><time>2026-03-28T09:28:13.798Z</time></trkpt><trkpt lat="40.1800648" lon="9.53278"><ele>844.0</ele><time>2026-03-28T09:28:14.805Z</time></trkpt><trkpt lat="40.1799428" lon="9.5327944"><ele>844.0</ele><time>2026-03-28T09:28:15.804Z</time></trkpt><trkpt lat="40.1798118" lon="9.5328021"><ele>849.0</ele><time>2026-03-28T09:28:16.797Z</time></trkpt><trkpt lat="40.1796796" lon="9.5327959"><ele>854.0</ele><time>2026-03-28T09:28:17.8Z</time></trkpt><trkpt lat="40.1795452" lon="9.5328013"><ele>859.0</ele><time>2026-03-28T09:28:18.806Z</time></trkpt><trkpt lat="40.1794349" lon="9.5327713"><ele>864.0</ele><time>2026-03-28T09:28:19.804Z</time></trkpt><trkpt lat="40.179325" lon="9.5327379"><ele>864.0</ele><time>2026-03-28T09:28:20.798Z</time></trkpt><trkpt lat="40.1792223" lon="9.5326901"><ele>864.0000000000001</ele><time>2026-03-28T09:28:21.808Z</time></trkpt><trkpt lat="40.1791352" lon="9.5326225"><ele>864.0000000000001</ele><time>2026-03-28T09:28:22.804Z</time></trkpt><trkpt lat="40.1790592" lon="9.5325314"><ele>864.0</ele><time>2026-03-28T09:28:23.802Z</time></trkpt><trkpt lat="40.179024" lon="9.5324027"><ele>864.0</ele><time>2026-03-28T09:28:24.806Z</time></trkpt><trkpt lat="40.1790145" lon="9.5322662"><ele>864.0</ele><time>2026-03-28T09:28:25.804Z</time></trkpt><trkpt lat="40.1790326" lon="9.5321262"><ele>864.0</ele><time>2026-03-28T09:28:26.804Z</time></trkpt><trkpt lat="40.1790535" lon="9.5319841"><ele>864.0</ele><time>2026-03-28T09:28:27.8Z</time></trkpt><trkpt lat="40.1790527" lon="9.5318268"><ele>864.0</ele><time>2026-03-28T09:28:28.807Z</time></trkpt><trkpt lat="40.1790313" lon="9.5316615"><ele>864.75</ele><time>2026-03-28T09:28:29.8Z</time></trkpt><trkpt lat="40.1790226" lon="9.5314755"><ele>865.5</ele><time>2026-03-28T09:28:30.8Z</time></trkpt><trkpt lat="40.1790409" lon="9.5313056"><ele>866.25</ele><time>2026-03-28T09:28:31.799Z</time></trkpt><trkpt lat="40.179073" lon="9.5311245"><ele>867.0</ele><time>2026-03-28T09:28:32.806Z</time></trkpt><trkpt lat="40.1791133" lon="9.5309365"><ele>867.0</ele><time>2026-03-28T09:28:33.803Z</time></trkpt><trkpt lat="40.1791602" lon="9.5307535"><ele>867.0</ele><time>2026-03-28T09:28:34.804Z</time></trkpt><trkpt lat="40.1792163" lon="9.5305861"><ele>867.0</ele><time>2026-03-28T09:28:35.797Z</time></trkpt><trkpt lat="40.1792629" lon="9.530429"><ele>867.0</ele><time>2026-03-28T09:28:36.8Z</time></trkpt><trkpt lat="40.1792862" lon="9.5302805"><ele>867.25</ele><time>2026-03-28T09:28:37.8Z</time></trkpt><trkpt lat="40.1792782" lon="9.5301379"><ele>867.5</ele><time>2026-03-28T09:28:38.808Z</time></trkpt><trkpt lat="40.1792371" lon="9.5299995"><ele>867.75</ele><time>2026-03-28T09:28:39.807Z</time></trkpt><trkpt lat="40.1791755" lon="9.5298637"><ele>868.0</ele><time>2026-03-28T09:28:40.809Z</time></trkpt><trkpt lat="40.1791069" lon="9.529724"><ele>868.0</ele><time>2026-03-28T09:28:41.801Z</time></trkpt><trkpt lat="40.1790467" lon="9.5295712"><ele>868.0</ele><time>2026-03-28T09:28:42.808Z</time></trkpt><trkpt lat="40.1789913" lon="9.529421"><ele>868.0</ele><time>2026-03-28T09:28:43.804Z</time></trkpt><trkpt lat="40.17894" lon="9.5292726"><ele>868.0</ele><time>2026-03-28T09:28:44.811Z</time></trkpt><trkpt lat="40.1788467" lon="9.5291683"><ele>870.75</ele><time>2026-03-28T09:28:45.809Z</time></trkpt><trkpt lat="40.1787364" lon="9.5290943"><ele>873.5</ele><time>2026-03-28T09:28:46.805Z</time></trkpt><trkpt lat="40.1786174" lon="9.5290383"><ele>876.25</ele><time>2026-03-28T09:28:47.805Z</time></trkpt><trkpt lat="40.1784822" lon="9.529018"><ele>879.0</ele><time>2026-03-28T09:28:48.8Z</time></trkpt><trkpt lat="40.1783431" lon="9.5290001"><ele>879.0</ele><time>2026-03-28T09:28:49.808Z</time></trkpt><trkpt lat="40.1782169" lon="9.528907"><ele>879.0</ele><time>2026-03-28T09:28:50.805Z</time></trkpt><trkpt lat="40.1780972" lon="9.5287927"><ele>879.0</ele><time>2026-03-28T09:28:51.807Z</time></trkpt><trkpt lat="40.1779725" lon="9.5286723"><ele>879.0</ele><time>2026-03-28T09:28:52.806Z</time></trkpt><trkpt lat="40.1778576" lon="9.5285359"><ele>881.0</ele><time>2026-03-28T09:28:53.809Z</time></trkpt><trkpt lat="40.1777502" lon="9.5283803"><ele>883.0</ele><time>2026-03-28T09:28:54.802Z</time></trkpt><trkpt lat="40.1776444" lon="9.528218"><ele>885.0</ele><time>2026-03-28T09:28:55.799Z</time></trkpt><trkpt lat="40.1775447" lon="9.5280486"><ele>885.0</ele><time>2026-03-28T09:28:56.8Z</time></trkpt><trkpt lat="40.1774479" lon="9.5278972"><ele>885.0</ele><time>2026-03-28T09:28:57.806Z</time></trkpt><trkpt lat="40.1773522" lon="9.5277499"><ele>885.0</ele><time>2026-03-28T09:28:58.801Z</time></trkpt><trkpt lat="40.1772593" lon="9.5276054"><ele>885.0</ele><time>2026-03-28T09:28:59.802Z</time></trkpt><trkpt lat="40.1771493" lon="9.5274944"><ele>887.75</ele><time>2026-03-28T09:29:00.8Z</time></trkpt><trkpt lat="40.1770268" lon="9.5273968"><ele>890.5</ele><time>2026-03-28T09:29:01.806Z</time></trkpt><trkpt lat="40.1769081" lon="9.5273145"><ele>893.25</ele><time>2026-03-28T09:29:02.802Z</time></trkpt><trkpt lat="40.1767985" lon="9.5272342"><ele>896.0</ele><time>2026-03-28T09:29:03.804Z</time></trkpt><trkpt lat="40.1766931" lon="9.5271626"><ele>896.0</ele><time>2026-03-28T09:29:04.804Z</time></trkpt><trkpt lat="40.1765812" lon="9.5271044"><ele>896.0</ele><time>2026-03-28T09:29:05.803Z</time></trkpt><trkpt lat="40.176466" lon="9.5270569"><ele>896.0</ele><time>2026-03-28T09:29:06.8Z</time></trkpt><trkpt lat="40.1763513" lon="9.5270231"><ele>896.0</ele><time>2026-03-28T09:29:07.806Z</time></trkpt><trkpt lat="40.1762372" lon="9.5270114"><ele>898.75</ele><time>2026-03-28T09:29:08.817Z</time></trkpt><trkpt lat="40.1761245" lon="9.5270327"><ele>901.5</ele><time>2026-03-28T09:29:09.804Z</time></trkpt><trkpt lat="40.1760175" lon="9.5270867"><ele>904.25</ele><time>2026-03-28T09:29:10.802Z</time></trkpt><trkpt lat="40.175912" lon="9.5271579"><ele>907.0</ele><time>2026-03-28T09:29:11.801Z</time></trkpt><trkpt lat="40.1758022" lon="9.5272245"><ele>907.75</ele><time>2026-03-28T09:29:12.802Z</time></trkpt><trkpt lat="40.1756838" lon="9.5272689"><ele>908.5</ele><time>2026-03-28T09:29:13.803Z</time></trkpt><trkpt lat="40.1755599" lon="9.5272632"><ele>909.25</ele><time>2026-03-28T09:29:14.801Z</time></trkpt><trkpt lat="40.1754361" lon="9.5272292"><ele>910.0</ele><time>2026-03-28T09:29:15.802Z</time></trkpt><trkpt lat="40.1753096" lon="9.5272132"><ele>910.0</ele><time>2026-03-28T09:29:16.802Z</time></trkpt><trkpt lat="40.1751804" lon="9.5272131"><ele>910.0</ele><time>2026-03-28T09:29:17.802Z</time></trkpt><trkpt lat="40.1750479" lon="9.5272001"><ele>910.0</ele><time>2026-03-28T09:29:18.804Z</time></trkpt><trkpt lat="40.1749136" lon="9.5271708"><ele>910.0</ele><time>2026-03-28T09:29:19.804Z</time></trkpt><trkpt lat="40.1747764" lon="9.5271354"><ele>911.5</ele><time>2026-03-28T09:29:20.805Z</time></trkpt><trkpt lat="40.1746344" lon="9.5270984"><ele>913.0</ele><time>2026-03-28T09:29:21.81Z</time></trkpt><trkpt lat="40.1744882" lon="9.5270621"><ele>914.5</ele><time>2026-03-28T09:29:22.807Z</time></trkpt><trkpt lat="40.1743388" lon="9.5270236"><ele>916.0</ele><time>2026-03-28T09:29:23.807Z</time></trkpt><trkpt lat="40.1741866" lon="9.5269851"><ele>907.6666666666666</ele><time>2026-03-28T09:29:24.805Z</time></trkpt><trkpt lat="40.1740323" lon="9.5269464"><ele>899.3333333333333</ele><time>2026-03-28T09:29:25.811Z</time></trkpt><trkpt lat="40.1738769" lon="9.5269064"><ele>891.0</ele><time>2026-03-28T09:29:26.806Z</time></trkpt><trkpt lat="40.1737234" lon="9.5268662"><ele>891.0</ele><time>2026-03-28T09:29:27.806Z</time></trkpt><trkpt lat="40.1735767" lon="9.5268302"><ele>891.0</ele><time>2026-03-28T09:29:28.812Z</time></trkpt><trkpt lat="40.1734333" lon="9.5268093"><ele>891.0</ele><time>2026-03-28T09:29:29.806Z</time></trkpt><trkpt lat="40.173293" lon="9.5268075"><ele>891.0</ele><time>2026-03-28T09:29:30.8Z</time></trkpt><trkpt lat="40.1731545" lon="9.5268227"><ele>894.5</ele><time>2026-03-28T09:29:31.803Z</time></trkpt><trkpt lat="40.1730173" lon="9.5268476"><ele>898.0</ele><time>2026-03-28T09:29:32.807Z</time></trkpt><trkpt lat="40.1728807" lon="9.5268733"><ele>901.5</ele><time>2026-03-28T09:29:33.815Z</time></trkpt><trkpt lat="40.1727424" lon="9.5269025"><ele>905.0</ele><time>2026-03-28T09:29:34.808Z</time></trkpt><trkpt lat="40.1726029" lon="9.5269327"><ele>905.0</ele><time>2026-03-28T09:29:35.808Z</time></trkpt><trkpt lat="40.1724612" lon="9.5269627"><ele>905.0</ele><time>2026-03-28T09:29:36.812Z</time></trkpt><trkpt lat="40.172318" lon="9.5269943"><ele>905.0</ele><time>2026-03-28T09:29:37.803Z</time></trkpt><trkpt lat="40.1721769" lon="9.5270261"><ele>905.0</ele><time>2026-03-28T09:29:38.808Z</time></trkpt><trkpt lat="40.1720376" lon="9.5270568"><ele>904.75</ele><time>2026-03-28T09:29:39.807Z</time></trkpt><trkpt lat="40.171897" lon="9.5270825"><ele>904.5</ele><time>2026-03-28T09:29:40.804Z</time></trkpt><trkpt lat="40.1717518" lon="9.5270955"><ele>904.25</ele><time>2026-03-28T09:29:41.803Z</time></trkpt><trkpt lat="40.171604" lon="9.5270909"><ele>904.0</ele><time>2026-03-28T09:29:42.807Z</time></trkpt><trkpt lat="40.1714579" lon="9.527065"><ele>907.0</ele><time>2026-03-28T09:29:43.808Z</time></trkpt><trkpt lat="40.1713082" lon="9.5270379"><ele>910.0</ele><time>2026-03-28T09:29:44.807Z</time></trkpt><trkpt lat="40.1711556" lon="9.5269893"><ele>913.0</ele><time>2026-03-28T09:29:45.804Z</time></trkpt><trkpt lat="40.1710112" lon="9.5269377"><ele>913.0</ele><time>2026-03-28T09:29:46.803Z</time></trkpt><trkpt lat="40.1708703" lon="9.5268694"><ele>913.0</ele><time>2026-03-28T09:29:47.797Z</time></trkpt><trkpt lat="40.1707446" lon="9.5267909"><ele>913.0</ele><time>2026-03-28T09:29:48.8Z</time></trkpt><trkpt lat="40.1706322" lon="9.5266933"><ele>913.0</ele><time>2026-03-28T09:29:49.796Z</time></trkpt><trkpt lat="40.1705332" lon="9.5265691"><ele>913.0</ele><time>2026-03-28T09:29:50.798Z</time></trkpt><trkpt lat="40.1704517" lon="9.5264229"><ele>913.0</ele><time>2026-03-28T09:29:51.801Z</time></trkpt><trkpt lat="40.170381" lon="9.5262599"><ele>913.0</ele><time>2026-03-28T09:29:52.803Z</time></trkpt><trkpt lat="40.1703209" lon="9.5261002"><ele>913.0</ele><time>2026-03-28T09:29:53.804Z</time></trkpt><trkpt lat="40.1702573" lon="9.5259555"><ele>913.0</ele><time>2026-03-28T09:29:54.803Z</time></trkpt><trkpt lat="40.170192" lon="9.5258256"><ele>913.0</ele><time>2026-03-28T09:29:55.798Z</time></trkpt><trkpt lat="40.170094" lon="9.5257521"><ele>913.0</ele><time>2026-03-28T09:29:56.806Z</time></trkpt><trkpt lat="40.169988" lon="9.5257405"><ele>913.0</ele><time>2026-03-28T09:29:57.802Z</time></trkpt><trkpt lat="40.1698894" lon="9.5257934"><ele>913.0</ele><time>2026-03-28T09:29:58.803Z</time></trkpt><trkpt lat="40.1697878" lon="9.5258672"><ele>915.75</ele><time>2026-03-28T09:29:59.805Z</time></trkpt><trkpt lat="40.1697279" lon="9.5260057"><ele>918.5</ele><time>2026-03-28T09:30:00.806Z</time></trkpt><trkpt lat="40.1696806" lon="9.5261617"><ele>921.25</ele><time>2026-03-28T09:30:01.801Z</time></trkpt><trkpt lat="40.1696239" lon="9.5263169"><ele>924.0</ele><time>2026-03-28T09:30:02.799Z</time></trkpt><trkpt lat="40.1695637" lon="9.5264696"><ele>924.0</ele><time>2026-03-28T09:30:03.806Z</time></trkpt><trkpt lat="40.1694707" lon="9.5265992"><ele>924.0</ele><time>2026-03-28T09:30:04.8Z</time></trkpt><trkpt lat="40.1693767" lon="9.5267296"><ele>924.0</ele><time>2026-03-28T09:30:05.8Z</time></trkpt><trkpt lat="40.1692525" lon="9.5268449"><ele>924.0</ele><time>2026-03-28T09:30:06.805Z</time></trkpt><trkpt lat="40.1691244" lon="9.5269562"><ele>925.0</ele><time>2026-03-28T09:30:07.802Z</time></trkpt><trkpt lat="40.1689962" lon="9.527071"><ele>926.0</ele><time>2026-03-28T09:30:08.807Z</time></trkpt><trkpt lat="40.1688629" lon="9.5271876"><ele>927.0</ele><time>2026-03-28T09:30:09.804Z</time></trkpt><trkpt lat="40.1687261" lon="9.5273069"><ele>927.0</ele><time>2026-03-28T09:30:10.801Z</time></trkpt><trkpt lat="40.1685872" lon="9.5274285"><ele>927.0</ele><time>2026-03-28T09:30:11.801Z</time></trkpt><trkpt lat="40.1684465" lon="9.5275524"><ele>927.0</ele><time>2026-03-28T09:30:12.8Z</time></trkpt><trkpt lat="40.1683006" lon="9.5276727"><ele>927.3333333333333</ele><time>2026-03-28T09:30:13.806Z</time></trkpt><trkpt lat="40.1681516" lon="9.5277884"><ele>927.6666666666666</ele><time>2026-03-28T09:30:14.801Z</time></trkpt><trkpt lat="40.1679978" lon="9.5278898"><ele>928.0</ele><time>2026-03-28T09:30:15.802Z</time></trkpt><trkpt lat="40.1678405" lon="9.5279761"><ele>928.0</ele><time>2026-03-28T09:30:16.803Z</time></trkpt><trkpt lat="40.1676812" lon="9.528053"><ele>928.0</ele><time>2026-03-28T09:30:17.808Z</time></trkpt><trkpt lat="40.1675227" lon="9.5281268"><ele>928.0</ele><time>2026-03-28T09:30:18.799Z</time></trkpt><trkpt lat="40.1673633" lon="9.5282008"><ele>930.3333333333333</ele><time>2026-03-28T09:30:19.8Z</time></trkpt><trkpt lat="40.1672019" lon="9.5282704"><ele>932.6666666666667</ele><time>2026-03-28T09:30:20.801Z</time></trkpt><trkpt lat="40.1670398" lon="9.5283269"><ele>935.0</ele><time>2026-03-28T09:30:21.806Z</time></trkpt><trkpt lat="40.1668765" lon="9.528366"><ele>935.0</ele><time>2026-03-28T09:30:22.8Z</time></trkpt><trkpt lat="40.166729" lon="9.528396"><ele>935.0</ele><time>2026-03-28T09:30:23.803Z</time></trkpt><trkpt lat="40.1666033" lon="9.5283905"><ele>935.0</ele><time>2026-03-28T09:30:24.803Z</time></trkpt><trkpt lat="40.1665014" lon="9.5283861"><ele>935.0</ele><time>2026-03-28T09:30:25.802Z</time></trkpt><trkpt lat="40.1664197" lon="9.5283848"><ele>935.8</ele><time>2026-03-28T09:30:26.807Z</time></trkpt><trkpt lat="40.1663215" lon="9.5283743"><ele>936.6</ele><time>2026-03-28T09:30:28.808Z</time></trkpt><trkpt lat="40.1662076" lon="9.5283294"><ele>937.4000000000001</ele><time>2026-03-28T09:31:06.805Z</time></trkpt><trkpt lat="40.166152" lon="9.528271"><ele>938.2</ele><time>2026-03-28T09:31:08.814Z</time></trkpt><trkpt lat="40.1660677" lon="9.5282424"><ele>939.0</ele><time>2026-03-28T09:31:11.803Z</time></trkpt><trkpt lat="40.1659533" lon="9.528269"><ele>939.0</ele><time>2026-03-28T09:31:50.806Z</time></trkpt><trkpt lat="40.1658672" lon="9.5283214"><ele>939.0</ele><time>2026-03-28T09:31:52.803Z</time></trkpt><trkpt lat="40.1657504" lon="9.5283737"><ele>939.0</ele><time>2026-03-28T09:31:54.823Z</time></trkpt><trkpt lat="40.1656869" lon="9.5283933"><ele>939.0</ele><time>2026-03-28T09:31:55.808Z</time></trkpt><trkpt lat="40.1656109" lon="9.5283997"><ele>939.0</ele><time>2026-03-28T09:31:56.799Z</time></trkpt><trkpt lat="40.1655233" lon="9.5283962"><ele>939.0</ele><time>2026-03-28T09:31:57.803Z</time></trkpt><trkpt lat="40.1654415" lon="9.5283753"><ele>940.6</ele><time>2026-03-28T09:31:58.802Z</time></trkpt><trkpt lat="40.1653415" lon="9.5283744"><ele>942.2</ele><time>2026-03-28T09:31:59.802Z</time></trkpt><trkpt lat="40.1652421" lon="9.5283665"><ele>943.8000000000001</ele><time>2026-03-28T09:32:00.806Z</time></trkpt><trkpt lat="40.1651355" lon="9.5283739"><ele>945.4000000000001</ele><time>2026-03-28T09:32:01.806Z</time></trkpt><trkpt lat="40.165034" lon="9.5283709"><ele>947.0</ele><time>2026-03-28T09:32:02.8Z</time></trkpt><trkpt lat="40.1649362" lon="9.5283765"><ele>947.3333333333334</ele><time>2026-03-28T09:32:03.803Z</time></trkpt><trkpt lat="40.1648537" lon="9.5283782"><ele>947.6666666666667</ele><time>2026-03-28T09:32:04.804Z</time></trkpt><trkpt lat="40.1647865" lon="9.5283737"><ele>948.0</ele><time>2026-03-28T09:32:05.804Z</time></trkpt><trkpt lat="40.164691" lon="9.5283085"><ele>948.3333333333333</ele><time>2026-03-28T09:32:07.803Z</time></trkpt><trkpt lat="40.1646676" lon="9.5281998"><ele>948.6666666666666</ele><time>2026-03-28T09:32:09.802Z</time></trkpt><trkpt lat="40.1646967" lon="9.5280923"><ele>949.0</ele><time>2026-03-28T09:32:11.796Z</time></trkpt><trkpt lat="40.164752" lon="9.5280432"><ele>949.0</ele><time>2026-03-28T09:32:28.801Z</time></trkpt><trkpt lat="40.1648475" lon="9.5279705"><ele>949.0000000000001</ele><time>2026-03-28T09:32:30.812Z</time></trkpt><trkpt lat="40.1649078" lon="9.5279176"><ele>949.0000000000001</ele><time>2026-03-28T09:32:31.803Z</time></trkpt><trkpt lat="40.1649767" lon="9.5278564"><ele>949.0</ele><time>2026-03-28T09:32:32.802Z</time></trkpt><trkpt lat="40.1650517" lon="9.5277813"><ele>949.0</ele><time>2026-03-28T09:32:33.8Z</time></trkpt><trkpt lat="40.165129" lon="9.5276996"><ele>952.25</ele><time>2026-03-28T09:32:34.807Z</time></trkpt><trkpt lat="40.165206" lon="9.5276189"><ele>955.5</ele><time>2026-03-28T09:32:35.802Z</time></trkpt><trkpt lat="40.1652941" lon="9.5275282"><ele>958.75</ele><time>2026-03-28T09:32:36.803Z</time></trkpt><trkpt lat="40.1653864" lon="9.5274286"><ele>962.0</ele><time>2026-03-28T09:32:37.801Z</time></trkpt><trkpt lat="40.1654836" lon="9.5273313"><ele>962.0</ele><time>2026-03-28T09:32:38.801Z</time></trkpt><trkpt lat="40.1655846" lon="9.5272395"><ele>962.0</ele><time>2026-03-28T09:32:39.805Z</time></trkpt><trkpt lat="40.1656799" lon="9.5271617"><ele>962.0</ele><time>2026-03-28T09:32:40.804Z</time></trkpt><trkpt lat="40.1657727" lon="9.5270966"><ele>962.0</ele><time>2026-03-28T09:32:41.804Z</time></trkpt><trkpt lat="40.165854" lon="9.5270404"><ele>962.0</ele><time>2026-03-28T09:32:42.804Z</time></trkpt><trkpt lat="40.165928" lon="9.5270071"><ele>964.0</ele><time>2026-03-28T09:32:43.805Z</time></trkpt><trkpt lat="40.1660041" lon="9.5270034"><ele>966.0</ele><time>2026-03-28T09:32:44.802Z</time></trkpt><trkpt lat="40.1660915" lon="9.5270146"><ele>968.0</ele><time>2026-03-28T09:32:45.801Z</time></trkpt><trkpt lat="40.1661933" lon="9.5270092"><ele>970.0</ele><time>2026-03-28T09:32:46.809Z</time></trkpt><trkpt lat="40.166303" lon="9.5270024"><ele>972.0</ele><time>2026-03-28T09:32:47.806Z</time></trkpt><trkpt lat="40.1664245" lon="9.5269536"><ele>970.75</ele><time>2026-03-28T09:32:48.803Z</time></trkpt><trkpt lat="40.1665447" lon="9.5268942"><ele>969.5</ele><time>2026-03-28T09:32:49.802Z</time></trkpt><trkpt lat="40.1666701" lon="9.526825"><ele>968.25</ele><time>2026-03-28T09:32:50.804Z</time></trkpt><trkpt lat="40.1667929" lon="9.5267469"><ele>967.0</ele><time>2026-03-28T09:32:51.8Z</time></trkpt><trkpt lat="40.166899" lon="9.5266656"><ele>966.9999999999999</ele><time>2026-03-28T09:32:52.803Z</time></trkpt><trkpt lat="40.1669959" lon="9.5265867"><ele>967.0</ele><time>2026-03-28T09:32:53.8Z</time></trkpt><trkpt lat="40.167082" lon="9.526517"><ele>967.0</ele><time>2026-03-28T09:32:54.806Z</time></trkpt><trkpt lat="40.1671518" lon="9.526472"><ele>967.0</ele><time>2026-03-28T09:32:55.808Z</time></trkpt><trkpt lat="40.1672196" lon="9.5264578"><ele>966.9999999999999</ele><time>2026-03-28T09:32:56.801Z</time></trkpt><trkpt lat="40.1672851" lon="9.5264723"><ele>967.0</ele><time>2026-03-28T09:32:57.807Z</time></trkpt><trkpt lat="40.1673564" lon="9.5265132"><ele>965.8</ele><time>2026-03-28T09:32:58.805Z</time></trkpt><trkpt lat="40.1674384" lon="9.5265615"><ele>964.6</ele><time>2026-03-28T09:32:59.809Z</time></trkpt><trkpt lat="40.1675319" lon="9.5266071"><ele>963.3999999999999</ele><time>2026-03-28T09:33:00.8Z</time></trkpt><trkpt lat="40.1676264" lon="9.5266253"><ele>962.1999999999999</ele><time>2026-03-28T09:33:01.811Z</time></trkpt><trkpt lat="40.1677238" lon="9.5266164"><ele>961.0</ele><time>2026-03-28T09:33:02.804Z</time></trkpt><trkpt lat="40.1678189" lon="9.5265862"><ele>961.0</ele><time>2026-03-28T09:33:03.808Z</time></trkpt><trkpt lat="40.1679119" lon="9.5265357"><ele>960.9999999999999</ele><time>2026-03-28T09:33:04.804Z</time></trkpt><trkpt lat="40.168004" lon="9.5264659"><ele>960.9999999999999</ele><time>2026-03-28T09:33:05.798Z</time></trkpt><trkpt lat="40.1680908" lon="9.5263816"><ele>961.0</ele><time>2026-03-28T09:33:06.799Z</time></trkpt><trkpt lat="40.1681814" lon="9.5262914"><ele>961.0</ele><time>2026-03-28T09:33:07.802Z</time></trkpt><trkpt lat="40.1682694" lon="9.5261845"><ele>961.25</ele><time>2026-03-28T09:33:08.809Z</time></trkpt><trkpt lat="40.1683563" lon="9.5260787"><ele>961.5</ele><time>2026-03-28T09:33:09.804Z</time></trkpt><trkpt lat="40.1684408" lon="9.5259721"><ele>961.75</ele><time>2026-03-28T09:33:10.808Z</time></trkpt><trkpt lat="40.1685221" lon="9.5258624"><ele>962.0</ele><time>2026-03-28T09:33:11.805Z</time></trkpt><trkpt lat="40.168587" lon="9.5257605"><ele>962.0000000000001</ele><time>2026-03-28T09:33:12.81Z</time></trkpt><trkpt lat="40.1686357" lon="9.5256646"><ele>962.0</ele><time>2026-03-28T09:33:13.807Z</time></trkpt><trkpt lat="40.1686669" lon="9.5255708"><ele>962.0</ele><time>2026-03-28T09:33:14.801Z</time></trkpt><trkpt lat="40.1686883" lon="9.5254759"><ele>962.0</ele><time>2026-03-28T09:33:15.81Z</time></trkpt><trkpt lat="40.1686973" lon="9.525377"><ele>962.0000000000001</ele><time>2026-03-28T09:33:16.804Z</time></trkpt><trkpt lat="40.1686905" lon="9.5252826"><ele>962.0</ele><time>2026-03-28T09:33:17.802Z</time></trkpt><trkpt lat="40.1686665" lon="9.5251858"><ele>961.6666666666667</ele><time>2026-03-28T09:33:18.808Z</time></trkpt><trkpt lat="40.1686242" lon="9.5250792"><ele>961.3333333333334</ele><time>2026-03-28T09:33:19.803Z</time></trkpt><trkpt lat="40.1685703" lon="9.5249664"><ele>961.0</ele><time>2026-03-28T09:33:20.8Z</time></trkpt><trkpt lat="40.1685259" lon="9.5248616"><ele>960.6666666666667</ele><time>2026-03-28T09:33:21.802Z</time></trkpt><trkpt lat="40.1684862" lon="9.524767"><ele>960.3333333333334</ele><time>2026-03-28T09:33:22.805Z</time></trkpt><trkpt lat="40.1684748" lon="9.5246729"><ele>960.0</ele><time>2026-03-28T09:33:23.803Z</time></trkpt><trkpt lat="40.1684889" lon="9.5245748"><ele>960.8</ele><time>2026-03-28T09:33:24.806Z</time></trkpt><trkpt lat="40.1685332" lon="9.52447"><ele>961.6</ele><time>2026-03-28T09:33:25.807Z</time></trkpt><trkpt lat="40.1685814" lon="9.5243662"><ele>962.4000000000001</ele><time>2026-03-28T09:33:26.803Z</time></trkpt><trkpt lat="40.1686283" lon="9.5242564"><ele>963.2</ele><time>2026-03-28T09:33:27.815Z</time></trkpt><trkpt lat="40.168659" lon="9.524138"><ele>964.0</ele><time>2026-03-28T09:33:28.803Z</time></trkpt><trkpt lat="40.1686787" lon="9.5240157"><ele>963.9999999999999</ele><time>2026-03-28T09:33:29.804Z</time></trkpt><trkpt lat="40.1686889" lon="9.5238915"><ele>964.0</ele><time>2026-03-28T09:33:30.81Z</time></trkpt><trkpt lat="40.168691" lon="9.5237648"><ele>964.0</ele><time>2026-03-28T09:33:31.802Z</time></trkpt><trkpt lat="40.1686812" lon="9.5236489"><ele>964.0</ele><time>2026-03-28T09:33:32.809Z</time></trkpt><trkpt lat="40.1686727" lon="9.5235437"><ele>963.9999999999999</ele><time>2026-03-28T09:33:33.805Z</time></trkpt><trkpt lat="40.1686531" lon="9.5234525"><ele>964.0</ele><time>2026-03-28T09:33:34.805Z</time></trkpt><trkpt lat="40.1686358" lon="9.5233731"><ele>964.6</ele><time>2026-03-28T09:33:35.8Z</time></trkpt><trkpt lat="40.1686327" lon="9.5232507"><ele>965.2</ele><time>2026-03-28T09:33:37.801Z</time></trkpt><trkpt lat="40.1687012" lon="9.5231244"><ele>965.8000000000001</ele><time>2026-03-28T09:33:39.807Z</time></trkpt><trkpt lat="40.1687528" lon="9.5230556"><ele>966.4000000000001</ele><time>2026-03-28T09:33:40.801Z</time></trkpt><trkpt lat="40.168818" lon="9.5229772"><ele>967.0</ele><time>2026-03-28T09:33:41.804Z</time></trkpt><trkpt lat="40.1688933" lon="9.5229013"><ele>966.4000000000001</ele><time>2026-03-28T09:33:42.797Z</time></trkpt><trkpt lat="40.1689645" lon="9.5228339"><ele>965.8000000000001</ele><time>2026-03-28T09:33:43.802Z</time></trkpt><trkpt lat="40.1690442" lon="9.5227962"><ele>965.2</ele><time>2026-03-28T09:33:44.797Z</time></trkpt><trkpt lat="40.1691521" lon="9.5227895"><ele>964.6</ele><time>2026-03-28T09:33:45.799Z</time></trkpt><trkpt lat="40.1692596" lon="9.5227836"><ele>964.0</ele><time>2026-03-28T09:33:46.805Z</time></trkpt><trkpt lat="40.1693801" lon="9.5227873"><ele>964.0</ele><time>2026-03-28T09:33:47.799Z</time></trkpt><trkpt lat="40.1695113" lon="9.5227846"><ele>964.0000000000001</ele><time>2026-03-28T09:33:48.803Z</time></trkpt><trkpt lat="40.1696429" lon="9.5227824"><ele>964.0000000000001</ele><time>2026-03-28T09:33:49.799Z</time></trkpt><trkpt lat="40.1697442" lon="9.5227829"><ele>964.0</ele><time>2026-03-28T09:33:50.797Z</time></trkpt><trkpt lat="40.1698156" lon="9.522783"><ele>964.0</ele><time>2026-03-28T09:33:51.8Z</time></trkpt><trkpt lat="40.169937" lon="9.5227371"><ele>962.9999999999999</ele><time>2026-03-28T09:33:53.798Z</time></trkpt><trkpt lat="40.1699937" lon="9.5226716"><ele>962.0</ele><time>2026-03-28T09:33:54.799Z</time></trkpt><trkpt lat="40.1700251" lon="9.5226"><ele>961.0</ele><time>2026-03-28T09:33:55.804Z</time></trkpt><trkpt lat="40.1700243" lon="9.52243"><ele>960.0</ele><time>2026-03-28T09:33:57.801Z</time></trkpt><trkpt lat="40.1700074" lon="9.5223453"><ele>958.9999999999999</ele><time>2026-03-28T09:33:58.801Z</time></trkpt><trkpt lat="40.1699727" lon="9.5222243"><ele>958.0</ele><time>2026-03-28T09:34:00.8Z</time></trkpt><trkpt lat="40.1699205" lon="9.5221579"><ele>958.9999999999999</ele><time>2026-03-28T09:41:27.818Z</time></trkpt><trkpt lat="40.1698534" lon="9.5221474"><ele>960.0</ele><time>2026-03-28T09:41:34.811Z</time></trkpt><trkpt lat="40.1697692" lon="9.5221467"><ele>961.0</ele><time>2026-03-28T09:41:36.81Z</time></trkpt><trkpt lat="40.1696604" lon="9.5221462"><ele>962.0</ele><time>2026-03-28T09:41:38.803Z</time></trkpt><trkpt lat="40.1695903" lon="9.522126"><ele>962.9999999999999</ele><time>2026-03-28T09:41:39.804Z</time></trkpt><trkpt lat="40.1695198" lon="9.5220944"><ele>964.0</ele><time>2026-03-28T09:41:40.801Z</time></trkpt><trkpt lat="40.1694498" lon="9.5220672"><ele>964.4999999999999</ele><time>2026-03-28T09:41:41.803Z</time></trkpt><trkpt lat="40.1693789" lon="9.5220351"><ele>965.0</ele><time>2026-03-28T09:41:42.805Z</time></trkpt><trkpt lat="40.1693069" lon="9.521981"><ele>965.5</ele><time>2026-03-28T09:41:43.802Z</time></trkpt><trkpt lat="40.1692381" lon="9.5219131"><ele>966.0</ele><time>2026-03-28T09:41:44.801Z</time></trkpt><trkpt lat="40.1691781" lon="9.5218302"><ele>966.4999999999999</ele><time>2026-03-28T09:41:45.807Z</time></trkpt><trkpt lat="40.1691325" lon="9.5217354"><ele>967.0</ele><time>2026-03-28T09:41:46.804Z</time></trkpt><trkpt lat="40.1690865" lon="9.521664"><ele>970.6</ele><time>2026-03-28T09:41:47.807Z</time></trkpt><trkpt lat="40.1689999" lon="9.521592"><ele>974.2</ele><time>2026-03-28T09:41:49.805Z</time></trkpt><trkpt lat="40.1688924" lon="9.5216307"><ele>977.8</ele><time>2026-03-28T09:41:51.806Z</time></trkpt><trkpt lat="40.1688095" lon="9.5216647"><ele>981.4</ele><time>2026-03-28T09:41:52.811Z</time></trkpt><trkpt lat="40.168722" lon="9.5216968"><ele>985.0</ele><time>2026-03-28T09:41:53.803Z</time></trkpt><trkpt lat="40.1686258" lon="9.521732"><ele>985.0</ele><time>2026-03-28T09:41:54.803Z</time></trkpt><trkpt lat="40.1685289" lon="9.5217664"><ele>985.0</ele><time>2026-03-28T09:41:55.802Z</time></trkpt><trkpt lat="40.1684297" lon="9.5218036"><ele>985.0</ele><time>2026-03-28T09:41:56.806Z</time></trkpt><trkpt lat="40.1683234" lon="9.5218429"><ele>985.0</ele><time>2026-03-28T09:41:57.801Z</time></trkpt><trkpt lat="40.1682127" lon="9.5218851"><ele>985.0</ele><time>2026-03-28T09:41:58.802Z</time></trkpt><trkpt lat="40.1681014" lon="9.5219262"><ele>987.8</ele><time>2026-03-28T09:41:59.805Z</time></trkpt><trkpt lat="40.168003" lon="9.5219654"><ele>990.6</ele><time>2026-03-28T09:42:00.81Z</time></trkpt><trkpt lat="40.1679218" lon="9.5219965"><ele>993.4000000000001</ele><time>2026-03-28T09:42:01.799Z</time></trkpt><trkpt lat="40.1678061" lon="9.5219851"><ele>996.2</ele><time>2026-03-28T09:42:03.808Z</time></trkpt><trkpt lat="40.1677404" lon="9.5219321"><ele>999.0</ele><time>2026-03-28T09:42:04.803Z</time></trkpt><trkpt lat="40.1676641" lon="9.521861"><ele>999.0</ele><time>2026-03-28T09:42:05.797Z</time></trkpt><trkpt lat="40.167586" lon="9.52177"><ele>999.0000000000001</ele><time>2026-03-28T09:42:06.808Z</time></trkpt><trkpt lat="40.1675102" lon="9.5216885"><ele>999.0000000000001</ele><time>2026-03-28T09:42:07.801Z</time></trkpt><trkpt lat="40.1674672" lon="9.5215873"><ele>999.0</ele><time>2026-03-28T09:42:08.804Z</time></trkpt><trkpt lat="40.1674301" lon="9.521488"><ele>999.0</ele><time>2026-03-28T09:42:09.806Z</time></trkpt><trkpt lat="40.1674303" lon="9.5213528"><ele>999.2</ele><time>2026-03-28T09:42:10.805Z</time></trkpt><trkpt lat="40.1674325" lon="9.5212154"><ele>999.4000000000001</ele><time>2026-03-28T09:42:11.806Z</time></trkpt><trkpt lat="40.1674356" lon="9.521067"><ele>999.6</ele><time>2026-03-28T09:42:12.811Z</time></trkpt><trkpt lat="40.1674362" lon="9.5209206"><ele>999.8</ele><time>2026-03-28T09:42:13.802Z</time></trkpt><trkpt lat="40.1674318" lon="9.5207661"><ele>1000.0</ele><time>2026-03-28T09:42:14.8Z</time></trkpt><trkpt lat="40.1674233" lon="9.520615"><ele>999.9999999999999</ele><time>2026-03-28T09:42:15.804Z</time></trkpt><trkpt lat="40.1674132" lon="9.5204896"><ele>1000.0</ele><time>2026-03-28T09:42:16.805Z</time></trkpt><trkpt lat="40.1673986" lon="9.5203912"><ele>1000.0</ele><time>2026-03-28T09:42:17.803Z</time></trkpt><trkpt lat="40.1673632" lon="9.5203115"><ele>1000.0</ele><time>2026-03-28T09:42:18.803Z</time></trkpt><trkpt lat="40.1673242" lon="9.5202343"><ele>999.9999999999999</ele><time>2026-03-28T09:42:19.813Z</time></trkpt><trkpt lat="40.1672618" lon="9.5201497"><ele>1000.0</ele><time>2026-03-28T09:42:20.803Z</time></trkpt><trkpt lat="40.1672172" lon="9.5200414"><ele>1002.75</ele><time>2026-03-28T09:42:21.81Z</time></trkpt><trkpt lat="40.1671644" lon="9.5199262"><ele>1005.5</ele><time>2026-03-28T09:42:22.806Z</time></trkpt><trkpt lat="40.1671193" lon="9.519795"><ele>1008.25</ele><time>2026-03-28T09:42:23.804Z</time></trkpt><trkpt lat="40.1670725" lon="9.51965"><ele>1011.0</ele><time>2026-03-28T09:42:24.804Z</time></trkpt><trkpt lat="40.1670348" lon="9.5195055"><ele>1011.0</ele><time>2026-03-28T09:42:25.806Z</time></trkpt><trkpt lat="40.1670104" lon="9.5193754"><ele>1010.9999999999999</ele><time>2026-03-28T09:42:26.803Z</time></trkpt><trkpt lat="40.1669943" lon="9.5192388"><ele>1010.9999999999999</ele><time>2026-03-28T09:42:27.801Z</time></trkpt><trkpt lat="40.1669773" lon="9.5191122"><ele>1011.0</ele><time>2026-03-28T09:42:28.809Z</time></trkpt><trkpt lat="40.1669453" lon="9.518998"><ele>1011.0</ele><time>2026-03-28T09:42:29.813Z</time></trkpt><trkpt lat="40.166914" lon="9.5188886"><ele>1011.0</ele><time>2026-03-28T09:42:30.814Z</time></trkpt><trkpt lat="40.1668513" lon="9.5187775"><ele>1010.9999999999999</ele><time>2026-03-28T09:42:31.801Z</time></trkpt><trkpt lat="40.1667681" lon="9.5186686"><ele>1010.9999999999999</ele><time>2026-03-28T09:42:32.807Z</time></trkpt><trkpt lat="40.1666826" lon="9.5185684"><ele>1011.0</ele><time>2026-03-28T09:42:33.805Z</time></trkpt><trkpt lat="40.1666052" lon="9.5184759"><ele>1011.0</ele><time>2026-03-28T09:42:34.822Z</time></trkpt><trkpt lat="40.1665267" lon="9.5183962"><ele>1010.8</ele><time>2026-03-28T09:42:35.807Z</time></trkpt><trkpt lat="40.1664447" lon="9.5183285"><ele>1010.5999999999999</ele><time>2026-03-28T09:42:36.81Z</time></trkpt><trkpt lat="40.1663554" lon="9.5182677"><ele>1010.4</ele><time>2026-03-28T09:42:37.806Z</time></trkpt><trkpt lat="40.1662649" lon="9.5182051"><ele>1010.2</ele><time>2026-03-28T09:42:38.812Z</time></trkpt><trkpt lat="40.1661672" lon="9.5181432"><ele>1010.0</ele><time>2026-03-28T09:42:39.811Z</time></trkpt><trkpt lat="40.1660741" lon="9.5180696"><ele>1010.0</ele><time>2026-03-28T09:42:40.809Z</time></trkpt><trkpt lat="40.165983" lon="9.5180008"><ele>1010.0</ele><time>2026-03-28T09:42:41.813Z</time></trkpt><trkpt lat="40.1658967" lon="9.5179263"><ele>1010.0</ele><time>2026-03-28T09:42:42.81Z</time></trkpt><trkpt lat="40.1658166" lon="9.5178527"><ele>1010.0</ele><time>2026-03-28T09:42:43.81Z</time></trkpt><trkpt lat="40.165735" lon="9.5177775"><ele>1010.0</ele><time>2026-03-28T09:42:44.808Z</time></trkpt><trkpt lat="40.1656578" lon="9.517702"><ele>1010.0</ele><time>2026-03-28T09:42:45.808Z</time></trkpt><trkpt lat="40.1655798" lon="9.5176209"><ele>1010.0</ele><time>2026-03-28T09:42:46.808Z</time></trkpt><trkpt lat="40.1655104" lon="9.5175197"><ele>1010.0</ele><time>2026-03-28T09:42:47.81Z</time></trkpt><trkpt lat="40.165439" lon="9.5174113"><ele>1010.0</ele><time>2026-03-28T09:42:48.806Z</time></trkpt><trkpt lat="40.1653796" lon="9.5173071"><ele>1010.0</ele><time>2026-03-28T09:42:49.809Z</time></trkpt><trkpt lat="40.1653171" lon="9.5172012"><ele>1010.0</ele><time>2026-03-28T09:42:50.805Z</time></trkpt><trkpt lat="40.1652687" lon="9.5170725"><ele>1010.0</ele><time>2026-03-28T09:42:51.801Z</time></trkpt><trkpt lat="40.1652283" lon="9.5169572"><ele>1010.0</ele><time>2026-03-28T09:42:52.811Z</time></trkpt><trkpt lat="40.1651967" lon="9.5168514"><ele>1010.0</ele><time>2026-03-28T09:42:53.807Z</time></trkpt><trkpt lat="40.1651715" lon="9.5167587"><ele>1010.0</ele><time>2026-03-28T09:42:54.806Z</time></trkpt><trkpt lat="40.1652105" lon="9.5166046"><ele>1009.6</ele><time>2026-03-28T09:42:56.805Z</time></trkpt><trkpt lat="40.1652774" lon="9.5165108"><ele>1009.2</ele><time>2026-03-28T09:42:57.815Z</time></trkpt><trkpt lat="40.1653517" lon="9.5164025"><ele>1008.8</ele><time>2026-03-28T09:42:58.801Z</time></trkpt><trkpt lat="40.1654109" lon="9.5162961"><ele>1008.4</ele><time>2026-03-28T09:42:59.805Z</time></trkpt><trkpt lat="40.1654722" lon="9.5161876"><ele>1008.0</ele><time>2026-03-28T09:43:00.805Z</time></trkpt><trkpt lat="40.1655088" lon="9.5160508"><ele>1010.25</ele><time>2026-03-28T09:43:01.808Z</time></trkpt><trkpt lat="40.1655389" lon="9.5158994"><ele>1012.5</ele><time>2026-03-28T09:43:02.805Z</time></trkpt><trkpt lat="40.1655594" lon="9.5157434"><ele>1014.75</ele><time>2026-03-28T09:43:03.802Z</time></trkpt><trkpt lat="40.1655793" lon="9.5155849"><ele>1017.0</ele><time>2026-03-28T09:43:04.803Z</time></trkpt><trkpt lat="40.1655971" lon="9.5154171"><ele>1017.2</ele><time>2026-03-28T09:43:05.806Z</time></trkpt><trkpt lat="40.1656087" lon="9.5152636"><ele>1017.4000000000001</ele><time>2026-03-28T09:43:06.801Z</time></trkpt><trkpt lat="40.1656151" lon="9.5151235"><ele>1017.5999999999999</ele><time>2026-03-28T09:43:07.805Z</time></trkpt><trkpt lat="40.1656112" lon="9.5149906"><ele>1017.8</ele><time>2026-03-28T09:43:08.801Z</time></trkpt><trkpt lat="40.1656047" lon="9.5148635"><ele>1018.0</ele><time>2026-03-28T09:43:09.805Z</time></trkpt><trkpt lat="40.1655843" lon="9.514739"><ele>1018.0</ele><time>2026-03-28T09:43:10.802Z</time></trkpt><trkpt lat="40.165569" lon="9.5146207"><ele>1018.0</ele><time>2026-03-28T09:43:11.802Z</time></trkpt><trkpt lat="40.1655763" lon="9.5144952"><ele>1018.0</ele><time>2026-03-28T09:43:12.805Z</time></trkpt><trkpt lat="40.1656009" lon="9.5143696"><ele>1018.0</ele><time>2026-03-28T09:43:13.805Z</time></trkpt><trkpt lat="40.1656447" lon="9.5142458"><ele>1018.0</ele><time>2026-03-28T09:43:14.801Z</time></trkpt><trkpt lat="40.1656841" lon="9.5141416"><ele>1015.4</ele><time>2026-03-28T09:43:15.806Z</time></trkpt><trkpt lat="40.1656954" lon="9.5140561"><ele>1012.8</ele><time>2026-03-28T09:43:16.803Z</time></trkpt><trkpt lat="40.1656657" lon="9.5139086"><ele>1010.2</ele><time>2026-03-28T09:43:18.804Z</time></trkpt><trkpt lat="40.1655922" lon="9.5138355"><ele>1007.6</ele><time>2026-03-28T09:43:19.802Z</time></trkpt><trkpt lat="40.1655019" lon="9.5137648"><ele>1005.0</ele><time>2026-03-28T09:43:20.81Z</time></trkpt><trkpt lat="40.1653972" lon="9.5137051"><ele>1000.4</ele><time>2026-03-28T09:43:21.801Z</time></trkpt><trkpt lat="40.165287" lon="9.5136585"><ele>995.8</ele><time>2026-03-28T09:43:22.806Z</time></trkpt><trkpt lat="40.1651767" lon="9.513611"><ele>991.2</ele><time>2026-03-28T09:43:23.804Z</time></trkpt><trkpt lat="40.1650748" lon="9.513568"><ele>986.6</ele><time>2026-03-28T09:43:24.815Z</time></trkpt><trkpt lat="40.1649838" lon="9.5135165"><ele>982.0</ele><time>2026-03-28T09:43:25.798Z</time></trkpt><trkpt lat="40.1649016" lon="9.5134397"><ele>985.2</ele><time>2026-03-28T09:43:26.814Z</time></trkpt><trkpt lat="40.1648239" lon="9.5133496"><ele>988.4000000000001</ele><time>2026-03-28T09:43:27.801Z</time></trkpt><trkpt lat="40.1647545" lon="9.5132526"><ele>991.5999999999999</ele><time>2026-03-28T09:43:28.805Z</time></trkpt><trkpt lat="40.1646914" lon="9.5131684"><ele>994.8</ele><time>2026-03-28T09:43:29.802Z</time></trkpt><trkpt lat="40.1646198" lon="9.5130952"><ele>998.0</ele><time>2026-03-28T09:43:30.813Z</time></trkpt><trkpt lat="40.1645302" lon="9.5130327"><ele>998.0</ele><time>2026-03-28T09:43:31.805Z</time></trkpt><trkpt lat="40.16443" lon="9.5129922"><ele>998.0</ele><time>2026-03-28T09:43:32.804Z</time></trkpt><trkpt lat="40.1643145" lon="9.5129605"><ele>998.0</ele><time>2026-03-28T09:43:33.803Z</time></trkpt><trkpt lat="40.1642041" lon="9.5129319"><ele>998.0</ele><time>2026-03-28T09:43:34.804Z</time></trkpt><trkpt lat="40.1641013" lon="9.5129091"><ele>998.0</ele><time>2026-03-28T09:43:35.809Z</time></trkpt><trkpt lat="40.1640002" lon="9.5128758"><ele>995.4</ele><time>2026-03-28T09:43:36.805Z</time></trkpt><trkpt lat="40.163901" lon="9.5128394"><ele>992.8</ele><time>2026-03-28T09:43:37.807Z</time></trkpt><trkpt lat="40.1638079" lon="9.5127792"><ele>990.2</ele><time>2026-03-28T09:43:38.811Z</time></trkpt><trkpt lat="40.1637091" lon="9.5127103"><ele>987.6</ele><time>2026-03-28T09:43:39.802Z</time></trkpt><trkpt lat="40.1636108" lon="9.5126355"><ele>985.0</ele><time>2026-03-28T09:43:40.803Z</time></trkpt><trkpt lat="40.1635135" lon="9.5125593"><ele>985.0</ele><time>2026-03-28T09:43:41.802Z</time></trkpt><trkpt lat="40.1634245" lon="9.5124845"><ele>985.0</ele><time>2026-03-28T09:43:42.805Z</time></trkpt><trkpt lat="40.1633485" lon="9.5124099"><ele>985.0</ele><time>2026-03-28T09:43:43.804Z</time></trkpt><trkpt lat="40.1632677" lon="9.5123621"><ele>985.0</ele><time>2026-03-28T09:43:44.805Z</time></trkpt><trkpt lat="40.1631898" lon="9.512322"><ele>985.0</ele><time>2026-03-28T09:43:45.805Z</time></trkpt><trkpt lat="40.1631048" lon="9.5123268"><ele>985.8</ele><time>2026-03-28T09:43:46.806Z</time></trkpt><trkpt lat="40.1630043" lon="9.5123383"><ele>986.6</ele><time>2026-03-28T09:43:47.8Z</time></trkpt><trkpt lat="40.1628886" lon="9.5123502"><ele>987.4000000000001</ele><time>2026-03-28T09:43:48.809Z</time></trkpt><trkpt lat="40.1627802" lon="9.5123521"><ele>988.2</ele><time>2026-03-28T09:43:49.805Z</time></trkpt><trkpt lat="40.1626873" lon="9.5123516"><ele>989.0</ele><time>2026-03-28T09:43:50.8Z</time></trkpt><trkpt lat="40.162612" lon="9.5123433"><ele>989.0</ele><time>2026-03-28T09:43:51.801Z</time></trkpt><trkpt lat="40.162549" lon="9.5123399"><ele>988.9999999999999</ele><time>2026-03-28T09:43:52.806Z</time></trkpt><trkpt lat="40.1624717" lon="9.5123166"><ele>989.0</ele><time>2026-03-28T09:43:54.806Z</time></trkpt><trkpt lat="40.1623969" lon="9.5122938"><ele>989.0</ele><time>2026-03-28T09:44:07.802Z</time></trkpt><trkpt lat="40.1623262" lon="9.5122754"><ele>988.9999999999999</ele><time>2026-03-28T09:44:11.801Z</time></trkpt><trkpt lat="40.1622758" lon="9.5122229"><ele>989.0</ele><time>2026-03-28T09:44:15.809Z</time></trkpt><trkpt lat="40.1622053" lon="9.5121649"><ele>989.0</ele><time>2026-03-28T09:45:04.81Z</time></trkpt><trkpt lat="40.162144" lon="9.5121405"><ele>987.3333333333334</ele><time>2026-03-28T09:45:06.804Z</time></trkpt><trkpt lat="40.1621182" lon="9.5120412"><ele>985.6666666666667</ele><time>2026-03-28T09:45:08.805Z</time></trkpt><trkpt lat="40.1621038" lon="9.5119553"><ele>984.0</ele><time>2026-03-28T09:45:09.804Z</time></trkpt><trkpt lat="40.1620854" lon="9.5118474"><ele>982.3333333333333</ele><time>2026-03-28T09:45:10.797Z</time></trkpt><trkpt lat="40.1620646" lon="9.5117352"><ele>980.6666666666666</ele><time>2026-03-28T09:45:11.817Z</time></trkpt><trkpt lat="40.1620406" lon="9.5116095"><ele>979.0</ele><time>2026-03-28T09:45:12.808Z</time></trkpt><trkpt lat="40.1620119" lon="9.5114674"><ele>979.0</ele><time>2026-03-28T09:45:13.81Z</time></trkpt><trkpt lat="40.1619801" lon="9.5113139"><ele>979.0</ele><time>2026-03-28T09:45:14.805Z</time></trkpt><trkpt lat="40.1619476" lon="9.5111619"><ele>979.0</ele><time>2026-03-28T09:45:15.811Z</time></trkpt><trkpt lat="40.1619129" lon="9.5110015"><ele>979.0</ele><time>2026-03-28T09:45:16.811Z</time></trkpt><trkpt lat="40.1618748" lon="9.5108298"><ele>981.6666666666666</ele><time>2026-03-28T09:45:17.803Z</time></trkpt><trkpt lat="40.161834" lon="9.5106479"><ele>984.3333333333333</ele><time>2026-03-28T09:45:18.806Z</time></trkpt><trkpt lat="40.1617909" lon="9.5104592"><ele>987.0</ele><time>2026-03-28T09:45:19.808Z</time></trkpt><trkpt lat="40.1617408" lon="9.5102671"><ele>987.0</ele><time>2026-03-28T09:45:20.804Z</time></trkpt><trkpt lat="40.1616847" lon="9.5100901"><ele>987.0</ele><time>2026-03-28T09:45:21.803Z</time></trkpt><trkpt lat="40.1616131" lon="9.5099169"><ele>987.0</ele><time>2026-03-28T09:45:22.807Z</time></trkpt><trkpt lat="40.161532" lon="9.5097579"><ele>987.0</ele><time>2026-03-28T09:45:23.803Z</time></trkpt><trkpt lat="40.1614397" lon="9.509626"><ele>987.5</ele><time>2026-03-28T09:45:24.799Z</time></trkpt><trkpt lat="40.1613302" lon="9.5095302"><ele>988.0</ele><time>2026-03-28T09:45:25.801Z</time></trkpt><trkpt lat="40.1612033" lon="9.5094729"><ele>988.5</ele><time>2026-03-28T09:45:26.8Z</time></trkpt><trkpt lat="40.1610619" lon="9.5094472"><ele>989.0</ele><time>2026-03-28T09:45:27.798Z</time></trkpt><trkpt lat="40.1609095" lon="9.5094237"><ele>989.0</ele><time>2026-03-28T09:45:28.806Z</time></trkpt><trkpt lat="40.1607534" lon="9.5093979"><ele>989.0</ele><time>2026-03-28T09:45:29.805Z</time></trkpt><trkpt lat="40.1606003" lon="9.5093121"><ele>989.0</ele><time>2026-03-28T09:45:30.8Z</time></trkpt><trkpt lat="40.1604437" lon="9.5092161"><ele>995.6666666666667</ele><time>2026-03-28T09:45:31.802Z</time></trkpt><trkpt lat="40.1603029" lon="9.5090753"><ele>1002.3333333333333</ele><time>2026-03-28T09:45:32.803Z</time></trkpt><trkpt lat="40.1601744" lon="9.5089319"><ele>1009.0</ele><time>2026-03-28T09:45:33.801Z</time></trkpt><trkpt lat="40.1600375" lon="9.5088188"><ele>1007.3333333333333</ele><time>2026-03-28T09:45:34.81Z</time></trkpt><trkpt lat="40.1598924" lon="9.5087401"><ele>1005.6666666666667</ele><time>2026-03-28T09:45:35.803Z</time></trkpt><trkpt lat="40.1597397" lon="9.5086788"><ele>1004.0</ele><time>2026-03-28T09:45:36.805Z</time></trkpt><trkpt lat="40.1595855" lon="9.5086284"><ele>1004.0</ele><time>2026-03-28T09:45:37.803Z</time></trkpt><trkpt lat="40.159435" lon="9.5085815"><ele>1004.0</ele><time>2026-03-28T09:45:38.806Z</time></trkpt><trkpt lat="40.1592859" lon="9.5085241"><ele>1004.0</ele><time>2026-03-28T09:45:39.803Z</time></trkpt><trkpt lat="40.1591486" lon="9.5084446"><ele>1004.5</ele><time>2026-03-28T09:45:40.803Z</time></trkpt><trkpt lat="40.1590187" lon="9.5083571"><ele>1005.0</ele><time>2026-03-28T09:45:41.803Z</time></trkpt><trkpt lat="40.1589093" lon="9.5082328"><ele>1005.5</ele><time>2026-03-28T09:45:42.808Z</time></trkpt><trkpt lat="40.1588004" lon="9.5081202"><ele>1006.0</ele><time>2026-03-28T09:45:43.804Z</time></trkpt><trkpt lat="40.1586947" lon="9.5080101"><ele>1006.75</ele><time>2026-03-28T09:45:44.802Z</time></trkpt><trkpt lat="40.1585865" lon="9.5078945"><ele>1007.5</ele><time>2026-03-28T09:45:45.806Z</time></trkpt><trkpt lat="40.1584751" lon="9.5077835"><ele>1008.25</ele><time>2026-03-28T09:45:46.811Z</time></trkpt><trkpt lat="40.1583639" lon="9.5076669"><ele>1009.0</ele><time>2026-03-28T09:45:47.805Z</time></trkpt><trkpt lat="40.1582543" lon="9.5075551"><ele>1008.0</ele><time>2026-03-28T09:45:48.808Z</time></trkpt><trkpt lat="40.1581412" lon="9.5074519"><ele>1007.0</ele><time>2026-03-28T09:45:49.812Z</time></trkpt><trkpt lat="40.1580171" lon="9.5073536"><ele>1006.0</ele><time>2026-03-28T09:45:50.809Z</time></trkpt><trkpt lat="40.1578789" lon="9.5072706"><ele>1005.0</ele><time>2026-03-28T09:45:51.807Z</time></trkpt><trkpt lat="40.1577291" lon="9.507198"><ele>1005.0</ele><time>2026-03-28T09:45:52.803Z</time></trkpt><trkpt lat="40.1575697" lon="9.5071317"><ele>1005.0</ele><time>2026-03-28T09:45:53.804Z</time></trkpt><trkpt lat="40.1574023" lon="9.507069"><ele>1005.0</ele><time>2026-03-28T09:45:54.802Z</time></trkpt><trkpt lat="40.1572262" lon="9.5070082"><ele>1013.3333333333333</ele><time>2026-03-28T09:45:55.801Z</time></trkpt><trkpt lat="40.157044" lon="9.5069563"><ele>1021.6666666666666</ele><time>2026-03-28T09:45:56.806Z</time></trkpt><trkpt lat="40.156859" lon="9.5069334"><ele>1030.0</ele><time>2026-03-28T09:45:57.806Z</time></trkpt><trkpt lat="40.1566726" lon="9.5069341"><ele>1033.0</ele><time>2026-03-28T09:45:58.806Z</time></trkpt><trkpt lat="40.1564907" lon="9.5069623"><ele>1036.0</ele><time>2026-03-28T09:45:59.806Z</time></trkpt><trkpt lat="40.1562948" lon="9.507022"><ele>1039.0</ele><time>2026-03-28T09:46:00.809Z</time></trkpt><trkpt lat="40.1561046" lon="9.5070822"><ele>1030.6666666666665</ele><time>2026-03-28T09:46:01.808Z</time></trkpt><trkpt lat="40.155905" lon="9.5071245"><ele>1022.3333333333333</ele><time>2026-03-28T09:46:02.805Z</time></trkpt><trkpt lat="40.1557045" lon="9.5071428"><ele>1014.0</ele><time>2026-03-28T09:46:03.806Z</time></trkpt><trkpt lat="40.1555016" lon="9.507156"><ele>1014.0</ele><time>2026-03-28T09:46:04.804Z</time></trkpt><trkpt lat="40.1552944" lon="9.5071793"><ele>1014.0</ele><time>2026-03-28T09:46:05.804Z</time></trkpt><trkpt lat="40.1550876" lon="9.5072234"><ele>1014.0</ele><time>2026-03-28T09:46:06.802Z</time></trkpt><trkpt lat="40.1548861" lon="9.5072776"><ele>1018.0</ele><time>2026-03-28T09:46:07.805Z</time></trkpt><trkpt lat="40.1547036" lon="9.5073377"><ele>1022.0</ele><time>2026-03-28T09:46:08.808Z</time></trkpt><trkpt lat="40.1545278" lon="9.5074022"><ele>1026.0</ele><time>2026-03-28T09:46:09.81Z</time></trkpt><trkpt lat="40.1543584" lon="9.5074632"><ele>1026.0</ele><time>2026-03-28T09:46:10.804Z</time></trkpt><trkpt lat="40.1541999" lon="9.5075198"><ele>1026.0</ele><time>2026-03-28T09:46:11.802Z</time></trkpt><trkpt lat="40.1540542" lon="9.5075733"><ele>1026.0</ele><time>2026-03-28T09:46:12.804Z</time></trkpt><trkpt lat="40.1539266" lon="9.507621"><ele>1026.0</ele><time>2026-03-28T09:46:13.804Z</time></trkpt><trkpt lat="40.1538191" lon="9.5076605"><ele>1025.8</ele><time>2026-03-28T09:46:14.82Z</time></trkpt><trkpt lat="40.1537208" lon="9.5076996"><ele>1025.6</ele><time>2026-03-28T09:46:15.802Z</time></trkpt><trkpt lat="40.1536336" lon="9.5077279"><ele>1025.4</ele><time>2026-03-28T09:46:16.804Z</time></trkpt><trkpt lat="40.1535488" lon="9.5077374"><ele>1025.2</ele><time>2026-03-28T09:46:17.808Z</time></trkpt><trkpt lat="40.1534773" lon="9.5077397"><ele>1025.0</ele><time>2026-03-28T09:46:18.806Z</time></trkpt><trkpt lat="40.1533692" lon="9.5077476"><ele>1025.0</ele><time>2026-03-28T09:46:20.808Z</time></trkpt><trkpt lat="40.1533096" lon="9.5078217"><ele>1025.0</ele><time>2026-03-28T09:46:23.809Z</time></trkpt><trkpt lat="40.1532864" lon="9.5079399"><ele>1025.0</ele><time>2026-03-28T09:46:25.805Z</time></trkpt><trkpt lat="40.1532647" lon="9.5080396"><ele>1025.0</ele><time>2026-03-28T09:46:26.806Z</time></trkpt><trkpt lat="40.1532347" lon="9.5081518"><ele>1025.0</ele><time>2026-03-28T09:46:27.809Z</time></trkpt><trkpt lat="40.1532063" lon="9.5082533"><ele>1025.0</ele><time>2026-03-28T09:46:28.81Z</time></trkpt><trkpt lat="40.1531769" lon="9.5083553"><ele>1019.4</ele><time>2026-03-28T09:46:29.805Z</time></trkpt><trkpt lat="40.1531405" lon="9.5084635"><ele>1013.8</ele><time>2026-03-28T09:46:30.81Z</time></trkpt><trkpt lat="40.153108" lon="9.5085772"><ele>1008.2</ele><time>2026-03-28T09:46:31.804Z</time></trkpt><trkpt lat="40.1530762" lon="9.5086969"><ele>1002.6</ele><time>2026-03-28T09:46:32.805Z</time></trkpt><trkpt lat="40.153042" lon="9.5088288"><ele>997.0</ele><time>2026-03-28T09:46:33.805Z</time></trkpt><trkpt lat="40.1530054" lon="9.5089693"><ele>995.25</ele><time>2026-03-28T09:46:34.806Z</time></trkpt><trkpt lat="40.1529653" lon="9.5091157"><ele>993.5</ele><time>2026-03-28T09:46:35.808Z</time></trkpt><trkpt lat="40.1529214" lon="9.509267"><ele>991.75</ele><time>2026-03-28T09:46:36.804Z</time></trkpt><trkpt lat="40.1528723" lon="9.5094127"><ele>990.0</ele><time>2026-03-28T09:46:37.8Z</time></trkpt><trkpt lat="40.1528289" lon="9.5095617"><ele>990.4</ele><time>2026-03-28T09:46:38.807Z</time></trkpt><trkpt lat="40.1527872" lon="9.5097116"><ele>990.8</ele><time>2026-03-28T09:46:39.813Z</time></trkpt><trkpt lat="40.1527535" lon="9.5098565"><ele>991.2</ele><time>2026-03-28T09:46:40.81Z</time></trkpt><trkpt lat="40.152729" lon="9.5099836"><ele>991.6</ele><time>2026-03-28T09:46:41.808Z</time></trkpt><trkpt lat="40.1527066" lon="9.5101173"><ele>992.0</ele><time>2026-03-28T09:46:42.808Z</time></trkpt><trkpt lat="40.1526717" lon="9.5102403"><ele>992.0</ele><time>2026-03-28T09:46:43.806Z</time></trkpt><trkpt lat="40.1526221" lon="9.5103617"><ele>992.0</ele><time>2026-03-28T09:46:44.807Z</time></trkpt><trkpt lat="40.1525515" lon="9.5104803"><ele>992.0</ele><time>2026-03-28T09:46:45.808Z</time></trkpt><trkpt lat="40.1524722" lon="9.5105972"><ele>992.0</ele><time>2026-03-28T09:46:46.812Z</time></trkpt><trkpt lat="40.1523762" lon="9.5107038"><ele>991.25</ele><time>2026-03-28T09:46:47.817Z</time></trkpt><trkpt lat="40.1522727" lon="9.5107974"><ele>990.5</ele><time>2026-03-28T09:46:48.81Z</time></trkpt><trkpt lat="40.1521559" lon="9.5108871"><ele>989.75</ele><time>2026-03-28T09:46:49.822Z</time></trkpt><trkpt lat="40.1520543" lon="9.5109981"><ele>989.0</ele><time>2026-03-28T09:46:50.809Z</time></trkpt><trkpt lat="40.1519581" lon="9.5111094"><ele>989.0</ele><time>2026-03-28T09:46:51.813Z</time></trkpt><trkpt lat="40.1518593" lon="9.5112093"><ele>989.0</ele><time>2026-03-28T09:46:52.802Z</time></trkpt><trkpt lat="40.1517686" lon="9.5113053"><ele>989.0</ele><time>2026-03-28T09:46:53.814Z</time></trkpt><trkpt lat="40.1516836" lon="9.5114073"><ele>989.0</ele><time>2026-03-28T09:46:54.807Z</time></trkpt><trkpt lat="40.1515852" lon="9.5114959"><ele>991.5</ele><time>2026-03-28T09:46:55.804Z</time></trkpt><trkpt lat="40.1514703" lon="9.5115637"><ele>994.0</ele><time>2026-03-28T09:46:56.815Z</time></trkpt><trkpt lat="40.15135" lon="9.511627"><ele>996.5</ele><time>2026-03-28T09:46:57.805Z</time></trkpt><trkpt lat="40.151239" lon="9.5117026"><ele>999.0</ele><time>2026-03-28T09:46:58.804Z</time></trkpt><trkpt lat="40.1511452" lon="9.5117945"><ele>999.0</ele><time>2026-03-28T09:46:59.801Z</time></trkpt><trkpt lat="40.1510702" lon="9.5118956"><ele>999.0</ele><time>2026-03-28T09:47:00.809Z</time></trkpt><trkpt lat="40.1510094" lon="9.5120222"><ele>999.0</ele><time>2026-03-28T09:47:01.807Z</time></trkpt><trkpt lat="40.1509573" lon="9.5121565"><ele>999.0</ele><time>2026-03-28T09:47:02.805Z</time></trkpt><trkpt lat="40.1509009" lon="9.5122849"><ele>997.4000000000001</ele><time>2026-03-28T09:47:03.808Z</time></trkpt><trkpt lat="40.1508387" lon="9.5123888"><ele>995.8000000000001</ele><time>2026-03-28T09:47:04.806Z</time></trkpt><trkpt lat="40.150754" lon="9.5124904"><ele>994.1999999999999</ele><time>2026-03-28T09:47:05.812Z</time></trkpt><trkpt lat="40.1506717" lon="9.5125889"><ele>992.5999999999999</ele><time>2026-03-28T09:47:06.807Z</time></trkpt><trkpt lat="40.1505803" lon="9.5126909"><ele>991.0</ele><time>2026-03-28T09:47:07.805Z</time></trkpt><trkpt lat="40.1505172" lon="9.5127899"><ele>992.9999999999999</ele><time>2026-03-28T09:47:08.809Z</time></trkpt><trkpt lat="40.1504687" lon="9.5128962"><ele>995.0</ele><time>2026-03-28T09:47:09.833Z</time></trkpt><trkpt lat="40.1504283" lon="9.5130086"><ele>997.0</ele><time>2026-03-28T09:47:10.803Z</time></trkpt><trkpt lat="40.1504083" lon="9.5131191"><ele>999.0</ele><time>2026-03-28T09:47:11.804Z</time></trkpt><trkpt lat="40.1504136" lon="9.513219"><ele>1000.9999999999999</ele><time>2026-03-28T09:47:12.817Z</time></trkpt><trkpt lat="40.1504354" lon="9.5133206"><ele>1003.0</ele><time>2026-03-28T09:47:13.819Z</time></trkpt><trkpt lat="40.1505053" lon="9.5134181"><ele>1003.0</ele><time>2026-03-28T09:47:14.812Z</time></trkpt><trkpt lat="40.1505867" lon="9.513494"><ele>1003.0</ele><time>2026-03-28T09:47:15.821Z</time></trkpt><trkpt lat="40.1506667" lon="9.5135956"><ele>1003.0</ele><time>2026-03-28T09:47:16.811Z</time></trkpt><trkpt lat="40.1507454" lon="9.5137091"><ele>1003.0</ele><time>2026-03-28T09:47:17.812Z</time></trkpt><trkpt lat="40.1508117" lon="9.5138311"><ele>1003.0</ele><time>2026-03-28T09:47:18.81Z</time></trkpt><trkpt lat="40.1508754" lon="9.5139513"><ele>1000.25</ele><time>2026-03-28T09:47:19.817Z</time></trkpt><trkpt lat="40.1509224" lon="9.5141007"><ele>997.5</ele><time>2026-03-28T09:47:20.809Z</time></trkpt><trkpt lat="40.1509637" lon="9.514253"><ele>994.75</ele><time>2026-03-28T09:47:21.817Z</time></trkpt><trkpt lat="40.1510096" lon="9.5143869"><ele>992.0</ele><time>2026-03-28T09:47:22.813Z</time></trkpt><trkpt lat="40.1510541" lon="9.5144905"><ele>995.2</ele><time>2026-03-28T09:47:23.812Z</time></trkpt><trkpt lat="40.1511226" lon="9.514576"><ele>998.4000000000001</ele><time>2026-03-28T09:47:24.815Z</time></trkpt><trkpt lat="40.1512094" lon="9.5146538"><ele>1001.5999999999999</ele><time>2026-03-28T09:47:25.804Z</time></trkpt><trkpt lat="40.1513041" lon="9.5147141"><ele>1004.8</ele><time>2026-03-28T09:47:26.81Z</time></trkpt><trkpt lat="40.1514043" lon="9.5147621"><ele>1008.0</ele><time>2026-03-28T09:47:27.81Z</time></trkpt><trkpt lat="40.1514925" lon="9.5148142"><ele>1001.25</ele><time>2026-03-28T09:47:28.807Z</time></trkpt><trkpt lat="40.1515795" lon="9.5148919"><ele>994.5</ele><time>2026-03-28T09:47:29.812Z</time></trkpt><trkpt lat="40.1516675" lon="9.5149728"><ele>987.75</ele><time>2026-03-28T09:47:30.809Z</time></trkpt><trkpt lat="40.1517531" lon="9.5150911"><ele>981.0</ele><time>2026-03-28T09:47:31.807Z</time></trkpt><trkpt lat="40.1518155" lon="9.5152294"><ele>981.0</ele><time>2026-03-28T09:47:32.809Z</time></trkpt><trkpt lat="40.1518766" lon="9.5153657"><ele>980.9999999999999</ele><time>2026-03-28T09:47:33.809Z</time></trkpt><trkpt lat="40.1519161" lon="9.515468"><ele>980.9999999999999</ele><time>2026-03-28T09:47:34.807Z</time></trkpt><trkpt lat="40.1519509" lon="9.5155693"><ele>981.0</ele><time>2026-03-28T09:47:35.809Z</time></trkpt><trkpt lat="40.1519803" lon="9.5156902"><ele>981.0</ele><time>2026-03-28T09:47:36.815Z</time></trkpt><trkpt lat="40.15201" lon="9.5158061"><ele>981.1666666666666</ele><time>2026-03-28T09:47:37.811Z</time></trkpt><trkpt lat="40.1520394" lon="9.5159154"><ele>981.3333333333333</ele><time>2026-03-28T09:47:38.818Z</time></trkpt><trkpt lat="40.1520633" lon="9.5160168"><ele>981.5</ele><time>2026-03-28T09:47:39.812Z</time></trkpt><trkpt lat="40.1520772" lon="9.5161112"><ele>981.6666666666666</ele><time>2026-03-28T09:47:40.802Z</time></trkpt><trkpt lat="40.1520812" lon="9.5161994"><ele>981.8333333333333</ele><time>2026-03-28T09:47:41.815Z</time></trkpt><trkpt lat="40.1520713" lon="9.5163008"><ele>982.0</ele><time>2026-03-28T09:47:42.813Z</time></trkpt><trkpt lat="40.1520535" lon="9.5164182"><ele>982.0</ele><time>2026-03-28T09:47:43.809Z</time></trkpt><trkpt lat="40.1520233" lon="9.5165423"><ele>982.0</ele><time>2026-03-28T09:47:44.811Z</time></trkpt><trkpt lat="40.1519861" lon="9.5166664"><ele>982.0</ele><time>2026-03-28T09:47:45.803Z</time></trkpt><trkpt lat="40.1519222" lon="9.5167913"><ele>982.0</ele><time>2026-03-28T09:47:46.818Z</time></trkpt><trkpt lat="40.1518459" lon="9.5169131"><ele>982.0</ele><time>2026-03-28T09:47:47.813Z</time></trkpt><trkpt lat="40.1517653" lon="9.5170175"><ele>979.75</ele><time>2026-03-28T09:47:48.812Z</time></trkpt><trkpt lat="40.151666" lon="9.5171167"><ele>977.5</ele><time>2026-03-28T09:47:49.805Z</time></trkpt><trkpt lat="40.1515498" lon="9.5172159"><ele>975.25</ele><time>2026-03-28T09:47:50.816Z</time></trkpt><trkpt lat="40.1514517" lon="9.5172896"><ele>973.0</ele><time>2026-03-28T09:47:51.811Z</time></trkpt><trkpt lat="40.1513293" lon="9.5173843"><ele>973.0</ele><time>2026-03-28T09:47:52.809Z</time></trkpt><trkpt lat="40.1511984" lon="9.5174626"><ele>973.0</ele><time>2026-03-28T09:47:53.817Z</time></trkpt><trkpt lat="40.1510799" lon="9.5175386"><ele>973.0</ele><time>2026-03-28T09:47:54.813Z</time></trkpt><trkpt lat="40.1509757" lon="9.5176144"><ele>973.0</ele><time>2026-03-28T09:47:55.806Z</time></trkpt><trkpt lat="40.150875" lon="9.5176998"><ele>973.0</ele><time>2026-03-28T09:47:56.816Z</time></trkpt><trkpt lat="40.1508023" lon="9.5178201"><ele>973.0</ele><time>2026-03-28T09:47:57.816Z</time></trkpt><trkpt lat="40.1507299" lon="9.5179513"><ele>973.0</ele><time>2026-03-28T09:47:58.814Z</time></trkpt><trkpt lat="40.1506461" lon="9.5180767"><ele>973.0</ele><time>2026-03-28T09:47:59.818Z</time></trkpt><trkpt lat="40.1505463" lon="9.5181892"><ele>971.0</ele><time>2026-03-28T09:48:00.808Z</time></trkpt><trkpt lat="40.1504506" lon="9.5182882"><ele>969.0</ele><time>2026-03-28T09:48:01.809Z</time></trkpt><trkpt lat="40.1503644" lon="9.5183758"><ele>967.0</ele><time>2026-03-28T09:48:02.813Z</time></trkpt><trkpt lat="40.1502878" lon="9.5184527"><ele>965.0</ele><time>2026-03-28T09:48:03.809Z</time></trkpt><trkpt lat="40.150224" lon="9.5185208"><ele>963.0</ele><time>2026-03-28T09:48:04.812Z</time></trkpt><trkpt lat="40.1501713" lon="9.5185921"><ele>963.0</ele><time>2026-03-28T09:48:05.82Z</time></trkpt><trkpt lat="40.1501282" lon="9.5186631"><ele>963.0</ele><time>2026-03-28T09:48:06.804Z</time></trkpt><trkpt lat="40.1501031" lon="9.5188128"><ele>963.0</ele><time>2026-03-28T09:48:08.812Z</time></trkpt><trkpt lat="40.150096" lon="9.5188973"><ele>963.0</ele><time>2026-03-28T09:48:09.807Z</time></trkpt><trkpt lat="40.150095" lon="9.5190011"><ele>963.0</ele><time>2026-03-28T09:48:11.806Z</time></trkpt><trkpt lat="40.1500285" lon="9.5190775"><ele>963.0</ele><time>2026-03-28T09:48:13.805Z</time></trkpt><trkpt lat="40.1499377" lon="9.5191306"><ele>960.4</ele><time>2026-03-28T09:48:15.814Z</time></trkpt><trkpt lat="40.1498413" lon="9.519189"><ele>957.8</ele><time>2026-03-28T09:48:17.802Z</time></trkpt><trkpt lat="40.1497484" lon="9.5192465"><ele>955.2</ele><time>2026-03-28T09:48:19.814Z</time></trkpt><trkpt lat="40.1496475" lon="9.5193108"><ele>952.6</ele><time>2026-03-28T09:48:21.837Z</time></trkpt><trkpt lat="40.1495417" lon="9.5193691"><ele>950.0</ele><time>2026-03-28T09:48:23.811Z</time></trkpt><trkpt lat="40.1494331" lon="9.5193725"><ele>950.0</ele><time>2026-03-28T09:48:25.814Z</time></trkpt><trkpt lat="40.1493213" lon="9.5193253"><ele>950.0</ele><time>2026-03-28T09:48:27.814Z</time></trkpt><trkpt lat="40.1492591" lon="9.5192608"><ele>950.0</ele><time>2026-03-28T09:48:28.815Z</time></trkpt><trkpt lat="40.1491903" lon="9.519181"><ele>950.0</ele><time>2026-03-28T09:48:29.812Z</time></trkpt><trkpt lat="40.1491149" lon="9.5190927"><ele>950.0</ele><time>2026-03-28T09:48:30.805Z</time></trkpt><trkpt lat="40.1490315" lon="9.5190066"><ele>948.5</ele><time>2026-03-28T09:48:31.805Z</time></trkpt><trkpt lat="40.1489362" lon="9.5189344"><ele>947.0</ele><time>2026-03-28T09:48:32.812Z</time></trkpt><trkpt lat="40.1488315" lon="9.5188672"><ele>945.5</ele><time>2026-03-28T09:48:33.814Z</time></trkpt><trkpt lat="40.1487225" lon="9.5188166"><ele>944.0</ele><time>2026-03-28T09:48:34.82Z</time></trkpt><trkpt lat="40.1486143" lon="9.5187937"><ele>944.0</ele><time>2026-03-28T09:48:35.815Z</time></trkpt><trkpt lat="40.1485063" lon="9.5187933"><ele>944.0000000000001</ele><time>2026-03-28T09:48:36.812Z</time></trkpt><trkpt lat="40.1484013" lon="9.5187947"><ele>944.0000000000001</ele><time>2026-03-28T09:48:37.809Z</time></trkpt><trkpt lat="40.1483023" lon="9.5187982"><ele>944.0</ele><time>2026-03-28T09:48:38.806Z</time></trkpt><trkpt lat="40.1482031" lon="9.5187901"><ele>944.0</ele><time>2026-03-28T09:48:39.814Z</time></trkpt><trkpt lat="40.1481074" lon="9.5187746"><ele>945.2</ele><time>2026-03-28T09:48:40.81Z</time></trkpt><trkpt lat="40.1480136" lon="9.5187598"><ele>946.4000000000001</ele><time>2026-03-28T09:48:41.81Z</time></trkpt><trkpt lat="40.1479232" lon="9.5187246"><ele>947.6</ele><time>2026-03-28T09:48:42.816Z</time></trkpt><trkpt lat="40.1478334" lon="9.5186774"><ele>948.8</ele><time>2026-03-28T09:48:43.812Z</time></trkpt><trkpt lat="40.1477474" lon="9.5186229"><ele>950.0</ele><time>2026-03-28T09:48:44.818Z</time></trkpt><trkpt lat="40.1476648" lon="9.5185688"><ele>950.0000000000001</ele><time>2026-03-28T09:48:45.809Z</time></trkpt><trkpt lat="40.1475858" lon="9.5185172"><ele>950.0</ele><time>2026-03-28T09:48:46.806Z</time></trkpt><trkpt lat="40.1475093" lon="9.5184713"><ele>950.0</ele><time>2026-03-28T09:48:47.808Z</time></trkpt><trkpt lat="40.1474323" lon="9.5184293"><ele>950.0</ele><time>2026-03-28T09:48:48.809Z</time></trkpt><trkpt lat="40.1473605" lon="9.5183873"><ele>950.0000000000001</ele><time>2026-03-28T09:48:49.806Z</time></trkpt><trkpt lat="40.1472926" lon="9.5183383"><ele>950.0</ele><time>2026-03-28T09:48:50.806Z</time></trkpt><trkpt lat="40.1472305" lon="9.5182765"><ele>948.6666666666667</ele><time>2026-03-28T09:48:51.804Z</time></trkpt><trkpt lat="40.147181" lon="9.5181943"><ele>947.3333333333334</ele><time>2026-03-28T09:48:52.807Z</time></trkpt><trkpt lat="40.1471369" lon="9.5180954"><ele>946.0</ele><time>2026-03-28T09:48:53.806Z</time></trkpt><trkpt lat="40.1470947" lon="9.5179895"><ele>944.6666666666667</ele><time>2026-03-28T09:48:54.803Z</time></trkpt><trkpt lat="40.1470531" lon="9.5178869"><ele>943.3333333333334</ele><time>2026-03-28T09:48:55.806Z</time></trkpt><trkpt lat="40.1470125" lon="9.5177898"><ele>942.0</ele><time>2026-03-28T09:48:56.801Z</time></trkpt><trkpt lat="40.1469686" lon="9.5176953"><ele>942.0</ele><time>2026-03-28T09:48:57.805Z</time></trkpt><trkpt lat="40.1469257" lon="9.5176066"><ele>942.0</ele><time>2026-03-28T09:48:58.805Z</time></trkpt><trkpt lat="40.1468944" lon="9.5175124"><ele>942.0</ele><time>2026-03-28T09:48:59.805Z</time></trkpt><trkpt lat="40.1468709" lon="9.5174152"><ele>942.0</ele><time>2026-03-28T09:49:00.808Z</time></trkpt><trkpt lat="40.1468459" lon="9.5173383"><ele>942.0</ele><time>2026-03-28T09:49:01.804Z</time></trkpt><trkpt lat="40.1467674" lon="9.5172354"><ele>942.0</ele><time>2026-03-28T09:49:03.804Z</time></trkpt><trkpt lat="40.1466674" lon="9.5172332"><ele>942.0</ele><time>2026-03-28T09:49:05.809Z</time></trkpt><trkpt lat="40.1466146" lon="9.5172992"><ele>942.0</ele><time>2026-03-28T09:49:06.81Z</time></trkpt><trkpt lat="40.1465525" lon="9.5174009"><ele>942.0</ele><time>2026-03-28T09:49:07.804Z</time></trkpt><trkpt lat="40.1465035" lon="9.517507"><ele>942.0</ele><time>2026-03-28T09:49:08.803Z</time></trkpt><trkpt lat="40.1464676" lon="9.5176149"><ele>942.0</ele><time>2026-03-28T09:49:09.803Z</time></trkpt><trkpt lat="40.1464392" lon="9.5177204"><ele>942.0</ele><time>2026-03-28T09:49:10.811Z</time></trkpt><trkpt lat="40.1464094" lon="9.5178274"><ele>941.4000000000001</ele><time>2026-03-28T09:49:11.804Z</time></trkpt><trkpt lat="40.1463748" lon="9.5179378"><ele>940.8000000000001</ele><time>2026-03-28T09:49:12.801Z</time></trkpt><trkpt lat="40.1463426" lon="9.5180463"><ele>940.2</ele><time>2026-03-28T09:49:13.804Z</time></trkpt><trkpt lat="40.1462807" lon="9.5181363"><ele>939.6</ele><time>2026-03-28T09:49:14.803Z</time></trkpt><trkpt lat="40.1462243" lon="9.5182394"><ele>939.0</ele><time>2026-03-28T09:49:15.802Z</time></trkpt><trkpt lat="40.1461669" lon="9.5183466"><ele>939.0</ele><time>2026-03-28T09:49:16.807Z</time></trkpt><trkpt lat="40.1461352" lon="9.5184623"><ele>939.0</ele><time>2026-03-28T09:49:17.803Z</time></trkpt><trkpt lat="40.1461054" lon="9.5185675"><ele>939.0</ele><time>2026-03-28T09:49:18.801Z</time></trkpt><trkpt lat="40.1460772" lon="9.5186476"><ele>939.0</ele><time>2026-03-28T09:49:19.799Z</time></trkpt><trkpt lat="40.1460289" lon="9.5187709"><ele>939.0</ele><time>2026-03-28T09:49:21.802Z</time></trkpt><trkpt lat="40.1459862" lon="9.5188616"><ele>939.0</ele><time>2026-03-28T09:49:23.81Z</time></trkpt><trkpt lat="40.1459326" lon="9.5189186"><ele>938.0</ele><time>2026-03-28T09:49:38.809Z</time></trkpt><trkpt lat="40.1458989" lon="9.5190107"><ele>937.0000000000001</ele><time>2026-03-28T09:49:42.81Z</time></trkpt><trkpt lat="40.1457958" lon="9.5190758"><ele>936.0000000000001</ele><time>2026-03-28T09:50:17.801Z</time></trkpt><trkpt lat="40.1457167" lon="9.5191346"><ele>935.0</ele><time>2026-03-28T09:50:18.805Z</time></trkpt><trkpt lat="40.1456462" lon="9.5192035"><ele>934.0</ele><time>2026-03-28T09:50:19.801Z</time></trkpt><trkpt lat="40.1455728" lon="9.519276"><ele>934.0</ele><time>2026-03-28T09:50:20.811Z</time></trkpt><trkpt lat="40.1455151" lon="9.5194037"><ele>934.0</ele><time>2026-03-28T09:50:21.803Z</time></trkpt><trkpt lat="40.1454568" lon="9.5195464"><ele>934.0</ele><time>2026-03-28T09:50:22.811Z</time></trkpt><trkpt lat="40.1453999" lon="9.5196971"><ele>934.0</ele><time>2026-03-28T09:50:23.805Z</time></trkpt><trkpt lat="40.1453382" lon="9.5198359"><ele>933.0</ele><time>2026-03-28T09:50:24.803Z</time></trkpt><trkpt lat="40.1452708" lon="9.5199592"><ele>932.0000000000001</ele><time>2026-03-28T09:50:25.809Z</time></trkpt><trkpt lat="40.1452053" lon="9.5200785"><ele>931.0000000000001</ele><time>2026-03-28T09:50:26.801Z</time></trkpt><trkpt lat="40.1451266" lon="9.5201663"><ele>930.0</ele><time>2026-03-28T09:50:27.803Z</time></trkpt><trkpt lat="40.1450566" lon="9.520246"><ele>929.0</ele><time>2026-03-28T09:50:28.807Z</time></trkpt><trkpt lat="40.1450057" lon="9.5203449"><ele>927.8000000000001</ele><time>2026-03-28T09:50:29.808Z</time></trkpt><trkpt lat="40.1449844" lon="9.5204713"><ele>926.6000000000001</ele><time>2026-03-28T09:50:30.805Z</time></trkpt><trkpt lat="40.1449945" lon="9.5205976"><ele>925.4</ele><time>2026-03-28T09:50:31.806Z</time></trkpt><trkpt lat="40.1450191" lon="9.5207378"><ele>924.2</ele><time>2026-03-28T09:50:32.812Z</time></trkpt><trkpt lat="40.1450449" lon="9.5208757"><ele>923.0</ele><time>2026-03-28T09:50:33.804Z</time></trkpt><trkpt lat="40.1450604" lon="9.5210068"><ele>923.0</ele><time>2026-03-28T09:50:34.821Z</time></trkpt><trkpt lat="40.1450401" lon="9.5211399"><ele>923.0</ele><time>2026-03-28T09:50:35.804Z</time></trkpt><trkpt lat="40.1450173" lon="9.5212777"><ele>923.0</ele><time>2026-03-28T09:50:36.807Z</time></trkpt><trkpt lat="40.1450102" lon="9.5214412"><ele>923.0</ele><time>2026-03-28T09:50:37.801Z</time></trkpt><trkpt lat="40.1449993" lon="9.5216186"><ele>921.8</ele><time>2026-03-28T09:50:38.804Z</time></trkpt><trkpt lat="40.1449894" lon="9.5217687"><ele>920.5999999999999</ele><time>2026-03-28T09:50:39.799Z</time></trkpt><trkpt lat="40.1449487" lon="9.5218908"><ele>919.4000000000001</ele><time>2026-03-28T09:50:40.806Z</time></trkpt><trkpt lat="40.1448935" lon="9.5220219"><ele>918.2</ele><time>2026-03-28T09:50:41.809Z</time></trkpt><trkpt lat="40.1448622" lon="9.5221571"><ele>917.0</ele><time>2026-03-28T09:50:42.805Z</time></trkpt><trkpt lat="40.1448529" lon="9.5223056"><ele>918.0</ele><time>2026-03-28T09:50:43.8Z</time></trkpt><trkpt lat="40.1448438" lon="9.5224631"><ele>919.0</ele><time>2026-03-28T09:50:44.806Z</time></trkpt><trkpt lat="40.1448469" lon="9.5226307"><ele>920.0</ele><time>2026-03-28T09:50:45.805Z</time></trkpt><trkpt lat="40.1448276" lon="9.5228044"><ele>921.0</ele><time>2026-03-28T09:50:46.805Z</time></trkpt><trkpt lat="40.1447831" lon="9.5229776"><ele>921.0</ele><time>2026-03-28T09:50:47.803Z</time></trkpt><trkpt lat="40.144727" lon="9.5231669"><ele>921.0</ele><time>2026-03-28T09:50:48.808Z</time></trkpt><trkpt lat="40.1446749" lon="9.5233613"><ele>921.0</ele><time>2026-03-28T09:50:49.805Z</time></trkpt><trkpt lat="40.1446322" lon="9.5235463"><ele>921.0</ele><time>2026-03-28T09:50:50.804Z</time></trkpt><trkpt lat="40.1446001" lon="9.5237232"><ele>921.0</ele><time>2026-03-28T09:50:51.803Z</time></trkpt><trkpt lat="40.1445612" lon="9.5238882"><ele>921.0</ele><time>2026-03-28T09:50:52.803Z</time></trkpt><trkpt lat="40.1444831" lon="9.5240361"><ele>921.0</ele><time>2026-03-28T09:50:53.798Z</time></trkpt><trkpt lat="40.1443964" lon="9.5242018"><ele>916.3333333333333</ele><time>2026-03-28T09:50:54.8Z</time></trkpt><trkpt lat="40.1443125" lon="9.5243892"><ele>911.6666666666666</ele><time>2026-03-28T09:50:55.801Z</time></trkpt><trkpt lat="40.1442217" lon="9.5245843"><ele>907.0</ele><time>2026-03-28T09:50:56.803Z</time></trkpt><trkpt lat="40.1441306" lon="9.5247796"><ele>907.0</ele><time>2026-03-28T09:50:57.801Z</time></trkpt><trkpt lat="40.1440531" lon="9.5249593"><ele>907.0</ele><time>2026-03-28T09:50:58.804Z</time></trkpt><trkpt lat="40.1439702" lon="9.525137"><ele>907.0</ele><time>2026-03-28T09:50:59.801Z</time></trkpt><trkpt lat="40.1439015" lon="9.5253092"><ele>907.0</ele><time>2026-03-28T09:51:00.807Z</time></trkpt><trkpt lat="40.1438369" lon="9.5254529"><ele>907.0</ele><time>2026-03-28T09:51:01.802Z</time></trkpt><trkpt lat="40.1437625" lon="9.5255696"><ele>907.0</ele><time>2026-03-28T09:51:02.805Z</time></trkpt><trkpt lat="40.1436998" lon="9.5256733"><ele>907.0</ele><time>2026-03-28T09:51:03.806Z</time></trkpt><trkpt lat="40.1436212" lon="9.5257365"><ele>907.0</ele><time>2026-03-28T09:51:04.8Z</time></trkpt><trkpt lat="40.1435297" lon="9.525806"><ele>906.9999999999999</ele><time>2026-03-28T09:51:05.802Z</time></trkpt><trkpt lat="40.1434569" lon="9.5258767"><ele>907.0</ele><time>2026-03-28T09:51:06.801Z</time></trkpt><trkpt lat="40.1433998" lon="9.5259487"><ele>907.0</ele><time>2026-03-28T09:51:07.813Z</time></trkpt><trkpt lat="40.1433548" lon="9.5260195"><ele>907.0</ele><time>2026-03-28T09:51:08.814Z</time></trkpt><trkpt lat="40.1433075" lon="9.5261137"><ele>906.9999999999999</ele><time>2026-03-28T09:51:09.8Z</time></trkpt><trkpt lat="40.1432581" lon="9.526219"><ele>907.0</ele><time>2026-03-28T09:51:10.808Z</time></trkpt><trkpt lat="40.1431875" lon="9.5263199"><ele>908.0</ele><time>2026-03-28T09:51:11.807Z</time></trkpt><trkpt lat="40.1431149" lon="9.5264034"><ele>909.0</ele><time>2026-03-28T09:51:12.809Z</time></trkpt><trkpt lat="40.1430198" lon="9.5264629"><ele>910.0</ele><time>2026-03-28T09:51:13.815Z</time></trkpt><trkpt lat="40.1429269" lon="9.526519"><ele>911.0</ele><time>2026-03-28T09:51:14.805Z</time></trkpt><trkpt lat="40.1428366" lon="9.526574"><ele>912.0</ele><time>2026-03-28T09:51:15.808Z</time></trkpt><trkpt lat="40.1427547" lon="9.5266296"><ele>912.0</ele><time>2026-03-28T09:51:16.809Z</time></trkpt><trkpt lat="40.1426664" lon="9.5266893"><ele>912.0</ele><time>2026-03-28T09:51:17.81Z</time></trkpt><trkpt lat="40.142567" lon="9.526773"><ele>912.0</ele><time>2026-03-28T09:51:18.804Z</time></trkpt><trkpt lat="40.1424614" lon="9.5268594"><ele>912.0</ele><time>2026-03-28T09:51:19.808Z</time></trkpt><trkpt lat="40.1423599" lon="9.5269423"><ele>913.4000000000001</ele><time>2026-03-28T09:51:20.81Z</time></trkpt><trkpt lat="40.1422571" lon="9.5270219"><ele>914.8000000000001</ele><time>2026-03-28T09:51:21.802Z</time></trkpt><trkpt lat="40.1421548" lon="9.5270969"><ele>916.2</ele><time>2026-03-28T09:51:22.805Z</time></trkpt><trkpt lat="40.1420617" lon="9.5271525"><ele>917.6</ele><time>2026-03-28T09:51:23.802Z</time></trkpt><trkpt lat="40.1419709" lon="9.5272111"><ele>919.0</ele><time>2026-03-28T09:51:24.81Z</time></trkpt><trkpt lat="40.1418841" lon="9.5272694"><ele>919.0</ele><time>2026-03-28T09:51:25.812Z</time></trkpt><trkpt lat="40.1417927" lon="9.5273303"><ele>919.0000000000001</ele><time>2026-03-28T09:51:26.805Z</time></trkpt><trkpt lat="40.1417" lon="9.5274039"><ele>919.0000000000001</ele><time>2026-03-28T09:51:27.8Z</time></trkpt><trkpt lat="40.1416139" lon="9.5274629"><ele>919.0</ele><time>2026-03-28T09:51:28.802Z</time></trkpt><trkpt lat="40.1415401" lon="9.5274997"><ele>919.0</ele><time>2026-03-28T09:51:29.797Z</time></trkpt><trkpt lat="40.1414611" lon="9.5275316"><ele>915.8000000000001</ele><time>2026-03-28T09:51:30.804Z</time></trkpt><trkpt lat="40.1413851" lon="9.5275627"><ele>912.6000000000001</ele><time>2026-03-28T09:51:31.803Z</time></trkpt><trkpt lat="40.141308" lon="9.5276194"><ele>909.4</ele><time>2026-03-28T09:51:32.801Z</time></trkpt><trkpt lat="40.1412314" lon="9.5276923"><ele>906.2</ele><time>2026-03-28T09:51:33.805Z</time></trkpt><trkpt lat="40.141157" lon="9.5277632"><ele>903.0</ele><time>2026-03-28T09:51:34.806Z</time></trkpt><trkpt lat="40.1410629" lon="9.5278364"><ele>906.5999999999999</ele><time>2026-03-28T09:51:35.808Z</time></trkpt><trkpt lat="40.1409606" lon="9.527913"><ele>910.1999999999999</ele><time>2026-03-28T09:51:36.804Z</time></trkpt><trkpt lat="40.1408634" lon="9.5279856"><ele>913.8</ele><time>2026-03-28T09:51:37.805Z</time></trkpt><trkpt lat="40.1407643" lon="9.5280341"><ele>917.4</ele><time>2026-03-28T09:51:38.801Z</time></trkpt><trkpt lat="40.1406607" lon="9.528067"><ele>921.0</ele><time>2026-03-28T09:51:39.807Z</time></trkpt><trkpt lat="40.1405569" lon="9.5280878"><ele>921.0</ele><time>2026-03-28T09:51:40.8Z</time></trkpt><trkpt lat="40.1404418" lon="9.5280943"><ele>920.9999999999999</ele><time>2026-03-28T09:51:41.804Z</time></trkpt><trkpt lat="40.1403204" lon="9.5281001"><ele>920.9999999999999</ele><time>2026-03-28T09:51:42.809Z</time></trkpt><trkpt lat="40.1402071" lon="9.5281"><ele>921.0</ele><time>2026-03-28T09:51:43.804Z</time></trkpt><trkpt lat="40.1401104" lon="9.5280875"><ele>921.0</ele><time>2026-03-28T09:51:44.814Z</time></trkpt><trkpt lat="40.1400133" lon="9.5280684"><ele>921.0</ele><time>2026-03-28T09:51:45.801Z</time></trkpt><trkpt lat="40.1399358" lon="9.5280229"><ele>920.9999999999999</ele><time>2026-03-28T09:51:46.801Z</time></trkpt><trkpt lat="40.1398338" lon="9.5279782"><ele>920.9999999999999</ele><time>2026-03-28T09:51:47.808Z</time></trkpt><trkpt lat="40.1397436" lon="9.5279484"><ele>921.0</ele><time>2026-03-28T09:51:48.805Z</time></trkpt><trkpt lat="40.1396588" lon="9.5279212"><ele>921.0</ele><time>2026-03-28T09:51:49.805Z</time></trkpt><trkpt lat="40.1395827" lon="9.5279399"><ele>918.5</ele><time>2026-03-28T09:51:50.811Z</time></trkpt><trkpt lat="40.1395052" lon="9.5279961"><ele>916.0</ele><time>2026-03-28T09:51:51.809Z</time></trkpt><trkpt lat="40.1394127" lon="9.5280818"><ele>913.5</ele><time>2026-03-28T09:51:52.805Z</time></trkpt><trkpt lat="40.1393084" lon="9.5281864"><ele>911.0</ele><time>2026-03-28T09:51:53.809Z</time></trkpt><trkpt lat="40.1392038" lon="9.528269"><ele>911.0</ele><time>2026-03-28T09:51:54.807Z</time></trkpt><trkpt lat="40.1391181" lon="9.528339"><ele>910.9999999999999</ele><time>2026-03-28T09:51:55.803Z</time></trkpt><trkpt lat="40.1390355" lon="9.5284159"><ele>910.9999999999999</ele><time>2026-03-28T09:51:56.813Z</time></trkpt><trkpt lat="40.1389602" lon="9.5284657"><ele>911.0</ele><time>2026-03-28T09:51:57.807Z</time></trkpt><trkpt lat="40.1388847" lon="9.5285022"><ele>911.0</ele><time>2026-03-28T09:51:58.806Z</time></trkpt><trkpt lat="40.1387972" lon="9.5285129"><ele>907.0</ele><time>2026-03-28T09:51:59.806Z</time></trkpt><trkpt lat="40.1387006" lon="9.528519"><ele>902.9999999999999</ele><time>2026-03-28T09:52:00.811Z</time></trkpt><trkpt lat="40.1386071" lon="9.5285601"><ele>898.9999999999999</ele><time>2026-03-28T09:52:01.804Z</time></trkpt><trkpt lat="40.1385117" lon="9.5286262"><ele>895.0</ele><time>2026-03-28T09:52:02.806Z</time></trkpt><trkpt lat="40.1384124" lon="9.5286795"><ele>891.0</ele><time>2026-03-28T09:52:03.809Z</time></trkpt><trkpt lat="40.1383105" lon="9.5287197"><ele>891.1999999999999</ele><time>2026-03-28T09:52:04.809Z</time></trkpt><trkpt lat="40.1382125" lon="9.5287574"><ele>891.3999999999999</ele><time>2026-03-28T09:52:05.811Z</time></trkpt><trkpt lat="40.1381203" lon="9.5288046"><ele>891.6</ele><time>2026-03-28T09:52:06.809Z</time></trkpt><trkpt lat="40.1380239" lon="9.5288704"><ele>891.8</ele><time>2026-03-28T09:52:07.807Z</time></trkpt><trkpt lat="40.137927" lon="9.5289438"><ele>892.0</ele><time>2026-03-28T09:52:08.802Z</time></trkpt><trkpt lat="40.1378327" lon="9.5290413"><ele>892.0</ele><time>2026-03-28T09:52:09.804Z</time></trkpt><trkpt lat="40.1377158" lon="9.5291172"><ele>892.0</ele><time>2026-03-28T09:52:10.803Z</time></trkpt><trkpt lat="40.1376119" lon="9.5291816"><ele>892.0</ele><time>2026-03-28T09:52:11.807Z</time></trkpt><trkpt lat="40.1375291" lon="9.5292546"><ele>892.0</ele><time>2026-03-28T09:52:12.812Z</time></trkpt><trkpt lat="40.1374558" lon="9.5293122"><ele>892.0</ele><time>2026-03-28T09:52:13.808Z</time></trkpt><trkpt lat="40.1373633" lon="9.5293487"><ele>888.0</ele><time>2026-03-28T09:52:14.805Z</time></trkpt><trkpt lat="40.1372465" lon="9.5293767"><ele>884.0</ele><time>2026-03-28T09:52:15.81Z</time></trkpt><trkpt lat="40.1371281" lon="9.5294078"><ele>880.0</ele><time>2026-03-28T09:52:16.808Z</time></trkpt><trkpt lat="40.1370162" lon="9.5294481"><ele>876.0</ele><time>2026-03-28T09:52:17.805Z</time></trkpt><trkpt lat="40.136912" lon="9.5295015"><ele>877.0</ele><time>2026-03-28T09:52:18.809Z</time></trkpt><trkpt lat="40.1367224" lon="9.5295688"><ele>878.0</ele><time>2026-03-28T09:52:20.807Z</time></trkpt><trkpt lat="40.1366345" lon="9.5296006"><ele>879.0</ele><time>2026-03-28T09:52:21.799Z</time></trkpt><trkpt lat="40.1365443" lon="9.5296399"><ele>880.0</ele><time>2026-03-28T09:52:22.801Z</time></trkpt><trkpt lat="40.1364527" lon="9.5296892"><ele>880.0</ele><time>2026-03-28T09:52:23.805Z</time></trkpt><trkpt lat="40.1363632" lon="9.5297433"><ele>880.0</ele><time>2026-03-28T09:52:24.807Z</time></trkpt><trkpt lat="40.136283" lon="9.5297972"><ele>880.0</ele><time>2026-03-28T09:52:25.803Z</time></trkpt><trkpt lat="40.1361978" lon="9.5298353"><ele>880.0</ele><time>2026-03-28T09:52:26.805Z</time></trkpt><trkpt lat="40.1360977" lon="9.5298589"><ele>880.0</ele><time>2026-03-28T09:52:27.801Z</time></trkpt><trkpt lat="40.1360115" lon="9.5298978"><ele>880.0</ele><time>2026-03-28T09:52:28.809Z</time></trkpt><trkpt lat="40.1359272" lon="9.5299424"><ele>880.0</ele><time>2026-03-28T09:52:29.804Z</time></trkpt><trkpt lat="40.1358264" lon="9.5300157"><ele>880.0</ele><time>2026-03-28T09:52:30.801Z</time></trkpt><trkpt lat="40.1357258" lon="9.5300801"><ele>880.0</ele><time>2026-03-28T09:52:31.8Z</time></trkpt><trkpt lat="40.1356384" lon="9.5301486"><ele>880.0</ele><time>2026-03-28T09:52:32.803Z</time></trkpt><trkpt lat="40.1355514" lon="9.5302202"><ele>879.5</ele><time>2026-03-28T09:52:33.806Z</time></trkpt><trkpt lat="40.135452" lon="9.5302693"><ele>879.0</ele><time>2026-03-28T09:52:34.804Z</time></trkpt><trkpt lat="40.1353581" lon="9.5303526"><ele>878.5</ele><time>2026-03-28T09:52:35.802Z</time></trkpt><trkpt lat="40.1352666" lon="9.5304476"><ele>878.0</ele><time>2026-03-28T09:52:36.802Z</time></trkpt><trkpt lat="40.1351847" lon="9.5305558"><ele>878.0</ele><time>2026-03-28T09:52:37.808Z</time></trkpt><trkpt lat="40.1351008" lon="9.5306647"><ele>878.0</ele><time>2026-03-28T09:52:38.806Z</time></trkpt><trkpt lat="40.1350206" lon="9.5307702"><ele>878.0</ele><time>2026-03-28T09:52:39.799Z</time></trkpt><trkpt lat="40.134942" lon="9.5308841"><ele>878.0</ele><time>2026-03-28T09:52:40.801Z</time></trkpt><trkpt lat="40.1348646" lon="9.5309896"><ele>874.2</ele><time>2026-03-28T09:52:41.802Z</time></trkpt><trkpt lat="40.1347917" lon="9.5310816"><ele>870.4</ele><time>2026-03-28T09:52:42.801Z</time></trkpt><trkpt lat="40.1347247" lon="9.5311702"><ele>866.6000000000001</ele><time>2026-03-28T09:52:43.8Z</time></trkpt><trkpt lat="40.1346475" lon="9.5312646"><ele>862.8000000000001</ele><time>2026-03-28T09:52:44.8Z</time></trkpt><trkpt lat="40.1345853" lon="9.5313653"><ele>859.0</ele><time>2026-03-28T09:52:45.799Z</time></trkpt><trkpt lat="40.1345307" lon="9.531486"><ele>859.0</ele><time>2026-03-28T09:52:46.801Z</time></trkpt><trkpt lat="40.1344786" lon="9.5316154"><ele>859.0000000000001</ele><time>2026-03-28T09:52:47.808Z</time></trkpt><trkpt lat="40.1344256" lon="9.5317484"><ele>859.0000000000001</ele><time>2026-03-28T09:52:48.804Z</time></trkpt><trkpt lat="40.1343864" lon="9.5318772"><ele>859.0</ele><time>2026-03-28T09:52:49.814Z</time></trkpt><trkpt lat="40.1343683" lon="9.5320136"><ele>859.0</ele><time>2026-03-28T09:52:50.809Z</time></trkpt><trkpt lat="40.1343552" lon="9.5321622"><ele>860.75</ele><time>2026-03-28T09:52:51.805Z</time></trkpt><trkpt lat="40.1343507" lon="9.5323196"><ele>862.5</ele><time>2026-03-28T09:52:52.801Z</time></trkpt><trkpt lat="40.1343344" lon="9.5324795"><ele>864.25</ele><time>2026-03-28T09:52:53.805Z</time></trkpt><trkpt lat="40.1343216" lon="9.5326382"><ele>866.0</ele><time>2026-03-28T09:52:54.807Z</time></trkpt><trkpt lat="40.1342973" lon="9.5327993"><ele>866.4</ele><time>2026-03-28T09:52:55.808Z</time></trkpt><trkpt lat="40.1342796" lon="9.5329372"><ele>866.8</ele><time>2026-03-28T09:52:56.807Z</time></trkpt><trkpt lat="40.1342694" lon="9.5330435"><ele>867.1999999999999</ele><time>2026-03-28T09:52:57.812Z</time></trkpt><trkpt lat="40.1342498" lon="9.5332328"><ele>867.5999999999999</ele><time>2026-03-28T09:52:59.811Z</time></trkpt><trkpt lat="40.1342408" lon="9.5333328"><ele>868.0</ele><time>2026-03-28T09:53:00.815Z</time></trkpt><trkpt lat="40.1342724" lon="9.5334168"><ele>868.0</ele><time>2026-03-28T09:53:01.813Z</time></trkpt><trkpt lat="40.1343319" lon="9.5335222"><ele>868.0</ele><time>2026-03-28T09:53:02.809Z</time></trkpt><trkpt lat="40.1343857" lon="9.5336354"><ele>868.0</ele><time>2026-03-28T09:53:03.809Z</time></trkpt><trkpt lat="40.1344285" lon="9.5337758"><ele>868.0</ele><time>2026-03-28T09:53:04.811Z</time></trkpt><trkpt lat="40.1344676" lon="9.5338992"><ele>868.0</ele><time>2026-03-28T09:53:05.811Z</time></trkpt><trkpt lat="40.1345036" lon="9.534004"><ele>867.1428571428571</ele><time>2026-03-28T09:53:06.805Z</time></trkpt><trkpt lat="40.1345453" lon="9.5340762"><ele>866.2857142857142</ele><time>2026-03-28T09:53:07.806Z</time></trkpt><trkpt lat="40.1345978" lon="9.5341229"><ele>865.4285714285714</ele><time>2026-03-28T09:53:08.806Z</time></trkpt><trkpt lat="40.1346603" lon="9.5341454"><ele>864.5714285714286</ele><time>2026-03-28T09:53:09.806Z</time></trkpt><trkpt lat="40.1347309" lon="9.5341481"><ele>863.7142857142857</ele><time>2026-03-28T09:53:10.807Z</time></trkpt><trkpt lat="40.1348056" lon="9.5341413"><ele>862.8571428571429</ele><time>2026-03-28T09:53:11.806Z</time></trkpt><trkpt lat="40.1349043" lon="9.5341114"><ele>862.0</ele><time>2026-03-28T09:53:12.808Z</time></trkpt><trkpt lat="40.1350024" lon="9.5340924"><ele>862.0</ele><time>2026-03-28T09:53:13.808Z</time></trkpt><trkpt lat="40.1351019" lon="9.5340767"><ele>862.0</ele><time>2026-03-28T09:53:14.807Z</time></trkpt><trkpt lat="40.1352019" lon="9.5340658"><ele>862.0</ele><time>2026-03-28T09:53:15.802Z</time></trkpt><trkpt lat="40.1352995" lon="9.5340559"><ele>862.0</ele><time>2026-03-28T09:53:16.809Z</time></trkpt><trkpt lat="40.1353847" lon="9.5340471"><ele>862.0</ele><time>2026-03-28T09:53:17.806Z</time></trkpt><trkpt lat="40.1354615" lon="9.5340177"><ele>861.9999999999999</ele><time>2026-03-28T09:53:18.807Z</time></trkpt><trkpt lat="40.1355411" lon="9.5339886"><ele>862.0</ele><time>2026-03-28T09:53:19.811Z</time></trkpt><trkpt lat="40.135627" lon="9.5339529"><ele>862.0</ele><time>2026-03-28T09:53:20.808Z</time></trkpt><trkpt lat="40.1357084" lon="9.5339176"><ele>862.0</ele><time>2026-03-28T09:53:21.805Z</time></trkpt><trkpt lat="40.135791" lon="9.5338955"><ele>861.9999999999999</ele><time>2026-03-28T09:53:22.808Z</time></trkpt><trkpt lat="40.1358721" lon="9.5338848"><ele>862.0</ele><time>2026-03-28T09:53:23.804Z</time></trkpt><trkpt lat="40.1359519" lon="9.5338885"><ele>859.4999999999999</ele><time>2026-03-28T09:53:24.807Z</time></trkpt><trkpt lat="40.1360308" lon="9.5338974"><ele>857.0</ele><time>2026-03-28T09:53:25.807Z</time></trkpt><trkpt lat="40.1361058" lon="9.5339002"><ele>854.5</ele><time>2026-03-28T09:53:26.81Z</time></trkpt><trkpt lat="40.1361767" lon="9.5339066"><ele>852.0</ele><time>2026-03-28T09:53:27.809Z</time></trkpt><trkpt lat="40.1362421" lon="9.5339099"><ele>849.4999999999999</ele><time>2026-03-28T09:53:28.805Z</time></trkpt><trkpt lat="40.1363586" lon="9.533924"><ele>847.0</ele><time>2026-03-28T09:53:30.807Z</time></trkpt><trkpt lat="40.1364718" lon="9.533902"><ele>844.8</ele><time>2026-03-28T09:53:32.808Z</time></trkpt><trkpt lat="40.1365848" lon="9.5338844"><ele>842.6</ele><time>2026-03-28T09:53:34.806Z</time></trkpt><trkpt lat="40.1367043" lon="9.5338653"><ele>840.4</ele><time>2026-03-28T09:53:36.809Z</time></trkpt><trkpt lat="40.1367728" lon="9.5338594"><ele>838.1999999999999</ele><time>2026-03-28T09:53:37.806Z</time></trkpt><trkpt lat="40.1368467" lon="9.5338542"><ele>836.0</ele><time>2026-03-28T09:53:38.807Z</time></trkpt><trkpt lat="40.1369259" lon="9.5338474"><ele>836.0000000000001</ele><time>2026-03-28T09:53:39.804Z</time></trkpt><trkpt lat="40.1369995" lon="9.5338382"><ele>836.0</ele><time>2026-03-28T09:53:40.797Z</time></trkpt><trkpt lat="40.1370794" lon="9.5338151"><ele>836.0</ele><time>2026-03-28T09:53:41.802Z</time></trkpt><trkpt lat="40.1371758" lon="9.5337934"><ele>836.0</ele><time>2026-03-28T09:53:42.804Z</time></trkpt><trkpt lat="40.1372737" lon="9.5337773"><ele>836.0000000000001</ele><time>2026-03-28T09:53:43.801Z</time></trkpt><trkpt lat="40.1373621" lon="9.5337681"><ele>836.0</ele><time>2026-03-28T09:53:44.804Z</time></trkpt><trkpt lat="40.1374506" lon="9.5337655"><ele>834.8333333333334</ele><time>2026-03-28T09:53:45.803Z</time></trkpt><trkpt lat="40.137536" lon="9.533779"><ele>833.6666666666667</ele><time>2026-03-28T09:53:46.804Z</time></trkpt><trkpt lat="40.1376243" lon="9.5338062"><ele>832.5</ele><time>2026-03-28T09:53:47.799Z</time></trkpt><trkpt lat="40.1377065" lon="9.533846"><ele>831.3333333333333</ele><time>2026-03-28T09:53:48.804Z</time></trkpt><trkpt lat="40.137784" lon="9.5338851"><ele>830.1666666666666</ele><time>2026-03-28T09:53:49.806Z</time></trkpt><trkpt lat="40.1378606" lon="9.5339391"><ele>829.0</ele><time>2026-03-28T09:53:50.803Z</time></trkpt><trkpt lat="40.1379383" lon="9.5339851"><ele>828.9999999999999</ele><time>2026-03-28T09:53:51.802Z</time></trkpt><trkpt lat="40.1380211" lon="9.534015"><ele>829.0</ele><time>2026-03-28T09:53:52.801Z</time></trkpt><trkpt lat="40.1381057" lon="9.5340335"><ele>829.0</ele><time>2026-03-28T09:53:53.798Z</time></trkpt><trkpt lat="40.1381897" lon="9.5340437"><ele>829.0</ele><time>2026-03-28T09:53:54.807Z</time></trkpt><trkpt lat="40.1382665" lon="9.5340534"><ele>828.9999999999999</ele><time>2026-03-28T09:53:55.802Z</time></trkpt><trkpt lat="40.1383443" lon="9.5340611"><ele>829.0</ele><time>2026-03-28T09:53:56.798Z</time></trkpt><trkpt lat="40.1384222" lon="9.5340603"><ele>828.7142857142857</ele><time>2026-03-28T09:53:57.802Z</time></trkpt><trkpt lat="40.1384983" lon="9.5340479"><ele>828.4285714285713</ele><time>2026-03-28T09:53:58.805Z</time></trkpt><trkpt lat="40.1385784" lon="9.5340292"><ele>828.1428571428571</ele><time>2026-03-28T09:53:59.81Z</time></trkpt><trkpt lat="40.1386531" lon="9.5340109"><ele>827.8571428571429</ele><time>2026-03-28T09:54:00.809Z</time></trkpt><trkpt lat="40.1387238" lon="9.533996"><ele>827.5714285714286</ele><time>2026-03-28T09:54:01.807Z</time></trkpt><trkpt lat="40.1387924" lon="9.5339813"><ele>827.2857142857143</ele><time>2026-03-28T09:54:02.809Z</time></trkpt><trkpt lat="40.138862" lon="9.5339698"><ele>827.0</ele><time>2026-03-28T09:54:03.81Z</time></trkpt><trkpt lat="40.1389389" lon="9.5339595"><ele>827.0000000000001</ele><time>2026-03-28T09:54:04.801Z</time></trkpt><trkpt lat="40.1390429" lon="9.5339582"><ele>827.0</ele><time>2026-03-28T09:54:05.802Z</time></trkpt><trkpt lat="40.1391301" lon="9.5339685"><ele>827.0</ele><time>2026-03-28T09:54:06.807Z</time></trkpt><trkpt lat="40.1392149" lon="9.5339737"><ele>827.0</ele><time>2026-03-28T09:54:07.804Z</time></trkpt><trkpt lat="40.1393007" lon="9.5339754"><ele>827.0000000000001</ele><time>2026-03-28T09:54:08.802Z</time></trkpt><trkpt lat="40.1393823" lon="9.5339817"><ele>827.0</ele><time>2026-03-28T09:54:09.809Z</time></trkpt><trkpt lat="40.1394519" lon="9.5339879"><ele>825.5000000000001</ele><time>2026-03-28T09:54:10.808Z</time></trkpt><trkpt lat="40.1395596" lon="9.5340047"><ele>824.0</ele><time>2026-03-28T09:54:12.798Z</time></trkpt><trkpt lat="40.1396521" lon="9.5340216"><ele>822.5</ele><time>2026-03-28T09:54:14.803Z</time></trkpt><trkpt lat="40.1397376" lon="9.5340273"><ele>821.0</ele><time>2026-03-28T09:54:16.802Z</time></trkpt><trkpt lat="40.1398075" lon="9.5340297"><ele>819.5000000000001</ele><time>2026-03-28T09:54:19.81Z</time></trkpt><trkpt lat="40.1398711" lon="9.5340617"><ele>818.0</ele><time>2026-03-28T09:54:58.808Z</time></trkpt><trkpt lat="40.1398334" lon="9.5341425"><ele>818.0</ele><time>2026-03-28T09:55:01.809Z</time></trkpt><trkpt lat="40.1397585" lon="9.5341657"><ele>818.0</ele><time>2026-03-28T09:55:03.806Z</time></trkpt><trkpt lat="40.1396232" lon="9.5341805"><ele>818.0</ele><time>2026-03-28T09:55:05.801Z</time></trkpt><trkpt lat="40.1395381" lon="9.5341968"><ele>818.0</ele><time>2026-03-28T09:55:06.803Z</time></trkpt><trkpt lat="40.1394574" lon="9.5342286"><ele>818.0</ele><time>2026-03-28T09:55:07.806Z</time></trkpt><trkpt lat="40.1393829" lon="9.5342568"><ele>818.0000000000001</ele><time>2026-03-28T09:55:08.804Z</time></trkpt><trkpt lat="40.1393171" lon="9.5342825"><ele>818.0</ele><time>2026-03-28T09:55:09.808Z</time></trkpt><trkpt lat="40.1392457" lon="9.534305"><ele>818.0</ele><time>2026-03-28T09:55:10.809Z</time></trkpt><trkpt lat="40.1391782" lon="9.534321"><ele>818.0</ele><time>2026-03-28T09:55:11.806Z</time></trkpt><trkpt lat="40.1391114" lon="9.5343458"><ele>818.0000000000001</ele><time>2026-03-28T09:55:12.804Z</time></trkpt><trkpt lat="40.1390511" lon="9.5343833"><ele>818.0</ele><time>2026-03-28T09:55:13.815Z</time></trkpt><trkpt lat="40.138948" lon="9.5344767"><ele>815.8</ele><time>2026-03-28T09:55:15.807Z</time></trkpt><trkpt lat="40.1388907" lon="9.5345639"><ele>813.5999999999999</ele><time>2026-03-28T09:55:17.803Z</time></trkpt><trkpt lat="40.1388392" lon="9.5346658"><ele>811.4000000000001</ele><time>2026-03-28T09:55:19.801Z</time></trkpt><trkpt lat="40.138785" lon="9.5347824"><ele>809.2</ele><time>2026-03-28T09:55:21.801Z</time></trkpt><trkpt lat="40.1387373" lon="9.5349242"><ele>807.0</ele><time>2026-03-28T09:55:23.803Z</time></trkpt><trkpt lat="40.1387286" lon="9.5350744"><ele>807.0</ele><time>2026-03-28T09:55:25.807Z</time></trkpt><trkpt lat="40.1387706" lon="9.5352184"><ele>807.0</ele><time>2026-03-28T09:55:27.8Z</time></trkpt><trkpt lat="40.1387923" lon="9.5353525"><ele>807.0</ele><time>2026-03-28T09:55:29.805Z</time></trkpt><trkpt lat="40.1387501" lon="9.5354858"><ele>807.0</ele><time>2026-03-28T09:55:31.803Z</time></trkpt><trkpt lat="40.1386804" lon="9.5356175"><ele>804.4000000000001</ele><time>2026-03-28T09:55:33.809Z</time></trkpt><trkpt lat="40.1386098" lon="9.5357412"><ele>801.8000000000001</ele><time>2026-03-28T09:55:35.805Z</time></trkpt><trkpt lat="40.1385368" lon="9.5358521"><ele>799.2</ele><time>2026-03-28T09:55:37.809Z</time></trkpt><trkpt lat="40.1384713" lon="9.5359496"><ele>796.6</ele><time>2026-03-28T09:55:39.805Z</time></trkpt><trkpt lat="40.1384002" lon="9.5360234"><ele>794.0</ele><time>2026-03-28T09:55:41.797Z</time></trkpt><trkpt lat="40.1383204" lon="9.5360597"><ele>794.0</ele><time>2026-03-28T09:55:43.809Z</time></trkpt><trkpt lat="40.1382378" lon="9.5360534"><ele>794.0</ele><time>2026-03-28T09:55:45.806Z</time></trkpt><trkpt lat="40.1381328" lon="9.5359818"><ele>794.0</ele><time>2026-03-28T09:55:47.808Z</time></trkpt><trkpt lat="40.1380265" lon="9.5358972"><ele>794.0</ele><time>2026-03-28T09:55:49.802Z</time></trkpt><trkpt lat="40.1379339" lon="9.5357895"><ele>794.0</ele><time>2026-03-28T09:55:51.8Z</time></trkpt><trkpt lat="40.1378909" lon="9.535729"><ele>794.4285714285714</ele><time>2026-03-28T09:55:52.802Z</time></trkpt><trkpt lat="40.1378509" lon="9.5356647"><ele>794.8571428571429</ele><time>2026-03-28T09:55:53.802Z</time></trkpt><trkpt lat="40.1378115" lon="9.5355941"><ele>795.2857142857142</ele><time>2026-03-28T09:55:54.801Z</time></trkpt><trkpt lat="40.1377677" lon="9.535521"><ele>795.7142857142858</ele><time>2026-03-28T09:55:55.802Z</time></trkpt><trkpt lat="40.1377239" lon="9.5354526"><ele>796.1428571428572</ele><time>2026-03-28T09:55:56.801Z</time></trkpt><trkpt lat="40.137682" lon="9.5353871"><ele>796.5714285714286</ele><time>2026-03-28T09:55:57.802Z</time></trkpt><trkpt lat="40.1375982" lon="9.5352944"><ele>797.0</ele><time>2026-03-28T09:55:59.802Z</time></trkpt><trkpt lat="40.137541" lon="9.5352494"><ele>797.0000000000001</ele><time>2026-03-28T09:56:02.811Z</time></trkpt><trkpt lat="40.1374699" lon="9.5352235"><ele>797.0</ele><time>2026-03-28T09:56:43.804Z</time></trkpt><trkpt lat="40.1373951" lon="9.5352191"><ele>797.0</ele><time>2026-03-28T09:56:47.801Z</time></trkpt><trkpt lat="40.1372943" lon="9.5352219"><ele>797.0</ele><time>2026-03-28T09:57:29.802Z</time></trkpt><trkpt lat="40.137224" lon="9.5352424"><ele>797.0000000000001</ele><time>2026-03-28T09:57:31.807Z</time></trkpt><trkpt lat="40.1371034" lon="9.5352841"><ele>797.0</ele><time>2026-03-28T09:57:33.803Z</time></trkpt><trkpt lat="40.1370354" lon="9.5352904"><ele>797.5714285714286</ele><time>2026-03-28T09:57:34.811Z</time></trkpt><trkpt lat="40.1369591" lon="9.5352958"><ele>798.1428571428572</ele><time>2026-03-28T09:57:35.801Z</time></trkpt><trkpt lat="40.1368833" lon="9.5353049"><ele>798.7142857142858</ele><time>2026-03-28T09:57:36.805Z</time></trkpt><trkpt lat="40.1368067" lon="9.5353133"><ele>799.2857142857142</ele><time>2026-03-28T09:57:37.802Z</time></trkpt><trkpt lat="40.1367383" lon="9.5353229"><ele>799.8571428571429</ele><time>2026-03-28T09:57:38.805Z</time></trkpt><trkpt lat="40.1366675" lon="9.535338"><ele>800.4285714285714</ele><time>2026-03-28T09:57:39.805Z</time></trkpt><trkpt lat="40.1365995" lon="9.5353524"><ele>801.0</ele><time>2026-03-28T09:57:40.808Z</time></trkpt><trkpt lat="40.1365304" lon="9.535368"><ele>796.8333333333334</ele><time>2026-03-28T09:57:41.805Z</time></trkpt><trkpt lat="40.1364576" lon="9.5353876"><ele>792.6666666666667</ele><time>2026-03-28T09:57:42.8Z</time></trkpt><trkpt lat="40.1363874" lon="9.5354118"><ele>788.5</ele><time>2026-03-28T09:57:43.803Z</time></trkpt><trkpt lat="40.1363069" lon="9.5354453"><ele>784.3333333333334</ele><time>2026-03-28T09:57:44.804Z</time></trkpt><trkpt lat="40.1362257" lon="9.5354636"><ele>780.1666666666667</ele><time>2026-03-28T09:57:45.806Z</time></trkpt><trkpt lat="40.1361577" lon="9.5354692"><ele>776.0</ele><time>2026-03-28T09:57:46.807Z</time></trkpt><trkpt lat="40.1360471" lon="9.5355072"><ele>776.0000000000001</ele><time>2026-03-28T09:57:48.802Z</time></trkpt><trkpt lat="40.1359421" lon="9.5355868"><ele>776.0</ele><time>2026-03-28T09:57:50.8Z</time></trkpt><trkpt lat="40.1358849" lon="9.535653"><ele>776.0</ele><time>2026-03-28T09:57:51.809Z</time></trkpt><trkpt lat="40.135822" lon="9.5357208"><ele>776.0</ele><time>2026-03-28T09:57:52.803Z</time></trkpt><trkpt lat="40.1357663" lon="9.5357767"><ele>776.0000000000001</ele><time>2026-03-28T09:57:53.802Z</time></trkpt><trkpt lat="40.1357146" lon="9.5358456"><ele>776.0</ele><time>2026-03-28T09:57:54.806Z</time></trkpt><trkpt lat="40.1356662" lon="9.5359357"><ele>778.1666666666667</ele><time>2026-03-28T09:57:55.801Z</time></trkpt><trkpt lat="40.1356262" lon="9.5360341"><ele>780.3333333333334</ele><time>2026-03-28T09:57:56.804Z</time></trkpt><trkpt lat="40.1355916" lon="9.5361236"><ele>782.5</ele><time>2026-03-28T09:57:57.806Z</time></trkpt><trkpt lat="40.1355686" lon="9.5362182"><ele>784.6666666666667</ele><time>2026-03-28T09:57:58.804Z</time></trkpt><trkpt lat="40.135564" lon="9.5363404"><ele>786.8333333333334</ele><time>2026-03-28T09:57:59.804Z</time></trkpt><trkpt lat="40.1355657" lon="9.5364515"><ele>789.0</ele><time>2026-03-28T09:58:00.811Z</time></trkpt><trkpt lat="40.1355731" lon="9.5365527"><ele>789.0</ele><time>2026-03-28T09:58:01.804Z</time></trkpt><trkpt lat="40.1355797" lon="9.5366442"><ele>789.0</ele><time>2026-03-28T09:58:02.8Z</time></trkpt><trkpt lat="40.1355881" lon="9.5367294"><ele>789.0</ele><time>2026-03-28T09:58:03.805Z</time></trkpt><trkpt lat="40.1355639" lon="9.5368677"><ele>789.0</ele><time>2026-03-28T09:58:05.803Z</time></trkpt><trkpt lat="40.1354857" lon="9.536981"><ele>789.0</ele><time>2026-03-28T09:58:07.804Z</time></trkpt><trkpt lat="40.135397" lon="9.5370931"><ele>784.0</ele><time>2026-03-28T09:58:09.806Z</time></trkpt><trkpt lat="40.135321" lon="9.5372134"><ele>779.0</ele><time>2026-03-28T09:58:11.81Z</time></trkpt><trkpt lat="40.1352377" lon="9.5373327"><ele>774.0</ele><time>2026-03-28T09:58:13.808Z</time></trkpt><trkpt lat="40.1351539" lon="9.5374476"><ele>769.0</ele><time>2026-03-28T09:58:15.805Z</time></trkpt><trkpt lat="40.1351105" lon="9.537509"><ele>764.0</ele><time>2026-03-28T09:58:16.808Z</time></trkpt><trkpt lat="40.1350176" lon="9.5376173"><ele>764.0</ele><time>2026-03-28T09:58:18.823Z</time></trkpt><trkpt lat="40.1349624" lon="9.5376754"><ele>764.0</ele><time>2026-03-28T09:58:19.81Z</time></trkpt><trkpt lat="40.1349074" lon="9.5377337"><ele>764.0</ele><time>2026-03-28T09:58:20.804Z</time></trkpt><trkpt lat="40.1348517" lon="9.5377869"><ele>764.0</ele><time>2026-03-28T09:58:21.801Z</time></trkpt><trkpt lat="40.1347977" lon="9.5378395"><ele>764.0</ele><time>2026-03-28T09:58:22.808Z</time></trkpt><trkpt lat="40.1347446" lon="9.5378919"><ele>764.0</ele><time>2026-03-28T09:58:23.811Z</time></trkpt><trkpt lat="40.1346924" lon="9.5379471"><ele>764.0</ele><time>2026-03-28T09:58:24.807Z</time></trkpt><trkpt lat="40.1346438" lon="9.5380185"><ele>764.1428571428572</ele><time>2026-03-28T09:58:25.8Z</time></trkpt><trkpt lat="40.1346101" lon="9.5380933"><ele>764.2857142857142</ele><time>2026-03-28T09:58:26.806Z</time></trkpt><trkpt lat="40.1345763" lon="9.5381686"><ele>764.4285714285714</ele><time>2026-03-28T09:58:27.806Z</time></trkpt><trkpt lat="40.1345685" lon="9.5382641"><ele>764.5714285714287</ele><time>2026-03-28T09:58:28.802Z</time></trkpt><trkpt lat="40.1345622" lon="9.5383535"><ele>764.7142857142858</ele><time>2026-03-28T09:58:29.802Z</time></trkpt><trkpt lat="40.1345442" lon="9.5384368"><ele>764.8571428571429</ele><time>2026-03-28T09:58:30.803Z</time></trkpt><trkpt lat="40.1345132" lon="9.5385189"><ele>765.0</ele><time>2026-03-28T09:58:31.801Z</time></trkpt><trkpt lat="40.1344544" lon="9.5386055"><ele>765.0</ele><time>2026-03-28T09:58:32.801Z</time></trkpt><trkpt lat="40.1343936" lon="9.5386959"><ele>765.0</ele><time>2026-03-28T09:58:33.804Z</time></trkpt><trkpt lat="40.1343394" lon="9.5388"><ele>765.0</ele><time>2026-03-28T09:58:34.812Z</time></trkpt><trkpt lat="40.1342886" lon="9.5388966"><ele>765.0</ele><time>2026-03-28T09:58:35.808Z</time></trkpt><trkpt lat="40.1342426" lon="9.5389843"><ele>765.0</ele><time>2026-03-28T09:58:36.807Z</time></trkpt><trkpt lat="40.1342004" lon="9.5390666"><ele>765.0</ele><time>2026-03-28T09:58:37.81Z</time></trkpt><trkpt lat="40.1341625" lon="9.5391429"><ele>765.0</ele><time>2026-03-28T09:58:38.809Z</time></trkpt><trkpt lat="40.1341252" lon="9.5392181"><ele>765.0</ele><time>2026-03-28T09:58:39.806Z</time></trkpt><trkpt lat="40.1340773" lon="9.539303"><ele>765.0</ele><time>2026-03-28T09:58:40.813Z</time></trkpt><trkpt lat="40.1340325" lon="9.5393847"><ele>765.0</ele><time>2026-03-28T09:58:41.807Z</time></trkpt><trkpt lat="40.1339879" lon="9.5394607"><ele>765.0</ele><time>2026-03-28T09:58:42.803Z</time></trkpt><trkpt lat="40.1339413" lon="9.5395456"><ele>765.0</ele><time>2026-03-28T09:58:43.798Z</time></trkpt><trkpt lat="40.1338975" lon="9.5396418"><ele>761.3333333333334</ele><time>2026-03-28T09:58:44.805Z</time></trkpt><trkpt lat="40.1338579" lon="9.5397397"><ele>757.6666666666666</ele><time>2026-03-28T09:58:45.81Z</time></trkpt><trkpt lat="40.1338169" lon="9.5398393"><ele>754.0</ele><time>2026-03-28T09:58:46.811Z</time></trkpt><trkpt lat="40.133777" lon="9.5399365"><ele>750.3333333333333</ele><time>2026-03-28T09:58:47.81Z</time></trkpt><trkpt lat="40.1337325" lon="9.5400347"><ele>746.6666666666666</ele><time>2026-03-28T09:58:48.813Z</time></trkpt><trkpt lat="40.1336904" lon="9.5401224"><ele>743.0</ele><time>2026-03-28T09:58:49.803Z</time></trkpt><trkpt lat="40.1336433" lon="9.5402069"><ele>743.0</ele><time>2026-03-28T09:58:50.803Z</time></trkpt><trkpt lat="40.1335951" lon="9.5402705"><ele>743.0</ele><time>2026-03-28T09:58:51.81Z</time></trkpt><trkpt lat="40.1335395" lon="9.5403285"><ele>743.0</ele><time>2026-03-28T09:58:52.81Z</time></trkpt><trkpt lat="40.1334855" lon="9.5403781"><ele>743.0</ele><time>2026-03-28T09:58:53.807Z</time></trkpt><trkpt lat="40.1334139" lon="9.5404167"><ele>743.0</ele><time>2026-03-28T09:58:54.805Z</time></trkpt><trkpt lat="40.1333352" lon="9.5404672"><ele>743.0</ele><time>2026-03-28T09:58:55.805Z</time></trkpt><trkpt lat="40.1332447" lon="9.540526"><ele>744.3333333333333</ele><time>2026-03-28T09:58:56.801Z</time></trkpt><trkpt lat="40.1331439" lon="9.5405932"><ele>745.6666666666666</ele><time>2026-03-28T09:58:57.805Z</time></trkpt><trkpt lat="40.1330542" lon="9.5406541"><ele>747.0</ele><time>2026-03-28T09:58:58.809Z</time></trkpt><trkpt lat="40.132982" lon="9.54071"><ele>748.3333333333334</ele><time>2026-03-28T09:58:59.808Z</time></trkpt><trkpt lat="40.1329282" lon="9.5407594"><ele>749.6666666666667</ele><time>2026-03-28T09:59:00.8Z</time></trkpt><trkpt lat="40.1328864" lon="9.5408263"><ele>751.0</ele><time>2026-03-28T09:59:01.803Z</time></trkpt><trkpt lat="40.132847" lon="9.5409662"><ele>751.0</ele><time>2026-03-28T09:59:03.806Z</time></trkpt><trkpt lat="40.1329018" lon="9.541116"><ele>751.0</ele><time>2026-03-28T09:59:05.803Z</time></trkpt><trkpt lat="40.132932" lon="9.5412203"><ele>751.0</ele><time>2026-03-28T09:59:06.824Z</time></trkpt><trkpt lat="40.1329689" lon="9.5413523"><ele>751.0</ele><time>2026-03-28T09:59:08.807Z</time></trkpt><trkpt lat="40.1329916" lon="9.5414382"><ele>751.0</ele><time>2026-03-28T09:59:32.809Z</time></trkpt><trkpt lat="40.1329821" lon="9.5415446"><ele>751.0</ele><time>2026-03-28T09:59:40.821Z</time></trkpt><trkpt lat="40.1329133" lon="9.5415249"><ele>751.0</ele><time>2026-03-28T10:01:56.81Z</time></trkpt><trkpt lat="40.1328471" lon="9.5414506"><ele>751.0</ele><time>2026-03-28T10:01:58.815Z</time></trkpt><trkpt lat="40.1327969" lon="9.5413735"><ele>751.0</ele><time>2026-03-28T10:01:59.803Z</time></trkpt><trkpt lat="40.132747" lon="9.5412965"><ele>751.0</ele><time>2026-03-28T10:02:00.806Z</time></trkpt><trkpt lat="40.1326976" lon="9.5412173"><ele>751.0</ele><time>2026-03-28T10:02:01.806Z</time></trkpt><trkpt lat="40.1326384" lon="9.5411325"><ele>751.0</ele><time>2026-03-28T10:02:02.802Z</time></trkpt><trkpt lat="40.1325742" lon="9.5410677"><ele>751.0</ele><time>2026-03-28T10:02:03.813Z</time></trkpt><trkpt lat="40.1325171" lon="9.5410107"><ele>751.0</ele><time>2026-03-28T10:02:04.809Z</time></trkpt><trkpt lat="40.1324671" lon="9.5409592"><ele>751.0</ele><time>2026-03-28T10:02:05.808Z</time></trkpt><trkpt lat="40.1324175" lon="9.540849"><ele>751.0</ele><time>2026-03-28T10:02:07.807Z</time></trkpt><trkpt lat="40.1324635" lon="9.5407289"><ele>751.0</ele><time>2026-03-28T10:02:09.804Z</time></trkpt><trkpt lat="40.1325079" lon="9.5406538"><ele>751.0</ele><time>2026-03-28T10:02:10.802Z</time></trkpt><trkpt lat="40.1325568" lon="9.5405673"><ele>751.0</ele><time>2026-03-28T10:02:11.803Z</time></trkpt><trkpt lat="40.1326004" lon="9.5404597"><ele>751.0</ele><time>2026-03-28T10:02:12.804Z</time></trkpt><trkpt lat="40.1326398" lon="9.5403504"><ele>751.0</ele><time>2026-03-28T10:02:13.804Z</time></trkpt><trkpt lat="40.1326774" lon="9.5402458"><ele>751.0</ele><time>2026-03-28T10:02:14.806Z</time></trkpt><trkpt lat="40.1327097" lon="9.5401308"><ele>753.3333333333334</ele><time>2026-03-28T10:02:15.804Z</time></trkpt><trkpt lat="40.1327388" lon="9.5400194"><ele>755.6666666666667</ele><time>2026-03-28T10:02:16.802Z</time></trkpt><trkpt lat="40.1327571" lon="9.5399173"><ele>758.0</ele><time>2026-03-28T10:02:17.804Z</time></trkpt><trkpt lat="40.1327543" lon="9.5397963"><ele>760.3333333333334</ele><time>2026-03-28T10:02:19.801Z</time></trkpt><trkpt lat="40.1326889" lon="9.5397451"><ele>762.6666666666666</ele><time>2026-03-28T10:02:22.812Z</time></trkpt><trkpt lat="40.1326143" lon="9.5398196"><ele>765.0</ele><time>2026-03-28T10:02:24.817Z</time></trkpt><trkpt lat="40.1325274" lon="9.539964"><ele>765.0</ele><time>2026-03-28T10:02:26.807Z</time></trkpt><trkpt lat="40.13248" lon="9.5400343"><ele>765.0</ele><time>2026-03-28T10:02:27.82Z</time></trkpt><trkpt lat="40.1324199" lon="9.5400697"><ele>765.0</ele><time>2026-03-28T10:02:28.807Z</time></trkpt><trkpt lat="40.1323012" lon="9.5401228"><ele>765.0</ele><time>2026-03-28T10:02:30.809Z</time></trkpt><trkpt lat="40.1322462" lon="9.5401728"><ele>765.0</ele><time>2026-03-28T10:02:31.808Z</time></trkpt><trkpt lat="40.1321845" lon="9.5402266"><ele>765.0</ele><time>2026-03-28T10:02:32.802Z</time></trkpt><trkpt lat="40.1321185" lon="9.5402776"><ele>766.6666666666666</ele><time>2026-03-28T10:02:33.806Z</time></trkpt><trkpt lat="40.1320436" lon="9.5403203"><ele>768.3333333333333</ele><time>2026-03-28T10:02:34.803Z</time></trkpt><trkpt lat="40.1319576" lon="9.5403524"><ele>770.0</ele><time>2026-03-28T10:02:35.805Z</time></trkpt><trkpt lat="40.1318617" lon="9.5403639"><ele>771.6666666666666</ele><time>2026-03-28T10:02:36.809Z</time></trkpt><trkpt lat="40.1317718" lon="9.5403743"><ele>773.3333333333333</ele><time>2026-03-28T10:02:37.807Z</time></trkpt><trkpt lat="40.1316884" lon="9.540373"><ele>775.0</ele><time>2026-03-28T10:02:38.807Z</time></trkpt><trkpt lat="40.1316117" lon="9.5403479"><ele>772.6666666666666</ele><time>2026-03-28T10:02:39.812Z</time></trkpt><trkpt lat="40.1315363" lon="9.5403224"><ele>770.3333333333333</ele><time>2026-03-28T10:02:40.811Z</time></trkpt><trkpt lat="40.131463" lon="9.5402829"><ele>768.0</ele><time>2026-03-28T10:02:41.806Z</time></trkpt><trkpt lat="40.1314086" lon="9.5402298"><ele>765.6666666666666</ele><time>2026-03-28T10:02:42.802Z</time></trkpt><trkpt lat="40.1313651" lon="9.5400937"><ele>763.3333333333333</ele><time>2026-03-28T10:02:44.812Z</time></trkpt><trkpt lat="40.1313703" lon="9.5400075"><ele>761.0</ele><time>2026-03-28T10:02:45.804Z</time></trkpt><trkpt lat="40.1313841" lon="9.5399094"><ele>761.0</ele><time>2026-03-28T10:02:46.809Z</time></trkpt><trkpt lat="40.1314011" lon="9.5398108"><ele>761.0</ele><time>2026-03-28T10:02:47.805Z</time></trkpt><trkpt lat="40.1314158" lon="9.5397054"><ele>761.0</ele><time>2026-03-28T10:02:48.812Z</time></trkpt><trkpt lat="40.1314237" lon="9.539604"><ele>761.0</ele><time>2026-03-28T10:02:49.809Z</time></trkpt><trkpt lat="40.1314364" lon="9.5395024"><ele>761.0</ele><time>2026-03-28T10:02:50.804Z</time></trkpt><trkpt lat="40.1314403" lon="9.5394019"><ele>761.0</ele><time>2026-03-28T10:02:51.81Z</time></trkpt><trkpt lat="40.1314414" lon="9.5393061"><ele>757.8333333333333</ele><time>2026-03-28T10:02:52.806Z</time></trkpt><trkpt lat="40.1314456" lon="9.5392145"><ele>754.6666666666666</ele><time>2026-03-28T10:02:53.802Z</time></trkpt><trkpt lat="40.1314573" lon="9.5391185"><ele>751.5</ele><time>2026-03-28T10:02:54.809Z</time></trkpt><trkpt lat="40.1314711" lon="9.5390172"><ele>748.3333333333334</ele><time>2026-03-28T10:02:55.805Z</time></trkpt><trkpt lat="40.131486" lon="9.5389048"><ele>745.1666666666667</ele><time>2026-03-28T10:02:56.805Z</time></trkpt><trkpt lat="40.1315137" lon="9.5387982"><ele>742.0</ele><time>2026-03-28T10:02:57.807Z</time></trkpt><trkpt lat="40.1315376" lon="9.5386949"><ele>746.3333333333334</ele><time>2026-03-28T10:02:58.81Z</time></trkpt><trkpt lat="40.1315773" lon="9.5386004"><ele>750.6666666666667</ele><time>2026-03-28T10:02:59.805Z</time></trkpt><trkpt lat="40.1316145" lon="9.5385039"><ele>755.0</ele><time>2026-03-28T10:03:00.812Z</time></trkpt><trkpt lat="40.1316447" lon="9.5384172"><ele>759.3333333333334</ele><time>2026-03-28T10:03:01.805Z</time></trkpt><trkpt lat="40.1316981" lon="9.5382878"><ele>763.6666666666666</ele><time>2026-03-28T10:03:03.803Z</time></trkpt><trkpt lat="40.1317288" lon="9.5382019"><ele>768.0</ele><time>2026-03-28T10:03:04.805Z</time></trkpt><trkpt lat="40.1317629" lon="9.5381254"><ele>768.0</ele><time>2026-03-28T10:03:05.809Z</time></trkpt><trkpt lat="40.1318006" lon="9.5380419"><ele>768.0</ele><time>2026-03-28T10:03:06.807Z</time></trkpt><trkpt lat="40.1318363" lon="9.5379638"><ele>768.0</ele><time>2026-03-28T10:03:07.804Z</time></trkpt><trkpt lat="40.1318735" lon="9.5378857"><ele>768.0</ele><time>2026-03-28T10:03:08.81Z</time></trkpt><trkpt lat="40.1319134" lon="9.5377981"><ele>768.0</ele><time>2026-03-28T10:03:09.808Z</time></trkpt><trkpt lat="40.1319544" lon="9.5377106"><ele>768.0</ele><time>2026-03-28T10:03:10.807Z</time></trkpt><trkpt lat="40.1320059" lon="9.5376174"><ele>764.5</ele><time>2026-03-28T10:03:11.806Z</time></trkpt><trkpt lat="40.1320668" lon="9.5375276"><ele>761.0</ele><time>2026-03-28T10:03:12.801Z</time></trkpt><trkpt lat="40.1321299" lon="9.5374516"><ele>757.5</ele><time>2026-03-28T10:03:13.806Z</time></trkpt><trkpt lat="40.1321919" lon="9.5373795"><ele>754.0</ele><time>2026-03-28T10:03:14.797Z</time></trkpt><trkpt lat="40.1322535" lon="9.5373011"><ele>750.5</ele><time>2026-03-28T10:03:15.8Z</time></trkpt><trkpt lat="40.1323121" lon="9.5372139"><ele>747.0</ele><time>2026-03-28T10:03:16.801Z</time></trkpt><trkpt lat="40.1323723" lon="9.5371177"><ele>750.8333333333334</ele><time>2026-03-28T10:03:17.806Z</time></trkpt><trkpt lat="40.1324266" lon="9.5370341"><ele>754.6666666666667</ele><time>2026-03-28T10:03:18.805Z</time></trkpt><trkpt lat="40.1324762" lon="9.5369599"><ele>758.5</ele><time>2026-03-28T10:03:19.801Z</time></trkpt><trkpt lat="40.1325209" lon="9.5368897"><ele>762.3333333333334</ele><time>2026-03-28T10:03:20.801Z</time></trkpt><trkpt lat="40.1325645" lon="9.5368012"><ele>766.1666666666667</ele><time>2026-03-28T10:03:21.806Z</time></trkpt><trkpt lat="40.1326011" lon="9.5367012"><ele>770.0</ele><time>2026-03-28T10:03:22.797Z</time></trkpt><trkpt lat="40.1326343" lon="9.5366053"><ele>770.0</ele><time>2026-03-28T10:03:23.804Z</time></trkpt><trkpt lat="40.132641" lon="9.5364945"><ele>770.0</ele><time>2026-03-28T10:03:24.802Z</time></trkpt><trkpt lat="40.1326442" lon="9.536392"><ele>770.0</ele><time>2026-03-28T10:03:25.805Z</time></trkpt><trkpt lat="40.1326433" lon="9.5363033"><ele>770.0</ele><time>2026-03-28T10:03:26.801Z</time></trkpt><trkpt lat="40.1326473" lon="9.5361486"><ele>770.0</ele><time>2026-03-28T10:03:28.807Z</time></trkpt><trkpt lat="40.1326783" lon="9.5360203"><ele>770.3333333333334</ele><time>2026-03-28T10:03:30.802Z</time></trkpt><trkpt lat="40.1327109" lon="9.5359162"><ele>770.6666666666667</ele><time>2026-03-28T10:03:32.808Z</time></trkpt><trkpt lat="40.1327399" lon="9.5357978"><ele>771.0</ele><time>2026-03-28T10:03:34.805Z</time></trkpt><trkpt lat="40.1327449" lon="9.5356395"><ele>771.3333333333333</ele><time>2026-03-28T10:03:36.808Z</time></trkpt><trkpt lat="40.1327384" lon="9.5355511"><ele>771.6666666666666</ele><time>2026-03-28T10:03:37.809Z</time></trkpt><trkpt lat="40.1327257" lon="9.5354611"><ele>772.0</ele><time>2026-03-28T10:03:38.804Z</time></trkpt><trkpt lat="40.1326893" lon="9.5353268"><ele>773.8</ele><time>2026-03-28T10:03:40.798Z</time></trkpt><trkpt lat="40.1325904" lon="9.5352271"><ele>775.6</ele><time>2026-03-28T10:03:42.8Z</time></trkpt><trkpt lat="40.1325217" lon="9.5351891"><ele>777.4</ele><time>2026-03-28T10:03:43.799Z</time></trkpt><trkpt lat="40.1324415" lon="9.5351563"><ele>779.1999999999999</ele><time>2026-03-28T10:03:44.807Z</time></trkpt><trkpt lat="40.1323617" lon="9.5351183"><ele>781.0</ele><time>2026-03-28T10:03:45.797Z</time></trkpt><trkpt lat="40.1322834" lon="9.5350815"><ele>780.9999999999999</ele><time>2026-03-28T10:03:46.803Z</time></trkpt><trkpt lat="40.1321995" lon="9.5350564"><ele>781.0</ele><time>2026-03-28T10:03:47.802Z</time></trkpt><trkpt lat="40.1321055" lon="9.5350419"><ele>781.0</ele><time>2026-03-28T10:03:48.808Z</time></trkpt><trkpt lat="40.1320144" lon="9.5350278"><ele>781.0</ele><time>2026-03-28T10:03:49.802Z</time></trkpt><trkpt lat="40.1319309" lon="9.5350273"><ele>780.9999999999999</ele><time>2026-03-28T10:03:50.799Z</time></trkpt><trkpt lat="40.1318539" lon="9.5350154"><ele>781.0</ele><time>2026-03-28T10:03:51.816Z</time></trkpt><trkpt lat="40.1317812" lon="9.5350005"><ele>781.0</ele><time>2026-03-28T10:03:52.808Z</time></trkpt><trkpt lat="40.1316693" lon="9.5349479"><ele>781.0</ele><time>2026-03-28T10:03:54.807Z</time></trkpt><trkpt lat="40.1315636" lon="9.5348374"><ele>781.0</ele><time>2026-03-28T10:03:56.803Z</time></trkpt><trkpt lat="40.1315065" lon="9.534784"><ele>781.0</ele><time>2026-03-28T10:03:57.801Z</time></trkpt><trkpt lat="40.1314248" lon="9.5347105"><ele>781.0</ele><time>2026-03-28T10:03:59.807Z</time></trkpt><trkpt lat="40.1313548" lon="9.5346324"><ele>776.9999999999999</ele><time>2026-03-28T10:04:01.805Z</time></trkpt><trkpt lat="40.1313128" lon="9.5345223"><ele>773.0</ele><time>2026-03-28T10:04:03.801Z</time></trkpt><trkpt lat="40.1312819" lon="9.5344119"><ele>769.0</ele><time>2026-03-28T10:04:05.801Z</time></trkpt><trkpt lat="40.1312554" lon="9.5343068"><ele>765.0</ele><time>2026-03-28T10:04:07.811Z</time></trkpt><trkpt lat="40.1312612" lon="9.5341572"><ele>761.0</ele><time>2026-03-28T10:04:09.802Z</time></trkpt><trkpt lat="40.1312734" lon="9.5340754"><ele>757.0</ele><time>2026-03-28T10:04:10.802Z</time></trkpt><trkpt lat="40.1312934" lon="9.533938"><ele>757.0</ele><time>2026-03-28T10:04:12.801Z</time></trkpt><trkpt lat="40.1313103" lon="9.5337917"><ele>757.0</ele><time>2026-03-28T10:04:14.799Z</time></trkpt><trkpt lat="40.1313343" lon="9.5336417"><ele>757.0</ele><time>2026-03-28T10:04:16.801Z</time></trkpt><trkpt lat="40.1313504" lon="9.5335499"><ele>757.0</ele><time>2026-03-28T10:04:17.8Z</time></trkpt><trkpt lat="40.1313654" lon="9.5334622"><ele>757.0</ele><time>2026-03-28T10:04:18.801Z</time></trkpt><trkpt lat="40.1313733" lon="9.5333767"><ele>757.0</ele><time>2026-03-28T10:04:19.809Z</time></trkpt><trkpt lat="40.131385" lon="9.5332956"><ele>755.4285714285714</ele><time>2026-03-28T10:04:20.805Z</time></trkpt><trkpt lat="40.1314022" lon="9.5332162"><ele>753.8571428571428</ele><time>2026-03-28T10:04:21.801Z</time></trkpt><trkpt lat="40.1314289" lon="9.533135"><ele>752.2857142857142</ele><time>2026-03-28T10:04:22.807Z</time></trkpt><trkpt lat="40.1314659" lon="9.5330545"><ele>750.7142857142858</ele><time>2026-03-28T10:04:23.805Z</time></trkpt><trkpt lat="40.1315014" lon="9.5329771"><ele>749.1428571428571</ele><time>2026-03-28T10:04:24.806Z</time></trkpt><trkpt lat="40.1315379" lon="9.5329035"><ele>747.5714285714286</ele><time>2026-03-28T10:04:25.803Z</time></trkpt><trkpt lat="40.1315733" lon="9.5328312"><ele>746.0</ele><time>2026-03-28T10:04:26.805Z</time></trkpt><trkpt lat="40.1316078" lon="9.532761"><ele>749.1428571428571</ele><time>2026-03-28T10:04:27.806Z</time></trkpt><trkpt lat="40.1316433" lon="9.5326924"><ele>752.2857142857143</ele><time>2026-03-28T10:04:28.805Z</time></trkpt><trkpt lat="40.1316921" lon="9.5326109"><ele>755.4285714285713</ele><time>2026-03-28T10:04:29.805Z</time></trkpt><trkpt lat="40.1317415" lon="9.5325304"><ele>758.5714285714286</ele><time>2026-03-28T10:04:30.804Z</time></trkpt><trkpt lat="40.1317827" lon="9.5324543"><ele>761.7142857142857</ele><time>2026-03-28T10:04:31.809Z</time></trkpt><trkpt lat="40.1318216" lon="9.5323779"><ele>764.8571428571428</ele><time>2026-03-28T10:04:32.814Z</time></trkpt><trkpt lat="40.1318582" lon="9.5322939"><ele>768.0</ele><time>2026-03-28T10:04:33.804Z</time></trkpt><trkpt lat="40.131895" lon="9.5322133"><ele>768.0</ele><time>2026-03-28T10:04:34.798Z</time></trkpt><trkpt lat="40.131928" lon="9.5321297"><ele>768.0</ele><time>2026-03-28T10:04:35.803Z</time></trkpt><trkpt lat="40.1319652" lon="9.5320311"><ele>768.0</ele><time>2026-03-28T10:04:36.804Z</time></trkpt><trkpt lat="40.1320003" lon="9.5319415"><ele>768.0</ele><time>2026-03-28T10:04:37.803Z</time></trkpt><trkpt lat="40.1320385" lon="9.5318466"><ele>768.0</ele><time>2026-03-28T10:04:38.824Z</time></trkpt><trkpt lat="40.1320753" lon="9.5317537"><ele>768.0</ele><time>2026-03-28T10:04:39.804Z</time></trkpt><trkpt lat="40.1321092" lon="9.531664"><ele>765.5</ele><time>2026-03-28T10:04:40.802Z</time></trkpt><trkpt lat="40.132144" lon="9.5315615"><ele>763.0</ele><time>2026-03-28T10:04:41.803Z</time></trkpt><trkpt lat="40.1321809" lon="9.5314656"><ele>760.5</ele><time>2026-03-28T10:04:42.805Z</time></trkpt><trkpt lat="40.1322156" lon="9.5313666"><ele>758.0</ele><time>2026-03-28T10:04:43.809Z</time></trkpt><trkpt lat="40.1322442" lon="9.5312662"><ele>755.5</ele><time>2026-03-28T10:04:44.799Z</time></trkpt><trkpt lat="40.1322666" lon="9.5311622"><ele>753.0</ele><time>2026-03-28T10:04:45.805Z</time></trkpt><trkpt lat="40.132285" lon="9.5310513"><ele>750.0</ele><time>2026-03-28T10:04:46.813Z</time></trkpt><trkpt lat="40.1323031" lon="9.5309414"><ele>747.0</ele><time>2026-03-28T10:04:47.801Z</time></trkpt><trkpt lat="40.1323224" lon="9.5308313"><ele>744.0</ele><time>2026-03-28T10:04:48.807Z</time></trkpt><trkpt lat="40.1323486" lon="9.5307188"><ele>741.0</ele><time>2026-03-28T10:04:49.805Z</time></trkpt><trkpt lat="40.1323752" lon="9.5306007"><ele>738.0</ele><time>2026-03-28T10:04:50.804Z</time></trkpt><trkpt lat="40.1323995" lon="9.530482"><ele>743.0</ele><time>2026-03-28T10:04:51.805Z</time></trkpt><trkpt lat="40.1324176" lon="9.5303644"><ele>748.0</ele><time>2026-03-28T10:04:52.802Z</time></trkpt><trkpt lat="40.1324296" lon="9.5302526"><ele>753.0</ele><time>2026-03-28T10:04:53.804Z</time></trkpt><trkpt lat="40.1324315" lon="9.5301448"><ele>758.0</ele><time>2026-03-28T10:04:54.805Z</time></trkpt><trkpt lat="40.1324193" lon="9.5300426"><ele>763.0</ele><time>2026-03-28T10:04:55.804Z</time></trkpt><trkpt lat="40.1324038" lon="9.5299421"><ele>768.0</ele><time>2026-03-28T10:04:56.802Z</time></trkpt><trkpt lat="40.1323901" lon="9.5298354"><ele>762.5999999999999</ele><time>2026-03-28T10:04:57.805Z</time></trkpt><trkpt lat="40.1323776" lon="9.529717"><ele>757.1999999999999</ele><time>2026-03-28T10:04:58.807Z</time></trkpt><trkpt lat="40.1323613" lon="9.529585"><ele>751.8</ele><time>2026-03-28T10:04:59.804Z</time></trkpt><trkpt lat="40.1323394" lon="9.5294706"><ele>746.4</ele><time>2026-03-28T10:05:00.801Z</time></trkpt><trkpt lat="40.1323145" lon="9.5293754"><ele>741.0</ele><time>2026-03-28T10:05:01.81Z</time></trkpt><trkpt lat="40.1322725" lon="9.5292354"><ele>741.0</ele><time>2026-03-28T10:05:03.805Z</time></trkpt><trkpt lat="40.1322816" lon="9.5290919"><ele>741.0</ele><time>2026-03-28T10:05:05.804Z</time></trkpt><trkpt lat="40.132359" lon="9.5289586"><ele>741.0</ele><time>2026-03-28T10:05:07.8Z</time></trkpt><trkpt lat="40.1324187" lon="9.5289013"><ele>741.0</ele><time>2026-03-28T10:05:08.8Z</time></trkpt><trkpt lat="40.1325003" lon="9.5288524"><ele>741.0</ele><time>2026-03-28T10:05:09.807Z</time></trkpt><trkpt lat="40.1325871" lon="9.5287973"><ele>743.1666666666666</ele><time>2026-03-28T10:05:10.803Z</time></trkpt><trkpt lat="40.1326653" lon="9.5287417"><ele>745.3333333333334</ele><time>2026-03-28T10:05:11.802Z</time></trkpt><trkpt lat="40.1327331" lon="9.5286827"><ele>747.5</ele><time>2026-03-28T10:05:12.801Z</time></trkpt><trkpt lat="40.1327965" lon="9.5286252"><ele>749.6666666666667</ele><time>2026-03-28T10:05:13.8Z</time></trkpt><trkpt lat="40.1328613" lon="9.5285657"><ele>751.8333333333334</ele><time>2026-03-28T10:05:14.806Z</time></trkpt><trkpt lat="40.1329247" lon="9.5285038"><ele>754.0</ele><time>2026-03-28T10:05:15.804Z</time></trkpt><trkpt lat="40.1329892" lon="9.5284219"><ele>754.0</ele><time>2026-03-28T10:05:16.803Z</time></trkpt><trkpt lat="40.1330588" lon="9.5283377"><ele>754.0</ele><time>2026-03-28T10:05:17.804Z</time></trkpt><trkpt lat="40.1331293" lon="9.5282542"><ele>754.0</ele><time>2026-03-28T10:05:18.808Z</time></trkpt><trkpt lat="40.133199" lon="9.5281706"><ele>754.0</ele><time>2026-03-28T10:05:19.804Z</time></trkpt><trkpt lat="40.133271" lon="9.5280824"><ele>754.0</ele><time>2026-03-28T10:05:20.809Z</time></trkpt><trkpt lat="40.133346" lon="9.5279926"><ele>755.0</ele><time>2026-03-28T10:05:21.803Z</time></trkpt><trkpt lat="40.1334232" lon="9.527895"><ele>756.0</ele><time>2026-03-28T10:05:22.81Z</time></trkpt><trkpt lat="40.1334955" lon="9.5277953"><ele>757.0</ele><time>2026-03-28T10:05:23.804Z</time></trkpt><trkpt lat="40.1335667" lon="9.5276889"><ele>758.0</ele><time>2026-03-28T10:05:24.808Z</time></trkpt><trkpt lat="40.1336405" lon="9.5275767"><ele>759.0</ele><time>2026-03-28T10:05:25.799Z</time></trkpt><trkpt lat="40.1337234" lon="9.5274491"><ele>759.0</ele><time>2026-03-28T10:05:26.813Z</time></trkpt><trkpt lat="40.1338028" lon="9.5273334"><ele>759.0</ele><time>2026-03-28T10:05:27.811Z</time></trkpt><trkpt lat="40.1338772" lon="9.5272345"><ele>759.0</ele><time>2026-03-28T10:05:28.805Z</time></trkpt><trkpt lat="40.1339475" lon="9.5271405"><ele>759.0</ele><time>2026-03-28T10:05:29.802Z</time></trkpt><trkpt lat="40.1340203" lon="9.527052"><ele>759.0</ele><time>2026-03-28T10:05:30.804Z</time></trkpt><trkpt lat="40.1340894" lon="9.5269595"><ele>760.6</ele><time>2026-03-28T10:05:31.804Z</time></trkpt><trkpt lat="40.1341585" lon="9.5268582"><ele>762.2</ele><time>2026-03-28T10:05:32.804Z</time></trkpt><trkpt lat="40.1342324" lon="9.5267483"><ele>763.8000000000001</ele><time>2026-03-28T10:05:33.806Z</time></trkpt><trkpt lat="40.1343046" lon="9.5266263"><ele>765.4000000000001</ele><time>2026-03-28T10:05:34.811Z</time></trkpt><trkpt lat="40.1343772" lon="9.5265148"><ele>767.0</ele><time>2026-03-28T10:05:35.805Z</time></trkpt><trkpt lat="40.1344442" lon="9.5264034"><ele>767.0</ele><time>2026-03-28T10:05:36.799Z</time></trkpt><trkpt lat="40.1345131" lon="9.5262875"><ele>767.0</ele><time>2026-03-28T10:05:37.801Z</time></trkpt><trkpt lat="40.1345824" lon="9.5261739"><ele>767.0</ele><time>2026-03-28T10:05:38.806Z</time></trkpt><trkpt lat="40.1346641" lon="9.5260609"><ele>767.0</ele><time>2026-03-28T10:05:39.807Z</time></trkpt><trkpt lat="40.1347605" lon="9.5259283"><ele>769.75</ele><time>2026-03-28T10:05:40.802Z</time></trkpt><trkpt lat="40.134848" lon="9.5257945"><ele>772.5</ele><time>2026-03-28T10:05:41.805Z</time></trkpt><trkpt lat="40.1349304" lon="9.5256723"><ele>775.25</ele><time>2026-03-28T10:05:42.806Z</time></trkpt><trkpt lat="40.1350111" lon="9.5255742"><ele>778.0</ele><time>2026-03-28T10:05:43.805Z</time></trkpt><trkpt lat="40.1351044" lon="9.5254814"><ele>773.0</ele><time>2026-03-28T10:05:44.809Z</time></trkpt><trkpt lat="40.1351887" lon="9.5253875"><ele>768.0</ele><time>2026-03-28T10:05:45.807Z</time></trkpt><trkpt lat="40.1352734" lon="9.5252981"><ele>763.0</ele><time>2026-03-28T10:05:46.806Z</time></trkpt><trkpt lat="40.1353658" lon="9.5252083"><ele>758.0</ele><time>2026-03-28T10:05:47.806Z</time></trkpt><trkpt lat="40.1354599" lon="9.5251151"><ele>758.0</ele><time>2026-03-28T10:05:48.803Z</time></trkpt><trkpt lat="40.1355491" lon="9.5250141"><ele>758.0</ele><time>2026-03-28T10:05:49.812Z</time></trkpt><trkpt lat="40.135631" lon="9.5249149"><ele>758.0</ele><time>2026-03-28T10:05:50.801Z</time></trkpt><trkpt lat="40.1357042" lon="9.5248217"><ele>758.0</ele><time>2026-03-28T10:05:51.802Z</time></trkpt><trkpt lat="40.1357767" lon="9.5247335"><ele>758.0</ele><time>2026-03-28T10:05:52.801Z</time></trkpt><trkpt lat="40.135853" lon="9.5246513"><ele>756.8</ele><time>2026-03-28T10:05:53.808Z</time></trkpt><trkpt lat="40.1359295" lon="9.5245692"><ele>755.5999999999999</ele><time>2026-03-28T10:05:54.81Z</time></trkpt><trkpt lat="40.1360103" lon="9.5244937"><ele>754.4000000000001</ele><time>2026-03-28T10:05:55.806Z</time></trkpt><trkpt lat="40.136098" lon="9.5244336"><ele>753.2</ele><time>2026-03-28T10:05:56.804Z</time></trkpt><trkpt lat="40.136192" lon="9.5243777"><ele>752.0</ele><time>2026-03-28T10:05:57.809Z</time></trkpt><trkpt lat="40.1362833" lon="9.5243274"><ele>752.0</ele><time>2026-03-28T10:05:58.806Z</time></trkpt><trkpt lat="40.1363647" lon="9.5242835"><ele>752.0</ele><time>2026-03-28T10:05:59.812Z</time></trkpt><trkpt lat="40.1364354" lon="9.5242456"><ele>752.0</ele><time>2026-03-28T10:06:00.806Z</time></trkpt><trkpt lat="40.1365034" lon="9.5242256"><ele>752.0</ele><time>2026-03-28T10:06:01.806Z</time></trkpt><trkpt lat="40.1365819" lon="9.5242083"><ele>752.0</ele><time>2026-03-28T10:06:02.806Z</time></trkpt><trkpt lat="40.1366569" lon="9.5241993"><ele>752.0</ele><time>2026-03-28T10:06:03.806Z</time></trkpt><trkpt lat="40.1367778" lon="9.5241969"><ele>753.8333333333333</ele><time>2026-03-28T10:06:05.801Z</time></trkpt><trkpt lat="40.1368929" lon="9.5242052"><ele>755.6666666666666</ele><time>2026-03-28T10:06:07.805Z</time></trkpt><trkpt lat="40.1369573" lon="9.5242179"><ele>757.5</ele><time>2026-03-28T10:06:08.802Z</time></trkpt><trkpt lat="40.1370214" lon="9.5242287"><ele>759.3333333333334</ele><time>2026-03-28T10:06:09.805Z</time></trkpt><trkpt lat="40.1370935" lon="9.524242"><ele>761.1666666666667</ele><time>2026-03-28T10:06:10.801Z</time></trkpt><trkpt lat="40.137173" lon="9.5242534"><ele>763.0</ele><time>2026-03-28T10:06:11.804Z</time></trkpt><trkpt lat="40.1372524" lon="9.5242652"><ele>763.0</ele><time>2026-03-28T10:06:12.81Z</time></trkpt><trkpt lat="40.1373188" lon="9.5242769"><ele>763.0</ele><time>2026-03-28T10:06:13.805Z</time></trkpt><trkpt lat="40.1373993" lon="9.5243081"><ele>763.0</ele><time>2026-03-28T10:06:15.803Z</time></trkpt><trkpt lat="40.1374482" lon="9.524396"><ele>763.0</ele><time>2026-03-28T10:06:18.807Z</time></trkpt><trkpt lat="40.1374685" lon="9.524496"><ele>763.0</ele><time>2026-03-28T10:06:21.808Z</time></trkpt><trkpt lat="40.1375476" lon="9.5245129"><ele>763.0</ele><time>2026-03-28T10:06:25.807Z</time></trkpt><trkpt lat="40.137653" lon="9.5244339"><ele>761.8</ele><time>2026-03-28T10:06:27.82Z</time></trkpt><trkpt lat="40.1377236" lon="9.524365"><ele>760.5999999999999</ele><time>2026-03-28T10:06:28.806Z</time></trkpt><trkpt lat="40.1378183" lon="9.5242807"><ele>759.4000000000001</ele><time>2026-03-28T10:06:29.802Z</time></trkpt><trkpt lat="40.1379183" lon="9.5241904"><ele>758.2</ele><time>2026-03-28T10:06:30.805Z</time></trkpt><trkpt lat="40.1380119" lon="9.5241034"><ele>757.0</ele><time>2026-03-28T10:06:31.806Z</time></trkpt><trkpt lat="40.1380738" lon="9.5240464"><ele>757.0</ele><time>2026-03-28T10:06:32.798Z</time></trkpt><trkpt lat="40.1381324" lon="9.5240052"><ele>757.0</ele><time>2026-03-28T10:06:33.809Z</time></trkpt><trkpt lat="40.1382593" lon="9.5239527"><ele>757.0</ele><time>2026-03-28T10:06:35.805Z</time></trkpt><trkpt lat="40.1383464" lon="9.5239253"><ele>757.0</ele><time>2026-03-28T10:06:36.809Z</time></trkpt><trkpt lat="40.1384345" lon="9.5239013"><ele>757.0</ele><time>2026-03-28T10:06:37.803Z</time></trkpt><trkpt lat="40.1385262" lon="9.523885"><ele>760.0</ele><time>2026-03-28T10:06:38.807Z</time></trkpt><trkpt lat="40.1386199" lon="9.5238664"><ele>763.0</ele><time>2026-03-28T10:06:39.806Z</time></trkpt><trkpt lat="40.1387235" lon="9.5238362"><ele>766.0</ele><time>2026-03-28T10:06:40.804Z</time></trkpt><trkpt lat="40.138817" lon="9.5238096"><ele>769.0</ele><time>2026-03-28T10:06:41.806Z</time></trkpt><trkpt lat="40.1389054" lon="9.5237819"><ele>772.0</ele><time>2026-03-28T10:06:42.807Z</time></trkpt><trkpt lat="40.1389909" lon="9.5237491"><ele>768.8571428571429</ele><time>2026-03-28T10:06:43.808Z</time></trkpt><trkpt lat="40.139061" lon="9.5237189"><ele>765.7142857142858</ele><time>2026-03-28T10:06:44.797Z</time></trkpt><trkpt lat="40.1391271" lon="9.5236905"><ele>762.5714285714287</ele><time>2026-03-28T10:06:45.8Z</time></trkpt><trkpt lat="40.1391904" lon="9.5236524"><ele>759.4285714285714</ele><time>2026-03-28T10:06:46.806Z</time></trkpt><trkpt lat="40.1392616" lon="9.5236165"><ele>756.2857142857142</ele><time>2026-03-28T10:06:47.806Z</time></trkpt><trkpt lat="40.1393312" lon="9.5235958"><ele>753.1428571428572</ele><time>2026-03-28T10:06:48.809Z</time></trkpt><trkpt lat="40.1394009" lon="9.5235813"><ele>750.0</ele><time>2026-03-28T10:06:49.801Z</time></trkpt><trkpt lat="40.1394662" lon="9.5235693"><ele>750.0</ele><time>2026-03-28T10:06:50.805Z</time></trkpt><trkpt lat="40.1395809" lon="9.5235618"><ele>750.0</ele><time>2026-03-28T10:06:52.8Z</time></trkpt><trkpt lat="40.1396719" lon="9.5235868"><ele>750.0</ele><time>2026-03-28T10:06:54.798Z</time></trkpt><trkpt lat="40.139766" lon="9.5235826"><ele>750.0</ele><time>2026-03-28T10:06:56.804Z</time></trkpt><trkpt lat="40.1398481" lon="9.5235089"><ele>750.0</ele><time>2026-03-28T10:06:58.806Z</time></trkpt><trkpt lat="40.1398928" lon="9.5234494"><ele>752.1666666666666</ele><time>2026-03-28T10:06:59.802Z</time></trkpt><trkpt lat="40.139945" lon="9.5233951"><ele>754.3333333333334</ele><time>2026-03-28T10:07:00.812Z</time></trkpt><trkpt lat="40.1400089" lon="9.523355"><ele>756.5</ele><time>2026-03-28T10:07:01.802Z</time></trkpt><trkpt lat="40.1400759" lon="9.5233051"><ele>758.6666666666667</ele><time>2026-03-28T10:07:02.801Z</time></trkpt><trkpt lat="40.1401368" lon="9.5232531"><ele>760.8333333333334</ele><time>2026-03-28T10:07:03.807Z</time></trkpt><trkpt lat="40.1402324" lon="9.5231626"><ele>763.0</ele><time>2026-03-28T10:07:05.809Z</time></trkpt><trkpt lat="40.140303" lon="9.5230961"><ele>763.0</ele><time>2026-03-28T10:07:07.801Z</time></trkpt><trkpt lat="40.1403744" lon="9.5230272"><ele>763.0</ele><time>2026-03-28T10:07:11.807Z</time></trkpt><trkpt lat="40.1403373" lon="9.5228932"><ele>763.0</ele><time>2026-03-28T10:07:13.808Z</time></trkpt><trkpt lat="40.1402974" lon="9.5228072"><ele>763.0</ele><time>2026-03-28T10:07:14.803Z</time></trkpt><trkpt lat="40.1402557" lon="9.5227002"><ele>763.0</ele><time>2026-03-28T10:07:15.807Z</time></trkpt><trkpt lat="40.1402156" lon="9.5225859"><ele>761.8333333333334</ele><time>2026-03-28T10:07:16.804Z</time></trkpt><trkpt lat="40.1401744" lon="9.5224714"><ele>760.6666666666667</ele><time>2026-03-28T10:07:17.805Z</time></trkpt><trkpt lat="40.1401365" lon="9.522381"><ele>759.5</ele><time>2026-03-28T10:07:18.802Z</time></trkpt><trkpt lat="40.1401019" lon="9.5222989"><ele>758.3333333333334</ele><time>2026-03-28T10:07:19.806Z</time></trkpt><trkpt lat="40.1400354" lon="9.5221526"><ele>757.1666666666666</ele><time>2026-03-28T10:07:21.8Z</time></trkpt><trkpt lat="40.1400005" lon="9.5220838"><ele>756.0</ele><time>2026-03-28T10:07:22.806Z</time></trkpt><trkpt lat="40.1399549" lon="9.5220219"><ele>755.3333333333334</ele><time>2026-03-28T10:07:23.798Z</time></trkpt><trkpt lat="40.1399009" lon="9.5219733"><ele>754.6666666666666</ele><time>2026-03-28T10:07:24.802Z</time></trkpt><trkpt lat="40.1398292" lon="9.5219226"><ele>754.0</ele><time>2026-03-28T10:07:25.81Z</time></trkpt><trkpt lat="40.1397604" lon="9.5218648"><ele>753.3333333333333</ele><time>2026-03-28T10:07:26.81Z</time></trkpt><trkpt lat="40.1396931" lon="9.5218038"><ele>752.6666666666666</ele><time>2026-03-28T10:07:27.807Z</time></trkpt><trkpt lat="40.1396284" lon="9.521731"><ele>752.0</ele><time>2026-03-28T10:07:28.801Z</time></trkpt><trkpt lat="40.1395805" lon="9.5216299"><ele>752.0</ele><time>2026-03-28T10:07:29.807Z</time></trkpt><trkpt lat="40.139532" lon="9.5215143"><ele>752.0</ele><time>2026-03-28T10:07:30.798Z</time></trkpt><trkpt lat="40.1394832" lon="9.521392"><ele>752.0</ele><time>2026-03-28T10:07:31.802Z</time></trkpt><trkpt lat="40.139435" lon="9.5212699"><ele>752.0</ele><time>2026-03-28T10:07:32.803Z</time></trkpt><trkpt lat="40.1393777" lon="9.521148"><ele>752.0</ele><time>2026-03-28T10:07:33.8Z</time></trkpt><trkpt lat="40.1393208" lon="9.5210314"><ele>755.3333333333333</ele><time>2026-03-28T10:07:34.798Z</time></trkpt><trkpt lat="40.1392658" lon="9.5209263"><ele>758.6666666666666</ele><time>2026-03-28T10:07:35.807Z</time></trkpt><trkpt lat="40.1392162" lon="9.5208377"><ele>762.0</ele><time>2026-03-28T10:07:36.804Z</time></trkpt><trkpt lat="40.1391774" lon="9.5207423"><ele>765.3333333333333</ele><time>2026-03-28T10:07:37.8Z</time></trkpt><trkpt lat="40.1391384" lon="9.520642"><ele>768.6666666666666</ele><time>2026-03-28T10:07:38.802Z</time></trkpt><trkpt lat="40.1391141" lon="9.5205318"><ele>772.0</ele><time>2026-03-28T10:07:39.802Z</time></trkpt><trkpt lat="40.1390808" lon="9.5204163"><ele>773.2</ele><time>2026-03-28T10:07:40.804Z</time></trkpt><trkpt lat="40.1390409" lon="9.5203099"><ele>774.4000000000001</ele><time>2026-03-28T10:07:41.805Z</time></trkpt><trkpt lat="40.1390026" lon="9.5202056"><ele>775.5999999999999</ele><time>2026-03-28T10:07:42.801Z</time></trkpt><trkpt lat="40.138958" lon="9.5201243"><ele>776.8</ele><time>2026-03-28T10:07:43.803Z</time></trkpt><trkpt lat="40.1388633" lon="9.5200282"><ele>778.0</ele><time>2026-03-28T10:07:45.809Z</time></trkpt><trkpt lat="40.138823" lon="9.5199238"><ele>778.0</ele><time>2026-03-28T10:07:47.799Z</time></trkpt><trkpt lat="40.1388786" lon="9.5197979"><ele>778.0</ele><time>2026-03-28T10:07:49.809Z</time></trkpt><trkpt lat="40.1389375" lon="9.5197401"><ele>778.0</ele><time>2026-03-28T10:07:50.804Z</time></trkpt><trkpt lat="40.1389982" lon="9.519684"><ele>778.0</ele><time>2026-03-28T10:07:51.802Z</time></trkpt><trkpt lat="40.1390837" lon="9.5196312"><ele>778.0</ele><time>2026-03-28T10:07:52.804Z</time></trkpt><trkpt lat="40.1391748" lon="9.5195759"><ele>777.6666666666666</ele><time>2026-03-28T10:07:53.805Z</time></trkpt><trkpt lat="40.1392567" lon="9.5195143"><ele>777.3333333333333</ele><time>2026-03-28T10:07:54.805Z</time></trkpt><trkpt lat="40.1393304" lon="9.5194456"><ele>777.0</ele><time>2026-03-28T10:07:55.803Z</time></trkpt><trkpt lat="40.1393992" lon="9.5193785"><ele>776.6666666666667</ele><time>2026-03-28T10:07:56.812Z</time></trkpt><trkpt lat="40.139449" lon="9.5192987"><ele>776.3333333333334</ele><time>2026-03-28T10:07:57.803Z</time></trkpt><trkpt lat="40.1394913" lon="9.5192201"><ele>776.0</ele><time>2026-03-28T10:07:58.805Z</time></trkpt><trkpt lat="40.1395398" lon="9.5190822"><ele>776.0</ele><time>2026-03-28T10:08:00.806Z</time></trkpt><trkpt lat="40.1395961" lon="9.5189679"><ele>776.0</ele><time>2026-03-28T10:08:02.809Z</time></trkpt><trkpt lat="40.1396777" lon="9.5188745"><ele>776.0</ele><time>2026-03-28T10:08:04.808Z</time></trkpt><trkpt lat="40.1397088" lon="9.5187181"><ele>776.0</ele><time>2026-03-28T10:08:06.809Z</time></trkpt><trkpt lat="40.1397222" lon="9.5186291"><ele>776.0</ele><time>2026-03-28T10:08:07.806Z</time></trkpt><trkpt lat="40.1397837" lon="9.5184886"><ele>775.0000000000001</ele><time>2026-03-28T10:08:09.804Z</time></trkpt><trkpt lat="40.1398308" lon="9.5184184"><ele>774.0</ele><time>2026-03-28T10:08:10.801Z</time></trkpt><trkpt lat="40.1399045" lon="9.5183345"><ele>773.0</ele><time>2026-03-28T10:08:12.805Z</time></trkpt><trkpt lat="40.1399685" lon="9.5182884"><ele>772.0</ele><time>2026-03-28T10:08:14.81Z</time></trkpt><trkpt lat="40.1400345" lon="9.5182447"><ele>771.0000000000001</ele><time>2026-03-28T10:08:16.805Z</time></trkpt><trkpt lat="40.1401166" lon="9.5181937"><ele>770.0</ele><time>2026-03-28T10:08:18.806Z</time></trkpt><trkpt lat="40.1401913" lon="9.518146"><ele>770.0</ele><time>2026-03-28T10:08:20.807Z</time></trkpt><trkpt lat="40.1402614" lon="9.5180686"><ele>770.0</ele><time>2026-03-28T10:08:22.804Z</time></trkpt><trkpt lat="40.1403116" lon="9.5180052"><ele>770.0</ele><time>2026-03-28T10:08:25.812Z</time></trkpt><trkpt lat="40.140364" lon="9.5179178"><ele>770.0</ele><time>2026-03-28T10:08:28.809Z</time></trkpt><trkpt lat="40.1403292" lon="9.5178095"><ele>770.0</ele><time>2026-03-28T10:08:32.809Z</time></trkpt><trkpt lat="40.1402174" lon="9.5176898"><ele>769.0000000000001</ele><time>2026-03-28T10:08:34.81Z</time></trkpt><trkpt lat="40.1401553" lon="9.517632"><ele>768.0</ele><time>2026-03-28T10:08:35.806Z</time></trkpt><trkpt lat="40.1400909" lon="9.5175749"><ele>767.0</ele><time>2026-03-28T10:08:36.804Z</time></trkpt><trkpt lat="40.140028" lon="9.5175236"><ele>766.0</ele><time>2026-03-28T10:08:37.808Z</time></trkpt><trkpt lat="40.1399737" lon="9.5174715"><ele>765.0</ele><time>2026-03-28T10:08:38.807Z</time></trkpt><trkpt lat="40.1399245" lon="9.5174119"><ele>764.0</ele><time>2026-03-28T10:08:39.805Z</time></trkpt><trkpt lat="40.1398487" lon="9.5173019"><ele>763.8000000000001</ele><time>2026-03-28T10:08:41.809Z</time></trkpt><trkpt lat="40.1398126" lon="9.5171609"><ele>763.6</ele><time>2026-03-28T10:08:43.805Z</time></trkpt><trkpt lat="40.1398178" lon="9.517006"><ele>763.4</ele><time>2026-03-28T10:08:45.807Z</time></trkpt><trkpt lat="40.1398255" lon="9.5168955"><ele>763.2</ele><time>2026-03-28T10:08:47.807Z</time></trkpt><trkpt lat="40.1397992" lon="9.5168167"><ele>763.0</ele><time>2026-03-28T10:08:49.81Z</time></trkpt><trkpt lat="40.1397312" lon="9.5167938"><ele>763.0</ele><time>2026-03-28T10:08:51.813Z</time></trkpt><trkpt lat="40.1396276" lon="9.516824"><ele>763.0</ele><time>2026-03-28T10:08:53.806Z</time></trkpt><trkpt lat="40.1395642" lon="9.5168338"><ele>763.0</ele><time>2026-03-28T10:08:54.809Z</time></trkpt><trkpt lat="40.1394592" lon="9.516831"><ele>763.0</ele><time>2026-03-28T10:08:56.808Z</time></trkpt><trkpt lat="40.1393483" lon="9.5167696"><ele>763.0</ele><time>2026-03-28T10:08:58.808Z</time></trkpt><trkpt lat="40.1392435" lon="9.5166939"><ele>763.0</ele><time>2026-03-28T10:09:00.806Z</time></trkpt><trkpt lat="40.139182" lon="9.5166463"><ele>763.0</ele><time>2026-03-28T10:09:01.804Z</time></trkpt><trkpt lat="40.1391192" lon="9.5165902"><ele>763.0</ele><time>2026-03-28T10:09:02.805Z</time></trkpt><trkpt lat="40.1390578" lon="9.516531"><ele>763.0</ele><time>2026-03-28T10:09:03.81Z</time></trkpt><trkpt lat="40.1390068" lon="9.5164564"><ele>763.0</ele><time>2026-03-28T10:09:04.808Z</time></trkpt><trkpt lat="40.1389543" lon="9.5163639"><ele>763.0</ele><time>2026-03-28T10:09:05.804Z</time></trkpt><trkpt lat="40.1389003" lon="9.5162708"><ele>761.8333333333334</ele><time>2026-03-28T10:09:06.801Z</time></trkpt><trkpt lat="40.1388454" lon="9.5161737"><ele>760.6666666666667</ele><time>2026-03-28T10:09:07.805Z</time></trkpt><trkpt lat="40.1387926" lon="9.5160877"><ele>759.5</ele><time>2026-03-28T10:09:08.805Z</time></trkpt><trkpt lat="40.1387461" lon="9.5160025"><ele>758.3333333333334</ele><time>2026-03-28T10:09:09.8Z</time></trkpt><trkpt lat="40.1387039" lon="9.5158916"><ele>757.1666666666666</ele><time>2026-03-28T10:09:10.804Z</time></trkpt><trkpt lat="40.1386672" lon="9.5157843"><ele>756.0</ele><time>2026-03-28T10:09:11.802Z</time></trkpt><trkpt lat="40.1386461" lon="9.5156876"><ele>756.0</ele><time>2026-03-28T10:09:12.805Z</time></trkpt><trkpt lat="40.1386464" lon="9.5155901"><ele>756.0</ele><time>2026-03-28T10:09:13.802Z</time></trkpt><trkpt lat="40.1386489" lon="9.5155002"><ele>756.0</ele><time>2026-03-28T10:09:14.805Z</time></trkpt><trkpt lat="40.1386883" lon="9.5154135"><ele>756.0</ele><time>2026-03-28T10:09:15.801Z</time></trkpt><trkpt lat="40.1387525" lon="9.5153214"><ele>756.0</ele><time>2026-03-28T10:09:16.807Z</time></trkpt><trkpt lat="40.1388102" lon="9.5152046"><ele>756.0</ele><time>2026-03-28T10:09:17.807Z</time></trkpt><trkpt lat="40.1388575" lon="9.5150859"><ele>753.4</ele><time>2026-03-28T10:09:18.805Z</time></trkpt><trkpt lat="40.1388957" lon="9.5149684"><ele>750.8</ele><time>2026-03-28T10:09:19.804Z</time></trkpt><trkpt lat="40.1389278" lon="9.5148356"><ele>748.1999999999999</ele><time>2026-03-28T10:09:20.803Z</time></trkpt><trkpt lat="40.1389662" lon="9.5146999"><ele>745.5999999999999</ele><time>2026-03-28T10:09:21.804Z</time></trkpt><trkpt lat="40.138999" lon="9.5145815"><ele>743.0</ele><time>2026-03-28T10:09:22.808Z</time></trkpt><trkpt lat="40.139031" lon="9.5144716"><ele>744.0</ele><time>2026-03-28T10:09:23.806Z</time></trkpt><trkpt lat="40.1390631" lon="9.5143723"><ele>745.0</ele><time>2026-03-28T10:09:24.807Z</time></trkpt><trkpt lat="40.1390976" lon="9.5142704"><ele>746.0</ele><time>2026-03-28T10:09:25.799Z</time></trkpt><trkpt lat="40.13914" lon="9.5141624"><ele>747.0</ele><time>2026-03-28T10:09:26.807Z</time></trkpt><trkpt lat="40.1391808" lon="9.5140479"><ele>748.0</ele><time>2026-03-28T10:09:27.804Z</time></trkpt><trkpt lat="40.1392159" lon="9.5139377"><ele>749.0</ele><time>2026-03-28T10:09:28.801Z</time></trkpt><trkpt lat="40.1392491" lon="9.5138315"><ele>749.0</ele><time>2026-03-28T10:09:29.807Z</time></trkpt><trkpt lat="40.1392817" lon="9.5137458"><ele>749.0</ele><time>2026-03-28T10:09:30.806Z</time></trkpt><trkpt lat="40.1393265" lon="9.5136803"><ele>749.0</ele><time>2026-03-28T10:09:31.801Z</time></trkpt><trkpt lat="40.1393796" lon="9.5136283"><ele>749.0</ele><time>2026-03-28T10:09:32.811Z</time></trkpt><trkpt lat="40.1394715" lon="9.5135834"><ele>749.0</ele><time>2026-03-28T10:09:34.8Z</time></trkpt><trkpt lat="40.1395429" lon="9.5135385"><ele>749.0</ele><time>2026-03-28T10:09:36.805Z</time></trkpt><trkpt lat="40.1395992" lon="9.5134838"><ele>746.6666666666666</ele><time>2026-03-28T10:09:38.806Z</time></trkpt><trkpt lat="40.1396567" lon="9.5134318"><ele>744.3333333333333</ele><time>2026-03-28T10:09:40.801Z</time></trkpt><trkpt lat="40.1397158" lon="9.5133838"><ele>742.0</ele><time>2026-03-28T10:09:42.808Z</time></trkpt><trkpt lat="40.1397727" lon="9.5133108"><ele>739.6666666666666</ele><time>2026-03-28T10:09:44.801Z</time></trkpt><trkpt lat="40.139798" lon="9.5132327"><ele>737.3333333333334</ele><time>2026-03-28T10:09:46.806Z</time></trkpt><trkpt lat="40.139768" lon="9.513102"><ele>735.0</ele><time>2026-03-28T10:09:49.809Z</time></trkpt><trkpt lat="40.1397496" lon="9.5129581"><ele>733.8333333333334</ele><time>2026-03-28T10:09:51.8Z</time></trkpt><trkpt lat="40.1397807" lon="9.5128084"><ele>732.6666666666666</ele><time>2026-03-28T10:09:53.797Z</time></trkpt><trkpt lat="40.1398303" lon="9.5126588"><ele>731.5</ele><time>2026-03-28T10:09:55.802Z</time></trkpt><trkpt lat="40.1398593" lon="9.5125833"><ele>730.3333333333333</ele><time>2026-03-28T10:09:56.804Z</time></trkpt><trkpt lat="40.1398904" lon="9.5125048"><ele>729.1666666666666</ele><time>2026-03-28T10:09:57.8Z</time></trkpt><trkpt lat="40.1399232" lon="9.5124199"><ele>728.0</ele><time>2026-03-28T10:09:58.803Z</time></trkpt><trkpt lat="40.1399659" lon="9.5123149"><ele>730.0</ele><time>2026-03-28T10:09:59.803Z</time></trkpt><trkpt lat="40.1400048" lon="9.5122077"><ele>732.0</ele><time>2026-03-28T10:10:00.8Z</time></trkpt><trkpt lat="40.1400425" lon="9.5121053"><ele>734.0</ele><time>2026-03-28T10:10:01.805Z</time></trkpt><trkpt lat="40.1400805" lon="9.5120176"><ele>736.0</ele><time>2026-03-28T10:10:02.805Z</time></trkpt><trkpt lat="40.1401199" lon="9.5119429"><ele>738.0</ele><time>2026-03-28T10:10:03.801Z</time></trkpt><trkpt lat="40.1401585" lon="9.5118722"><ele>740.0</ele><time>2026-03-28T10:10:04.801Z</time></trkpt><trkpt lat="40.1401959" lon="9.5118045"><ele>740.0</ele><time>2026-03-28T10:10:05.803Z</time></trkpt><trkpt lat="40.1402642" lon="9.5117026"><ele>740.0</ele><time>2026-03-28T10:10:07.802Z</time></trkpt><trkpt lat="40.1403132" lon="9.5116294"><ele>740.0</ele><time>2026-03-28T10:10:09.81Z</time></trkpt><trkpt lat="40.1402968" lon="9.5115338"><ele>740.0</ele><time>2026-03-28T10:10:11.799Z</time></trkpt><trkpt lat="40.1402322" lon="9.5114648"><ele>740.0</ele><time>2026-03-28T10:10:14.806Z</time></trkpt><trkpt lat="40.1401478" lon="9.5114776"><ele>740.0</ele><time>2026-03-28T10:10:21.809Z</time></trkpt><trkpt lat="40.1400612" lon="9.5114903"><ele>740.0</ele><time>2026-03-28T10:10:23.808Z</time></trkpt><trkpt lat="40.1399478" lon="9.5115062"><ele>740.0</ele><time>2026-03-28T10:10:25.802Z</time></trkpt><trkpt lat="40.1398771" lon="9.5115221"><ele>740.0</ele><time>2026-03-28T10:10:26.802Z</time></trkpt><trkpt lat="40.1397931" lon="9.5115415"><ele>740.0</ele><time>2026-03-28T10:10:27.808Z</time></trkpt><trkpt lat="40.1397055" lon="9.5115625"><ele>740.0</ele><time>2026-03-28T10:10:28.805Z</time></trkpt><trkpt lat="40.1396191" lon="9.5115861"><ele>740.0</ele><time>2026-03-28T10:10:29.806Z</time></trkpt><trkpt lat="40.1395279" lon="9.5115992"><ele>739.8</ele><time>2026-03-28T10:10:30.805Z</time></trkpt><trkpt lat="40.1394307" lon="9.5115998"><ele>739.6</ele><time>2026-03-28T10:10:31.803Z</time></trkpt><trkpt lat="40.1393197" lon="9.5115901"><ele>739.4000000000001</ele><time>2026-03-28T10:10:32.804Z</time></trkpt><trkpt lat="40.1392029" lon="9.5115742"><ele>739.2</ele><time>2026-03-28T10:10:33.808Z</time></trkpt><trkpt lat="40.1390904" lon="9.5115601"><ele>739.0</ele><time>2026-03-28T10:10:34.805Z</time></trkpt><trkpt lat="40.1390002" lon="9.5115207"><ele>738.6666666666667</ele><time>2026-03-28T10:10:35.808Z</time></trkpt><trkpt lat="40.1389282" lon="9.5114679"><ele>738.3333333333334</ele><time>2026-03-28T10:10:36.809Z</time></trkpt><trkpt lat="40.1388561" lon="9.5114128"><ele>738.0</ele><time>2026-03-28T10:10:37.805Z</time></trkpt><trkpt lat="40.1387897" lon="9.5113349"><ele>737.6666666666666</ele><time>2026-03-28T10:10:38.808Z</time></trkpt><trkpt lat="40.1387292" lon="9.5112579"><ele>737.3333333333333</ele><time>2026-03-28T10:10:39.803Z</time></trkpt><trkpt lat="40.1386568" lon="9.5111931"><ele>737.0</ele><time>2026-03-28T10:10:40.808Z</time></trkpt><trkpt lat="40.1385855" lon="9.5111678"><ele>737.0</ele><time>2026-03-28T10:10:41.807Z</time></trkpt><trkpt lat="40.1384781" lon="9.5112232"><ele>737.0</ele><time>2026-03-28T10:10:43.806Z</time></trkpt><trkpt lat="40.1384231" lon="9.5112875"><ele>737.0</ele><time>2026-03-28T10:10:44.804Z</time></trkpt><trkpt lat="40.1383723" lon="9.5113664"><ele>737.0</ele><time>2026-03-28T10:10:45.805Z</time></trkpt><trkpt lat="40.1383086" lon="9.5114503"><ele>737.0</ele><time>2026-03-28T10:10:46.798Z</time></trkpt><trkpt lat="40.138244" lon="9.5115341"><ele>737.0</ele><time>2026-03-28T10:10:47.801Z</time></trkpt><trkpt lat="40.1381692" lon="9.5116052"><ele>738.8</ele><time>2026-03-28T10:10:48.808Z</time></trkpt><trkpt lat="40.1380944" lon="9.5116578"><ele>740.6</ele><time>2026-03-28T10:10:49.805Z</time></trkpt><trkpt lat="40.1380014" lon="9.5116976"><ele>742.4</ele><time>2026-03-28T10:10:50.805Z</time></trkpt><trkpt lat="40.1379001" lon="9.5117389"><ele>744.1999999999999</ele><time>2026-03-28T10:10:51.803Z</time></trkpt><trkpt lat="40.1377884" lon="9.5117967"><ele>746.0</ele><time>2026-03-28T10:10:52.807Z</time></trkpt><trkpt lat="40.1376677" lon="9.5118714"><ele>746.0</ele><time>2026-03-28T10:10:53.81Z</time></trkpt><trkpt lat="40.1375511" lon="9.5119294"><ele>746.0</ele><time>2026-03-28T10:10:54.806Z</time></trkpt><trkpt lat="40.1374398" lon="9.5119817"><ele>746.0</ele><time>2026-03-28T10:10:55.808Z</time></trkpt><trkpt lat="40.1373286" lon="9.5120265"><ele>746.0</ele><time>2026-03-28T10:10:56.803Z</time></trkpt><trkpt lat="40.1372205" lon="9.5120636"><ele>743.5999999999999</ele><time>2026-03-28T10:10:57.805Z</time></trkpt><trkpt lat="40.1371135" lon="9.5120998"><ele>741.2</ele><time>2026-03-28T10:10:58.803Z</time></trkpt><trkpt lat="40.1370121" lon="9.5121372"><ele>738.8</ele><time>2026-03-28T10:10:59.803Z</time></trkpt><trkpt lat="40.1369133" lon="9.5121753"><ele>736.4000000000001</ele><time>2026-03-28T10:11:00.806Z</time></trkpt><trkpt lat="40.1368184" lon="9.5122119"><ele>734.0</ele><time>2026-03-28T10:11:01.807Z</time></trkpt><trkpt lat="40.1367306" lon="9.5122447"><ele>734.0</ele><time>2026-03-28T10:11:02.805Z</time></trkpt><trkpt lat="40.1366406" lon="9.5122531"><ele>734.0</ele><time>2026-03-28T10:11:03.807Z</time></trkpt><trkpt lat="40.1365433" lon="9.5122593"><ele>734.0</ele><time>2026-03-28T10:11:04.805Z</time></trkpt><trkpt lat="40.1364364" lon="9.512271"><ele>734.0</ele><time>2026-03-28T10:11:05.801Z</time></trkpt><trkpt lat="40.1363274" lon="9.5122912"><ele>734.0</ele><time>2026-03-28T10:11:06.81Z</time></trkpt><trkpt lat="40.1362192" lon="9.5123288"><ele>734.0</ele><time>2026-03-28T10:11:07.804Z</time></trkpt><trkpt lat="40.1361199" lon="9.5123658"><ele>734.0</ele><time>2026-03-28T10:11:08.804Z</time></trkpt><trkpt lat="40.1360212" lon="9.512388"><ele>734.0</ele><time>2026-03-28T10:11:09.802Z</time></trkpt><trkpt lat="40.1359174" lon="9.5123996"><ele>734.0</ele><time>2026-03-28T10:11:10.807Z</time></trkpt><trkpt lat="40.1358095" lon="9.5124002"><ele>734.0</ele><time>2026-03-28T10:11:11.801Z</time></trkpt><trkpt lat="40.1357023" lon="9.5123891"><ele>733.6</ele><time>2026-03-28T10:11:12.806Z</time></trkpt><trkpt lat="40.1356" lon="9.5123683"><ele>733.2</ele><time>2026-03-28T10:11:13.803Z</time></trkpt><trkpt lat="40.1355045" lon="9.5123374"><ele>732.8000000000001</ele><time>2026-03-28T10:11:14.809Z</time></trkpt><trkpt lat="40.1354115" lon="9.5122936"><ele>732.4000000000001</ele><time>2026-03-28T10:11:15.799Z</time></trkpt><trkpt lat="40.1353229" lon="9.512247"><ele>732.0</ele><time>2026-03-28T10:11:16.811Z</time></trkpt><trkpt lat="40.1352389" lon="9.5122052"><ele>732.0</ele><time>2026-03-28T10:11:17.798Z</time></trkpt><trkpt lat="40.1351534" lon="9.5121792"><ele>732.0</ele><time>2026-03-28T10:11:18.805Z</time></trkpt><trkpt lat="40.1350652" lon="9.5121718"><ele>732.0</ele><time>2026-03-28T10:11:19.807Z</time></trkpt><trkpt lat="40.1349687" lon="9.5121813"><ele>732.0</ele><time>2026-03-28T10:11:20.799Z</time></trkpt><trkpt lat="40.1348703" lon="9.5122142"><ele>732.0</ele><time>2026-03-28T10:11:21.803Z</time></trkpt><trkpt lat="40.1347698" lon="9.5122716"><ele>734.0</ele><time>2026-03-28T10:11:22.806Z</time></trkpt><trkpt lat="40.1346645" lon="9.5123325"><ele>736.0</ele><time>2026-03-28T10:11:23.801Z</time></trkpt><trkpt lat="40.1345418" lon="9.5123925"><ele>738.0</ele><time>2026-03-28T10:11:24.799Z</time></trkpt><trkpt lat="40.1344218" lon="9.5124323"><ele>740.0</ele><time>2026-03-28T10:11:25.807Z</time></trkpt><trkpt lat="40.1343075" lon="9.5124407"><ele>740.0</ele><time>2026-03-28T10:11:26.803Z</time></trkpt><trkpt lat="40.1341924" lon="9.5124491"><ele>740.0</ele><time>2026-03-28T10:11:27.808Z</time></trkpt><trkpt lat="40.1340678" lon="9.5124357"><ele>740.0</ele><time>2026-03-28T10:11:28.802Z</time></trkpt><trkpt lat="40.1339468" lon="9.5124186"><ele>740.0</ele><time>2026-03-28T10:11:29.815Z</time></trkpt><trkpt lat="40.1338431" lon="9.5124094"><ele>740.0</ele><time>2026-03-28T10:11:30.805Z</time></trkpt><trkpt lat="40.1337344" lon="9.512403"><ele>740.0</ele><time>2026-03-28T10:11:31.803Z</time></trkpt><trkpt lat="40.1336281" lon="9.5124022"><ele>740.0</ele><time>2026-03-28T10:11:32.808Z</time></trkpt><trkpt lat="40.1335281" lon="9.5123869"><ele>740.0</ele><time>2026-03-28T10:11:33.801Z</time></trkpt><trkpt lat="40.1334336" lon="9.5123701"><ele>740.0</ele><time>2026-03-28T10:11:34.802Z</time></trkpt><trkpt lat="40.1333441" lon="9.5123423"><ele>740.0</ele><time>2026-03-28T10:11:35.8Z</time></trkpt><trkpt lat="40.1332391" lon="9.5123102"><ele>740.0</ele><time>2026-03-28T10:11:36.8Z</time></trkpt><trkpt lat="40.1331123" lon="9.5122621"><ele>740.0</ele><time>2026-03-28T10:11:37.802Z</time></trkpt><trkpt lat="40.1329782" lon="9.5122252"><ele>740.0</ele><time>2026-03-28T10:11:38.804Z</time></trkpt><trkpt lat="40.1328496" lon="9.5121977"><ele>742.25</ele><time>2026-03-28T10:11:39.801Z</time></trkpt><trkpt lat="40.1327247" lon="9.5121869"><ele>744.5</ele><time>2026-03-28T10:11:40.806Z</time></trkpt><trkpt lat="40.1326144" lon="9.512202"><ele>746.75</ele><time>2026-03-28T10:11:41.801Z</time></trkpt><trkpt lat="40.1325074" lon="9.5122438"><ele>749.0</ele><time>2026-03-28T10:11:42.802Z</time></trkpt><trkpt lat="40.1324001" lon="9.5122912"><ele>750.3333333333333</ele><time>2026-03-28T10:11:43.807Z</time></trkpt><trkpt lat="40.1323006" lon="9.5123455"><ele>751.6666666666666</ele><time>2026-03-28T10:11:44.804Z</time></trkpt><trkpt lat="40.1322245" lon="9.5123689"><ele>753.0</ele><time>2026-03-28T10:11:45.805Z</time></trkpt><trkpt lat="40.1321446" lon="9.512356"><ele>754.3333333333334</ele><time>2026-03-28T10:11:46.803Z</time></trkpt><trkpt lat="40.1320755" lon="9.5123062"><ele>755.6666666666667</ele><time>2026-03-28T10:11:47.804Z</time></trkpt><trkpt lat="40.1320056" lon="9.5122613"><ele>757.0</ele><time>2026-03-28T10:11:48.808Z</time></trkpt><trkpt lat="40.1319229" lon="9.5122761"><ele>757.0</ele><time>2026-03-28T10:11:49.804Z</time></trkpt><trkpt lat="40.1318308" lon="9.5123225"><ele>757.0</ele><time>2026-03-28T10:11:50.803Z</time></trkpt><trkpt lat="40.1317286" lon="9.5123907"><ele>757.0</ele><time>2026-03-28T10:11:51.807Z</time></trkpt><trkpt lat="40.1316272" lon="9.5124632"><ele>757.0</ele><time>2026-03-28T10:11:52.802Z</time></trkpt><trkpt lat="40.1315445" lon="9.5125201"><ele>757.0</ele><time>2026-03-28T10:11:53.808Z</time></trkpt><trkpt lat="40.1314839" lon="9.512554"><ele>756.5</ele><time>2026-03-28T10:11:54.807Z</time></trkpt><trkpt lat="40.1314068" lon="9.5125839"><ele>756.0</ele><time>2026-03-28T10:11:55.802Z</time></trkpt><trkpt lat="40.1313237" lon="9.5126128"><ele>755.5</ele><time>2026-03-28T10:11:56.809Z</time></trkpt><trkpt lat="40.1312519" lon="9.5126117"><ele>755.0</ele><time>2026-03-28T10:11:57.804Z</time></trkpt><trkpt lat="40.1311608" lon="9.5125998"><ele>754.5</ele><time>2026-03-28T10:11:58.805Z</time></trkpt><trkpt lat="40.1310571" lon="9.5125733"><ele>754.0</ele><time>2026-03-28T10:11:59.809Z</time></trkpt><trkpt lat="40.130948" lon="9.5125537"><ele>754.0</ele><time>2026-03-28T10:12:00.81Z</time></trkpt><trkpt lat="40.1308387" lon="9.5125463"><ele>754.0</ele><time>2026-03-28T10:12:01.807Z</time></trkpt><trkpt lat="40.1307289" lon="9.5125404"><ele>754.0</ele><time>2026-03-28T10:12:02.804Z</time></trkpt><trkpt lat="40.1306038" lon="9.512544"><ele>754.0</ele><time>2026-03-28T10:12:03.805Z</time></trkpt><trkpt lat="40.1304828" lon="9.5125448"><ele>754.0</ele><time>2026-03-28T10:12:04.803Z</time></trkpt><trkpt lat="40.1303773" lon="9.5125416"><ele>754.0</ele><time>2026-03-28T10:12:05.802Z</time></trkpt><trkpt lat="40.1302837" lon="9.5125241"><ele>754.0</ele><time>2026-03-28T10:12:06.804Z</time></trkpt><trkpt lat="40.1302056" lon="9.5124968"><ele>754.0</ele><time>2026-03-28T10:12:07.806Z</time></trkpt><trkpt lat="40.1301388" lon="9.5124663"><ele>754.0</ele><time>2026-03-28T10:12:08.802Z</time></trkpt><trkpt lat="40.1300775" lon="9.5124392"><ele>754.0</ele><time>2026-03-28T10:12:09.809Z</time></trkpt><trkpt lat="40.1299701" lon="9.512366"><ele>754.0</ele><time>2026-03-28T10:12:11.826Z</time></trkpt><trkpt lat="40.1299048" lon="9.5123204"><ele>754.0</ele><time>2026-03-28T10:12:12.805Z</time></trkpt><trkpt lat="40.1298349" lon="9.5122812"><ele>754.0</ele><time>2026-03-28T10:12:13.806Z</time></trkpt><trkpt lat="40.1297604" lon="9.5122466"><ele>754.0</ele><time>2026-03-28T10:12:14.806Z</time></trkpt><trkpt lat="40.1296813" lon="9.512245"><ele>754.0</ele><time>2026-03-28T10:12:15.806Z</time></trkpt><trkpt lat="40.1295952" lon="9.5122561"><ele>754.0</ele><time>2026-03-28T10:12:16.807Z</time></trkpt><trkpt lat="40.1294997" lon="9.5123068"><ele>754.2</ele><time>2026-03-28T10:12:17.804Z</time></trkpt><trkpt lat="40.1294083" lon="9.512378"><ele>754.4000000000001</ele><time>2026-03-28T10:12:18.809Z</time></trkpt><trkpt lat="40.1293128" lon="9.5124244"><ele>754.6</ele><time>2026-03-28T10:12:19.804Z</time></trkpt><trkpt lat="40.1292155" lon="9.5124568"><ele>754.8</ele><time>2026-03-28T10:12:20.806Z</time></trkpt><trkpt lat="40.1291114" lon="9.5124815"><ele>755.0</ele><time>2026-03-28T10:12:21.808Z</time></trkpt><trkpt lat="40.1290069" lon="9.5125002"><ele>755.6</ele><time>2026-03-28T10:12:22.797Z</time></trkpt><trkpt lat="40.1289065" lon="9.5125184"><ele>756.2</ele><time>2026-03-28T10:12:23.805Z</time></trkpt><trkpt lat="40.1288016" lon="9.5125097"><ele>756.8</ele><time>2026-03-28T10:12:24.812Z</time></trkpt><trkpt lat="40.1286966" lon="9.5125012"><ele>757.4</ele><time>2026-03-28T10:12:25.803Z</time></trkpt><trkpt lat="40.1285954" lon="9.5124847"><ele>758.0</ele><time>2026-03-28T10:12:26.806Z</time></trkpt><trkpt lat="40.1285015" lon="9.512484"><ele>758.0</ele><time>2026-03-28T10:12:27.803Z</time></trkpt><trkpt lat="40.1284259" lon="9.5125033"><ele>758.0</ele><time>2026-03-28T10:12:28.804Z</time></trkpt><trkpt lat="40.1283663" lon="9.5125402"><ele>758.0</ele><time>2026-03-28T10:12:29.814Z</time></trkpt><trkpt lat="40.1282881" lon="9.5126693"><ele>758.0</ele><time>2026-03-28T10:12:31.804Z</time></trkpt><trkpt lat="40.1282379" lon="9.5127677"><ele>758.0</ele><time>2026-03-28T10:12:32.808Z</time></trkpt><trkpt lat="40.1281785" lon="9.5128623"><ele>757.3333333333333</ele><time>2026-03-28T10:12:33.799Z</time></trkpt><trkpt lat="40.1281325" lon="9.5129476"><ele>756.6666666666666</ele><time>2026-03-28T10:12:34.819Z</time></trkpt><trkpt lat="40.12811" lon="9.5130356"><ele>756.0</ele><time>2026-03-28T10:12:35.802Z</time></trkpt><trkpt lat="40.1281055" lon="9.513135"><ele>755.3333333333334</ele><time>2026-03-28T10:12:36.806Z</time></trkpt><trkpt lat="40.128102" lon="9.5132364"><ele>754.6666666666667</ele><time>2026-03-28T10:12:37.808Z</time></trkpt><trkpt lat="40.1280964" lon="9.5133472"><ele>754.0</ele><time>2026-03-28T10:12:38.807Z</time></trkpt><trkpt lat="40.1280697" lon="9.5134646"><ele>754.0</ele><time>2026-03-28T10:12:39.806Z</time></trkpt><trkpt lat="40.1280263" lon="9.5135919"><ele>754.0</ele><time>2026-03-28T10:12:40.805Z</time></trkpt><trkpt lat="40.1279725" lon="9.5137294"><ele>754.0</ele><time>2026-03-28T10:12:41.807Z</time></trkpt><trkpt lat="40.1279215" lon="9.5138566"><ele>754.0</ele><time>2026-03-28T10:12:42.805Z</time></trkpt><trkpt lat="40.1278524" lon="9.5139546"><ele>754.0</ele><time>2026-03-28T10:12:43.808Z</time></trkpt><trkpt lat="40.1277683" lon="9.5140375"><ele>752.5</ele><time>2026-03-28T10:12:44.802Z</time></trkpt><trkpt lat="40.1277194" lon="9.5141104"><ele>751.0</ele><time>2026-03-28T10:12:45.808Z</time></trkpt><trkpt lat="40.1277047" lon="9.5141914"><ele>749.5</ele><time>2026-03-28T10:12:46.801Z</time></trkpt><trkpt lat="40.1276919" lon="9.5142869"><ele>748.0</ele><time>2026-03-28T10:12:47.804Z</time></trkpt><trkpt lat="40.1277211" lon="9.5144036"><ele>746.5</ele><time>2026-03-28T10:12:48.807Z</time></trkpt><trkpt lat="40.1277568" lon="9.5145339"><ele>745.0</ele><time>2026-03-28T10:12:49.804Z</time></trkpt><trkpt lat="40.1277704" lon="9.5146622"><ele>742.75</ele><time>2026-03-28T10:12:50.805Z</time></trkpt><trkpt lat="40.1277379" lon="9.5148037"><ele>740.5</ele><time>2026-03-28T10:12:51.804Z</time></trkpt><trkpt lat="40.127683" lon="9.514947"><ele>738.25</ele><time>2026-03-28T10:12:52.801Z</time></trkpt><trkpt lat="40.1276283" lon="9.5150741"><ele>736.0</ele><time>2026-03-28T10:12:53.801Z</time></trkpt><trkpt lat="40.1275539" lon="9.5151675"><ele>736.0</ele><time>2026-03-28T10:12:54.81Z</time></trkpt><trkpt lat="40.1274348" lon="9.5152117"><ele>736.0</ele><time>2026-03-28T10:12:55.806Z</time></trkpt><trkpt lat="40.1273063" lon="9.5152538"><ele>736.0</ele><time>2026-03-28T10:12:56.803Z</time></trkpt><trkpt lat="40.1271458" lon="9.5152882"><ele>736.0</ele><time>2026-03-28T10:12:57.799Z</time></trkpt><trkpt lat="40.1269848" lon="9.5153393"><ele>736.25</ele><time>2026-03-28T10:12:58.808Z</time></trkpt><trkpt lat="40.1268374" lon="9.5153721"><ele>736.5</ele><time>2026-03-28T10:12:59.806Z</time></trkpt><trkpt lat="40.1267207" lon="9.5153933"><ele>736.75</ele><time>2026-03-28T10:13:00.806Z</time></trkpt><trkpt lat="40.1266311" lon="9.5154245"><ele>737.0</ele><time>2026-03-28T10:13:01.81Z</time></trkpt><trkpt lat="40.1265411" lon="9.5154608"><ele>739.5</ele><time>2026-03-28T10:13:02.8Z</time></trkpt><trkpt lat="40.1264613" lon="9.5155669"><ele>742.0</ele><time>2026-03-28T10:13:03.801Z</time></trkpt><trkpt lat="40.1263677" lon="9.5156904"><ele>744.5</ele><time>2026-03-28T10:13:04.809Z</time></trkpt><trkpt lat="40.1262863" lon="9.5158136"><ele>747.0</ele><time>2026-03-28T10:13:05.812Z</time></trkpt><trkpt lat="40.1262003" lon="9.5159081"><ele>747.0</ele><time>2026-03-28T10:13:06.806Z</time></trkpt><trkpt lat="40.1261045" lon="9.5159965"><ele>747.0</ele><time>2026-03-28T10:13:07.801Z</time></trkpt><trkpt lat="40.1260047" lon="9.5160837"><ele>747.0</ele><time>2026-03-28T10:13:08.808Z</time></trkpt><trkpt lat="40.1258985" lon="9.5161727"><ele>747.0</ele><time>2026-03-28T10:13:09.806Z</time></trkpt><trkpt lat="40.1257729" lon="9.5162044"><ele>744.75</ele><time>2026-03-28T10:13:10.8Z</time></trkpt><trkpt lat="40.1256489" lon="9.516243"><ele>742.5</ele><time>2026-03-28T10:13:11.805Z</time></trkpt><trkpt lat="40.125541" lon="9.5163064"><ele>740.25</ele><time>2026-03-28T10:13:12.805Z</time></trkpt><trkpt lat="40.1254407" lon="9.5164143"><ele>738.0</ele><time>2026-03-28T10:13:13.806Z</time></trkpt><trkpt lat="40.1253459" lon="9.5165217"><ele>738.0</ele><time>2026-03-28T10:13:14.808Z</time></trkpt><trkpt lat="40.1252524" lon="9.5166218"><ele>738.0</ele><time>2026-03-28T10:13:15.799Z</time></trkpt><trkpt lat="40.1251542" lon="9.5166926"><ele>738.0</ele><time>2026-03-28T10:13:16.802Z</time></trkpt><trkpt lat="40.1250202" lon="9.51671"><ele>738.0</ele><time>2026-03-28T10:13:17.806Z</time></trkpt><trkpt lat="40.1248833" lon="9.5167281"><ele>738.0</ele><time>2026-03-28T10:13:18.803Z</time></trkpt><trkpt lat="40.124743" lon="9.5167377"><ele>738.0</ele><time>2026-03-28T10:13:19.805Z</time></trkpt><trkpt lat="40.1246108" lon="9.5167686"><ele>738.0</ele><time>2026-03-28T10:13:20.82Z</time></trkpt><trkpt lat="40.1244791" lon="9.5168063"><ele>738.0</ele><time>2026-03-28T10:13:21.804Z</time></trkpt><trkpt lat="40.1243487" lon="9.5168726"><ele>738.0</ele><time>2026-03-28T10:13:22.81Z</time></trkpt><trkpt lat="40.1242145" lon="9.5169588"><ele>738.0</ele><time>2026-03-28T10:13:23.808Z</time></trkpt><trkpt lat="40.124091" lon="9.5170427"><ele>738.0</ele><time>2026-03-28T10:13:24.805Z</time></trkpt><trkpt lat="40.1239889" lon="9.5171133"><ele>738.0</ele><time>2026-03-28T10:13:25.8Z</time></trkpt><trkpt lat="40.1238991" lon="9.5171573"><ele>735.4</ele><time>2026-03-28T10:13:26.804Z</time></trkpt><trkpt lat="40.1238025" lon="9.5171654"><ele>732.8</ele><time>2026-03-28T10:13:27.805Z</time></trkpt><trkpt lat="40.123688" lon="9.5171399"><ele>730.2</ele><time>2026-03-28T10:13:28.807Z</time></trkpt><trkpt lat="40.1235748" lon="9.5171082"><ele>727.6</ele><time>2026-03-28T10:13:29.804Z</time></trkpt><trkpt lat="40.1234622" lon="9.5170742"><ele>725.0</ele><time>2026-03-28T10:13:30.801Z</time></trkpt><trkpt lat="40.1233545" lon="9.5170804"><ele>725.0</ele><time>2026-03-28T10:13:31.802Z</time></trkpt><trkpt lat="40.1232552" lon="9.5170944"><ele>725.0</ele><time>2026-03-28T10:13:32.804Z</time></trkpt><trkpt lat="40.1231566" lon="9.5171262"><ele>725.0</ele><time>2026-03-28T10:13:33.803Z</time></trkpt><trkpt lat="40.1230545" lon="9.517163"><ele>725.0</ele><time>2026-03-28T10:13:34.803Z</time></trkpt><trkpt lat="40.1229331" lon="9.5172261"><ele>725.0</ele><time>2026-03-28T10:13:35.801Z</time></trkpt><trkpt lat="40.1228186" lon="9.5172877"><ele>724.8</ele><time>2026-03-28T10:13:36.81Z</time></trkpt><trkpt lat="40.1227066" lon="9.5173486"><ele>724.6</ele><time>2026-03-28T10:13:37.807Z</time></trkpt><trkpt lat="40.1226034" lon="9.517401"><ele>724.4000000000001</ele><time>2026-03-28T10:13:38.805Z</time></trkpt><trkpt lat="40.1225124" lon="9.5174351"><ele>724.2</ele><time>2026-03-28T10:13:39.805Z</time></trkpt><trkpt lat="40.1224335" lon="9.5174305"><ele>724.0</ele><time>2026-03-28T10:13:40.808Z</time></trkpt><trkpt lat="40.1223433" lon="9.517365"><ele>727.0</ele><time>2026-03-28T10:13:41.807Z</time></trkpt><trkpt lat="40.1222555" lon="9.5172686"><ele>730.0</ele><time>2026-03-28T10:13:42.806Z</time></trkpt><trkpt lat="40.1221739" lon="9.5171594"><ele>733.0</ele><time>2026-03-28T10:13:43.813Z</time></trkpt><trkpt lat="40.1220975" lon="9.5170696"><ele>736.0</ele><time>2026-03-28T10:13:44.81Z</time></trkpt><trkpt lat="40.1220287" lon="9.5169982"><ele>739.0</ele><time>2026-03-28T10:13:45.8Z</time></trkpt><trkpt lat="40.1219642" lon="9.5169307"><ele>739.0</ele><time>2026-03-28T10:13:46.804Z</time></trkpt><trkpt lat="40.1218812" lon="9.5168909"><ele>739.0</ele><time>2026-03-28T10:13:48.811Z</time></trkpt><trkpt lat="40.1218082" lon="9.5169403"><ele>739.0</ele><time>2026-03-28T10:13:50.809Z</time></trkpt><trkpt lat="40.121782" lon="9.5170196"><ele>739.0</ele><time>2026-03-28T10:13:51.806Z</time></trkpt><trkpt lat="40.1217529" lon="9.5171396"><ele>739.0</ele><time>2026-03-28T10:13:52.816Z</time></trkpt><trkpt lat="40.1217165" lon="9.5172916"><ele>739.0</ele><time>2026-03-28T10:13:53.82Z</time></trkpt><trkpt lat="40.1216777" lon="9.5174556"><ele>739.0</ele><time>2026-03-28T10:13:54.804Z</time></trkpt><trkpt lat="40.1216371" lon="9.5176104"><ele>739.0</ele><time>2026-03-28T10:13:55.812Z</time></trkpt><trkpt lat="40.1216009" lon="9.517756"><ele>739.0</ele><time>2026-03-28T10:13:56.809Z</time></trkpt><trkpt lat="40.1215607" lon="9.5179034"><ele>742.5</ele><time>2026-03-28T10:13:57.807Z</time></trkpt><trkpt lat="40.1215175" lon="9.5180522"><ele>746.0</ele><time>2026-03-28T10:13:58.811Z</time></trkpt><trkpt lat="40.1214514" lon="9.5181783"><ele>749.5</ele><time>2026-03-28T10:13:59.806Z</time></trkpt><trkpt lat="40.1213777" lon="9.5182873"><ele>753.0</ele><time>2026-03-28T10:14:00.809Z</time></trkpt><trkpt lat="40.1212977" lon="9.5183688"><ele>753.0</ele><time>2026-03-28T10:14:01.811Z</time></trkpt><trkpt lat="40.1212232" lon="9.5184378"><ele>753.0</ele><time>2026-03-28T10:14:02.803Z</time></trkpt><trkpt lat="40.1211352" lon="9.5184586"><ele>753.0</ele><time>2026-03-28T10:14:03.812Z</time></trkpt><trkpt lat="40.1210368" lon="9.5184415"><ele>753.0</ele><time>2026-03-28T10:14:04.806Z</time></trkpt><trkpt lat="40.1209661" lon="9.5184578"><ele>753.0</ele><time>2026-03-28T10:14:05.805Z</time></trkpt><trkpt lat="40.1209009" lon="9.5185771"><ele>753.0</ele><time>2026-03-28T10:14:07.813Z</time></trkpt><trkpt lat="40.1209029" lon="9.5186707"><ele>753.0</ele><time>2026-03-28T10:14:08.806Z</time></trkpt><trkpt lat="40.1209042" lon="9.5187707"><ele>753.0</ele><time>2026-03-28T10:14:09.81Z</time></trkpt><trkpt lat="40.1209277" lon="9.5188768"><ele>753.0</ele><time>2026-03-28T10:14:10.805Z</time></trkpt><trkpt lat="40.120958" lon="9.5189961"><ele>753.0</ele><time>2026-03-28T10:14:11.804Z</time></trkpt><trkpt lat="40.120987" lon="9.5190807"><ele>753.0</ele><time>2026-03-28T10:14:12.802Z</time></trkpt><trkpt lat="40.1210566" lon="9.5191259"><ele>754.0</ele><time>2026-03-28T10:14:13.806Z</time></trkpt><trkpt lat="40.1211453" lon="9.5191713"><ele>755.0</ele><time>2026-03-28T10:14:14.804Z</time></trkpt><trkpt lat="40.1212391" lon="9.519232"><ele>756.0</ele><time>2026-03-28T10:14:15.808Z</time></trkpt><trkpt lat="40.1213358" lon="9.5193012"><ele>757.0</ele><time>2026-03-28T10:14:16.805Z</time></trkpt><trkpt lat="40.121426" lon="9.5193766"><ele>758.0</ele><time>2026-03-28T10:14:17.808Z</time></trkpt><trkpt lat="40.1214989" lon="9.5194593"><ele>758.0</ele><time>2026-03-28T10:14:18.807Z</time></trkpt><trkpt lat="40.121552" lon="9.5195602"><ele>758.0</ele><time>2026-03-28T10:14:19.804Z</time></trkpt><trkpt lat="40.1216076" lon="9.5196634"><ele>758.0</ele><time>2026-03-28T10:14:20.804Z</time></trkpt><trkpt lat="40.1216514" lon="9.5197807"><ele>758.0</ele><time>2026-03-28T10:14:21.808Z</time></trkpt><trkpt lat="40.1217088" lon="9.5199055"><ele>758.0</ele><time>2026-03-28T10:14:22.803Z</time></trkpt><trkpt lat="40.1217873" lon="9.5200195"><ele>758.8</ele><time>2026-03-28T10:14:23.812Z</time></trkpt><trkpt lat="40.1218677" lon="9.520129"><ele>759.5999999999999</ele><time>2026-03-28T10:14:24.805Z</time></trkpt><trkpt lat="40.1219372" lon="9.5202297"><ele>760.4000000000001</ele><time>2026-03-28T10:14:25.809Z</time></trkpt><trkpt lat="40.1219814" lon="9.5203433"><ele>761.2</ele><time>2026-03-28T10:14:26.806Z</time></trkpt><trkpt lat="40.1220261" lon="9.5204369"><ele>762.0</ele><time>2026-03-28T10:14:27.809Z</time></trkpt><trkpt lat="40.122088" lon="9.5204703"><ele>762.0</ele><time>2026-03-28T10:14:28.808Z</time></trkpt><trkpt lat="40.1221686" lon="9.5204757"><ele>762.0</ele><time>2026-03-28T10:14:29.801Z</time></trkpt><trkpt lat="40.1222696" lon="9.5204779"><ele>762.0</ele><time>2026-03-28T10:14:30.802Z</time></trkpt><trkpt lat="40.1223686" lon="9.5204935"><ele>762.0</ele><time>2026-03-28T10:14:31.804Z</time></trkpt><trkpt lat="40.1224511" lon="9.5205348"><ele>762.0</ele><time>2026-03-28T10:14:32.811Z</time></trkpt><trkpt lat="40.1225187" lon="9.5206094"><ele>759.5</ele><time>2026-03-28T10:14:33.806Z</time></trkpt><trkpt lat="40.1225864" lon="9.5206881"><ele>757.0</ele><time>2026-03-28T10:14:34.805Z</time></trkpt><trkpt lat="40.1226253" lon="9.520806"><ele>754.5</ele><time>2026-03-28T10:14:35.808Z</time></trkpt><trkpt lat="40.1226616" lon="9.5209661"><ele>752.0</ele><time>2026-03-28T10:14:36.807Z</time></trkpt><trkpt lat="40.1227392" lon="9.5211194"><ele>756.0</ele><time>2026-03-28T10:14:37.798Z</time></trkpt><trkpt lat="40.1228328" lon="9.521234"><ele>760.0</ele><time>2026-03-28T10:14:38.803Z</time></trkpt><trkpt lat="40.1229393" lon="9.5213287"><ele>764.0</ele><time>2026-03-28T10:14:39.806Z</time></trkpt><trkpt lat="40.1230565" lon="9.5214043"><ele>768.0</ele><time>2026-03-28T10:14:40.827Z</time></trkpt><trkpt lat="40.1231809" lon="9.5214723"><ele>765.0</ele><time>2026-03-28T10:14:41.804Z</time></trkpt><trkpt lat="40.1233009" lon="9.5215462"><ele>762.0</ele><time>2026-03-28T10:14:42.805Z</time></trkpt><trkpt lat="40.1234131" lon="9.5216276"><ele>759.0</ele><time>2026-03-28T10:14:43.808Z</time></trkpt><trkpt lat="40.1235201" lon="9.5217172"><ele>756.0</ele><time>2026-03-28T10:14:44.806Z</time></trkpt><trkpt lat="40.1236221" lon="9.5218108"><ele>756.0</ele><time>2026-03-28T10:14:45.808Z</time></trkpt><trkpt lat="40.1237182" lon="9.5219099"><ele>756.0</ele><time>2026-03-28T10:14:46.804Z</time></trkpt><trkpt lat="40.1238119" lon="9.5220104"><ele>756.0</ele><time>2026-03-28T10:14:47.807Z</time></trkpt><trkpt lat="40.1238992" lon="9.5221122"><ele>756.0</ele><time>2026-03-28T10:14:48.806Z</time></trkpt><trkpt lat="40.12398" lon="9.5222206"><ele>757.25</ele><time>2026-03-28T10:14:49.81Z</time></trkpt><trkpt lat="40.1240653" lon="9.5223299"><ele>758.5</ele><time>2026-03-28T10:14:50.801Z</time></trkpt><trkpt lat="40.1241606" lon="9.5224256"><ele>759.75</ele><time>2026-03-28T10:14:51.802Z</time></trkpt><trkpt lat="40.1242653" lon="9.5225038"><ele>761.0</ele><time>2026-03-28T10:14:52.8Z</time></trkpt><trkpt lat="40.124373" lon="9.5225679"><ele>761.0</ele><time>2026-03-28T10:14:53.811Z</time></trkpt><trkpt lat="40.1244793" lon="9.5226211"><ele>761.0</ele><time>2026-03-28T10:14:54.804Z</time></trkpt><trkpt lat="40.1245829" lon="9.5226747"><ele>761.0</ele><time>2026-03-28T10:14:55.805Z</time></trkpt><trkpt lat="40.1246806" lon="9.5227419"><ele>761.0</ele><time>2026-03-28T10:14:56.797Z</time></trkpt><trkpt lat="40.124767" lon="9.5228278"><ele>761.0</ele><time>2026-03-28T10:14:57.805Z</time></trkpt><trkpt lat="40.12484" lon="9.5229298"><ele>760.0</ele><time>2026-03-28T10:14:58.805Z</time></trkpt><trkpt lat="40.1249094" lon="9.5230295"><ele>759.0</ele><time>2026-03-28T10:14:59.807Z</time></trkpt><trkpt lat="40.1249463" lon="9.5231343"><ele>758.0</ele><time>2026-03-28T10:15:00.801Z</time></trkpt><trkpt lat="40.1249395" lon="9.5232668"><ele>757.0</ele><time>2026-03-28T10:15:01.808Z</time></trkpt><trkpt lat="40.1249121" lon="9.5234074"><ele>756.0</ele><time>2026-03-28T10:15:02.807Z</time></trkpt><trkpt lat="40.1248664" lon="9.5235518"><ele>761.1999999999999</ele><time>2026-03-28T10:15:03.804Z</time></trkpt><trkpt lat="40.1248082" lon="9.523686"><ele>766.4</ele><time>2026-03-28T10:15:04.813Z</time></trkpt><trkpt lat="40.1247524" lon="9.5238075"><ele>771.6</ele><time>2026-03-28T10:15:05.808Z</time></trkpt><trkpt lat="40.1247044" lon="9.5239143"><ele>776.8</ele><time>2026-03-28T10:15:06.805Z</time></trkpt><trkpt lat="40.1246766" lon="9.5240017"><ele>782.0</ele><time>2026-03-28T10:15:07.802Z</time></trkpt><trkpt lat="40.1246923" lon="9.5240969"><ele>782.6</ele><time>2026-03-28T10:15:08.807Z</time></trkpt><trkpt lat="40.1247091" lon="9.5241955"><ele>783.2</ele><time>2026-03-28T10:15:09.802Z</time></trkpt><trkpt lat="40.1247611" lon="9.5243054"><ele>783.8</ele><time>2026-03-28T10:15:10.804Z</time></trkpt><trkpt lat="40.1248402" lon="9.5243975"><ele>784.4</ele><time>2026-03-28T10:15:11.816Z</time></trkpt><trkpt lat="40.12493" lon="9.5244759"><ele>785.0</ele><time>2026-03-28T10:15:12.801Z</time></trkpt><trkpt lat="40.1250261" lon="9.5245315"><ele>783.4</ele><time>2026-03-28T10:15:13.807Z</time></trkpt><trkpt lat="40.1251283" lon="9.5245881"><ele>781.8</ele><time>2026-03-28T10:15:14.811Z</time></trkpt><trkpt lat="40.1252317" lon="9.5246334"><ele>780.2</ele><time>2026-03-28T10:15:15.803Z</time></trkpt><trkpt lat="40.1253331" lon="9.5246935"><ele>778.6</ele><time>2026-03-28T10:15:16.805Z</time></trkpt><trkpt lat="40.1254294" lon="9.524765"><ele>777.0</ele><time>2026-03-28T10:15:17.803Z</time></trkpt><trkpt lat="40.1255218" lon="9.5248468"><ele>777.0</ele><time>2026-03-28T10:15:18.797Z</time></trkpt><trkpt lat="40.1256062" lon="9.5249482"><ele>777.0</ele><time>2026-03-28T10:15:19.804Z</time></trkpt><trkpt lat="40.1256753" lon="9.5250733"><ele>777.0</ele><time>2026-03-28T10:15:20.809Z</time></trkpt><trkpt lat="40.1257336" lon="9.5252163"><ele>777.0</ele><time>2026-03-28T10:15:21.801Z</time></trkpt><trkpt lat="40.1257948" lon="9.525364"><ele>775.75</ele><time>2026-03-28T10:15:22.806Z</time></trkpt><trkpt lat="40.1258524" lon="9.5255085"><ele>774.5</ele><time>2026-03-28T10:15:23.807Z</time></trkpt><trkpt lat="40.1259118" lon="9.5256512"><ele>773.25</ele><time>2026-03-28T10:15:24.805Z</time></trkpt><trkpt lat="40.1259785" lon="9.5257867"><ele>772.0</ele><time>2026-03-28T10:15:25.809Z</time></trkpt><trkpt lat="40.1260457" lon="9.5259148"><ele>772.0</ele><time>2026-03-28T10:15:26.806Z</time></trkpt><trkpt lat="40.1261025" lon="9.526046"><ele>772.0</ele><time>2026-03-28T10:15:27.812Z</time></trkpt><trkpt lat="40.1261498" lon="9.5261826"><ele>772.0</ele><time>2026-03-28T10:15:28.811Z</time></trkpt><trkpt lat="40.1261885" lon="9.526322"><ele>772.0</ele><time>2026-03-28T10:15:29.809Z</time></trkpt><trkpt lat="40.1262242" lon="9.5264561"><ele>773.75</ele><time>2026-03-28T10:15:30.81Z</time></trkpt><trkpt lat="40.1262382" lon="9.5265882"><ele>775.5</ele><time>2026-03-28T10:15:31.807Z</time></trkpt><trkpt lat="40.1262336" lon="9.5267333"><ele>777.25</ele><time>2026-03-28T10:15:32.807Z</time></trkpt><trkpt lat="40.1262276" lon="9.5269083"><ele>779.0</ele><time>2026-03-28T10:15:33.801Z</time></trkpt><trkpt lat="40.1262246" lon="9.5270731"><ele>779.5</ele><time>2026-03-28T10:15:34.803Z</time></trkpt><trkpt lat="40.1262237" lon="9.5272306"><ele>780.0</ele><time>2026-03-28T10:15:35.813Z</time></trkpt><trkpt lat="40.1262272" lon="9.5273861"><ele>780.5</ele><time>2026-03-28T10:15:36.803Z</time></trkpt><trkpt lat="40.1262296" lon="9.5275379"><ele>781.0</ele><time>2026-03-28T10:15:37.819Z</time></trkpt><trkpt lat="40.1262279" lon="9.5276833"><ele>781.0</ele><time>2026-03-28T10:15:38.804Z</time></trkpt><trkpt lat="40.1262082" lon="9.527831"><ele>781.0</ele><time>2026-03-28T10:15:39.811Z</time></trkpt><trkpt lat="40.1261844" lon="9.5279862"><ele>781.0</ele><time>2026-03-28T10:15:40.806Z</time></trkpt><trkpt lat="40.1261819" lon="9.5281482"><ele>781.0</ele><time>2026-03-28T10:15:41.808Z</time></trkpt><trkpt lat="40.1261877" lon="9.5283035"><ele>779.75</ele><time>2026-03-28T10:15:42.804Z</time></trkpt><trkpt lat="40.1261939" lon="9.528456"><ele>778.5</ele><time>2026-03-28T10:15:43.8Z</time></trkpt><trkpt lat="40.1261717" lon="9.5286059"><ele>777.25</ele><time>2026-03-28T10:15:44.81Z</time></trkpt><trkpt lat="40.1261315" lon="9.5287396"><ele>776.0</ele><time>2026-03-28T10:15:45.805Z</time></trkpt><trkpt lat="40.1260746" lon="9.5288654"><ele>773.5</ele><time>2026-03-28T10:15:46.806Z</time></trkpt><trkpt lat="40.126005" lon="9.528984"><ele>771.0</ele><time>2026-03-28T10:15:47.804Z</time></trkpt><trkpt lat="40.1259331" lon="9.5291017"><ele>768.5</ele><time>2026-03-28T10:15:48.804Z</time></trkpt><trkpt lat="40.1258611" lon="9.5292203"><ele>766.0</ele><time>2026-03-28T10:15:49.801Z</time></trkpt><trkpt lat="40.1257883" lon="9.5293433"><ele>768.5</ele><time>2026-03-28T10:15:50.803Z</time></trkpt><trkpt lat="40.1257166" lon="9.5294691"><ele>771.0</ele><time>2026-03-28T10:15:51.803Z</time></trkpt><trkpt lat="40.1256521" lon="9.5295993"><ele>773.5</ele><time>2026-03-28T10:15:52.807Z</time></trkpt><trkpt lat="40.1255917" lon="9.52973"><ele>776.0</ele><time>2026-03-28T10:15:53.806Z</time></trkpt><trkpt lat="40.1255256" lon="9.5298462"><ele>776.0</ele><time>2026-03-28T10:15:54.798Z</time></trkpt><trkpt lat="40.1254481" lon="9.5299491"><ele>776.0</ele><time>2026-03-28T10:15:55.809Z</time></trkpt><trkpt lat="40.1253705" lon="9.5300474"><ele>776.0</ele><time>2026-03-28T10:15:56.806Z</time></trkpt><trkpt lat="40.1252792" lon="9.5301455"><ele>776.0</ele><time>2026-03-28T10:15:57.807Z</time></trkpt><trkpt lat="40.1252024" lon="9.5302625"><ele>771.0</ele><time>2026-03-28T10:15:58.807Z</time></trkpt><trkpt lat="40.1251354" lon="9.530395"><ele>766.0</ele><time>2026-03-28T10:15:59.809Z</time></trkpt><trkpt lat="40.1250696" lon="9.5305293"><ele>761.0</ele><time>2026-03-28T10:16:00.81Z</time></trkpt><trkpt lat="40.1250017" lon="9.5306589"><ele>756.0</ele><time>2026-03-28T10:16:01.808Z</time></trkpt><trkpt lat="40.1249362" lon="9.5307816"><ele>758.8</ele><time>2026-03-28T10:16:02.802Z</time></trkpt><trkpt lat="40.1248613" lon="9.5308779"><ele>761.5999999999999</ele><time>2026-03-28T10:16:03.809Z</time></trkpt><trkpt lat="40.1247809" lon="9.5309425"><ele>764.4</ele><time>2026-03-28T10:16:04.804Z</time></trkpt><trkpt lat="40.1246866" lon="9.5309826"><ele>767.2</ele><time>2026-03-28T10:16:05.808Z</time></trkpt><trkpt lat="40.124582" lon="9.5310092"><ele>770.0</ele><time>2026-03-28T10:16:06.812Z</time></trkpt><trkpt lat="40.1244703" lon="9.5310223"><ele>770.0</ele><time>2026-03-28T10:16:07.805Z</time></trkpt><trkpt lat="40.1243549" lon="9.5310227"><ele>770.0</ele><time>2026-03-28T10:16:08.802Z</time></trkpt><trkpt lat="40.1242388" lon="9.5310198"><ele>770.0</ele><time>2026-03-28T10:16:09.807Z</time></trkpt><trkpt lat="40.1241188" lon="9.5310246"><ele>770.0</ele><time>2026-03-28T10:16:10.803Z</time></trkpt><trkpt lat="40.1239974" lon="9.5310524"><ele>772.25</ele><time>2026-03-28T10:16:11.801Z</time></trkpt><trkpt lat="40.1238831" lon="9.5310983"><ele>774.5</ele><time>2026-03-28T10:16:12.803Z</time></trkpt><trkpt lat="40.1237691" lon="9.5311451"><ele>776.75</ele><time>2026-03-28T10:16:13.803Z</time></trkpt><trkpt lat="40.1236595" lon="9.5312064"><ele>779.0</ele><time>2026-03-28T10:16:14.803Z</time></trkpt><trkpt lat="40.1235471" lon="9.531253"><ele>772.75</ele><time>2026-03-28T10:16:15.808Z</time></trkpt><trkpt lat="40.123432" lon="9.5313012"><ele>766.5</ele><time>2026-03-28T10:16:16.808Z</time></trkpt><trkpt lat="40.1233127" lon="9.531322"><ele>760.25</ele><time>2026-03-28T10:16:17.805Z</time></trkpt><trkpt lat="40.1231923" lon="9.5313433"><ele>754.0</ele><time>2026-03-28T10:16:18.818Z</time></trkpt><trkpt lat="40.1230678" lon="9.5313436"><ele>753.25</ele><time>2026-03-28T10:16:19.805Z</time></trkpt><trkpt lat="40.1229454" lon="9.5313211"><ele>752.5</ele><time>2026-03-28T10:16:20.806Z</time></trkpt><trkpt lat="40.1228223" lon="9.5312834"><ele>751.75</ele><time>2026-03-28T10:16:21.808Z</time></trkpt><trkpt lat="40.1226923" lon="9.5312388"><ele>751.0</ele><time>2026-03-28T10:16:22.804Z</time></trkpt><trkpt lat="40.1225611" lon="9.5311913"><ele>756.25</ele><time>2026-03-28T10:16:23.809Z</time></trkpt><trkpt lat="40.1224328" lon="9.5311353"><ele>761.5</ele><time>2026-03-28T10:16:24.805Z</time></trkpt><trkpt lat="40.1223081" lon="9.5310808"><ele>766.75</ele><time>2026-03-28T10:16:25.81Z</time></trkpt><trkpt lat="40.1221869" lon="9.5310406"><ele>772.0</ele><time>2026-03-28T10:16:26.81Z</time></trkpt><trkpt lat="40.1220684" lon="9.5310055"><ele>772.0</ele><time>2026-03-28T10:16:27.805Z</time></trkpt><trkpt lat="40.1219455" lon="9.530992"><ele>772.0</ele><time>2026-03-28T10:16:28.808Z</time></trkpt><trkpt lat="40.1218209" lon="9.5309704"><ele>772.0</ele><time>2026-03-28T10:16:29.802Z</time></trkpt><trkpt lat="40.1216961" lon="9.5309337"><ele>772.0</ele><time>2026-03-28T10:16:30.804Z</time></trkpt><trkpt lat="40.1215687" lon="9.5308937"><ele>772.0</ele><time>2026-03-28T10:16:31.803Z</time></trkpt><trkpt lat="40.1214429" lon="9.5308541"><ele>772.0</ele><time>2026-03-28T10:16:32.807Z</time></trkpt><trkpt lat="40.1213209" lon="9.5308275"><ele>772.0</ele><time>2026-03-28T10:16:33.81Z</time></trkpt><trkpt lat="40.1212066" lon="9.5308264"><ele>772.0</ele><time>2026-03-28T10:16:34.804Z</time></trkpt><trkpt lat="40.121092" lon="9.5308271"><ele>772.0</ele><time>2026-03-28T10:16:35.804Z</time></trkpt><trkpt lat="40.120973" lon="9.5308491"><ele>772.0</ele><time>2026-03-28T10:16:36.799Z</time></trkpt><trkpt lat="40.1208547" lon="9.5308581"><ele>772.0</ele><time>2026-03-28T10:16:37.806Z</time></trkpt><trkpt lat="40.1207438" lon="9.5308411"><ele>772.0</ele><time>2026-03-28T10:16:38.803Z</time></trkpt><trkpt lat="40.1206367" lon="9.5307969"><ele>770.5</ele><time>2026-03-28T10:16:39.808Z</time></trkpt><trkpt lat="40.120526" lon="9.5307327"><ele>769.0</ele><time>2026-03-28T10:16:40.811Z</time></trkpt><trkpt lat="40.1204188" lon="9.5306659"><ele>767.5</ele><time>2026-03-28T10:16:41.804Z</time></trkpt><trkpt lat="40.1203158" lon="9.5305836"><ele>766.0</ele><time>2026-03-28T10:16:42.798Z</time></trkpt><trkpt lat="40.1202125" lon="9.5305072"><ele>766.0</ele><time>2026-03-28T10:16:43.807Z</time></trkpt><trkpt lat="40.1201096" lon="9.5304543"><ele>766.0</ele><time>2026-03-28T10:16:44.812Z</time></trkpt><trkpt lat="40.1200035" lon="9.5304389"><ele>766.0</ele><time>2026-03-28T10:16:45.801Z</time></trkpt><trkpt lat="40.119887" lon="9.5304542"><ele>766.0</ele><time>2026-03-28T10:16:46.804Z</time></trkpt><trkpt lat="40.1197711" lon="9.5304889"><ele>766.25</ele><time>2026-03-28T10:16:47.802Z</time></trkpt><trkpt lat="40.1196493" lon="9.5305194"><ele>766.5</ele><time>2026-03-28T10:16:48.804Z</time></trkpt><trkpt lat="40.1195307" lon="9.5305497"><ele>766.75</ele><time>2026-03-28T10:16:49.81Z</time></trkpt><trkpt lat="40.1194231" lon="9.530572"><ele>767.0</ele><time>2026-03-28T10:16:50.806Z</time></trkpt><trkpt lat="40.119323" lon="9.5305815"><ele>767.0</ele><time>2026-03-28T10:16:51.804Z</time></trkpt><trkpt lat="40.11923" lon="9.5305621"><ele>767.0</ele><time>2026-03-28T10:16:52.808Z</time></trkpt><trkpt lat="40.1191368" lon="9.5305372"><ele>767.0</ele><time>2026-03-28T10:16:53.808Z</time></trkpt><trkpt lat="40.1190508" lon="9.5304675"><ele>767.0</ele><time>2026-03-28T10:16:54.801Z</time></trkpt><trkpt lat="40.1189529" lon="9.5303927"><ele>767.0</ele><time>2026-03-28T10:16:55.84Z</time></trkpt><trkpt lat="40.1188482" lon="9.5303159"><ele>769.4000000000001</ele><time>2026-03-28T10:16:56.803Z</time></trkpt><trkpt lat="40.1187376" lon="9.5302439"><ele>771.8000000000001</ele><time>2026-03-28T10:16:57.805Z</time></trkpt><trkpt lat="40.1186303" lon="9.5301697"><ele>774.2</ele><time>2026-03-28T10:16:58.803Z</time></trkpt><trkpt lat="40.1185482" lon="9.5300998"><ele>776.6</ele><time>2026-03-28T10:16:59.805Z</time></trkpt><trkpt lat="40.1184983" lon="9.5300323"><ele>779.0</ele><time>2026-03-28T10:17:00.806Z</time></trkpt><trkpt lat="40.1184432" lon="9.5299902"><ele>779.0000000000001</ele><time>2026-03-28T10:17:01.801Z</time></trkpt><trkpt lat="40.1183753" lon="9.5299689"><ele>779.0</ele><time>2026-03-28T10:17:02.81Z</time></trkpt><trkpt lat="40.1182951" lon="9.5299794"><ele>779.0</ele><time>2026-03-28T10:17:03.803Z</time></trkpt><trkpt lat="40.1182098" lon="9.5300136"><ele>779.0</ele><time>2026-03-28T10:17:04.807Z</time></trkpt><trkpt lat="40.1181189" lon="9.5300587"><ele>779.0000000000001</ele><time>2026-03-28T10:17:05.802Z</time></trkpt><trkpt lat="40.1180158" lon="9.530107"><ele>779.0</ele><time>2026-03-28T10:17:06.808Z</time></trkpt><trkpt lat="40.1179017" lon="9.530152"><ele>781.2</ele><time>2026-03-28T10:17:07.804Z</time></trkpt><trkpt lat="40.1177919" lon="9.5301922"><ele>783.4000000000001</ele><time>2026-03-28T10:17:08.808Z</time></trkpt><trkpt lat="40.1176912" lon="9.5302291"><ele>785.6</ele><time>2026-03-28T10:17:09.808Z</time></trkpt><trkpt lat="40.1176221" lon="9.5302801"><ele>787.8</ele><time>2026-03-28T10:17:10.804Z</time></trkpt><trkpt lat="40.1175739" lon="9.5303525"><ele>790.0</ele><time>2026-03-28T10:17:11.807Z</time></trkpt><trkpt lat="40.1175486" lon="9.5304635"><ele>789.4</ele><time>2026-03-28T10:17:12.805Z</time></trkpt><trkpt lat="40.1175128" lon="9.5305756"><ele>788.8</ele><time>2026-03-28T10:17:13.809Z</time></trkpt><trkpt lat="40.117475" lon="9.5306855"><ele>788.2</ele><time>2026-03-28T10:17:14.806Z</time></trkpt><trkpt lat="40.1174003" lon="9.5307703"><ele>787.6</ele><time>2026-03-28T10:17:15.805Z</time></trkpt><trkpt lat="40.1173018" lon="9.5308464"><ele>787.0</ele><time>2026-03-28T10:17:16.807Z</time></trkpt><trkpt lat="40.1171988" lon="9.5309315"><ele>787.0</ele><time>2026-03-28T10:17:17.807Z</time></trkpt><trkpt lat="40.117072" lon="9.5309898"><ele>787.0</ele><time>2026-03-28T10:17:18.804Z</time></trkpt><trkpt lat="40.1169307" lon="9.5310339"><ele>787.0</ele><time>2026-03-28T10:17:19.812Z</time></trkpt><trkpt lat="40.1167777" lon="9.5310597"><ele>787.0</ele><time>2026-03-28T10:17:20.807Z</time></trkpt><trkpt lat="40.1166237" lon="9.5310718"><ele>785.5</ele><time>2026-03-28T10:17:21.804Z</time></trkpt><trkpt lat="40.1164808" lon="9.5310939"><ele>784.0</ele><time>2026-03-28T10:17:22.802Z</time></trkpt><trkpt lat="40.1163641" lon="9.5311384"><ele>782.5</ele><time>2026-03-28T10:17:23.804Z</time></trkpt><trkpt lat="40.1162493" lon="9.5311876"><ele>781.0</ele><time>2026-03-28T10:17:24.799Z</time></trkpt><trkpt lat="40.1161399" lon="9.531294"><ele>781.0</ele><time>2026-03-28T10:17:25.808Z</time></trkpt><trkpt lat="40.1160302" lon="9.5314041"><ele>781.0</ele><time>2026-03-28T10:17:26.807Z</time></trkpt><trkpt lat="40.1159107" lon="9.5315247"><ele>781.0</ele><time>2026-03-28T10:17:27.806Z</time></trkpt><trkpt lat="40.1157862" lon="9.5316348"><ele>781.0</ele><time>2026-03-28T10:17:28.817Z</time></trkpt><trkpt lat="40.1156303" lon="9.5317112"><ele>783.0</ele><time>2026-03-28T10:17:29.807Z</time></trkpt><trkpt lat="40.1154686" lon="9.5317983"><ele>785.0</ele><time>2026-03-28T10:17:30.802Z</time></trkpt><trkpt lat="40.1153244" lon="9.5318746"><ele>787.0</ele><time>2026-03-28T10:17:31.806Z</time></trkpt><trkpt lat="40.1152011" lon="9.5319347"><ele>787.0</ele><time>2026-03-28T10:17:32.808Z</time></trkpt><trkpt lat="40.1150856" lon="9.5319727"><ele>787.0</ele><time>2026-03-28T10:17:33.805Z</time></trkpt><trkpt lat="40.1149739" lon="9.5319476"><ele>787.0</ele><time>2026-03-28T10:17:34.806Z</time></trkpt><trkpt lat="40.1148622" lon="9.5319148"><ele>787.0</ele><time>2026-03-28T10:17:35.81Z</time></trkpt><trkpt lat="40.1147448" lon="9.531835"><ele>786.25</ele><time>2026-03-28T10:17:36.802Z</time></trkpt><trkpt lat="40.1146164" lon="9.5317403"><ele>785.5</ele><time>2026-03-28T10:17:37.808Z</time></trkpt><trkpt lat="40.1144893" lon="9.5316734"><ele>784.75</ele><time>2026-03-28T10:17:38.804Z</time></trkpt><trkpt lat="40.1143753" lon="9.5316428"><ele>784.0</ele><time>2026-03-28T10:17:39.808Z</time></trkpt><trkpt lat="40.1142463" lon="9.5316496"><ele>784.0</ele><time>2026-03-28T10:17:40.805Z</time></trkpt><trkpt lat="40.1141108" lon="9.5316609"><ele>784.0</ele><time>2026-03-28T10:17:41.805Z</time></trkpt><trkpt lat="40.1140256" lon="9.5316907"><ele>784.0</ele><time>2026-03-28T10:17:42.81Z</time></trkpt><trkpt lat="40.1139534" lon="9.5317227"><ele>784.0</ele><time>2026-03-28T10:17:43.807Z</time></trkpt><trkpt lat="40.1138908" lon="9.5317808"><ele>784.0</ele><time>2026-03-28T10:17:44.805Z</time></trkpt><trkpt lat="40.1138132" lon="9.5318639"><ele>784.75</ele><time>2026-03-28T10:17:45.807Z</time></trkpt><trkpt lat="40.1137279" lon="9.531973"><ele>785.5</ele><time>2026-03-28T10:17:46.807Z</time></trkpt><trkpt lat="40.1136254" lon="9.5320912"><ele>786.25</ele><time>2026-03-28T10:17:47.805Z</time></trkpt><trkpt lat="40.1135323" lon="9.532195"><ele>787.0</ele><time>2026-03-28T10:17:48.805Z</time></trkpt><trkpt lat="40.1134437" lon="9.5322776"><ele>783.75</ele><time>2026-03-28T10:17:49.807Z</time></trkpt><trkpt lat="40.1133273" lon="9.5323321"><ele>780.5</ele><time>2026-03-28T10:17:50.804Z</time></trkpt><trkpt lat="40.1132049" lon="9.5323833"><ele>777.25</ele><time>2026-03-28T10:17:51.806Z</time></trkpt><trkpt lat="40.1130728" lon="9.5324082"><ele>774.0</ele><time>2026-03-28T10:17:52.809Z</time></trkpt><trkpt lat="40.11295" lon="9.5324103"><ele>772.25</ele><time>2026-03-28T10:17:53.805Z</time></trkpt><trkpt lat="40.1128318" lon="9.5323977"><ele>770.5</ele><time>2026-03-28T10:17:54.802Z</time></trkpt><trkpt lat="40.11273" lon="9.5323718"><ele>768.75</ele><time>2026-03-28T10:17:55.809Z</time></trkpt><trkpt lat="40.1126116" lon="9.532342"><ele>767.0</ele><time>2026-03-28T10:17:56.811Z</time></trkpt><trkpt lat="40.1124978" lon="9.5322762"><ele>763.0</ele><time>2026-03-28T10:17:57.804Z</time></trkpt><trkpt lat="40.1123945" lon="9.5322353"><ele>759.0</ele><time>2026-03-28T10:17:58.803Z</time></trkpt><trkpt lat="40.1123113" lon="9.5321927"><ele>755.0</ele><time>2026-03-28T10:17:59.805Z</time></trkpt><trkpt lat="40.1122475" lon="9.5321516"><ele>751.0</ele><time>2026-03-28T10:18:00.806Z</time></trkpt><trkpt lat="40.1121902" lon="9.5320114"><ele>747.0</ele><time>2026-03-28T10:18:02.803Z</time></trkpt><trkpt lat="40.1121644" lon="9.5318982"><ele>747.0</ele><time>2026-03-28T10:18:03.804Z</time></trkpt><trkpt lat="40.1121312" lon="9.5317609"><ele>747.0</ele><time>2026-03-28T10:18:04.81Z</time></trkpt><trkpt lat="40.1121315" lon="9.5316447"><ele>747.0</ele><time>2026-03-28T10:18:05.806Z</time></trkpt><trkpt lat="40.1121483" lon="9.5315362"><ele>747.0</ele><time>2026-03-28T10:18:06.804Z</time></trkpt><trkpt lat="40.1121933" lon="9.5313822"><ele>747.0</ele><time>2026-03-28T10:18:07.808Z</time></trkpt><trkpt lat="40.1122497" lon="9.5312035"><ele>745.3333333333334</ele><time>2026-03-28T10:18:08.803Z</time></trkpt><trkpt lat="40.1123096" lon="9.5310076"><ele>743.6666666666667</ele><time>2026-03-28T10:18:09.812Z</time></trkpt><trkpt lat="40.1123725" lon="9.5308134"><ele>742.0</ele><time>2026-03-28T10:18:10.808Z</time></trkpt><trkpt lat="40.1124393" lon="9.5306252"><ele>746.25</ele><time>2026-03-28T10:18:11.802Z</time></trkpt><trkpt lat="40.1125045" lon="9.5304444"><ele>750.5</ele><time>2026-03-28T10:18:12.807Z</time></trkpt><trkpt lat="40.1125641" lon="9.5302798"><ele>754.75</ele><time>2026-03-28T10:18:13.809Z</time></trkpt><trkpt lat="40.1126164" lon="9.5301411"><ele>759.0</ele><time>2026-03-28T10:18:14.801Z</time></trkpt><trkpt lat="40.1126479" lon="9.5300334"><ele>759.0</ele><time>2026-03-28T10:18:15.804Z</time></trkpt><trkpt lat="40.1126717" lon="9.52994"><ele>759.0</ele><time>2026-03-28T10:18:16.802Z</time></trkpt><trkpt lat="40.1126537" lon="9.5298317"><ele>759.0</ele><time>2026-03-28T10:18:17.827Z</time></trkpt><trkpt lat="40.1126297" lon="9.5297058"><ele>759.0</ele><time>2026-03-28T10:18:18.804Z</time></trkpt><trkpt lat="40.1125943" lon="9.5295706"><ele>759.0</ele><time>2026-03-28T10:18:19.802Z</time></trkpt><trkpt lat="40.112552" lon="9.5294246"><ele>758.75</ele><time>2026-03-28T10:18:20.806Z</time></trkpt><trkpt lat="40.1125222" lon="9.5292806"><ele>758.5</ele><time>2026-03-28T10:18:21.803Z</time></trkpt><trkpt lat="40.1125348" lon="9.5291386"><ele>758.25</ele><time>2026-03-28T10:18:22.803Z</time></trkpt><trkpt lat="40.112559" lon="9.5289933"><ele>758.0</ele><time>2026-03-28T10:18:23.805Z</time></trkpt><trkpt lat="40.1125999" lon="9.5288035"><ele>759.0</ele><time>2026-03-28T10:18:24.803Z</time></trkpt><trkpt lat="40.1126297" lon="9.5286001"><ele>760.0</ele><time>2026-03-28T10:18:25.802Z</time></trkpt><trkpt lat="40.1126649" lon="9.5284013"><ele>761.0</ele><time>2026-03-28T10:18:26.802Z</time></trkpt><trkpt lat="40.1126929" lon="9.5281901"><ele>761.0</ele><time>2026-03-28T10:18:27.806Z</time></trkpt><trkpt lat="40.112717" lon="9.5279804"><ele>761.0</ele><time>2026-03-28T10:18:28.801Z</time></trkpt><trkpt lat="40.1127404" lon="9.52778"><ele>761.0</ele><time>2026-03-28T10:18:29.803Z</time></trkpt><trkpt lat="40.1127578" lon="9.5276015"><ele>762.4</ele><time>2026-03-28T10:18:30.801Z</time></trkpt><trkpt lat="40.1127677" lon="9.5274643"><ele>763.8</ele><time>2026-03-28T10:18:31.799Z</time></trkpt><trkpt lat="40.1127706" lon="9.5273669"><ele>765.1999999999999</ele><time>2026-03-28T10:18:32.804Z</time></trkpt><trkpt lat="40.1127409" lon="9.527257"><ele>766.5999999999999</ele><time>2026-03-28T10:18:34.805Z</time></trkpt><trkpt lat="40.1126596" lon="9.5272378"><ele>768.0</ele><time>2026-03-28T10:18:36.809Z</time></trkpt><trkpt lat="40.1125565" lon="9.5272923"><ele>767.9999999999999</ele><time>2026-03-28T10:18:38.812Z</time></trkpt><trkpt lat="40.1124995" lon="9.5273403"><ele>768.0</ele><time>2026-03-28T10:18:39.812Z</time></trkpt><trkpt lat="40.1124407" lon="9.5273872"><ele>768.0</ele><time>2026-03-28T10:18:40.805Z</time></trkpt><trkpt lat="40.112377" lon="9.5274417"><ele>768.0</ele><time>2026-03-28T10:18:41.804Z</time></trkpt><trkpt lat="40.1123129" lon="9.527502"><ele>768.0</ele><time>2026-03-28T10:18:42.805Z</time></trkpt><trkpt lat="40.1122453" lon="9.527547"><ele>767.9999999999999</ele><time>2026-03-28T10:18:43.804Z</time></trkpt><trkpt lat="40.112177" lon="9.5275901"><ele>768.0</ele><time>2026-03-28T10:18:44.806Z</time></trkpt><trkpt lat="40.1121041" lon="9.5276294"><ele>769.1666666666666</ele><time>2026-03-28T10:18:45.805Z</time></trkpt><trkpt lat="40.1120324" lon="9.5276731"><ele>770.3333333333333</ele><time>2026-03-28T10:18:46.806Z</time></trkpt><trkpt lat="40.1119617" lon="9.5277165"><ele>771.5</ele><time>2026-03-28T10:18:47.804Z</time></trkpt><trkpt lat="40.1118896" lon="9.5277515"><ele>772.6666666666666</ele><time>2026-03-28T10:18:48.801Z</time></trkpt><trkpt lat="40.1118142" lon="9.5277818"><ele>773.8333333333333</ele><time>2026-03-28T10:18:49.802Z</time></trkpt><trkpt lat="40.1117382" lon="9.5278064"><ele>775.0</ele><time>2026-03-28T10:18:50.801Z</time></trkpt><trkpt lat="40.1116592" lon="9.5278241"><ele>774.9999999999999</ele><time>2026-03-28T10:18:51.804Z</time></trkpt><trkpt lat="40.1115767" lon="9.5278331"><ele>775.0</ele><time>2026-03-28T10:18:52.805Z</time></trkpt><trkpt lat="40.1114956" lon="9.5278386"><ele>775.0</ele><time>2026-03-28T10:18:53.806Z</time></trkpt><trkpt lat="40.1114154" lon="9.5278388"><ele>775.0</ele><time>2026-03-28T10:18:54.802Z</time></trkpt><trkpt lat="40.1113385" lon="9.5278351"><ele>774.9999999999999</ele><time>2026-03-28T10:18:55.806Z</time></trkpt><trkpt lat="40.1112678" lon="9.5278269"><ele>775.0</ele><time>2026-03-28T10:18:56.808Z</time></trkpt><trkpt lat="40.1111656" lon="9.5278323"><ele>776.0</ele><time>2026-03-28T10:18:58.801Z</time></trkpt><trkpt lat="40.1111033" lon="9.5278874"><ele>777.0</ele><time>2026-03-28T10:19:00.804Z</time></trkpt><trkpt lat="40.1110647" lon="9.5280105"><ele>778.0</ele><time>2026-03-28T10:19:02.804Z</time></trkpt><trkpt lat="40.1110051" lon="9.5281363"><ele>779.0</ele><time>2026-03-28T10:19:04.801Z</time></trkpt><trkpt lat="40.1109248" lon="9.5282452"><ele>780.0</ele><time>2026-03-28T10:19:06.806Z</time></trkpt><trkpt lat="40.1108789" lon="9.5283025"><ele>779.7142857142857</ele><time>2026-03-28T10:19:07.809Z</time></trkpt><trkpt lat="40.1108284" lon="9.5283677"><ele>779.4285714285713</ele><time>2026-03-28T10:19:08.806Z</time></trkpt><trkpt lat="40.1107727" lon="9.5284324"><ele>779.1428571428571</ele><time>2026-03-28T10:19:09.803Z</time></trkpt><trkpt lat="40.1107133" lon="9.528489"><ele>778.8571428571429</ele><time>2026-03-28T10:19:10.806Z</time></trkpt><trkpt lat="40.1106495" lon="9.5285396"><ele>778.5714285714286</ele><time>2026-03-28T10:19:11.806Z</time></trkpt><trkpt lat="40.1105833" lon="9.5285853"><ele>778.2857142857143</ele><time>2026-03-28T10:19:12.808Z</time></trkpt><trkpt lat="40.1105133" lon="9.528631"><ele>778.0</ele><time>2026-03-28T10:19:13.802Z</time></trkpt><trkpt lat="40.110444" lon="9.5286803"><ele>775.4999999999999</ele><time>2026-03-28T10:19:14.807Z</time></trkpt><trkpt lat="40.1103725" lon="9.5287351"><ele>773.0</ele><time>2026-03-28T10:19:15.806Z</time></trkpt><trkpt lat="40.1102989" lon="9.5287865"><ele>770.5</ele><time>2026-03-28T10:19:16.808Z</time></trkpt><trkpt lat="40.1102225" lon="9.5288385"><ele>768.0</ele><time>2026-03-28T10:19:17.81Z</time></trkpt><trkpt lat="40.1101479" lon="9.5288977"><ele>765.5</ele><time>2026-03-28T10:19:18.804Z</time></trkpt><trkpt lat="40.1100793" lon="9.5289608"><ele>763.0</ele><time>2026-03-28T10:19:19.811Z</time></trkpt><trkpt lat="40.1100073" lon="9.52901"><ele>763.0</ele><time>2026-03-28T10:19:20.804Z</time></trkpt><trkpt lat="40.1099343" lon="9.5290514"><ele>763.0</ele><time>2026-03-28T10:19:21.803Z</time></trkpt><trkpt lat="40.1098661" lon="9.5290904"><ele>763.0</ele><time>2026-03-28T10:19:22.806Z</time></trkpt><trkpt lat="40.1098064" lon="9.52914"><ele>763.0</ele><time>2026-03-28T10:19:23.805Z</time></trkpt><trkpt lat="40.1097479" lon="9.5292042"><ele>763.0</ele><time>2026-03-28T10:19:24.806Z</time></trkpt><trkpt lat="40.1096957" lon="9.5292735"><ele>763.0</ele><time>2026-03-28T10:19:25.804Z</time></trkpt><trkpt lat="40.1096625" lon="9.5293517"><ele>763.0</ele><time>2026-03-28T10:19:26.811Z</time></trkpt><trkpt lat="40.1096457" lon="9.5294423"><ele>765.6666666666667</ele><time>2026-03-28T10:19:27.809Z</time></trkpt><trkpt lat="40.1096421" lon="9.5295408"><ele>768.3333333333334</ele><time>2026-03-28T10:19:28.807Z</time></trkpt><trkpt lat="40.1096409" lon="9.5296438"><ele>771.0</ele><time>2026-03-28T10:19:29.808Z</time></trkpt><trkpt lat="40.1096225" lon="9.5297713"><ele>773.6666666666667</ele><time>2026-03-28T10:19:30.809Z</time></trkpt><trkpt lat="40.1096012" lon="9.52989"><ele>776.3333333333334</ele><time>2026-03-28T10:19:31.812Z</time></trkpt><trkpt lat="40.1095744" lon="9.5300036"><ele>779.0</ele><time>2026-03-28T10:19:32.805Z</time></trkpt><trkpt lat="40.1095489" lon="9.5301193"><ele>779.2</ele><time>2026-03-28T10:19:33.802Z</time></trkpt><trkpt lat="40.1095253" lon="9.5302435"><ele>779.4000000000001</ele><time>2026-03-28T10:19:34.806Z</time></trkpt><trkpt lat="40.109511" lon="9.5303682"><ele>779.6</ele><time>2026-03-28T10:19:35.806Z</time></trkpt><trkpt lat="40.1095005" lon="9.5304961"><ele>779.8</ele><time>2026-03-28T10:19:36.807Z</time></trkpt><trkpt lat="40.1094873" lon="9.5306256"><ele>780.0</ele><time>2026-03-28T10:19:37.806Z</time></trkpt><trkpt lat="40.109466" lon="9.5307537"><ele>779.0</ele><time>2026-03-28T10:19:38.808Z</time></trkpt><trkpt lat="40.109435" lon="9.5308798"><ele>778.0</ele><time>2026-03-28T10:19:39.805Z</time></trkpt><trkpt lat="40.1093876" lon="9.5309921"><ele>777.0</ele><time>2026-03-28T10:19:40.807Z</time></trkpt><trkpt lat="40.10933" lon="9.531085"><ele>776.0</ele><time>2026-03-28T10:19:41.807Z</time></trkpt><trkpt lat="40.1092612" lon="9.5311541"><ele>775.0</ele><time>2026-03-28T10:19:42.81Z</time></trkpt><trkpt lat="40.1091773" lon="9.5312035"><ele>773.3333333333333</ele><time>2026-03-28T10:19:43.814Z</time></trkpt><trkpt lat="40.1090806" lon="9.5312373"><ele>771.6666666666666</ele><time>2026-03-28T10:19:44.81Z</time></trkpt><trkpt lat="40.1089805" lon="9.5312572"><ele>770.0</ele><time>2026-03-28T10:19:45.805Z</time></trkpt><trkpt lat="40.1088776" lon="9.5312601"><ele>768.3333333333333</ele><time>2026-03-28T10:19:46.808Z</time></trkpt><trkpt lat="40.1088019" lon="9.5312848"><ele>766.6666666666666</ele><time>2026-03-28T10:19:47.804Z</time></trkpt><trkpt lat="40.1087526" lon="9.5313388"><ele>765.0</ele><time>2026-03-28T10:19:48.807Z</time></trkpt><trkpt lat="40.108725" lon="9.5314265"><ele>769.0</ele><time>2026-03-28T10:19:49.813Z</time></trkpt><trkpt lat="40.1087182" lon="9.5315205"><ele>773.0</ele><time>2026-03-28T10:19:50.807Z</time></trkpt><trkpt lat="40.1087498" lon="9.5316255"><ele>777.0</ele><time>2026-03-28T10:19:51.819Z</time></trkpt><trkpt lat="40.1088009" lon="9.5317327"><ele>781.0</ele><time>2026-03-28T10:19:52.802Z</time></trkpt><trkpt lat="40.1088559" lon="9.5318491"><ele>785.0</ele><time>2026-03-28T10:19:53.803Z</time></trkpt><trkpt lat="40.108904" lon="9.5319678"><ele>784.8</ele><time>2026-03-28T10:19:54.805Z</time></trkpt><trkpt lat="40.1089545" lon="9.5320823"><ele>784.6</ele><time>2026-03-28T10:19:55.807Z</time></trkpt><trkpt lat="40.1089788" lon="9.5322188"><ele>784.4000000000001</ele><time>2026-03-28T10:19:56.803Z</time></trkpt><trkpt lat="40.1089868" lon="9.5323607"><ele>784.2</ele><time>2026-03-28T10:19:57.807Z</time></trkpt><trkpt lat="40.1089924" lon="9.5325114"><ele>784.0</ele><time>2026-03-28T10:19:58.807Z</time></trkpt><trkpt lat="40.108987" lon="9.5326609"><ele>784.0</ele><time>2026-03-28T10:19:59.812Z</time></trkpt><trkpt lat="40.1089627" lon="9.5328185"><ele>784.0</ele><time>2026-03-28T10:20:00.805Z</time></trkpt><trkpt lat="40.1089341" lon="9.5329592"><ele>784.0</ele><time>2026-03-28T10:20:01.835Z</time></trkpt><trkpt lat="40.1089011" lon="9.5330864"><ele>784.0</ele><time>2026-03-28T10:20:02.81Z</time></trkpt><trkpt lat="40.1088597" lon="9.5332049"><ele>784.0</ele><time>2026-03-28T10:20:03.808Z</time></trkpt><trkpt lat="40.1087986" lon="9.5333116"><ele>780.8000000000001</ele><time>2026-03-28T10:20:04.807Z</time></trkpt><trkpt lat="40.1087211" lon="9.5333949"><ele>777.6</ele><time>2026-03-28T10:20:05.808Z</time></trkpt><trkpt lat="40.1086451" lon="9.5334732"><ele>774.4</ele><time>2026-03-28T10:20:06.81Z</time></trkpt><trkpt lat="40.1085482" lon="9.5335207"><ele>771.2</ele><time>2026-03-28T10:20:07.815Z</time></trkpt><trkpt lat="40.1084524" lon="9.5335274"><ele>768.0</ele><time>2026-03-28T10:20:08.805Z</time></trkpt><trkpt lat="40.1083319" lon="9.5335314"><ele>768.0</ele><time>2026-03-28T10:20:09.81Z</time></trkpt><trkpt lat="40.1082124" lon="9.533537"><ele>768.0</ele><time>2026-03-28T10:20:10.811Z</time></trkpt><trkpt lat="40.1080986" lon="9.5335478"><ele>768.0</ele><time>2026-03-28T10:20:11.804Z</time></trkpt><trkpt lat="40.1079801" lon="9.5335586"><ele>768.0</ele><time>2026-03-28T10:20:12.81Z</time></trkpt><trkpt lat="40.1078595" lon="9.5335679"><ele>768.0</ele><time>2026-03-28T10:20:13.808Z</time></trkpt><trkpt lat="40.1077436" lon="9.5335733"><ele>768.0</ele><time>2026-03-28T10:20:14.81Z</time></trkpt><trkpt lat="40.1076267" lon="9.5336038"><ele>768.0</ele><time>2026-03-28T10:20:15.801Z</time></trkpt><trkpt lat="40.107504" lon="9.5336419"><ele>768.0</ele><time>2026-03-28T10:20:16.802Z</time></trkpt><trkpt lat="40.1073827" lon="9.5336678"><ele>769.0</ele><time>2026-03-28T10:20:17.803Z</time></trkpt><trkpt lat="40.1072632" lon="9.5336874"><ele>770.0</ele><time>2026-03-28T10:20:18.806Z</time></trkpt><trkpt lat="40.1071475" lon="9.533719"><ele>771.0</ele><time>2026-03-28T10:20:19.808Z</time></trkpt><trkpt lat="40.1070327" lon="9.533777"><ele>772.0</ele><time>2026-03-28T10:20:20.805Z</time></trkpt><trkpt lat="40.1069186" lon="9.5338442"><ele>767.5</ele><time>2026-03-28T10:20:21.806Z</time></trkpt><trkpt lat="40.1068115" lon="9.5339076"><ele>763.0</ele><time>2026-03-28T10:20:22.804Z</time></trkpt><trkpt lat="40.1067038" lon="9.5339739"><ele>758.5</ele><time>2026-03-28T10:20:23.81Z</time></trkpt><trkpt lat="40.1066006" lon="9.5340384"><ele>754.0</ele><time>2026-03-28T10:20:24.808Z</time></trkpt><trkpt lat="40.1065009" lon="9.534088"><ele>754.0</ele><time>2026-03-28T10:20:25.807Z</time></trkpt><trkpt lat="40.1063949" lon="9.5341321"><ele>754.0</ele><time>2026-03-28T10:20:26.807Z</time></trkpt><trkpt lat="40.1062896" lon="9.5341644"><ele>754.0</ele><time>2026-03-28T10:20:27.802Z</time></trkpt><trkpt lat="40.1061782" lon="9.5341898"><ele>754.0</ele><time>2026-03-28T10:20:28.812Z</time></trkpt><trkpt lat="40.106062" lon="9.5342113"><ele>754.0</ele><time>2026-03-28T10:20:29.805Z</time></trkpt><trkpt lat="40.1059441" lon="9.5342379"><ele>754.0</ele><time>2026-03-28T10:20:30.805Z</time></trkpt><trkpt lat="40.1058278" lon="9.5342681"><ele>754.0</ele><time>2026-03-28T10:20:31.804Z</time></trkpt><trkpt lat="40.1057153" lon="9.5342995"><ele>754.0</ele><time>2026-03-28T10:20:32.801Z</time></trkpt><trkpt lat="40.1056035" lon="9.5343363"><ele>753.4000000000001</ele><time>2026-03-28T10:20:33.806Z</time></trkpt><trkpt lat="40.1054918" lon="9.5343773"><ele>752.8</ele><time>2026-03-28T10:20:34.801Z</time></trkpt><trkpt lat="40.1053847" lon="9.5344205"><ele>752.2</ele><time>2026-03-28T10:20:35.806Z</time></trkpt><trkpt lat="40.1052777" lon="9.5344583"><ele>751.5999999999999</ele><time>2026-03-28T10:20:36.806Z</time></trkpt><trkpt lat="40.1051847" lon="9.5344825"><ele>751.0</ele><time>2026-03-28T10:20:37.804Z</time></trkpt><trkpt lat="40.1051068" lon="9.5344994"><ele>751.0</ele><time>2026-03-28T10:20:38.811Z</time></trkpt><trkpt lat="40.104992" lon="9.5344596"><ele>751.0</ele><time>2026-03-28T10:20:40.811Z</time></trkpt><trkpt lat="40.1048984" lon="9.5344182"><ele>751.0</ele><time>2026-03-28T10:20:42.81Z</time></trkpt><trkpt lat="40.1047926" lon="9.5344211"><ele>751.0</ele><time>2026-03-28T10:20:44.804Z</time></trkpt><trkpt lat="40.1047209" lon="9.5344376"><ele>751.0</ele><time>2026-03-28T10:20:45.804Z</time></trkpt><trkpt lat="40.1046544" lon="9.534454"><ele>749.25</ele><time>2026-03-28T10:20:46.805Z</time></trkpt><trkpt lat="40.1045316" lon="9.5344569"><ele>747.5</ele><time>2026-03-28T10:20:48.806Z</time></trkpt><trkpt lat="40.1044149" lon="9.5344636"><ele>745.75</ele><time>2026-03-28T10:20:50.803Z</time></trkpt><trkpt lat="40.1042772" lon="9.5344487"><ele>744.0</ele><time>2026-03-28T10:20:52.804Z</time></trkpt><trkpt lat="40.1041784" lon="9.5344095"><ele>741.25</ele><time>2026-03-28T10:20:53.8Z</time></trkpt><trkpt lat="40.104073" lon="9.5343739"><ele>738.5</ele><time>2026-03-28T10:20:54.801Z</time></trkpt><trkpt lat="40.103955" lon="9.5343465"><ele>735.75</ele><time>2026-03-28T10:20:55.804Z</time></trkpt><trkpt lat="40.1038471" lon="9.534311"><ele>733.0</ele><time>2026-03-28T10:20:56.805Z</time></trkpt><trkpt lat="40.1037412" lon="9.5342706"><ele>733.0</ele><time>2026-03-28T10:20:57.803Z</time></trkpt><trkpt lat="40.1036396" lon="9.5341888"><ele>733.0</ele><time>2026-03-28T10:20:58.802Z</time></trkpt><trkpt lat="40.103535" lon="9.5341182"><ele>733.0</ele><time>2026-03-28T10:20:59.801Z</time></trkpt><trkpt lat="40.1034141" lon="9.5341047"><ele>733.0</ele><time>2026-03-28T10:21:00.804Z</time></trkpt><trkpt lat="40.1032813" lon="9.5340932"><ele>731.0</ele><time>2026-03-28T10:21:01.804Z</time></trkpt><trkpt lat="40.1031261" lon="9.5341"><ele>729.0</ele><time>2026-03-28T10:21:02.803Z</time></trkpt><trkpt lat="40.1029522" lon="9.5341124"><ele>727.0</ele><time>2026-03-28T10:21:03.804Z</time></trkpt><trkpt lat="40.102767" lon="9.5341227"><ele>727.0</ele><time>2026-03-28T10:21:04.813Z</time></trkpt><trkpt lat="40.1026035" lon="9.5341283"><ele>727.0</ele><time>2026-03-28T10:21:05.805Z</time></trkpt><trkpt lat="40.1024552" lon="9.5341395"><ele>727.0</ele><time>2026-03-28T10:21:06.806Z</time></trkpt><trkpt lat="40.1023427" lon="9.5341328"><ele>727.0</ele><time>2026-03-28T10:21:07.809Z</time></trkpt><trkpt lat="40.1022434" lon="9.5341083"><ele>725.0</ele><time>2026-03-28T10:21:08.806Z</time></trkpt><trkpt lat="40.1021518" lon="9.5340694"><ele>723.0</ele><time>2026-03-28T10:21:09.81Z</time></trkpt><trkpt lat="40.1020813" lon="9.5340004"><ele>721.0</ele><time>2026-03-28T10:21:10.8Z</time></trkpt><trkpt lat="40.1020058" lon="9.5339133"><ele>719.0</ele><time>2026-03-28T10:21:11.804Z</time></trkpt><trkpt lat="40.1018992" lon="9.5338266"><ele>717.0</ele><time>2026-03-28T10:21:12.807Z</time></trkpt><trkpt lat="40.101779" lon="9.5337261"><ele>718.25</ele><time>2026-03-28T10:21:13.802Z</time></trkpt><trkpt lat="40.1016464" lon="9.5336144"><ele>719.5</ele><time>2026-03-28T10:21:14.803Z</time></trkpt><trkpt lat="40.1015265" lon="9.5335207"><ele>720.75</ele><time>2026-03-28T10:21:15.802Z</time></trkpt><trkpt lat="40.1014199" lon="9.5334225"><ele>722.0</ele><time>2026-03-28T10:21:16.809Z</time></trkpt><trkpt lat="40.1013258" lon="9.5333224"><ele>719.4000000000001</ele><time>2026-03-28T10:21:17.806Z</time></trkpt><trkpt lat="40.1012427" lon="9.5331947"><ele>716.8000000000001</ele><time>2026-03-28T10:21:18.803Z</time></trkpt><trkpt lat="40.1011645" lon="9.5330762"><ele>714.2</ele><time>2026-03-28T10:21:19.805Z</time></trkpt><trkpt lat="40.1010881" lon="9.5329896"><ele>711.6</ele><time>2026-03-28T10:21:20.806Z</time></trkpt><trkpt lat="40.1009995" lon="9.532939"><ele>709.0</ele><time>2026-03-28T10:21:21.808Z</time></trkpt><trkpt lat="40.1008973" lon="9.532931"><ele>709.0</ele><time>2026-03-28T10:21:22.808Z</time></trkpt><trkpt lat="40.1007547" lon="9.5329309"><ele>709.0</ele><time>2026-03-28T10:21:23.804Z</time></trkpt><trkpt lat="40.100588" lon="9.5329378"><ele>709.0</ele><time>2026-03-28T10:21:24.807Z</time></trkpt><trkpt lat="40.1004148" lon="9.5329541"><ele>708.75</ele><time>2026-03-28T10:21:25.801Z</time></trkpt><trkpt lat="40.1002451" lon="9.5329655"><ele>708.5</ele><time>2026-03-28T10:21:26.804Z</time></trkpt><trkpt lat="40.1001041" lon="9.5329719"><ele>708.25</ele><time>2026-03-28T10:21:27.809Z</time></trkpt><trkpt lat="40.0999855" lon="9.5329686"><ele>708.0</ele><time>2026-03-28T10:21:28.807Z</time></trkpt><trkpt lat="40.0998783" lon="9.5329328"><ele>710.3333333333334</ele><time>2026-03-28T10:21:29.81Z</time></trkpt><trkpt lat="40.0997586" lon="9.5328482"><ele>712.6666666666667</ele><time>2026-03-28T10:21:30.804Z</time></trkpt><trkpt lat="40.0996301" lon="9.5327266"><ele>715.0</ele><time>2026-03-28T10:21:31.806Z</time></trkpt><trkpt lat="40.0995183" lon="9.5325808"><ele>715.0</ele><time>2026-03-28T10:21:32.801Z</time></trkpt><trkpt lat="40.0994333" lon="9.5324729"><ele>715.0</ele><time>2026-03-28T10:21:33.808Z</time></trkpt><trkpt lat="40.0993827" lon="9.5323906"><ele>715.0</ele><time>2026-03-28T10:21:34.809Z</time></trkpt><trkpt lat="40.09935" lon="9.5323026"><ele>715.0</ele><time>2026-03-28T10:21:35.805Z</time></trkpt><trkpt lat="40.0993144" lon="9.5321921"><ele>715.0</ele><time>2026-03-28T10:21:36.803Z</time></trkpt><trkpt lat="40.0992845" lon="9.5320884"><ele>715.0</ele><time>2026-03-28T10:21:37.81Z</time></trkpt><trkpt lat="40.0992163" lon="9.5321115"><ele>715.0</ele><time>2026-03-28T10:21:41.816Z</time></trkpt><trkpt lat="40.0991813" lon="9.532206"><ele>715.0</ele><time>2026-03-28T10:21:42.803Z</time></trkpt><trkpt lat="40.0991639" lon="9.5322983"><ele>715.0</ele><time>2026-03-28T10:21:43.811Z</time></trkpt><trkpt lat="40.0991586" lon="9.5323837"><ele>715.0</ele><time>2026-03-28T10:21:44.802Z</time></trkpt><trkpt lat="40.0991809" lon="9.5324688"><ele>715.0</ele><time>2026-03-28T10:21:46.801Z</time></trkpt><trkpt lat="40.0992382" lon="9.532505"><ele>715.0</ele><time>2026-03-28T10:21:49.807Z</time></trkpt><trkpt lat="40.099303" lon="9.5325393"><ele>715.0</ele><time>2026-03-28T10:31:54.795Z</time></trkpt><trkpt lat="40.0993944" lon="9.532495"><ele>715.0</ele><time>2026-03-28T10:31:57.809Z</time></trkpt><trkpt lat="40.0994459" lon="9.5324402"><ele>715.0</ele><time>2026-03-28T10:32:01.813Z</time></trkpt><trkpt lat="40.0993993" lon="9.532345"><ele>715.0</ele><time>2026-03-28T10:32:04.815Z</time></trkpt><trkpt lat="40.0993519" lon="9.53224"><ele>715.0</ele><time>2026-03-28T10:32:07.809Z</time></trkpt><trkpt lat="40.0993122" lon="9.5321388"><ele>715.0</ele><time>2026-03-28T10:32:09.804Z</time></trkpt><trkpt lat="40.0992485" lon="9.532082"><ele>715.0</ele><time>2026-03-28T10:32:12.806Z</time></trkpt><trkpt lat="40.0992007" lon="9.5321513"><ele>715.0</ele><time>2026-03-28T10:32:15.809Z</time></trkpt><trkpt lat="40.0991645" lon="9.5322617"><ele>715.0</ele><time>2026-03-28T10:32:18.811Z</time></trkpt><trkpt lat="40.0991532" lon="9.5323502"><ele>715.0</ele><time>2026-03-28T10:32:20.81Z</time></trkpt><trkpt lat="40.0991471" lon="9.5324698"><ele>715.0</ele><time>2026-03-28T10:32:23.808Z</time></trkpt><trkpt lat="40.099157" lon="9.5325829"><ele>715.0</ele><time>2026-03-28T10:32:26.807Z</time></trkpt><trkpt lat="40.0991604" lon="9.5326879"><ele>715.0</ele><time>2026-03-28T10:32:29.806Z</time></trkpt><trkpt lat="40.0990888" lon="9.5327026"><ele>715.0</ele><time>2026-03-28T10:32:32.813Z</time></trkpt><trkpt lat="40.099023" lon="9.5326568"><ele>715.0</ele><time>2026-03-28T10:32:34.807Z</time></trkpt><trkpt lat="40.0989305" lon="9.5326394"><ele>715.0</ele><time>2026-03-28T10:32:36.809Z</time></trkpt><trkpt lat="40.0988461" lon="9.5326504"><ele>715.0</ele><time>2026-03-28T10:32:38.821Z</time></trkpt><trkpt lat="40.0987539" lon="9.5326455"><ele>715.0</ele><time>2026-03-28T10:32:40.81Z</time></trkpt><trkpt lat="40.0986243" lon="9.5326323"><ele>715.0</ele><time>2026-03-28T10:32:42.807Z</time></trkpt><trkpt lat="40.0985007" lon="9.5326179"><ele>715.0</ele><time>2026-03-28T10:32:44.81Z</time></trkpt><trkpt lat="40.0983955" lon="9.5326006"><ele>715.0</ele><time>2026-03-28T10:32:46.808Z</time></trkpt><trkpt lat="40.0983093" lon="9.5326179"><ele>715.0</ele><time>2026-03-28T10:32:48.806Z</time></trkpt><trkpt lat="40.0982583" lon="9.5327215"><ele>715.0</ele><time>2026-03-28T10:32:50.807Z</time></trkpt><trkpt lat="40.0981938" lon="9.5328578"><ele>716.4</ele><time>2026-03-28T10:32:52.807Z</time></trkpt><trkpt lat="40.0981491" lon="9.5329192"><ele>717.8</ele><time>2026-03-28T10:32:53.804Z</time></trkpt><trkpt lat="40.0980313" lon="9.5329929"><ele>719.2</ele><time>2026-03-28T10:32:55.807Z</time></trkpt><trkpt lat="40.0979399" lon="9.5330846"><ele>720.6</ele><time>2026-03-28T10:32:57.808Z</time></trkpt><trkpt lat="40.0978657" lon="9.5332195"><ele>722.0</ele><time>2026-03-28T10:32:59.804Z</time></trkpt><trkpt lat="40.0977975" lon="9.5333576"><ele>722.0</ele><time>2026-03-28T10:33:01.804Z</time></trkpt><trkpt lat="40.0977518" lon="9.5334163"><ele>722.0</ele><time>2026-03-28T10:33:02.802Z</time></trkpt><trkpt lat="40.0976956" lon="9.5334673"><ele>722.0</ele><time>2026-03-28T10:33:03.801Z</time></trkpt><trkpt lat="40.0976365" lon="9.5335158"><ele>722.0</ele><time>2026-03-28T10:33:04.804Z</time></trkpt><trkpt lat="40.0975655" lon="9.5336275"><ele>722.0</ele><time>2026-03-28T10:33:06.804Z</time></trkpt><trkpt lat="40.0975389" lon="9.5337958"><ele>722.0</ele><time>2026-03-28T10:33:08.809Z</time></trkpt><trkpt lat="40.0975235" lon="9.5338869"><ele>722.6666666666666</ele><time>2026-03-28T10:33:09.805Z</time></trkpt><trkpt lat="40.0974935" lon="9.5339745"><ele>723.3333333333333</ele><time>2026-03-28T10:33:10.806Z</time></trkpt><trkpt lat="40.0974637" lon="9.5340699"><ele>724.0</ele><time>2026-03-28T10:33:11.809Z</time></trkpt><trkpt lat="40.0974377" lon="9.5341567"><ele>724.6666666666666</ele><time>2026-03-28T10:33:12.804Z</time></trkpt><trkpt lat="40.0974194" lon="9.5342583"><ele>725.3333333333334</ele><time>2026-03-28T10:33:13.809Z</time></trkpt><trkpt lat="40.0974013" lon="9.5343651"><ele>726.0</ele><time>2026-03-28T10:33:14.802Z</time></trkpt><trkpt lat="40.0973901" lon="9.5344676"><ele>726.1999999999999</ele><time>2026-03-28T10:33:15.805Z</time></trkpt><trkpt lat="40.0973788" lon="9.5345531"><ele>726.4</ele><time>2026-03-28T10:33:16.803Z</time></trkpt><trkpt lat="40.0973407" lon="9.5346919"><ele>726.6</ele><time>2026-03-28T10:33:18.809Z</time></trkpt><trkpt lat="40.0972662" lon="9.5348542"><ele>726.8</ele><time>2026-03-28T10:33:20.807Z</time></trkpt><trkpt lat="40.0972246" lon="9.5349574"><ele>727.0</ele><time>2026-03-28T10:33:21.802Z</time></trkpt><trkpt lat="40.0971891" lon="9.5350779"><ele>726.4000000000001</ele><time>2026-03-28T10:33:22.807Z</time></trkpt><trkpt lat="40.0971594" lon="9.5352229"><ele>725.8000000000001</ele><time>2026-03-28T10:33:23.803Z</time></trkpt><trkpt lat="40.0971247" lon="9.5353773"><ele>725.2</ele><time>2026-03-28T10:33:24.807Z</time></trkpt><trkpt lat="40.0970861" lon="9.5355112"><ele>724.6</ele><time>2026-03-28T10:33:25.806Z</time></trkpt><trkpt lat="40.0970576" lon="9.5356268"><ele>724.0</ele><time>2026-03-28T10:33:26.805Z</time></trkpt><trkpt lat="40.0970317" lon="9.5357359"><ele>724.0</ele><time>2026-03-28T10:33:27.805Z</time></trkpt><trkpt lat="40.0970151" lon="9.535845"><ele>724.0</ele><time>2026-03-28T10:33:28.8Z</time></trkpt><trkpt lat="40.0970365" lon="9.5359507"><ele>724.0</ele><time>2026-03-28T10:33:29.804Z</time></trkpt><trkpt lat="40.097076" lon="9.5360682"><ele>724.0</ele><time>2026-03-28T10:33:30.811Z</time></trkpt><trkpt lat="40.097129" lon="9.5361834"><ele>724.0</ele><time>2026-03-28T10:33:31.81Z</time></trkpt><trkpt lat="40.0971877" lon="9.5362977"><ele>724.4000000000001</ele><time>2026-03-28T10:33:32.803Z</time></trkpt><trkpt lat="40.0972425" lon="9.5364173"><ele>724.8</ele><time>2026-03-28T10:33:33.806Z</time></trkpt><trkpt lat="40.0972815" lon="9.5365511"><ele>725.2</ele><time>2026-03-28T10:33:34.803Z</time></trkpt><trkpt lat="40.0973178" lon="9.5366823"><ele>725.5999999999999</ele><time>2026-03-28T10:33:35.802Z</time></trkpt><trkpt lat="40.0973547" lon="9.5368157"><ele>726.0</ele><time>2026-03-28T10:33:36.803Z</time></trkpt><trkpt lat="40.097385" lon="9.5369458"><ele>725.8</ele><time>2026-03-28T10:33:37.807Z</time></trkpt><trkpt lat="40.0974129" lon="9.5370615"><ele>725.5999999999999</ele><time>2026-03-28T10:33:38.809Z</time></trkpt><trkpt lat="40.0974455" lon="9.5371762"><ele>725.4</ele><time>2026-03-28T10:33:39.804Z</time></trkpt><trkpt lat="40.0974866" lon="9.537303"><ele>725.2</ele><time>2026-03-28T10:33:40.808Z</time></trkpt><trkpt lat="40.0975319" lon="9.5374303"><ele>725.0</ele><time>2026-03-28T10:33:41.805Z</time></trkpt><trkpt lat="40.0975748" lon="9.537546"><ele>724.8</ele><time>2026-03-28T10:33:42.812Z</time></trkpt><trkpt lat="40.0976139" lon="9.537649"><ele>724.6</ele><time>2026-03-28T10:33:43.802Z</time></trkpt><trkpt lat="40.0976533" lon="9.5377468"><ele>724.4000000000001</ele><time>2026-03-28T10:33:44.805Z</time></trkpt><trkpt lat="40.0977188" lon="9.5378365"><ele>724.2</ele><time>2026-03-28T10:33:45.801Z</time></trkpt><trkpt lat="40.097802" lon="9.5379192"><ele>724.0</ele><time>2026-03-28T10:33:46.813Z</time></trkpt><trkpt lat="40.0978723" lon="9.5379898"><ele>723.0</ele><time>2026-03-28T10:33:47.811Z</time></trkpt><trkpt lat="40.0979245" lon="9.5380363"><ele>722.0</ele><time>2026-03-28T10:33:48.801Z</time></trkpt><trkpt lat="40.0979547" lon="9.5381138"><ele>721.0</ele><time>2026-03-28T10:33:51.813Z</time></trkpt><trkpt lat="40.0978909" lon="9.5381812"><ele>720.0</ele><time>2026-03-28T10:33:53.81Z</time></trkpt><trkpt lat="40.0977795" lon="9.5382453"><ele>719.0</ele><time>2026-03-28T10:33:55.81Z</time></trkpt><trkpt lat="40.097665" lon="9.5383204"><ele>719.0</ele><time>2026-03-28T10:33:57.807Z</time></trkpt><trkpt lat="40.0975715" lon="9.538377"><ele>719.0</ele><time>2026-03-28T10:33:59.805Z</time></trkpt><trkpt lat="40.0975023" lon="9.5384077"><ele>719.0</ele><time>2026-03-28T10:34:01.807Z</time></trkpt><trkpt lat="40.0974325" lon="9.5384156"><ele>719.0</ele><time>2026-03-28T10:34:03.812Z</time></trkpt><trkpt lat="40.0973528" lon="9.5384261"><ele>719.0</ele><time>2026-03-28T10:34:05.808Z</time></trkpt><trkpt lat="40.0972716" lon="9.538453"><ele>719.0</ele><time>2026-03-28T10:34:07.811Z</time></trkpt><trkpt lat="40.0971886" lon="9.5384938"><ele>719.1666666666666</ele><time>2026-03-28T10:34:09.807Z</time></trkpt><trkpt lat="40.0971147" lon="9.5385283"><ele>719.3333333333333</ele><time>2026-03-28T10:34:11.811Z</time></trkpt><trkpt lat="40.0970338" lon="9.5385693"><ele>719.5</ele><time>2026-03-28T10:34:13.807Z</time></trkpt><trkpt lat="40.0969737" lon="9.5386357"><ele>719.6666666666666</ele><time>2026-03-28T10:34:15.805Z</time></trkpt><trkpt lat="40.0969212" lon="9.5386845"><ele>719.8333333333334</ele><time>2026-03-28T10:34:17.806Z</time></trkpt><trkpt lat="40.0968587" lon="9.538741"><ele>720.0</ele><time>2026-03-28T10:34:20.808Z</time></trkpt><trkpt lat="40.0967793" lon="9.5388272"><ele>719.8333333333334</ele><time>2026-03-28T10:34:23.809Z</time></trkpt><trkpt lat="40.0967095" lon="9.5389024"><ele>719.6666666666666</ele><time>2026-03-28T10:34:25.81Z</time></trkpt><trkpt lat="40.0966404" lon="9.5389665"><ele>719.5</ele><time>2026-03-28T10:34:27.805Z</time></trkpt><trkpt lat="40.0965652" lon="9.5390203"><ele>719.3333333333333</ele><time>2026-03-28T10:34:29.805Z</time></trkpt><trkpt lat="40.0964742" lon="9.5390707"><ele>719.1666666666666</ele><time>2026-03-28T10:34:31.81Z</time></trkpt><trkpt lat="40.0963906" lon="9.5390939"><ele>719.0</ele><time>2026-03-28T10:34:33.802Z</time></trkpt><trkpt lat="40.0963273" lon="9.5391226"><ele>719.0</ele><time>2026-03-28T10:34:35.812Z</time></trkpt><trkpt lat="40.0962561" lon="9.5391977"><ele>719.0</ele><time>2026-03-28T10:34:38.805Z</time></trkpt><trkpt lat="40.096217" lon="9.5392685"><ele>719.0</ele><time>2026-03-28T10:34:40.809Z</time></trkpt><trkpt lat="40.0961795" lon="9.5393474"><ele>719.0</ele><time>2026-03-28T10:34:42.811Z</time></trkpt><trkpt lat="40.0961488" lon="9.5394193"><ele>719.0</ele><time>2026-03-28T10:35:11.805Z</time></trkpt><trkpt lat="40.0961298" lon="9.5395296"><ele>719.0</ele><time>2026-03-28T10:35:14.808Z</time></trkpt><trkpt lat="40.0961157" lon="9.5396205"><ele>719.1666666666666</ele><time>2026-03-28T10:35:17.807Z</time></trkpt><trkpt lat="40.0960388" lon="9.5396583"><ele>719.3333333333333</ele><time>2026-03-28T10:35:20.814Z</time></trkpt><trkpt lat="40.0959673" lon="9.539626"><ele>719.5</ele><time>2026-03-28T10:35:23.808Z</time></trkpt><trkpt lat="40.095866" lon="9.5396553"><ele>719.6666666666666</ele><time>2026-03-28T10:35:26.806Z</time></trkpt><trkpt lat="40.0957881" lon="9.5396839"><ele>719.8333333333334</ele><time>2026-03-28T10:35:28.807Z</time></trkpt><trkpt lat="40.0957281" lon="9.53973"><ele>720.0</ele><time>2026-03-28T10:35:30.805Z</time></trkpt><trkpt lat="40.0956769" lon="9.5397951"><ele>719.6666666666666</ele><time>2026-03-28T10:35:33.809Z</time></trkpt><trkpt lat="40.095609" lon="9.5398896"><ele>719.3333333333334</ele><time>2026-03-28T10:35:56.804Z</time></trkpt><trkpt lat="40.095558" lon="9.53994"><ele>719.0</ele><time>2026-03-28T10:35:57.809Z</time></trkpt><trkpt lat="40.0955044" lon="9.5399923"><ele>718.6666666666667</ele><time>2026-03-28T10:35:58.81Z</time></trkpt><trkpt lat="40.0954441" lon="9.5400441"><ele>718.3333333333334</ele><time>2026-03-28T10:35:59.805Z</time></trkpt><trkpt lat="40.0953762" lon="9.5401024"><ele>718.0</ele><time>2026-03-28T10:36:00.803Z</time></trkpt><trkpt lat="40.095307" lon="9.5401595"><ele>718.0</ele><time>2026-03-28T10:36:01.803Z</time></trkpt><trkpt lat="40.0952406" lon="9.5402127"><ele>718.0</ele><time>2026-03-28T10:36:02.801Z</time></trkpt><trkpt lat="40.0951733" lon="9.5402675"><ele>718.0</ele><time>2026-03-28T10:36:03.806Z</time></trkpt><trkpt lat="40.0951061" lon="9.5403232"><ele>718.0</ele><time>2026-03-28T10:36:04.809Z</time></trkpt><trkpt lat="40.0950486" lon="9.5403748"><ele>718.0</ele><time>2026-03-28T10:36:05.8Z</time></trkpt><trkpt lat="40.0949349" lon="9.5404738"><ele>718.0</ele><time>2026-03-28T10:36:07.806Z</time></trkpt><trkpt lat="40.0948709" lon="9.5405306"><ele>718.5</ele><time>2026-03-28T10:36:08.807Z</time></trkpt><trkpt lat="40.0948009" lon="9.540585"><ele>719.0</ele><time>2026-03-28T10:36:09.805Z</time></trkpt><trkpt lat="40.0947374" lon="9.5406424"><ele>719.5</ele><time>2026-03-28T10:36:10.804Z</time></trkpt><trkpt lat="40.0946768" lon="9.5407032"><ele>720.0</ele><time>2026-03-28T10:36:11.801Z</time></trkpt><trkpt lat="40.0946164" lon="9.5407633"><ele>720.5</ele><time>2026-03-28T10:36:12.805Z</time></trkpt><trkpt lat="40.094553" lon="9.5408268"><ele>721.0</ele><time>2026-03-28T10:36:13.807Z</time></trkpt><trkpt lat="40.0944879" lon="9.5408915"><ele>721.0</ele><time>2026-03-28T10:36:14.804Z</time></trkpt><trkpt lat="40.0944187" lon="9.5409567"><ele>721.0</ele><time>2026-03-28T10:36:15.805Z</time></trkpt><trkpt lat="40.0943513" lon="9.5410277"><ele>721.0</ele><time>2026-03-28T10:36:16.812Z</time></trkpt><trkpt lat="40.0942858" lon="9.5410987"><ele>721.0</ele><time>2026-03-28T10:36:17.807Z</time></trkpt><trkpt lat="40.0942229" lon="9.54116"><ele>721.0</ele><time>2026-03-28T10:36:18.806Z</time></trkpt><trkpt lat="40.0941622" lon="9.5412154"><ele>721.0</ele><time>2026-03-28T10:36:19.802Z</time></trkpt><trkpt lat="40.0941037" lon="9.5412697"><ele>721.4</ele><time>2026-03-28T10:36:20.809Z</time></trkpt><trkpt lat="40.0940463" lon="9.5413214"><ele>721.8</ele><time>2026-03-28T10:36:21.801Z</time></trkpt><trkpt lat="40.0939898" lon="9.5413684"><ele>722.1999999999999</ele><time>2026-03-28T10:36:22.801Z</time></trkpt><trkpt lat="40.0938878" lon="9.5414502"><ele>722.5999999999999</ele><time>2026-03-28T10:36:24.807Z</time></trkpt><trkpt lat="40.0937866" lon="9.5415459"><ele>723.0</ele><time>2026-03-28T10:36:26.807Z</time></trkpt><trkpt lat="40.0936954" lon="9.5416609"><ele>723.0</ele><time>2026-03-28T10:36:28.808Z</time></trkpt><trkpt lat="40.0936518" lon="9.5417217"><ele>723.0</ele><time>2026-03-28T10:36:29.806Z</time></trkpt><trkpt lat="40.0935769" lon="9.5418435"><ele>723.0</ele><time>2026-03-28T10:36:31.803Z</time></trkpt><trkpt lat="40.0935334" lon="9.5419525"><ele>723.0</ele><time>2026-03-28T10:36:33.802Z</time></trkpt><trkpt lat="40.0935098" lon="9.5420554"><ele>723.0</ele><time>2026-03-28T10:36:35.804Z</time></trkpt><trkpt lat="40.0934873" lon="9.5421544"><ele>723.0</ele><time>2026-03-28T10:36:37.807Z</time></trkpt><trkpt lat="40.093462" lon="9.5422583"><ele>723.3333333333334</ele><time>2026-03-28T10:36:40.805Z</time></trkpt><trkpt lat="40.0934576" lon="9.5423579"><ele>723.6666666666666</ele><time>2026-03-28T10:36:42.805Z</time></trkpt><trkpt lat="40.093457" lon="9.5424485"><ele>724.0</ele><time>2026-03-28T10:36:44.81Z</time></trkpt><trkpt lat="40.0933613" lon="9.5425076"><ele>724.3333333333333</ele><time>2026-03-28T10:36:46.804Z</time></trkpt><trkpt lat="40.0932686" lon="9.5425423"><ele>724.6666666666666</ele><time>2026-03-28T10:36:48.809Z</time></trkpt><trkpt lat="40.0931722" lon="9.5425829"><ele>725.0</ele><time>2026-03-28T10:36:50.803Z</time></trkpt><trkpt lat="40.0930731" lon="9.542615"><ele>725.2</ele><time>2026-03-28T10:36:52.808Z</time></trkpt><trkpt lat="40.0929751" lon="9.5426491"><ele>725.4</ele><time>2026-03-28T10:36:54.805Z</time></trkpt><trkpt lat="40.0928809" lon="9.5426924"><ele>725.5999999999999</ele><time>2026-03-28T10:36:56.804Z</time></trkpt><trkpt lat="40.0927908" lon="9.5427435"><ele>725.8</ele><time>2026-03-28T10:36:58.805Z</time></trkpt><trkpt lat="40.0927066" lon="9.5428062"><ele>726.0</ele><time>2026-03-28T10:37:00.811Z</time></trkpt><trkpt lat="40.0926357" lon="9.5428727"><ele>726.1428571428571</ele><time>2026-03-28T10:37:02.809Z</time></trkpt><trkpt lat="40.0925837" lon="9.5429346"><ele>726.2857142857142</ele><time>2026-03-28T10:37:04.82Z</time></trkpt><trkpt lat="40.0925314" lon="9.5429912"><ele>726.4285714285713</ele><time>2026-03-28T10:37:06.804Z</time></trkpt><trkpt lat="40.0924715" lon="9.5430496"><ele>726.5714285714286</ele><time>2026-03-28T10:37:08.806Z</time></trkpt><trkpt lat="40.0924103" lon="9.5431003"><ele>726.7142857142858</ele><time>2026-03-28T10:37:10.806Z</time></trkpt><trkpt lat="40.0923529" lon="9.543148"><ele>726.8571428571428</ele><time>2026-03-28T10:37:12.806Z</time></trkpt><trkpt lat="40.0922944" lon="9.5431993"><ele>727.0</ele><time>2026-03-28T10:37:15.81Z</time></trkpt><trkpt lat="40.0922247" lon="9.5432562"><ele>727.0</ele><time>2026-03-28T10:39:03.805Z</time></trkpt><trkpt lat="40.0921589" lon="9.5433143"><ele>727.0</ele><time>2026-03-28T10:39:11.801Z</time></trkpt><trkpt lat="40.0920818" lon="9.5433685"><ele>727.0</ele><time>2026-03-28T10:39:15.805Z</time></trkpt><trkpt lat="40.0919926" lon="9.543408"><ele>727.0</ele><time>2026-03-28T10:39:18.805Z</time></trkpt><trkpt lat="40.0919222" lon="9.5434355"><ele>727.0</ele><time>2026-03-28T10:39:20.81Z</time></trkpt><trkpt lat="40.0918431" lon="9.5434627"><ele>727.0</ele><time>2026-03-28T10:39:22.814Z</time></trkpt><trkpt lat="40.0917568" lon="9.5434958"><ele>727.0</ele><time>2026-03-28T10:39:24.802Z</time></trkpt><trkpt lat="40.0916687" lon="9.5435316"><ele>727.0</ele><time>2026-03-28T10:39:26.806Z</time></trkpt><trkpt lat="40.0915772" lon="9.543574"><ele>727.0</ele><time>2026-03-28T10:39:28.806Z</time></trkpt><trkpt lat="40.0914903" lon="9.5436205"><ele>727.0</ele><time>2026-03-28T10:39:30.808Z</time></trkpt><trkpt lat="40.0914043" lon="9.5436718"><ele>727.0</ele><time>2026-03-28T10:39:32.808Z</time></trkpt><trkpt lat="40.0913178" lon="9.5437395"><ele>728.4000000000001</ele><time>2026-03-28T10:39:34.81Z</time></trkpt><trkpt lat="40.091234" lon="9.543822"><ele>729.8000000000001</ele><time>2026-03-28T10:39:36.801Z</time></trkpt><trkpt lat="40.091153" lon="9.5439204"><ele>731.2</ele><time>2026-03-28T10:39:38.805Z</time></trkpt><trkpt lat="40.0910647" lon="9.5440225"><ele>732.6</ele><time>2026-03-28T10:39:40.805Z</time></trkpt><trkpt lat="40.0909808" lon="9.5441184"><ele>734.0</ele><time>2026-03-28T10:39:42.806Z</time></trkpt><trkpt lat="40.0909044" lon="9.5442066"><ele>734.0</ele><time>2026-03-28T10:39:44.801Z</time></trkpt><trkpt lat="40.0908308" lon="9.5442935"><ele>734.0</ele><time>2026-03-28T10:39:46.809Z</time></trkpt><trkpt lat="40.0907544" lon="9.5443795"><ele>734.0</ele><time>2026-03-28T10:39:48.806Z</time></trkpt><trkpt lat="40.0906713" lon="9.5444581"><ele>734.0</ele><time>2026-03-28T10:39:50.811Z</time></trkpt><trkpt lat="40.0905804" lon="9.544534"><ele>734.0</ele><time>2026-03-28T10:39:52.807Z</time></trkpt><trkpt lat="40.0904913" lon="9.5446064"><ele>734.3333333333333</ele><time>2026-03-28T10:39:54.806Z</time></trkpt><trkpt lat="40.0904113" lon="9.5446797"><ele>734.6666666666666</ele><time>2026-03-28T10:39:56.808Z</time></trkpt><trkpt lat="40.0903646" lon="9.5447734"><ele>735.0</ele><time>2026-03-28T10:39:58.805Z</time></trkpt><trkpt lat="40.0903454" lon="9.5448745"><ele>735.3333333333334</ele><time>2026-03-28T10:40:00.813Z</time></trkpt><trkpt lat="40.0903358" lon="9.5449689"><ele>735.6666666666667</ele><time>2026-03-28T10:40:02.812Z</time></trkpt><trkpt lat="40.0903364" lon="9.5450552"><ele>736.0</ele><time>2026-03-28T10:40:04.809Z</time></trkpt><trkpt lat="40.0903508" lon="9.5451831"><ele>736.0</ele><time>2026-03-28T10:40:07.811Z</time></trkpt><trkpt lat="40.0903669" lon="9.5452783"><ele>736.0</ele><time>2026-03-28T10:40:09.821Z</time></trkpt><trkpt lat="40.0903833" lon="9.5453748"><ele>736.0</ele><time>2026-03-28T10:40:11.809Z</time></trkpt><trkpt lat="40.0903991" lon="9.5454867"><ele>736.0</ele><time>2026-03-28T10:40:13.813Z</time></trkpt><trkpt lat="40.0904179" lon="9.5455991"><ele>736.0</ele><time>2026-03-28T10:40:15.807Z</time></trkpt><trkpt lat="40.0904447" lon="9.5457187"><ele>736.0</ele><time>2026-03-28T10:40:17.807Z</time></trkpt><trkpt lat="40.0904801" lon="9.545841"><ele>735.3333333333334</ele><time>2026-03-28T10:40:19.804Z</time></trkpt><trkpt lat="40.0905211" lon="9.5459897"><ele>734.6666666666667</ele><time>2026-03-28T10:40:21.804Z</time></trkpt><trkpt lat="40.0905429" lon="9.5460736"><ele>734.0</ele><time>2026-03-28T10:40:22.809Z</time></trkpt><trkpt lat="40.090563" lon="9.5461536"><ele>733.3333333333334</ele><time>2026-03-28T10:40:23.804Z</time></trkpt><trkpt lat="40.0906018" lon="9.5463102"><ele>732.6666666666666</ele><time>2026-03-28T10:40:25.806Z</time></trkpt><trkpt lat="40.0906251" lon="9.5463932"><ele>732.0</ele><time>2026-03-28T10:40:26.829Z</time></trkpt><trkpt lat="40.0906522" lon="9.5464769"><ele>731.5714285714286</ele><time>2026-03-28T10:40:27.809Z</time></trkpt><trkpt lat="40.0906796" lon="9.5465599"><ele>731.1428571428571</ele><time>2026-03-28T10:40:28.808Z</time></trkpt><trkpt lat="40.0907066" lon="9.5466403"><ele>730.7142857142858</ele><time>2026-03-28T10:40:29.806Z</time></trkpt><trkpt lat="40.090738" lon="9.5467141"><ele>730.2857142857142</ele><time>2026-03-28T10:40:30.813Z</time></trkpt><trkpt lat="40.0907681" lon="9.5468583"><ele>729.8571428571428</ele><time>2026-03-28T10:40:32.806Z</time></trkpt><trkpt lat="40.0907653" lon="9.5469422"><ele>729.4285714285714</ele><time>2026-03-28T10:40:33.809Z</time></trkpt><trkpt lat="40.090766" lon="9.5470328"><ele>729.0</ele><time>2026-03-28T10:40:34.809Z</time></trkpt><trkpt lat="40.0907675" lon="9.5471263"><ele>727.2857142857143</ele><time>2026-03-28T10:40:35.808Z</time></trkpt><trkpt lat="40.0907805" lon="9.5472172"><ele>725.5714285714286</ele><time>2026-03-28T10:40:36.808Z</time></trkpt><trkpt lat="40.0907939" lon="9.5473133"><ele>723.8571428571429</ele><time>2026-03-28T10:40:37.807Z</time></trkpt><trkpt lat="40.0908063" lon="9.5474063"><ele>722.1428571428571</ele><time>2026-03-28T10:40:38.805Z</time></trkpt><trkpt lat="40.0908186" lon="9.5475004"><ele>720.4285714285713</ele><time>2026-03-28T10:40:39.806Z</time></trkpt><trkpt lat="40.0908323" lon="9.5475938"><ele>718.7142857142857</ele><time>2026-03-28T10:40:40.81Z</time></trkpt><trkpt lat="40.0908462" lon="9.5476881"><ele>717.0</ele><time>2026-03-28T10:40:41.805Z</time></trkpt><trkpt lat="40.0908552" lon="9.5477792"><ele>717.0</ele><time>2026-03-28T10:40:42.825Z</time></trkpt><trkpt lat="40.0908647" lon="9.5478633"><ele>717.0</ele><time>2026-03-28T10:40:43.807Z</time></trkpt><trkpt lat="40.0908789" lon="9.5480012"><ele>717.0</ele><time>2026-03-28T10:40:45.806Z</time></trkpt><trkpt lat="40.0908741" lon="9.5480946"><ele>717.0</ele><time>2026-03-28T10:40:47.806Z</time></trkpt><trkpt lat="40.0908448" lon="9.5482154"><ele>717.0</ele><time>2026-03-28T10:40:49.808Z</time></trkpt><trkpt lat="40.0908256" lon="9.5483638"><ele>716.8333333333334</ele><time>2026-03-28T10:40:51.802Z</time></trkpt><trkpt lat="40.0908042" lon="9.5485172"><ele>716.6666666666666</ele><time>2026-03-28T10:40:53.812Z</time></trkpt><trkpt lat="40.0907989" lon="9.5486141"><ele>716.5</ele><time>2026-03-28T10:40:54.809Z</time></trkpt><trkpt lat="40.09079" lon="9.5487164"><ele>716.3333333333333</ele><time>2026-03-28T10:40:55.812Z</time></trkpt><trkpt lat="40.0907744" lon="9.5488208"><ele>716.1666666666666</ele><time>2026-03-28T10:40:56.804Z</time></trkpt><trkpt lat="40.0907586" lon="9.5489229"><ele>716.0</ele><time>2026-03-28T10:40:57.806Z</time></trkpt><trkpt lat="40.0907413" lon="9.5490253"><ele>716.0</ele><time>2026-03-28T10:40:58.805Z</time></trkpt><trkpt lat="40.0907242" lon="9.5491248"><ele>716.0</ele><time>2026-03-28T10:40:59.805Z</time></trkpt><trkpt lat="40.0907068" lon="9.5492166"><ele>716.0</ele><time>2026-03-28T10:41:00.803Z</time></trkpt><trkpt lat="40.0906647" lon="9.5492907"><ele>716.0</ele><time>2026-03-28T10:41:01.804Z</time></trkpt><trkpt lat="40.0906292" lon="9.5493643"><ele>716.0</ele><time>2026-03-28T10:41:02.807Z</time></trkpt><trkpt lat="40.0905937" lon="9.5495105"><ele>716.0</ele><time>2026-03-28T10:41:04.81Z</time></trkpt><trkpt lat="40.0906128" lon="9.5496017"><ele>714.8333333333333</ele><time>2026-03-28T10:41:05.812Z</time></trkpt><trkpt lat="40.0906348" lon="9.5497005"><ele>713.6666666666666</ele><time>2026-03-28T10:41:06.809Z</time></trkpt><trkpt lat="40.0906592" lon="9.5498004"><ele>712.5</ele><time>2026-03-28T10:41:07.807Z</time></trkpt><trkpt lat="40.090683" lon="9.5499072"><ele>711.3333333333334</ele><time>2026-03-28T10:41:08.803Z</time></trkpt><trkpt lat="40.0907045" lon="9.5500217"><ele>710.1666666666667</ele><time>2026-03-28T10:41:09.806Z</time></trkpt><trkpt lat="40.0907185" lon="9.5501255"><ele>709.0</ele><time>2026-03-28T10:41:10.808Z</time></trkpt><trkpt lat="40.0907565" lon="9.550266"><ele>708.6</ele><time>2026-03-28T10:41:12.812Z</time></trkpt><trkpt lat="40.0908621" lon="9.5503514"><ele>708.2</ele><time>2026-03-28T10:41:14.804Z</time></trkpt><trkpt lat="40.0909405" lon="9.550377"><ele>707.8000000000001</ele><time>2026-03-28T10:41:15.803Z</time></trkpt><trkpt lat="40.0910316" lon="9.5503968"><ele>707.4000000000001</ele><time>2026-03-28T10:41:16.803Z</time></trkpt><trkpt lat="40.0911187" lon="9.5504172"><ele>707.0</ele><time>2026-03-28T10:41:17.806Z</time></trkpt><trkpt lat="40.0911996" lon="9.5504665"><ele>706.3333333333333</ele><time>2026-03-28T10:41:18.81Z</time></trkpt><trkpt lat="40.09128" lon="9.550534"><ele>705.6666666666666</ele><time>2026-03-28T10:41:19.803Z</time></trkpt><trkpt lat="40.0913539" lon="9.5506081"><ele>705.0</ele><time>2026-03-28T10:41:20.806Z</time></trkpt><trkpt lat="40.0914127" lon="9.5506806"><ele>704.3333333333334</ele><time>2026-03-28T10:41:21.807Z</time></trkpt><trkpt lat="40.0914665" lon="9.5507514"><ele>703.6666666666667</ele><time>2026-03-28T10:41:22.806Z</time></trkpt><trkpt lat="40.0915174" lon="9.5508184"><ele>703.0</ele><time>2026-03-28T10:41:23.806Z</time></trkpt><trkpt lat="40.0915757" lon="9.5508831"><ele>703.3333333333334</ele><time>2026-03-28T10:41:24.804Z</time></trkpt><trkpt lat="40.0916285" lon="9.5509448"><ele>703.6666666666667</ele><time>2026-03-28T10:41:25.808Z</time></trkpt><trkpt lat="40.0916728" lon="9.5510108"><ele>704.0</ele><time>2026-03-28T10:41:26.808Z</time></trkpt><trkpt lat="40.0917132" lon="9.5510803"><ele>704.3333333333334</ele><time>2026-03-28T10:41:27.811Z</time></trkpt><trkpt lat="40.091759" lon="9.5511717"><ele>704.6666666666666</ele><time>2026-03-28T10:41:29.82Z</time></trkpt><trkpt lat="40.0918151" lon="9.5512591"><ele>705.0</ele><time>2026-03-28T10:41:31.808Z</time></trkpt><trkpt lat="40.0918975" lon="9.5512976"><ele>705.0</ele><time>2026-03-28T10:41:33.81Z</time></trkpt><trkpt lat="40.0919767" lon="9.5513332"><ele>705.0</ele><time>2026-03-28T10:41:35.809Z</time></trkpt><trkpt lat="40.0920669" lon="9.551342"><ele>705.0</ele><time>2026-03-28T10:41:37.813Z</time></trkpt><trkpt lat="40.0921953" lon="9.5513189"><ele>705.0</ele><time>2026-03-28T10:41:39.81Z</time></trkpt><trkpt lat="40.0922683" lon="9.551311"><ele>705.0</ele><time>2026-03-28T10:41:40.807Z</time></trkpt><trkpt lat="40.0923403" lon="9.5513082"><ele>705.0</ele><time>2026-03-28T10:41:41.811Z</time></trkpt><trkpt lat="40.0924092" lon="9.5513054"><ele>703.6666666666666</ele><time>2026-03-28T10:41:42.808Z</time></trkpt><trkpt lat="40.0924789" lon="9.5513047"><ele>702.3333333333334</ele><time>2026-03-28T10:41:43.805Z</time></trkpt><trkpt lat="40.0925508" lon="9.5513097"><ele>701.0</ele><time>2026-03-28T10:41:44.801Z</time></trkpt><trkpt lat="40.0926338" lon="9.5513424"><ele>699.6666666666667</ele><time>2026-03-28T10:41:45.807Z</time></trkpt><trkpt lat="40.0927197" lon="9.5513816"><ele>698.3333333333334</ele><time>2026-03-28T10:41:46.805Z</time></trkpt><trkpt lat="40.0927936" lon="9.5514162"><ele>697.0</ele><time>2026-03-28T10:41:47.816Z</time></trkpt><trkpt lat="40.0928601" lon="9.5514378"><ele>697.0</ele><time>2026-03-28T10:41:48.805Z</time></trkpt><trkpt lat="40.0929248" lon="9.5514571"><ele>697.0</ele><time>2026-03-28T10:41:49.806Z</time></trkpt><trkpt lat="40.0929934" lon="9.5514584"><ele>697.0</ele><time>2026-03-28T10:41:50.811Z</time></trkpt><trkpt lat="40.0930803" lon="9.5514689"><ele>697.0</ele><time>2026-03-28T10:41:51.809Z</time></trkpt><trkpt lat="40.0931684" lon="9.551481"><ele>697.0</ele><time>2026-03-28T10:41:52.816Z</time></trkpt><trkpt lat="40.0932519" lon="9.5514913"><ele>697.0</ele><time>2026-03-28T10:41:53.809Z</time></trkpt><trkpt lat="40.0933374" lon="9.5514892"><ele>696.5</ele><time>2026-03-28T10:41:54.806Z</time></trkpt><trkpt lat="40.0934175" lon="9.5514767"><ele>696.0</ele><time>2026-03-28T10:41:55.804Z</time></trkpt><trkpt lat="40.0934994" lon="9.5514809"><ele>695.5</ele><time>2026-03-28T10:41:56.81Z</time></trkpt><trkpt lat="40.0935831" lon="9.5514994"><ele>695.0</ele><time>2026-03-28T10:41:57.81Z</time></trkpt><trkpt lat="40.0936557" lon="9.5515301"><ele>694.5</ele><time>2026-03-28T10:41:58.806Z</time></trkpt><trkpt lat="40.0937242" lon="9.551558"><ele>694.0</ele><time>2026-03-28T10:41:59.803Z</time></trkpt><trkpt lat="40.0937945" lon="9.5515947"><ele>694.0</ele><time>2026-03-28T10:42:00.808Z</time></trkpt><trkpt lat="40.0938659" lon="9.5516253"><ele>694.0</ele><time>2026-03-28T10:42:01.806Z</time></trkpt><trkpt lat="40.0939337" lon="9.5516486"><ele>694.0</ele><time>2026-03-28T10:42:02.812Z</time></trkpt><trkpt lat="40.0940196" lon="9.5517476"><ele>694.0</ele><time>2026-03-28T10:42:04.809Z</time></trkpt><trkpt lat="40.0940376" lon="9.5518545"><ele>694.0</ele><time>2026-03-28T10:42:05.806Z</time></trkpt><trkpt lat="40.0940467" lon="9.5519622"><ele>694.0</ele><time>2026-03-28T10:42:06.812Z</time></trkpt><trkpt lat="40.0940741" lon="9.5520783"><ele>694.8000000000001</ele><time>2026-03-28T10:42:07.807Z</time></trkpt><trkpt lat="40.0941329" lon="9.552185"><ele>695.6</ele><time>2026-03-28T10:42:08.802Z</time></trkpt><trkpt lat="40.0941879" lon="9.5522906"><ele>696.4</ele><time>2026-03-28T10:42:09.803Z</time></trkpt><trkpt lat="40.0942357" lon="9.5523789"><ele>697.2</ele><time>2026-03-28T10:42:10.804Z</time></trkpt><trkpt lat="40.0942782" lon="9.552451"><ele>698.0</ele><time>2026-03-28T10:42:11.802Z</time></trkpt><trkpt lat="40.0943713" lon="9.5525065"><ele>698.0</ele><time>2026-03-28T10:42:13.807Z</time></trkpt><trkpt lat="40.0944833" lon="9.5525162"><ele>698.0</ele><time>2026-03-28T10:42:15.807Z</time></trkpt><trkpt lat="40.094563" lon="9.5525032"><ele>698.0</ele><time>2026-03-28T10:42:16.8Z</time></trkpt><trkpt lat="40.0946401" lon="9.5524877"><ele>698.0</ele><time>2026-03-28T10:42:17.812Z</time></trkpt><trkpt lat="40.094714" lon="9.5524753"><ele>698.0</ele><time>2026-03-28T10:42:18.804Z</time></trkpt><trkpt lat="40.0947879" lon="9.5524593"><ele>698.0</ele><time>2026-03-28T10:42:19.807Z</time></trkpt><trkpt lat="40.094859" lon="9.5524402"><ele>697.2857142857142</ele><time>2026-03-28T10:42:20.809Z</time></trkpt><trkpt lat="40.0949242" lon="9.5524108"><ele>696.5714285714286</ele><time>2026-03-28T10:42:21.803Z</time></trkpt><trkpt lat="40.0949853" lon="9.5523802"><ele>695.8571428571429</ele><time>2026-03-28T10:42:22.81Z</time></trkpt><trkpt lat="40.0950367" lon="9.5523219"><ele>695.1428571428571</ele><time>2026-03-28T10:42:23.802Z</time></trkpt><trkpt lat="40.0950968" lon="9.5522738"><ele>694.4285714285714</ele><time>2026-03-28T10:42:24.811Z</time></trkpt><trkpt lat="40.0951578" lon="9.552244"><ele>693.7142857142857</ele><time>2026-03-28T10:42:25.8Z</time></trkpt><trkpt lat="40.0952585" lon="9.5522219"><ele>693.0</ele><time>2026-03-28T10:42:27.801Z</time></trkpt><trkpt lat="40.0953695" lon="9.5522056"><ele>693.0</ele><time>2026-03-28T10:42:30.803Z</time></trkpt><trkpt lat="40.0954394" lon="9.5522104"><ele>693.0</ele><time>2026-03-28T10:42:31.812Z</time></trkpt><trkpt lat="40.0955183" lon="9.5522336"><ele>693.0</ele><time>2026-03-28T10:42:32.803Z</time></trkpt><trkpt lat="40.0956067" lon="9.5522665"><ele>693.0</ele><time>2026-03-28T10:42:33.806Z</time></trkpt><trkpt lat="40.0957026" lon="9.5522993"><ele>693.0</ele><time>2026-03-28T10:42:34.803Z</time></trkpt><trkpt lat="40.0958006" lon="9.5523272"><ele>693.0</ele><time>2026-03-28T10:42:35.805Z</time></trkpt><trkpt lat="40.0959012" lon="9.5523529"><ele>692.5999999999999</ele><time>2026-03-28T10:42:36.802Z</time></trkpt><trkpt lat="40.0959983" lon="9.5523746"><ele>692.1999999999999</ele><time>2026-03-28T10:42:37.806Z</time></trkpt><trkpt lat="40.0960938" lon="9.5523934"><ele>691.8</ele><time>2026-03-28T10:42:38.808Z</time></trkpt><trkpt lat="40.0961922" lon="9.5524101"><ele>691.4</ele><time>2026-03-28T10:42:39.802Z</time></trkpt><trkpt lat="40.0962919" lon="9.5524277"><ele>691.0</ele><time>2026-03-28T10:42:40.808Z</time></trkpt><trkpt lat="40.0963917" lon="9.5524477"><ele>691.0</ele><time>2026-03-28T10:42:41.803Z</time></trkpt><trkpt lat="40.0964899" lon="9.5524659"><ele>691.0</ele><time>2026-03-28T10:42:42.803Z</time></trkpt><trkpt lat="40.0965843" lon="9.5524817"><ele>691.0</ele><time>2026-03-28T10:42:43.807Z</time></trkpt><trkpt lat="40.0966755" lon="9.5524968"><ele>691.0</ele><time>2026-03-28T10:42:44.806Z</time></trkpt><trkpt lat="40.0967658" lon="9.5525117"><ele>691.0</ele><time>2026-03-28T10:42:45.805Z</time></trkpt><trkpt lat="40.096857" lon="9.5525262"><ele>690.1999999999999</ele><time>2026-03-28T10:42:46.803Z</time></trkpt><trkpt lat="40.0969482" lon="9.5525448"><ele>689.4</ele><time>2026-03-28T10:42:47.806Z</time></trkpt><trkpt lat="40.0970382" lon="9.5525638"><ele>688.6</ele><time>2026-03-28T10:42:48.804Z</time></trkpt><trkpt lat="40.0971302" lon="9.55258"><ele>687.8</ele><time>2026-03-28T10:42:49.806Z</time></trkpt><trkpt lat="40.0972199" lon="9.5525951"><ele>687.0</ele><time>2026-03-28T10:42:50.805Z</time></trkpt><trkpt lat="40.0973095" lon="9.5526098"><ele>687.0</ele><time>2026-03-28T10:42:51.807Z</time></trkpt><trkpt lat="40.0974006" lon="9.5526259"><ele>687.0</ele><time>2026-03-28T10:42:52.803Z</time></trkpt><trkpt lat="40.0974965" lon="9.5526433"><ele>687.0</ele><time>2026-03-28T10:42:53.806Z</time></trkpt><trkpt lat="40.0975985" lon="9.5526613"><ele>687.0</ele><time>2026-03-28T10:42:54.804Z</time></trkpt><trkpt lat="40.0977052" lon="9.5526796"><ele>687.0</ele><time>2026-03-28T10:42:55.808Z</time></trkpt><trkpt lat="40.0978166" lon="9.5526999"><ele>687.25</ele><time>2026-03-28T10:42:56.805Z</time></trkpt><trkpt lat="40.0979362" lon="9.5527215"><ele>687.5</ele><time>2026-03-28T10:42:57.805Z</time></trkpt><trkpt lat="40.0980628" lon="9.5527439"><ele>687.75</ele><time>2026-03-28T10:42:58.806Z</time></trkpt><trkpt lat="40.0981963" lon="9.5527676"><ele>688.0</ele><time>2026-03-28T10:42:59.801Z</time></trkpt><trkpt lat="40.0983343" lon="9.5527934"><ele>688.6666666666667</ele><time>2026-03-28T10:43:00.814Z</time></trkpt><trkpt lat="40.098478" lon="9.5528221"><ele>689.3333333333334</ele><time>2026-03-28T10:43:01.8Z</time></trkpt><trkpt lat="40.0986274" lon="9.5528509"><ele>690.0</ele><time>2026-03-28T10:43:02.805Z</time></trkpt><trkpt lat="40.0987821" lon="9.5528808"><ele>690.0</ele><time>2026-03-28T10:43:03.814Z</time></trkpt><trkpt lat="40.0989415" lon="9.5529122"><ele>690.0</ele><time>2026-03-28T10:43:04.812Z</time></trkpt><trkpt lat="40.0991046" lon="9.5529451"><ele>690.0</ele><time>2026-03-28T10:43:05.811Z</time></trkpt><trkpt lat="40.099265" lon="9.5529758"><ele>688.6666666666666</ele><time>2026-03-28T10:43:06.805Z</time></trkpt><trkpt lat="40.0994211" lon="9.5530075"><ele>687.3333333333333</ele><time>2026-03-28T10:43:07.809Z</time></trkpt><trkpt lat="40.0995749" lon="9.5530358"><ele>686.0</ele><time>2026-03-28T10:43:08.81Z</time></trkpt><trkpt lat="40.0997251" lon="9.5530594"><ele>686.0</ele><time>2026-03-28T10:43:09.808Z</time></trkpt><trkpt lat="40.0998711" lon="9.5530853"><ele>686.0</ele><time>2026-03-28T10:43:10.803Z</time></trkpt><trkpt lat="40.100012" lon="9.5531105"><ele>686.0</ele><time>2026-03-28T10:43:11.806Z</time></trkpt><trkpt lat="40.100149" lon="9.5531327"><ele>686.0</ele><time>2026-03-28T10:43:12.809Z</time></trkpt><trkpt lat="40.1002812" lon="9.5531584"><ele>686.25</ele><time>2026-03-28T10:43:13.804Z</time></trkpt><trkpt lat="40.1004069" lon="9.5531826"><ele>686.5</ele><time>2026-03-28T10:43:14.808Z</time></trkpt><trkpt lat="40.1005282" lon="9.5532058"><ele>686.75</ele><time>2026-03-28T10:43:15.81Z</time></trkpt><trkpt lat="40.1006466" lon="9.5532311"><ele>687.0</ele><time>2026-03-28T10:43:16.805Z</time></trkpt><trkpt lat="40.1007625" lon="9.5532584"><ele>687.0</ele><time>2026-03-28T10:43:17.807Z</time></trkpt><trkpt lat="40.1008789" lon="9.5532817"><ele>687.0</ele><time>2026-03-28T10:43:18.808Z</time></trkpt><trkpt lat="40.1010001" lon="9.5533036"><ele>687.0</ele><time>2026-03-28T10:43:19.804Z</time></trkpt><trkpt lat="40.1011248" lon="9.5533246"><ele>687.0</ele><time>2026-03-28T10:43:20.808Z</time></trkpt><trkpt lat="40.1012554" lon="9.5533432"><ele>687.0</ele><time>2026-03-28T10:43:21.8Z</time></trkpt><trkpt lat="40.1013903" lon="9.5533409"><ele>687.0</ele><time>2026-03-28T10:43:22.803Z</time></trkpt><trkpt lat="40.101527" lon="9.553328"><ele>687.0</ele><time>2026-03-28T10:43:23.806Z</time></trkpt><trkpt lat="40.1016629" lon="9.553299"><ele>687.0</ele><time>2026-03-28T10:43:24.808Z</time></trkpt><trkpt lat="40.1018034" lon="9.5532567"><ele>688.6666666666666</ele><time>2026-03-28T10:43:25.804Z</time></trkpt><trkpt lat="40.1019474" lon="9.5532157"><ele>690.3333333333333</ele><time>2026-03-28T10:43:26.807Z</time></trkpt><trkpt lat="40.1020912" lon="9.5531716"><ele>692.0</ele><time>2026-03-28T10:43:27.803Z</time></trkpt><trkpt lat="40.1022434" lon="9.5531281"><ele>692.0</ele><time>2026-03-28T10:43:28.807Z</time></trkpt><trkpt lat="40.102396" lon="9.553085"><ele>692.0</ele><time>2026-03-28T10:43:29.805Z</time></trkpt><trkpt lat="40.1025453" lon="9.5530417"><ele>692.0</ele><time>2026-03-28T10:43:30.801Z</time></trkpt><trkpt lat="40.1026954" lon="9.5530007"><ele>693.6666666666666</ele><time>2026-03-28T10:43:31.802Z</time></trkpt><trkpt lat="40.1028462" lon="9.5529564"><ele>695.3333333333334</ele><time>2026-03-28T10:43:32.806Z</time></trkpt><trkpt lat="40.1029973" lon="9.5529123"><ele>697.0</ele><time>2026-03-28T10:43:33.806Z</time></trkpt><trkpt lat="40.1031469" lon="9.5528681"><ele>700.3333333333334</ele><time>2026-03-28T10:43:34.807Z</time></trkpt><trkpt lat="40.1032977" lon="9.5528236"><ele>703.6666666666666</ele><time>2026-03-28T10:43:35.801Z</time></trkpt><trkpt lat="40.1034496" lon="9.5527819"><ele>707.0</ele><time>2026-03-28T10:43:36.805Z</time></trkpt><trkpt lat="40.1036049" lon="9.5527423"><ele>707.0</ele><time>2026-03-28T10:43:37.804Z</time></trkpt><trkpt lat="40.1037615" lon="9.5527027"><ele>707.0</ele><time>2026-03-28T10:43:38.804Z</time></trkpt><trkpt lat="40.10392" lon="9.5526608"><ele>707.0</ele><time>2026-03-28T10:43:39.8Z</time></trkpt><trkpt lat="40.1040774" lon="9.5526174"><ele>705.6666666666666</ele><time>2026-03-28T10:43:40.803Z</time></trkpt><trkpt lat="40.1042467" lon="9.5525751"><ele>704.3333333333334</ele><time>2026-03-28T10:43:41.805Z</time></trkpt><trkpt lat="40.1044062" lon="9.5525292"><ele>703.0</ele><time>2026-03-28T10:43:42.805Z</time></trkpt><trkpt lat="40.1045665" lon="9.5524807"><ele>703.0</ele><time>2026-03-28T10:43:43.8Z</time></trkpt><trkpt lat="40.1047338" lon="9.5524351"><ele>703.0</ele><time>2026-03-28T10:43:44.804Z</time></trkpt><trkpt lat="40.1048997" lon="9.552388"><ele>703.0</ele><time>2026-03-28T10:43:45.801Z</time></trkpt><trkpt lat="40.1050683" lon="9.5523414"><ele>702.3333333333334</ele><time>2026-03-28T10:43:46.806Z</time></trkpt><trkpt lat="40.1052375" lon="9.5522946"><ele>701.6666666666666</ele><time>2026-03-28T10:43:47.801Z</time></trkpt><trkpt lat="40.1054095" lon="9.5522487"><ele>701.0</ele><time>2026-03-28T10:43:48.805Z</time></trkpt><trkpt lat="40.1055804" lon="9.5522029"><ele>701.6666666666666</ele><time>2026-03-28T10:43:49.817Z</time></trkpt><trkpt lat="40.1057505" lon="9.552157"><ele>702.3333333333334</ele><time>2026-03-28T10:43:50.81Z</time></trkpt><trkpt lat="40.1059172" lon="9.5521115"><ele>703.0</ele><time>2026-03-28T10:43:51.806Z</time></trkpt><trkpt lat="40.1060804" lon="9.5520627"><ele>703.5</ele><time>2026-03-28T10:43:52.807Z</time></trkpt><trkpt lat="40.1062352" lon="9.5520172"><ele>704.0</ele><time>2026-03-28T10:43:53.807Z</time></trkpt><trkpt lat="40.1063796" lon="9.5519732"><ele>704.5</ele><time>2026-03-28T10:43:54.808Z</time></trkpt><trkpt lat="40.106503" lon="9.551938"><ele>705.0</ele><time>2026-03-28T10:43:55.806Z</time></trkpt><trkpt lat="40.1066098" lon="9.5519054"><ele>705.0</ele><time>2026-03-28T10:43:56.807Z</time></trkpt><trkpt lat="40.1067043" lon="9.5518746"><ele>705.0</ele><time>2026-03-28T10:43:57.804Z</time></trkpt><trkpt lat="40.1067919" lon="9.5518474"><ele>705.0</ele><time>2026-03-28T10:43:58.805Z</time></trkpt><trkpt lat="40.1068792" lon="9.5518193"><ele>705.0</ele><time>2026-03-28T10:43:59.81Z</time></trkpt><trkpt lat="40.1069689" lon="9.5517904"><ele>705.0</ele><time>2026-03-28T10:44:00.803Z</time></trkpt><trkpt lat="40.1070639" lon="9.5517662"><ele>705.0</ele><time>2026-03-28T10:44:01.805Z</time></trkpt><trkpt lat="40.1071519" lon="9.5517463"><ele>705.0</ele><time>2026-03-28T10:44:02.807Z</time></trkpt><trkpt lat="40.1072341" lon="9.5517249"><ele>705.0</ele><time>2026-03-28T10:44:03.803Z</time></trkpt><trkpt lat="40.1073145" lon="9.5517012"><ele>705.0</ele><time>2026-03-28T10:44:04.805Z</time></trkpt><trkpt lat="40.1073875" lon="9.5516813"><ele>705.0</ele><time>2026-03-28T10:44:05.801Z</time></trkpt><trkpt lat="40.1074916" lon="9.5516701"><ele>705.0</ele><time>2026-03-28T10:44:07.801Z</time></trkpt><trkpt lat="40.1075443" lon="9.551741"><ele>705.2</ele><time>2026-03-28T10:44:09.81Z</time></trkpt><trkpt lat="40.1075318" lon="9.551855"><ele>705.4</ele><time>2026-03-28T10:44:11.807Z</time></trkpt><trkpt lat="40.1074602" lon="9.5520056"><ele>705.5999999999999</ele><time>2026-03-28T10:44:13.825Z</time></trkpt><trkpt lat="40.107426" lon="9.5521014"><ele>705.8</ele><time>2026-03-28T10:44:14.801Z</time></trkpt><trkpt lat="40.1073906" lon="9.5521896"><ele>706.0</ele><time>2026-03-28T10:44:15.803Z</time></trkpt><trkpt lat="40.1073635" lon="9.5522933"><ele>704.8</ele><time>2026-03-28T10:44:16.805Z</time></trkpt><trkpt lat="40.1073446" lon="9.5524012"><ele>703.5999999999999</ele><time>2026-03-28T10:44:17.806Z</time></trkpt><trkpt lat="40.1073421" lon="9.5525199"><ele>702.4</ele><time>2026-03-28T10:44:18.809Z</time></trkpt><trkpt lat="40.1073463" lon="9.5526407"><ele>701.2</ele><time>2026-03-28T10:44:19.808Z</time></trkpt><trkpt lat="40.1073718" lon="9.5527835"><ele>700.0</ele><time>2026-03-28T10:44:20.804Z</time></trkpt><trkpt lat="40.1073903" lon="9.552906"><ele>699.5</ele><time>2026-03-28T10:44:21.807Z</time></trkpt><trkpt lat="40.1074064" lon="9.553025"><ele>699.0</ele><time>2026-03-28T10:44:22.806Z</time></trkpt><trkpt lat="40.1074244" lon="9.5531372"><ele>698.5</ele><time>2026-03-28T10:44:23.805Z</time></trkpt><trkpt lat="40.1074475" lon="9.5532466"><ele>698.0</ele><time>2026-03-28T10:44:24.805Z</time></trkpt><trkpt lat="40.1074656" lon="9.5533561"><ele>697.5</ele><time>2026-03-28T10:44:25.807Z</time></trkpt><trkpt lat="40.1074832" lon="9.5534669"><ele>697.0</ele><time>2026-03-28T10:44:26.804Z</time></trkpt><trkpt lat="40.1074975" lon="9.5535716"><ele>698.0</ele><time>2026-03-28T10:44:27.805Z</time></trkpt><trkpt lat="40.1075161" lon="9.5536735"><ele>699.0</ele><time>2026-03-28T10:44:28.806Z</time></trkpt><trkpt lat="40.1075312" lon="9.5537713"><ele>700.0</ele><time>2026-03-28T10:44:29.813Z</time></trkpt><trkpt lat="40.1075507" lon="9.5538698"><ele>701.0</ele><time>2026-03-28T10:44:30.809Z</time></trkpt><trkpt lat="40.1075737" lon="9.5539732"><ele>702.0</ele><time>2026-03-28T10:44:31.806Z</time></trkpt><trkpt lat="40.1075908" lon="9.5540772"><ele>703.0</ele><time>2026-03-28T10:44:32.805Z</time></trkpt><trkpt lat="40.107603" lon="9.5541898"><ele>703.0</ele><time>2026-03-28T10:44:33.81Z</time></trkpt><trkpt lat="40.1076156" lon="9.554296"><ele>703.0</ele><time>2026-03-28T10:44:34.804Z</time></trkpt><trkpt lat="40.1076188" lon="9.5543825"><ele>703.0</ele><time>2026-03-28T10:44:35.806Z</time></trkpt><trkpt lat="40.1076456" lon="9.5545368"><ele>703.0</ele><time>2026-03-28T10:44:37.803Z</time></trkpt><trkpt lat="40.107667" lon="9.5547077"><ele>703.0</ele><time>2026-03-28T10:44:39.809Z</time></trkpt><trkpt lat="40.1076809" lon="9.5548087"><ele>703.1666666666667</ele><time>2026-03-28T10:44:40.806Z</time></trkpt><trkpt lat="40.1077004" lon="9.5548983"><ele>703.3333333333334</ele><time>2026-03-28T10:44:41.806Z</time></trkpt><trkpt lat="40.1077282" lon="9.5549931"><ele>703.5</ele><time>2026-03-28T10:44:42.812Z</time></trkpt><trkpt lat="40.1077326" lon="9.5550806"><ele>703.6666666666666</ele><time>2026-03-28T10:44:43.805Z</time></trkpt><trkpt lat="40.1077342" lon="9.5551721"><ele>703.8333333333333</ele><time>2026-03-28T10:44:44.809Z</time></trkpt><trkpt lat="40.1077242" lon="9.5552832"><ele>704.0</ele><time>2026-03-28T10:44:45.81Z</time></trkpt><trkpt lat="40.1077324" lon="9.5553852"><ele>704.0</ele><time>2026-03-28T10:44:46.809Z</time></trkpt><trkpt lat="40.1077295" lon="9.5554951"><ele>704.0</ele><time>2026-03-28T10:44:47.808Z</time></trkpt><trkpt lat="40.1077422" lon="9.5555959"><ele>704.0</ele><time>2026-03-28T10:44:48.812Z</time></trkpt><trkpt lat="40.1077559" lon="9.5556927"><ele>704.0</ele><time>2026-03-28T10:44:49.808Z</time></trkpt><trkpt lat="40.1077721" lon="9.5557843"><ele>704.0</ele><time>2026-03-28T10:44:50.815Z</time></trkpt><trkpt lat="40.1078347" lon="9.5559259"><ele>704.0</ele><time>2026-03-28T10:44:52.806Z</time></trkpt><trkpt lat="40.1078799" lon="9.5560047"><ele>704.0</ele><time>2026-03-28T10:44:53.807Z</time></trkpt><trkpt lat="40.1079333" lon="9.5560953"><ele>704.0</ele><time>2026-03-28T10:44:54.824Z</time></trkpt><trkpt lat="40.1079919" lon="9.5561882"><ele>704.0</ele><time>2026-03-28T10:44:55.809Z</time></trkpt><trkpt lat="40.1080452" lon="9.5562804"><ele>704.0</ele><time>2026-03-28T10:44:56.801Z</time></trkpt><trkpt lat="40.1080981" lon="9.5563702"><ele>704.0</ele><time>2026-03-28T10:44:57.803Z</time></trkpt><trkpt lat="40.1081549" lon="9.5564617"><ele>704.0</ele><time>2026-03-28T10:44:58.81Z</time></trkpt><trkpt lat="40.1082069" lon="9.5565571"><ele>705.0</ele><time>2026-03-28T10:44:59.806Z</time></trkpt><trkpt lat="40.1082593" lon="9.5566536"><ele>706.0</ele><time>2026-03-28T10:45:00.806Z</time></trkpt><trkpt lat="40.1083083" lon="9.5567502"><ele>707.0</ele><time>2026-03-28T10:45:01.803Z</time></trkpt><trkpt lat="40.1083697" lon="9.5568371"><ele>708.0</ele><time>2026-03-28T10:45:02.805Z</time></trkpt><trkpt lat="40.1084491" lon="9.5569187"><ele>709.0</ele><time>2026-03-28T10:45:03.802Z</time></trkpt><trkpt lat="40.1085271" lon="9.5569905"><ele>707.8333333333334</ele><time>2026-03-28T10:45:04.813Z</time></trkpt><trkpt lat="40.1086117" lon="9.5570401"><ele>706.6666666666667</ele><time>2026-03-28T10:45:05.802Z</time></trkpt><trkpt lat="40.1086993" lon="9.5570692"><ele>705.5</ele><time>2026-03-28T10:45:06.806Z</time></trkpt><trkpt lat="40.1087867" lon="9.5570877"><ele>704.3333333333334</ele><time>2026-03-28T10:45:07.806Z</time></trkpt><trkpt lat="40.1088742" lon="9.5570797"><ele>703.1666666666666</ele><time>2026-03-28T10:45:08.805Z</time></trkpt><trkpt lat="40.1089626" lon="9.5570626"><ele>702.0</ele><time>2026-03-28T10:45:09.805Z</time></trkpt><trkpt lat="40.1090447" lon="9.557041"><ele>703.6</ele><time>2026-03-28T10:45:10.809Z</time></trkpt><trkpt lat="40.1091404" lon="9.5570162"><ele>705.2</ele><time>2026-03-28T10:45:11.807Z</time></trkpt><trkpt lat="40.1092525" lon="9.5569834"><ele>706.8</ele><time>2026-03-28T10:45:12.809Z</time></trkpt><trkpt lat="40.1093374" lon="9.5569929"><ele>708.4</ele><time>2026-03-28T10:45:13.829Z</time></trkpt><trkpt lat="40.1094192" lon="9.5570077"><ele>710.0</ele><time>2026-03-28T10:45:14.805Z</time></trkpt><trkpt lat="40.1095092" lon="9.5570511"><ele>710.0</ele><time>2026-03-28T10:45:15.806Z</time></trkpt><trkpt lat="40.1095922" lon="9.5571026"><ele>710.0</ele><time>2026-03-28T10:45:16.81Z</time></trkpt><trkpt lat="40.1096601" lon="9.5571776"><ele>710.0</ele><time>2026-03-28T10:45:17.803Z</time></trkpt><trkpt lat="40.1097218" lon="9.5572645"><ele>710.0</ele><time>2026-03-28T10:45:18.815Z</time></trkpt><trkpt lat="40.1097709" lon="9.5573728"><ele>710.0</ele><time>2026-03-28T10:45:19.804Z</time></trkpt><trkpt lat="40.1098279" lon="9.5574687"><ele>710.0</ele><time>2026-03-28T10:45:20.807Z</time></trkpt><trkpt lat="40.109889" lon="9.5575685"><ele>710.0</ele><time>2026-03-28T10:45:21.801Z</time></trkpt><trkpt lat="40.1099562" lon="9.5576609"><ele>710.0</ele><time>2026-03-28T10:45:22.807Z</time></trkpt><trkpt lat="40.1100232" lon="9.5577523"><ele>710.0</ele><time>2026-03-28T10:45:23.803Z</time></trkpt><trkpt lat="40.1100944" lon="9.5578416"><ele>710.0</ele><time>2026-03-28T10:45:24.803Z</time></trkpt><trkpt lat="40.1101663" lon="9.5579074"><ele>710.4</ele><time>2026-03-28T10:45:25.8Z</time></trkpt><trkpt lat="40.1102492" lon="9.5579667"><ele>710.8</ele><time>2026-03-28T10:45:26.811Z</time></trkpt><trkpt lat="40.1103361" lon="9.5580106"><ele>711.2</ele><time>2026-03-28T10:45:27.8Z</time></trkpt><trkpt lat="40.110425" lon="9.5580475"><ele>711.6</ele><time>2026-03-28T10:45:28.802Z</time></trkpt><trkpt lat="40.1105189" lon="9.5580861"><ele>712.0</ele><time>2026-03-28T10:45:29.802Z</time></trkpt><trkpt lat="40.1106132" lon="9.5581302"><ele>712.0</ele><time>2026-03-28T10:45:30.801Z</time></trkpt><trkpt lat="40.1107114" lon="9.5581739"><ele>712.0</ele><time>2026-03-28T10:45:31.804Z</time></trkpt><trkpt lat="40.1108152" lon="9.5582107"><ele>712.0</ele><time>2026-03-28T10:45:32.803Z</time></trkpt><trkpt lat="40.1109144" lon="9.5582562"><ele>712.0</ele><time>2026-03-28T10:45:33.807Z</time></trkpt><trkpt lat="40.1109981" lon="9.558307"><ele>712.0</ele><time>2026-03-28T10:45:34.808Z</time></trkpt><trkpt lat="40.1110822" lon="9.5583616"><ele>712.0</ele><time>2026-03-28T10:45:35.801Z</time></trkpt><trkpt lat="40.1111562" lon="9.558437"><ele>712.0</ele><time>2026-03-28T10:45:36.804Z</time></trkpt><trkpt lat="40.1112278" lon="9.5585091"><ele>712.0</ele><time>2026-03-28T10:45:37.809Z</time></trkpt><trkpt lat="40.1113015" lon="9.558595"><ele>712.0</ele><time>2026-03-28T10:45:38.81Z</time></trkpt><trkpt lat="40.1113757" lon="9.5586862"><ele>712.0</ele><time>2026-03-28T10:45:39.806Z</time></trkpt><trkpt lat="40.1114428" lon="9.5587743"><ele>712.0</ele><time>2026-03-28T10:45:40.806Z</time></trkpt><trkpt lat="40.1114976" lon="9.5588547"><ele>712.0</ele><time>2026-03-28T10:45:41.81Z</time></trkpt><trkpt lat="40.1115456" lon="9.5589294"><ele>712.0</ele><time>2026-03-28T10:45:42.812Z</time></trkpt><trkpt lat="40.1115995" lon="9.5590154"><ele>712.0</ele><time>2026-03-28T10:45:43.809Z</time></trkpt><trkpt lat="40.1116527" lon="9.5591037"><ele>712.0</ele><time>2026-03-28T10:45:44.804Z</time></trkpt><trkpt lat="40.1117171" lon="9.5591996"><ele>712.0</ele><time>2026-03-28T10:45:45.804Z</time></trkpt><trkpt lat="40.1117867" lon="9.5592949"><ele>712.6666666666667</ele><time>2026-03-28T10:45:46.805Z</time></trkpt><trkpt lat="40.1118553" lon="9.5593908"><ele>713.3333333333334</ele><time>2026-03-28T10:45:47.802Z</time></trkpt><trkpt lat="40.1119226" lon="9.5594879"><ele>714.0</ele><time>2026-03-28T10:45:48.806Z</time></trkpt><trkpt lat="40.1119785" lon="9.5595729"><ele>714.6666666666666</ele><time>2026-03-28T10:45:49.805Z</time></trkpt><trkpt lat="40.1120229" lon="9.5596442"><ele>715.3333333333333</ele><time>2026-03-28T10:45:50.803Z</time></trkpt><trkpt lat="40.1120721" lon="9.5597173"><ele>716.0</ele><time>2026-03-28T10:45:51.805Z</time></trkpt><trkpt lat="40.1121274" lon="9.5597873"><ele>716.0</ele><time>2026-03-28T10:45:52.805Z</time></trkpt><trkpt lat="40.1121956" lon="9.55988"><ele>716.0</ele><time>2026-03-28T10:45:53.808Z</time></trkpt><trkpt lat="40.1122599" lon="9.5599795"><ele>716.0</ele><time>2026-03-28T10:45:54.804Z</time></trkpt><trkpt lat="40.1123277" lon="9.5600852"><ele>716.0</ele><time>2026-03-28T10:45:55.808Z</time></trkpt><trkpt lat="40.1123957" lon="9.5601895"><ele>716.0</ele><time>2026-03-28T10:45:56.805Z</time></trkpt><trkpt lat="40.1124604" lon="9.5602866"><ele>716.1999999999999</ele><time>2026-03-28T10:45:57.804Z</time></trkpt><trkpt lat="40.1125272" lon="9.5603798"><ele>716.4</ele><time>2026-03-28T10:45:58.816Z</time></trkpt><trkpt lat="40.1125989" lon="9.5604675"><ele>716.6</ele><time>2026-03-28T10:45:59.805Z</time></trkpt><trkpt lat="40.1126699" lon="9.5605351"><ele>716.8</ele><time>2026-03-28T10:46:00.808Z</time></trkpt><trkpt lat="40.1127502" lon="9.5605899"><ele>717.0</ele><time>2026-03-28T10:46:01.813Z</time></trkpt><trkpt lat="40.1128419" lon="9.560633"><ele>717.0</ele><time>2026-03-28T10:46:02.801Z</time></trkpt><trkpt lat="40.1129326" lon="9.5606743"><ele>717.0</ele><time>2026-03-28T10:46:03.802Z</time></trkpt><trkpt lat="40.1130414" lon="9.5607029"><ele>717.0</ele><time>2026-03-28T10:46:04.806Z</time></trkpt><trkpt lat="40.1131451" lon="9.560729"><ele>717.0</ele><time>2026-03-28T10:46:05.81Z</time></trkpt><trkpt lat="40.1132545" lon="9.560752"><ele>717.0</ele><time>2026-03-28T10:46:06.81Z</time></trkpt><trkpt lat="40.1133701" lon="9.5607782"><ele>718.0</ele><time>2026-03-28T10:46:07.803Z</time></trkpt><trkpt lat="40.1134883" lon="9.5608084"><ele>719.0</ele><time>2026-03-28T10:46:08.8Z</time></trkpt><trkpt lat="40.1135953" lon="9.5608471"><ele>720.0</ele><time>2026-03-28T10:46:09.807Z</time></trkpt><trkpt lat="40.1136995" lon="9.5608832"><ele>721.0</ele><time>2026-03-28T10:46:10.802Z</time></trkpt><trkpt lat="40.1137903" lon="9.5609168"><ele>722.0</ele><time>2026-03-28T10:46:11.808Z</time></trkpt><trkpt lat="40.1138618" lon="9.5609372"><ele>722.0</ele><time>2026-03-28T10:46:12.81Z</time></trkpt><trkpt lat="40.1139357" lon="9.5609618"><ele>722.0</ele><time>2026-03-28T10:46:13.808Z</time></trkpt><trkpt lat="40.1140291" lon="9.5609936"><ele>722.0</ele><time>2026-03-28T10:46:14.807Z</time></trkpt><trkpt lat="40.1141377" lon="9.561027"><ele>722.0</ele><time>2026-03-28T10:46:15.809Z</time></trkpt><trkpt lat="40.1142422" lon="9.5610552"><ele>722.0</ele><time>2026-03-28T10:46:16.807Z</time></trkpt><trkpt lat="40.1143436" lon="9.5610848"><ele>724.25</ele><time>2026-03-28T10:46:17.806Z</time></trkpt><trkpt lat="40.1144506" lon="9.5611136"><ele>726.5</ele><time>2026-03-28T10:46:18.807Z</time></trkpt><trkpt lat="40.1145778" lon="9.5611397"><ele>728.75</ele><time>2026-03-28T10:46:19.804Z</time></trkpt><trkpt lat="40.114701" lon="9.5611583"><ele>731.0</ele><time>2026-03-28T10:46:20.804Z</time></trkpt><trkpt lat="40.1148117" lon="9.5611752"><ele>732.1999999999999</ele><time>2026-03-28T10:46:21.806Z</time></trkpt><trkpt lat="40.1149207" lon="9.5611895"><ele>733.4</ele><time>2026-03-28T10:46:22.805Z</time></trkpt><trkpt lat="40.1150217" lon="9.5612035"><ele>734.6</ele><time>2026-03-28T10:46:23.805Z</time></trkpt><trkpt lat="40.1151119" lon="9.5612196"><ele>735.8</ele><time>2026-03-28T10:46:24.81Z</time></trkpt><trkpt lat="40.1151977" lon="9.561236"><ele>737.0</ele><time>2026-03-28T10:46:25.804Z</time></trkpt><trkpt lat="40.115279" lon="9.5612491"><ele>735.0</ele><time>2026-03-28T10:46:26.807Z</time></trkpt><trkpt lat="40.1153772" lon="9.5612715"><ele>733.0</ele><time>2026-03-28T10:46:27.803Z</time></trkpt><trkpt lat="40.115475" lon="9.5612963"><ele>731.0</ele><time>2026-03-28T10:46:28.803Z</time></trkpt><trkpt lat="40.1155756" lon="9.5613255"><ele>729.0</ele><time>2026-03-28T10:46:29.807Z</time></trkpt><trkpt lat="40.1156787" lon="9.5613545"><ele>727.0</ele><time>2026-03-28T10:46:30.807Z</time></trkpt><trkpt lat="40.1157851" lon="9.5613759"><ele>727.0</ele><time>2026-03-28T10:46:31.8Z</time></trkpt><trkpt lat="40.1158953" lon="9.561394"><ele>727.0</ele><time>2026-03-28T10:46:32.802Z</time></trkpt><trkpt lat="40.1160057" lon="9.561421"><ele>727.0</ele><time>2026-03-28T10:46:33.799Z</time></trkpt><trkpt lat="40.1161084" lon="9.5614513"><ele>727.0</ele><time>2026-03-28T10:46:34.807Z</time></trkpt><trkpt lat="40.1162069" lon="9.5614785"><ele>727.0</ele><time>2026-03-28T10:46:35.802Z</time></trkpt><trkpt lat="40.116304" lon="9.5614922"><ele>727.0</ele><time>2026-03-28T10:46:36.803Z</time></trkpt><trkpt lat="40.1164074" lon="9.5615156"><ele>727.0</ele><time>2026-03-28T10:46:37.804Z</time></trkpt><trkpt lat="40.1165073" lon="9.5615385"><ele>727.0</ele><time>2026-03-28T10:46:38.803Z</time></trkpt><trkpt lat="40.1166119" lon="9.5615615"><ele>727.0</ele><time>2026-03-28T10:46:39.804Z</time></trkpt><trkpt lat="40.1167181" lon="9.5615886"><ele>727.0</ele><time>2026-03-28T10:46:40.803Z</time></trkpt><trkpt lat="40.1168298" lon="9.5616015"><ele>728.0</ele><time>2026-03-28T10:46:41.806Z</time></trkpt><trkpt lat="40.1169311" lon="9.5616165"><ele>729.0</ele><time>2026-03-28T10:46:42.804Z</time></trkpt><trkpt lat="40.1170282" lon="9.5616392"><ele>730.0</ele><time>2026-03-28T10:46:43.8Z</time></trkpt><trkpt lat="40.117139" lon="9.5616686"><ele>731.0</ele><time>2026-03-28T10:46:44.804Z</time></trkpt><trkpt lat="40.1172564" lon="9.5616975"><ele>732.0</ele><time>2026-03-28T10:46:45.808Z</time></trkpt><trkpt lat="40.1173714" lon="9.5617252"><ele>733.5</ele><time>2026-03-28T10:46:46.807Z</time></trkpt><trkpt lat="40.1174927" lon="9.5617543"><ele>735.0</ele><time>2026-03-28T10:46:47.802Z</time></trkpt><trkpt lat="40.117618" lon="9.5617737"><ele>736.5</ele><time>2026-03-28T10:46:48.806Z</time></trkpt><trkpt lat="40.1177327" lon="9.5617874"><ele>738.0</ele><time>2026-03-28T10:46:49.802Z</time></trkpt><trkpt lat="40.1178383" lon="9.5618024"><ele>738.0</ele><time>2026-03-28T10:46:50.808Z</time></trkpt><trkpt lat="40.1179469" lon="9.5618189"><ele>738.0</ele><time>2026-03-28T10:46:51.801Z</time></trkpt><trkpt lat="40.1180682" lon="9.5618611"><ele>738.0</ele><time>2026-03-28T10:46:52.813Z</time></trkpt><trkpt lat="40.1181828" lon="9.5619047"><ele>738.0</ele><time>2026-03-28T10:46:53.807Z</time></trkpt><trkpt lat="40.1182984" lon="9.5619597"><ele>738.5</ele><time>2026-03-28T10:46:54.804Z</time></trkpt><trkpt lat="40.1184131" lon="9.5620137"><ele>739.0</ele><time>2026-03-28T10:46:55.798Z</time></trkpt><trkpt lat="40.1185228" lon="9.5620679"><ele>739.5</ele><time>2026-03-28T10:46:56.801Z</time></trkpt><trkpt lat="40.1186227" lon="9.5621232"><ele>740.0</ele><time>2026-03-28T10:46:57.826Z</time></trkpt><trkpt lat="40.118722" lon="9.5621618"><ele>740.0</ele><time>2026-03-28T10:46:58.801Z</time></trkpt><trkpt lat="40.1188143" lon="9.5622012"><ele>740.0</ele><time>2026-03-28T10:46:59.802Z</time></trkpt><trkpt lat="40.1189007" lon="9.5622347"><ele>740.0</ele><time>2026-03-28T10:47:00.802Z</time></trkpt><trkpt lat="40.1189871" lon="9.5622633"><ele>740.0</ele><time>2026-03-28T10:47:01.8Z</time></trkpt><trkpt lat="40.1190758" lon="9.5622768"><ele>740.0</ele><time>2026-03-28T10:47:02.806Z</time></trkpt><trkpt lat="40.1191724" lon="9.5622778"><ele>740.6</ele><time>2026-03-28T10:47:03.798Z</time></trkpt><trkpt lat="40.1192741" lon="9.5622733"><ele>741.2</ele><time>2026-03-28T10:47:04.803Z</time></trkpt><trkpt lat="40.1193741" lon="9.5622634"><ele>741.8</ele><time>2026-03-28T10:47:05.802Z</time></trkpt><trkpt lat="40.119473" lon="9.5622527"><ele>742.4</ele><time>2026-03-28T10:47:06.806Z</time></trkpt><trkpt lat="40.1195669" lon="9.5622554"><ele>743.0</ele><time>2026-03-28T10:47:07.806Z</time></trkpt><trkpt lat="40.1196572" lon="9.5622608"><ele>743.0</ele><time>2026-03-28T10:47:08.803Z</time></trkpt><trkpt lat="40.1197474" lon="9.5622929"><ele>743.0</ele><time>2026-03-28T10:47:09.809Z</time></trkpt><trkpt lat="40.1198412" lon="9.5623485"><ele>743.0</ele><time>2026-03-28T10:47:10.808Z</time></trkpt><trkpt lat="40.1199456" lon="9.5624024"><ele>743.0</ele><time>2026-03-28T10:47:11.801Z</time></trkpt><trkpt lat="40.1200606" lon="9.562439"><ele>743.0</ele><time>2026-03-28T10:47:12.803Z</time></trkpt><trkpt lat="40.1201542" lon="9.5624709"><ele>744.25</ele><time>2026-03-28T10:47:13.803Z</time></trkpt><trkpt lat="40.1202609" lon="9.5625017"><ele>745.5</ele><time>2026-03-28T10:47:14.803Z</time></trkpt><trkpt lat="40.1203729" lon="9.5625196"><ele>746.75</ele><time>2026-03-28T10:47:15.801Z</time></trkpt><trkpt lat="40.1204854" lon="9.5625351"><ele>748.0</ele><time>2026-03-28T10:47:16.813Z</time></trkpt><trkpt lat="40.1205996" lon="9.562551"><ele>748.0</ele><time>2026-03-28T10:47:17.805Z</time></trkpt><trkpt lat="40.120708" lon="9.562573"><ele>748.0</ele><time>2026-03-28T10:47:18.804Z</time></trkpt><trkpt lat="40.1208176" lon="9.5625878"><ele>748.0</ele><time>2026-03-28T10:47:19.802Z</time></trkpt><trkpt lat="40.1209212" lon="9.5626018"><ele>748.0</ele><time>2026-03-28T10:47:20.802Z</time></trkpt><trkpt lat="40.1210094" lon="9.5626236"><ele>748.0</ele><time>2026-03-28T10:47:21.802Z</time></trkpt><trkpt lat="40.1210975" lon="9.5626759"><ele>747.4</ele><time>2026-03-28T10:47:22.803Z</time></trkpt><trkpt lat="40.1211884" lon="9.5627186"><ele>746.8</ele><time>2026-03-28T10:47:23.807Z</time></trkpt><trkpt lat="40.121284" lon="9.5627631"><ele>746.2</ele><time>2026-03-28T10:47:24.805Z</time></trkpt><trkpt lat="40.1213828" lon="9.5628104"><ele>745.6</ele><time>2026-03-28T10:47:25.801Z</time></trkpt><trkpt lat="40.1214866" lon="9.5628534"><ele>745.0</ele><time>2026-03-28T10:47:26.807Z</time></trkpt><trkpt lat="40.1215951" lon="9.5628989"><ele>745.0</ele><time>2026-03-28T10:47:27.803Z</time></trkpt><trkpt lat="40.1217017" lon="9.5629441"><ele>745.0</ele><time>2026-03-28T10:47:28.804Z</time></trkpt><trkpt lat="40.1218133" lon="9.5629943"><ele>745.0</ele><time>2026-03-28T10:47:29.808Z</time></trkpt><trkpt lat="40.121923" lon="9.5630379"><ele>745.0</ele><time>2026-03-28T10:47:30.808Z</time></trkpt><trkpt lat="40.1220282" lon="9.5630757"><ele>745.0</ele><time>2026-03-28T10:47:31.804Z</time></trkpt><trkpt lat="40.1221287" lon="9.5631103"><ele>745.0</ele><time>2026-03-28T10:47:32.805Z</time></trkpt><trkpt lat="40.1222236" lon="9.5631314"><ele>745.0</ele><time>2026-03-28T10:47:33.801Z</time></trkpt><trkpt lat="40.1223149" lon="9.5631437"><ele>745.0</ele><time>2026-03-28T10:47:34.802Z</time></trkpt><trkpt lat="40.122389" lon="9.5631565"><ele>745.0</ele><time>2026-03-28T10:47:35.82Z</time></trkpt><trkpt lat="40.1224508" lon="9.5631797"><ele>745.0</ele><time>2026-03-28T10:47:36.801Z</time></trkpt><trkpt lat="40.1225088" lon="9.5632258"><ele>746.0</ele><time>2026-03-28T10:47:37.81Z</time></trkpt><trkpt lat="40.12257" lon="9.5632728"><ele>747.0</ele><time>2026-03-28T10:47:38.809Z</time></trkpt><trkpt lat="40.1226274" lon="9.5633157"><ele>748.0</ele><time>2026-03-28T10:47:39.801Z</time></trkpt><trkpt lat="40.1227427" lon="9.5633732"><ele>749.0</ele><time>2026-03-28T10:47:41.8Z</time></trkpt><trkpt lat="40.1228076" lon="9.5633714"><ele>750.0</ele><time>2026-03-28T10:47:42.808Z</time></trkpt><trkpt lat="40.1229151" lon="9.5633966"><ele>751.0</ele><time>2026-03-28T10:47:44.807Z</time></trkpt><trkpt lat="40.1229733" lon="9.5634467"><ele>751.0</ele><time>2026-03-28T10:47:45.804Z</time></trkpt><trkpt lat="40.1230431" lon="9.5635115"><ele>751.0</ele><time>2026-03-28T10:47:46.808Z</time></trkpt><trkpt lat="40.1231247" lon="9.5635756"><ele>751.0</ele><time>2026-03-28T10:47:47.804Z</time></trkpt><trkpt lat="40.1232162" lon="9.5636318"><ele>751.0</ele><time>2026-03-28T10:47:48.811Z</time></trkpt><trkpt lat="40.1233149" lon="9.5636771"><ele>751.0</ele><time>2026-03-28T10:47:49.806Z</time></trkpt><trkpt lat="40.1234158" lon="9.5637135"><ele>751.0</ele><time>2026-03-28T10:47:50.807Z</time></trkpt><trkpt lat="40.1235096" lon="9.5637407"><ele>751.0</ele><time>2026-03-28T10:47:51.806Z</time></trkpt><trkpt lat="40.1235935" lon="9.5637549"><ele>751.0</ele><time>2026-03-28T10:47:52.809Z</time></trkpt><trkpt lat="40.1236773" lon="9.5637659"><ele>751.0</ele><time>2026-03-28T10:47:53.808Z</time></trkpt><trkpt lat="40.1237587" lon="9.5637771"><ele>751.0</ele><time>2026-03-28T10:47:54.816Z</time></trkpt><trkpt lat="40.1238354" lon="9.5637829"><ele>751.0</ele><time>2026-03-28T10:47:55.81Z</time></trkpt><trkpt lat="40.1239049" lon="9.5637843"><ele>751.0</ele><time>2026-03-28T10:47:56.815Z</time></trkpt><trkpt lat="40.1239766" lon="9.5637787"><ele>751.0</ele><time>2026-03-28T10:47:57.807Z</time></trkpt><trkpt lat="40.124042" lon="9.5637732"><ele>751.0</ele><time>2026-03-28T10:47:58.816Z</time></trkpt><trkpt lat="40.124152" lon="9.5638049"><ele>751.0</ele><time>2026-03-28T10:48:00.802Z</time></trkpt><trkpt lat="40.1242373" lon="9.5638621"><ele>751.0</ele><time>2026-03-28T10:48:02.804Z</time></trkpt><trkpt lat="40.1243102" lon="9.5639466"><ele>751.0</ele><time>2026-03-28T10:48:04.806Z</time></trkpt><trkpt lat="40.1243798" lon="9.5640255"><ele>751.1999999999999</ele><time>2026-03-28T10:48:06.809Z</time></trkpt><trkpt lat="40.1244806" lon="9.5640558"><ele>751.4</ele><time>2026-03-28T10:48:08.81Z</time></trkpt><trkpt lat="40.1245674" lon="9.5640776"><ele>751.6</ele><time>2026-03-28T10:48:10.81Z</time></trkpt><trkpt lat="40.1246416" lon="9.5641412"><ele>751.8</ele><time>2026-03-28T10:48:12.805Z</time></trkpt><trkpt lat="40.1246901" lon="9.5642445"><ele>752.0</ele><time>2026-03-28T10:48:14.808Z</time></trkpt><trkpt lat="40.1247013" lon="9.5643568"><ele>752.0</ele><time>2026-03-28T10:48:16.801Z</time></trkpt><trkpt lat="40.1246764" lon="9.5644389"><ele>752.0</ele><time>2026-03-28T10:51:04.814Z</time></trkpt><trkpt lat="40.1246734" lon="9.564564"><ele>752.0</ele><time>2026-03-28T10:51:06.802Z</time></trkpt><trkpt lat="40.1246804" lon="9.5646546"><ele>752.0</ele><time>2026-03-28T10:51:07.814Z</time></trkpt><trkpt lat="40.1246954" lon="9.5647415"><ele>752.0</ele><time>2026-03-28T10:51:08.804Z</time></trkpt><trkpt lat="40.1247171" lon="9.5648221"><ele>752.0</ele><time>2026-03-28T10:51:09.798Z</time></trkpt><trkpt lat="40.1247569" lon="9.564966"><ele>754.1666666666666</ele><time>2026-03-28T10:51:11.808Z</time></trkpt><trkpt lat="40.1247666" lon="9.5650864"><ele>756.3333333333333</ele><time>2026-03-28T10:51:13.802Z</time></trkpt><trkpt lat="40.1247433" lon="9.5652483"><ele>758.5</ele><time>2026-03-28T10:51:15.803Z</time></trkpt><trkpt lat="40.1247206" lon="9.5653372"><ele>760.6666666666666</ele><time>2026-03-28T10:51:16.804Z</time></trkpt><trkpt lat="40.1246938" lon="9.565428"><ele>762.8333333333334</ele><time>2026-03-28T10:51:17.805Z</time></trkpt><trkpt lat="40.1246603" lon="9.5655293"><ele>765.0</ele><time>2026-03-28T10:51:18.803Z</time></trkpt><trkpt lat="40.1246196" lon="9.5656379"><ele>767.0</ele><time>2026-03-28T10:51:19.802Z</time></trkpt><trkpt lat="40.1245767" lon="9.5657496"><ele>769.0</ele><time>2026-03-28T10:51:20.807Z</time></trkpt><trkpt lat="40.1245407" lon="9.5658632"><ele>771.0</ele><time>2026-03-28T10:51:21.81Z</time></trkpt><trkpt lat="40.1245037" lon="9.5659613"><ele>773.0</ele><time>2026-03-28T10:51:22.798Z</time></trkpt><trkpt lat="40.1244699" lon="9.566032"><ele>775.0</ele><time>2026-03-28T10:51:23.808Z</time></trkpt><trkpt lat="40.1244198" lon="9.566094"><ele>777.0</ele><time>2026-03-28T10:51:24.808Z</time></trkpt><trkpt lat="40.124356" lon="9.5661712"><ele>776.8333333333334</ele><time>2026-03-28T10:51:25.807Z</time></trkpt><trkpt lat="40.124283" lon="9.5662568"><ele>776.6666666666667</ele><time>2026-03-28T10:51:26.806Z</time></trkpt><trkpt lat="40.1242119" lon="9.5663392"><ele>776.5</ele><time>2026-03-28T10:51:27.81Z</time></trkpt><trkpt lat="40.1241583" lon="9.5664092"><ele>776.3333333333334</ele><time>2026-03-28T10:51:28.804Z</time></trkpt><trkpt lat="40.1241097" lon="9.5664783"><ele>776.1666666666667</ele><time>2026-03-28T10:51:29.806Z</time></trkpt><trkpt lat="40.1240771" lon="9.5665682"><ele>776.0</ele><time>2026-03-28T10:51:30.803Z</time></trkpt><trkpt lat="40.1240369" lon="9.5666879"><ele>780.4</ele><time>2026-03-28T10:51:31.805Z</time></trkpt><trkpt lat="40.1239805" lon="9.5668017"><ele>784.8</ele><time>2026-03-28T10:51:32.807Z</time></trkpt><trkpt lat="40.1239168" lon="9.5669073"><ele>789.1999999999999</ele><time>2026-03-28T10:51:33.803Z</time></trkpt><trkpt lat="40.1238542" lon="9.5670085"><ele>793.5999999999999</ele><time>2026-03-28T10:51:34.799Z</time></trkpt><trkpt lat="40.1237995" lon="9.5670986"><ele>798.0</ele><time>2026-03-28T10:51:35.806Z</time></trkpt><trkpt lat="40.1237433" lon="9.5671889"><ele>798.0</ele><time>2026-03-28T10:51:36.798Z</time></trkpt><trkpt lat="40.1236866" lon="9.5672833"><ele>798.0</ele><time>2026-03-28T10:51:37.804Z</time></trkpt><trkpt lat="40.1236389" lon="9.5673864"><ele>798.0</ele><time>2026-03-28T10:51:38.804Z</time></trkpt><trkpt lat="40.1235969" lon="9.5674883"><ele>798.0</ele><time>2026-03-28T10:51:39.805Z</time></trkpt><trkpt lat="40.1235594" lon="9.567597"><ele>798.0</ele><time>2026-03-28T10:51:40.8Z</time></trkpt><trkpt lat="40.1235311" lon="9.5676978"><ele>798.0</ele><time>2026-03-28T10:51:41.806Z</time></trkpt><trkpt lat="40.1235041" lon="9.5677755"><ele>797.5</ele><time>2026-03-28T10:51:42.806Z</time></trkpt><trkpt lat="40.1234409" lon="9.567901"><ele>797.0</ele><time>2026-03-28T10:51:44.801Z</time></trkpt><trkpt lat="40.1234047" lon="9.567974"><ele>796.5</ele><time>2026-03-28T10:51:45.808Z</time></trkpt><trkpt lat="40.123368" lon="9.568048"><ele>796.0</ele><time>2026-03-28T10:51:46.808Z</time></trkpt><trkpt lat="40.1233314" lon="9.5681236"><ele>795.5</ele><time>2026-03-28T10:51:47.802Z</time></trkpt><trkpt lat="40.1232738" lon="9.5682521"><ele>795.0</ele><time>2026-03-28T10:51:49.8Z</time></trkpt><trkpt lat="40.1232075" lon="9.5683728"><ele>797.0</ele><time>2026-03-28T10:51:51.812Z</time></trkpt><trkpt lat="40.1231616" lon="9.5684321"><ele>799.0</ele><time>2026-03-28T10:51:52.813Z</time></trkpt><trkpt lat="40.1231063" lon="9.5684915"><ele>801.0</ele><time>2026-03-28T10:51:53.807Z</time></trkpt><trkpt lat="40.1230439" lon="9.5685399"><ele>803.0</ele><time>2026-03-28T10:51:54.797Z</time></trkpt><trkpt lat="40.1229556" lon="9.5686472"><ele>805.0</ele><time>2026-03-28T10:51:56.801Z</time></trkpt><trkpt lat="40.1228807" lon="9.5687276"><ele>807.0</ele><time>2026-03-28T10:51:58.806Z</time></trkpt><trkpt lat="40.122777" lon="9.568805"><ele>807.0</ele><time>2026-03-28T10:52:00.806Z</time></trkpt><trkpt lat="40.1227116" lon="9.5688409"><ele>807.0</ele><time>2026-03-28T10:52:01.801Z</time></trkpt><trkpt lat="40.1226429" lon="9.568896"><ele>807.0</ele><time>2026-03-28T10:52:02.807Z</time></trkpt><trkpt lat="40.122576" lon="9.5689624"><ele>807.0</ele><time>2026-03-28T10:52:03.802Z</time></trkpt><trkpt lat="40.1225063" lon="9.5690424"><ele>807.0</ele><time>2026-03-28T10:52:04.806Z</time></trkpt><trkpt lat="40.1224597" lon="9.5691191"><ele>807.0</ele><time>2026-03-28T10:52:05.799Z</time></trkpt><trkpt lat="40.1224122" lon="9.5691918"><ele>809.5</ele><time>2026-03-28T10:52:06.808Z</time></trkpt><trkpt lat="40.1223616" lon="9.5692639"><ele>812.0</ele><time>2026-03-28T10:52:07.802Z</time></trkpt><trkpt lat="40.1223039" lon="9.5693282"><ele>814.5</ele><time>2026-03-28T10:52:08.805Z</time></trkpt><trkpt lat="40.1222395" lon="9.5693903"><ele>817.0</ele><time>2026-03-28T10:52:09.808Z</time></trkpt><trkpt lat="40.1221748" lon="9.5694238"><ele>819.5</ele><time>2026-03-28T10:52:10.806Z</time></trkpt><trkpt lat="40.1221016" lon="9.5694466"><ele>822.0</ele><time>2026-03-28T10:52:11.805Z</time></trkpt><trkpt lat="40.1220194" lon="9.5694404"><ele>822.0</ele><time>2026-03-28T10:52:12.807Z</time></trkpt><trkpt lat="40.1219283" lon="9.5694381"><ele>822.0</ele><time>2026-03-28T10:52:13.807Z</time></trkpt><trkpt lat="40.1218334" lon="9.5694382"><ele>822.0</ele><time>2026-03-28T10:52:14.805Z</time></trkpt><trkpt lat="40.1217462" lon="9.5694273"><ele>822.0</ele><time>2026-03-28T10:52:15.805Z</time></trkpt><trkpt lat="40.1216495" lon="9.5694221"><ele>822.0</ele><time>2026-03-28T10:52:16.802Z</time></trkpt><trkpt lat="40.1215599" lon="9.5694388"><ele>823.0</ele><time>2026-03-28T10:52:17.806Z</time></trkpt><trkpt lat="40.1214858" lon="9.5694478"><ele>824.0</ele><time>2026-03-28T10:52:18.797Z</time></trkpt><trkpt lat="40.1214203" lon="9.5694484"><ele>825.0</ele><time>2026-03-28T10:52:19.808Z</time></trkpt><trkpt lat="40.1213197" lon="9.5694063"><ele>826.0</ele><time>2026-03-28T10:52:21.808Z</time></trkpt><trkpt lat="40.1212671" lon="9.5693427"><ele>827.0</ele><time>2026-03-28T10:52:22.803Z</time></trkpt><trkpt lat="40.1212134" lon="9.56929"><ele>828.0</ele><time>2026-03-28T10:52:23.807Z</time></trkpt><trkpt lat="40.1211567" lon="9.5692272"><ele>828.0</ele><time>2026-03-28T10:52:24.798Z</time></trkpt><trkpt lat="40.1211003" lon="9.5691595"><ele>828.0</ele><time>2026-03-28T10:52:25.801Z</time></trkpt><trkpt lat="40.1210479" lon="9.5690846"><ele>828.0</ele><time>2026-03-28T10:52:26.802Z</time></trkpt><trkpt lat="40.1209874" lon="9.569012"><ele>828.0</ele><time>2026-03-28T10:52:27.809Z</time></trkpt><trkpt lat="40.120917" lon="9.5689391"><ele>828.0</ele><time>2026-03-28T10:52:28.805Z</time></trkpt><trkpt lat="40.1208406" lon="9.5688622"><ele>828.0</ele><time>2026-03-28T10:52:29.8Z</time></trkpt><trkpt lat="40.1207755" lon="9.568771"><ele>829.4285714285714</ele><time>2026-03-28T10:52:30.806Z</time></trkpt><trkpt lat="40.1207162" lon="9.5687017"><ele>830.8571428571429</ele><time>2026-03-28T10:52:31.811Z</time></trkpt><trkpt lat="40.1206622" lon="9.5686535"><ele>832.2857142857142</ele><time>2026-03-28T10:52:32.809Z</time></trkpt><trkpt lat="40.1206021" lon="9.5686262"><ele>833.7142857142858</ele><time>2026-03-28T10:52:33.805Z</time></trkpt><trkpt lat="40.1205249" lon="9.5686128"><ele>835.1428571428571</ele><time>2026-03-28T10:52:34.804Z</time></trkpt><trkpt lat="40.1204469" lon="9.5686057"><ele>836.5714285714286</ele><time>2026-03-28T10:52:35.805Z</time></trkpt><trkpt lat="40.1203703" lon="9.5685907"><ele>838.0</ele><time>2026-03-28T10:52:36.806Z</time></trkpt><trkpt lat="40.1202931" lon="9.56857"><ele>838.4</ele><time>2026-03-28T10:52:37.804Z</time></trkpt><trkpt lat="40.1202032" lon="9.5685358"><ele>838.8</ele><time>2026-03-28T10:52:38.805Z</time></trkpt><trkpt lat="40.1201204" lon="9.5684878"><ele>839.2</ele><time>2026-03-28T10:52:39.798Z</time></trkpt><trkpt lat="40.1200303" lon="9.5684417"><ele>839.6</ele><time>2026-03-28T10:52:40.806Z</time></trkpt><trkpt lat="40.1199257" lon="9.5683822"><ele>840.0</ele><time>2026-03-28T10:52:41.807Z</time></trkpt><trkpt lat="40.1198233" lon="9.5683284"><ele>840.8333333333334</ele><time>2026-03-28T10:52:42.808Z</time></trkpt><trkpt lat="40.1197246" lon="9.5682765"><ele>841.6666666666667</ele><time>2026-03-28T10:52:43.8Z</time></trkpt><trkpt lat="40.1196466" lon="9.5682394"><ele>842.5</ele><time>2026-03-28T10:52:44.807Z</time></trkpt><trkpt lat="40.1195583" lon="9.5682221"><ele>843.3333333333334</ele><time>2026-03-28T10:52:45.811Z</time></trkpt><trkpt lat="40.1194748" lon="9.5682201"><ele>844.1666666666667</ele><time>2026-03-28T10:52:46.8Z</time></trkpt><trkpt lat="40.1194105" lon="9.5682225"><ele>845.0</ele><time>2026-03-28T10:52:47.8Z</time></trkpt><trkpt lat="40.1193585" lon="9.5682736"><ele>845.0000000000001</ele><time>2026-03-28T10:52:48.8Z</time></trkpt><trkpt lat="40.1193056" lon="9.5683291"><ele>845.0</ele><time>2026-03-28T10:52:49.808Z</time></trkpt><trkpt lat="40.1192707" lon="9.5684218"><ele>845.0</ele><time>2026-03-28T10:52:50.805Z</time></trkpt><trkpt lat="40.1192408" lon="9.568539"><ele>845.0</ele><time>2026-03-28T10:52:51.808Z</time></trkpt><trkpt lat="40.1192259" lon="9.5686491"><ele>845.0000000000001</ele><time>2026-03-28T10:52:52.799Z</time></trkpt><trkpt lat="40.1192267" lon="9.568739"><ele>845.0</ele><time>2026-03-28T10:52:53.801Z</time></trkpt><trkpt lat="40.1192831" lon="9.5688765"><ele>846.0</ele><time>2026-03-28T10:52:55.801Z</time></trkpt><trkpt lat="40.1193343" lon="9.5689287"><ele>847.0</ele><time>2026-03-28T10:52:56.806Z</time></trkpt><trkpt lat="40.1193953" lon="9.5689865"><ele>848.0</ele><time>2026-03-28T10:52:57.806Z</time></trkpt><trkpt lat="40.1194955" lon="9.569042"><ele>849.0</ele><time>2026-03-28T10:52:58.803Z</time></trkpt><trkpt lat="40.1195995" lon="9.56912"><ele>850.0</ele><time>2026-03-28T10:52:59.798Z</time></trkpt><trkpt lat="40.1197032" lon="9.5692165"><ele>850.0</ele><time>2026-03-28T10:53:00.802Z</time></trkpt><trkpt lat="40.1198053" lon="9.5693116"><ele>850.0</ele><time>2026-03-28T10:53:01.801Z</time></trkpt><trkpt lat="40.1198962" lon="9.5694171"><ele>850.0</ele><time>2026-03-28T10:53:02.807Z</time></trkpt><trkpt lat="40.1199756" lon="9.5695043"><ele>850.0</ele><time>2026-03-28T10:53:03.798Z</time></trkpt><trkpt lat="40.1200334" lon="9.5695732"><ele>850.0</ele><time>2026-03-28T10:53:04.805Z</time></trkpt><trkpt lat="40.1200845" lon="9.5696525"><ele>850.2</ele><time>2026-03-28T10:53:05.802Z</time></trkpt><trkpt lat="40.1201293" lon="9.5697574"><ele>850.4</ele><time>2026-03-28T10:53:06.806Z</time></trkpt><trkpt lat="40.1201721" lon="9.569886"><ele>850.5999999999999</ele><time>2026-03-28T10:53:07.808Z</time></trkpt><trkpt lat="40.1202161" lon="9.5700173"><ele>850.8</ele><time>2026-03-28T10:53:08.803Z</time></trkpt><trkpt lat="40.1202685" lon="9.570139"><ele>851.0</ele><time>2026-03-28T10:53:09.805Z</time></trkpt><trkpt lat="40.1203353" lon="9.570254"><ele>853.4</ele><time>2026-03-28T10:53:10.804Z</time></trkpt><trkpt lat="40.120402" lon="9.570375"><ele>855.8</ele><time>2026-03-28T10:53:11.807Z</time></trkpt><trkpt lat="40.1204539" lon="9.5704852"><ele>858.1999999999999</ele><time>2026-03-28T10:53:12.823Z</time></trkpt><trkpt lat="40.1204881" lon="9.5705699"><ele>860.5999999999999</ele><time>2026-03-28T10:53:13.809Z</time></trkpt><trkpt lat="40.1205261" lon="9.570719"><ele>863.0</ele><time>2026-03-28T10:53:15.804Z</time></trkpt><trkpt lat="40.1205246" lon="9.5709065"><ele>863.0000000000001</ele><time>2026-03-28T10:53:17.809Z</time></trkpt><trkpt lat="40.1205172" lon="9.5710148"><ele>863.0</ele><time>2026-03-28T10:53:18.804Z</time></trkpt><trkpt lat="40.1205153" lon="9.5711127"><ele>863.0</ele><time>2026-03-28T10:53:19.812Z</time></trkpt><trkpt lat="40.1205131" lon="9.5712026"><ele>863.0</ele><time>2026-03-28T10:53:20.804Z</time></trkpt><trkpt lat="40.1205577" lon="9.5713428"><ele>863.0000000000001</ele><time>2026-03-28T10:53:22.806Z</time></trkpt><trkpt lat="40.1205937" lon="9.5714193"><ele>863.0</ele><time>2026-03-28T10:53:23.802Z</time></trkpt><trkpt lat="40.1206399" lon="9.5715386"><ele>862.5000000000001</ele><time>2026-03-28T10:53:25.806Z</time></trkpt><trkpt lat="40.1205862" lon="9.5715883"><ele>862.0</ele><time>2026-03-28T10:53:28.81Z</time></trkpt><trkpt lat="40.1204817" lon="9.5716234"><ele>861.5</ele><time>2026-03-28T10:53:30.805Z</time></trkpt><trkpt lat="40.1204446" lon="9.5717218"><ele>861.0</ele><time>2026-03-28T10:53:32.805Z</time></trkpt><trkpt lat="40.1204503" lon="9.5718703"><ele>860.5000000000001</ele><time>2026-03-28T10:53:34.815Z</time></trkpt><trkpt lat="40.1204647" lon="9.5719649"><ele>860.0</ele><time>2026-03-28T10:53:35.823Z</time></trkpt><trkpt lat="40.1204714" lon="9.5720549"><ele>858.2</ele><time>2026-03-28T10:53:36.811Z</time></trkpt><trkpt lat="40.1204672" lon="9.5722102"><ele>856.4</ele><time>2026-03-28T10:53:38.802Z</time></trkpt><trkpt lat="40.1204104" lon="9.5723493"><ele>854.5999999999999</ele><time>2026-03-28T10:53:40.802Z</time></trkpt><trkpt lat="40.1203211" lon="9.5724591"><ele>852.8</ele><time>2026-03-28T10:53:42.813Z</time></trkpt><trkpt lat="40.1202545" lon="9.5725"><ele>851.0</ele><time>2026-03-28T10:53:43.806Z</time></trkpt><trkpt lat="40.1201803" lon="9.5725342"><ele>851.0000000000001</ele><time>2026-03-28T10:53:44.813Z</time></trkpt><trkpt lat="40.1201034" lon="9.5725656"><ele>851.0</ele><time>2026-03-28T10:53:45.806Z</time></trkpt><trkpt lat="40.1200292" lon="9.5726008"><ele>851.0</ele><time>2026-03-28T10:53:46.817Z</time></trkpt><trkpt lat="40.119952" lon="9.5726413"><ele>851.0</ele><time>2026-03-28T10:53:47.81Z</time></trkpt><trkpt lat="40.1198719" lon="9.5726837"><ele>851.0000000000001</ele><time>2026-03-28T10:53:48.802Z</time></trkpt><trkpt lat="40.1197994" lon="9.57275"><ele>851.0</ele><time>2026-03-28T10:53:49.811Z</time></trkpt><trkpt lat="40.1197351" lon="9.5728357"><ele>849.5999999999999</ele><time>2026-03-28T10:53:50.809Z</time></trkpt><trkpt lat="40.1196732" lon="9.5729434"><ele>848.2</ele><time>2026-03-28T10:53:51.807Z</time></trkpt><trkpt lat="40.1196102" lon="9.5730594"><ele>846.8</ele><time>2026-03-28T10:53:52.809Z</time></trkpt><trkpt lat="40.1195396" lon="9.5731629"><ele>845.4000000000001</ele><time>2026-03-28T10:53:53.807Z</time></trkpt><trkpt lat="40.1194709" lon="9.5732628"><ele>844.0</ele><time>2026-03-28T10:53:54.808Z</time></trkpt><trkpt lat="40.1193915" lon="9.5733501"><ele>844.0</ele><time>2026-03-28T10:53:55.812Z</time></trkpt><trkpt lat="40.119281" lon="9.5734322"><ele>844.0</ele><time>2026-03-28T10:53:56.802Z</time></trkpt><trkpt lat="40.1191795" lon="9.5735237"><ele>844.0</ele><time>2026-03-28T10:53:57.81Z</time></trkpt><trkpt lat="40.1190768" lon="9.5736203"><ele>844.0</ele><time>2026-03-28T10:53:58.809Z</time></trkpt><trkpt lat="40.1189731" lon="9.5737433"><ele>841.25</ele><time>2026-03-28T10:53:59.811Z</time></trkpt><trkpt lat="40.1188775" lon="9.5738564"><ele>838.5</ele><time>2026-03-28T10:54:00.811Z</time></trkpt><trkpt lat="40.118783" lon="9.5739622"><ele>835.75</ele><time>2026-03-28T10:54:01.804Z</time></trkpt><trkpt lat="40.118689" lon="9.574066"><ele>833.0</ele><time>2026-03-28T10:54:02.81Z</time></trkpt><trkpt lat="40.1185897" lon="9.5741317"><ele>833.0</ele><time>2026-03-28T10:54:03.806Z</time></trkpt><trkpt lat="40.1184779" lon="9.5741679"><ele>833.0</ele><time>2026-03-28T10:54:04.805Z</time></trkpt><trkpt lat="40.118354" lon="9.5741859"><ele>833.0</ele><time>2026-03-28T10:54:05.802Z</time></trkpt><trkpt lat="40.1182216" lon="9.5742037"><ele>833.0</ele><time>2026-03-28T10:54:06.811Z</time></trkpt><trkpt lat="40.1180751" lon="9.5741794"><ele>831.3333333333334</ele><time>2026-03-28T10:54:07.81Z</time></trkpt><trkpt lat="40.1179202" lon="9.5741336"><ele>829.6666666666667</ele><time>2026-03-28T10:54:08.808Z</time></trkpt><trkpt lat="40.1177561" lon="9.5740793"><ele>828.0</ele><time>2026-03-28T10:54:09.802Z</time></trkpt><trkpt lat="40.1175924" lon="9.574019"><ele>828.0</ele><time>2026-03-28T10:54:10.809Z</time></trkpt><trkpt lat="40.1174416" lon="9.5739659"><ele>828.0</ele><time>2026-03-28T10:54:11.809Z</time></trkpt><trkpt lat="40.1172981" lon="9.5739146"><ele>828.0</ele><time>2026-03-28T10:54:12.815Z</time></trkpt><trkpt lat="40.1171581" lon="9.5738762"><ele>828.0</ele><time>2026-03-28T10:54:13.81Z</time></trkpt><trkpt lat="40.1170214" lon="9.5738375"><ele>828.25</ele><time>2026-03-28T10:54:14.81Z</time></trkpt><trkpt lat="40.1168954" lon="9.5738252"><ele>828.5</ele><time>2026-03-28T10:54:15.806Z</time></trkpt><trkpt lat="40.1167739" lon="9.573834"><ele>828.75</ele><time>2026-03-28T10:54:16.809Z</time></trkpt><trkpt lat="40.1166574" lon="9.5738712"><ele>829.0</ele><time>2026-03-28T10:54:17.808Z</time></trkpt><trkpt lat="40.1165452" lon="9.5739305"><ele>829.25</ele><time>2026-03-28T10:54:18.808Z</time></trkpt><trkpt lat="40.1164302" lon="9.5740144"><ele>829.5</ele><time>2026-03-28T10:54:19.807Z</time></trkpt><trkpt lat="40.1163118" lon="9.5741149"><ele>829.75</ele><time>2026-03-28T10:54:20.809Z</time></trkpt><trkpt lat="40.1161878" lon="9.5742255"><ele>830.0</ele><time>2026-03-28T10:54:21.81Z</time></trkpt><trkpt lat="40.1160594" lon="9.5743169"><ele>830.0</ele><time>2026-03-28T10:54:22.808Z</time></trkpt><trkpt lat="40.115934" lon="9.5743848"><ele>830.0</ele><time>2026-03-28T10:54:23.808Z</time></trkpt><trkpt lat="40.1158104" lon="9.5744302"><ele>830.0</ele><time>2026-03-28T10:54:24.811Z</time></trkpt><trkpt lat="40.1156779" lon="9.5744362"><ele>830.0</ele><time>2026-03-28T10:54:25.812Z</time></trkpt><trkpt lat="40.1155283" lon="9.5744346"><ele>829.0</ele><time>2026-03-28T10:54:26.807Z</time></trkpt><trkpt lat="40.1153619" lon="9.5744429"><ele>828.0</ele><time>2026-03-28T10:54:27.803Z</time></trkpt><trkpt lat="40.1151968" lon="9.5744717"><ele>827.0</ele><time>2026-03-28T10:54:28.813Z</time></trkpt><trkpt lat="40.1150282" lon="9.5745134"><ele>824.6666666666667</ele><time>2026-03-28T10:54:29.808Z</time></trkpt><trkpt lat="40.1148616" lon="9.5745853"><ele>822.3333333333333</ele><time>2026-03-28T10:54:30.804Z</time></trkpt><trkpt lat="40.1147045" lon="9.5746619"><ele>820.0</ele><time>2026-03-28T10:54:31.809Z</time></trkpt><trkpt lat="40.114555" lon="9.5747367"><ele>820.0</ele><time>2026-03-28T10:54:32.808Z</time></trkpt><trkpt lat="40.114415" lon="9.5747957"><ele>820.0</ele><time>2026-03-28T10:54:33.809Z</time></trkpt><trkpt lat="40.1142763" lon="9.5748399"><ele>820.0</ele><time>2026-03-28T10:54:34.803Z</time></trkpt><trkpt lat="40.1141325" lon="9.574857"><ele>820.0</ele><time>2026-03-28T10:54:35.801Z</time></trkpt><trkpt lat="40.1139548" lon="9.5748514"><ele>820.3333333333333</ele><time>2026-03-28T10:54:36.809Z</time></trkpt><trkpt lat="40.1137574" lon="9.5748539"><ele>820.6666666666667</ele><time>2026-03-28T10:54:37.802Z</time></trkpt><trkpt lat="40.1135686" lon="9.5748577"><ele>821.0</ele><time>2026-03-28T10:54:38.812Z</time></trkpt><trkpt lat="40.1133868" lon="9.574873"><ele>821.3333333333334</ele><time>2026-03-28T10:54:39.798Z</time></trkpt><trkpt lat="40.1132025" lon="9.5748989"><ele>821.6666666666667</ele><time>2026-03-28T10:54:40.802Z</time></trkpt><trkpt lat="40.1130181" lon="9.5749289"><ele>822.0</ele><time>2026-03-28T10:54:41.801Z</time></trkpt><trkpt lat="40.1128264" lon="9.5749588"><ele>822.0</ele><time>2026-03-28T10:54:42.801Z</time></trkpt><trkpt lat="40.1126287" lon="9.5749878"><ele>822.0</ele><time>2026-03-28T10:54:43.81Z</time></trkpt><trkpt lat="40.1124369" lon="9.5750258"><ele>822.0</ele><time>2026-03-28T10:54:44.808Z</time></trkpt><trkpt lat="40.1122636" lon="9.575061"><ele>822.6666666666667</ele><time>2026-03-28T10:54:45.806Z</time></trkpt><trkpt lat="40.1121181" lon="9.5750811"><ele>823.3333333333334</ele><time>2026-03-28T10:54:46.807Z</time></trkpt><trkpt lat="40.1119695" lon="9.5750977"><ele>824.0</ele><time>2026-03-28T10:54:47.808Z</time></trkpt><trkpt lat="40.1118064" lon="9.5751163"><ele>824.0</ele><time>2026-03-28T10:54:48.801Z</time></trkpt><trkpt lat="40.1116324" lon="9.5751203"><ele>824.0</ele><time>2026-03-28T10:54:49.824Z</time></trkpt><trkpt lat="40.1114689" lon="9.5751261"><ele>824.0</ele><time>2026-03-28T10:54:50.806Z</time></trkpt><trkpt lat="40.1113031" lon="9.5751325"><ele>824.5</ele><time>2026-03-28T10:54:51.806Z</time></trkpt><trkpt lat="40.1111575" lon="9.5751483"><ele>825.0</ele><time>2026-03-28T10:54:52.809Z</time></trkpt><trkpt lat="40.1110245" lon="9.5751767"><ele>825.5</ele><time>2026-03-28T10:54:53.808Z</time></trkpt><trkpt lat="40.1109076" lon="9.5752245"><ele>826.0</ele><time>2026-03-28T10:54:54.8Z</time></trkpt><trkpt lat="40.1107847" lon="9.5752901"><ele>826.75</ele><time>2026-03-28T10:54:55.806Z</time></trkpt><trkpt lat="40.1106577" lon="9.5753854"><ele>827.5</ele><time>2026-03-28T10:54:56.808Z</time></trkpt><trkpt lat="40.1105392" lon="9.5754995"><ele>828.25</ele><time>2026-03-28T10:54:57.811Z</time></trkpt><trkpt lat="40.1104278" lon="9.5756336"><ele>829.0</ele><time>2026-03-28T10:54:58.808Z</time></trkpt><trkpt lat="40.1103176" lon="9.5757865"><ele>829.0</ele><time>2026-03-28T10:54:59.806Z</time></trkpt><trkpt lat="40.1102044" lon="9.5759536"><ele>829.0</ele><time>2026-03-28T10:55:00.809Z</time></trkpt><trkpt lat="40.1101028" lon="9.5761143"><ele>829.0</ele><time>2026-03-28T10:55:01.812Z</time></trkpt><trkpt lat="40.110012" lon="9.5762557"><ele>828.6</ele><time>2026-03-28T10:55:02.806Z</time></trkpt><trkpt lat="40.1099357" lon="9.5763756"><ele>828.2</ele><time>2026-03-28T10:55:03.803Z</time></trkpt><trkpt lat="40.109873" lon="9.5764639"><ele>827.8000000000001</ele><time>2026-03-28T10:55:04.806Z</time></trkpt><trkpt lat="40.1098028" lon="9.5765297"><ele>827.4000000000001</ele><time>2026-03-28T10:55:05.809Z</time></trkpt><trkpt lat="40.1097152" lon="9.5765862"><ele>827.0</ele><time>2026-03-28T10:55:06.813Z</time></trkpt><trkpt lat="40.1095902" lon="9.5766422"><ele>828.3333333333334</ele><time>2026-03-28T10:55:07.804Z</time></trkpt><trkpt lat="40.1094546" lon="9.5766911"><ele>829.6666666666667</ele><time>2026-03-28T10:55:08.801Z</time></trkpt><trkpt lat="40.1093088" lon="9.5767289"><ele>831.0</ele><time>2026-03-28T10:55:09.801Z</time></trkpt><trkpt lat="40.109149" lon="9.5767503"><ele>832.0</ele><time>2026-03-28T10:55:10.807Z</time></trkpt><trkpt lat="40.1089969" lon="9.5767683"><ele>833.0</ele><time>2026-03-28T10:55:11.815Z</time></trkpt><trkpt lat="40.1088456" lon="9.5767907"><ele>834.0</ele><time>2026-03-28T10:55:12.807Z</time></trkpt><trkpt lat="40.1086961" lon="9.5768456"><ele>834.0</ele><time>2026-03-28T10:55:13.81Z</time></trkpt><trkpt lat="40.108536" lon="9.5769103"><ele>834.0</ele><time>2026-03-28T10:55:14.81Z</time></trkpt><trkpt lat="40.1083684" lon="9.5769789"><ele>834.0</ele><time>2026-03-28T10:55:15.812Z</time></trkpt><trkpt lat="40.1082101" lon="9.5770431"><ele>833.8000000000001</ele><time>2026-03-28T10:55:16.812Z</time></trkpt><trkpt lat="40.1080743" lon="9.577101"><ele>833.6</ele><time>2026-03-28T10:55:17.812Z</time></trkpt><trkpt lat="40.1079607" lon="9.5771427"><ele>833.4</ele><time>2026-03-28T10:55:18.81Z</time></trkpt><trkpt lat="40.1078648" lon="9.5771527"><ele>833.2</ele><time>2026-03-28T10:55:19.809Z</time></trkpt><trkpt lat="40.107778" lon="9.5771603"><ele>833.0</ele><time>2026-03-28T10:55:20.811Z</time></trkpt><trkpt lat="40.1076625" lon="9.5771154"><ele>833.0</ele><time>2026-03-28T10:55:21.813Z</time></trkpt><trkpt lat="40.107525" lon="9.5770491"><ele>833.0</ele><time>2026-03-28T10:55:22.808Z</time></trkpt><trkpt lat="40.1073987" lon="9.576955"><ele>833.0</ele><time>2026-03-28T10:55:23.809Z</time></trkpt><trkpt lat="40.1072725" lon="9.5768593"><ele>833.0</ele><time>2026-03-28T10:55:24.808Z</time></trkpt><trkpt lat="40.1071598" lon="9.5767415"><ele>833.25</ele><time>2026-03-28T10:55:25.808Z</time></trkpt><trkpt lat="40.1070516" lon="9.5766275"><ele>833.5</ele><time>2026-03-28T10:55:26.813Z</time></trkpt><trkpt lat="40.1069621" lon="9.5765318"><ele>833.75</ele><time>2026-03-28T10:55:27.814Z</time></trkpt><trkpt lat="40.10687" lon="9.5764613"><ele>834.0</ele><time>2026-03-28T10:55:28.806Z</time></trkpt><trkpt lat="40.1067666" lon="9.576393"><ele>834.0</ele><time>2026-03-28T10:55:29.805Z</time></trkpt><trkpt lat="40.1066079" lon="9.5763318"><ele>834.0</ele><time>2026-03-28T10:55:30.807Z</time></trkpt><trkpt lat="40.106458" lon="9.576275"><ele>834.0</ele><time>2026-03-28T10:55:31.81Z</time></trkpt><trkpt lat="40.1063109" lon="9.5762179"><ele>831.25</ele><time>2026-03-28T10:55:32.805Z</time></trkpt><trkpt lat="40.106175" lon="9.5761395"><ele>828.5</ele><time>2026-03-28T10:55:33.812Z</time></trkpt><trkpt lat="40.1060612" lon="9.5760486"><ele>825.75</ele><time>2026-03-28T10:55:34.81Z</time></trkpt><trkpt lat="40.1059538" lon="9.5759662"><ele>823.0</ele><time>2026-03-28T10:55:35.81Z</time></trkpt><trkpt lat="40.1058481" lon="9.57589"><ele>823.75</ele><time>2026-03-28T10:55:36.808Z</time></trkpt><trkpt lat="40.105742" lon="9.5758205"><ele>824.5</ele><time>2026-03-28T10:55:37.808Z</time></trkpt><trkpt lat="40.1056432" lon="9.575747"><ele>825.25</ele><time>2026-03-28T10:55:38.805Z</time></trkpt><trkpt lat="40.1055519" lon="9.5756731"><ele>826.0</ele><time>2026-03-28T10:55:39.802Z</time></trkpt><trkpt lat="40.1054609" lon="9.575592"><ele>826.0</ele><time>2026-03-28T10:55:40.807Z</time></trkpt><trkpt lat="40.1053725" lon="9.5755058"><ele>826.0</ele><time>2026-03-28T10:55:41.802Z</time></trkpt><trkpt lat="40.1052906" lon="9.5754176"><ele>826.0</ele><time>2026-03-28T10:55:42.799Z</time></trkpt><trkpt lat="40.1051962" lon="9.575341"><ele>826.0</ele><time>2026-03-28T10:55:43.812Z</time></trkpt><trkpt lat="40.1050761" lon="9.5752958"><ele>823.8</ele><time>2026-03-28T10:55:44.808Z</time></trkpt><trkpt lat="40.1049455" lon="9.5752538"><ele>821.5999999999999</ele><time>2026-03-28T10:55:45.805Z</time></trkpt><trkpt lat="40.1048345" lon="9.5752224"><ele>819.4</ele><time>2026-03-28T10:55:46.801Z</time></trkpt><trkpt lat="40.1047409" lon="9.5751877"><ele>817.2</ele><time>2026-03-28T10:55:47.807Z</time></trkpt><trkpt lat="40.1046679" lon="9.5751502"><ele>815.0</ele><time>2026-03-28T10:55:48.805Z</time></trkpt><trkpt lat="40.1045924" lon="9.5751105"><ele>815.0</ele><time>2026-03-28T10:55:49.811Z</time></trkpt><trkpt lat="40.104509" lon="9.5750095"><ele>815.0</ele><time>2026-03-28T10:55:50.808Z</time></trkpt><trkpt lat="40.1044198" lon="9.5748949"><ele>815.0</ele><time>2026-03-28T10:55:51.804Z</time></trkpt><trkpt lat="40.1043277" lon="9.5747715"><ele>815.0</ele><time>2026-03-28T10:55:52.82Z</time></trkpt><trkpt lat="40.104234" lon="9.5746771"><ele>815.0</ele><time>2026-03-28T10:55:53.807Z</time></trkpt><trkpt lat="40.1041079" lon="9.5746036"><ele>815.0</ele><time>2026-03-28T10:55:54.804Z</time></trkpt><trkpt lat="40.1039729" lon="9.5745794"><ele>815.0</ele><time>2026-03-28T10:55:55.81Z</time></trkpt><trkpt lat="40.1038373" lon="9.5745892"><ele>815.0</ele><time>2026-03-28T10:55:56.814Z</time></trkpt><trkpt lat="40.1037065" lon="9.5746127"><ele>812.75</ele><time>2026-03-28T10:55:57.809Z</time></trkpt><trkpt lat="40.1035759" lon="9.5746154"><ele>810.5</ele><time>2026-03-28T10:55:58.81Z</time></trkpt><trkpt lat="40.1034337" lon="9.5745611"><ele>808.25</ele><time>2026-03-28T10:55:59.814Z</time></trkpt><trkpt lat="40.10327" lon="9.574499"><ele>806.0</ele><time>2026-03-28T10:56:00.809Z</time></trkpt><trkpt lat="40.1030929" lon="9.5744631"><ele>801.5</ele><time>2026-03-28T10:56:01.808Z</time></trkpt><trkpt lat="40.1029318" lon="9.5744428"><ele>797.0</ele><time>2026-03-28T10:56:02.804Z</time></trkpt><trkpt lat="40.1027996" lon="9.5744403"><ele>792.5</ele><time>2026-03-28T10:56:03.811Z</time></trkpt><trkpt lat="40.1026784" lon="9.574448"><ele>788.0</ele><time>2026-03-28T10:56:04.81Z</time></trkpt><trkpt lat="40.1025736" lon="9.5744776"><ele>788.25</ele><time>2026-03-28T10:56:05.808Z</time></trkpt><trkpt lat="40.1024783" lon="9.5745296"><ele>788.5</ele><time>2026-03-28T10:56:06.814Z</time></trkpt><trkpt lat="40.1023775" lon="9.5746017"><ele>788.75</ele><time>2026-03-28T10:56:07.807Z</time></trkpt><trkpt lat="40.1022688" lon="9.5747181"><ele>789.0</ele><time>2026-03-28T10:56:08.808Z</time></trkpt><trkpt lat="40.1021527" lon="9.5748566"><ele>786.5</ele><time>2026-03-28T10:56:09.81Z</time></trkpt><trkpt lat="40.1020443" lon="9.574993"><ele>784.0</ele><time>2026-03-28T10:56:10.81Z</time></trkpt><trkpt lat="40.1019357" lon="9.5750855"><ele>781.5</ele><time>2026-03-28T10:56:11.809Z</time></trkpt><trkpt lat="40.1018239" lon="9.5751521"><ele>779.0</ele><time>2026-03-28T10:56:12.812Z</time></trkpt><trkpt lat="40.1017219" lon="9.57519"><ele>779.0000000000001</ele><time>2026-03-28T10:56:13.807Z</time></trkpt><trkpt lat="40.1016389" lon="9.5752153"><ele>779.0</ele><time>2026-03-28T10:56:14.807Z</time></trkpt><trkpt lat="40.1015542" lon="9.5752074"><ele>779.0</ele><time>2026-03-28T10:56:15.804Z</time></trkpt><trkpt lat="40.1014726" lon="9.5751491"><ele>779.0</ele><time>2026-03-28T10:56:16.807Z</time></trkpt><trkpt lat="40.1014148" lon="9.5750921"><ele>779.0000000000001</ele><time>2026-03-28T10:56:17.8Z</time></trkpt><trkpt lat="40.1013573" lon="9.5749885"><ele>779.0</ele><time>2026-03-28T10:56:19.807Z</time></trkpt><trkpt lat="40.1012971" lon="9.5748499"><ele>778.2</ele><time>2026-03-28T10:56:21.835Z</time></trkpt><trkpt lat="40.1012455" lon="9.5747339"><ele>777.4000000000001</ele><time>2026-03-28T10:56:22.808Z</time></trkpt><trkpt lat="40.1011865" lon="9.5746163"><ele>776.6</ele><time>2026-03-28T10:56:23.808Z</time></trkpt><trkpt lat="40.1011138" lon="9.5745177"><ele>775.8</ele><time>2026-03-28T10:56:24.811Z</time></trkpt><trkpt lat="40.1010144" lon="9.5744302"><ele>775.0</ele><time>2026-03-28T10:56:25.807Z</time></trkpt><trkpt lat="40.1008975" lon="9.5743387"><ele>774.0</ele><time>2026-03-28T10:56:26.813Z</time></trkpt><trkpt lat="40.1007658" lon="9.5742309"><ele>773.0</ele><time>2026-03-28T10:56:27.809Z</time></trkpt><trkpt lat="40.1006429" lon="9.5741261"><ele>772.0</ele><time>2026-03-28T10:56:28.807Z</time></trkpt><trkpt lat="40.1005532" lon="9.5740112"><ele>771.0</ele><time>2026-03-28T10:56:29.802Z</time></trkpt><trkpt lat="40.1004727" lon="9.5739185"><ele>771.0</ele><time>2026-03-28T10:56:30.809Z</time></trkpt><trkpt lat="40.1004058" lon="9.5738219"><ele>771.0</ele><time>2026-03-28T10:56:31.806Z</time></trkpt><trkpt lat="40.100346" lon="9.5737237"><ele>771.0</ele><time>2026-03-28T10:56:32.809Z</time></trkpt><trkpt lat="40.1002923" lon="9.5736221"><ele>771.0</ele><time>2026-03-28T10:56:33.813Z</time></trkpt><trkpt lat="40.100231" lon="9.5735179"><ele>771.0</ele><time>2026-03-28T10:56:34.812Z</time></trkpt><trkpt lat="40.1001721" lon="9.5734188"><ele>770.4</ele><time>2026-03-28T10:56:35.807Z</time></trkpt><trkpt lat="40.1001317" lon="9.5733042"><ele>769.8</ele><time>2026-03-28T10:56:36.812Z</time></trkpt><trkpt lat="40.1000972" lon="9.5731682"><ele>769.1999999999999</ele><time>2026-03-28T10:56:37.81Z</time></trkpt><trkpt lat="40.1000533" lon="9.5730365"><ele>768.5999999999999</ele><time>2026-03-28T10:56:38.805Z</time></trkpt><trkpt lat="40.1000009" lon="9.5729234"><ele>768.0</ele><time>2026-03-28T10:56:39.808Z</time></trkpt><trkpt lat="40.0999511" lon="9.5728356"><ele>767.3333333333334</ele><time>2026-03-28T10:56:40.803Z</time></trkpt><trkpt lat="40.099896" lon="9.5727723"><ele>766.6666666666666</ele><time>2026-03-28T10:56:41.806Z</time></trkpt><trkpt lat="40.0998405" lon="9.5727048"><ele>766.0</ele><time>2026-03-28T10:56:42.809Z</time></trkpt><trkpt lat="40.0997796" lon="9.5726345"><ele>765.3333333333333</ele><time>2026-03-28T10:56:43.811Z</time></trkpt><trkpt lat="40.0997162" lon="9.5725656"><ele>764.6666666666666</ele><time>2026-03-28T10:56:44.801Z</time></trkpt><trkpt lat="40.099647" lon="9.5724907"><ele>764.0</ele><time>2026-03-28T10:56:45.812Z</time></trkpt><trkpt lat="40.0995763" lon="9.5724103"><ele>764.0</ele><time>2026-03-28T10:56:46.813Z</time></trkpt><trkpt lat="40.0994902" lon="9.5723215"><ele>764.0</ele><time>2026-03-28T10:56:47.8Z</time></trkpt><trkpt lat="40.0993964" lon="9.5722296"><ele>764.0</ele><time>2026-03-28T10:56:48.807Z</time></trkpt><trkpt lat="40.0992946" lon="9.5721366"><ele>764.0</ele><time>2026-03-28T10:56:49.811Z</time></trkpt><trkpt lat="40.0991831" lon="9.5720353"><ele>763.5</ele><time>2026-03-28T10:56:50.812Z</time></trkpt><trkpt lat="40.099074" lon="9.5719445"><ele>763.0</ele><time>2026-03-28T10:56:51.801Z</time></trkpt><trkpt lat="40.0989722" lon="9.5718772"><ele>762.5</ele><time>2026-03-28T10:56:52.801Z</time></trkpt><trkpt lat="40.0988742" lon="9.5718065"><ele>762.0</ele><time>2026-03-28T10:56:53.802Z</time></trkpt><trkpt lat="40.0987991" lon="9.5717101"><ele>762.0</ele><time>2026-03-28T10:56:54.808Z</time></trkpt><trkpt lat="40.0987312" lon="9.5715771"><ele>762.0</ele><time>2026-03-28T10:56:55.806Z</time></trkpt><trkpt lat="40.098671" lon="9.5714555"><ele>762.0</ele><time>2026-03-28T10:56:56.806Z</time></trkpt><trkpt lat="40.0985948" lon="9.5713466"><ele>762.0</ele><time>2026-03-28T10:56:57.803Z</time></trkpt><trkpt lat="40.0985114" lon="9.5712474"><ele>760.5</ele><time>2026-03-28T10:56:58.806Z</time></trkpt><trkpt lat="40.0984295" lon="9.571171"><ele>759.0</ele><time>2026-03-28T10:56:59.803Z</time></trkpt><trkpt lat="40.098366" lon="9.5710872"><ele>757.5</ele><time>2026-03-28T10:57:00.81Z</time></trkpt><trkpt lat="40.0983089" lon="9.5710007"><ele>756.0</ele><time>2026-03-28T10:57:01.8Z</time></trkpt><trkpt lat="40.0982478" lon="9.5709204"><ele>754.5</ele><time>2026-03-28T10:57:02.812Z</time></trkpt><trkpt lat="40.0981903" lon="9.5708502"><ele>753.0</ele><time>2026-03-28T10:57:03.809Z</time></trkpt><trkpt lat="40.0981071" lon="9.5708241"><ele>753.0</ele><time>2026-03-28T10:57:04.807Z</time></trkpt><trkpt lat="40.0980309" lon="9.5707989"><ele>753.0</ele><time>2026-03-28T10:57:05.811Z</time></trkpt><trkpt lat="40.0979653" lon="9.5707706"><ele>753.0</ele><time>2026-03-28T10:57:06.813Z</time></trkpt><trkpt lat="40.0978905" lon="9.5707521"><ele>753.0</ele><time>2026-03-28T10:57:07.807Z</time></trkpt><trkpt lat="40.0977808" lon="9.570726"><ele>753.0</ele><time>2026-03-28T10:57:09.813Z</time></trkpt><trkpt lat="40.0976974" lon="9.5706791"><ele>753.0</ele><time>2026-03-28T10:57:15.805Z</time></trkpt><trkpt lat="40.0976005" lon="9.5706854"><ele>753.0</ele><time>2026-03-28T10:57:17.811Z</time></trkpt><trkpt lat="40.0975228" lon="9.5707284"><ele>753.0</ele><time>2026-03-28T10:57:19.81Z</time></trkpt><trkpt lat="40.0974548" lon="9.5707642"><ele>753.0</ele><time>2026-03-28T10:57:21.814Z</time></trkpt><trkpt lat="40.0973941" lon="9.5709227"><ele>753.0</ele><time>2026-03-28T10:57:30.826Z</time></trkpt><trkpt lat="40.0974156" lon="9.5710341"><ele>753.0</ele><time>2026-03-28T10:58:25.81Z</time></trkpt><trkpt lat="40.0974011" lon="9.5711473"><ele>745.25</ele><time>2026-03-28T10:58:27.81Z</time></trkpt><trkpt lat="40.097368" lon="9.5712847"><ele>737.5</ele><time>2026-03-28T10:58:28.813Z</time></trkpt><trkpt lat="40.0973313" lon="9.5714426"><ele>729.75</ele><time>2026-03-28T10:58:29.809Z</time></trkpt><trkpt lat="40.0972958" lon="9.5715863"><ele>722.0</ele><time>2026-03-28T10:58:30.816Z</time></trkpt><trkpt lat="40.097258" lon="9.5717192"><ele>722.0</ele><time>2026-03-28T10:58:31.806Z</time></trkpt><trkpt lat="40.0972203" lon="9.5718358"><ele>722.0</ele><time>2026-03-28T10:58:32.803Z</time></trkpt><trkpt lat="40.0971899" lon="9.5719415"><ele>722.0</ele><time>2026-03-28T10:58:33.81Z</time></trkpt><trkpt lat="40.0971699" lon="9.5720408"><ele>722.0</ele><time>2026-03-28T10:58:34.808Z</time></trkpt><trkpt lat="40.0971759" lon="9.5721378"><ele>722.0</ele><time>2026-03-28T10:58:35.808Z</time></trkpt><trkpt lat="40.0972165" lon="9.57224"><ele>722.0</ele><time>2026-03-28T10:58:36.815Z</time></trkpt><trkpt lat="40.0972443" lon="9.5723474"><ele>721.1666666666666</ele><time>2026-03-28T10:58:37.806Z</time></trkpt><trkpt lat="40.0972563" lon="9.5724498"><ele>720.3333333333333</ele><time>2026-03-28T10:58:38.806Z</time></trkpt><trkpt lat="40.0972395" lon="9.5725535"><ele>719.5</ele><time>2026-03-28T10:58:39.808Z</time></trkpt><trkpt lat="40.0972028" lon="9.5726597"><ele>718.6666666666666</ele><time>2026-03-28T10:58:40.811Z</time></trkpt><trkpt lat="40.0971602" lon="9.572738"><ele>717.8333333333334</ele><time>2026-03-28T10:58:41.807Z</time></trkpt><trkpt lat="40.0971062" lon="9.572826"><ele>717.0</ele><time>2026-03-28T10:58:42.809Z</time></trkpt><trkpt lat="40.09703" lon="9.5728817"><ele>715.5</ele><time>2026-03-28T10:58:43.808Z</time></trkpt><trkpt lat="40.0969239" lon="9.5729367"><ele>714.0</ele><time>2026-03-28T10:58:44.81Z</time></trkpt><trkpt lat="40.0967958" lon="9.5729969"><ele>712.5</ele><time>2026-03-28T10:58:45.808Z</time></trkpt><trkpt lat="40.0966568" lon="9.5730856"><ele>711.0</ele><time>2026-03-28T10:58:46.808Z</time></trkpt><trkpt lat="40.0965099" lon="9.5731827"><ele>711.0</ele><time>2026-03-28T10:58:47.81Z</time></trkpt><trkpt lat="40.0963591" lon="9.573295"><ele>711.0</ele><time>2026-03-28T10:58:48.806Z</time></trkpt><trkpt lat="40.0962217" lon="9.573394"><ele>711.0</ele><time>2026-03-28T10:58:49.809Z</time></trkpt><trkpt lat="40.096089" lon="9.5734952"><ele>711.0</ele><time>2026-03-28T10:58:50.812Z</time></trkpt><trkpt lat="40.0959587" lon="9.5736027"><ele>711.0</ele><time>2026-03-28T10:58:51.806Z</time></trkpt><trkpt lat="40.0958284" lon="9.5737164"><ele>711.0</ele><time>2026-03-28T10:58:52.802Z</time></trkpt><trkpt lat="40.0957112" lon="9.5738212"><ele>709.25</ele><time>2026-03-28T10:58:53.814Z</time></trkpt><trkpt lat="40.09561" lon="9.5739046"><ele>707.5</ele><time>2026-03-28T10:58:54.812Z</time></trkpt><trkpt lat="40.0955208" lon="9.5740024"><ele>705.75</ele><time>2026-03-28T10:58:55.807Z</time></trkpt><trkpt lat="40.0954506" lon="9.5741387"><ele>704.0</ele><time>2026-03-28T10:58:56.804Z</time></trkpt><trkpt lat="40.09538" lon="9.5742739"><ele>704.0</ele><time>2026-03-28T10:58:57.807Z</time></trkpt><trkpt lat="40.0953332" lon="9.5743998"><ele>704.0</ele><time>2026-03-28T10:58:58.806Z</time></trkpt><trkpt lat="40.0952864" lon="9.5745129"><ele>704.0</ele><time>2026-03-28T10:58:59.808Z</time></trkpt><trkpt lat="40.095228" lon="9.5746006"><ele>704.0</ele><time>2026-03-28T10:59:00.81Z</time></trkpt><trkpt lat="40.0951615" lon="9.5746885"><ele>704.0</ele><time>2026-03-28T10:59:01.808Z</time></trkpt><trkpt lat="40.0950968" lon="9.5747701"><ele>702.8000000000001</ele><time>2026-03-28T10:59:02.808Z</time></trkpt><trkpt lat="40.0950355" lon="9.5748461"><ele>701.6</ele><time>2026-03-28T10:59:03.802Z</time></trkpt><trkpt lat="40.0949754" lon="9.5749121"><ele>700.4</ele><time>2026-03-28T10:59:04.801Z</time></trkpt><trkpt lat="40.0949089" lon="9.5749763"><ele>699.2</ele><time>2026-03-28T10:59:05.804Z</time></trkpt><trkpt lat="40.0948271" lon="9.575057"><ele>698.0</ele><time>2026-03-28T10:59:06.81Z</time></trkpt><trkpt lat="40.094735" lon="9.5751748"><ele>696.5</ele><time>2026-03-28T10:59:07.807Z</time></trkpt><trkpt lat="40.0946324" lon="9.5753042"><ele>695.0</ele><time>2026-03-28T10:59:08.807Z</time></trkpt><trkpt lat="40.0945256" lon="9.5754259"><ele>693.5</ele><time>2026-03-28T10:59:09.807Z</time></trkpt><trkpt lat="40.0944039" lon="9.5755214"><ele>692.0</ele><time>2026-03-28T10:59:10.811Z</time></trkpt><trkpt lat="40.0942807" lon="9.5756196"><ele>690.3333333333333</ele><time>2026-03-28T10:59:11.804Z</time></trkpt><trkpt lat="40.0941612" lon="9.5757441"><ele>688.6666666666666</ele><time>2026-03-28T10:59:12.804Z</time></trkpt><trkpt lat="40.0940466" lon="9.5758838"><ele>687.0</ele><time>2026-03-28T10:59:13.806Z</time></trkpt><trkpt lat="40.0939611" lon="9.5760462"><ele>689.75</ele><time>2026-03-28T10:59:14.809Z</time></trkpt><trkpt lat="40.0938552" lon="9.5761795"><ele>692.5</ele><time>2026-03-28T10:59:15.808Z</time></trkpt><trkpt lat="40.0937514" lon="9.5763135"><ele>695.25</ele><time>2026-03-28T10:59:16.812Z</time></trkpt><trkpt lat="40.0936677" lon="9.5764489"><ele>698.0</ele><time>2026-03-28T10:59:17.805Z</time></trkpt><trkpt lat="40.0935637" lon="9.5765665"><ele>698.0</ele><time>2026-03-28T10:59:18.807Z</time></trkpt><trkpt lat="40.093425" lon="9.57667"><ele>698.0</ele><time>2026-03-28T10:59:19.814Z</time></trkpt><trkpt lat="40.0932948" lon="9.5767804"><ele>698.0</ele><time>2026-03-28T10:59:20.808Z</time></trkpt><trkpt lat="40.0931665" lon="9.5769013"><ele>698.0</ele><time>2026-03-28T10:59:21.807Z</time></trkpt><trkpt lat="40.0929482" lon="9.5769763"><ele>698.0</ele><time>2026-03-28T10:59:22.811Z</time></trkpt><trkpt lat="40.0928072" lon="9.5770868"><ele>698.0</ele><time>2026-03-28T10:59:23.804Z</time></trkpt><trkpt lat="40.0927193" lon="9.5772133"><ele>698.0</ele><time>2026-03-28T10:59:24.803Z</time></trkpt><trkpt lat="40.0926522" lon="9.5773614"><ele>698.0</ele><time>2026-03-28T10:59:25.81Z</time></trkpt><trkpt lat="40.0925968" lon="9.5775073"><ele>698.0</ele><time>2026-03-28T10:59:26.809Z</time></trkpt><trkpt lat="40.0925064" lon="9.5776127"><ele>698.0</ele><time>2026-03-28T10:59:27.808Z</time></trkpt><trkpt lat="40.092395" lon="9.5776947"><ele>696.5</ele><time>2026-03-28T10:59:28.806Z</time></trkpt><trkpt lat="40.0922722" lon="9.5777939"><ele>695.0</ele><time>2026-03-28T10:59:29.801Z</time></trkpt><trkpt lat="40.0921467" lon="9.5778854"><ele>693.5</ele><time>2026-03-28T10:59:30.804Z</time></trkpt><trkpt lat="40.09201" lon="9.5779217"><ele>692.0</ele><time>2026-03-28T10:59:31.804Z</time></trkpt><trkpt lat="40.0918855" lon="9.5779334"><ele>689.8</ele><time>2026-03-28T10:59:32.807Z</time></trkpt><trkpt lat="40.0917526" lon="9.5779152"><ele>687.6</ele><time>2026-03-28T10:59:33.809Z</time></trkpt><trkpt lat="40.0916403" lon="9.5778922"><ele>685.4</ele><time>2026-03-28T10:59:34.809Z</time></trkpt><trkpt lat="40.091557" lon="9.5779172"><ele>683.1999999999999</ele><time>2026-03-28T10:59:35.803Z</time></trkpt><trkpt lat="40.0914521" lon="9.5779436"><ele>681.0</ele><time>2026-03-28T10:59:36.81Z</time></trkpt><trkpt lat="40.0913482" lon="9.5779875"><ele>681.0</ele><time>2026-03-28T10:59:37.808Z</time></trkpt><trkpt lat="40.0912398" lon="9.5780268"><ele>681.0</ele><time>2026-03-28T10:59:38.816Z</time></trkpt><trkpt lat="40.0911367" lon="9.5780828"><ele>681.0</ele><time>2026-03-28T10:59:39.808Z</time></trkpt><trkpt lat="40.0910495" lon="9.5781418"><ele>681.0</ele><time>2026-03-28T10:59:40.809Z</time></trkpt><trkpt lat="40.0909771" lon="9.5781724"><ele>681.0</ele><time>2026-03-28T10:59:41.801Z</time></trkpt><trkpt lat="40.090875" lon="9.5782039"><ele>681.25</ele><time>2026-03-28T10:59:42.806Z</time></trkpt><trkpt lat="40.0907509" lon="9.5782503"><ele>681.5</ele><time>2026-03-28T10:59:43.802Z</time></trkpt><trkpt lat="40.0906143" lon="9.5783297"><ele>681.75</ele><time>2026-03-28T10:59:44.807Z</time></trkpt><trkpt lat="40.090478" lon="9.5784261"><ele>682.0</ele><time>2026-03-28T10:59:45.808Z</time></trkpt><trkpt lat="40.0903371" lon="9.5785009"><ele>682.0</ele><time>2026-03-28T10:59:46.811Z</time></trkpt><trkpt lat="40.0902239" lon="9.5785798"><ele>682.0</ele><time>2026-03-28T10:59:47.814Z</time></trkpt><trkpt lat="40.09013" lon="9.5786585"><ele>682.0</ele><time>2026-03-28T10:59:48.812Z</time></trkpt><trkpt lat="40.0900481" lon="9.5787505"><ele>682.0</ele><time>2026-03-28T10:59:49.811Z</time></trkpt><trkpt lat="40.0900016" lon="9.5788552"><ele>682.0</ele><time>2026-03-28T10:59:50.81Z</time></trkpt><trkpt lat="40.0899469" lon="9.5789403"><ele>684.0</ele><time>2026-03-28T10:59:51.814Z</time></trkpt><trkpt lat="40.089865" lon="9.5790343"><ele>686.0</ele><time>2026-03-28T10:59:52.815Z</time></trkpt><trkpt lat="40.0897669" lon="9.579136"><ele>688.0</ele><time>2026-03-28T10:59:53.809Z</time></trkpt><trkpt lat="40.0896928" lon="9.5792405"><ele>690.0</ele><time>2026-03-28T10:59:54.807Z</time></trkpt><trkpt lat="40.0896199" lon="9.5793596"><ele>690.0</ele><time>2026-03-28T10:59:55.808Z</time></trkpt><trkpt lat="40.0895232" lon="9.5794752"><ele>690.0</ele><time>2026-03-28T10:59:56.803Z</time></trkpt><trkpt lat="40.0893987" lon="9.579578"><ele>690.0</ele><time>2026-03-28T10:59:57.805Z</time></trkpt><trkpt lat="40.0892635" lon="9.5796725"><ele>690.0</ele><time>2026-03-28T10:59:58.812Z</time></trkpt><trkpt lat="40.089166" lon="9.5797948"><ele>688.8</ele><time>2026-03-28T10:59:59.809Z</time></trkpt><trkpt lat="40.0890759" lon="9.579898"><ele>687.6</ele><time>2026-03-28T11:00:00.807Z</time></trkpt><trkpt lat="40.0889865" lon="9.5799583"><ele>686.4000000000001</ele><time>2026-03-28T11:00:01.806Z</time></trkpt><trkpt lat="40.0889199" lon="9.5799751"><ele>685.2</ele><time>2026-03-28T11:00:02.807Z</time></trkpt><trkpt lat="40.088828" lon="9.5800142"><ele>684.0</ele><time>2026-03-28T11:00:03.804Z</time></trkpt><trkpt lat="40.0887113" lon="9.5800299"><ele>684.0</ele><time>2026-03-28T11:00:04.805Z</time></trkpt><trkpt lat="40.088603" lon="9.5800651"><ele>684.0</ele><time>2026-03-28T11:00:05.797Z</time></trkpt><trkpt lat="40.088505" lon="9.58011"><ele>684.0</ele><time>2026-03-28T11:00:06.805Z</time></trkpt><trkpt lat="40.0884023" lon="9.5801289"><ele>684.0</ele><time>2026-03-28T11:00:07.802Z</time></trkpt><trkpt lat="40.0882987" lon="9.5801407"><ele>684.0</ele><time>2026-03-28T11:00:08.801Z</time></trkpt><trkpt lat="40.0881946" lon="9.5801707"><ele>680.25</ele><time>2026-03-28T11:00:09.809Z</time></trkpt><trkpt lat="40.0880924" lon="9.5802207"><ele>676.5</ele><time>2026-03-28T11:00:10.801Z</time></trkpt><trkpt lat="40.0879838" lon="9.5802597"><ele>672.75</ele><time>2026-03-28T11:00:11.805Z</time></trkpt><trkpt lat="40.0878703" lon="9.5803108"><ele>669.0</ele><time>2026-03-28T11:00:12.812Z</time></trkpt><trkpt lat="40.0877414" lon="9.5803197"><ele>669.0</ele><time>2026-03-28T11:00:13.807Z</time></trkpt><trkpt lat="40.0876079" lon="9.580319"><ele>669.0</ele><time>2026-03-28T11:00:14.802Z</time></trkpt><trkpt lat="40.0875013" lon="9.5803149"><ele>669.0</ele><time>2026-03-28T11:00:15.809Z</time></trkpt><trkpt lat="40.0874279" lon="9.5803005"><ele>669.0</ele><time>2026-03-28T11:00:16.798Z</time></trkpt><trkpt lat="40.0873446" lon="9.5802428"><ele>669.0</ele><time>2026-03-28T11:00:18.812Z</time></trkpt><trkpt lat="40.0872868" lon="9.5801414"><ele>666.6666666666666</ele><time>2026-03-28T11:00:20.808Z</time></trkpt><trkpt lat="40.0872853" lon="9.580023"><ele>664.3333333333334</ele><time>2026-03-28T11:00:22.81Z</time></trkpt><trkpt lat="40.0873337" lon="9.5799458"><ele>662.0</ele><time>2026-03-28T11:00:23.817Z</time></trkpt><trkpt lat="40.087361" lon="9.5798345"><ele>659.6666666666667</ele><time>2026-03-28T11:00:24.828Z</time></trkpt><trkpt lat="40.0873863" lon="9.5797152"><ele>657.3333333333334</ele><time>2026-03-28T11:00:25.803Z</time></trkpt><trkpt lat="40.0873942" lon="9.5795875"><ele>655.0</ele><time>2026-03-28T11:00:26.808Z</time></trkpt><trkpt lat="40.0874015" lon="9.5794703"><ele>655.6666666666667</ele><time>2026-03-28T11:00:27.807Z</time></trkpt><trkpt lat="40.0874089" lon="9.5793745"><ele>656.3333333333334</ele><time>2026-03-28T11:00:28.807Z</time></trkpt><trkpt lat="40.087442" lon="9.5792118"><ele>657.0</ele><time>2026-03-28T11:00:30.808Z</time></trkpt><trkpt lat="40.0874604" lon="9.5791282"><ele>657.6666666666666</ele><time>2026-03-28T11:00:31.807Z</time></trkpt><trkpt lat="40.0874757" lon="9.5790451"><ele>658.3333333333333</ele><time>2026-03-28T11:00:32.81Z</time></trkpt><trkpt lat="40.0875085" lon="9.5789545"><ele>659.0</ele><time>2026-03-28T11:00:33.81Z</time></trkpt><trkpt lat="40.0875454" lon="9.5788834"><ele>659.0</ele><time>2026-03-28T11:00:34.809Z</time></trkpt><trkpt lat="40.0876055" lon="9.5787856"><ele>659.0</ele><time>2026-03-28T11:00:36.803Z</time></trkpt><trkpt lat="40.0875316" lon="9.5787374"><ele>659.0</ele><time>2026-03-28T11:00:41.803Z</time></trkpt><trkpt lat="40.0874762" lon="9.5787817"><ele>659.0</ele><time>2026-03-28T11:00:42.806Z</time></trkpt><trkpt lat="40.0874033" lon="9.5788374"><ele>659.0</ele><time>2026-03-28T11:00:43.806Z</time></trkpt><trkpt lat="40.0873396" lon="9.5788809"><ele>659.0</ele><time>2026-03-28T11:00:44.814Z</time></trkpt><trkpt lat="40.0872798" lon="9.5789297"><ele>654.1666666666666</ele><time>2026-03-28T11:00:45.801Z</time></trkpt><trkpt lat="40.0872273" lon="9.5789926"><ele>649.3333333333333</ele><time>2026-03-28T11:00:46.803Z</time></trkpt><trkpt lat="40.0871909" lon="9.579092"><ele>644.5</ele><time>2026-03-28T11:00:47.804Z</time></trkpt><trkpt lat="40.0871465" lon="9.5791826"><ele>639.6666666666666</ele><time>2026-03-28T11:00:48.807Z</time></trkpt><trkpt lat="40.0870875" lon="9.5792726"><ele>634.8333333333334</ele><time>2026-03-28T11:00:49.802Z</time></trkpt><trkpt lat="40.0870307" lon="9.5793552"><ele>630.0</ele><time>2026-03-28T11:00:50.802Z</time></trkpt><trkpt lat="40.0869756" lon="9.5794339"><ele>630.0</ele><time>2026-03-28T11:00:51.804Z</time></trkpt><trkpt lat="40.0869193" lon="9.5794866"><ele>630.0</ele><time>2026-03-28T11:00:52.801Z</time></trkpt><trkpt lat="40.0868434" lon="9.5795214"><ele>630.0</ele><time>2026-03-28T11:00:53.804Z</time></trkpt><trkpt lat="40.0867375" lon="9.5795339"><ele>630.0</ele><time>2026-03-28T11:00:54.802Z</time></trkpt><trkpt lat="40.0866084" lon="9.579531"><ele>630.0</ele><time>2026-03-28T11:00:55.801Z</time></trkpt><trkpt lat="40.0865038" lon="9.5795302"><ele>633.2</ele><time>2026-03-28T11:00:56.804Z</time></trkpt><trkpt lat="40.0863982" lon="9.5795318"><ele>636.4</ele><time>2026-03-28T11:00:57.802Z</time></trkpt><trkpt lat="40.0863063" lon="9.5795661"><ele>639.5999999999999</ele><time>2026-03-28T11:00:58.805Z</time></trkpt><trkpt lat="40.086208" lon="9.5796182"><ele>642.8</ele><time>2026-03-28T11:00:59.801Z</time></trkpt><trkpt lat="40.0860839" lon="9.5796598"><ele>646.0</ele><time>2026-03-28T11:01:00.804Z</time></trkpt><trkpt lat="40.0859502" lon="9.5796865"><ele>646.0</ele><time>2026-03-28T11:01:01.799Z</time></trkpt><trkpt lat="40.0858206" lon="9.5797262"><ele>646.0</ele><time>2026-03-28T11:01:02.801Z</time></trkpt><trkpt lat="40.0857009" lon="9.5797754"><ele>646.0</ele><time>2026-03-28T11:01:03.8Z</time></trkpt><trkpt lat="40.0855905" lon="9.5798251"><ele>646.0</ele><time>2026-03-28T11:01:04.804Z</time></trkpt><trkpt lat="40.0854859" lon="9.5798795"><ele>641.0</ele><time>2026-03-28T11:01:05.807Z</time></trkpt><trkpt lat="40.0853891" lon="9.5799381"><ele>636.0</ele><time>2026-03-28T11:01:06.809Z</time></trkpt><trkpt lat="40.0853075" lon="9.5799859"><ele>631.0</ele><time>2026-03-28T11:01:07.808Z</time></trkpt><trkpt lat="40.0852375" lon="9.5800538"><ele>626.0</ele><time>2026-03-28T11:01:08.804Z</time></trkpt><trkpt lat="40.0852064" lon="9.58013"><ele>621.0</ele><time>2026-03-28T11:01:09.8Z</time></trkpt><trkpt lat="40.0851837" lon="9.580236"><ele>616.0</ele><time>2026-03-28T11:01:10.8Z</time></trkpt><trkpt lat="40.0851818" lon="9.5803566"><ele>615.5</ele><time>2026-03-28T11:01:11.8Z</time></trkpt><trkpt lat="40.0851957" lon="9.5804837"><ele>615.0</ele><time>2026-03-28T11:01:12.808Z</time></trkpt><trkpt lat="40.0852288" lon="9.5806095"><ele>614.5</ele><time>2026-03-28T11:01:13.804Z</time></trkpt><trkpt lat="40.0852691" lon="9.5807081"><ele>614.0</ele><time>2026-03-28T11:01:14.805Z</time></trkpt><trkpt lat="40.0853112" lon="9.5807855"><ele>613.5</ele><time>2026-03-28T11:01:15.8Z</time></trkpt><trkpt lat="40.0853511" lon="9.5808661"><ele>613.0</ele><time>2026-03-28T11:01:16.804Z</time></trkpt><trkpt lat="40.0853816" lon="9.5809523"><ele>613.0</ele><time>2026-03-28T11:01:17.803Z</time></trkpt><trkpt lat="40.0853771" lon="9.5811259"><ele>613.0</ele><time>2026-03-28T11:01:19.803Z</time></trkpt><trkpt lat="40.0853388" lon="9.5812084"><ele>613.0</ele><time>2026-03-28T11:01:20.806Z</time></trkpt><trkpt lat="40.0852863" lon="9.5813011"><ele>613.0</ele><time>2026-03-28T11:01:21.811Z</time></trkpt><trkpt lat="40.085228" lon="9.581399"><ele>613.0</ele><time>2026-03-28T11:01:22.801Z</time></trkpt><trkpt lat="40.0851867" lon="9.5815051"><ele>613.5</ele><time>2026-03-28T11:01:23.806Z</time></trkpt><trkpt lat="40.0851455" lon="9.5816146"><ele>614.0</ele><time>2026-03-28T11:01:24.8Z</time></trkpt><trkpt lat="40.0851171" lon="9.581706"><ele>614.5</ele><time>2026-03-28T11:01:25.809Z</time></trkpt><trkpt lat="40.0850844" lon="9.5818067"><ele>615.0</ele><time>2026-03-28T11:01:26.807Z</time></trkpt><trkpt lat="40.0850532" lon="9.5819018"><ele>615.5</ele><time>2026-03-28T11:01:27.802Z</time></trkpt><trkpt lat="40.0850118" lon="9.5819756"><ele>616.0</ele><time>2026-03-28T11:01:28.809Z</time></trkpt><trkpt lat="40.0849386" lon="9.5820796"><ele>615.1666666666667</ele><time>2026-03-28T11:01:30.821Z</time></trkpt><trkpt lat="40.0849178" lon="9.5821693"><ele>614.3333333333334</ele><time>2026-03-28T11:01:32.813Z</time></trkpt><trkpt lat="40.0849987" lon="9.5822599"><ele>613.5</ele><time>2026-03-28T11:01:34.809Z</time></trkpt><trkpt lat="40.0850736" lon="9.5823105"><ele>612.6666666666666</ele><time>2026-03-28T11:01:35.807Z</time></trkpt><trkpt lat="40.0851429" lon="9.5823593"><ele>611.8333333333333</ele><time>2026-03-28T11:01:36.818Z</time></trkpt><trkpt lat="40.085199" lon="9.5824058"><ele>611.0</ele><time>2026-03-28T11:01:37.805Z</time></trkpt><trkpt lat="40.0852584" lon="9.5824503"><ele>610.1666666666666</ele><time>2026-03-28T11:01:38.81Z</time></trkpt><trkpt lat="40.0853222" lon="9.5824732"><ele>609.3333333333333</ele><time>2026-03-28T11:01:39.805Z</time></trkpt><trkpt lat="40.0853856" lon="9.5824756"><ele>608.5</ele><time>2026-03-28T11:01:40.801Z</time></trkpt><trkpt lat="40.0854519" lon="9.5824826"><ele>607.6666666666666</ele><time>2026-03-28T11:01:41.798Z</time></trkpt><trkpt lat="40.0855767" lon="9.5825135"><ele>606.8333333333334</ele><time>2026-03-28T11:01:43.802Z</time></trkpt><trkpt lat="40.0856434" lon="9.582532"><ele>606.0</ele><time>2026-03-28T11:01:44.801Z</time></trkpt><trkpt lat="40.0857072" lon="9.5825559"><ele>607.1666666666666</ele><time>2026-03-28T11:01:45.803Z</time></trkpt><trkpt lat="40.0857694" lon="9.582583"><ele>608.3333333333334</ele><time>2026-03-28T11:01:46.8Z</time></trkpt><trkpt lat="40.0858338" lon="9.5826346"><ele>609.5</ele><time>2026-03-28T11:01:47.802Z</time></trkpt><trkpt lat="40.0858994" lon="9.5826978"><ele>610.6666666666667</ele><time>2026-03-28T11:01:48.801Z</time></trkpt><trkpt lat="40.0859625" lon="9.5827622"><ele>611.8333333333334</ele><time>2026-03-28T11:01:49.801Z</time></trkpt><trkpt lat="40.0860258" lon="9.5828294"><ele>613.0</ele><time>2026-03-28T11:01:50.805Z</time></trkpt><trkpt lat="40.0860914" lon="9.5828898"><ele>605.6</ele><time>2026-03-28T11:01:51.807Z</time></trkpt><trkpt lat="40.0861654" lon="9.5829544"><ele>598.1999999999999</ele><time>2026-03-28T11:01:52.808Z</time></trkpt><trkpt lat="40.086247" lon="9.5830213"><ele>590.8</ele><time>2026-03-28T11:01:53.802Z</time></trkpt><trkpt lat="40.0863202" lon="9.5830857"><ele>583.4</ele><time>2026-03-28T11:01:54.802Z</time></trkpt><trkpt lat="40.0863998" lon="9.5831412"><ele>576.0</ele><time>2026-03-28T11:01:55.811Z</time></trkpt><trkpt lat="40.0864806" lon="9.5831878"><ele>576.0</ele><time>2026-03-28T11:01:56.807Z</time></trkpt><trkpt lat="40.086557" lon="9.5832236"><ele>576.0</ele><time>2026-03-28T11:01:57.799Z</time></trkpt><trkpt lat="40.0866243" lon="9.5832567"><ele>576.0</ele><time>2026-03-28T11:01:58.803Z</time></trkpt><trkpt lat="40.0866898" lon="9.5832868"><ele>576.0</ele><time>2026-03-28T11:01:59.806Z</time></trkpt><trkpt lat="40.0867635" lon="9.5833215"><ele>576.0</ele><time>2026-03-28T11:02:00.801Z</time></trkpt><trkpt lat="40.0868416" lon="9.5833598"><ele>576.0</ele><time>2026-03-28T11:02:01.8Z</time></trkpt><trkpt lat="40.086918" lon="9.5833945"><ele>577.4285714285714</ele><time>2026-03-28T11:02:02.801Z</time></trkpt><trkpt lat="40.0869924" lon="9.5834137"><ele>578.8571428571429</ele><time>2026-03-28T11:02:03.803Z</time></trkpt><trkpt lat="40.0870697" lon="9.5834076"><ele>580.2857142857142</ele><time>2026-03-28T11:02:04.802Z</time></trkpt><trkpt lat="40.0871374" lon="9.5833953"><ele>581.7142857142858</ele><time>2026-03-28T11:02:05.807Z</time></trkpt><trkpt lat="40.0872" lon="9.5833423"><ele>583.1428571428571</ele><time>2026-03-28T11:02:06.801Z</time></trkpt><trkpt lat="40.0872581" lon="9.5832796"><ele>584.5714285714286</ele><time>2026-03-28T11:02:07.802Z</time></trkpt><trkpt lat="40.0873098" lon="9.5832195"><ele>586.0</ele><time>2026-03-28T11:02:08.806Z</time></trkpt><trkpt lat="40.087388" lon="9.5831102"><ele>583.8571428571428</ele><time>2026-03-28T11:02:10.803Z</time></trkpt><trkpt lat="40.0874706" lon="9.5830717"><ele>581.7142857142857</ele><time>2026-03-28T11:02:12.804Z</time></trkpt><trkpt lat="40.0875374" lon="9.583099"><ele>579.5714285714286</ele><time>2026-03-28T11:02:13.808Z</time></trkpt><trkpt lat="40.0876113" lon="9.5831285"><ele>577.4285714285713</ele><time>2026-03-28T11:02:14.806Z</time></trkpt><trkpt lat="40.0876752" lon="9.5831578"><ele>575.2857142857142</ele><time>2026-03-28T11:02:15.8Z</time></trkpt><trkpt lat="40.0877478" lon="9.5831616"><ele>573.1428571428571</ele><time>2026-03-28T11:02:16.803Z</time></trkpt><trkpt lat="40.0878145" lon="9.5831672"><ele>571.0</ele><time>2026-03-28T11:02:17.801Z</time></trkpt><trkpt lat="40.0878826" lon="9.5831641"><ele>571.0</ele><time>2026-03-28T11:02:18.8Z</time></trkpt><trkpt lat="40.0879503" lon="9.5831592"><ele>571.0</ele><time>2026-03-28T11:02:19.803Z</time></trkpt><trkpt lat="40.0880137" lon="9.5831575"><ele>571.0</ele><time>2026-03-28T11:02:20.803Z</time></trkpt><trkpt lat="40.0881307" lon="9.5831637"><ele>571.0</ele><time>2026-03-28T11:02:22.807Z</time></trkpt><trkpt lat="40.0881936" lon="9.583179"><ele>571.0</ele><time>2026-03-28T11:02:23.813Z</time></trkpt><trkpt lat="40.0882597" lon="9.5832016"><ele>571.0</ele><time>2026-03-28T11:02:24.8Z</time></trkpt><trkpt lat="40.0883245" lon="9.5832217"><ele>571.0</ele><time>2026-03-28T11:02:25.811Z</time></trkpt><trkpt lat="40.0883868" lon="9.5832503"><ele>568.5</ele><time>2026-03-28T11:02:26.801Z</time></trkpt><trkpt lat="40.0884453" lon="9.5833039"><ele>566.0</ele><time>2026-03-28T11:02:27.81Z</time></trkpt><trkpt lat="40.0885056" lon="9.5833642"><ele>563.5</ele><time>2026-03-28T11:02:28.802Z</time></trkpt><trkpt lat="40.0885728" lon="9.5834289"><ele>561.0</ele><time>2026-03-28T11:02:29.806Z</time></trkpt><trkpt lat="40.088646" lon="9.5834596"><ele>558.5</ele><time>2026-03-28T11:02:30.81Z</time></trkpt><trkpt lat="40.0887172" lon="9.5834829"><ele>556.0</ele><time>2026-03-28T11:02:31.808Z</time></trkpt><trkpt lat="40.0888042" lon="9.5835055"><ele>556.0</ele><time>2026-03-28T11:02:32.806Z</time></trkpt><trkpt lat="40.0888872" lon="9.5835297"><ele>556.0</ele><time>2026-03-28T11:02:33.808Z</time></trkpt><trkpt lat="40.08896" lon="9.5835461"><ele>556.0</ele><time>2026-03-28T11:02:34.808Z</time></trkpt><trkpt lat="40.0890288" lon="9.5835548"><ele>556.0</ele><time>2026-03-28T11:02:35.807Z</time></trkpt><trkpt lat="40.0891018" lon="9.5835335"><ele>556.0</ele><time>2026-03-28T11:02:36.805Z</time></trkpt><trkpt lat="40.0891686" lon="9.5834906"><ele>556.0</ele><time>2026-03-28T11:02:37.806Z</time></trkpt><trkpt lat="40.0892236" lon="9.5834178"><ele>554.6666666666667</ele><time>2026-03-28T11:02:38.807Z</time></trkpt><trkpt lat="40.0892768" lon="9.5833478"><ele>553.3333333333334</ele><time>2026-03-28T11:02:39.799Z</time></trkpt><trkpt lat="40.0893018" lon="9.5832231"><ele>552.0</ele><time>2026-03-28T11:02:40.807Z</time></trkpt><trkpt lat="40.0893211" lon="9.5831124"><ele>550.6666666666666</ele><time>2026-03-28T11:02:41.801Z</time></trkpt><trkpt lat="40.0893411" lon="9.5830246"><ele>549.3333333333333</ele><time>2026-03-28T11:02:42.801Z</time></trkpt><trkpt lat="40.0894109" lon="9.582913"><ele>548.0</ele><time>2026-03-28T11:02:44.806Z</time></trkpt><trkpt lat="40.0894786" lon="9.5828918"><ele>548.0</ele><time>2026-03-28T11:02:45.8Z</time></trkpt><trkpt lat="40.0895526" lon="9.5828882"><ele>548.0</ele><time>2026-03-28T11:02:46.805Z</time></trkpt><trkpt lat="40.0896315" lon="9.5828782"><ele>548.0</ele><time>2026-03-28T11:02:47.81Z</time></trkpt><trkpt lat="40.0897012" lon="9.5828655"><ele>548.0</ele><time>2026-03-28T11:02:48.8Z</time></trkpt><trkpt lat="40.0898145" lon="9.5827862"><ele>548.0</ele><time>2026-03-28T11:02:50.802Z</time></trkpt><trkpt lat="40.0898763" lon="9.5827383"><ele>548.0</ele><time>2026-03-28T11:02:51.808Z</time></trkpt><trkpt lat="40.0899398" lon="9.5826926"><ele>547.8</ele><time>2026-03-28T11:02:52.806Z</time></trkpt><trkpt lat="40.0899973" lon="9.5826346"><ele>547.5999999999999</ele><time>2026-03-28T11:02:53.807Z</time></trkpt><trkpt lat="40.090052" lon="9.5825885"><ele>547.4000000000001</ele><time>2026-03-28T11:02:54.808Z</time></trkpt><trkpt lat="40.0901347" lon="9.5825448"><ele>547.2</ele><time>2026-03-28T11:02:56.806Z</time></trkpt><trkpt lat="40.0902334" lon="9.5826358"><ele>547.0</ele><time>2026-03-28T11:02:58.807Z</time></trkpt><trkpt lat="40.0903246" lon="9.5827414"><ele>547.0</ele><time>2026-03-28T11:03:00.811Z</time></trkpt><trkpt lat="40.0903853" lon="9.5827997"><ele>547.0</ele><time>2026-03-28T11:03:01.807Z</time></trkpt><trkpt lat="40.0904568" lon="9.5828683"><ele>547.0</ele><time>2026-03-28T11:03:02.804Z</time></trkpt><trkpt lat="40.0905261" lon="9.5829331"><ele>547.0</ele><time>2026-03-28T11:03:03.804Z</time></trkpt><trkpt lat="40.0905944" lon="9.5829826"><ele>547.0</ele><time>2026-03-28T11:03:04.805Z</time></trkpt><trkpt lat="40.0906686" lon="9.5830244"><ele>547.0</ele><time>2026-03-28T11:03:05.806Z</time></trkpt><trkpt lat="40.0907533" lon="9.5830678"><ele>541.5</ele><time>2026-03-28T11:03:06.807Z</time></trkpt><trkpt lat="40.0908399" lon="9.5830911"><ele>536.0</ele><time>2026-03-28T11:03:07.808Z</time></trkpt><trkpt lat="40.0909257" lon="9.5830987"><ele>530.5</ele><time>2026-03-28T11:03:08.804Z</time></trkpt><trkpt lat="40.0910102" lon="9.5830959"><ele>525.0</ele><time>2026-03-28T11:03:09.808Z</time></trkpt><trkpt lat="40.0910895" lon="9.583085"><ele>519.5</ele><time>2026-03-28T11:03:10.805Z</time></trkpt><trkpt lat="40.0911631" lon="9.5830751"><ele>514.0</ele><time>2026-03-28T11:03:11.806Z</time></trkpt><trkpt lat="40.0912878" lon="9.5830997"><ele>514.0</ele><time>2026-03-28T11:03:13.804Z</time></trkpt><trkpt lat="40.0913586" lon="9.5831375"><ele>514.0</ele><time>2026-03-28T11:03:14.8Z</time></trkpt><trkpt lat="40.0914296" lon="9.5831754"><ele>514.0</ele><time>2026-03-28T11:03:15.808Z</time></trkpt><trkpt lat="40.0915037" lon="9.5831955"><ele>514.0</ele><time>2026-03-28T11:03:16.803Z</time></trkpt><trkpt lat="40.0915732" lon="9.5832239"><ele>514.0</ele><time>2026-03-28T11:03:17.8Z</time></trkpt><trkpt lat="40.0916399" lon="9.5832249"><ele>514.0</ele><time>2026-03-28T11:03:18.803Z</time></trkpt><trkpt lat="40.0917098" lon="9.5832139"><ele>514.0</ele><time>2026-03-28T11:03:19.805Z</time></trkpt><trkpt lat="40.0917931" lon="9.5831787"><ele>514.0</ele><time>2026-03-28T11:03:20.806Z</time></trkpt><trkpt lat="40.09187" lon="9.5831462"><ele>514.0</ele><time>2026-03-28T11:03:21.807Z</time></trkpt><trkpt lat="40.0919331" lon="9.5831225"><ele>514.0</ele><time>2026-03-28T11:03:22.812Z</time></trkpt><trkpt lat="40.0919922" lon="9.5830697"><ele>514.0</ele><time>2026-03-28T11:03:23.804Z</time></trkpt><trkpt lat="40.09204" lon="9.5830066"><ele>514.0</ele><time>2026-03-28T11:03:24.809Z</time></trkpt><trkpt lat="40.0921342" lon="9.582895"><ele>514.0</ele><time>2026-03-28T11:03:26.807Z</time></trkpt><trkpt lat="40.0922652" lon="9.5828674"><ele>514.0</ele><time>2026-03-28T11:03:28.814Z</time></trkpt><trkpt lat="40.092352" lon="9.5828525"><ele>514.0</ele><time>2026-03-28T11:03:29.808Z</time></trkpt><trkpt lat="40.0924314" lon="9.5828333"><ele>514.0</ele><time>2026-03-28T11:03:30.809Z</time></trkpt><trkpt lat="40.0925091" lon="9.5828042"><ele>514.0</ele><time>2026-03-28T11:03:31.805Z</time></trkpt><trkpt lat="40.0925844" lon="9.5827614"><ele>514.0</ele><time>2026-03-28T11:03:32.807Z</time></trkpt><trkpt lat="40.0926634" lon="9.5827221"><ele>514.0</ele><time>2026-03-28T11:03:33.81Z</time></trkpt><trkpt lat="40.0927313" lon="9.582681"><ele>515.3333333333334</ele><time>2026-03-28T11:03:34.804Z</time></trkpt><trkpt lat="40.0927821" lon="9.5826178"><ele>516.6666666666667</ele><time>2026-03-28T11:03:35.81Z</time></trkpt><trkpt lat="40.0928135" lon="9.5825315"><ele>518.0</ele><time>2026-03-28T11:03:36.806Z</time></trkpt><trkpt lat="40.09284" lon="9.5824458"><ele>519.3333333333334</ele><time>2026-03-28T11:03:37.807Z</time></trkpt><trkpt lat="40.0928791" lon="9.5823411"><ele>520.6666666666666</ele><time>2026-03-28T11:03:39.799Z</time></trkpt><trkpt lat="40.0929747" lon="9.5823317"><ele>522.0</ele><time>2026-03-28T11:03:41.815Z</time></trkpt><trkpt lat="40.0930384" lon="9.5823515"><ele>522.0</ele><time>2026-03-28T11:03:42.809Z</time></trkpt><trkpt lat="40.0931025" lon="9.5823608"><ele>522.0</ele><time>2026-03-28T11:03:43.803Z</time></trkpt><trkpt lat="40.0931751" lon="9.5823324"><ele>522.0</ele><time>2026-03-28T11:03:44.81Z</time></trkpt><trkpt lat="40.0932479" lon="9.5822985"><ele>522.0</ele><time>2026-03-28T11:03:45.801Z</time></trkpt><trkpt lat="40.0933245" lon="9.5822445"><ele>522.0</ele><time>2026-03-28T11:03:46.806Z</time></trkpt><trkpt lat="40.0933955" lon="9.5821529"><ele>522.0</ele><time>2026-03-28T11:03:47.804Z</time></trkpt><trkpt lat="40.093455" lon="9.5820547"><ele>521.6</ele><time>2026-03-28T11:03:48.801Z</time></trkpt><trkpt lat="40.0935167" lon="9.581985"><ele>521.2</ele><time>2026-03-28T11:03:49.804Z</time></trkpt><trkpt lat="40.093569" lon="9.5819307"><ele>520.8</ele><time>2026-03-28T11:03:50.808Z</time></trkpt><trkpt lat="40.0936574" lon="9.5818735"><ele>520.4</ele><time>2026-03-28T11:03:52.808Z</time></trkpt><trkpt lat="40.0937462" lon="9.5819051"><ele>520.0</ele><time>2026-03-28T11:03:55.805Z</time></trkpt><trkpt lat="40.0937868" lon="9.582061"><ele>515.2</ele><time>2026-03-28T11:03:57.806Z</time></trkpt><trkpt lat="40.0938074" lon="9.5821755"><ele>510.4</ele><time>2026-03-28T11:03:58.809Z</time></trkpt><trkpt lat="40.0938662" lon="9.5822653"><ele>505.6</ele><time>2026-03-28T11:03:59.808Z</time></trkpt><trkpt lat="40.0939278" lon="9.5823733"><ele>500.8</ele><time>2026-03-28T11:04:00.805Z</time></trkpt><trkpt lat="40.0939961" lon="9.5824857"><ele>496.0</ele><time>2026-03-28T11:04:01.81Z</time></trkpt><trkpt lat="40.0940672" lon="9.5825981"><ele>494.5</ele><time>2026-03-28T11:04:02.804Z</time></trkpt><trkpt lat="40.0941422" lon="9.5826947"><ele>493.0</ele><time>2026-03-28T11:04:03.804Z</time></trkpt><trkpt lat="40.0942219" lon="9.5827872"><ele>491.5</ele><time>2026-03-28T11:04:04.803Z</time></trkpt><trkpt lat="40.0943095" lon="9.5828883"><ele>490.0</ele><time>2026-03-28T11:04:05.799Z</time></trkpt><trkpt lat="40.0944082" lon="9.5829931"><ele>490.0</ele><time>2026-03-28T11:04:06.808Z</time></trkpt><trkpt lat="40.0945115" lon="9.5830863"><ele>490.0</ele><time>2026-03-28T11:04:07.804Z</time></trkpt><trkpt lat="40.0946201" lon="9.5831714"><ele>490.0</ele><time>2026-03-28T11:04:08.805Z</time></trkpt><trkpt lat="40.0947236" lon="9.5832541"><ele>490.0</ele><time>2026-03-28T11:04:09.809Z</time></trkpt><trkpt lat="40.0948196" lon="9.5833269"><ele>490.0</ele><time>2026-03-28T11:04:10.801Z</time></trkpt><trkpt lat="40.0949133" lon="9.5833886"><ele>490.0</ele><time>2026-03-28T11:04:11.807Z</time></trkpt><trkpt lat="40.0949961" lon="9.5834503"><ele>490.0</ele><time>2026-03-28T11:04:12.804Z</time></trkpt><trkpt lat="40.0950665" lon="9.583513"><ele>490.0</ele><time>2026-03-28T11:04:13.808Z</time></trkpt><trkpt lat="40.0951239" lon="9.5835616"><ele>490.0</ele><time>2026-03-28T11:04:14.803Z</time></trkpt><trkpt lat="40.095234" lon="9.5835515"><ele>495.25</ele><time>2026-03-28T11:04:16.802Z</time></trkpt><trkpt lat="40.0953135" lon="9.5835036"><ele>500.5</ele><time>2026-03-28T11:04:17.806Z</time></trkpt><trkpt lat="40.0954028" lon="9.5834187"><ele>505.75</ele><time>2026-03-28T11:04:18.801Z</time></trkpt><trkpt lat="40.0955101" lon="9.5833132"><ele>511.0</ele><time>2026-03-28T11:04:19.804Z</time></trkpt><trkpt lat="40.0956273" lon="9.5832046"><ele>511.0</ele><time>2026-03-28T11:04:20.803Z</time></trkpt><trkpt lat="40.0957401" lon="9.5831022"><ele>511.0</ele><time>2026-03-28T11:04:21.801Z</time></trkpt><trkpt lat="40.0958395" lon="9.5830158"><ele>511.0</ele><time>2026-03-28T11:04:22.804Z</time></trkpt><trkpt lat="40.0959358" lon="9.5829465"><ele>511.0</ele><time>2026-03-28T11:04:23.802Z</time></trkpt><trkpt lat="40.0960419" lon="9.5828846"><ele>515.0</ele><time>2026-03-28T11:04:24.803Z</time></trkpt><trkpt lat="40.0961477" lon="9.5828242"><ele>519.0</ele><time>2026-03-28T11:04:25.806Z</time></trkpt><trkpt lat="40.096237" lon="9.5827505"><ele>523.0</ele><time>2026-03-28T11:04:26.809Z</time></trkpt><trkpt lat="40.0963125" lon="9.5826858"><ele>527.0</ele><time>2026-03-28T11:04:27.811Z</time></trkpt><trkpt lat="40.0963864" lon="9.5826463"><ele>531.0</ele><time>2026-03-28T11:04:28.804Z</time></trkpt><trkpt lat="40.0964808" lon="9.5826299"><ele>528.75</ele><time>2026-03-28T11:04:29.807Z</time></trkpt><trkpt lat="40.0965983" lon="9.5826183"><ele>526.5</ele><time>2026-03-28T11:04:30.802Z</time></trkpt><trkpt lat="40.0967245" lon="9.5825952"><ele>524.25</ele><time>2026-03-28T11:04:31.81Z</time></trkpt><trkpt lat="40.0968379" lon="9.58257"><ele>522.0</ele><time>2026-03-28T11:04:32.805Z</time></trkpt><trkpt lat="40.0969468" lon="9.5825558"><ele>522.0</ele><time>2026-03-28T11:04:33.806Z</time></trkpt><trkpt lat="40.0970408" lon="9.5825375"><ele>522.0</ele><time>2026-03-28T11:04:34.805Z</time></trkpt><trkpt lat="40.0971149" lon="9.5825132"><ele>522.0</ele><time>2026-03-28T11:04:35.804Z</time></trkpt><trkpt lat="40.0971763" lon="9.5824924"><ele>522.0</ele><time>2026-03-28T11:04:36.815Z</time></trkpt><trkpt lat="40.0972536" lon="9.5825698"><ele>522.0</ele><time>2026-03-28T11:04:39.81Z</time></trkpt><trkpt lat="40.097292" lon="9.5826573"><ele>522.0</ele><time>2026-03-28T11:04:40.806Z</time></trkpt><trkpt lat="40.0973496" lon="9.5827446"><ele>522.0</ele><time>2026-03-28T11:04:41.802Z</time></trkpt><trkpt lat="40.0974187" lon="9.5827958"><ele>522.0</ele><time>2026-03-28T11:04:42.808Z</time></trkpt><trkpt lat="40.0974776" lon="9.5828467"><ele>522.0</ele><time>2026-03-28T11:04:43.804Z</time></trkpt><trkpt lat="40.0976105" lon="9.5828479"><ele>522.0</ele><time>2026-03-28T11:04:45.804Z</time></trkpt><trkpt lat="40.0976923" lon="9.5828171"><ele>522.0</ele><time>2026-03-28T11:04:46.805Z</time></trkpt><trkpt lat="40.0977703" lon="9.5827832"><ele>522.1666666666666</ele><time>2026-03-28T11:04:47.81Z</time></trkpt><trkpt lat="40.0978397" lon="9.5827577"><ele>522.3333333333334</ele><time>2026-03-28T11:04:48.807Z</time></trkpt><trkpt lat="40.0979129" lon="9.5827795"><ele>522.5</ele><time>2026-03-28T11:04:50.799Z</time></trkpt><trkpt lat="40.0979657" lon="9.5829009"><ele>522.6666666666667</ele><time>2026-03-28T11:04:52.806Z</time></trkpt><trkpt lat="40.0979906" lon="9.5830061"><ele>522.8333333333334</ele><time>2026-03-28T11:04:53.803Z</time></trkpt><trkpt lat="40.0980263" lon="9.5831389"><ele>523.0</ele><time>2026-03-28T11:04:54.818Z</time></trkpt><trkpt lat="40.098048" lon="9.5832726"><ele>523.0</ele><time>2026-03-28T11:04:55.804Z</time></trkpt><trkpt lat="40.0980626" lon="9.5833708"><ele>523.0</ele><time>2026-03-28T11:04:56.804Z</time></trkpt><trkpt lat="40.098122" lon="9.583491"><ele>523.0</ele><time>2026-03-28T11:04:58.812Z</time></trkpt><trkpt lat="40.0982513" lon="9.58351"><ele>523.0</ele><time>2026-03-28T11:05:00.804Z</time></trkpt><trkpt lat="40.0983441" lon="9.583496"><ele>523.0</ele><time>2026-03-28T11:05:01.804Z</time></trkpt><trkpt lat="40.0984457" lon="9.5834921"><ele>526.0</ele><time>2026-03-28T11:05:02.808Z</time></trkpt><trkpt lat="40.0985515" lon="9.5835193"><ele>529.0</ele><time>2026-03-28T11:05:03.804Z</time></trkpt><trkpt lat="40.0986574" lon="9.5835519"><ele>532.0</ele><time>2026-03-28T11:05:04.807Z</time></trkpt><trkpt lat="40.0987564" lon="9.5835799"><ele>535.0</ele><time>2026-03-28T11:05:05.803Z</time></trkpt><trkpt lat="40.0988539" lon="9.5835968"><ele>538.0</ele><time>2026-03-28T11:05:06.808Z</time></trkpt><trkpt lat="40.0989525" lon="9.5836081"><ele>538.0</ele><time>2026-03-28T11:05:07.799Z</time></trkpt><trkpt lat="40.0990515" lon="9.5836121"><ele>538.0</ele><time>2026-03-28T11:05:08.806Z</time></trkpt><trkpt lat="40.0991561" lon="9.5836077"><ele>538.0</ele><time>2026-03-28T11:05:09.806Z</time></trkpt><trkpt lat="40.0992436" lon="9.5835877"><ele>538.0</ele><time>2026-03-28T11:05:10.803Z</time></trkpt><trkpt lat="40.0993157" lon="9.5835561"><ele>538.0</ele><time>2026-03-28T11:05:11.803Z</time></trkpt><trkpt lat="40.0993861" lon="9.5835199"><ele>538.0</ele><time>2026-03-28T11:05:12.801Z</time></trkpt><trkpt lat="40.0995049" lon="9.5835008"><ele>538.1999999999999</ele><time>2026-03-28T11:05:14.808Z</time></trkpt><trkpt lat="40.0995713" lon="9.5835807"><ele>538.4</ele><time>2026-03-28T11:05:16.804Z</time></trkpt><trkpt lat="40.0995824" lon="9.5837075"><ele>538.5999999999999</ele><time>2026-03-28T11:05:18.809Z</time></trkpt><trkpt lat="40.099539" lon="9.5838319"><ele>538.8</ele><time>2026-03-28T11:05:20.803Z</time></trkpt><trkpt lat="40.0995012" lon="9.5839242"><ele>539.0</ele><time>2026-03-28T11:05:21.802Z</time></trkpt><trkpt lat="40.0994545" lon="9.5840451"><ele>539.0</ele><time>2026-03-28T11:05:22.797Z</time></trkpt><trkpt lat="40.0994053" lon="9.5841661"><ele>539.0</ele><time>2026-03-28T11:05:23.804Z</time></trkpt><trkpt lat="40.0993476" lon="9.5842927"><ele>539.0</ele><time>2026-03-28T11:05:24.809Z</time></trkpt><trkpt lat="40.0992779" lon="9.5844495"><ele>539.0</ele><time>2026-03-28T11:05:25.801Z</time></trkpt><trkpt lat="40.0992071" lon="9.5846144"><ele>540.2</ele><time>2026-03-28T11:05:26.799Z</time></trkpt><trkpt lat="40.099149" lon="9.5847751"><ele>541.4</ele><time>2026-03-28T11:05:27.801Z</time></trkpt><trkpt lat="40.0990903" lon="9.5849083"><ele>542.6</ele><time>2026-03-28T11:05:28.8Z</time></trkpt><trkpt lat="40.0990232" lon="9.5850172"><ele>543.8</ele><time>2026-03-28T11:05:29.802Z</time></trkpt><trkpt lat="40.0989898" lon="9.585091"><ele>545.0</ele><time>2026-03-28T11:05:30.809Z</time></trkpt><trkpt lat="40.0990015" lon="9.5852231"><ele>542.5</ele><time>2026-03-28T11:05:32.798Z</time></trkpt><trkpt lat="40.0990623" lon="9.5853223"><ele>540.0</ele><time>2026-03-28T11:05:33.801Z</time></trkpt><trkpt lat="40.099143" lon="9.5854488"><ele>537.5</ele><time>2026-03-28T11:05:34.808Z</time></trkpt><trkpt lat="40.0992232" lon="9.585595"><ele>535.0</ele><time>2026-03-28T11:05:35.801Z</time></trkpt><trkpt lat="40.0992849" lon="9.5857309"><ele>535.0</ele><time>2026-03-28T11:05:36.802Z</time></trkpt><trkpt lat="40.0993471" lon="9.5858438"><ele>535.0</ele><time>2026-03-28T11:05:37.81Z</time></trkpt><trkpt lat="40.099432" lon="9.5859354"><ele>535.0</ele><time>2026-03-28T11:05:38.803Z</time></trkpt><trkpt lat="40.0995739" lon="9.5859871"><ele>535.0</ele><time>2026-03-28T11:05:39.8Z</time></trkpt><trkpt lat="40.0997325" lon="9.5860334"><ele>535.0</ele><time>2026-03-28T11:05:40.8Z</time></trkpt><trkpt lat="40.0998949" lon="9.5860681"><ele>535.0</ele><time>2026-03-28T11:05:41.801Z</time></trkpt><trkpt lat="40.1000435" lon="9.5860761"><ele>535.0</ele><time>2026-03-28T11:05:42.8Z</time></trkpt><trkpt lat="40.1001818" lon="9.5860841"><ele>535.4</ele><time>2026-03-28T11:05:43.805Z</time></trkpt><trkpt lat="40.1002837" lon="9.5860802"><ele>535.8</ele><time>2026-03-28T11:05:44.794Z</time></trkpt><trkpt lat="40.1003479" lon="9.5860854"><ele>536.2</ele><time>2026-03-28T11:05:45.8Z</time></trkpt><trkpt lat="40.1004441" lon="9.5861604"><ele>536.6</ele><time>2026-03-28T11:05:47.803Z</time></trkpt><trkpt lat="40.1004443" lon="9.5862729"><ele>537.0</ele><time>2026-03-28T11:05:48.805Z</time></trkpt><trkpt lat="40.1004633" lon="9.5863851"><ele>537.0</ele><time>2026-03-28T11:05:49.808Z</time></trkpt><trkpt lat="40.1005022" lon="9.5864926"><ele>537.0</ele><time>2026-03-28T11:05:50.808Z</time></trkpt><trkpt lat="40.1005674" lon="9.5866303"><ele>537.0</ele><time>2026-03-28T11:05:51.809Z</time></trkpt><trkpt lat="40.1006592" lon="9.5867242"><ele>537.0</ele><time>2026-03-28T11:05:52.808Z</time></trkpt><trkpt lat="40.1007302" lon="9.5867967"><ele>537.0</ele><time>2026-03-28T11:05:53.807Z</time></trkpt><trkpt lat="40.1007856" lon="9.5868708"><ele>536.4</ele><time>2026-03-28T11:05:54.81Z</time></trkpt><trkpt lat="40.1008255" lon="9.5870017"><ele>535.8000000000001</ele><time>2026-03-28T11:05:56.803Z</time></trkpt><trkpt lat="40.1008054" lon="9.5871092"><ele>535.2</ele><time>2026-03-28T11:05:57.804Z</time></trkpt><trkpt lat="40.1007673" lon="9.5872451"><ele>534.6</ele><time>2026-03-28T11:05:58.805Z</time></trkpt><trkpt lat="40.1007229" lon="9.5874198"><ele>534.0</ele><time>2026-03-28T11:05:59.801Z</time></trkpt><trkpt lat="40.1007099" lon="9.5876106"><ele>534.0</ele><time>2026-03-28T11:06:00.8Z</time></trkpt><trkpt lat="40.1007115" lon="9.5878027"><ele>534.0</ele><time>2026-03-28T11:06:01.802Z</time></trkpt><trkpt lat="40.1007326" lon="9.5879953"><ele>534.0</ele><time>2026-03-28T11:06:02.802Z</time></trkpt><trkpt lat="40.1007469" lon="9.5881659"><ele>534.0</ele><time>2026-03-28T11:06:03.799Z</time></trkpt><trkpt lat="40.1007391" lon="9.5883374"><ele>534.6</ele><time>2026-03-28T11:06:04.8Z</time></trkpt><trkpt lat="40.1006996" lon="9.5884983"><ele>535.2</ele><time>2026-03-28T11:06:05.805Z</time></trkpt><trkpt lat="40.1006475" lon="9.5886371"><ele>535.8000000000001</ele><time>2026-03-28T11:06:06.802Z</time></trkpt><trkpt lat="40.1006207" lon="9.5887442"><ele>536.4</ele><time>2026-03-28T11:06:07.805Z</time></trkpt><trkpt lat="40.1006085" lon="9.5888653"><ele>537.0</ele><time>2026-03-28T11:06:08.801Z</time></trkpt><trkpt lat="40.1006362" lon="9.5889877"><ele>538.4</ele><time>2026-03-28T11:06:09.799Z</time></trkpt><trkpt lat="40.1006824" lon="9.5891154"><ele>539.8000000000001</ele><time>2026-03-28T11:06:10.801Z</time></trkpt><trkpt lat="40.1007174" lon="9.5892255"><ele>541.2</ele><time>2026-03-28T11:06:11.806Z</time></trkpt><trkpt lat="40.1007153" lon="9.5893272"><ele>542.6</ele><time>2026-03-28T11:06:12.803Z</time></trkpt><trkpt lat="40.1006907" lon="9.589428"><ele>544.0</ele><time>2026-03-28T11:06:13.804Z</time></trkpt><trkpt lat="40.1006459" lon="9.5895387"><ele>548.25</ele><time>2026-03-28T11:06:14.799Z</time></trkpt><trkpt lat="40.1005828" lon="9.5896751"><ele>552.5</ele><time>2026-03-28T11:06:15.801Z</time></trkpt><trkpt lat="40.1005042" lon="9.5898026"><ele>556.75</ele><time>2026-03-28T11:06:16.799Z</time></trkpt><trkpt lat="40.1004265" lon="9.5899188"><ele>561.0</ele><time>2026-03-28T11:06:17.8Z</time></trkpt><trkpt lat="40.1003459" lon="9.5900089"><ele>561.0</ele><time>2026-03-28T11:06:18.802Z</time></trkpt><trkpt lat="40.1002265" lon="9.5900854"><ele>561.0</ele><time>2026-03-28T11:06:19.805Z</time></trkpt><trkpt lat="40.1001114" lon="9.5901585"><ele>561.0</ele><time>2026-03-28T11:06:20.803Z</time></trkpt><trkpt lat="40.1000126" lon="9.5902249"><ele>561.0</ele><time>2026-03-28T11:06:21.815Z</time></trkpt><trkpt lat="40.0999325" lon="9.5903051"><ele>560.4</ele><time>2026-03-28T11:06:22.805Z</time></trkpt><trkpt lat="40.099891" lon="9.5903951"><ele>559.8</ele><time>2026-03-28T11:06:23.801Z</time></trkpt><trkpt lat="40.0998599" lon="9.5905213"><ele>559.1999999999999</ele><time>2026-03-28T11:06:25.799Z</time></trkpt><trkpt lat="40.099776" lon="9.5905101"><ele>558.6</ele><time>2026-03-28T11:07:33.805Z</time></trkpt><trkpt lat="40.0996832" lon="9.590571"><ele>558.0</ele><time>2026-03-28T11:07:36.811Z</time></trkpt><trkpt lat="40.0995814" lon="9.5906278"><ele>557.9999999999999</ele><time>2026-03-28T11:07:38.8Z</time></trkpt><trkpt lat="40.0995135" lon="9.5906469"><ele>558.0</ele><time>2026-03-28T11:07:39.811Z</time></trkpt><trkpt lat="40.099444" lon="9.5906492"><ele>558.0</ele><time>2026-03-28T11:07:40.801Z</time></trkpt><trkpt lat="40.0993779" lon="9.590672"><ele>558.0</ele><time>2026-03-28T11:07:41.805Z</time></trkpt><trkpt lat="40.0993158" lon="9.5907411"><ele>558.0</ele><time>2026-03-28T11:07:42.806Z</time></trkpt><trkpt lat="40.0992748" lon="9.5908392"><ele>557.9999999999999</ele><time>2026-03-28T11:07:43.806Z</time></trkpt><trkpt lat="40.0992386" lon="9.5909122"><ele>558.0</ele><time>2026-03-28T11:07:44.808Z</time></trkpt><trkpt lat="40.0991862" lon="9.5909769"><ele>558.0</ele><time>2026-03-28T11:07:46.807Z</time></trkpt><trkpt lat="40.0991416" lon="9.5908302"><ele>558.0</ele><time>2026-03-28T11:07:49.807Z</time></trkpt><trkpt lat="40.0991405" lon="9.5906849"><ele>558.0</ele><time>2026-03-28T11:07:50.812Z</time></trkpt><trkpt lat="40.0991374" lon="9.5905343"><ele>558.0</ele><time>2026-03-28T11:07:51.804Z</time></trkpt><trkpt lat="40.0991359" lon="9.5904026"><ele>558.0</ele><time>2026-03-28T11:07:52.802Z</time></trkpt><trkpt lat="40.0991655" lon="9.5902961"><ele>556.0</ele><time>2026-03-28T11:07:53.802Z</time></trkpt><trkpt lat="40.0992026" lon="9.5902259"><ele>554.0</ele><time>2026-03-28T11:07:54.806Z</time></trkpt><trkpt lat="40.0992361" lon="9.590143"><ele>552.0</ele><time>2026-03-28T11:07:56.806Z</time></trkpt><trkpt lat="40.0991558" lon="9.5901248"><ele>550.0</ele><time>2026-03-28T11:07:58.809Z</time></trkpt><trkpt lat="40.0990829" lon="9.5901796"><ele>548.0</ele><time>2026-03-28T11:07:59.809Z</time></trkpt><trkpt lat="40.0989992" lon="9.590278"><ele>546.0</ele><time>2026-03-28T11:08:00.801Z</time></trkpt><trkpt lat="40.0989227" lon="9.5903806"><ele>544.5</ele><time>2026-03-28T11:08:01.804Z</time></trkpt><trkpt lat="40.0988676" lon="9.5905012"><ele>543.0</ele><time>2026-03-28T11:08:02.797Z</time></trkpt><trkpt lat="40.0988205" lon="9.590611"><ele>541.5</ele><time>2026-03-28T11:08:03.8Z</time></trkpt><trkpt lat="40.0987757" lon="9.5907016"><ele>540.0</ele><time>2026-03-28T11:08:04.803Z</time></trkpt><trkpt lat="40.0987202" lon="9.5907723"><ele>538.5</ele><time>2026-03-28T11:08:06.801Z</time></trkpt><trkpt lat="40.0986565" lon="9.5907819"><ele>537.0</ele><time>2026-03-28T11:08:51.811Z</time></trkpt><trkpt lat="40.0985951" lon="9.5909011"><ele>537.0</ele><time>2026-03-28T11:08:53.801Z</time></trkpt><trkpt lat="40.0985451" lon="9.5909944"><ele>537.0</ele><time>2026-03-28T11:08:54.802Z</time></trkpt><trkpt lat="40.0984874" lon="9.5911053"><ele>537.0</ele><time>2026-03-28T11:08:55.807Z</time></trkpt><trkpt lat="40.0984289" lon="9.591218"><ele>537.0</ele><time>2026-03-28T11:08:56.809Z</time></trkpt><trkpt lat="40.0983679" lon="9.5913183"><ele>537.0</ele><time>2026-03-28T11:08:57.805Z</time></trkpt><trkpt lat="40.0983144" lon="9.5913711"><ele>538.8000000000001</ele><time>2026-03-28T11:08:58.804Z</time></trkpt><trkpt lat="40.0982467" lon="9.5913994"><ele>540.6</ele><time>2026-03-28T11:08:59.806Z</time></trkpt><trkpt lat="40.0981598" lon="9.5914429"><ele>542.4000000000001</ele><time>2026-03-28T11:09:00.804Z</time></trkpt><trkpt lat="40.098038" lon="9.5914611"><ele>544.2</ele><time>2026-03-28T11:09:01.804Z</time></trkpt><trkpt lat="40.097885" lon="9.591458"><ele>546.0</ele><time>2026-03-28T11:09:02.801Z</time></trkpt><trkpt lat="40.0977362" lon="9.591454"><ele>546.0</ele><time>2026-03-28T11:09:03.801Z</time></trkpt><trkpt lat="40.097594" lon="9.5914542"><ele>546.0</ele><time>2026-03-28T11:09:04.805Z</time></trkpt><trkpt lat="40.0974654" lon="9.5914945"><ele>546.0</ele><time>2026-03-28T11:09:05.8Z</time></trkpt><trkpt lat="40.097336" lon="9.5915338"><ele>546.0</ele><time>2026-03-28T11:09:06.807Z</time></trkpt><trkpt lat="40.0972169" lon="9.5916029"><ele>547.0</ele><time>2026-03-28T11:09:07.807Z</time></trkpt><trkpt lat="40.0971099" lon="9.5917056"><ele>548.0</ele><time>2026-03-28T11:09:08.801Z</time></trkpt><trkpt lat="40.0970124" lon="9.5918482"><ele>549.0</ele><time>2026-03-28T11:09:09.804Z</time></trkpt><trkpt lat="40.0969117" lon="9.5920097"><ele>550.0</ele><time>2026-03-28T11:09:10.807Z</time></trkpt><trkpt lat="40.0968133" lon="9.5921611"><ele>550.0</ele><time>2026-03-28T11:09:11.8Z</time></trkpt><trkpt lat="40.0967153" lon="9.5922959"><ele>550.0</ele><time>2026-03-28T11:09:12.803Z</time></trkpt><trkpt lat="40.0966179" lon="9.592432"><ele>550.0</ele><time>2026-03-28T11:09:13.804Z</time></trkpt><trkpt lat="40.0965258" lon="9.5925572"><ele>550.0</ele><time>2026-03-28T11:09:14.807Z</time></trkpt><trkpt lat="40.0964449" lon="9.5926744"><ele>551.0</ele><time>2026-03-28T11:09:15.807Z</time></trkpt><trkpt lat="40.0963754" lon="9.5927562"><ele>552.0</ele><time>2026-03-28T11:09:16.808Z</time></trkpt><trkpt lat="40.0963236" lon="9.5928231"><ele>553.0</ele><time>2026-03-28T11:09:17.809Z</time></trkpt><trkpt lat="40.0962268" lon="9.5928876"><ele>554.0</ele><time>2026-03-28T11:09:19.804Z</time></trkpt><trkpt lat="40.0961436" lon="9.5928731"><ele>555.0</ele><time>2026-03-28T11:09:20.812Z</time></trkpt><trkpt lat="40.0960437" lon="9.5928598"><ele>552.3333333333334</ele><time>2026-03-28T11:09:21.806Z</time></trkpt><trkpt lat="40.0959414" lon="9.5928307"><ele>549.6666666666666</ele><time>2026-03-28T11:09:22.806Z</time></trkpt><trkpt lat="40.0958536" lon="9.5927935"><ele>547.0</ele><time>2026-03-28T11:09:23.805Z</time></trkpt><trkpt lat="40.0957779" lon="9.5927694"><ele>544.3333333333333</ele><time>2026-03-28T11:09:24.81Z</time></trkpt><trkpt lat="40.0957182" lon="9.5927034"><ele>541.6666666666666</ele><time>2026-03-28T11:09:25.812Z</time></trkpt><trkpt lat="40.0956529" lon="9.5926165"><ele>539.0</ele><time>2026-03-28T11:09:26.813Z</time></trkpt><trkpt lat="40.095595" lon="9.5925083"><ele>539.0</ele><time>2026-03-28T11:09:27.811Z</time></trkpt><trkpt lat="40.0955264" lon="9.5924032"><ele>539.0</ele><time>2026-03-28T11:09:28.808Z</time></trkpt><trkpt lat="40.0954616" lon="9.5922888"><ele>539.0</ele><time>2026-03-28T11:09:29.807Z</time></trkpt><trkpt lat="40.0953832" lon="9.5921561"><ele>539.0</ele><time>2026-03-28T11:09:30.806Z</time></trkpt><trkpt lat="40.0952809" lon="9.5920492"><ele>534.0</ele><time>2026-03-28T11:09:31.811Z</time></trkpt><trkpt lat="40.0951784" lon="9.5919533"><ele>529.0</ele><time>2026-03-28T11:09:32.803Z</time></trkpt><trkpt lat="40.0950954" lon="9.591837"><ele>524.0</ele><time>2026-03-28T11:09:33.802Z</time></trkpt><trkpt lat="40.0950321" lon="9.5917038"><ele>519.0</ele><time>2026-03-28T11:09:34.803Z</time></trkpt><trkpt lat="40.0949606" lon="9.5916121"><ele>517.3333333333334</ele><time>2026-03-28T11:09:35.8Z</time></trkpt><trkpt lat="40.0948818" lon="9.5915608"><ele>515.6666666666666</ele><time>2026-03-28T11:09:36.811Z</time></trkpt><trkpt lat="40.0947979" lon="9.5915685"><ele>514.0</ele><time>2026-03-28T11:09:37.797Z</time></trkpt><trkpt lat="40.0947078" lon="9.5915746"><ele>512.3333333333333</ele><time>2026-03-28T11:09:38.8Z</time></trkpt><trkpt lat="40.0946351" lon="9.591644"><ele>510.66666666666663</ele><time>2026-03-28T11:09:39.802Z</time></trkpt><trkpt lat="40.0945647" lon="9.5917014"><ele>509.0</ele><time>2026-03-28T11:09:40.802Z</time></trkpt><trkpt lat="40.0944842" lon="9.5917366"><ele>509.0</ele><time>2026-03-28T11:09:41.805Z</time></trkpt><trkpt lat="40.0943679" lon="9.5917365"><ele>509.0</ele><time>2026-03-28T11:09:42.803Z</time></trkpt><trkpt lat="40.0942457" lon="9.5917088"><ele>509.0</ele><time>2026-03-28T11:09:43.802Z</time></trkpt><trkpt lat="40.094131" lon="9.5917074"><ele>509.0</ele><time>2026-03-28T11:09:44.809Z</time></trkpt><trkpt lat="40.0940161" lon="9.5917154"><ele>508.3333333333333</ele><time>2026-03-28T11:09:45.799Z</time></trkpt><trkpt lat="40.0939171" lon="9.5917734"><ele>507.66666666666663</ele><time>2026-03-28T11:09:46.812Z</time></trkpt><trkpt lat="40.0938339" lon="9.59185"><ele>507.0</ele><time>2026-03-28T11:09:47.808Z</time></trkpt><trkpt lat="40.0937995" lon="9.5919392"><ele>506.33333333333337</ele><time>2026-03-28T11:09:48.806Z</time></trkpt><trkpt lat="40.0937673" lon="9.592032"><ele>505.6666666666667</ele><time>2026-03-28T11:09:49.807Z</time></trkpt><trkpt lat="40.0937828" lon="9.5921212"><ele>505.0</ele><time>2026-03-28T11:09:50.808Z</time></trkpt><trkpt lat="40.0937865" lon="9.5922069"><ele>505.0</ele><time>2026-03-28T11:09:52.801Z</time></trkpt><trkpt lat="40.0937076" lon="9.5922185"><ele>505.0</ele><time>2026-03-28T11:09:54.817Z</time></trkpt><trkpt lat="40.0936496" lon="9.5921545"><ele>505.0</ele><time>2026-03-28T11:09:55.803Z</time></trkpt><trkpt lat="40.0935686" lon="9.5920802"><ele>505.0</ele><time>2026-03-28T11:09:56.804Z</time></trkpt><trkpt lat="40.0934916" lon="9.591985"><ele>505.0</ele><time>2026-03-28T11:09:57.81Z</time></trkpt><trkpt lat="40.0934094" lon="9.5918779"><ele>505.0</ele><time>2026-03-28T11:09:58.801Z</time></trkpt><trkpt lat="40.0933322" lon="9.591775"><ele>505.0</ele><time>2026-03-28T11:09:59.808Z</time></trkpt><trkpt lat="40.0932589" lon="9.5916918"><ele>505.0</ele><time>2026-03-28T11:10:00.803Z</time></trkpt><trkpt lat="40.0931731" lon="9.5916311"><ele>505.0</ele><time>2026-03-28T11:10:01.805Z</time></trkpt><trkpt lat="40.0930931" lon="9.591576"><ele>505.0</ele><time>2026-03-28T11:10:02.808Z</time></trkpt><trkpt lat="40.0930269" lon="9.5915179"><ele>502.83333333333337</ele><time>2026-03-28T11:10:03.807Z</time></trkpt><trkpt lat="40.0929846" lon="9.5914195"><ele>500.6666666666667</ele><time>2026-03-28T11:10:04.812Z</time></trkpt><trkpt lat="40.0929541" lon="9.5913203"><ele>498.5</ele><time>2026-03-28T11:10:05.806Z</time></trkpt><trkpt lat="40.0928979" lon="9.5912501"><ele>496.33333333333337</ele><time>2026-03-28T11:10:06.804Z</time></trkpt><trkpt lat="40.0928152" lon="9.5912121"><ele>494.1666666666667</ele><time>2026-03-28T11:10:07.81Z</time></trkpt><trkpt lat="40.0927371" lon="9.5911713"><ele>492.0</ele><time>2026-03-28T11:10:08.8Z</time></trkpt><trkpt lat="40.0926661" lon="9.5911351"><ele>492.0</ele><time>2026-03-28T11:10:09.81Z</time></trkpt><trkpt lat="40.0926016" lon="9.5910742"><ele>492.0</ele><time>2026-03-28T11:10:10.806Z</time></trkpt><trkpt lat="40.0925584" lon="9.5909847"><ele>492.0</ele><time>2026-03-28T11:10:11.809Z</time></trkpt><trkpt lat="40.0925283" lon="9.5908673"><ele>492.0</ele><time>2026-03-28T11:10:12.802Z</time></trkpt><trkpt lat="40.0924651" lon="9.5907967"><ele>492.0</ele><time>2026-03-28T11:10:13.797Z</time></trkpt><trkpt lat="40.0923889" lon="9.590756"><ele>492.0</ele><time>2026-03-28T11:10:14.81Z</time></trkpt><trkpt lat="40.0923038" lon="9.5907131"><ele>496.0</ele><time>2026-03-28T11:10:15.807Z</time></trkpt><trkpt lat="40.0921884" lon="9.5906981"><ele>500.0</ele><time>2026-03-28T11:10:16.805Z</time></trkpt><trkpt lat="40.0920568" lon="9.5906446"><ele>504.0</ele><time>2026-03-28T11:10:17.805Z</time></trkpt><trkpt lat="40.0919067" lon="9.5905734"><ele>508.0</ele><time>2026-03-28T11:10:18.804Z</time></trkpt><trkpt lat="40.0917677" lon="9.5905071"><ele>508.0</ele><time>2026-03-28T11:10:19.808Z</time></trkpt><trkpt lat="40.0916503" lon="9.5904437"><ele>508.0</ele><time>2026-03-28T11:10:20.81Z</time></trkpt><trkpt lat="40.0915412" lon="9.5903919"><ele>508.0</ele><time>2026-03-28T11:10:21.806Z</time></trkpt><trkpt lat="40.0914321" lon="9.5903726"><ele>508.0</ele><time>2026-03-28T11:10:22.803Z</time></trkpt><trkpt lat="40.0913281" lon="9.5903658"><ele>503.59999999999997</ele><time>2026-03-28T11:10:23.814Z</time></trkpt><trkpt lat="40.0912372" lon="9.5903777"><ele>499.19999999999993</ele><time>2026-03-28T11:10:24.804Z</time></trkpt><trkpt lat="40.0911502" lon="9.5904172"><ele>494.8</ele><time>2026-03-28T11:10:25.804Z</time></trkpt><trkpt lat="40.0910593" lon="9.5904875"><ele>490.4</ele><time>2026-03-28T11:10:26.809Z</time></trkpt><trkpt lat="40.0909613" lon="9.5905658"><ele>486.0</ele><time>2026-03-28T11:10:27.807Z</time></trkpt><trkpt lat="40.0908615" lon="9.5906716"><ele>486.0</ele><time>2026-03-28T11:10:28.808Z</time></trkpt><trkpt lat="40.0907809" lon="9.5907829"><ele>486.0</ele><time>2026-03-28T11:10:29.805Z</time></trkpt><trkpt lat="40.0907145" lon="9.5909127"><ele>486.0</ele><time>2026-03-28T11:10:30.821Z</time></trkpt><trkpt lat="40.0906588" lon="9.591063"><ele>486.0</ele><time>2026-03-28T11:10:31.805Z</time></trkpt><trkpt lat="40.0906093" lon="9.5912332"><ele>481.25</ele><time>2026-03-28T11:10:32.801Z</time></trkpt><trkpt lat="40.0905718" lon="9.5914061"><ele>476.5</ele><time>2026-03-28T11:10:33.808Z</time></trkpt><trkpt lat="40.0905244" lon="9.5915793"><ele>471.75</ele><time>2026-03-28T11:10:34.806Z</time></trkpt><trkpt lat="40.0904764" lon="9.5917486"><ele>467.0</ele><time>2026-03-28T11:10:35.811Z</time></trkpt><trkpt lat="40.090429" lon="9.5919016"><ele>467.8</ele><time>2026-03-28T11:10:36.809Z</time></trkpt><trkpt lat="40.0903903" lon="9.5920221"><ele>468.6</ele><time>2026-03-28T11:10:37.805Z</time></trkpt><trkpt lat="40.090375" lon="9.5921435"><ele>469.40000000000003</ele><time>2026-03-28T11:10:38.809Z</time></trkpt><trkpt lat="40.0903602" lon="9.592267"><ele>470.20000000000005</ele><time>2026-03-28T11:10:39.805Z</time></trkpt><trkpt lat="40.0903742" lon="9.592401"><ele>471.0</ele><time>2026-03-28T11:10:40.802Z</time></trkpt><trkpt lat="40.0904154" lon="9.5925401"><ele>471.0</ele><time>2026-03-28T11:10:41.801Z</time></trkpt><trkpt lat="40.09047" lon="9.592694"><ele>471.0</ele><time>2026-03-28T11:10:42.807Z</time></trkpt><trkpt lat="40.0904963" lon="9.5928563"><ele>471.0</ele><time>2026-03-28T11:10:43.804Z</time></trkpt><trkpt lat="40.0905185" lon="9.593012"><ele>471.0</ele><time>2026-03-28T11:10:44.801Z</time></trkpt><trkpt lat="40.0905306" lon="9.5931775"><ele>471.25</ele><time>2026-03-28T11:10:45.805Z</time></trkpt><trkpt lat="40.0905127" lon="9.5933741"><ele>471.5</ele><time>2026-03-28T11:10:46.821Z</time></trkpt><trkpt lat="40.0905117" lon="9.5935585"><ele>471.75</ele><time>2026-03-28T11:10:47.804Z</time></trkpt><trkpt lat="40.0905142" lon="9.5937049"><ele>472.0</ele><time>2026-03-28T11:10:48.8Z</time></trkpt><trkpt lat="40.0905167" lon="9.5938215"><ele>475.40000000000003</ele><time>2026-03-28T11:10:49.801Z</time></trkpt><trkpt lat="40.0904966" lon="9.5939086"><ele>478.80000000000007</ele><time>2026-03-28T11:10:50.806Z</time></trkpt><trkpt lat="40.0904515" lon="9.5939745"><ele>482.2</ele><time>2026-03-28T11:10:51.81Z</time></trkpt><trkpt lat="40.0903544" lon="9.5940675"><ele>485.6</ele><time>2026-03-28T11:10:52.807Z</time></trkpt><trkpt lat="40.0902393" lon="9.5941773"><ele>489.0</ele><time>2026-03-28T11:10:53.817Z</time></trkpt><trkpt lat="40.0901541" lon="9.5942686"><ele>489.0</ele><time>2026-03-28T11:10:54.806Z</time></trkpt><trkpt lat="40.0900755" lon="9.5943311"><ele>489.0</ele><time>2026-03-28T11:10:55.805Z</time></trkpt><trkpt lat="40.089995" lon="9.5943607"><ele>489.0</ele><time>2026-03-28T11:10:56.804Z</time></trkpt><trkpt lat="40.0898659" lon="9.594382"><ele>489.0</ele><time>2026-03-28T11:10:57.798Z</time></trkpt><trkpt lat="40.0897248" lon="9.5943259"><ele>487.0</ele><time>2026-03-28T11:10:58.803Z</time></trkpt><trkpt lat="40.0895905" lon="9.5943117"><ele>485.0</ele><time>2026-03-28T11:10:59.813Z</time></trkpt><trkpt lat="40.0894481" lon="9.5943243"><ele>483.0</ele><time>2026-03-28T11:11:00.811Z</time></trkpt><trkpt lat="40.0893032" lon="9.5943403"><ele>481.0</ele><time>2026-03-28T11:11:01.821Z</time></trkpt><trkpt lat="40.0891702" lon="9.594372"><ele>480.00000000000006</ele><time>2026-03-28T11:11:02.81Z</time></trkpt><trkpt lat="40.0890587" lon="9.594424"><ele>479.0</ele><time>2026-03-28T11:11:03.805Z</time></trkpt><trkpt lat="40.0889752" lon="9.5944993"><ele>478.0</ele><time>2026-03-28T11:11:04.805Z</time></trkpt><trkpt lat="40.0889142" lon="9.5945554"><ele>477.0</ele><time>2026-03-28T11:11:05.803Z</time></trkpt><trkpt lat="40.0888522" lon="9.5945922"><ele>476.00000000000006</ele><time>2026-03-28T11:11:06.806Z</time></trkpt><trkpt lat="40.0887737" lon="9.5945826"><ele>475.0</ele><time>2026-03-28T11:11:07.8Z</time></trkpt><trkpt lat="40.0886983" lon="9.594533"><ele>476.6</ele><time>2026-03-28T11:11:08.807Z</time></trkpt><trkpt lat="40.0886191" lon="9.5945186"><ele>478.2</ele><time>2026-03-28T11:11:09.806Z</time></trkpt><trkpt lat="40.0885181" lon="9.5945552"><ele>479.79999999999995</ele><time>2026-03-28T11:11:10.804Z</time></trkpt><trkpt lat="40.0883976" lon="9.5945778"><ele>481.4</ele><time>2026-03-28T11:11:11.805Z</time></trkpt><trkpt lat="40.0882688" lon="9.5945646"><ele>483.0</ele><time>2026-03-28T11:11:12.809Z</time></trkpt><trkpt lat="40.088164" lon="9.5945415"><ele>483.0</ele><time>2026-03-28T11:11:13.806Z</time></trkpt><trkpt lat="40.0880933" lon="9.59452"><ele>483.0</ele><time>2026-03-28T11:11:14.8Z</time></trkpt><trkpt lat="40.0880389" lon="9.5944347"><ele>483.0</ele><time>2026-03-28T11:11:15.805Z</time></trkpt><trkpt lat="40.0879929" lon="9.5943375"><ele>483.0</ele><time>2026-03-28T11:11:16.805Z</time></trkpt><trkpt lat="40.0879361" lon="9.5942727"><ele>483.0</ele><time>2026-03-28T11:11:17.804Z</time></trkpt><trkpt lat="40.0878297" lon="9.5942332"><ele>483.0</ele><time>2026-03-28T11:11:18.826Z</time></trkpt><trkpt lat="40.0877367" lon="9.5942232"><ele>483.0</ele><time>2026-03-28T11:11:19.805Z</time></trkpt><trkpt lat="40.0876673" lon="9.5942197"><ele>483.0</ele><time>2026-03-28T11:11:20.81Z</time></trkpt><trkpt lat="40.0876032" lon="9.594324"><ele>483.0</ele><time>2026-03-28T11:11:22.804Z</time></trkpt><trkpt lat="40.0875791" lon="9.5944262"><ele>483.0</ele><time>2026-03-28T11:11:23.802Z</time></trkpt><trkpt lat="40.0875646" lon="9.5945285"><ele>483.0</ele><time>2026-03-28T11:11:24.808Z</time></trkpt><trkpt lat="40.0875258" lon="9.594601"><ele>483.0</ele><time>2026-03-28T11:11:25.805Z</time></trkpt><trkpt lat="40.0874517" lon="9.5946506"><ele>481.0</ele><time>2026-03-28T11:11:26.816Z</time></trkpt><trkpt lat="40.0873754" lon="9.5947145"><ele>479.0</ele><time>2026-03-28T11:11:27.808Z</time></trkpt><trkpt lat="40.0873129" lon="9.5948168"><ele>477.0</ele><time>2026-03-28T11:11:28.807Z</time></trkpt><trkpt lat="40.0872886" lon="9.5948976"><ele>475.0</ele><time>2026-03-28T11:11:29.806Z</time></trkpt><trkpt lat="40.087291" lon="9.5950027"><ele>473.0</ele><time>2026-03-28T11:11:30.804Z</time></trkpt><trkpt lat="40.0873022" lon="9.5951119"><ele>471.0</ele><time>2026-03-28T11:11:31.807Z</time></trkpt><trkpt lat="40.087301" lon="9.5952218"><ele>475.4</ele><time>2026-03-28T11:11:32.807Z</time></trkpt><trkpt lat="40.0872789" lon="9.595356"><ele>479.8</ele><time>2026-03-28T11:11:33.803Z</time></trkpt><trkpt lat="40.0872452" lon="9.5954926"><ele>484.19999999999993</ele><time>2026-03-28T11:11:34.807Z</time></trkpt><trkpt lat="40.0872413" lon="9.5956576"><ele>488.59999999999997</ele><time>2026-03-28T11:11:35.804Z</time></trkpt><trkpt lat="40.0872404" lon="9.5957963"><ele>493.0</ele><time>2026-03-28T11:11:36.803Z</time></trkpt><trkpt lat="40.0872427" lon="9.5959028"><ele>493.0</ele><time>2026-03-28T11:11:37.803Z</time></trkpt><trkpt lat="40.0872288" lon="9.5959969"><ele>492.99999999999994</ele><time>2026-03-28T11:11:39.806Z</time></trkpt><trkpt lat="40.0871146" lon="9.5959361"><ele>492.99999999999994</ele><time>2026-03-28T11:11:43.803Z</time></trkpt><trkpt lat="40.0870352" lon="9.5958434"><ele>493.0</ele><time>2026-03-28T11:11:44.8Z</time></trkpt><trkpt lat="40.0869603" lon="9.5957387"><ele>493.0</ele><time>2026-03-28T11:11:45.806Z</time></trkpt><trkpt lat="40.0868868" lon="9.5956167"><ele>493.0</ele><time>2026-03-28T11:11:46.8Z</time></trkpt><trkpt lat="40.08681" lon="9.5955059"><ele>493.0</ele><time>2026-03-28T11:11:47.8Z</time></trkpt><trkpt lat="40.0867385" lon="9.5953924"><ele>493.0</ele><time>2026-03-28T11:11:48.799Z</time></trkpt><trkpt lat="40.0866671" lon="9.5952436"><ele>493.0</ele><time>2026-03-28T11:11:49.807Z</time></trkpt><trkpt lat="40.086608" lon="9.5950828"><ele>490.0</ele><time>2026-03-28T11:11:50.806Z</time></trkpt><trkpt lat="40.0865653" lon="9.5949167"><ele>487.0</ele><time>2026-03-28T11:11:51.805Z</time></trkpt><trkpt lat="40.0865361" lon="9.5947474"><ele>484.0</ele><time>2026-03-28T11:11:52.803Z</time></trkpt><trkpt lat="40.0865117" lon="9.5945632"><ele>481.0</ele><time>2026-03-28T11:11:53.806Z</time></trkpt><trkpt lat="40.0864726" lon="9.5943717"><ele>475.25</ele><time>2026-03-28T11:11:54.799Z</time></trkpt><trkpt lat="40.0864295" lon="9.5941827"><ele>469.5</ele><time>2026-03-28T11:11:55.801Z</time></trkpt><trkpt lat="40.0863835" lon="9.5940137"><ele>463.75</ele><time>2026-03-28T11:11:56.8Z</time></trkpt><trkpt lat="40.0863322" lon="9.5938855"><ele>458.0</ele><time>2026-03-28T11:11:57.801Z</time></trkpt><trkpt lat="40.0862895" lon="9.5938002"><ele>457.99999999999994</ele><time>2026-03-28T11:11:58.801Z</time></trkpt><trkpt lat="40.0862178" lon="9.5937502"><ele>458.0</ele><time>2026-03-28T11:12:00.803Z</time></trkpt><trkpt lat="40.0861426" lon="9.5937964"><ele>458.0</ele><time>2026-03-28T11:12:02.814Z</time></trkpt><trkpt lat="40.0861199" lon="9.593892"><ele>458.0</ele><time>2026-03-28T11:12:03.81Z</time></trkpt><trkpt lat="40.0860921" lon="9.5940144"><ele>457.99999999999994</ele><time>2026-03-28T11:12:04.809Z</time></trkpt><trkpt lat="40.0860559" lon="9.5941428"><ele>458.0</ele><time>2026-03-28T11:12:05.81Z</time></trkpt><trkpt lat="40.0860089" lon="9.594246"><ele>458.0</ele><time>2026-03-28T11:12:06.802Z</time></trkpt><trkpt lat="40.0859622" lon="9.5943441"><ele>457.99999999999994</ele><time>2026-03-28T11:12:07.809Z</time></trkpt><trkpt lat="40.0858822" lon="9.5944013"><ele>457.99999999999994</ele><time>2026-03-28T11:12:08.81Z</time></trkpt><trkpt lat="40.0857889" lon="9.5944498"><ele>458.0</ele><time>2026-03-28T11:12:09.804Z</time></trkpt><trkpt lat="40.0857221" lon="9.5944914"><ele>458.0</ele><time>2026-03-28T11:12:10.811Z</time></trkpt><trkpt lat="40.0856183" lon="9.5945232"><ele>457.79999999999995</ele><time>2026-03-28T11:12:12.811Z</time></trkpt><trkpt lat="40.0855768" lon="9.5944463"><ele>457.59999999999997</ele><time>2026-03-28T11:12:13.801Z</time></trkpt><trkpt lat="40.0854595" lon="9.5944332"><ele>457.40000000000003</ele><time>2026-03-28T11:12:15.797Z</time></trkpt><trkpt lat="40.0853891" lon="9.5945153"><ele>457.20000000000005</ele><time>2026-03-28T11:12:16.803Z</time></trkpt><trkpt lat="40.085331" lon="9.594621"><ele>457.0</ele><time>2026-03-28T11:12:17.801Z</time></trkpt><trkpt lat="40.0852744" lon="9.5947356"><ele>457.0</ele><time>2026-03-28T11:12:18.807Z</time></trkpt><trkpt lat="40.0852488" lon="9.5948636"><ele>457.00000000000006</ele><time>2026-03-28T11:12:19.803Z</time></trkpt><trkpt lat="40.0852199" lon="9.5949835"><ele>457.00000000000006</ele><time>2026-03-28T11:12:20.799Z</time></trkpt><trkpt lat="40.0851933" lon="9.5950644"><ele>457.0</ele><time>2026-03-28T11:12:21.813Z</time></trkpt><trkpt lat="40.0852084" lon="9.5952385"><ele>457.0</ele><time>2026-03-28T11:12:23.818Z</time></trkpt><trkpt lat="40.0852337" lon="9.5953211"><ele>459.8</ele><time>2026-03-28T11:12:24.801Z</time></trkpt><trkpt lat="40.0852426" lon="9.595405"><ele>462.6</ele><time>2026-03-28T11:12:25.81Z</time></trkpt><trkpt lat="40.0852117" lon="9.5954801"><ele>465.40000000000003</ele><time>2026-03-28T11:12:26.806Z</time></trkpt><trkpt lat="40.0851462" lon="9.5955625"><ele>468.20000000000005</ele><time>2026-03-28T11:12:27.805Z</time></trkpt><trkpt lat="40.0850592" lon="9.5956828"><ele>471.0</ele><time>2026-03-28T11:12:28.804Z</time></trkpt><trkpt lat="40.0849743" lon="9.5958128"><ele>465.6</ele><time>2026-03-28T11:12:29.804Z</time></trkpt><trkpt lat="40.0849061" lon="9.5959102"><ele>460.20000000000005</ele><time>2026-03-28T11:12:30.807Z</time></trkpt><trkpt lat="40.0848687" lon="9.5959997"><ele>454.79999999999995</ele><time>2026-03-28T11:12:31.8Z</time></trkpt><trkpt lat="40.0848553" lon="9.596115"><ele>449.4</ele><time>2026-03-28T11:12:32.808Z</time></trkpt><trkpt lat="40.0848589" lon="9.596247"><ele>444.0</ele><time>2026-03-28T11:12:33.805Z</time></trkpt><trkpt lat="40.0848892" lon="9.5963861"><ele>451.5</ele><time>2026-03-28T11:12:34.805Z</time></trkpt><trkpt lat="40.084946" lon="9.5965256"><ele>459.0</ele><time>2026-03-28T11:12:35.807Z</time></trkpt><trkpt lat="40.0850128" lon="9.5966922"><ele>466.5</ele><time>2026-03-28T11:12:36.836Z</time></trkpt><trkpt lat="40.0850983" lon="9.596862"><ele>474.0</ele><time>2026-03-28T11:12:37.808Z</time></trkpt><trkpt lat="40.0851491" lon="9.5969948"><ele>473.6</ele><time>2026-03-28T11:12:38.806Z</time></trkpt><trkpt lat="40.085195" lon="9.5971123"><ele>473.2</ele><time>2026-03-28T11:12:39.806Z</time></trkpt><trkpt lat="40.0852221" lon="9.597217"><ele>472.80000000000007</ele><time>2026-03-28T11:12:40.805Z</time></trkpt><trkpt lat="40.0852229" lon="9.5973359"><ele>472.40000000000003</ele><time>2026-03-28T11:12:41.807Z</time></trkpt><trkpt lat="40.0851788" lon="9.5974548"><ele>472.0</ele><time>2026-03-28T11:12:42.807Z</time></trkpt><trkpt lat="40.0851582" lon="9.5975653"><ele>472.0</ele><time>2026-03-28T11:12:43.808Z</time></trkpt><trkpt lat="40.085176" lon="9.5976767"><ele>472.00000000000006</ele><time>2026-03-28T11:12:44.808Z</time></trkpt><trkpt lat="40.085217" lon="9.5977991"><ele>472.00000000000006</ele><time>2026-03-28T11:12:45.8Z</time></trkpt><trkpt lat="40.0852803" lon="9.5979071"><ele>472.0</ele><time>2026-03-28T11:12:46.809Z</time></trkpt><trkpt lat="40.0853658" lon="9.5979755"><ele>472.0</ele><time>2026-03-28T11:12:47.809Z</time></trkpt><trkpt lat="40.0854225" lon="9.5980528"><ele>474.6</ele><time>2026-03-28T11:12:48.799Z</time></trkpt><trkpt lat="40.0854637" lon="9.5981921"><ele>477.20000000000005</ele><time>2026-03-28T11:12:50.801Z</time></trkpt><trkpt lat="40.0854086" lon="9.5982987"><ele>479.8</ele><time>2026-03-28T11:12:52.809Z</time></trkpt><trkpt lat="40.0853425" lon="9.5983231"><ele>482.4</ele><time>2026-03-28T11:12:53.8Z</time></trkpt><trkpt lat="40.0852318" lon="9.5984087"><ele>485.0</ele><time>2026-03-28T11:12:55.797Z</time></trkpt><trkpt lat="40.0851574" lon="9.5985349"><ele>484.99999999999994</ele><time>2026-03-28T11:12:57.798Z</time></trkpt><trkpt lat="40.0850946" lon="9.5985816"><ele>485.0</ele><time>2026-03-28T11:12:58.801Z</time></trkpt><trkpt lat="40.0850136" lon="9.5986098"><ele>485.0</ele><time>2026-03-28T11:12:59.803Z</time></trkpt><trkpt lat="40.0849312" lon="9.598629"><ele>485.0</ele><time>2026-03-28T11:13:00.806Z</time></trkpt><trkpt lat="40.0848535" lon="9.5986456"><ele>484.99999999999994</ele><time>2026-03-28T11:13:01.807Z</time></trkpt><trkpt lat="40.0847632" lon="9.5985906"><ele>485.0</ele><time>2026-03-28T11:13:03.809Z</time></trkpt><trkpt lat="40.0847466" lon="9.598506"><ele>486.49999999999994</ele><time>2026-03-28T11:13:04.8Z</time></trkpt><trkpt lat="40.0847123" lon="9.5984072"><ele>488.0</ele><time>2026-03-28T11:13:05.821Z</time></trkpt><trkpt lat="40.084661" lon="9.5983266"><ele>489.5</ele><time>2026-03-28T11:13:06.804Z</time></trkpt><trkpt lat="40.0845853" lon="9.5982836"><ele>491.0</ele><time>2026-03-28T11:13:07.811Z</time></trkpt><trkpt lat="40.0845148" lon="9.5982296"><ele>492.49999999999994</ele><time>2026-03-28T11:13:08.812Z</time></trkpt><trkpt lat="40.0844656" lon="9.5981241"><ele>494.0</ele><time>2026-03-28T11:13:09.818Z</time></trkpt><trkpt lat="40.0844191" lon="9.5980268"><ele>494.0</ele><time>2026-03-28T11:13:10.81Z</time></trkpt><trkpt lat="40.0843651" lon="9.597958"><ele>494.0</ele><time>2026-03-28T11:13:11.806Z</time></trkpt><trkpt lat="40.0842847" lon="9.5979567"><ele>494.0</ele><time>2026-03-28T11:13:12.802Z</time></trkpt><trkpt lat="40.0841986" lon="9.5979586"><ele>494.0</ele><time>2026-03-28T11:13:13.809Z</time></trkpt><trkpt lat="40.084095" lon="9.5980225"><ele>494.0</ele><time>2026-03-28T11:13:14.81Z</time></trkpt><trkpt lat="40.0839916" lon="9.5981068"><ele>495.0</ele><time>2026-03-28T11:13:15.809Z</time></trkpt><trkpt lat="40.0838936" lon="9.5982028"><ele>496.0</ele><time>2026-03-28T11:13:16.811Z</time></trkpt><trkpt lat="40.0838035" lon="9.598295"><ele>497.0</ele><time>2026-03-28T11:13:17.808Z</time></trkpt><trkpt lat="40.0837407" lon="9.5983835"><ele>498.0</ele><time>2026-03-28T11:13:18.808Z</time></trkpt><trkpt lat="40.0836828" lon="9.5984399"><ele>499.0</ele><time>2026-03-28T11:13:19.806Z</time></trkpt><trkpt lat="40.0836105" lon="9.5984478"><ele>499.00000000000006</ele><time>2026-03-28T11:13:20.81Z</time></trkpt><trkpt lat="40.0835129" lon="9.5984474"><ele>499.0</ele><time>2026-03-28T11:13:21.804Z</time></trkpt><trkpt lat="40.0834226" lon="9.598415"><ele>499.0</ele><time>2026-03-28T11:13:22.809Z</time></trkpt><trkpt lat="40.0833493" lon="9.5984345"><ele>499.0</ele><time>2026-03-28T11:13:23.808Z</time></trkpt><trkpt lat="40.083258" lon="9.5984719"><ele>499.00000000000006</ele><time>2026-03-28T11:13:24.809Z</time></trkpt><trkpt lat="40.0831773" lon="9.5985019"><ele>499.0</ele><time>2026-03-28T11:13:25.809Z</time></trkpt><trkpt lat="40.0831108" lon="9.5985147"><ele>503.6</ele><time>2026-03-28T11:13:26.809Z</time></trkpt><trkpt lat="40.0829834" lon="9.5984273"><ele>508.2</ele><time>2026-03-28T11:13:28.806Z</time></trkpt><trkpt lat="40.0829065" lon="9.5983622"><ele>512.8000000000001</ele><time>2026-03-28T11:13:29.8Z</time></trkpt><trkpt lat="40.0828224" lon="9.5982772"><ele>517.4</ele><time>2026-03-28T11:13:31.799Z</time></trkpt><trkpt lat="40.082799" lon="9.5981784"><ele>522.0</ele><time>2026-03-28T11:13:32.803Z</time></trkpt><trkpt lat="40.082797" lon="9.5980412"><ele>522.0</ele><time>2026-03-28T11:13:33.806Z</time></trkpt><trkpt lat="40.0828104" lon="9.5978714"><ele>522.0</ele><time>2026-03-28T11:13:34.821Z</time></trkpt><trkpt lat="40.0828409" lon="9.5977139"><ele>522.0</ele><time>2026-03-28T11:13:35.806Z</time></trkpt><trkpt lat="40.0828673" lon="9.5975992"><ele>522.0</ele><time>2026-03-28T11:13:36.809Z</time></trkpt><trkpt lat="40.0828604" lon="9.5975174"><ele>522.0</ele><time>2026-03-28T11:13:37.797Z</time></trkpt><trkpt lat="40.0828317" lon="9.5974356"><ele>525.0</ele><time>2026-03-28T11:13:38.807Z</time></trkpt><trkpt lat="40.0827766" lon="9.5973882"><ele>528.0</ele><time>2026-03-28T11:13:39.806Z</time></trkpt><trkpt lat="40.0827108" lon="9.5973735"><ele>531.0</ele><time>2026-03-28T11:13:40.804Z</time></trkpt><trkpt lat="40.0826215" lon="9.5973844"><ele>534.0</ele><time>2026-03-28T11:13:41.805Z</time></trkpt><trkpt lat="40.0825196" lon="9.5974034"><ele>537.0</ele><time>2026-03-28T11:13:42.806Z</time></trkpt><trkpt lat="40.0824207" lon="9.5974458"><ele>540.0</ele><time>2026-03-28T11:13:43.82Z</time></trkpt><trkpt lat="40.0823338" lon="9.5974632"><ele>540.0</ele><time>2026-03-28T11:13:44.804Z</time></trkpt><trkpt lat="40.082266" lon="9.5974577"><ele>540.0</ele><time>2026-03-28T11:13:45.802Z</time></trkpt><trkpt lat="40.0822058" lon="9.5974262"><ele>540.0</ele><time>2026-03-28T11:13:46.801Z</time></trkpt><trkpt lat="40.0821339" lon="9.5973261"><ele>540.0</ele><time>2026-03-28T11:13:47.801Z</time></trkpt><trkpt lat="40.0820639" lon="9.5972122"><ele>540.0</ele><time>2026-03-28T11:13:48.802Z</time></trkpt><trkpt lat="40.0820144" lon="9.5971155"><ele>540.0</ele><time>2026-03-28T11:13:49.804Z</time></trkpt><trkpt lat="40.0819869" lon="9.596996"><ele>537.2</ele><time>2026-03-28T11:13:50.803Z</time></trkpt><trkpt lat="40.0819832" lon="9.5968561"><ele>534.4</ele><time>2026-03-28T11:13:51.8Z</time></trkpt><trkpt lat="40.0819683" lon="9.5967095"><ele>531.6</ele><time>2026-03-28T11:13:52.803Z</time></trkpt><trkpt lat="40.0819299" lon="9.5965826"><ele>528.8</ele><time>2026-03-28T11:13:53.805Z</time></trkpt><trkpt lat="40.0818743" lon="9.5964752"><ele>526.0</ele><time>2026-03-28T11:13:54.802Z</time></trkpt><trkpt lat="40.0818174" lon="9.5963544"><ele>526.0</ele><time>2026-03-28T11:13:55.805Z</time></trkpt><trkpt lat="40.0817738" lon="9.5962402"><ele>526.0</ele><time>2026-03-28T11:13:56.801Z</time></trkpt><trkpt lat="40.0817525" lon="9.5961338"><ele>526.0</ele><time>2026-03-28T11:13:57.801Z</time></trkpt><trkpt lat="40.0817359" lon="9.5960426"><ele>526.0</ele><time>2026-03-28T11:13:58.802Z</time></trkpt><trkpt lat="40.0816931" lon="9.5959576"><ele>526.0</ele><time>2026-03-28T11:13:59.805Z</time></trkpt><trkpt lat="40.0816309" lon="9.5958713"><ele>526.0</ele><time>2026-03-28T11:14:00.805Z</time></trkpt><trkpt lat="40.081574" lon="9.595768"><ele>524.6666666666667</ele><time>2026-03-28T11:14:01.8Z</time></trkpt><trkpt lat="40.0815254" lon="9.5956473"><ele>523.3333333333334</ele><time>2026-03-28T11:14:02.806Z</time></trkpt><trkpt lat="40.0814795" lon="9.595548"><ele>522.0</ele><time>2026-03-28T11:14:03.806Z</time></trkpt><trkpt lat="40.0814329" lon="9.5954668"><ele>520.6666666666666</ele><time>2026-03-28T11:14:04.803Z</time></trkpt><trkpt lat="40.0813728" lon="9.5954019"><ele>519.3333333333333</ele><time>2026-03-28T11:14:05.808Z</time></trkpt><trkpt lat="40.0812942" lon="9.5953433"><ele>518.0</ele><time>2026-03-28T11:14:06.802Z</time></trkpt><trkpt lat="40.081211" lon="9.5952744"><ele>518.0</ele><time>2026-03-28T11:14:07.809Z</time></trkpt><trkpt lat="40.0811261" lon="9.5952035"><ele>518.0</ele><time>2026-03-28T11:14:08.805Z</time></trkpt><trkpt lat="40.0810495" lon="9.5951852"><ele>518.0</ele><time>2026-03-28T11:14:09.798Z</time></trkpt><trkpt lat="40.0809811" lon="9.5951799"><ele>518.0</ele><time>2026-03-28T11:14:10.805Z</time></trkpt><trkpt lat="40.0808901" lon="9.5952129"><ele>518.0</ele><time>2026-03-28T11:14:12.807Z</time></trkpt><trkpt lat="40.0808325" lon="9.5952698"><ele>518.0</ele><time>2026-03-28T11:15:44.806Z</time></trkpt><trkpt lat="40.0807826" lon="9.5953367"><ele>518.5</ele><time>2026-03-28T11:15:46.805Z</time></trkpt><trkpt lat="40.0807417" lon="9.5954546"><ele>519.0</ele><time>2026-03-28T11:27:48.785Z</time></trkpt><trkpt lat="40.0807265" lon="9.5955607"><ele>519.5</ele><time>2026-03-28T11:27:50.816Z</time></trkpt><trkpt lat="40.0807289" lon="9.5956467"><ele>520.0</ele><time>2026-03-28T11:27:51.809Z</time></trkpt><trkpt lat="40.080725" lon="9.595742"><ele>520.5</ele><time>2026-03-28T11:27:52.811Z</time></trkpt><trkpt lat="40.0807215" lon="9.5958327"><ele>521.0</ele><time>2026-03-28T11:27:53.805Z</time></trkpt><trkpt lat="40.0807015" lon="9.5959159"><ele>521.0</ele><time>2026-03-28T11:27:54.813Z</time></trkpt><trkpt lat="40.0806731" lon="9.5960028"><ele>521.0</ele><time>2026-03-28T11:27:55.804Z</time></trkpt><trkpt lat="40.0806434" lon="9.596081"><ele>521.0</ele><time>2026-03-28T11:27:56.806Z</time></trkpt><trkpt lat="40.0805946" lon="9.5961578"><ele>521.0</ele><time>2026-03-28T11:27:57.809Z</time></trkpt><trkpt lat="40.0805243" lon="9.5962217"><ele>521.0</ele><time>2026-03-28T11:27:58.805Z</time></trkpt><trkpt lat="40.0804563" lon="9.5962957"><ele>521.0</ele><time>2026-03-28T11:27:59.805Z</time></trkpt><trkpt lat="40.0803906" lon="9.5963644"><ele>527.5</ele><time>2026-03-28T11:28:00.804Z</time></trkpt><trkpt lat="40.0803198" lon="9.596409"><ele>534.0</ele><time>2026-03-28T11:28:01.806Z</time></trkpt><trkpt lat="40.0802584" lon="9.5964349"><ele>540.5</ele><time>2026-03-28T11:28:02.813Z</time></trkpt><trkpt lat="40.0801867" lon="9.5964555"><ele>547.0</ele><time>2026-03-28T11:28:03.815Z</time></trkpt><trkpt lat="40.0800958" lon="9.5964507"><ele>553.5</ele><time>2026-03-28T11:28:04.809Z</time></trkpt><trkpt lat="40.0799972" lon="9.5964462"><ele>560.0</ele><time>2026-03-28T11:28:05.813Z</time></trkpt><trkpt lat="40.0799041" lon="9.5964314"><ele>560.0</ele><time>2026-03-28T11:28:06.812Z</time></trkpt><trkpt lat="40.0798216" lon="9.5964079"><ele>560.0</ele><time>2026-03-28T11:28:07.818Z</time></trkpt><trkpt lat="40.0797477" lon="9.5963912"><ele>560.0</ele><time>2026-03-28T11:28:08.813Z</time></trkpt><trkpt lat="40.0796683" lon="9.5963783"><ele>560.0</ele><time>2026-03-28T11:28:09.809Z</time></trkpt><trkpt lat="40.0795795" lon="9.5963979"><ele>560.0</ele><time>2026-03-28T11:28:10.81Z</time></trkpt><trkpt lat="40.0794783" lon="9.5964266"><ele>560.0</ele><time>2026-03-28T11:28:11.804Z</time></trkpt><trkpt lat="40.0793668" lon="9.5964804"><ele>560.0</ele><time>2026-03-28T11:28:12.81Z</time></trkpt><trkpt lat="40.0792651" lon="9.5965435"><ele>560.0</ele><time>2026-03-28T11:28:13.809Z</time></trkpt><trkpt lat="40.0791688" lon="9.5966056"><ele>560.0</ele><time>2026-03-28T11:28:14.808Z</time></trkpt><trkpt lat="40.0790866" lon="9.5966837"><ele>560.0</ele><time>2026-03-28T11:28:15.814Z</time></trkpt><trkpt lat="40.0790055" lon="9.5967625"><ele>560.0</ele><time>2026-03-28T11:28:16.808Z</time></trkpt><trkpt lat="40.0789089" lon="9.5968201"><ele>559.2</ele><time>2026-03-28T11:28:17.81Z</time></trkpt><trkpt lat="40.0788195" lon="9.5968584"><ele>558.4</ele><time>2026-03-28T11:28:18.809Z</time></trkpt><trkpt lat="40.0787374" lon="9.5968887"><ele>557.6</ele><time>2026-03-28T11:28:19.806Z</time></trkpt><trkpt lat="40.0786386" lon="9.5968766"><ele>556.8</ele><time>2026-03-28T11:28:20.806Z</time></trkpt><trkpt lat="40.078536" lon="9.596865"><ele>556.0</ele><time>2026-03-28T11:28:21.815Z</time></trkpt><trkpt lat="40.0784246" lon="9.5968174"><ele>556.0</ele><time>2026-03-28T11:28:22.805Z</time></trkpt><trkpt lat="40.0783105" lon="9.5967563"><ele>556.0</ele><time>2026-03-28T11:28:23.807Z</time></trkpt><trkpt lat="40.0782032" lon="9.5966942"><ele>556.0</ele><time>2026-03-28T11:28:24.811Z</time></trkpt><trkpt lat="40.0781193" lon="9.5966188"><ele>556.0</ele><time>2026-03-28T11:28:25.808Z</time></trkpt><trkpt lat="40.078045" lon="9.5965552"><ele>556.0</ele><time>2026-03-28T11:28:26.809Z</time></trkpt><trkpt lat="40.0779828" lon="9.5965146"><ele>553.0</ele><time>2026-03-28T11:28:27.805Z</time></trkpt><trkpt lat="40.0778799" lon="9.5965105"><ele>550.0</ele><time>2026-03-28T11:28:29.808Z</time></trkpt><trkpt lat="40.0777481" lon="9.5965937"><ele>547.0</ele><time>2026-03-28T11:28:31.807Z</time></trkpt><trkpt lat="40.0776537" lon="9.5966663"><ele>544.0</ele><time>2026-03-28T11:28:32.811Z</time></trkpt><trkpt lat="40.0775634" lon="9.5967243"><ele>544.0</ele><time>2026-03-28T11:28:33.812Z</time></trkpt><trkpt lat="40.0774773" lon="9.5967829"><ele>544.0</ele><time>2026-03-28T11:28:34.809Z</time></trkpt><trkpt lat="40.077398" lon="9.5968397"><ele>544.0</ele><time>2026-03-28T11:28:35.811Z</time></trkpt><trkpt lat="40.0773194" lon="9.5968938"><ele>544.0</ele><time>2026-03-28T11:28:36.808Z</time></trkpt><trkpt lat="40.0772397" lon="9.5969354"><ele>544.0</ele><time>2026-03-28T11:28:37.814Z</time></trkpt><trkpt lat="40.0771588" lon="9.5969657"><ele>544.0</ele><time>2026-03-28T11:28:38.806Z</time></trkpt><trkpt lat="40.0770888" lon="9.5969817"><ele>541.6666666666667</ele><time>2026-03-28T11:28:39.811Z</time></trkpt><trkpt lat="40.0769704" lon="9.5969669"><ele>539.3333333333334</ele><time>2026-03-28T11:28:41.812Z</time></trkpt><trkpt lat="40.0768669" lon="9.5968948"><ele>537.0</ele><time>2026-03-28T11:28:43.812Z</time></trkpt><trkpt lat="40.0768316" lon="9.5968196"><ele>534.6666666666666</ele><time>2026-03-28T11:28:44.812Z</time></trkpt><trkpt lat="40.0767814" lon="9.5967655"><ele>532.3333333333333</ele><time>2026-03-28T11:28:45.815Z</time></trkpt><trkpt lat="40.076723" lon="9.5967253"><ele>530.0</ele><time>2026-03-28T11:28:46.811Z</time></trkpt><trkpt lat="40.0766444" lon="9.5966991"><ele>528.3333333333333</ele><time>2026-03-28T11:28:47.809Z</time></trkpt><trkpt lat="40.0765621" lon="9.596677"><ele>526.6666666666666</ele><time>2026-03-28T11:28:48.814Z</time></trkpt><trkpt lat="40.0764806" lon="9.5966761"><ele>525.0</ele><time>2026-03-28T11:28:49.815Z</time></trkpt><trkpt lat="40.0763991" lon="9.5966698"><ele>523.3333333333334</ele><time>2026-03-28T11:28:50.805Z</time></trkpt><trkpt lat="40.076319" lon="9.5966653"><ele>521.6666666666667</ele><time>2026-03-28T11:28:51.81Z</time></trkpt><trkpt lat="40.0762233" lon="9.5966388"><ele>520.0</ele><time>2026-03-28T11:28:52.814Z</time></trkpt><trkpt lat="40.0761285" lon="9.5965938"><ele>520.0</ele><time>2026-03-28T11:28:53.811Z</time></trkpt><trkpt lat="40.0760347" lon="9.5965535"><ele>520.0</ele><time>2026-03-28T11:28:54.814Z</time></trkpt><trkpt lat="40.0759405" lon="9.5965096"><ele>520.0</ele><time>2026-03-28T11:28:55.814Z</time></trkpt><trkpt lat="40.0758464" lon="9.5964682"><ele>520.0</ele><time>2026-03-28T11:28:56.812Z</time></trkpt><trkpt lat="40.0757475" lon="9.596424"><ele>520.0</ele><time>2026-03-28T11:28:57.812Z</time></trkpt><trkpt lat="40.0756466" lon="9.5963809"><ele>515.0</ele><time>2026-03-28T11:28:58.809Z</time></trkpt><trkpt lat="40.075553" lon="9.596351"><ele>510.0</ele><time>2026-03-28T11:28:59.802Z</time></trkpt><trkpt lat="40.075466" lon="9.5963104"><ele>505.0</ele><time>2026-03-28T11:29:00.803Z</time></trkpt><trkpt lat="40.0753989" lon="9.5962645"><ele>500.0</ele><time>2026-03-28T11:29:01.806Z</time></trkpt><trkpt lat="40.0753397" lon="9.5961922"><ele>495.00000000000006</ele><time>2026-03-28T11:29:02.813Z</time></trkpt><trkpt lat="40.0752589" lon="9.5961599"><ele>490.0</ele><time>2026-03-28T11:29:04.805Z</time></trkpt><trkpt lat="40.0751932" lon="9.5962748"><ele>490.0</ele><time>2026-03-28T11:29:06.821Z</time></trkpt><trkpt lat="40.0751633" lon="9.5963737"><ele>490.0</ele><time>2026-03-28T11:29:07.804Z</time></trkpt><trkpt lat="40.0751194" lon="9.596481"><ele>490.0</ele><time>2026-03-28T11:29:08.802Z</time></trkpt><trkpt lat="40.0750678" lon="9.5965871"><ele>490.0</ele><time>2026-03-28T11:29:09.805Z</time></trkpt><trkpt lat="40.0750056" lon="9.5966964"><ele>490.0</ele><time>2026-03-28T11:29:10.805Z</time></trkpt><trkpt lat="40.0749459" lon="9.596802"><ele>485.4</ele><time>2026-03-28T11:29:11.804Z</time></trkpt><trkpt lat="40.0748694" lon="9.5968988"><ele>480.8</ele><time>2026-03-28T11:29:12.801Z</time></trkpt><trkpt lat="40.0747926" lon="9.5969957"><ele>476.20000000000005</ele><time>2026-03-28T11:29:13.806Z</time></trkpt><trkpt lat="40.0747164" lon="9.597088"><ele>471.6</ele><time>2026-03-28T11:29:14.807Z</time></trkpt><trkpt lat="40.074644" lon="9.5971684"><ele>467.0</ele><time>2026-03-28T11:29:15.805Z</time></trkpt><trkpt lat="40.0745706" lon="9.5972514"><ele>467.0</ele><time>2026-03-28T11:29:16.809Z</time></trkpt><trkpt lat="40.074494" lon="9.597336"><ele>467.0</ele><time>2026-03-28T11:29:17.811Z</time></trkpt><trkpt lat="40.074409" lon="9.5974359"><ele>467.0</ele><time>2026-03-28T11:29:18.811Z</time></trkpt><trkpt lat="40.0743071" lon="9.5975427"><ele>467.0</ele><time>2026-03-28T11:29:19.804Z</time></trkpt><trkpt lat="40.0742111" lon="9.5976447"><ele>467.0</ele><time>2026-03-28T11:29:20.809Z</time></trkpt><trkpt lat="40.0741208" lon="9.5977425"><ele>467.00000000000006</ele><time>2026-03-28T11:29:21.805Z</time></trkpt><trkpt lat="40.0740373" lon="9.5978398"><ele>467.00000000000006</ele><time>2026-03-28T11:29:22.809Z</time></trkpt><trkpt lat="40.0739646" lon="9.5979275"><ele>467.0</ele><time>2026-03-28T11:29:23.81Z</time></trkpt><trkpt lat="40.0738984" lon="9.5980074"><ele>467.0</ele><time>2026-03-28T11:29:24.802Z</time></trkpt><trkpt lat="40.0738346" lon="9.5980715"><ele>466.3333333333333</ele><time>2026-03-28T11:29:25.81Z</time></trkpt><trkpt lat="40.0737543" lon="9.598115"><ele>465.66666666666663</ele><time>2026-03-28T11:29:26.805Z</time></trkpt><trkpt lat="40.0736681" lon="9.5981613"><ele>465.0</ele><time>2026-03-28T11:29:27.811Z</time></trkpt><trkpt lat="40.0735906" lon="9.5982028"><ele>464.33333333333337</ele><time>2026-03-28T11:29:28.806Z</time></trkpt><trkpt lat="40.073514" lon="9.5982555"><ele>463.6666666666667</ele><time>2026-03-28T11:29:29.803Z</time></trkpt><trkpt lat="40.0734386" lon="9.5983359"><ele>463.0</ele><time>2026-03-28T11:29:30.809Z</time></trkpt><trkpt lat="40.0733657" lon="9.5984055"><ele>463.00000000000006</ele><time>2026-03-28T11:29:31.808Z</time></trkpt><trkpt lat="40.0733078" lon="9.5984495"><ele>463.0</ele><time>2026-03-28T11:29:32.808Z</time></trkpt><trkpt lat="40.0731733" lon="9.5984873"><ele>463.0</ele><time>2026-03-28T11:29:34.808Z</time></trkpt><trkpt lat="40.0730865" lon="9.5984976"><ele>463.0</ele><time>2026-03-28T11:29:35.809Z</time></trkpt><trkpt lat="40.0730087" lon="9.5985182"><ele>463.00000000000006</ele><time>2026-03-28T11:29:36.812Z</time></trkpt><trkpt lat="40.0729392" lon="9.5985434"><ele>463.0</ele><time>2026-03-28T11:29:37.802Z</time></trkpt><trkpt lat="40.0728487" lon="9.5985986"><ele>466.50000000000006</ele><time>2026-03-28T11:29:39.805Z</time></trkpt><trkpt lat="40.0727757" lon="9.5985293"><ele>470.0</ele><time>2026-03-28T11:29:42.807Z</time></trkpt><trkpt lat="40.0727558" lon="9.5983505"><ele>473.5</ele><time>2026-03-28T11:29:44.806Z</time></trkpt><trkpt lat="40.0727526" lon="9.5982576"><ele>477.0</ele><time>2026-03-28T11:29:45.805Z</time></trkpt><trkpt lat="40.0727339" lon="9.5981683"><ele>480.50000000000006</ele><time>2026-03-28T11:29:46.804Z</time></trkpt><trkpt lat="40.0726988" lon="9.5980886"><ele>484.0</ele><time>2026-03-28T11:29:47.807Z</time></trkpt><trkpt lat="40.0726535" lon="9.5980032"><ele>484.0</ele><time>2026-03-28T11:29:48.801Z</time></trkpt><trkpt lat="40.072597" lon="9.5979063"><ele>484.0</ele><time>2026-03-28T11:29:49.809Z</time></trkpt><trkpt lat="40.0725314" lon="9.597803"><ele>484.0</ele><time>2026-03-28T11:29:50.808Z</time></trkpt><trkpt lat="40.0724586" lon="9.5976683"><ele>484.0</ele><time>2026-03-28T11:29:51.807Z</time></trkpt><trkpt lat="40.0723949" lon="9.5975252"><ele>484.0</ele><time>2026-03-28T11:29:52.805Z</time></trkpt><trkpt lat="40.072333" lon="9.5973947"><ele>486.6</ele><time>2026-03-28T11:29:53.805Z</time></trkpt><trkpt lat="40.0722761" lon="9.5972797"><ele>489.2</ele><time>2026-03-28T11:29:54.81Z</time></trkpt><trkpt lat="40.0722053" lon="9.5971917"><ele>491.80000000000007</ele><time>2026-03-28T11:29:55.814Z</time></trkpt><trkpt lat="40.0721204" lon="9.5971195"><ele>494.40000000000003</ele><time>2026-03-28T11:29:56.807Z</time></trkpt><trkpt lat="40.0720323" lon="9.5970487"><ele>497.0</ele><time>2026-03-28T11:29:57.811Z</time></trkpt><trkpt lat="40.0719192" lon="9.596992"><ele>496.99999999999994</ele><time>2026-03-28T11:29:58.81Z</time></trkpt><trkpt lat="40.0718257" lon="9.5969522"><ele>497.0</ele><time>2026-03-28T11:29:59.807Z</time></trkpt><trkpt lat="40.0717619" lon="9.5969392"><ele>497.0</ele><time>2026-03-28T11:30:00.816Z</time></trkpt><trkpt lat="40.0716707" lon="9.5970204"><ele>497.0</ele><time>2026-03-28T11:30:02.81Z</time></trkpt><trkpt lat="40.0716227" lon="9.5970941"><ele>496.99999999999994</ele><time>2026-03-28T11:30:03.808Z</time></trkpt><trkpt lat="40.071589" lon="9.5972166"><ele>497.0</ele><time>2026-03-28T11:30:04.807Z</time></trkpt><trkpt lat="40.0715363" lon="9.5973551"><ele>497.0</ele><time>2026-03-28T11:30:05.81Z</time></trkpt><trkpt lat="40.0714746" lon="9.5975189"><ele>497.0</ele><time>2026-03-28T11:30:06.813Z</time></trkpt><trkpt lat="40.0714184" lon="9.5976949"><ele>497.0</ele><time>2026-03-28T11:30:07.813Z</time></trkpt><trkpt lat="40.0713597" lon="9.597863"><ele>497.0</ele><time>2026-03-28T11:30:08.805Z</time></trkpt><trkpt lat="40.0713015" lon="9.5980291"><ele>497.0</ele><time>2026-03-28T11:30:09.81Z</time></trkpt><trkpt lat="40.0712456" lon="9.5981962"><ele>497.0</ele><time>2026-03-28T11:30:10.809Z</time></trkpt><trkpt lat="40.0711941" lon="9.5983559"><ele>497.0</ele><time>2026-03-28T11:30:11.809Z</time></trkpt><trkpt lat="40.0711489" lon="9.5984969"><ele>497.0</ele><time>2026-03-28T11:30:12.81Z</time></trkpt><trkpt lat="40.0711091" lon="9.5986174"><ele>501.40000000000003</ele><time>2026-03-28T11:30:13.809Z</time></trkpt><trkpt lat="40.0710695" lon="9.5987024"><ele>505.80000000000007</ele><time>2026-03-28T11:30:14.805Z</time></trkpt><trkpt lat="40.0710103" lon="9.5987736"><ele>510.2</ele><time>2026-03-28T11:30:15.805Z</time></trkpt><trkpt lat="40.0709313" lon="9.5988435"><ele>514.6</ele><time>2026-03-28T11:30:16.812Z</time></trkpt><trkpt lat="40.0708448" lon="9.5989238"><ele>519.0</ele><time>2026-03-28T11:30:17.808Z</time></trkpt><trkpt lat="40.0707494" lon="9.5989939"><ele>519.0</ele><time>2026-03-28T11:30:18.808Z</time></trkpt><trkpt lat="40.0706196" lon="9.5990296"><ele>519.0</ele><time>2026-03-28T11:30:19.812Z</time></trkpt><trkpt lat="40.0704825" lon="9.5990782"><ele>519.0</ele><time>2026-03-28T11:30:20.81Z</time></trkpt><trkpt lat="40.070365" lon="9.5991261"><ele>519.0</ele><time>2026-03-28T11:30:21.808Z</time></trkpt><trkpt lat="40.0702639" lon="9.599197"><ele>519.0</ele><time>2026-03-28T11:30:22.803Z</time></trkpt><trkpt lat="40.0701732" lon="9.5992475"><ele>519.0</ele><time>2026-03-28T11:30:23.809Z</time></trkpt><trkpt lat="40.0700862" lon="9.5992708"><ele>519.0</ele><time>2026-03-28T11:30:24.813Z</time></trkpt><trkpt lat="40.0699931" lon="9.5992971"><ele>519.0</ele><time>2026-03-28T11:30:25.806Z</time></trkpt><trkpt lat="40.0698944" lon="9.5993159"><ele>519.0</ele><time>2026-03-28T11:30:26.82Z</time></trkpt><trkpt lat="40.0698033" lon="9.5993679"><ele>522.5</ele><time>2026-03-28T11:30:27.811Z</time></trkpt><trkpt lat="40.0697119" lon="9.5994303"><ele>526.0</ele><time>2026-03-28T11:30:28.804Z</time></trkpt><trkpt lat="40.0696256" lon="9.5995461"><ele>529.5</ele><time>2026-03-28T11:30:29.813Z</time></trkpt><trkpt lat="40.0695285" lon="9.5996604"><ele>533.0</ele><time>2026-03-28T11:30:30.809Z</time></trkpt><trkpt lat="40.069442" lon="9.599782"><ele>533.0</ele><time>2026-03-28T11:30:31.811Z</time></trkpt><trkpt lat="40.0693561" lon="9.5998975"><ele>533.0</ele><time>2026-03-28T11:30:32.808Z</time></trkpt><trkpt lat="40.0692647" lon="9.5999819"><ele>533.0</ele><time>2026-03-28T11:30:33.803Z</time></trkpt><trkpt lat="40.0691845" lon="9.6000616"><ele>533.0</ele><time>2026-03-28T11:30:34.81Z</time></trkpt><trkpt lat="40.0691114" lon="9.6001396"><ele>533.0</ele><time>2026-03-28T11:30:35.815Z</time></trkpt><trkpt lat="40.0690624" lon="9.6002418"><ele>528.4285714285714</ele><time>2026-03-28T11:30:36.809Z</time></trkpt><trkpt lat="40.0690346" lon="9.6003222"><ele>523.8571428571428</ele><time>2026-03-28T11:30:37.806Z</time></trkpt><trkpt lat="40.0689954" lon="9.6004249"><ele>519.2857142857142</ele><time>2026-03-28T11:30:39.815Z</time></trkpt><trkpt lat="40.0689468" lon="9.6004948"><ele>514.7142857142857</ele><time>2026-03-28T11:31:02.827Z</time></trkpt><trkpt lat="40.0689322" lon="9.6005799"><ele>510.1428571428571</ele><time>2026-03-28T11:31:03.817Z</time></trkpt><trkpt lat="40.0689167" lon="9.6006754"><ele>505.57142857142856</ele><time>2026-03-28T11:31:04.804Z</time></trkpt><trkpt lat="40.0689063" lon="9.6007725"><ele>501.0</ele><time>2026-03-28T11:31:05.802Z</time></trkpt><trkpt lat="40.0688928" lon="9.60087"><ele>501.0</ele><time>2026-03-28T11:31:06.81Z</time></trkpt><trkpt lat="40.068881" lon="9.6009598"><ele>501.0</ele><time>2026-03-28T11:31:07.802Z</time></trkpt><trkpt lat="40.0688693" lon="9.6010457"><ele>501.0</ele><time>2026-03-28T11:31:08.807Z</time></trkpt><trkpt lat="40.0688579" lon="9.6011327"><ele>501.0</ele><time>2026-03-28T11:31:09.81Z</time></trkpt><trkpt lat="40.0688052" lon="9.6012885"><ele>501.0</ele><time>2026-03-28T11:31:11.807Z</time></trkpt><trkpt lat="40.0687667" lon="9.6013744"><ele>501.0</ele><time>2026-03-28T11:31:12.805Z</time></trkpt><trkpt lat="40.0687458" lon="9.6014702"><ele>503.8333333333333</ele><time>2026-03-28T11:31:13.811Z</time></trkpt><trkpt lat="40.0687325" lon="9.6015572"><ele>506.66666666666663</ele><time>2026-03-28T11:31:14.806Z</time></trkpt><trkpt lat="40.0686663" lon="9.6016691"><ele>509.5</ele><time>2026-03-28T11:31:16.805Z</time></trkpt><trkpt lat="40.0685881" lon="9.6016953"><ele>512.3333333333333</ele><time>2026-03-28T11:31:17.805Z</time></trkpt><trkpt lat="40.0685023" lon="9.601731"><ele>515.1666666666666</ele><time>2026-03-28T11:31:18.811Z</time></trkpt><trkpt lat="40.0684187" lon="9.6017648"><ele>518.0</ele><time>2026-03-28T11:31:19.798Z</time></trkpt><trkpt lat="40.0683321" lon="9.601792"><ele>512.6</ele><time>2026-03-28T11:31:20.804Z</time></trkpt><trkpt lat="40.068244" lon="9.6018116"><ele>507.19999999999993</ele><time>2026-03-28T11:31:21.805Z</time></trkpt><trkpt lat="40.0681762" lon="9.6018279"><ele>501.8</ele><time>2026-03-28T11:31:22.801Z</time></trkpt><trkpt lat="40.068098" lon="9.6018942"><ele>496.4</ele><time>2026-03-28T11:31:24.802Z</time></trkpt><trkpt lat="40.0680511" lon="9.6020582"><ele>491.0</ele><time>2026-03-28T11:31:26.816Z</time></trkpt><trkpt lat="40.0679988" lon="9.6022017"><ele>491.0</ele><time>2026-03-28T11:31:27.807Z</time></trkpt><trkpt lat="40.067952" lon="9.602338"><ele>491.0</ele><time>2026-03-28T11:31:28.809Z</time></trkpt><trkpt lat="40.067917" lon="9.6024772"><ele>491.0</ele><time>2026-03-28T11:31:29.81Z</time></trkpt><trkpt lat="40.0678895" lon="9.602598"><ele>491.0</ele><time>2026-03-28T11:31:30.808Z</time></trkpt><trkpt lat="40.0678538" lon="9.6027104"><ele>491.0</ele><time>2026-03-28T11:31:31.81Z</time></trkpt><trkpt lat="40.0678059" lon="9.6028107"><ele>488.75</ele><time>2026-03-28T11:31:32.809Z</time></trkpt><trkpt lat="40.067722" lon="9.6028798"><ele>486.5</ele><time>2026-03-28T11:31:33.81Z</time></trkpt><trkpt lat="40.0676087" lon="9.602949"><ele>484.25</ele><time>2026-03-28T11:31:34.806Z</time></trkpt><trkpt lat="40.06749" lon="9.6029798"><ele>482.0</ele><time>2026-03-28T11:31:35.808Z</time></trkpt><trkpt lat="40.0673833" lon="9.6030257"><ele>482.0</ele><time>2026-03-28T11:31:36.812Z</time></trkpt><trkpt lat="40.0672767" lon="9.6030907"><ele>482.0</ele><time>2026-03-28T11:31:37.811Z</time></trkpt><trkpt lat="40.0671646" lon="9.6031604"><ele>482.0</ele><time>2026-03-28T11:31:38.81Z</time></trkpt><trkpt lat="40.0670555" lon="9.6032486"><ele>482.0</ele><time>2026-03-28T11:31:39.811Z</time></trkpt><trkpt lat="40.0669602" lon="9.6033278"><ele>482.0</ele><time>2026-03-28T11:31:40.811Z</time></trkpt><trkpt lat="40.066887" lon="9.6034136"><ele>482.0</ele><time>2026-03-28T11:31:41.805Z</time></trkpt><trkpt lat="40.0668085" lon="9.6035035"><ele>482.0</ele><time>2026-03-28T11:31:42.809Z</time></trkpt><trkpt lat="40.0667411" lon="9.603624"><ele>482.0</ele><time>2026-03-28T11:31:43.809Z</time></trkpt><trkpt lat="40.0666786" lon="9.6037817"><ele>477.6</ele><time>2026-03-28T11:31:44.805Z</time></trkpt><trkpt lat="40.0666319" lon="9.6039299"><ele>473.20000000000005</ele><time>2026-03-28T11:31:45.806Z</time></trkpt><trkpt lat="40.0665856" lon="9.604063"><ele>468.8</ele><time>2026-03-28T11:31:46.813Z</time></trkpt><trkpt lat="40.0665422" lon="9.6041682"><ele>464.4</ele><time>2026-03-28T11:31:47.804Z</time></trkpt><trkpt lat="40.0664828" lon="9.6042797"><ele>460.0</ele><time>2026-03-28T11:31:48.809Z</time></trkpt><trkpt lat="40.0664052" lon="9.604403"><ele>465.25</ele><time>2026-03-28T11:31:49.801Z</time></trkpt><trkpt lat="40.0663159" lon="9.6045369"><ele>470.5</ele><time>2026-03-28T11:31:50.802Z</time></trkpt><trkpt lat="40.0662251" lon="9.6046724"><ele>475.75</ele><time>2026-03-28T11:31:51.802Z</time></trkpt><trkpt lat="40.0661388" lon="9.6047974"><ele>481.0</ele><time>2026-03-28T11:31:52.801Z</time></trkpt><trkpt lat="40.0660656" lon="9.604915"><ele>481.0</ele><time>2026-03-28T11:31:53.806Z</time></trkpt><trkpt lat="40.0660004" lon="9.6050109"><ele>481.0</ele><time>2026-03-28T11:31:54.8Z</time></trkpt><trkpt lat="40.0659484" lon="9.6051087"><ele>481.0</ele><time>2026-03-28T11:31:55.808Z</time></trkpt><trkpt lat="40.0659176" lon="9.6052348"><ele>481.0</ele><time>2026-03-28T11:31:56.811Z</time></trkpt><trkpt lat="40.0659165" lon="9.605325"><ele>481.0</ele><time>2026-03-28T11:31:57.806Z</time></trkpt><trkpt lat="40.0659432" lon="9.6054809"><ele>482.8</ele><time>2026-03-28T11:31:59.809Z</time></trkpt><trkpt lat="40.0659825" lon="9.6055885"><ele>484.6</ele><time>2026-03-28T11:32:00.821Z</time></trkpt><trkpt lat="40.0660075" lon="9.6057283"><ele>486.4</ele><time>2026-03-28T11:32:01.807Z</time></trkpt><trkpt lat="40.0660342" lon="9.6058808"><ele>488.2</ele><time>2026-03-28T11:32:02.809Z</time></trkpt><trkpt lat="40.0660863" lon="9.6060327"><ele>490.0</ele><time>2026-03-28T11:32:03.807Z</time></trkpt><trkpt lat="40.0661318" lon="9.6061854"><ele>492.0</ele><time>2026-03-28T11:32:04.811Z</time></trkpt><trkpt lat="40.0661663" lon="9.6063204"><ele>494.0</ele><time>2026-03-28T11:32:05.802Z</time></trkpt><trkpt lat="40.0661948" lon="9.6064459"><ele>496.0</ele><time>2026-03-28T11:32:07.806Z</time></trkpt><trkpt lat="40.0662183" lon="9.6065404"><ele>498.0</ele><time>2026-03-28T11:32:09.817Z</time></trkpt><trkpt lat="40.0662527" lon="9.6066215"><ele>500.0</ele><time>2026-03-28T11:32:36.812Z</time></trkpt><trkpt lat="40.0662699" lon="9.6067704"><ele>499.99999999999994</ele><time>2026-03-28T11:32:38.808Z</time></trkpt><trkpt lat="40.0662923" lon="9.6068901"><ele>500.0</ele><time>2026-03-28T11:32:39.801Z</time></trkpt><trkpt lat="40.0663216" lon="9.6070104"><ele>500.0</ele><time>2026-03-28T11:32:40.801Z</time></trkpt><trkpt lat="40.0663594" lon="9.6071111"><ele>500.0</ele><time>2026-03-28T11:32:41.81Z</time></trkpt><trkpt lat="40.0663867" lon="9.6072049"><ele>499.99999999999994</ele><time>2026-03-28T11:32:42.81Z</time></trkpt><trkpt lat="40.0663707" lon="9.6073179"><ele>500.0</ele><time>2026-03-28T11:32:44.802Z</time></trkpt><trkpt lat="40.0662817" lon="9.6073951"><ele>503.8</ele><time>2026-03-28T11:32:46.813Z</time></trkpt><trkpt lat="40.0662001" lon="9.607432"><ele>507.6</ele><time>2026-03-28T11:32:47.805Z</time></trkpt><trkpt lat="40.0661139" lon="9.6074687"><ele>511.4</ele><time>2026-03-28T11:32:48.813Z</time></trkpt><trkpt lat="40.0660313" lon="9.6075313"><ele>515.2</ele><time>2026-03-28T11:32:49.81Z</time></trkpt><trkpt lat="40.0659459" lon="9.6076043"><ele>519.0</ele><time>2026-03-28T11:32:50.806Z</time></trkpt><trkpt lat="40.065859" lon="9.6076806"><ele>522.8</ele><time>2026-03-28T11:32:51.807Z</time></trkpt><trkpt lat="40.0657772" lon="9.6077614"><ele>526.5999999999999</ele><time>2026-03-28T11:32:52.809Z</time></trkpt><trkpt lat="40.0657159" lon="9.6078411"><ele>530.4</ele><time>2026-03-28T11:32:53.815Z</time></trkpt><trkpt lat="40.0656684" lon="9.6078995"><ele>534.1999999999999</ele><time>2026-03-28T11:32:54.807Z</time></trkpt><trkpt lat="40.0655706" lon="9.6079368"><ele>538.0</ele><time>2026-03-28T11:32:56.8Z</time></trkpt><trkpt lat="40.0654624" lon="9.607842"><ele>538.0</ele><time>2026-03-28T11:32:58.806Z</time></trkpt><trkpt lat="40.0654075" lon="9.6077502"><ele>538.0</ele><time>2026-03-28T11:32:59.806Z</time></trkpt><trkpt lat="40.0653423" lon="9.6076656"><ele>538.0</ele><time>2026-03-28T11:33:00.804Z</time></trkpt><trkpt lat="40.0652671" lon="9.6076193"><ele>538.0</ele><time>2026-03-28T11:33:01.807Z</time></trkpt><trkpt lat="40.0651855" lon="9.6075992"><ele>538.0</ele><time>2026-03-28T11:33:02.811Z</time></trkpt><trkpt lat="40.065102" lon="9.6075868"><ele>538.0</ele><time>2026-03-28T11:33:03.804Z</time></trkpt><trkpt lat="40.0650384" lon="9.6075663"><ele>538.0</ele><time>2026-03-28T11:33:04.805Z</time></trkpt><trkpt lat="40.06498" lon="9.6074554"><ele>538.0</ele><time>2026-03-28T11:33:06.805Z</time></trkpt><trkpt lat="40.0649344" lon="9.6073078"><ele>538.0</ele><time>2026-03-28T11:33:08.804Z</time></trkpt><trkpt lat="40.0648797" lon="9.607244"><ele>538.0</ele><time>2026-03-28T11:33:09.806Z</time></trkpt><trkpt lat="40.0648127" lon="9.6071702"><ele>538.0</ele><time>2026-03-28T11:33:10.802Z</time></trkpt><trkpt lat="40.0647129" lon="9.6070982"><ele>539.75</ele><time>2026-03-28T11:33:11.803Z</time></trkpt><trkpt lat="40.0646052" lon="9.6070237"><ele>541.5</ele><time>2026-03-28T11:33:12.801Z</time></trkpt><trkpt lat="40.0644988" lon="9.6069464"><ele>543.25</ele><time>2026-03-28T11:33:13.803Z</time></trkpt><trkpt lat="40.0643877" lon="9.6068662"><ele>545.0</ele><time>2026-03-28T11:33:14.804Z</time></trkpt><trkpt lat="40.0642701" lon="9.6067887"><ele>545.0</ele><time>2026-03-28T11:33:15.804Z</time></trkpt><trkpt lat="40.0641418" lon="9.6067262"><ele>545.0</ele><time>2026-03-28T11:33:16.81Z</time></trkpt><trkpt lat="40.0640123" lon="9.6066639"><ele>545.0</ele><time>2026-03-28T11:33:17.803Z</time></trkpt><trkpt lat="40.0638795" lon="9.6066146"><ele>545.0</ele><time>2026-03-28T11:33:18.81Z</time></trkpt><trkpt lat="40.0637646" lon="9.6065855"><ele>551.25</ele><time>2026-03-28T11:33:19.802Z</time></trkpt><trkpt lat="40.0636527" lon="9.6065564"><ele>557.5</ele><time>2026-03-28T11:33:20.801Z</time></trkpt><trkpt lat="40.0635429" lon="9.6065351"><ele>563.75</ele><time>2026-03-28T11:33:21.809Z</time></trkpt><trkpt lat="40.0634295" lon="9.6065168"><ele>570.0</ele><time>2026-03-28T11:33:22.801Z</time></trkpt><trkpt lat="40.0633057" lon="9.6065028"><ele>574.2</ele><time>2026-03-28T11:33:23.806Z</time></trkpt><trkpt lat="40.0632009" lon="9.6064904"><ele>578.4</ele><time>2026-03-28T11:33:24.806Z</time></trkpt><trkpt lat="40.0631105" lon="9.6064832"><ele>582.6</ele><time>2026-03-28T11:33:25.805Z</time></trkpt><trkpt lat="40.0630401" lon="9.6064587"><ele>586.8</ele><time>2026-03-28T11:33:26.805Z</time></trkpt><trkpt lat="40.0629522" lon="9.6063657"><ele>591.0</ele><time>2026-03-28T11:33:28.808Z</time></trkpt><trkpt lat="40.062924" lon="9.6061905"><ele>587.4</ele><time>2026-03-28T11:33:30.805Z</time></trkpt><trkpt lat="40.0629215" lon="9.6060518"><ele>583.8</ele><time>2026-03-28T11:33:31.803Z</time></trkpt><trkpt lat="40.0629149" lon="9.6059182"><ele>580.1999999999999</ele><time>2026-03-28T11:33:32.811Z</time></trkpt><trkpt lat="40.0629056" lon="9.6058175"><ele>576.6</ele><time>2026-03-28T11:33:33.805Z</time></trkpt><trkpt lat="40.0628754" lon="9.6057211"><ele>573.0</ele><time>2026-03-28T11:33:34.802Z</time></trkpt><trkpt lat="40.0628328" lon="9.6056132"><ele>573.0</ele><time>2026-03-28T11:33:35.805Z</time></trkpt><trkpt lat="40.0627986" lon="9.6054954"><ele>573.0</ele><time>2026-03-28T11:33:36.805Z</time></trkpt><trkpt lat="40.0627882" lon="9.6053697"><ele>573.0</ele><time>2026-03-28T11:33:37.803Z</time></trkpt><trkpt lat="40.0627923" lon="9.6052678"><ele>573.0</ele><time>2026-03-28T11:33:38.805Z</time></trkpt><trkpt lat="40.0627278" lon="9.6052361"><ele>573.0</ele><time>2026-03-28T11:33:42.81Z</time></trkpt><trkpt lat="40.0626607" lon="9.605376"><ele>573.0</ele><time>2026-03-28T11:33:44.813Z</time></trkpt><trkpt lat="40.0626209" lon="9.6054607"><ele>573.0</ele><time>2026-03-28T11:33:45.812Z</time></trkpt><trkpt lat="40.0625755" lon="9.6055577"><ele>573.0</ele><time>2026-03-28T11:33:46.815Z</time></trkpt><trkpt lat="40.0625203" lon="9.6056677"><ele>573.0</ele><time>2026-03-28T11:33:47.811Z</time></trkpt><trkpt lat="40.0624619" lon="9.605772"><ele>573.0</ele><time>2026-03-28T11:33:48.809Z</time></trkpt><trkpt lat="40.0624171" lon="9.6058615"><ele>573.0</ele><time>2026-03-28T11:33:49.812Z</time></trkpt><trkpt lat="40.0623886" lon="9.605963"><ele>574.0</ele><time>2026-03-28T11:33:50.812Z</time></trkpt><trkpt lat="40.0623664" lon="9.6060753"><ele>575.0</ele><time>2026-03-28T11:33:51.803Z</time></trkpt><trkpt lat="40.0623437" lon="9.6061805"><ele>576.0</ele><time>2026-03-28T11:33:52.81Z</time></trkpt><trkpt lat="40.0623324" lon="9.6062788"><ele>577.0</ele><time>2026-03-28T11:33:53.812Z</time></trkpt><trkpt lat="40.0623171" lon="9.6063654"><ele>578.0</ele><time>2026-03-28T11:33:54.81Z</time></trkpt><trkpt lat="40.0622801" lon="9.6064443"><ele>579.0</ele><time>2026-03-28T11:33:55.82Z</time></trkpt><trkpt lat="40.0622194" lon="9.6065167"><ele>579.0</ele><time>2026-03-28T11:33:56.807Z</time></trkpt><trkpt lat="40.0621538" lon="9.6065844"><ele>579.0</ele><time>2026-03-28T11:33:57.811Z</time></trkpt><trkpt lat="40.0620754" lon="9.6066386"><ele>579.0</ele><time>2026-03-28T11:33:58.804Z</time></trkpt><trkpt lat="40.0619945" lon="9.6067091"><ele>579.0</ele><time>2026-03-28T11:33:59.807Z</time></trkpt><trkpt lat="40.0619249" lon="9.6067725"><ele>579.0</ele><time>2026-03-28T11:34:00.811Z</time></trkpt><trkpt lat="40.0618781" lon="9.606858"><ele>579.0</ele><time>2026-03-28T11:34:01.807Z</time></trkpt><trkpt lat="40.0618443" lon="9.606969"><ele>584.0</ele><time>2026-03-28T11:34:02.809Z</time></trkpt><trkpt lat="40.0618106" lon="9.6070866"><ele>589.0</ele><time>2026-03-28T11:34:03.813Z</time></trkpt><trkpt lat="40.0617891" lon="9.6072108"><ele>594.0</ele><time>2026-03-28T11:34:04.808Z</time></trkpt><trkpt lat="40.061769" lon="9.6073108"><ele>599.0</ele><time>2026-03-28T11:34:05.815Z</time></trkpt><trkpt lat="40.0617453" lon="9.6074044"><ele>604.0</ele><time>2026-03-28T11:34:06.807Z</time></trkpt><trkpt lat="40.0616959" lon="9.6074884"><ele>609.0</ele><time>2026-03-28T11:34:07.808Z</time></trkpt><trkpt lat="40.0616197" lon="9.6075806"><ele>606.2</ele><time>2026-03-28T11:34:08.808Z</time></trkpt><trkpt lat="40.0615497" lon="9.6076574"><ele>603.4</ele><time>2026-03-28T11:34:09.811Z</time></trkpt><trkpt lat="40.061479" lon="9.6077366"><ele>600.6</ele><time>2026-03-28T11:34:10.805Z</time></trkpt><trkpt lat="40.0614087" lon="9.6078186"><ele>597.8</ele><time>2026-03-28T11:34:11.808Z</time></trkpt><trkpt lat="40.0613385" lon="9.6078951"><ele>595.0</ele><time>2026-03-28T11:34:12.816Z</time></trkpt><trkpt lat="40.0612399" lon="9.6079564"><ele>604.0</ele><time>2026-03-28T11:34:13.81Z</time></trkpt><trkpt lat="40.0611283" lon="9.6080165"><ele>613.0</ele><time>2026-03-28T11:34:14.805Z</time></trkpt><trkpt lat="40.0610073" lon="9.6080893"><ele>622.0</ele><time>2026-03-28T11:34:15.814Z</time></trkpt><trkpt lat="40.0609039" lon="9.6081483"><ele>631.0</ele><time>2026-03-28T11:34:16.802Z</time></trkpt><trkpt lat="40.0608168" lon="9.6081947"><ele>629.6666666666667</ele><time>2026-03-28T11:34:17.812Z</time></trkpt><trkpt lat="40.0607483" lon="9.6082234"><ele>628.3333333333334</ele><time>2026-03-28T11:34:18.814Z</time></trkpt><trkpt lat="40.0606675" lon="9.6082388"><ele>627.0</ele><time>2026-03-28T11:34:19.816Z</time></trkpt><trkpt lat="40.0605841" lon="9.6082492"><ele>625.6666666666666</ele><time>2026-03-28T11:34:20.813Z</time></trkpt><trkpt lat="40.0605144" lon="9.6082546"><ele>624.3333333333333</ele><time>2026-03-28T11:34:21.813Z</time></trkpt><trkpt lat="40.0604137" lon="9.6081875"><ele>623.0</ele><time>2026-03-28T11:34:23.81Z</time></trkpt><trkpt lat="40.0603493" lon="9.6081806"><ele>623.0</ele><time>2026-03-28T11:34:24.811Z</time></trkpt><trkpt lat="40.0602522" lon="9.6082187"><ele>623.0</ele><time>2026-03-28T11:34:25.814Z</time></trkpt><trkpt lat="40.0601411" lon="9.6082757"><ele>623.0</ele><time>2026-03-28T11:34:26.814Z</time></trkpt><trkpt lat="40.0600452" lon="9.6083307"><ele>623.0</ele><time>2026-03-28T11:34:27.811Z</time></trkpt><trkpt lat="40.0599804" lon="9.6083925"><ele>623.0</ele><time>2026-03-28T11:34:28.811Z</time></trkpt><trkpt lat="40.0599296" lon="9.608459"><ele>626.4</ele><time>2026-03-28T11:34:29.81Z</time></trkpt><trkpt lat="40.0598673" lon="9.6085362"><ele>629.8</ele><time>2026-03-28T11:34:30.813Z</time></trkpt><trkpt lat="40.0597803" lon="9.6085975"><ele>633.2</ele><time>2026-03-28T11:34:31.809Z</time></trkpt><trkpt lat="40.0596951" lon="9.6086457"><ele>636.6</ele><time>2026-03-28T11:34:32.808Z</time></trkpt><trkpt lat="40.0595939" lon="9.6086531"><ele>640.0</ele><time>2026-03-28T11:34:33.812Z</time></trkpt><trkpt lat="40.0594861" lon="9.6086755"><ele>640.0</ele><time>2026-03-28T11:34:34.808Z</time></trkpt><trkpt lat="40.0593831" lon="9.6087029"><ele>640.0</ele><time>2026-03-28T11:34:35.812Z</time></trkpt><trkpt lat="40.0592789" lon="9.6087673"><ele>640.0</ele><time>2026-03-28T11:34:36.806Z</time></trkpt><trkpt lat="40.059183" lon="9.6088283"><ele>640.0</ele><time>2026-03-28T11:34:37.81Z</time></trkpt><trkpt lat="40.0590946" lon="9.6088851"><ele>640.0</ele><time>2026-03-28T11:34:38.812Z</time></trkpt><trkpt lat="40.0590094" lon="9.6089298"><ele>634.0</ele><time>2026-03-28T11:34:39.81Z</time></trkpt><trkpt lat="40.0589279" lon="9.6089771"><ele>628.0</ele><time>2026-03-28T11:34:40.81Z</time></trkpt><trkpt lat="40.0588505" lon="9.6090165"><ele>622.0</ele><time>2026-03-28T11:34:41.813Z</time></trkpt><trkpt lat="40.0587775" lon="9.6090402"><ele>616.0</ele><time>2026-03-28T11:34:42.811Z</time></trkpt><trkpt lat="40.058697" lon="9.6090382"><ele>610.0</ele><time>2026-03-28T11:34:43.805Z</time></trkpt><trkpt lat="40.0586167" lon="9.6090446"><ele>604.0</ele><time>2026-03-28T11:34:44.811Z</time></trkpt><trkpt lat="40.0585465" lon="9.6090676"><ele>604.0</ele><time>2026-03-28T11:34:45.812Z</time></trkpt><trkpt lat="40.0584735" lon="9.6090978"><ele>604.0</ele><time>2026-03-28T11:34:46.805Z</time></trkpt><trkpt lat="40.058399" lon="9.6091355"><ele>604.0</ele><time>2026-03-28T11:34:47.808Z</time></trkpt><trkpt lat="40.0583172" lon="9.6091955"><ele>604.0</ele><time>2026-03-28T11:34:48.81Z</time></trkpt><trkpt lat="40.0582306" lon="9.6092847"><ele>604.0</ele><time>2026-03-28T11:34:49.818Z</time></trkpt><trkpt lat="40.0581436" lon="9.6093962"><ele>602.0</ele><time>2026-03-28T11:34:50.811Z</time></trkpt><trkpt lat="40.0580705" lon="9.6094901"><ele>600.0</ele><time>2026-03-28T11:34:51.811Z</time></trkpt><trkpt lat="40.0580004" lon="9.6095816"><ele>598.0</ele><time>2026-03-28T11:34:52.81Z</time></trkpt><trkpt lat="40.057939" lon="9.6096444"><ele>596.0</ele><time>2026-03-28T11:34:53.81Z</time></trkpt><trkpt lat="40.0578657" lon="9.6096763"><ele>594.0</ele><time>2026-03-28T11:34:54.814Z</time></trkpt><trkpt lat="40.0577717" lon="9.6096804"><ele>602.4</ele><time>2026-03-28T11:34:55.816Z</time></trkpt><trkpt lat="40.0576729" lon="9.609636"><ele>610.8</ele><time>2026-03-28T11:34:56.81Z</time></trkpt><trkpt lat="40.0575566" lon="9.609598"><ele>619.2</ele><time>2026-03-28T11:34:57.81Z</time></trkpt><trkpt lat="40.0574514" lon="9.6095714"><ele>627.6</ele><time>2026-03-28T11:34:58.813Z</time></trkpt><trkpt lat="40.0573573" lon="9.6095577"><ele>636.0</ele><time>2026-03-28T11:34:59.814Z</time></trkpt><trkpt lat="40.0572456" lon="9.6096115"><ele>637.4</ele><time>2026-03-28T11:35:01.811Z</time></trkpt><trkpt lat="40.0571733" lon="9.6096766"><ele>638.8</ele><time>2026-03-28T11:35:02.813Z</time></trkpt><trkpt lat="40.0571018" lon="9.6097128"><ele>640.1999999999999</ele><time>2026-03-28T11:35:03.81Z</time></trkpt><trkpt lat="40.0570054" lon="9.6097278"><ele>641.6</ele><time>2026-03-28T11:35:05.81Z</time></trkpt><trkpt lat="40.0569232" lon="9.6095945"><ele>643.0</ele><time>2026-03-28T11:35:07.819Z</time></trkpt><trkpt lat="40.0568866" lon="9.6095061"><ele>637.5</ele><time>2026-03-28T11:35:08.808Z</time></trkpt><trkpt lat="40.0568391" lon="9.609429"><ele>632.0</ele><time>2026-03-28T11:35:09.812Z</time></trkpt><trkpt lat="40.0567889" lon="9.6093651"><ele>626.5</ele><time>2026-03-28T11:35:10.807Z</time></trkpt><trkpt lat="40.0567327" lon="9.6092901"><ele>621.0</ele><time>2026-03-28T11:35:11.807Z</time></trkpt><trkpt lat="40.0567153" lon="9.6091768"><ele>615.5</ele><time>2026-03-28T11:35:12.807Z</time></trkpt><trkpt lat="40.0566903" lon="9.6090851"><ele>610.0</ele><time>2026-03-28T11:35:13.805Z</time></trkpt><trkpt lat="40.0566449" lon="9.6090218"><ele>615.3333333333334</ele><time>2026-03-28T11:35:14.806Z</time></trkpt><trkpt lat="40.0565731" lon="9.6089726"><ele>620.6666666666667</ele><time>2026-03-28T11:35:15.806Z</time></trkpt><trkpt lat="40.0565004" lon="9.6089328"><ele>626.0</ele><time>2026-03-28T11:35:16.809Z</time></trkpt><trkpt lat="40.0564359" lon="9.6088999"><ele>631.3333333333334</ele><time>2026-03-28T11:35:17.805Z</time></trkpt><trkpt lat="40.0563917" lon="9.6088355"><ele>636.6666666666666</ele><time>2026-03-28T11:35:18.809Z</time></trkpt><trkpt lat="40.0563706" lon="9.6087299"><ele>642.0</ele><time>2026-03-28T11:35:19.811Z</time></trkpt><trkpt lat="40.0563715" lon="9.6085836"><ele>642.0</ele><time>2026-03-28T11:35:20.806Z</time></trkpt><trkpt lat="40.0563662" lon="9.6084128"><ele>642.0</ele><time>2026-03-28T11:35:21.806Z</time></trkpt><trkpt lat="40.0563581" lon="9.6082459"><ele>642.0</ele><time>2026-03-28T11:35:22.807Z</time></trkpt><trkpt lat="40.0563494" lon="9.6081031"><ele>642.0</ele><time>2026-03-28T11:35:23.804Z</time></trkpt><trkpt lat="40.0563237" lon="9.6079929"><ele>642.0</ele><time>2026-03-28T11:35:24.812Z</time></trkpt><trkpt lat="40.0563015" lon="9.6078993"><ele>642.0</ele><time>2026-03-28T11:35:25.808Z</time></trkpt><trkpt lat="40.0562481" lon="9.6078496"><ele>642.0</ele><time>2026-03-28T11:35:26.816Z</time></trkpt><trkpt lat="40.0561159" lon="9.6078292"><ele>642.0</ele><time>2026-03-28T11:35:28.81Z</time></trkpt><trkpt lat="40.056043" lon="9.6078302"><ele>642.0</ele><time>2026-03-28T11:35:29.806Z</time></trkpt><trkpt lat="40.055979" lon="9.6078414"><ele>642.0</ele><time>2026-03-28T11:35:30.806Z</time></trkpt><trkpt lat="40.0558762" lon="9.6077619"><ele>643.0</ele><time>2026-03-28T11:35:32.806Z</time></trkpt><trkpt lat="40.0558433" lon="9.6076592"><ele>644.0</ele><time>2026-03-28T11:35:33.81Z</time></trkpt><trkpt lat="40.0558059" lon="9.6075315"><ele>645.0</ele><time>2026-03-28T11:35:34.808Z</time></trkpt><trkpt lat="40.0557673" lon="9.6073822"><ele>646.0</ele><time>2026-03-28T11:35:35.811Z</time></trkpt><trkpt lat="40.0557308" lon="9.6072359"><ele>647.0</ele><time>2026-03-28T11:35:36.808Z</time></trkpt><trkpt lat="40.0557114" lon="9.6070932"><ele>644.3333333333333</ele><time>2026-03-28T11:35:37.806Z</time></trkpt><trkpt lat="40.0557165" lon="9.6069595"><ele>641.6666666666666</ele><time>2026-03-28T11:35:38.808Z</time></trkpt><trkpt lat="40.0557522" lon="9.6068345"><ele>639.0</ele><time>2026-03-28T11:35:39.807Z</time></trkpt><trkpt lat="40.0557797" lon="9.6067296"><ele>636.3333333333334</ele><time>2026-03-28T11:35:40.817Z</time></trkpt><trkpt lat="40.0557736" lon="9.6066219"><ele>633.6666666666667</ele><time>2026-03-28T11:35:42.816Z</time></trkpt><trkpt lat="40.0557277" lon="9.6065555"><ele>631.0</ele><time>2026-03-28T11:35:43.812Z</time></trkpt><trkpt lat="40.0556455" lon="9.6065356"><ele>631.0</ele><time>2026-03-28T11:35:44.819Z</time></trkpt><trkpt lat="40.0555464" lon="9.6064925"><ele>631.0</ele><time>2026-03-28T11:35:45.822Z</time></trkpt><trkpt lat="40.0554625" lon="9.606443"><ele>631.0</ele><time>2026-03-28T11:35:46.808Z</time></trkpt><trkpt lat="40.0553708" lon="9.6064129"><ele>631.0</ele><time>2026-03-28T11:35:47.81Z</time></trkpt><trkpt lat="40.0552641" lon="9.6064333"><ele>631.0</ele><time>2026-03-28T11:35:48.813Z</time></trkpt><trkpt lat="40.0551455" lon="9.6064681"><ele>631.0</ele><time>2026-03-28T11:35:49.81Z</time></trkpt><trkpt lat="40.0550012" lon="9.606514"><ele>631.0</ele><time>2026-03-28T11:35:50.815Z</time></trkpt><trkpt lat="40.0548827" lon="9.6065796"><ele>631.0</ele><time>2026-03-28T11:35:51.812Z</time></trkpt><trkpt lat="40.054777" lon="9.6066356"><ele>631.0</ele><time>2026-03-28T11:35:52.812Z</time></trkpt><trkpt lat="40.0547044" lon="9.6067084"><ele>627.0</ele><time>2026-03-28T11:35:53.814Z</time></trkpt><trkpt lat="40.0546363" lon="9.6067963"><ele>623.0</ele><time>2026-03-28T11:35:54.812Z</time></trkpt><trkpt lat="40.0545659" lon="9.6068988"><ele>619.0</ele><time>2026-03-28T11:35:55.809Z</time></trkpt><trkpt lat="40.0544968" lon="9.6070334"><ele>615.0</ele><time>2026-03-28T11:35:56.809Z</time></trkpt><trkpt lat="40.0544256" lon="9.6072129"><ele>615.0</ele><time>2026-03-28T11:35:57.808Z</time></trkpt><trkpt lat="40.0543544" lon="9.6073996"><ele>615.0</ele><time>2026-03-28T11:35:58.815Z</time></trkpt><trkpt lat="40.0542947" lon="9.6075508"><ele>615.0</ele><time>2026-03-28T11:35:59.813Z</time></trkpt><trkpt lat="40.0542367" lon="9.6076915"><ele>615.0</ele><time>2026-03-28T11:36:00.813Z</time></trkpt><trkpt lat="40.0541721" lon="9.6078296"><ele>609.4</ele><time>2026-03-28T11:36:01.809Z</time></trkpt><trkpt lat="40.0541035" lon="9.6079559"><ele>603.8</ele><time>2026-03-28T11:36:02.819Z</time></trkpt><trkpt lat="40.0540352" lon="9.6080742"><ele>598.2</ele><time>2026-03-28T11:36:03.811Z</time></trkpt><trkpt lat="40.0539678" lon="9.608186"><ele>592.6</ele><time>2026-03-28T11:36:04.802Z</time></trkpt><trkpt lat="40.0539008" lon="9.6082811"><ele>587.0</ele><time>2026-03-28T11:36:05.813Z</time></trkpt><trkpt lat="40.0538435" lon="9.6083671"><ele>587.0</ele><time>2026-03-28T11:36:06.81Z</time></trkpt><trkpt lat="40.0537946" lon="9.6084456"><ele>587.0</ele><time>2026-03-28T11:36:07.802Z</time></trkpt><trkpt lat="40.053757" lon="9.6085263"><ele>587.0</ele><time>2026-03-28T11:36:08.811Z</time></trkpt><trkpt lat="40.0537176" lon="9.6086009"><ele>587.0</ele><time>2026-03-28T11:36:09.807Z</time></trkpt><trkpt lat="40.0536303" lon="9.6087151"><ele>587.0</ele><time>2026-03-28T11:36:11.817Z</time></trkpt><trkpt lat="40.0535848" lon="9.6087816"><ele>587.0</ele><time>2026-03-28T11:36:12.809Z</time></trkpt><trkpt lat="40.0535323" lon="9.6089142"><ele>591.4</ele><time>2026-03-28T11:36:14.812Z</time></trkpt><trkpt lat="40.0535482" lon="9.6090522"><ele>595.8000000000001</ele><time>2026-03-28T11:36:16.813Z</time></trkpt><trkpt lat="40.0535507" lon="9.6091712"><ele>600.2</ele><time>2026-03-28T11:36:18.809Z</time></trkpt><trkpt lat="40.0534688" lon="9.6092548"><ele>604.6</ele><time>2026-03-28T11:36:20.833Z</time></trkpt><trkpt lat="40.053417" lon="9.609307"><ele>609.0</ele><time>2026-03-28T11:36:21.81Z</time></trkpt><trkpt lat="40.0533532" lon="9.6093946"><ele>612.6</ele><time>2026-03-28T11:36:22.806Z</time></trkpt><trkpt lat="40.0532903" lon="9.6095095"><ele>616.2</ele><time>2026-03-28T11:36:23.809Z</time></trkpt><trkpt lat="40.0532395" lon="9.6096402"><ele>619.8000000000001</ele><time>2026-03-28T11:36:24.815Z</time></trkpt><trkpt lat="40.0531927" lon="9.6097665"><ele>623.4</ele><time>2026-03-28T11:36:25.813Z</time></trkpt><trkpt lat="40.0531595" lon="9.6098911"><ele>627.0</ele><time>2026-03-28T11:36:26.812Z</time></trkpt><trkpt lat="40.0531416" lon="9.6100123"><ele>621.6</ele><time>2026-03-28T11:36:27.812Z</time></trkpt><trkpt lat="40.0531348" lon="9.6101372"><ele>616.2</ele><time>2026-03-28T11:36:28.814Z</time></trkpt><trkpt lat="40.0531345" lon="9.6102723"><ele>610.8</ele><time>2026-03-28T11:36:29.807Z</time></trkpt><trkpt lat="40.0531432" lon="9.6104308"><ele>605.4</ele><time>2026-03-28T11:36:30.812Z</time></trkpt><trkpt lat="40.0531406" lon="9.6105888"><ele>600.0</ele><time>2026-03-28T11:36:31.818Z</time></trkpt><trkpt lat="40.0531304" lon="9.6107238"><ele>600.0</ele><time>2026-03-28T11:36:32.811Z</time></trkpt><trkpt lat="40.0531211" lon="9.6108432"><ele>600.0</ele><time>2026-03-28T11:36:33.813Z</time></trkpt><trkpt lat="40.0531031" lon="9.6109435"><ele>600.0</ele><time>2026-03-28T11:36:34.813Z</time></trkpt><trkpt lat="40.053082" lon="9.6110339"><ele>600.0</ele><time>2026-03-28T11:36:35.809Z</time></trkpt><trkpt lat="40.0530018" lon="9.6111415"><ele>600.0</ele><time>2026-03-28T11:36:37.818Z</time></trkpt><trkpt lat="40.0529219" lon="9.6111995"><ele>600.0</ele><time>2026-03-28T11:36:38.806Z</time></trkpt><trkpt lat="40.0528541" lon="9.6112647"><ele>603.1666666666666</ele><time>2026-03-28T11:36:39.804Z</time></trkpt><trkpt lat="40.0528016" lon="9.6113478"><ele>606.3333333333334</ele><time>2026-03-28T11:36:40.806Z</time></trkpt><trkpt lat="40.0527716" lon="9.6114506"><ele>609.5</ele><time>2026-03-28T11:36:41.815Z</time></trkpt><trkpt lat="40.0527399" lon="9.6115641"><ele>612.6666666666667</ele><time>2026-03-28T11:36:42.805Z</time></trkpt><trkpt lat="40.0527165" lon="9.6116758"><ele>615.8333333333334</ele><time>2026-03-28T11:36:43.804Z</time></trkpt><trkpt lat="40.0526901" lon="9.6118038"><ele>619.0</ele><time>2026-03-28T11:36:44.808Z</time></trkpt><trkpt lat="40.0526618" lon="9.6119506"><ele>622.8</ele><time>2026-03-28T11:36:45.805Z</time></trkpt><trkpt lat="40.0526364" lon="9.612099"><ele>626.5999999999999</ele><time>2026-03-28T11:36:46.807Z</time></trkpt><trkpt lat="40.0526125" lon="9.6122329"><ele>630.4</ele><time>2026-03-28T11:36:47.811Z</time></trkpt><trkpt lat="40.0525944" lon="9.6123417"><ele>634.1999999999999</ele><time>2026-03-28T11:36:48.811Z</time></trkpt><trkpt lat="40.0525759" lon="9.6124711"><ele>638.0</ele><time>2026-03-28T11:36:50.816Z</time></trkpt><trkpt lat="40.0525087" lon="9.6125187"><ele>640.5999999999999</ele><time>2026-03-28T11:36:52.817Z</time></trkpt><trkpt lat="40.0523646" lon="9.612495"><ele>643.1999999999999</ele><time>2026-03-28T11:36:54.81Z</time></trkpt><trkpt lat="40.0522813" lon="9.6124586"><ele>645.8</ele><time>2026-03-28T11:36:55.812Z</time></trkpt><trkpt lat="40.0522005" lon="9.6124156"><ele>648.4</ele><time>2026-03-28T11:36:56.812Z</time></trkpt><trkpt lat="40.0521224" lon="9.6124091"><ele>651.0</ele><time>2026-03-28T11:36:57.803Z</time></trkpt><trkpt lat="40.0520486" lon="9.6123969"><ele>651.0</ele><time>2026-03-28T11:36:58.816Z</time></trkpt><trkpt lat="40.0519391" lon="9.6123036"><ele>651.0</ele><time>2026-03-28T11:37:00.81Z</time></trkpt><trkpt lat="40.0518655" lon="9.6122333"><ele>651.0</ele><time>2026-03-28T11:37:01.812Z</time></trkpt><trkpt lat="40.0517764" lon="9.6121851"><ele>651.0</ele><time>2026-03-28T11:37:02.816Z</time></trkpt><trkpt lat="40.0516849" lon="9.6121359"><ele>651.0</ele><time>2026-03-28T11:37:03.81Z</time></trkpt><trkpt lat="40.0516114" lon="9.612084"><ele>651.0</ele><time>2026-03-28T11:37:04.811Z</time></trkpt><trkpt lat="40.0515512" lon="9.6120125"><ele>651.0</ele><time>2026-03-28T11:37:05.812Z</time></trkpt><trkpt lat="40.051487" lon="9.611921"><ele>651.0</ele><time>2026-03-28T11:37:06.804Z</time></trkpt><trkpt lat="40.0514282" lon="9.6117982"><ele>651.0</ele><time>2026-03-28T11:37:07.807Z</time></trkpt><trkpt lat="40.0513723" lon="9.6116742"><ele>651.0</ele><time>2026-03-28T11:37:08.816Z</time></trkpt><trkpt lat="40.0513173" lon="9.61155"><ele>651.0</ele><time>2026-03-28T11:37:09.814Z</time></trkpt><trkpt lat="40.0512379" lon="9.6114295"><ele>651.0</ele><time>2026-03-28T11:37:10.809Z</time></trkpt><trkpt lat="40.0511728" lon="9.6113278"><ele>651.0</ele><time>2026-03-28T11:37:11.816Z</time></trkpt><trkpt lat="40.0511213" lon="9.6112773"><ele>651.0</ele><time>2026-03-28T11:37:12.808Z</time></trkpt><trkpt lat="40.0510341" lon="9.6112566"><ele>651.0</ele><time>2026-03-28T11:37:14.815Z</time></trkpt><trkpt lat="40.0510007" lon="9.6113471"><ele>651.0</ele><time>2026-03-28T11:37:16.816Z</time></trkpt><trkpt lat="40.0510106" lon="9.6115077"><ele>651.0</ele><time>2026-03-28T11:37:18.813Z</time></trkpt><trkpt lat="40.0510282" lon="9.6116132"><ele>651.0</ele><time>2026-03-28T11:37:19.816Z</time></trkpt><trkpt lat="40.0510419" lon="9.6117319"><ele>651.0</ele><time>2026-03-28T11:37:20.813Z</time></trkpt><trkpt lat="40.0510488" lon="9.6118721"><ele>651.0</ele><time>2026-03-28T11:37:21.808Z</time></trkpt><trkpt lat="40.0510417" lon="9.6120248"><ele>654.25</ele><time>2026-03-28T11:37:22.811Z</time></trkpt><trkpt lat="40.051041" lon="9.6121808"><ele>657.5</ele><time>2026-03-28T11:37:23.821Z</time></trkpt><trkpt lat="40.0510441" lon="9.6123454"><ele>660.75</ele><time>2026-03-28T11:37:24.812Z</time></trkpt><trkpt lat="40.0510477" lon="9.6125159"><ele>664.0</ele><time>2026-03-28T11:37:25.804Z</time></trkpt><trkpt lat="40.0510581" lon="9.6126881"><ele>665.0</ele><time>2026-03-28T11:37:26.814Z</time></trkpt><trkpt lat="40.0510794" lon="9.6128455"><ele>666.0</ele><time>2026-03-28T11:37:27.812Z</time></trkpt><trkpt lat="40.0511013" lon="9.6129998"><ele>667.0</ele><time>2026-03-28T11:37:28.811Z</time></trkpt><trkpt lat="40.0511359" lon="9.6131391"><ele>668.0</ele><time>2026-03-28T11:37:29.81Z</time></trkpt><trkpt lat="40.0511642" lon="9.6132749"><ele>668.0</ele><time>2026-03-28T11:37:30.817Z</time></trkpt><trkpt lat="40.0511854" lon="9.6133976"><ele>668.0</ele><time>2026-03-28T11:37:31.812Z</time></trkpt><trkpt lat="40.0512087" lon="9.6134948"><ele>668.0</ele><time>2026-03-28T11:37:32.816Z</time></trkpt><trkpt lat="40.0512744" lon="9.6136217"><ele>668.0</ele><time>2026-03-28T11:37:34.81Z</time></trkpt><trkpt lat="40.0513468" lon="9.6136537"><ele>668.0</ele><time>2026-03-28T11:37:35.817Z</time></trkpt><trkpt lat="40.0514344" lon="9.6136896"><ele>667.5</ele><time>2026-03-28T11:37:36.81Z</time></trkpt><trkpt lat="40.0515164" lon="9.6137317"><ele>667.0</ele><time>2026-03-28T11:37:37.81Z</time></trkpt><trkpt lat="40.0515914" lon="9.6137787"><ele>666.5</ele><time>2026-03-28T11:37:38.814Z</time></trkpt><trkpt lat="40.051662" lon="9.6138275"><ele>666.0</ele><time>2026-03-28T11:37:39.813Z</time></trkpt><trkpt lat="40.0517302" lon="9.6138764"><ele>665.5</ele><time>2026-03-28T11:37:40.806Z</time></trkpt><trkpt lat="40.0517958" lon="9.6139228"><ele>665.0</ele><time>2026-03-28T11:37:41.806Z</time></trkpt><trkpt lat="40.0518545" lon="9.613966"><ele>665.0</ele><time>2026-03-28T11:37:42.81Z</time></trkpt><trkpt lat="40.0519117" lon="9.6140058"><ele>665.0</ele><time>2026-03-28T11:37:43.807Z</time></trkpt><trkpt lat="40.0520047" lon="9.6140568"><ele>665.0</ele><time>2026-03-28T11:37:45.81Z</time></trkpt><trkpt lat="40.0520573" lon="9.6141114"><ele>665.0</ele><time>2026-03-28T11:37:48.815Z</time></trkpt><trkpt lat="40.0519879" lon="9.6140798"><ele>665.0</ele><time>2026-03-28T11:39:27.816Z</time></trkpt><trkpt lat="40.0520633" lon="9.6140757"><ele>665.0</ele><time>2026-03-28T11:39:32.803Z</time></trkpt><trkpt lat="40.0521333" lon="9.6141541"><ele>665.0</ele><time>2026-03-28T11:39:34.822Z</time></trkpt><trkpt lat="40.0522045" lon="9.6142188"><ele>665.0</ele><time>2026-03-28T11:39:36.813Z</time></trkpt><trkpt lat="40.0522723" lon="9.6142714"><ele>665.0</ele><time>2026-03-28T11:39:38.813Z</time></trkpt><trkpt lat="40.0523306" lon="9.6143146"><ele>665.0</ele><time>2026-03-28T11:39:40.807Z</time></trkpt><trkpt lat="40.0524074" lon="9.6143693"><ele>665.0</ele><time>2026-03-28T11:39:43.814Z</time></trkpt><trkpt lat="40.0524981" lon="9.6144283"><ele>665.0</ele><time>2026-03-28T11:39:45.81Z</time></trkpt><trkpt lat="40.0525977" lon="9.6144355"><ele>666.4</ele><time>2026-03-28T11:39:47.808Z</time></trkpt><trkpt lat="40.0527031" lon="9.6144066"><ele>667.8</ele><time>2026-03-28T11:39:49.813Z</time></trkpt><trkpt lat="40.0527665" lon="9.6143688"><ele>669.2</ele><time>2026-03-28T11:39:50.816Z</time></trkpt><trkpt lat="40.0528446" lon="9.6143257"><ele>670.6</ele><time>2026-03-28T11:39:51.811Z</time></trkpt><trkpt lat="40.0529354" lon="9.6142778"><ele>672.0</ele><time>2026-03-28T11:39:52.81Z</time></trkpt><trkpt lat="40.0530469" lon="9.6142271"><ele>672.0</ele><time>2026-03-28T11:39:53.809Z</time></trkpt><trkpt lat="40.0531547" lon="9.6141798"><ele>672.0</ele><time>2026-03-28T11:39:54.813Z</time></trkpt><trkpt lat="40.0532522" lon="9.6141368"><ele>672.0</ele><time>2026-03-28T11:39:55.813Z</time></trkpt><trkpt lat="40.0533415" lon="9.6140864"><ele>672.0</ele><time>2026-03-28T11:39:56.809Z</time></trkpt><trkpt lat="40.0534146" lon="9.6140395"><ele>672.0</ele><time>2026-03-28T11:39:57.816Z</time></trkpt><trkpt lat="40.053525" lon="9.6139864"><ele>674.1666666666666</ele><time>2026-03-28T11:39:59.813Z</time></trkpt><trkpt lat="40.053596" lon="9.6139828"><ele>676.3333333333334</ele><time>2026-03-28T11:40:00.813Z</time></trkpt><trkpt lat="40.0536768" lon="9.6139908"><ele>678.5</ele><time>2026-03-28T11:40:01.812Z</time></trkpt><trkpt lat="40.0537528" lon="9.6139968"><ele>680.6666666666667</ele><time>2026-03-28T11:40:02.814Z</time></trkpt><trkpt lat="40.053839" lon="9.6140444"><ele>682.8333333333334</ele><time>2026-03-28T11:40:04.817Z</time></trkpt><trkpt lat="40.0538526" lon="9.6141619"><ele>685.0</ele><time>2026-03-28T11:40:06.824Z</time></trkpt><trkpt lat="40.0538021" lon="9.6142786"><ele>685.0</ele><time>2026-03-28T11:40:08.82Z</time></trkpt><trkpt lat="40.053701" lon="9.6143576"><ele>685.0</ele><time>2026-03-28T11:40:10.82Z</time></trkpt><trkpt lat="40.0536347" lon="9.6144112"><ele>685.0</ele><time>2026-03-28T11:40:11.818Z</time></trkpt><trkpt lat="40.0535671" lon="9.6144775"><ele>685.0</ele><time>2026-03-28T11:40:12.823Z</time></trkpt><trkpt lat="40.0535037" lon="9.6145626"><ele>685.0</ele><time>2026-03-28T11:40:13.811Z</time></trkpt><trkpt lat="40.0534488" lon="9.6146565"><ele>686.3333333333334</ele><time>2026-03-28T11:40:14.813Z</time></trkpt><trkpt lat="40.053405" lon="9.6147432"><ele>687.6666666666667</ele><time>2026-03-28T11:40:15.81Z</time></trkpt><trkpt lat="40.0533643" lon="9.6148191"><ele>689.0</ele><time>2026-03-28T11:40:16.81Z</time></trkpt><trkpt lat="40.0532952" lon="9.6149122"><ele>690.3333333333334</ele><time>2026-03-28T11:40:18.806Z</time></trkpt><trkpt lat="40.0532385" lon="9.6149677"><ele>691.6666666666666</ele><time>2026-03-28T11:40:20.815Z</time></trkpt><trkpt lat="40.0532976" lon="9.614877"><ele>693.0</ele><time>2026-03-28T11:51:18.826Z</time></trkpt><trkpt lat="40.0533631" lon="9.6148145"><ele>693.0</ele><time>2026-03-28T11:51:20.809Z</time></trkpt><trkpt lat="40.0534156" lon="9.6147313"><ele>693.0</ele><time>2026-03-28T11:51:22.814Z</time></trkpt><trkpt lat="40.0534631" lon="9.6146496"><ele>693.0</ele><time>2026-03-28T11:51:24.823Z</time></trkpt><trkpt lat="40.0535151" lon="9.6145671"><ele>693.0</ele><time>2026-03-28T11:51:26.809Z</time></trkpt><trkpt lat="40.0535875" lon="9.6144705"><ele>693.0</ele><time>2026-03-28T11:51:28.813Z</time></trkpt><trkpt lat="40.053686" lon="9.6143863"><ele>691.6666666666666</ele><time>2026-03-28T11:51:30.814Z</time></trkpt><trkpt lat="40.0537707" lon="9.6143426"><ele>690.3333333333334</ele><time>2026-03-28T11:51:32.811Z</time></trkpt><trkpt lat="40.0538244" lon="9.6142995"><ele>689.0</ele><time>2026-03-28T11:51:34.813Z</time></trkpt><trkpt lat="40.0538497" lon="9.6142203"><ele>687.6666666666667</ele><time>2026-03-28T11:51:36.807Z</time></trkpt><trkpt lat="40.0538518" lon="9.6141108"><ele>686.3333333333334</ele><time>2026-03-28T11:51:38.814Z</time></trkpt><trkpt lat="40.053797" lon="9.614016"><ele>685.0</ele><time>2026-03-28T11:51:40.813Z</time></trkpt><trkpt lat="40.0536994" lon="9.6139972"><ele>685.0</ele><time>2026-03-28T11:51:42.811Z</time></trkpt><trkpt lat="40.0536335" lon="9.6139944"><ele>685.0</ele><time>2026-03-28T11:51:43.809Z</time></trkpt><trkpt lat="40.0535051" lon="9.6140184"><ele>685.0</ele><time>2026-03-28T11:51:45.809Z</time></trkpt><trkpt lat="40.0534396" lon="9.6140413"><ele>685.0</ele><time>2026-03-28T11:51:46.814Z</time></trkpt><trkpt lat="40.0533749" lon="9.6140805"><ele>685.0</ele><time>2026-03-28T11:51:47.808Z</time></trkpt><trkpt lat="40.0533001" lon="9.6141168"><ele>685.0</ele><time>2026-03-28T11:51:48.806Z</time></trkpt><trkpt lat="40.0532159" lon="9.6141609"><ele>682.4</ele><time>2026-03-28T11:51:49.803Z</time></trkpt><trkpt lat="40.0531237" lon="9.6142062"><ele>679.8</ele><time>2026-03-28T11:51:50.813Z</time></trkpt><trkpt lat="40.0530295" lon="9.6142483"><ele>677.2</ele><time>2026-03-28T11:51:51.806Z</time></trkpt><trkpt lat="40.0529411" lon="9.6142916"><ele>674.6</ele><time>2026-03-28T11:51:52.806Z</time></trkpt><trkpt lat="40.0528605" lon="9.6143181"><ele>672.0</ele><time>2026-03-28T11:51:53.811Z</time></trkpt><trkpt lat="40.052786" lon="9.6143478"><ele>672.0</ele><time>2026-03-28T11:51:54.814Z</time></trkpt><trkpt lat="40.0527145" lon="9.61438"><ele>672.0</ele><time>2026-03-28T11:51:55.813Z</time></trkpt><trkpt lat="40.0526462" lon="9.6144114"><ele>672.0</ele><time>2026-03-28T11:51:56.812Z</time></trkpt><trkpt lat="40.0525343" lon="9.614447"><ele>672.0</ele><time>2026-03-28T11:51:58.813Z</time></trkpt><trkpt lat="40.0524231" lon="9.6143832"><ele>672.0</ele><time>2026-03-28T11:52:00.809Z</time></trkpt><trkpt lat="40.0523533" lon="9.6143284"><ele>670.25</ele><time>2026-03-28T11:52:01.807Z</time></trkpt><trkpt lat="40.0522666" lon="9.6142654"><ele>668.5</ele><time>2026-03-28T11:52:02.809Z</time></trkpt><trkpt lat="40.0521562" lon="9.6141975"><ele>666.75</ele><time>2026-03-28T11:52:03.808Z</time></trkpt><trkpt lat="40.0520368" lon="9.6141367"><ele>665.0</ele><time>2026-03-28T11:52:04.809Z</time></trkpt><trkpt lat="40.051917" lon="9.6140769"><ele>665.0</ele><time>2026-03-28T11:52:05.808Z</time></trkpt><trkpt lat="40.051806" lon="9.6140353"><ele>665.0</ele><time>2026-03-28T11:52:06.809Z</time></trkpt><trkpt lat="40.0517063" lon="9.6140051"><ele>665.0</ele><time>2026-03-28T11:52:07.802Z</time></trkpt><trkpt lat="40.0516191" lon="9.6139788"><ele>665.0</ele><time>2026-03-28T11:52:08.807Z</time></trkpt><trkpt lat="40.0515389" lon="9.6139537"><ele>665.0</ele><time>2026-03-28T11:52:09.807Z</time></trkpt><trkpt lat="40.051479" lon="9.6139269"><ele>663.8333333333333</ele><time>2026-03-28T11:52:10.806Z</time></trkpt><trkpt lat="40.0513948" lon="9.6138886"><ele>662.6666666666666</ele><time>2026-03-28T11:52:12.803Z</time></trkpt><trkpt lat="40.0512883" lon="9.6138468"><ele>661.5</ele><time>2026-03-28T11:52:14.814Z</time></trkpt><trkpt lat="40.051217" lon="9.6138289"><ele>660.3333333333334</ele><time>2026-03-28T11:52:15.809Z</time></trkpt><trkpt lat="40.0511364" lon="9.6138163"><ele>659.1666666666667</ele><time>2026-03-28T11:52:16.808Z</time></trkpt><trkpt lat="40.051059" lon="9.6138182"><ele>658.0</ele><time>2026-03-28T11:52:17.807Z</time></trkpt><trkpt lat="40.0509874" lon="9.6138296"><ele>658.0</ele><time>2026-03-28T11:52:18.813Z</time></trkpt><trkpt lat="40.0509195" lon="9.6138428"><ele>658.0</ele><time>2026-03-28T11:52:19.805Z</time></trkpt><trkpt lat="40.0508484" lon="9.6138539"><ele>658.0</ele><time>2026-03-28T11:52:20.811Z</time></trkpt><trkpt lat="40.050762" lon="9.6138579"><ele>658.0</ele><time>2026-03-28T11:52:21.804Z</time></trkpt><trkpt lat="40.050662" lon="9.6138625"><ele>658.0</ele><time>2026-03-28T11:52:22.806Z</time></trkpt><trkpt lat="40.0505655" lon="9.6138681"><ele>658.0</ele><time>2026-03-28T11:52:23.805Z</time></trkpt><trkpt lat="40.050468" lon="9.6138898"><ele>656.5</ele><time>2026-03-28T11:52:24.808Z</time></trkpt><trkpt lat="40.0503713" lon="9.6139101"><ele>655.0</ele><time>2026-03-28T11:52:25.811Z</time></trkpt><trkpt lat="40.0502624" lon="9.6139141"><ele>653.5</ele><time>2026-03-28T11:52:26.81Z</time></trkpt><trkpt lat="40.0501428" lon="9.6139051"><ele>652.0</ele><time>2026-03-28T11:52:27.807Z</time></trkpt><trkpt lat="40.0500127" lon="9.6138929"><ele>649.25</ele><time>2026-03-28T11:52:28.808Z</time></trkpt><trkpt lat="40.0498709" lon="9.6138764"><ele>646.5</ele><time>2026-03-28T11:52:29.808Z</time></trkpt><trkpt lat="40.0497292" lon="9.6138581"><ele>643.75</ele><time>2026-03-28T11:52:30.809Z</time></trkpt><trkpt lat="40.0495892" lon="9.6138372"><ele>641.0</ele><time>2026-03-28T11:52:31.814Z</time></trkpt><trkpt lat="40.0494568" lon="9.6138226"><ele>641.0</ele><time>2026-03-28T11:52:32.81Z</time></trkpt><trkpt lat="40.0493399" lon="9.6138122"><ele>641.0</ele><time>2026-03-28T11:52:33.809Z</time></trkpt><trkpt lat="40.0492558" lon="9.6138092"><ele>641.0</ele><time>2026-03-28T11:52:34.81Z</time></trkpt><trkpt lat="40.0491424" lon="9.6137349"><ele>641.0</ele><time>2026-03-28T11:52:36.807Z</time></trkpt><trkpt lat="40.0490622" lon="9.6136634"><ele>641.0</ele><time>2026-03-28T11:52:37.811Z</time></trkpt><trkpt lat="40.0489548" lon="9.613594"><ele>641.25</ele><time>2026-03-28T11:52:38.807Z</time></trkpt><trkpt lat="40.0488368" lon="9.6135375"><ele>641.5</ele><time>2026-03-28T11:52:39.806Z</time></trkpt><trkpt lat="40.0487154" lon="9.6134876"><ele>641.75</ele><time>2026-03-28T11:52:40.812Z</time></trkpt><trkpt lat="40.0486097" lon="9.6134473"><ele>642.0</ele><time>2026-03-28T11:52:41.814Z</time></trkpt><trkpt lat="40.04852" lon="9.6134543"><ele>642.0</ele><time>2026-03-28T11:52:42.808Z</time></trkpt><trkpt lat="40.0484268" lon="9.6134864"><ele>642.0</ele><time>2026-03-28T11:52:43.809Z</time></trkpt><trkpt lat="40.0483259" lon="9.6135312"><ele>642.0</ele><time>2026-03-28T11:52:44.809Z</time></trkpt><trkpt lat="40.0482297" lon="9.6135762"><ele>642.0</ele><time>2026-03-28T11:52:45.805Z</time></trkpt><trkpt lat="40.0481432" lon="9.6136137"><ele>642.0</ele><time>2026-03-28T11:52:46.811Z</time></trkpt><trkpt lat="40.0480611" lon="9.6136292"><ele>638.7142857142857</ele><time>2026-03-28T11:52:47.81Z</time></trkpt><trkpt lat="40.0479892" lon="9.6136375"><ele>635.4285714285714</ele><time>2026-03-28T11:52:48.81Z</time></trkpt><trkpt lat="40.0479241" lon="9.6136245"><ele>632.1428571428571</ele><time>2026-03-28T11:52:49.815Z</time></trkpt><trkpt lat="40.0478558" lon="9.6136083"><ele>628.8571428571429</ele><time>2026-03-28T11:52:50.817Z</time></trkpt><trkpt lat="40.047791" lon="9.6135971"><ele>625.5714285714286</ele><time>2026-03-28T11:52:51.812Z</time></trkpt><trkpt lat="40.0477165" lon="9.6135386"><ele>622.2857142857142</ele><time>2026-03-28T11:52:53.805Z</time></trkpt><trkpt lat="40.0476456" lon="9.6135352"><ele>619.0</ele><time>2026-03-28T11:52:57.811Z</time></trkpt><trkpt lat="40.0476104" lon="9.6136171"><ele>617.6666666666667</ele><time>2026-03-28T11:53:20.809Z</time></trkpt><trkpt lat="40.0475532" lon="9.613696"><ele>616.3333333333334</ele><time>2026-03-28T11:53:22.81Z</time></trkpt><trkpt lat="40.047496" lon="9.6137526"><ele>615.0</ele><time>2026-03-28T11:53:23.808Z</time></trkpt><trkpt lat="40.0474406" lon="9.613807"><ele>613.6666666666666</ele><time>2026-03-28T11:53:24.808Z</time></trkpt><trkpt lat="40.0473802" lon="9.6138663"><ele>612.3333333333333</ele><time>2026-03-28T11:53:25.806Z</time></trkpt><trkpt lat="40.047311" lon="9.6139344"><ele>611.0</ele><time>2026-03-28T11:53:26.812Z</time></trkpt><trkpt lat="40.0472374" lon="9.6140018"><ele>608.0</ele><time>2026-03-28T11:53:27.808Z</time></trkpt><trkpt lat="40.0471564" lon="9.6140779"><ele>605.0</ele><time>2026-03-28T11:53:28.815Z</time></trkpt><trkpt lat="40.0470845" lon="9.6141455"><ele>602.0</ele><time>2026-03-28T11:53:29.81Z</time></trkpt><trkpt lat="40.0470068" lon="9.6142154"><ele>599.0</ele><time>2026-03-28T11:53:30.811Z</time></trkpt><trkpt lat="40.0469427" lon="9.6142765"><ele>596.0</ele><time>2026-03-28T11:53:31.808Z</time></trkpt><trkpt lat="40.0468827" lon="9.6143246"><ele>593.0</ele><time>2026-03-28T11:53:32.811Z</time></trkpt><trkpt lat="40.0468238" lon="9.6143726"><ele>593.0</ele><time>2026-03-28T11:53:33.808Z</time></trkpt><trkpt lat="40.0467676" lon="9.6144266"><ele>593.0</ele><time>2026-03-28T11:53:34.811Z</time></trkpt><trkpt lat="40.0467231" lon="9.6145008"><ele>593.0</ele><time>2026-03-28T11:53:35.811Z</time></trkpt><trkpt lat="40.0466836" lon="9.6145825"><ele>593.0</ele><time>2026-03-28T11:53:36.808Z</time></trkpt><trkpt lat="40.0466421" lon="9.6146763"><ele>593.0</ele><time>2026-03-28T11:53:37.807Z</time></trkpt><trkpt lat="40.046603" lon="9.6148031"><ele>593.0</ele><time>2026-03-28T11:53:38.813Z</time></trkpt><trkpt lat="40.0465488" lon="9.6149207"><ele>588.6</ele><time>2026-03-28T11:53:39.809Z</time></trkpt><trkpt lat="40.0464823" lon="9.6150312"><ele>584.1999999999999</ele><time>2026-03-28T11:53:40.811Z</time></trkpt><trkpt lat="40.046403" lon="9.6151312"><ele>579.8</ele><time>2026-03-28T11:53:41.813Z</time></trkpt><trkpt lat="40.0463228" lon="9.6152316"><ele>575.4</ele><time>2026-03-28T11:53:42.808Z</time></trkpt><trkpt lat="40.0462396" lon="9.6153371"><ele>571.0</ele><time>2026-03-28T11:53:43.805Z</time></trkpt><trkpt lat="40.0461578" lon="9.615445"><ele>570.5</ele><time>2026-03-28T11:53:44.813Z</time></trkpt><trkpt lat="40.0460713" lon="9.6155438"><ele>570.0</ele><time>2026-03-28T11:53:45.808Z</time></trkpt><trkpt lat="40.045984" lon="9.61564"><ele>569.5</ele><time>2026-03-28T11:53:46.813Z</time></trkpt><trkpt lat="40.0458874" lon="9.6157469"><ele>569.0</ele><time>2026-03-28T11:53:47.809Z</time></trkpt><trkpt lat="40.0457804" lon="9.6158572"><ele>564.25</ele><time>2026-03-28T11:53:48.808Z</time></trkpt><trkpt lat="40.0456787" lon="9.6159658"><ele>559.5</ele><time>2026-03-28T11:53:49.805Z</time></trkpt><trkpt lat="40.0455808" lon="9.6160731"><ele>554.75</ele><time>2026-03-28T11:53:50.811Z</time></trkpt><trkpt lat="40.045491" lon="9.6161703"><ele>550.0</ele><time>2026-03-28T11:53:51.816Z</time></trkpt><trkpt lat="40.0454139" lon="9.6162565"><ele>550.0</ele><time>2026-03-28T11:53:52.807Z</time></trkpt><trkpt lat="40.0453429" lon="9.6163308"><ele>550.0</ele><time>2026-03-28T11:53:53.805Z</time></trkpt><trkpt lat="40.0452708" lon="9.6163989"><ele>550.0</ele><time>2026-03-28T11:53:54.808Z</time></trkpt><trkpt lat="40.0451998" lon="9.6164613"><ele>550.0</ele><time>2026-03-28T11:53:55.811Z</time></trkpt><trkpt lat="40.0451282" lon="9.6165175"><ele>550.0</ele><time>2026-03-28T11:53:56.812Z</time></trkpt><trkpt lat="40.0450686" lon="9.6165804"><ele>550.0</ele><time>2026-03-28T11:53:57.805Z</time></trkpt><trkpt lat="40.0450055" lon="9.6166458"><ele>545.6</ele><time>2026-03-28T11:53:58.816Z</time></trkpt><trkpt lat="40.0449453" lon="9.6167252"><ele>541.2</ele><time>2026-03-28T11:53:59.809Z</time></trkpt><trkpt lat="40.0448838" lon="9.6168144"><ele>536.8</ele><time>2026-03-28T11:54:00.807Z</time></trkpt><trkpt lat="40.0448244" lon="9.6169025"><ele>532.4</ele><time>2026-03-28T11:54:01.814Z</time></trkpt><trkpt lat="40.0447695" lon="9.6169989"><ele>528.0</ele><time>2026-03-28T11:54:02.809Z</time></trkpt><trkpt lat="40.0447094" lon="9.6170921"><ele>528.0</ele><time>2026-03-28T11:54:03.806Z</time></trkpt><trkpt lat="40.0446431" lon="9.6171777"><ele>528.0</ele><time>2026-03-28T11:54:04.806Z</time></trkpt><trkpt lat="40.044569" lon="9.617261"><ele>528.0</ele><time>2026-03-28T11:54:05.808Z</time></trkpt><trkpt lat="40.0444928" lon="9.6173382"><ele>528.0</ele><time>2026-03-28T11:54:06.808Z</time></trkpt><trkpt lat="40.0444129" lon="9.6174128"><ele>528.0</ele><time>2026-03-28T11:54:07.809Z</time></trkpt><trkpt lat="40.0443257" lon="9.6174893"><ele>528.0</ele><time>2026-03-28T11:54:08.802Z</time></trkpt><trkpt lat="40.0442409" lon="9.6175619"><ele>528.0</ele><time>2026-03-28T11:54:09.811Z</time></trkpt><trkpt lat="40.0441622" lon="9.6176296"><ele>528.0</ele><time>2026-03-28T11:54:10.808Z</time></trkpt><trkpt lat="40.0440885" lon="9.6176982"><ele>528.0</ele><time>2026-03-28T11:54:11.808Z</time></trkpt><trkpt lat="40.0440112" lon="9.6177672"><ele>528.0</ele><time>2026-03-28T11:54:12.808Z</time></trkpt><trkpt lat="40.0439332" lon="9.6178287"><ele>523.0</ele><time>2026-03-28T11:54:13.814Z</time></trkpt><trkpt lat="40.0438503" lon="9.6178911"><ele>518.0</ele><time>2026-03-28T11:54:14.805Z</time></trkpt><trkpt lat="40.0437664" lon="9.6179559"><ele>513.0</ele><time>2026-03-28T11:54:15.807Z</time></trkpt><trkpt lat="40.0436792" lon="9.6180184"><ele>508.0</ele><time>2026-03-28T11:54:16.804Z</time></trkpt><trkpt lat="40.0435967" lon="9.6180757"><ele>503.0</ele><time>2026-03-28T11:54:17.812Z</time></trkpt><trkpt lat="40.0435257" lon="9.6181252"><ele>502.99999999999994</ele><time>2026-03-28T11:54:18.813Z</time></trkpt><trkpt lat="40.0434686" lon="9.6181621"><ele>503.0</ele><time>2026-03-28T11:54:19.809Z</time></trkpt><trkpt lat="40.0433657" lon="9.6181486"><ele>503.0</ele><time>2026-03-28T11:54:21.812Z</time></trkpt><trkpt lat="40.0432857" lon="9.6181198"><ele>503.0</ele><time>2026-03-28T11:54:23.814Z</time></trkpt><trkpt lat="40.0432171" lon="9.6181812"><ele>502.99999999999994</ele><time>2026-03-28T11:54:26.811Z</time></trkpt><trkpt lat="40.0431967" lon="9.6182642"><ele>503.0</ele><time>2026-03-28T11:54:28.82Z</time></trkpt><trkpt lat="40.0431985" lon="9.6183674"><ele>502.99999999999994</ele><time>2026-03-28T11:54:32.814Z</time></trkpt><trkpt lat="40.0432599" lon="9.6183923"><ele>503.0</ele><time>2026-03-28T11:55:11.813Z</time></trkpt><trkpt lat="40.0433135" lon="9.6183377"><ele>503.0</ele><time>2026-03-28T11:55:14.81Z</time></trkpt><trkpt lat="40.0433796" lon="9.6183069"><ele>503.0</ele><time>2026-03-28T11:55:16.809Z</time></trkpt><trkpt lat="40.0435046" lon="9.618294"><ele>502.99999999999994</ele><time>2026-03-28T11:55:18.809Z</time></trkpt><trkpt lat="40.0435782" lon="9.618289"><ele>503.0</ele><time>2026-03-28T11:55:19.81Z</time></trkpt><trkpt lat="40.0436711" lon="9.6182736"><ele>503.0</ele><time>2026-03-28T11:55:20.81Z</time></trkpt><trkpt lat="40.0437696" lon="9.6182577"><ele>503.0</ele><time>2026-03-28T11:55:21.806Z</time></trkpt><trkpt lat="40.0438833" lon="9.6182221"><ele>503.0</ele><time>2026-03-28T11:55:22.808Z</time></trkpt><trkpt lat="40.0439955" lon="9.6181751"><ele>503.0</ele><time>2026-03-28T11:55:23.809Z</time></trkpt><trkpt lat="40.0441167" lon="9.6181252"><ele>504.5</ele><time>2026-03-28T11:55:24.811Z</time></trkpt><trkpt lat="40.0442445" lon="9.6180625"><ele>506.0</ele><time>2026-03-28T11:55:25.809Z</time></trkpt><trkpt lat="40.0443802" lon="9.6180029"><ele>507.5</ele><time>2026-03-28T11:55:26.808Z</time></trkpt><trkpt lat="40.0445143" lon="9.6179403"><ele>509.0</ele><time>2026-03-28T11:55:27.849Z</time></trkpt><trkpt lat="40.0446535" lon="9.6178826"><ele>509.0</ele><time>2026-03-28T11:55:28.807Z</time></trkpt><trkpt lat="40.0447988" lon="9.6178347"><ele>509.0</ele><time>2026-03-28T11:55:29.816Z</time></trkpt><trkpt lat="40.0449418" lon="9.6177835"><ele>509.0</ele><time>2026-03-28T11:55:30.805Z</time></trkpt><trkpt lat="40.0450838" lon="9.6177319"><ele>509.0</ele><time>2026-03-28T11:55:31.807Z</time></trkpt><trkpt lat="40.0452226" lon="9.6176624"><ele>516.6666666666666</ele><time>2026-03-28T11:55:32.806Z</time></trkpt><trkpt lat="40.0453606" lon="9.6175773"><ele>524.3333333333334</ele><time>2026-03-28T11:55:33.814Z</time></trkpt><trkpt lat="40.0454995" lon="9.6174939"><ele>532.0</ele><time>2026-03-28T11:55:34.813Z</time></trkpt><trkpt lat="40.0456361" lon="9.6174032"><ele>532.0</ele><time>2026-03-28T11:55:35.808Z</time></trkpt><trkpt lat="40.0457723" lon="9.6173093"><ele>532.0</ele><time>2026-03-28T11:55:36.814Z</time></trkpt><trkpt lat="40.0459045" lon="9.6172173"><ele>532.0</ele><time>2026-03-28T11:55:37.805Z</time></trkpt><trkpt lat="40.046037" lon="9.6171238"><ele>528.6666666666667</ele><time>2026-03-28T11:55:38.814Z</time></trkpt><trkpt lat="40.0461734" lon="9.6170329"><ele>525.3333333333334</ele><time>2026-03-28T11:55:39.812Z</time></trkpt><trkpt lat="40.0463092" lon="9.6169364"><ele>522.0</ele><time>2026-03-28T11:55:40.811Z</time></trkpt><trkpt lat="40.0464432" lon="9.6168296"><ele>526.5</ele><time>2026-03-28T11:55:41.811Z</time></trkpt><trkpt lat="40.0465728" lon="9.616724"><ele>531.0</ele><time>2026-03-28T11:55:42.815Z</time></trkpt><trkpt lat="40.0466911" lon="9.6166174"><ele>535.5</ele><time>2026-03-28T11:55:43.805Z</time></trkpt><trkpt lat="40.0467996" lon="9.6165205"><ele>540.0</ele><time>2026-03-28T11:55:44.81Z</time></trkpt><trkpt lat="40.0468921" lon="9.6164357"><ele>540.0</ele><time>2026-03-28T11:55:45.816Z</time></trkpt><trkpt lat="40.0469719" lon="9.6163633"><ele>540.0</ele><time>2026-03-28T11:55:46.805Z</time></trkpt><trkpt lat="40.047033" lon="9.6163094"><ele>540.0</ele><time>2026-03-28T11:55:47.81Z</time></trkpt><trkpt lat="40.0471152" lon="9.616282"><ele>540.0</ele><time>2026-03-28T11:55:49.814Z</time></trkpt><trkpt lat="40.0471516" lon="9.6164113"><ele>540.0</ele><time>2026-03-28T11:55:51.818Z</time></trkpt><trkpt lat="40.0471756" lon="9.6165297"><ele>540.0</ele><time>2026-03-28T11:55:52.809Z</time></trkpt><trkpt lat="40.0472154" lon="9.6166425"><ele>540.0</ele><time>2026-03-28T11:55:53.804Z</time></trkpt><trkpt lat="40.0472788" lon="9.6167667"><ele>540.0</ele><time>2026-03-28T11:55:54.805Z</time></trkpt><trkpt lat="40.047348" lon="9.6168934"><ele>540.0</ele><time>2026-03-28T11:55:55.816Z</time></trkpt><trkpt lat="40.0474357" lon="9.6170165"><ele>538.25</ele><time>2026-03-28T11:55:56.81Z</time></trkpt><trkpt lat="40.0475275" lon="9.6171365"><ele>536.5</ele><time>2026-03-28T11:55:57.811Z</time></trkpt><trkpt lat="40.0476146" lon="9.6172482"><ele>534.75</ele><time>2026-03-28T11:55:58.814Z</time></trkpt><trkpt lat="40.0477025" lon="9.617348"><ele>533.0</ele><time>2026-03-28T11:55:59.81Z</time></trkpt><trkpt lat="40.047792" lon="9.6174256"><ele>533.0</ele><time>2026-03-28T11:56:00.806Z</time></trkpt><trkpt lat="40.0478807" lon="9.6174903"><ele>533.0</ele><time>2026-03-28T11:56:01.807Z</time></trkpt><trkpt lat="40.0479794" lon="9.6175132"><ele>533.0</ele><time>2026-03-28T11:56:02.805Z</time></trkpt><trkpt lat="40.0480955" lon="9.6175172"><ele>533.0</ele><time>2026-03-28T11:56:03.81Z</time></trkpt><trkpt lat="40.0482302" lon="9.6175031"><ele>538.3333333333333</ele><time>2026-03-28T11:56:04.804Z</time></trkpt><trkpt lat="40.0483789" lon="9.6174792"><ele>543.6666666666666</ele><time>2026-03-28T11:56:05.813Z</time></trkpt><trkpt lat="40.0485344" lon="9.6174521"><ele>549.0</ele><time>2026-03-28T11:56:06.81Z</time></trkpt><trkpt lat="40.048679" lon="9.6174262"><ele>549.0</ele><time>2026-03-28T11:56:07.806Z</time></trkpt><trkpt lat="40.0488126" lon="9.6174212"><ele>549.0</ele><time>2026-03-28T11:56:08.818Z</time></trkpt><trkpt lat="40.0489409" lon="9.6174467"><ele>549.0</ele><time>2026-03-28T11:56:09.812Z</time></trkpt><trkpt lat="40.0490622" lon="9.6174935"><ele>549.0</ele><time>2026-03-28T11:56:10.807Z</time></trkpt><trkpt lat="40.0491704" lon="9.6175366"><ele>549.6666666666666</ele><time>2026-03-28T11:56:11.814Z</time></trkpt><trkpt lat="40.0492562" lon="9.6175576"><ele>550.3333333333334</ele><time>2026-03-28T11:56:12.812Z</time></trkpt><trkpt lat="40.0493329" lon="9.6175642"><ele>551.0</ele><time>2026-03-28T11:56:13.809Z</time></trkpt><trkpt lat="40.0493986" lon="9.6175196"><ele>551.6666666666667</ele><time>2026-03-28T11:56:14.808Z</time></trkpt><trkpt lat="40.0494633" lon="9.617448"><ele>552.3333333333334</ele><time>2026-03-28T11:56:15.809Z</time></trkpt><trkpt lat="40.0495384" lon="9.6173552"><ele>553.0</ele><time>2026-03-28T11:56:16.816Z</time></trkpt><trkpt lat="40.0496179" lon="9.6172428"><ele>553.0</ele><time>2026-03-28T11:56:17.808Z</time></trkpt><trkpt lat="40.0497027" lon="9.617101"><ele>553.0</ele><time>2026-03-28T11:56:18.809Z</time></trkpt><trkpt lat="40.0497707" lon="9.6169802"><ele>553.0</ele><time>2026-03-28T11:56:19.809Z</time></trkpt><trkpt lat="40.0498283" lon="9.6168714"><ele>553.0</ele><time>2026-03-28T11:56:20.811Z</time></trkpt><trkpt lat="40.0498957" lon="9.6168211"><ele>553.0</ele><time>2026-03-28T11:56:21.807Z</time></trkpt><trkpt lat="40.0499892" lon="9.6167796"><ele>556.25</ele><time>2026-03-28T11:56:22.811Z</time></trkpt><trkpt lat="40.0501016" lon="9.6167251"><ele>559.5</ele><time>2026-03-28T11:56:23.809Z</time></trkpt><trkpt lat="40.0502201" lon="9.6166455"><ele>562.75</ele><time>2026-03-28T11:56:24.808Z</time></trkpt><trkpt lat="40.0503214" lon="9.6165707"><ele>566.0</ele><time>2026-03-28T11:56:25.811Z</time></trkpt><trkpt lat="40.0504041" lon="9.6165012"><ele>566.0</ele><time>2026-03-28T11:56:26.812Z</time></trkpt><trkpt lat="40.0504637" lon="9.6164463"><ele>566.0</ele><time>2026-03-28T11:56:27.81Z</time></trkpt><trkpt lat="40.0505283" lon="9.6164369"><ele>566.0</ele><time>2026-03-28T11:56:28.813Z</time></trkpt><trkpt lat="40.0506004" lon="9.6164402"><ele>566.0</ele><time>2026-03-28T11:56:29.813Z</time></trkpt><trkpt lat="40.0506618" lon="9.6164723"><ele>566.0</ele><time>2026-03-28T11:56:30.807Z</time></trkpt><trkpt lat="40.0507218" lon="9.6166203"><ele>566.0</ele><time>2026-03-28T11:56:32.811Z</time></trkpt><trkpt lat="40.0507258" lon="9.6167413"><ele>566.0</ele><time>2026-03-28T11:56:33.808Z</time></trkpt><trkpt lat="40.0507445" lon="9.6168829"><ele>566.0</ele><time>2026-03-28T11:56:34.804Z</time></trkpt><trkpt lat="40.0507805" lon="9.617029"><ele>566.0</ele><time>2026-03-28T11:56:35.81Z</time></trkpt><trkpt lat="40.050836" lon="9.6171711"><ele>566.0</ele><time>2026-03-28T11:56:36.808Z</time></trkpt><trkpt lat="40.0508993" lon="9.6173023"><ele>565.1666666666666</ele><time>2026-03-28T11:56:37.809Z</time></trkpt><trkpt lat="40.0509603" lon="9.6174069"><ele>564.3333333333333</ele><time>2026-03-28T11:56:38.805Z</time></trkpt><trkpt lat="40.0510285" lon="9.6174922"><ele>563.5</ele><time>2026-03-28T11:56:39.813Z</time></trkpt><trkpt lat="40.0510963" lon="9.6175378"><ele>562.6666666666666</ele><time>2026-03-28T11:56:40.813Z</time></trkpt><trkpt lat="40.0511645" lon="9.6175428"><ele>561.8333333333334</ele><time>2026-03-28T11:56:41.816Z</time></trkpt><trkpt lat="40.0512412" lon="9.6175204"><ele>561.0</ele><time>2026-03-28T11:56:42.809Z</time></trkpt><trkpt lat="40.0513355" lon="9.6174802"><ele>561.0</ele><time>2026-03-28T11:56:43.812Z</time></trkpt><trkpt lat="40.0514441" lon="9.6174314"><ele>561.0</ele><time>2026-03-28T11:56:44.809Z</time></trkpt><trkpt lat="40.0515602" lon="9.6173854"><ele>561.0</ele><time>2026-03-28T11:56:45.811Z</time></trkpt><trkpt lat="40.0516747" lon="9.6173487"><ele>561.0</ele><time>2026-03-28T11:56:46.808Z</time></trkpt><trkpt lat="40.051784" lon="9.6173218"><ele>564.8</ele><time>2026-03-28T11:56:47.807Z</time></trkpt><trkpt lat="40.0518632" lon="9.6173186"><ele>568.6</ele><time>2026-03-28T11:56:48.808Z</time></trkpt><trkpt lat="40.0519472" lon="9.6173934"><ele>572.4</ele><time>2026-03-28T11:56:50.809Z</time></trkpt><trkpt lat="40.0520097" lon="9.617561"><ele>576.2</ele><time>2026-03-28T11:56:52.813Z</time></trkpt><trkpt lat="40.0520631" lon="9.6176684"><ele>580.0</ele><time>2026-03-28T11:56:53.805Z</time></trkpt><trkpt lat="40.0521353" lon="9.6177577"><ele>580.0</ele><time>2026-03-28T11:56:54.814Z</time></trkpt><trkpt lat="40.0521848" lon="9.6178274"><ele>580.0</ele><time>2026-03-28T11:56:55.813Z</time></trkpt><trkpt lat="40.0522601" lon="9.6178764"><ele>580.0</ele><time>2026-03-28T11:56:57.81Z</time></trkpt><trkpt lat="40.052336" lon="9.6178727"><ele>580.0</ele><time>2026-03-28T11:56:59.814Z</time></trkpt><trkpt lat="40.052455" lon="9.6178533"><ele>580.0</ele><time>2026-03-28T11:57:01.81Z</time></trkpt><trkpt lat="40.0525359" lon="9.6178342"><ele>580.0</ele><time>2026-03-28T11:57:02.806Z</time></trkpt><trkpt lat="40.0526211" lon="9.6178101"><ele>580.0</ele><time>2026-03-28T11:57:03.805Z</time></trkpt><trkpt lat="40.0526884" lon="9.617793"><ele>580.0</ele><time>2026-03-28T11:57:04.806Z</time></trkpt><trkpt lat="40.0527761" lon="9.6178137"><ele>580.0</ele><time>2026-03-28T11:57:06.808Z</time></trkpt><trkpt lat="40.0528206" lon="9.6178825"><ele>580.0</ele><time>2026-03-28T11:57:08.82Z</time></trkpt><trkpt lat="40.0528417" lon="9.6179982"><ele>580.0</ele><time>2026-03-28T11:57:11.809Z</time></trkpt><trkpt lat="40.0528688" lon="9.6180807"><ele>580.0</ele><time>2026-03-28T11:57:13.808Z</time></trkpt><trkpt lat="40.052901" lon="9.6181782"><ele>580.0</ele><time>2026-03-28T11:57:15.805Z</time></trkpt><trkpt lat="40.0529428" lon="9.6182691"><ele>580.0</ele><time>2026-03-28T11:57:17.81Z</time></trkpt><trkpt lat="40.0530255" lon="9.6183977"><ele>580.0</ele><time>2026-03-28T11:57:19.813Z</time></trkpt><trkpt lat="40.0530924" lon="9.6184793"><ele>580.0</ele><time>2026-03-28T11:57:20.806Z</time></trkpt><trkpt lat="40.053165" lon="9.6185657"><ele>580.0</ele><time>2026-03-28T11:57:21.81Z</time></trkpt><trkpt lat="40.053228" lon="9.6186506"><ele>581.8</ele><time>2026-03-28T11:57:22.806Z</time></trkpt><trkpt lat="40.0532947" lon="9.6187468"><ele>583.6</ele><time>2026-03-28T11:57:23.811Z</time></trkpt><trkpt lat="40.0533396" lon="9.6188803"><ele>585.4</ele><time>2026-03-28T11:57:24.809Z</time></trkpt><trkpt lat="40.0533867" lon="9.6190053"><ele>587.2</ele><time>2026-03-28T11:57:25.808Z</time></trkpt><trkpt lat="40.0534207" lon="9.6191104"><ele>589.0</ele><time>2026-03-28T11:57:26.804Z</time></trkpt><trkpt lat="40.0535095" lon="9.6192162"><ele>589.0</ele><time>2026-03-28T11:57:28.812Z</time></trkpt><trkpt lat="40.0535817" lon="9.6192587"><ele>589.0</ele><time>2026-03-28T11:57:29.81Z</time></trkpt><trkpt lat="40.0536808" lon="9.6192918"><ele>589.0</ele><time>2026-03-28T11:57:30.809Z</time></trkpt><trkpt lat="40.0537732" lon="9.6193321"><ele>589.0</ele><time>2026-03-28T11:57:31.807Z</time></trkpt><trkpt lat="40.0538606" lon="9.619377"><ele>589.0</ele><time>2026-03-28T11:57:32.806Z</time></trkpt><trkpt lat="40.053947" lon="9.6194337"><ele>590.8</ele><time>2026-03-28T11:57:33.808Z</time></trkpt><trkpt lat="40.0540129" lon="9.619524"><ele>592.5999999999999</ele><time>2026-03-28T11:57:34.81Z</time></trkpt><trkpt lat="40.0540728" lon="9.6196186"><ele>594.4</ele><time>2026-03-28T11:57:35.803Z</time></trkpt><trkpt lat="40.0541213" lon="9.6197147"><ele>596.1999999999999</ele><time>2026-03-28T11:57:36.804Z</time></trkpt><trkpt lat="40.0541553" lon="9.6198293"><ele>598.0</ele><time>2026-03-28T11:57:37.813Z</time></trkpt><trkpt lat="40.0541739" lon="9.6199689"><ele>598.0</ele><time>2026-03-28T11:57:38.812Z</time></trkpt><trkpt lat="40.0541799" lon="9.6201184"><ele>598.0</ele><time>2026-03-28T11:57:39.807Z</time></trkpt><trkpt lat="40.0541816" lon="9.620268"><ele>598.0</ele><time>2026-03-28T11:57:40.812Z</time></trkpt><trkpt lat="40.0541987" lon="9.6204665"><ele>598.0</ele><time>2026-03-28T11:57:41.811Z</time></trkpt><trkpt lat="40.054187" lon="9.620621"><ele>596.5</ele><time>2026-03-28T11:57:42.811Z</time></trkpt><trkpt lat="40.0541587" lon="9.6207738"><ele>595.0</ele><time>2026-03-28T11:57:43.813Z</time></trkpt><trkpt lat="40.0541252" lon="9.6209355"><ele>593.5</ele><time>2026-03-28T11:57:44.812Z</time></trkpt><trkpt lat="40.0540908" lon="9.6210939"><ele>592.0</ele><time>2026-03-28T11:57:45.811Z</time></trkpt><trkpt lat="40.0540708" lon="9.6212489"><ele>580.25</ele><time>2026-03-28T11:57:46.819Z</time></trkpt><trkpt lat="40.0540538" lon="9.621412"><ele>568.5</ele><time>2026-03-28T11:57:47.809Z</time></trkpt><trkpt lat="40.0540494" lon="9.6215917"><ele>556.75</ele><time>2026-03-28T11:57:48.808Z</time></trkpt><trkpt lat="40.0540383" lon="9.6217583"><ele>545.0</ele><time>2026-03-28T11:57:49.807Z</time></trkpt><trkpt lat="40.0540016" lon="9.6219257"><ele>548.75</ele><time>2026-03-28T11:57:50.809Z</time></trkpt><trkpt lat="40.053948" lon="9.6221037"><ele>552.5</ele><time>2026-03-28T11:57:51.809Z</time></trkpt><trkpt lat="40.0539092" lon="9.6222955"><ele>556.25</ele><time>2026-03-28T11:57:52.809Z</time></trkpt><trkpt lat="40.053871" lon="9.6224616"><ele>560.0</ele><time>2026-03-28T11:57:53.812Z</time></trkpt><trkpt lat="40.0538204" lon="9.6226126"><ele>560.0</ele><time>2026-03-28T11:57:54.812Z</time></trkpt><trkpt lat="40.0537531" lon="9.6227545"><ele>560.0</ele><time>2026-03-28T11:57:55.809Z</time></trkpt><trkpt lat="40.0536844" lon="9.6228963"><ele>560.0</ele><time>2026-03-28T11:57:56.812Z</time></trkpt><trkpt lat="40.0536024" lon="9.6230026"><ele>560.0</ele><time>2026-03-28T11:57:57.812Z</time></trkpt><trkpt lat="40.0535178" lon="9.6231114"><ele>560.6666666666666</ele><time>2026-03-28T11:57:58.807Z</time></trkpt><trkpt lat="40.0534352" lon="9.6231908"><ele>561.3333333333333</ele><time>2026-03-28T11:57:59.81Z</time></trkpt><trkpt lat="40.0533741" lon="9.623266"><ele>562.0</ele><time>2026-03-28T11:58:00.811Z</time></trkpt><trkpt lat="40.053335" lon="9.6233565"><ele>562.6666666666666</ele><time>2026-03-28T11:58:01.805Z</time></trkpt><trkpt lat="40.0533469" lon="9.6234548"><ele>563.3333333333334</ele><time>2026-03-28T11:58:02.808Z</time></trkpt><trkpt lat="40.0533835" lon="9.6235568"><ele>564.0</ele><time>2026-03-28T11:58:03.82Z</time></trkpt><trkpt lat="40.0534365" lon="9.6236597"><ele>564.0</ele><time>2026-03-28T11:58:04.811Z</time></trkpt><trkpt lat="40.0535489" lon="9.623737"><ele>564.0</ele><time>2026-03-28T11:58:05.808Z</time></trkpt><trkpt lat="40.0536395" lon="9.6238533"><ele>564.0</ele><time>2026-03-28T11:58:06.812Z</time></trkpt><trkpt lat="40.0537336" lon="9.6239667"><ele>564.0</ele><time>2026-03-28T11:58:07.808Z</time></trkpt><trkpt lat="40.0538188" lon="9.6240809"><ele>564.0</ele><time>2026-03-28T11:58:08.808Z</time></trkpt><trkpt lat="40.0538993" lon="9.6242107"><ele>564.0</ele><time>2026-03-28T11:58:09.803Z</time></trkpt><trkpt lat="40.0539804" lon="9.6243462"><ele>564.0</ele><time>2026-03-28T11:58:10.81Z</time></trkpt><trkpt lat="40.0540559" lon="9.6244704"><ele>564.0</ele><time>2026-03-28T11:58:11.813Z</time></trkpt><trkpt lat="40.0541164" lon="9.6245994"><ele>567.4</ele><time>2026-03-28T11:58:12.812Z</time></trkpt><trkpt lat="40.0541573" lon="9.624737"><ele>570.8</ele><time>2026-03-28T11:58:13.808Z</time></trkpt><trkpt lat="40.0541928" lon="9.6248718"><ele>574.2</ele><time>2026-03-28T11:58:14.809Z</time></trkpt><trkpt lat="40.0542293" lon="9.6249962"><ele>577.6</ele><time>2026-03-28T11:58:15.803Z</time></trkpt><trkpt lat="40.0542656" lon="9.6251049"><ele>581.0</ele><time>2026-03-28T11:58:16.813Z</time></trkpt><trkpt lat="40.0542969" lon="9.6252014"><ele>581.0</ele><time>2026-03-28T11:58:17.81Z</time></trkpt><trkpt lat="40.0543228" lon="9.6252839"><ele>581.0</ele><time>2026-03-28T11:58:18.81Z</time></trkpt><trkpt lat="40.0543627" lon="9.6253991"><ele>581.0</ele><time>2026-03-28T11:58:20.809Z</time></trkpt><trkpt lat="40.0544294" lon="9.6255069"><ele>581.0</ele><time>2026-03-28T11:58:49.817Z</time></trkpt><trkpt lat="40.0544555" lon="9.6256364"><ele>581.0</ele><time>2026-03-28T12:02:51.817Z</time></trkpt><trkpt lat="40.0544332" lon="9.6257185"><ele>581.0</ele><time>2026-03-28T12:02:54.813Z</time></trkpt><trkpt lat="40.0543975" lon="9.6258044"><ele>579.6666666666666</ele><time>2026-03-28T12:02:57.814Z</time></trkpt><trkpt lat="40.0543662" lon="9.6258934"><ele>578.3333333333333</ele><time>2026-03-28T12:03:00.808Z</time></trkpt><trkpt lat="40.0543377" lon="9.6259851"><ele>577.0</ele><time>2026-03-28T12:03:03.828Z</time></trkpt><trkpt lat="40.0543106" lon="9.6260763"><ele>575.6666666666666</ele><time>2026-03-28T12:03:06.808Z</time></trkpt><trkpt lat="40.0542918" lon="9.6261746"><ele>574.3333333333334</ele><time>2026-03-28T12:03:09.814Z</time></trkpt><trkpt lat="40.054283" lon="9.6262742"><ele>573.0</ele><time>2026-03-28T12:03:12.817Z</time></trkpt><trkpt lat="40.054282" lon="9.6263716"><ele>572.8333333333334</ele><time>2026-03-28T12:03:15.815Z</time></trkpt><trkpt lat="40.0542908" lon="9.6264647"><ele>572.6666666666666</ele><time>2026-03-28T12:03:17.817Z</time></trkpt><trkpt lat="40.054306" lon="9.6266173"><ele>572.5</ele><time>2026-03-28T12:03:19.812Z</time></trkpt><trkpt lat="40.0543205" lon="9.6267037"><ele>572.3333333333333</ele><time>2026-03-28T12:03:20.812Z</time></trkpt><trkpt lat="40.0543438" lon="9.6268128"><ele>572.1666666666666</ele><time>2026-03-28T12:03:21.815Z</time></trkpt><trkpt lat="40.0543717" lon="9.6269364"><ele>572.0</ele><time>2026-03-28T12:03:22.823Z</time></trkpt><trkpt lat="40.0543981" lon="9.6270604"><ele>572.0</ele><time>2026-03-28T12:03:23.818Z</time></trkpt><trkpt lat="40.0543907" lon="9.627199"><ele>572.0</ele><time>2026-03-28T12:03:24.812Z</time></trkpt><trkpt lat="40.0543616" lon="9.6273491"><ele>572.0</ele><time>2026-03-28T12:03:25.807Z</time></trkpt><trkpt lat="40.0543154" lon="9.6275014"><ele>572.0</ele><time>2026-03-28T12:03:26.808Z</time></trkpt><trkpt lat="40.0542514" lon="9.6276678"><ele>576.0</ele><time>2026-03-28T12:03:27.812Z</time></trkpt><trkpt lat="40.0541708" lon="9.6278263"><ele>580.0</ele><time>2026-03-28T12:03:28.821Z</time></trkpt><trkpt lat="40.0540681" lon="9.6279712"><ele>584.0</ele><time>2026-03-28T12:03:29.818Z</time></trkpt><trkpt lat="40.0539482" lon="9.6280925"><ele>588.0</ele><time>2026-03-28T12:03:30.816Z</time></trkpt><trkpt lat="40.0538318" lon="9.6281822"><ele>579.0</ele><time>2026-03-28T12:03:31.817Z</time></trkpt><trkpt lat="40.0537304" lon="9.6282656"><ele>570.0</ele><time>2026-03-28T12:03:32.817Z</time></trkpt><trkpt lat="40.0536545" lon="9.628371"><ele>561.0</ele><time>2026-03-28T12:03:33.816Z</time></trkpt><trkpt lat="40.0536139" lon="9.6285033"><ele>552.0</ele><time>2026-03-28T12:03:34.819Z</time></trkpt><trkpt lat="40.0536116" lon="9.6286519"><ele>552.0</ele><time>2026-03-28T12:03:35.81Z</time></trkpt><trkpt lat="40.0536119" lon="9.6288083"><ele>552.0</ele><time>2026-03-28T12:03:36.817Z</time></trkpt><trkpt lat="40.0536534" lon="9.6289804"><ele>552.0</ele><time>2026-03-28T12:03:37.81Z</time></trkpt><trkpt lat="40.0536731" lon="9.629175"><ele>552.0</ele><time>2026-03-28T12:03:38.807Z</time></trkpt><trkpt lat="40.0536587" lon="9.6293832"><ele>552.6666666666666</ele><time>2026-03-28T12:03:39.806Z</time></trkpt><trkpt lat="40.0536443" lon="9.6295925"><ele>553.3333333333333</ele><time>2026-03-28T12:03:40.808Z</time></trkpt><trkpt lat="40.0536203" lon="9.6298066"><ele>554.0</ele><time>2026-03-28T12:03:41.806Z</time></trkpt><trkpt lat="40.0535732" lon="9.6300507"><ele>554.0</ele><time>2026-03-28T12:03:42.81Z</time></trkpt><trkpt lat="40.0535415" lon="9.6302929"><ele>554.0</ele><time>2026-03-28T12:03:43.811Z</time></trkpt><trkpt lat="40.0534961" lon="9.6305202"><ele>554.0</ele><time>2026-03-28T12:03:44.802Z</time></trkpt><trkpt lat="40.0534481" lon="9.6307421"><ele>557.3333333333333</ele><time>2026-03-28T12:03:45.806Z</time></trkpt><trkpt lat="40.0533372" lon="9.6309212"><ele>560.6666666666666</ele><time>2026-03-28T12:03:46.812Z</time></trkpt><trkpt lat="40.0532177" lon="9.6310866"><ele>564.0</ele><time>2026-03-28T12:03:47.81Z</time></trkpt><trkpt lat="40.0531333" lon="9.6312725"><ele>554.3333333333334</ele><time>2026-03-28T12:03:48.807Z</time></trkpt><trkpt lat="40.053063" lon="9.6314925"><ele>544.6666666666667</ele><time>2026-03-28T12:03:49.804Z</time></trkpt><trkpt lat="40.052991" lon="9.6317113"><ele>535.0</ele><time>2026-03-28T12:03:50.807Z</time></trkpt><trkpt lat="40.0529165" lon="9.6319166"><ele>544.0</ele><time>2026-03-28T12:03:51.807Z</time></trkpt><trkpt lat="40.0528177" lon="9.6320997"><ele>553.0</ele><time>2026-03-28T12:03:52.804Z</time></trkpt><trkpt lat="40.0526884" lon="9.6322613"><ele>562.0</ele><time>2026-03-28T12:03:53.806Z</time></trkpt><trkpt lat="40.0525568" lon="9.6324297"><ele>558.0</ele><time>2026-03-28T12:03:54.812Z</time></trkpt><trkpt lat="40.0524198" lon="9.6325983"><ele>554.0</ele><time>2026-03-28T12:03:55.805Z</time></trkpt><trkpt lat="40.0522927" lon="9.6327635"><ele>550.0</ele><time>2026-03-28T12:03:56.808Z</time></trkpt><trkpt lat="40.0521839" lon="9.632929"><ele>550.0</ele><time>2026-03-28T12:03:57.805Z</time></trkpt><trkpt lat="40.0520936" lon="9.6331059"><ele>550.0</ele><time>2026-03-28T12:03:58.809Z</time></trkpt><trkpt lat="40.0520207" lon="9.6333077"><ele>550.0</ele><time>2026-03-28T12:03:59.806Z</time></trkpt><trkpt lat="40.0519604" lon="9.6335206"><ele>550.0</ele><time>2026-03-28T12:04:00.81Z</time></trkpt><trkpt lat="40.0519175" lon="9.6337463"><ele>550.0</ele><time>2026-03-28T12:04:01.806Z</time></trkpt><trkpt lat="40.0519039" lon="9.6339762"><ele>550.0</ele><time>2026-03-28T12:04:02.809Z</time></trkpt><trkpt lat="40.0519263" lon="9.6342014"><ele>550.0</ele><time>2026-03-28T12:04:03.807Z</time></trkpt><trkpt lat="40.0519595" lon="9.634418"><ele>550.0</ele><time>2026-03-28T12:04:04.809Z</time></trkpt><trkpt lat="40.0520326" lon="9.6345988"><ele>550.0</ele><time>2026-03-28T12:04:05.807Z</time></trkpt><trkpt lat="40.0520986" lon="9.6347518"><ele>547.6</ele><time>2026-03-28T12:04:06.817Z</time></trkpt><trkpt lat="40.0521571" lon="9.6348912"><ele>545.2</ele><time>2026-03-28T12:04:07.808Z</time></trkpt><trkpt lat="40.0521572" lon="9.6350003"><ele>542.8</ele><time>2026-03-28T12:04:08.809Z</time></trkpt><trkpt lat="40.0520762" lon="9.6350971"><ele>540.4</ele><time>2026-03-28T12:04:09.805Z</time></trkpt><trkpt lat="40.0519844" lon="9.6351629"><ele>538.0</ele><time>2026-03-28T12:04:10.805Z</time></trkpt><trkpt lat="40.0518938" lon="9.6352485"><ele>537.25</ele><time>2026-03-28T12:04:11.806Z</time></trkpt><trkpt lat="40.0518436" lon="9.6353744"><ele>536.5</ele><time>2026-03-28T12:04:12.808Z</time></trkpt><trkpt lat="40.0518473" lon="9.6355181"><ele>535.75</ele><time>2026-03-28T12:04:13.81Z</time></trkpt><trkpt lat="40.051892" lon="9.6356596"><ele>535.0</ele><time>2026-03-28T12:04:14.808Z</time></trkpt><trkpt lat="40.0519684" lon="9.6357943"><ele>535.0</ele><time>2026-03-28T12:04:15.812Z</time></trkpt><trkpt lat="40.0520436" lon="9.6359288"><ele>535.0</ele><time>2026-03-28T12:04:16.817Z</time></trkpt><trkpt lat="40.0521062" lon="9.6360501"><ele>535.0</ele><time>2026-03-28T12:04:17.818Z</time></trkpt><trkpt lat="40.0520996" lon="9.6361748"><ele>535.0</ele><time>2026-03-28T12:04:18.813Z</time></trkpt><trkpt lat="40.0520666" lon="9.636309"><ele>535.0</ele><time>2026-03-28T12:04:19.814Z</time></trkpt><trkpt lat="40.051963" lon="9.6364016"><ele>536.25</ele><time>2026-03-28T12:04:20.81Z</time></trkpt><trkpt lat="40.0518984" lon="9.6365404"><ele>537.5</ele><time>2026-03-28T12:04:21.815Z</time></trkpt><trkpt lat="40.0518254" lon="9.636719"><ele>538.75</ele><time>2026-03-28T12:04:22.811Z</time></trkpt><trkpt lat="40.0517511" lon="9.6368955"><ele>540.0</ele><time>2026-03-28T12:04:23.816Z</time></trkpt><trkpt lat="40.0517103" lon="9.6370928"><ele>544.0</ele><time>2026-03-28T12:04:24.809Z</time></trkpt><trkpt lat="40.051689" lon="9.6373095"><ele>548.0</ele><time>2026-03-28T12:04:25.808Z</time></trkpt><trkpt lat="40.0516585" lon="9.6375151"><ele>552.0</ele><time>2026-03-28T12:04:26.809Z</time></trkpt><trkpt lat="40.0515682" lon="9.6376976"><ele>540.3333333333334</ele><time>2026-03-28T12:04:27.806Z</time></trkpt><trkpt lat="40.0514552" lon="9.6378506"><ele>528.6666666666667</ele><time>2026-03-28T12:04:28.805Z</time></trkpt><trkpt lat="40.0513432" lon="9.6379751"><ele>517.0</ele><time>2026-03-28T12:04:29.808Z</time></trkpt><trkpt lat="40.0512466" lon="9.6381205"><ele>517.0</ele><time>2026-03-28T12:04:30.811Z</time></trkpt><trkpt lat="40.0511559" lon="9.6382773"><ele>517.0</ele><time>2026-03-28T12:04:31.81Z</time></trkpt><trkpt lat="40.0510849" lon="9.638486"><ele>517.0</ele><time>2026-03-28T12:04:32.805Z</time></trkpt><trkpt lat="40.0509977" lon="9.6387015"><ele>525.3333333333334</ele><time>2026-03-28T12:04:33.804Z</time></trkpt><trkpt lat="40.0509178" lon="9.6389127"><ele>533.6666666666666</ele><time>2026-03-28T12:04:34.804Z</time></trkpt><trkpt lat="40.05084" lon="9.6391105"><ele>542.0</ele><time>2026-03-28T12:04:35.805Z</time></trkpt><trkpt lat="40.0507779" lon="9.6392912"><ele>525.3333333333333</ele><time>2026-03-28T12:04:36.812Z</time></trkpt><trkpt lat="40.0507342" lon="9.6394881"><ele>508.66666666666663</ele><time>2026-03-28T12:04:37.804Z</time></trkpt><trkpt lat="40.0507138" lon="9.639713"><ele>492.0</ele><time>2026-03-28T12:04:38.806Z</time></trkpt><trkpt lat="40.0507022" lon="9.6399564"><ele>492.0</ele><time>2026-03-28T12:04:39.805Z</time></trkpt><trkpt lat="40.050688" lon="9.640199"><ele>492.0</ele><time>2026-03-28T12:04:40.809Z</time></trkpt><trkpt lat="40.0506759" lon="9.6404436"><ele>492.0</ele><time>2026-03-28T12:04:41.806Z</time></trkpt><trkpt lat="40.0506608" lon="9.6406999"><ele>492.33333333333337</ele><time>2026-03-28T12:04:42.808Z</time></trkpt><trkpt lat="40.0506466" lon="9.6409605"><ele>492.6666666666667</ele><time>2026-03-28T12:04:43.804Z</time></trkpt><trkpt lat="40.050633" lon="9.6412269"><ele>493.0</ele><time>2026-03-28T12:04:44.802Z</time></trkpt><trkpt lat="40.0506177" lon="9.6414995"><ele>495.0</ele><time>2026-03-28T12:04:45.804Z</time></trkpt><trkpt lat="40.0506034" lon="9.6417721"><ele>497.0</ele><time>2026-03-28T12:04:46.806Z</time></trkpt><trkpt lat="40.0505912" lon="9.642031"><ele>499.0</ele><time>2026-03-28T12:04:47.807Z</time></trkpt><trkpt lat="40.0505671" lon="9.6422786"><ele>501.6666666666667</ele><time>2026-03-28T12:04:48.807Z</time></trkpt><trkpt lat="40.0505166" lon="9.642535"><ele>504.33333333333337</ele><time>2026-03-28T12:04:49.805Z</time></trkpt><trkpt lat="40.0504409" lon="9.6427786"><ele>507.0</ele><time>2026-03-28T12:04:50.808Z</time></trkpt><trkpt lat="40.0503688" lon="9.6430285"><ele>512.3333333333334</ele><time>2026-03-28T12:04:51.807Z</time></trkpt><trkpt lat="40.0502956" lon="9.6432675"><ele>517.6666666666667</ele><time>2026-03-28T12:04:52.809Z</time></trkpt><trkpt lat="40.0502256" lon="9.6434927"><ele>523.0</ele><time>2026-03-28T12:04:53.806Z</time></trkpt><trkpt lat="40.050148" lon="9.6437139"><ele>529.0</ele><time>2026-03-28T12:04:54.805Z</time></trkpt><trkpt lat="40.0500419" lon="9.6439182"><ele>535.0</ele><time>2026-03-28T12:04:55.805Z</time></trkpt><trkpt lat="40.0499119" lon="9.6441141"><ele>541.0</ele><time>2026-03-28T12:04:56.801Z</time></trkpt><trkpt lat="40.0497827" lon="9.6443202"><ele>532.3333333333334</ele><time>2026-03-28T12:04:57.806Z</time></trkpt><trkpt lat="40.0496608" lon="9.6445316"><ele>523.6666666666666</ele><time>2026-03-28T12:04:58.806Z</time></trkpt><trkpt lat="40.0495381" lon="9.644755"><ele>515.0</ele><time>2026-03-28T12:04:59.805Z</time></trkpt><trkpt lat="40.0494057" lon="9.6449787"><ele>515.0</ele><time>2026-03-28T12:05:00.806Z</time></trkpt><trkpt lat="40.0492785" lon="9.6452"><ele>515.0</ele><time>2026-03-28T12:05:01.807Z</time></trkpt><trkpt lat="40.0491452" lon="9.6454231"><ele>515.0</ele><time>2026-03-28T12:05:02.803Z</time></trkpt><trkpt lat="40.0490102" lon="9.6456499"><ele>515.6666666666666</ele><time>2026-03-28T12:05:03.807Z</time></trkpt><trkpt lat="40.0488869" lon="9.6458833"><ele>516.3333333333334</ele><time>2026-03-28T12:05:04.804Z</time></trkpt><trkpt lat="40.0487606" lon="9.6461192"><ele>517.0</ele><time>2026-03-28T12:05:05.802Z</time></trkpt><trkpt lat="40.0486339" lon="9.6463595"><ele>517.0</ele><time>2026-03-28T12:05:06.803Z</time></trkpt><trkpt lat="40.0485065" lon="9.6465942"><ele>517.0</ele><time>2026-03-28T12:05:07.805Z</time></trkpt><trkpt lat="40.0483838" lon="9.6468126"><ele>517.0</ele><time>2026-03-28T12:05:08.805Z</time></trkpt><trkpt lat="40.0482686" lon="9.6470189"><ele>503.0</ele><time>2026-03-28T12:05:09.808Z</time></trkpt><trkpt lat="40.0481649" lon="9.6472157"><ele>489.0</ele><time>2026-03-28T12:05:10.805Z</time></trkpt><trkpt lat="40.0480745" lon="9.6474186"><ele>475.0</ele><time>2026-03-28T12:05:11.805Z</time></trkpt><trkpt lat="40.0480068" lon="9.6476418"><ele>481.0</ele><time>2026-03-28T12:05:12.806Z</time></trkpt><trkpt lat="40.0479568" lon="9.6478814"><ele>487.0</ele><time>2026-03-28T12:05:13.806Z</time></trkpt><trkpt lat="40.0479051" lon="9.6481255"><ele>493.0</ele><time>2026-03-28T12:05:14.809Z</time></trkpt><trkpt lat="40.0478543" lon="9.6483627"><ele>493.0</ele><time>2026-03-28T12:05:15.81Z</time></trkpt><trkpt lat="40.0478004" lon="9.6485902"><ele>493.0</ele><time>2026-03-28T12:05:16.81Z</time></trkpt><trkpt lat="40.0477261" lon="9.6488"><ele>493.0</ele><time>2026-03-28T12:05:17.805Z</time></trkpt><trkpt lat="40.0476302" lon="9.6489693"><ele>490.6666666666667</ele><time>2026-03-28T12:05:18.813Z</time></trkpt><trkpt lat="40.0475161" lon="9.6490946"><ele>488.33333333333337</ele><time>2026-03-28T12:05:19.814Z</time></trkpt><trkpt lat="40.0473602" lon="9.6491816"><ele>486.0</ele><time>2026-03-28T12:05:20.809Z</time></trkpt><trkpt lat="40.0472135" lon="9.6492847"><ele>486.0</ele><time>2026-03-28T12:05:21.809Z</time></trkpt><trkpt lat="40.0470751" lon="9.6494252"><ele>486.0</ele><time>2026-03-28T12:05:22.808Z</time></trkpt><trkpt lat="40.0469406" lon="9.649586"><ele>486.0</ele><time>2026-03-28T12:05:23.81Z</time></trkpt><trkpt lat="40.0468015" lon="9.6497576"><ele>488.66666666666663</ele><time>2026-03-28T12:05:24.809Z</time></trkpt><trkpt lat="40.0466611" lon="9.6499451"><ele>491.3333333333333</ele><time>2026-03-28T12:05:25.811Z</time></trkpt><trkpt lat="40.046519" lon="9.6501375"><ele>494.0</ele><time>2026-03-28T12:05:26.805Z</time></trkpt><trkpt lat="40.0463791" lon="9.6503257"><ele>494.0</ele><time>2026-03-28T12:05:27.804Z</time></trkpt><trkpt lat="40.046242" lon="9.6505065"><ele>494.0</ele><time>2026-03-28T12:05:28.803Z</time></trkpt><trkpt lat="40.0461132" lon="9.6506909"><ele>494.0</ele><time>2026-03-28T12:05:29.808Z</time></trkpt><trkpt lat="40.0459872" lon="9.6508667"><ele>494.0</ele><time>2026-03-28T12:05:30.805Z</time></trkpt><trkpt lat="40.0458644" lon="9.6510481"><ele>494.0</ele><time>2026-03-28T12:05:31.81Z</time></trkpt><trkpt lat="40.0457566" lon="9.6512385"><ele>494.0</ele><time>2026-03-28T12:05:32.805Z</time></trkpt><trkpt lat="40.045643" lon="9.6514352"><ele>493.0</ele><time>2026-03-28T12:05:33.805Z</time></trkpt><trkpt lat="40.0455371" lon="9.6516455"><ele>492.0</ele><time>2026-03-28T12:05:34.808Z</time></trkpt><trkpt lat="40.045434" lon="9.651854"><ele>491.0</ele><time>2026-03-28T12:05:35.816Z</time></trkpt><trkpt lat="40.0453341" lon="9.6520821"><ele>491.0</ele><time>2026-03-28T12:05:36.804Z</time></trkpt><trkpt lat="40.0452348" lon="9.6523088"><ele>491.0</ele><time>2026-03-28T12:05:37.809Z</time></trkpt><trkpt lat="40.0451309" lon="9.6525412"><ele>491.0</ele><time>2026-03-28T12:05:38.806Z</time></trkpt><trkpt lat="40.0450275" lon="9.6527708"><ele>485.66666666666663</ele><time>2026-03-28T12:05:39.811Z</time></trkpt><trkpt lat="40.0449188" lon="9.6529987"><ele>480.33333333333337</ele><time>2026-03-28T12:05:40.808Z</time></trkpt><trkpt lat="40.0448122" lon="9.6532182"><ele>475.0</ele><time>2026-03-28T12:05:41.809Z</time></trkpt><trkpt lat="40.0447092" lon="9.6534242"><ele>484.0</ele><time>2026-03-28T12:05:42.804Z</time></trkpt><trkpt lat="40.0446056" lon="9.6536226"><ele>493.0</ele><time>2026-03-28T12:05:43.804Z</time></trkpt><trkpt lat="40.0444975" lon="9.6538162"><ele>502.0</ele><time>2026-03-28T12:05:44.806Z</time></trkpt><trkpt lat="40.0443838" lon="9.6540085"><ele>502.0</ele><time>2026-03-28T12:05:45.808Z</time></trkpt><trkpt lat="40.0442732" lon="9.6542004"><ele>502.0</ele><time>2026-03-28T12:05:46.808Z</time></trkpt><trkpt lat="40.0441273" lon="9.6543658"><ele>502.0</ele><time>2026-03-28T12:05:47.813Z</time></trkpt><trkpt lat="40.0439733" lon="9.654513"><ele>500.6666666666667</ele><time>2026-03-28T12:05:48.802Z</time></trkpt><trkpt lat="40.0438053" lon="9.6546485"><ele>499.33333333333337</ele><time>2026-03-28T12:05:49.807Z</time></trkpt><trkpt lat="40.0436318" lon="9.6547761"><ele>498.0</ele><time>2026-03-28T12:05:50.806Z</time></trkpt><trkpt lat="40.0434682" lon="9.6548897"><ele>498.0</ele><time>2026-03-28T12:05:51.807Z</time></trkpt><trkpt lat="40.0433115" lon="9.6549982"><ele>498.0</ele><time>2026-03-28T12:05:52.805Z</time></trkpt><trkpt lat="40.0431584" lon="9.6551058"><ele>498.0</ele><time>2026-03-28T12:05:53.812Z</time></trkpt><trkpt lat="40.0430083" lon="9.6552095"><ele>499.0</ele><time>2026-03-28T12:05:54.805Z</time></trkpt><trkpt lat="40.0428655" lon="9.655315"><ele>500.0</ele><time>2026-03-28T12:05:55.807Z</time></trkpt><trkpt lat="40.042736" lon="9.655431"><ele>501.0</ele><time>2026-03-28T12:05:56.804Z</time></trkpt><trkpt lat="40.0426101" lon="9.6555499"><ele>501.0</ele><time>2026-03-28T12:05:57.807Z</time></trkpt><trkpt lat="40.0425095" lon="9.6557196"><ele>501.0</ele><time>2026-03-28T12:05:58.807Z</time></trkpt><trkpt lat="40.042408" lon="9.6558823"><ele>501.0</ele><time>2026-03-28T12:05:59.808Z</time></trkpt><trkpt lat="40.0423019" lon="9.6560308"><ele>501.66666666666663</ele><time>2026-03-28T12:06:00.816Z</time></trkpt><trkpt lat="40.042173" lon="9.6561429"><ele>502.3333333333333</ele><time>2026-03-28T12:06:01.806Z</time></trkpt><trkpt lat="40.0420481" lon="9.6562463"><ele>503.0</ele><time>2026-03-28T12:06:02.804Z</time></trkpt><trkpt lat="40.0419019" lon="9.6562985"><ele>503.0</ele><time>2026-03-28T12:06:03.807Z</time></trkpt><trkpt lat="40.0417511" lon="9.6563451"><ele>503.0</ele><time>2026-03-28T12:06:04.813Z</time></trkpt><trkpt lat="40.0416073" lon="9.6564219"><ele>503.0</ele><time>2026-03-28T12:06:05.81Z</time></trkpt><trkpt lat="40.0414537" lon="9.6565356"><ele>498.3333333333333</ele><time>2026-03-28T12:06:06.808Z</time></trkpt><trkpt lat="40.0413" lon="9.6566508"><ele>493.66666666666663</ele><time>2026-03-28T12:06:07.812Z</time></trkpt><trkpt lat="40.0411331" lon="9.6567634"><ele>489.0</ele><time>2026-03-28T12:06:08.803Z</time></trkpt><trkpt lat="40.0409674" lon="9.6568782"><ele>492.0</ele><time>2026-03-28T12:06:09.805Z</time></trkpt><trkpt lat="40.0407862" lon="9.6570187"><ele>495.0</ele><time>2026-03-28T12:06:10.809Z</time></trkpt><trkpt lat="40.0406107" lon="9.6571549"><ele>498.0</ele><time>2026-03-28T12:06:11.81Z</time></trkpt><trkpt lat="40.0404169" lon="9.6572984"><ele>498.0</ele><time>2026-03-28T12:06:12.804Z</time></trkpt><trkpt lat="40.0402345" lon="9.6574398"><ele>498.0</ele><time>2026-03-28T12:06:13.805Z</time></trkpt><trkpt lat="40.0400648" lon="9.6575438"><ele>498.0</ele><time>2026-03-28T12:06:14.807Z</time></trkpt><trkpt lat="40.0398883" lon="9.6576473"><ele>492.33333333333337</ele><time>2026-03-28T12:06:15.805Z</time></trkpt><trkpt lat="40.0396938" lon="9.6577197"><ele>486.6666666666667</ele><time>2026-03-28T12:06:16.809Z</time></trkpt><trkpt lat="40.0394965" lon="9.6577984"><ele>481.0</ele><time>2026-03-28T12:06:17.806Z</time></trkpt><trkpt lat="40.0393048" lon="9.6578563"><ele>491.33333333333337</ele><time>2026-03-28T12:06:18.808Z</time></trkpt><trkpt lat="40.039131" lon="9.6579277"><ele>501.66666666666663</ele><time>2026-03-28T12:06:19.808Z</time></trkpt><trkpt lat="40.0389706" lon="9.6579942"><ele>512.0</ele><time>2026-03-28T12:06:20.816Z</time></trkpt><trkpt lat="40.0388131" lon="9.6580375"><ele>512.0</ele><time>2026-03-28T12:06:21.806Z</time></trkpt><trkpt lat="40.0386562" lon="9.6580549"><ele>512.0</ele><time>2026-03-28T12:06:22.801Z</time></trkpt><trkpt lat="40.0385014" lon="9.6580655"><ele>512.0</ele><time>2026-03-28T12:06:23.804Z</time></trkpt><trkpt lat="40.0383483" lon="9.6580854"><ele>507.3333333333333</ele><time>2026-03-28T12:06:24.805Z</time></trkpt><trkpt lat="40.0381975" lon="9.6581104"><ele>502.66666666666663</ele><time>2026-03-28T12:06:25.805Z</time></trkpt><trkpt lat="40.0380487" lon="9.6581388"><ele>498.0</ele><time>2026-03-28T12:06:26.803Z</time></trkpt><trkpt lat="40.0379008" lon="9.6581664"><ele>498.0</ele><time>2026-03-28T12:06:27.807Z</time></trkpt><trkpt lat="40.0377561" lon="9.6581718"><ele>498.0</ele><time>2026-03-28T12:06:28.802Z</time></trkpt><trkpt lat="40.0376219" lon="9.6581555"><ele>498.0</ele><time>2026-03-28T12:06:29.802Z</time></trkpt><trkpt lat="40.0374888" lon="9.6581652"><ele>498.0</ele><time>2026-03-28T12:06:30.807Z</time></trkpt><trkpt lat="40.0373563" lon="9.6581855"><ele>497.5</ele><time>2026-03-28T12:06:31.803Z</time></trkpt><trkpt lat="40.0372258" lon="9.6582124"><ele>497.0</ele><time>2026-03-28T12:06:32.802Z</time></trkpt><trkpt lat="40.0370905" lon="9.6582336"><ele>496.5</ele><time>2026-03-28T12:06:33.8Z</time></trkpt><trkpt lat="40.0369598" lon="9.6582371"><ele>496.0</ele><time>2026-03-28T12:06:34.808Z</time></trkpt><trkpt lat="40.0368342" lon="9.6582"><ele>496.0</ele><time>2026-03-28T12:06:35.801Z</time></trkpt><trkpt lat="40.0367104" lon="9.6581643"><ele>496.0</ele><time>2026-03-28T12:06:36.802Z</time></trkpt><trkpt lat="40.0365821" lon="9.6581421"><ele>496.0</ele><time>2026-03-28T12:06:37.801Z</time></trkpt><trkpt lat="40.0364617" lon="9.6581646"><ele>496.0</ele><time>2026-03-28T12:06:38.809Z</time></trkpt><trkpt lat="40.0363484" lon="9.6581904"><ele>493.0</ele><time>2026-03-28T12:06:39.806Z</time></trkpt><trkpt lat="40.0362324" lon="9.6582518"><ele>490.0</ele><time>2026-03-28T12:06:40.806Z</time></trkpt><trkpt lat="40.0361113" lon="9.6583036"><ele>487.0</ele><time>2026-03-28T12:06:41.808Z</time></trkpt><trkpt lat="40.0360015" lon="9.6583873"><ele>484.0</ele><time>2026-03-28T12:06:42.808Z</time></trkpt><trkpt lat="40.0359054" lon="9.6584849"><ele>484.0</ele><time>2026-03-28T12:06:43.807Z</time></trkpt><trkpt lat="40.0358264" lon="9.6586016"><ele>484.0</ele><time>2026-03-28T12:06:44.807Z</time></trkpt><trkpt lat="40.0357692" lon="9.6587479"><ele>484.0</ele><time>2026-03-28T12:06:45.804Z</time></trkpt><trkpt lat="40.0357229" lon="9.6589036"><ele>484.0</ele><time>2026-03-28T12:06:46.805Z</time></trkpt><trkpt lat="40.0356717" lon="9.6590615"><ele>483.25</ele><time>2026-03-28T12:06:47.806Z</time></trkpt><trkpt lat="40.0356166" lon="9.6592246"><ele>482.5</ele><time>2026-03-28T12:06:48.811Z</time></trkpt><trkpt lat="40.0355547" lon="9.6593864"><ele>481.75</ele><time>2026-03-28T12:06:49.806Z</time></trkpt><trkpt lat="40.0354993" lon="9.6595362"><ele>481.0</ele><time>2026-03-28T12:06:50.806Z</time></trkpt><trkpt lat="40.0354221" lon="9.6596791"><ele>481.0</ele><time>2026-03-28T12:06:51.807Z</time></trkpt><trkpt lat="40.0353382" lon="9.6598093"><ele>481.0</ele><time>2026-03-28T12:06:52.814Z</time></trkpt><trkpt lat="40.035243" lon="9.65994"><ele>481.0</ele><time>2026-03-28T12:06:53.808Z</time></trkpt><trkpt lat="40.0351342" lon="9.6600706"><ele>481.0</ele><time>2026-03-28T12:06:54.81Z</time></trkpt><trkpt lat="40.0350208" lon="9.6602138"><ele>481.33333333333337</ele><time>2026-03-28T12:06:55.81Z</time></trkpt><trkpt lat="40.0349022" lon="9.6603571"><ele>481.66666666666663</ele><time>2026-03-28T12:06:56.807Z</time></trkpt><trkpt lat="40.0347777" lon="9.6604973"><ele>482.0</ele><time>2026-03-28T12:06:57.813Z</time></trkpt><trkpt lat="40.0346435" lon="9.6606307"><ele>482.0</ele><time>2026-03-28T12:06:58.811Z</time></trkpt><trkpt lat="40.0345028" lon="9.6607389"><ele>482.0</ele><time>2026-03-28T12:06:59.802Z</time></trkpt><trkpt lat="40.0343463" lon="9.6608187"><ele>482.0</ele><time>2026-03-28T12:07:00.808Z</time></trkpt><trkpt lat="40.0341778" lon="9.6608712"><ele>475.66666666666663</ele><time>2026-03-28T12:07:01.805Z</time></trkpt><trkpt lat="40.0340095" lon="9.6609245"><ele>469.33333333333337</ele><time>2026-03-28T12:07:02.812Z</time></trkpt><trkpt lat="40.0338459" lon="9.6610096"><ele>463.0</ele><time>2026-03-28T12:07:03.808Z</time></trkpt><trkpt lat="40.0336878" lon="9.6611149"><ele>463.0</ele><time>2026-03-28T12:07:04.806Z</time></trkpt><trkpt lat="40.0335403" lon="9.661224"><ele>463.0</ele><time>2026-03-28T12:07:05.807Z</time></trkpt><trkpt lat="40.0334064" lon="9.6613295"><ele>463.0</ele><time>2026-03-28T12:07:06.806Z</time></trkpt><trkpt lat="40.0332903" lon="9.6614245"><ele>463.0</ele><time>2026-03-28T12:07:07.806Z</time></trkpt><trkpt lat="40.0331938" lon="9.6615024"><ele>462.99999999999994</ele><time>2026-03-28T12:07:08.804Z</time></trkpt><trkpt lat="40.033105" lon="9.6615772"><ele>462.99999999999994</ele><time>2026-03-28T12:07:09.817Z</time></trkpt><trkpt lat="40.0330362" lon="9.6616485"><ele>463.0</ele><time>2026-03-28T12:07:10.807Z</time></trkpt><trkpt lat="40.0329734" lon="9.6617041"><ele>463.0</ele><time>2026-03-28T12:07:11.808Z</time></trkpt><trkpt lat="40.032915" lon="9.6617624"><ele>463.0</ele><time>2026-03-28T12:07:13.805Z</time></trkpt><trkpt lat="40.0328597" lon="9.6618351"><ele>463.0</ele><time>2026-03-28T12:07:16.805Z</time></trkpt><trkpt lat="40.0327979" lon="9.6619183"><ele>463.0</ele><time>2026-03-28T12:07:27.812Z</time></trkpt></trkseg><trkseg><trkpt lat="40.0308223" lon="9.6642643"><ele>481.1666666666667</ele><time>2026-03-28T13:21:21.87Z</time></trkpt><trkpt lat="40.0307576" lon="9.6643069"><ele>481.33333333333337</ele><time>2026-03-28T13:21:22.865Z</time></trkpt><trkpt lat="40.0306927" lon="9.6643533"><ele>481.5</ele><time>2026-03-28T13:21:23.867Z</time></trkpt><trkpt lat="40.0306138" lon="9.664387"><ele>481.66666666666663</ele><time>2026-03-28T13:21:24.903Z</time></trkpt><trkpt lat="40.0305504" lon="9.664431"><ele>481.8333333333333</ele><time>2026-03-28T13:21:25.851Z</time></trkpt><trkpt lat="40.0305205" lon="9.6645175"><ele>482.0</ele><time>2026-03-28T13:21:26.856Z</time></trkpt><trkpt lat="40.0303939" lon="9.6646132"><ele>482.0</ele><time>2026-03-28T13:21:28.393Z</time></trkpt><trkpt lat="40.0303122" lon="9.6646772"><ele>482.00000000000006</ele><time>2026-03-28T13:21:29.417Z</time></trkpt><trkpt lat="40.0302138" lon="9.664742"><ele>482.00000000000006</ele><time>2026-03-28T13:21:30.409Z</time></trkpt><trkpt lat="40.0301234" lon="9.6647989"><ele>482.0</ele><time>2026-03-28T13:21:31.414Z</time></trkpt><trkpt lat="40.0300292" lon="9.6648567"><ele>482.0</ele><time>2026-03-28T13:21:32.411Z</time></trkpt><trkpt lat="40.0299434" lon="9.6649112"><ele>480.20000000000005</ele><time>2026-03-28T13:21:33.414Z</time></trkpt><trkpt lat="40.029867" lon="9.6649899"><ele>478.40000000000003</ele><time>2026-03-28T13:21:34.416Z</time></trkpt><trkpt lat="40.0298023" lon="9.6650918"><ele>476.59999999999997</ele><time>2026-03-28T13:21:35.418Z</time></trkpt><trkpt lat="40.029742" lon="9.6651991"><ele>474.79999999999995</ele><time>2026-03-28T13:21:36.412Z</time></trkpt><trkpt lat="40.0296802" lon="9.6653133"><ele>473.0</ele><time>2026-03-28T13:21:37.414Z</time></trkpt><trkpt lat="40.0296196" lon="9.6654287"><ele>473.0</ele><time>2026-03-28T13:21:38.424Z</time></trkpt><trkpt lat="40.0295632" lon="9.6655492"><ele>472.99999999999994</ele><time>2026-03-28T13:21:39.436Z</time></trkpt><trkpt lat="40.0295012" lon="9.6656689"><ele>472.99999999999994</ele><time>2026-03-28T13:21:40.429Z</time></trkpt><trkpt lat="40.0294387" lon="9.6657808"><ele>473.0</ele><time>2026-03-28T13:21:41.434Z</time></trkpt><trkpt lat="40.0293559" lon="9.6658777"><ele>473.0</ele><time>2026-03-28T13:21:42.438Z</time></trkpt><trkpt lat="40.0292761" lon="9.6659753"><ele>473.0</ele><time>2026-03-28T13:21:43.44Z</time></trkpt><trkpt lat="40.0291846" lon="9.6660459"><ele>472.99999999999994</ele><time>2026-03-28T13:21:44.459Z</time></trkpt><trkpt lat="40.0290858" lon="9.6661147"><ele>472.99999999999994</ele><time>2026-03-28T13:21:45.456Z</time></trkpt><trkpt lat="40.0289945" lon="9.6661723"><ele>473.0</ele><time>2026-03-28T13:21:46.453Z</time></trkpt><trkpt lat="40.0289067" lon="9.6662328"><ele>473.0</ele><time>2026-03-28T13:21:47.46Z</time></trkpt><trkpt lat="40.0288159" lon="9.6663159"><ele>472.0</ele><time>2026-03-28T13:21:48.453Z</time></trkpt><trkpt lat="40.0287423" lon="9.6664105"><ele>470.99999999999994</ele><time>2026-03-28T13:21:49.454Z</time></trkpt><trkpt lat="40.0286608" lon="9.6665046"><ele>469.99999999999994</ele><time>2026-03-28T13:21:50.452Z</time></trkpt><trkpt lat="40.0285836" lon="9.6665948"><ele>469.0</ele><time>2026-03-28T13:21:51.451Z</time></trkpt><trkpt lat="40.028485" lon="9.6666581"><ele>468.0</ele><time>2026-03-28T13:21:52.452Z</time></trkpt><trkpt lat="40.0283806" lon="9.6667047"><ele>462.0</ele><time>2026-03-28T13:21:53.453Z</time></trkpt><trkpt lat="40.0282713" lon="9.6667393"><ele>456.0</ele><time>2026-03-28T13:21:54.451Z</time></trkpt><trkpt lat="40.0281587" lon="9.6667765"><ele>450.0</ele><time>2026-03-28T13:21:55.452Z</time></trkpt><trkpt lat="40.0280388" lon="9.6668127"><ele>444.0</ele><time>2026-03-28T13:21:56.452Z</time></trkpt><trkpt lat="40.0279239" lon="9.6668448"><ele>444.0</ele><time>2026-03-28T13:21:57.456Z</time></trkpt><trkpt lat="40.0278115" lon="9.666873"><ele>444.0</ele><time>2026-03-28T13:21:58.455Z</time></trkpt><trkpt lat="40.0276928" lon="9.6668983"><ele>444.0</ele><time>2026-03-28T13:21:59.448Z</time></trkpt><trkpt lat="40.0275931" lon="9.6669576"><ele>444.0</ele><time>2026-03-28T13:22:00.452Z</time></trkpt><trkpt lat="40.027494" lon="9.667051"><ele>443.0</ele><time>2026-03-28T13:22:01.453Z</time></trkpt><trkpt lat="40.0273999" lon="9.6671535"><ele>442.0</ele><time>2026-03-28T13:22:02.451Z</time></trkpt><trkpt lat="40.0273082" lon="9.6672612"><ele>441.0</ele><time>2026-03-28T13:22:03.448Z</time></trkpt><trkpt lat="40.0272139" lon="9.6673746"><ele>440.0</ele><time>2026-03-28T13:22:04.452Z</time></trkpt><trkpt lat="40.0271181" lon="9.6674892"><ele>440.0</ele><time>2026-03-28T13:22:05.449Z</time></trkpt><trkpt lat="40.0270274" lon="9.6676103"><ele>440.0</ele><time>2026-03-28T13:22:06.452Z</time></trkpt><trkpt lat="40.0269345" lon="9.6677369"><ele>440.0</ele><time>2026-03-28T13:22:07.454Z</time></trkpt><trkpt lat="40.0268454" lon="9.6678643"><ele>440.0</ele><time>2026-03-28T13:22:08.457Z</time></trkpt><trkpt lat="40.0267592" lon="9.6679804"><ele>438.8</ele><time>2026-03-28T13:22:09.452Z</time></trkpt><trkpt lat="40.0266739" lon="9.6680844"><ele>437.6</ele><time>2026-03-28T13:22:10.449Z</time></trkpt><trkpt lat="40.0265919" lon="9.6681781"><ele>436.4</ele><time>2026-03-28T13:22:11.453Z</time></trkpt><trkpt lat="40.026506" lon="9.6682508"><ele>435.2</ele><time>2026-03-28T13:22:12.457Z</time></trkpt><trkpt lat="40.0264258" lon="9.6683188"><ele>434.0</ele><time>2026-03-28T13:22:13.453Z</time></trkpt><trkpt lat="40.0263502" lon="9.6683778"><ele>433.99999999999994</ele><time>2026-03-28T13:22:14.452Z</time></trkpt><trkpt lat="40.0262832" lon="9.6684275"><ele>434.0</ele><time>2026-03-28T13:22:15.453Z</time></trkpt><trkpt lat="40.0262269" lon="9.6684762"><ele>434.0</ele><time>2026-03-28T13:22:16.451Z</time></trkpt><trkpt lat="40.0261476" lon="9.6685671"><ele>434.0</ele><time>2026-03-28T13:22:18.447Z</time></trkpt><trkpt lat="40.0261265" lon="9.6686704"><ele>433.99999999999994</ele><time>2026-03-28T13:22:21.463Z</time></trkpt><trkpt lat="40.0261191" lon="9.6687726"><ele>434.0</ele><time>2026-03-28T13:24:45.432Z</time></trkpt><trkpt lat="40.0261388" lon="9.6689253"><ele>436.6</ele><time>2026-03-28T13:24:47.463Z</time></trkpt><trkpt lat="40.0260784" lon="9.6690929"><ele>439.2</ele><time>2026-03-28T13:24:49.455Z</time></trkpt><trkpt lat="40.0260166" lon="9.6691959"><ele>441.80000000000007</ele><time>2026-03-28T13:24:50.46Z</time></trkpt><trkpt lat="40.0259538" lon="9.6692815"><ele>444.40000000000003</ele><time>2026-03-28T13:24:51.457Z</time></trkpt><trkpt lat="40.0258907" lon="9.6693501"><ele>447.0</ele><time>2026-03-28T13:24:52.46Z</time></trkpt><trkpt lat="40.0258261" lon="9.6694017"><ele>445.40000000000003</ele><time>2026-03-28T13:24:53.46Z</time></trkpt><trkpt lat="40.0257498" lon="9.6694485"><ele>443.80000000000007</ele><time>2026-03-28T13:24:54.457Z</time></trkpt><trkpt lat="40.025654" lon="9.6694801"><ele>442.2</ele><time>2026-03-28T13:24:55.45Z</time></trkpt><trkpt lat="40.0255525" lon="9.6695144"><ele>440.6</ele><time>2026-03-28T13:24:56.458Z</time></trkpt><trkpt lat="40.0254487" lon="9.6695708"><ele>439.0</ele><time>2026-03-28T13:24:57.457Z</time></trkpt><trkpt lat="40.0253409" lon="9.6696485"><ele>439.0</ele><time>2026-03-28T13:24:58.455Z</time></trkpt><trkpt lat="40.0252312" lon="9.6697306"><ele>439.0</ele><time>2026-03-28T13:24:59.458Z</time></trkpt><trkpt lat="40.0251395" lon="9.669847"><ele>439.0</ele><time>2026-03-28T13:25:00.448Z</time></trkpt><trkpt lat="40.0250586" lon="9.6699913"><ele>439.0</ele><time>2026-03-28T13:25:01.456Z</time></trkpt><trkpt lat="40.0249819" lon="9.6701521"><ele>438.25</ele><time>2026-03-28T13:25:02.456Z</time></trkpt><trkpt lat="40.0249085" lon="9.6703084"><ele>437.5</ele><time>2026-03-28T13:25:03.454Z</time></trkpt><trkpt lat="40.02484" lon="9.670448"><ele>436.75</ele><time>2026-03-28T13:25:04.452Z</time></trkpt><trkpt lat="40.0247698" lon="9.6705903"><ele>436.0</ele><time>2026-03-28T13:25:05.459Z</time></trkpt><trkpt lat="40.0246573" lon="9.6706899"><ele>436.0</ele><time>2026-03-28T13:25:06.457Z</time></trkpt><trkpt lat="40.0245315" lon="9.6707537"><ele>436.0</ele><time>2026-03-28T13:25:07.451Z</time></trkpt><trkpt lat="40.0243954" lon="9.6707908"><ele>436.0</ele><time>2026-03-28T13:25:08.445Z</time></trkpt><trkpt lat="40.0242579" lon="9.6708241"><ele>436.0</ele><time>2026-03-28T13:25:09.451Z</time></trkpt><trkpt lat="40.0241163" lon="9.6708327"><ele>430.25</ele><time>2026-03-28T13:25:10.45Z</time></trkpt><trkpt lat="40.0239774" lon="9.6708595"><ele>424.5</ele><time>2026-03-28T13:25:11.467Z</time></trkpt><trkpt lat="40.0238403" lon="9.6709148"><ele>418.75</ele><time>2026-03-28T13:25:12.448Z</time></trkpt><trkpt lat="40.0237091" lon="9.6709954"><ele>413.0</ele><time>2026-03-28T13:25:13.449Z</time></trkpt><trkpt lat="40.0235859" lon="9.6710984"><ele>409.75</ele><time>2026-03-28T13:25:14.451Z</time></trkpt><trkpt lat="40.0234693" lon="9.6712195"><ele>406.5</ele><time>2026-03-28T13:25:15.454Z</time></trkpt><trkpt lat="40.0233559" lon="9.6713446"><ele>403.25</ele><time>2026-03-28T13:25:16.474Z</time></trkpt><trkpt lat="40.023241" lon="9.6714719"><ele>400.0</ele><time>2026-03-28T13:25:17.457Z</time></trkpt><trkpt lat="40.023135" lon="9.6716161"><ele>400.0</ele><time>2026-03-28T13:25:18.452Z</time></trkpt><trkpt lat="40.0230356" lon="9.6717766"><ele>400.0</ele><time>2026-03-28T13:25:19.448Z</time></trkpt><trkpt lat="40.0229456" lon="9.6719515"><ele>400.0</ele><time>2026-03-28T13:25:20.45Z</time></trkpt><trkpt lat="40.0228559" lon="9.672123"><ele>393.0</ele><time>2026-03-28T13:25:21.45Z</time></trkpt><trkpt lat="40.0227408" lon="9.6722831"><ele>386.0</ele><time>2026-03-28T13:25:22.451Z</time></trkpt><trkpt lat="40.0226174" lon="9.6724244"><ele>379.0</ele><time>2026-03-28T13:25:23.454Z</time></trkpt><trkpt lat="40.0224803" lon="9.6725617"><ele>379.0</ele><time>2026-03-28T13:25:24.449Z</time></trkpt><trkpt lat="40.022338" lon="9.6727004"><ele>379.0</ele><time>2026-03-28T13:25:25.453Z</time></trkpt><trkpt lat="40.0222047" lon="9.6728484"><ele>379.0</ele><time>2026-03-28T13:25:26.452Z</time></trkpt><trkpt lat="40.0220809" lon="9.6730199"><ele>388.3333333333333</ele><time>2026-03-28T13:25:27.451Z</time></trkpt><trkpt lat="40.021979" lon="9.6731976"><ele>397.66666666666663</ele><time>2026-03-28T13:25:28.449Z</time></trkpt><trkpt lat="40.0218727" lon="9.6733649"><ele>407.0</ele><time>2026-03-28T13:25:29.442Z</time></trkpt><trkpt lat="40.021762" lon="9.6735302"><ele>405.3333333333333</ele><time>2026-03-28T13:25:30.443Z</time></trkpt><trkpt lat="40.0216502" lon="9.6736818"><ele>403.66666666666663</ele><time>2026-03-28T13:25:31.451Z</time></trkpt><trkpt lat="40.0215262" lon="9.6738264"><ele>402.0</ele><time>2026-03-28T13:25:32.444Z</time></trkpt><trkpt lat="40.0214032" lon="9.6739707"><ele>402.0</ele><time>2026-03-28T13:25:33.449Z</time></trkpt><trkpt lat="40.0212855" lon="9.6741275"><ele>402.0</ele><time>2026-03-28T13:25:34.446Z</time></trkpt><trkpt lat="40.0211692" lon="9.6742831"><ele>402.0</ele><time>2026-03-28T13:25:35.446Z</time></trkpt><trkpt lat="40.0210657" lon="9.674445"><ele>407.0</ele><time>2026-03-28T13:25:36.446Z</time></trkpt><trkpt lat="40.0209754" lon="9.6746227"><ele>412.0</ele><time>2026-03-28T13:25:37.449Z</time></trkpt><trkpt lat="40.0208806" lon="9.674811"><ele>417.0</ele><time>2026-03-28T13:25:38.448Z</time></trkpt><trkpt lat="40.0207993" lon="9.6750064"><ele>404.0</ele><time>2026-03-28T13:25:39.45Z</time></trkpt><trkpt lat="40.0207231" lon="9.6752062"><ele>391.0</ele><time>2026-03-28T13:25:40.455Z</time></trkpt><trkpt lat="40.0206702" lon="9.6754207"><ele>378.0</ele><time>2026-03-28T13:25:41.452Z</time></trkpt><trkpt lat="40.0206246" lon="9.6756547"><ele>378.0</ele><time>2026-03-28T13:25:42.447Z</time></trkpt><trkpt lat="40.0205754" lon="9.6758726"><ele>378.0</ele><time>2026-03-28T13:25:43.451Z</time></trkpt><trkpt lat="40.0205331" lon="9.6760933"><ele>378.0</ele><time>2026-03-28T13:25:44.445Z</time></trkpt><trkpt lat="40.0204898" lon="9.6762959"><ele>379.0</ele><time>2026-03-28T13:25:45.447Z</time></trkpt><trkpt lat="40.0204462" lon="9.6764777"><ele>380.0</ele><time>2026-03-28T13:25:46.449Z</time></trkpt><trkpt lat="40.0203888" lon="9.676649"><ele>381.0</ele><time>2026-03-28T13:25:47.448Z</time></trkpt><trkpt lat="40.0203383" lon="9.6768319"><ele>382.0</ele><time>2026-03-28T13:25:48.449Z</time></trkpt><trkpt lat="40.0203012" lon="9.6770045"><ele>385.75</ele><time>2026-03-28T13:25:49.446Z</time></trkpt><trkpt lat="40.0202894" lon="9.6771841"><ele>389.5</ele><time>2026-03-28T13:25:50.454Z</time></trkpt><trkpt lat="40.0202704" lon="9.6773625"><ele>393.25</ele><time>2026-03-28T13:25:51.451Z</time></trkpt><trkpt lat="40.0202183" lon="9.6775193"><ele>397.0</ele><time>2026-03-28T13:25:52.45Z</time></trkpt><trkpt lat="40.0201537" lon="9.6776543"><ele>397.0</ele><time>2026-03-28T13:25:53.456Z</time></trkpt><trkpt lat="40.0200469" lon="9.6777431"><ele>397.0</ele><time>2026-03-28T13:25:54.449Z</time></trkpt><trkpt lat="40.0199389" lon="9.6778637"><ele>397.0</ele><time>2026-03-28T13:25:55.446Z</time></trkpt><trkpt lat="40.0198496" lon="9.6780122"><ele>397.0</ele><time>2026-03-28T13:25:56.449Z</time></trkpt><trkpt lat="40.0197693" lon="9.6781518"><ele>399.0</ele><time>2026-03-28T13:25:57.446Z</time></trkpt><trkpt lat="40.0196943" lon="9.6782692"><ele>401.0</ele><time>2026-03-28T13:25:58.447Z</time></trkpt><trkpt lat="40.0196061" lon="9.6783526"><ele>403.0</ele><time>2026-03-28T13:25:59.447Z</time></trkpt><trkpt lat="40.0195047" lon="9.6783863"><ele>405.0</ele><time>2026-03-28T13:26:00.453Z</time></trkpt><trkpt lat="40.0193981" lon="9.6783957"><ele>407.0</ele><time>2026-03-28T13:26:01.45Z</time></trkpt><trkpt lat="40.0192804" lon="9.67835"><ele>406.0</ele><time>2026-03-28T13:26:02.45Z</time></trkpt><trkpt lat="40.0191446" lon="9.6783102"><ele>405.0</ele><time>2026-03-28T13:26:03.448Z</time></trkpt><trkpt lat="40.0189984" lon="9.6782727"><ele>404.0</ele><time>2026-03-28T13:26:04.449Z</time></trkpt><trkpt lat="40.018842" lon="9.6782377"><ele>403.0</ele><time>2026-03-28T13:26:05.449Z</time></trkpt><trkpt lat="40.0186762" lon="9.6782062"><ele>403.0</ele><time>2026-03-28T13:26:06.446Z</time></trkpt><trkpt lat="40.0185033" lon="9.6781911"><ele>403.0</ele><time>2026-03-28T13:26:07.449Z</time></trkpt><trkpt lat="40.0183207" lon="9.6781954"><ele>403.0</ele><time>2026-03-28T13:26:08.45Z</time></trkpt><trkpt lat="40.0181433" lon="9.6782141"><ele>402.25</ele><time>2026-03-28T13:26:09.451Z</time></trkpt><trkpt lat="40.0179817" lon="9.6782327"><ele>401.5</ele><time>2026-03-28T13:26:10.451Z</time></trkpt><trkpt lat="40.0178343" lon="9.6782408"><ele>400.75</ele><time>2026-03-28T13:26:11.451Z</time></trkpt><trkpt lat="40.0176969" lon="9.6782399"><ele>400.0</ele><time>2026-03-28T13:26:12.458Z</time></trkpt><trkpt lat="40.0175794" lon="9.6781963"><ele>395.25</ele><time>2026-03-28T13:26:13.45Z</time></trkpt><trkpt lat="40.0174765" lon="9.6781"><ele>390.5</ele><time>2026-03-28T13:26:14.454Z</time></trkpt><trkpt lat="40.0173729" lon="9.6780333"><ele>385.75</ele><time>2026-03-28T13:26:15.448Z</time></trkpt><trkpt lat="40.0172665" lon="9.6780149"><ele>381.0</ele><time>2026-03-28T13:26:16.455Z</time></trkpt><trkpt lat="40.0171556" lon="9.6780097"><ele>381.0</ele><time>2026-03-28T13:26:17.45Z</time></trkpt><trkpt lat="40.0170505" lon="9.6781036"><ele>381.0</ele><time>2026-03-28T13:26:18.446Z</time></trkpt><trkpt lat="40.0169508" lon="9.6782145"><ele>381.0</ele><time>2026-03-28T13:26:19.451Z</time></trkpt><trkpt lat="40.0168487" lon="9.6783201"><ele>381.0</ele><time>2026-03-28T13:26:20.443Z</time></trkpt><trkpt lat="40.0167641" lon="9.6784203"><ele>381.0</ele><time>2026-03-28T13:26:21.453Z</time></trkpt><trkpt lat="40.0166838" lon="9.6785094"><ele>381.0</ele><time>2026-03-28T13:26:22.449Z</time></trkpt><trkpt lat="40.0165935" lon="9.6785743"><ele>381.0</ele><time>2026-03-28T13:26:23.45Z</time></trkpt><trkpt lat="40.016494" lon="9.6786162"><ele>381.0</ele><time>2026-03-28T13:26:24.453Z</time></trkpt><trkpt lat="40.01638" lon="9.6786405"><ele>381.0</ele><time>2026-03-28T13:26:25.448Z</time></trkpt><trkpt lat="40.0162453" lon="9.6786546"><ele>375.6666666666667</ele><time>2026-03-28T13:26:26.45Z</time></trkpt><trkpt lat="40.0160917" lon="9.6786538"><ele>370.33333333333337</ele><time>2026-03-28T13:26:27.45Z</time></trkpt><trkpt lat="40.0159347" lon="9.6786255"><ele>365.0</ele><time>2026-03-28T13:26:28.45Z</time></trkpt><trkpt lat="40.0157797" lon="9.6785779"><ele>365.0</ele><time>2026-03-28T13:26:29.455Z</time></trkpt><trkpt lat="40.0156218" lon="9.6785631"><ele>365.0</ele><time>2026-03-28T13:26:30.448Z</time></trkpt><trkpt lat="40.0154645" lon="9.6785915"><ele>365.0</ele><time>2026-03-28T13:26:31.451Z</time></trkpt><trkpt lat="40.0152986" lon="9.678628"><ele>365.0</ele><time>2026-03-28T13:26:32.451Z</time></trkpt><trkpt lat="40.0151443" lon="9.6786277"><ele>365.0</ele><time>2026-03-28T13:26:33.45Z</time></trkpt><trkpt lat="40.0150066" lon="9.6785551"><ele>365.0</ele><time>2026-03-28T13:26:34.447Z</time></trkpt><trkpt lat="40.0148715" lon="9.6784827"><ele>365.0</ele><time>2026-03-28T13:26:35.446Z</time></trkpt><trkpt lat="40.014727" lon="9.6784281"><ele>365.0</ele><time>2026-03-28T13:26:36.449Z</time></trkpt><trkpt lat="40.0145694" lon="9.6784541"><ele>365.0</ele><time>2026-03-28T13:26:37.443Z</time></trkpt><trkpt lat="40.0144257" lon="9.6784997"><ele>365.0</ele><time>2026-03-28T13:26:38.45Z</time></trkpt><trkpt lat="40.0143008" lon="9.6785319"><ele>365.0</ele><time>2026-03-28T13:26:39.445Z</time></trkpt><trkpt lat="40.014199" lon="9.678557"><ele>373.25</ele><time>2026-03-28T13:26:40.448Z</time></trkpt><trkpt lat="40.0141081" lon="9.678568"><ele>381.5</ele><time>2026-03-28T13:26:41.448Z</time></trkpt><trkpt lat="40.0139984" lon="9.6785091"><ele>389.75</ele><time>2026-03-28T13:26:42.445Z</time></trkpt><trkpt lat="40.0139386" lon="9.6783641"><ele>398.0</ele><time>2026-03-28T13:26:43.447Z</time></trkpt><trkpt lat="40.0139198" lon="9.6781957"><ele>398.0</ele><time>2026-03-28T13:26:44.453Z</time></trkpt><trkpt lat="40.0139048" lon="9.6780179"><ele>398.0</ele><time>2026-03-28T13:26:45.45Z</time></trkpt><trkpt lat="40.0138622" lon="9.6778382"><ele>398.0</ele><time>2026-03-28T13:26:46.452Z</time></trkpt><trkpt lat="40.0138069" lon="9.6776523"><ele>398.0</ele><time>2026-03-28T13:26:47.448Z</time></trkpt><trkpt lat="40.0136995" lon="9.677493"><ele>402.0</ele><time>2026-03-28T13:26:48.452Z</time></trkpt><trkpt lat="40.0135776" lon="9.6773693"><ele>406.0</ele><time>2026-03-28T13:26:49.446Z</time></trkpt><trkpt lat="40.0134719" lon="9.6772546"><ele>410.0</ele><time>2026-03-28T13:26:50.45Z</time></trkpt><trkpt lat="40.0133789" lon="9.6771459"><ele>414.0</ele><time>2026-03-28T13:26:51.447Z</time></trkpt><trkpt lat="40.0133187" lon="9.6770253"><ele>402.25</ele><time>2026-03-28T13:26:52.447Z</time></trkpt><trkpt lat="40.0133408" lon="9.6768725"><ele>390.5</ele><time>2026-03-28T13:26:53.449Z</time></trkpt><trkpt lat="40.0133823" lon="9.6767246"><ele>378.75</ele><time>2026-03-28T13:26:54.444Z</time></trkpt><trkpt lat="40.0134902" lon="9.6765868"><ele>367.0</ele><time>2026-03-28T13:26:55.448Z</time></trkpt><trkpt lat="40.0136044" lon="9.6764566"><ele>367.0</ele><time>2026-03-28T13:26:56.451Z</time></trkpt><trkpt lat="40.013698" lon="9.6762959"><ele>367.0</ele><time>2026-03-28T13:26:57.446Z</time></trkpt><trkpt lat="40.0137667" lon="9.6761099"><ele>367.0</ele><time>2026-03-28T13:26:58.456Z</time></trkpt><trkpt lat="40.0138156" lon="9.6759243"><ele>366.25</ele><time>2026-03-28T13:26:59.454Z</time></trkpt><trkpt lat="40.0138356" lon="9.6757497"><ele>365.5</ele><time>2026-03-28T13:27:00.451Z</time></trkpt><trkpt lat="40.0138119" lon="9.6755684"><ele>364.75</ele><time>2026-03-28T13:27:01.453Z</time></trkpt><trkpt lat="40.0137722" lon="9.6754016"><ele>364.0</ele><time>2026-03-28T13:27:02.445Z</time></trkpt><trkpt lat="40.0136871" lon="9.6752689"><ele>361.5</ele><time>2026-03-28T13:27:03.444Z</time></trkpt><trkpt lat="40.0135999" lon="9.6751652"><ele>359.0</ele><time>2026-03-28T13:27:04.45Z</time></trkpt><trkpt lat="40.0135194" lon="9.67506"><ele>356.5</ele><time>2026-03-28T13:27:05.448Z</time></trkpt><trkpt lat="40.0134814" lon="9.6749137"><ele>354.0</ele><time>2026-03-28T13:27:06.449Z</time></trkpt><trkpt lat="40.0135443" lon="9.674765"><ele>354.0</ele><time>2026-03-28T13:27:07.446Z</time></trkpt><trkpt lat="40.0136026" lon="9.6746146"><ele>354.0</ele><time>2026-03-28T13:27:08.448Z</time></trkpt><trkpt lat="40.0136257" lon="9.6744613"><ele>354.0</ele><time>2026-03-28T13:27:09.45Z</time></trkpt><trkpt lat="40.0136028" lon="9.6743101"><ele>354.0</ele><time>2026-03-28T13:27:10.451Z</time></trkpt><trkpt lat="40.0135719" lon="9.6741611"><ele>351.25</ele><time>2026-03-28T13:27:11.459Z</time></trkpt><trkpt lat="40.0134751" lon="9.6740454"><ele>348.5</ele><time>2026-03-28T13:27:12.451Z</time></trkpt><trkpt lat="40.0133687" lon="9.6739149"><ele>345.75</ele><time>2026-03-28T13:27:13.449Z</time></trkpt><trkpt lat="40.0132727" lon="9.6737633"><ele>343.0</ele><time>2026-03-28T13:27:14.443Z</time></trkpt><trkpt lat="40.0132397" lon="9.67358"><ele>342.75</ele><time>2026-03-28T13:27:15.451Z</time></trkpt><trkpt lat="40.013184" lon="9.6734146"><ele>342.5</ele><time>2026-03-28T13:27:16.446Z</time></trkpt><trkpt lat="40.0130906" lon="9.6732618"><ele>342.25</ele><time>2026-03-28T13:27:17.45Z</time></trkpt><trkpt lat="40.0129907" lon="9.673112"><ele>342.0</ele><time>2026-03-28T13:27:18.446Z</time></trkpt><trkpt lat="40.0128863" lon="9.6729741"><ele>342.0</ele><time>2026-03-28T13:27:19.452Z</time></trkpt><trkpt lat="40.0127875" lon="9.6728542"><ele>342.0</ele><time>2026-03-28T13:27:20.453Z</time></trkpt><trkpt lat="40.0126821" lon="9.6727677"><ele>342.0</ele><time>2026-03-28T13:27:21.445Z</time></trkpt><trkpt lat="40.0125626" lon="9.6726872"><ele>342.0</ele><time>2026-03-28T13:27:22.45Z</time></trkpt><trkpt lat="40.0124237" lon="9.6726902"><ele>341.25</ele><time>2026-03-28T13:27:23.448Z</time></trkpt><trkpt lat="40.0122895" lon="9.6727233"><ele>340.5</ele><time>2026-03-28T13:27:24.452Z</time></trkpt><trkpt lat="40.0121833" lon="9.6728456"><ele>339.75</ele><time>2026-03-28T13:27:25.443Z</time></trkpt><trkpt lat="40.012092" lon="9.6729584"><ele>339.0</ele><time>2026-03-28T13:27:26.45Z</time></trkpt><trkpt lat="40.0120015" lon="9.6730357"><ele>339.0</ele><time>2026-03-28T13:27:27.443Z</time></trkpt><trkpt lat="40.0118934" lon="9.6730401"><ele>339.0</ele><time>2026-03-28T13:27:28.447Z</time></trkpt><trkpt lat="40.0117999" lon="9.6729573"><ele>339.0</ele><time>2026-03-28T13:27:29.442Z</time></trkpt><trkpt lat="40.0116911" lon="9.6728317"><ele>339.0</ele><time>2026-03-28T13:27:30.448Z</time></trkpt><trkpt lat="40.0115691" lon="9.6727107"><ele>337.3333333333333</ele><time>2026-03-28T13:27:31.45Z</time></trkpt><trkpt lat="40.0114334" lon="9.6726015"><ele>335.66666666666663</ele><time>2026-03-28T13:27:32.45Z</time></trkpt><trkpt lat="40.0113079" lon="9.6724986"><ele>334.0</ele><time>2026-03-28T13:27:33.45Z</time></trkpt><trkpt lat="40.0111889" lon="9.6723829"><ele>334.0</ele><time>2026-03-28T13:27:34.45Z</time></trkpt><trkpt lat="40.0110771" lon="9.6722522"><ele>334.0</ele><time>2026-03-28T13:27:35.447Z</time></trkpt><trkpt lat="40.011007" lon="9.6720858"><ele>334.0</ele><time>2026-03-28T13:27:36.446Z</time></trkpt><trkpt lat="40.0109508" lon="9.6719144"><ele>334.0</ele><time>2026-03-28T13:27:37.446Z</time></trkpt><trkpt lat="40.0109212" lon="9.6717317"><ele>329.0</ele><time>2026-03-28T13:27:38.446Z</time></trkpt><trkpt lat="40.010898" lon="9.6715406"><ele>324.0</ele><time>2026-03-28T13:27:39.447Z</time></trkpt><trkpt lat="40.0109382" lon="9.671342"><ele>319.0</ele><time>2026-03-28T13:27:40.444Z</time></trkpt><trkpt lat="40.0109916" lon="9.6711531"><ele>319.0</ele><time>2026-03-28T13:27:41.449Z</time></trkpt><trkpt lat="40.0110604" lon="9.6709698"><ele>319.0</ele><time>2026-03-28T13:27:42.452Z</time></trkpt><trkpt lat="40.0111249" lon="9.6707893"><ele>319.0</ele><time>2026-03-28T13:27:43.46Z</time></trkpt><trkpt lat="40.0111915" lon="9.6706109"><ele>319.0</ele><time>2026-03-28T13:27:44.444Z</time></trkpt><trkpt lat="40.0112538" lon="9.6704363"><ele>319.0</ele><time>2026-03-28T13:27:45.452Z</time></trkpt><trkpt lat="40.0113031" lon="9.6702673"><ele>319.0</ele><time>2026-03-28T13:27:46.453Z</time></trkpt><trkpt lat="40.0113447" lon="9.6701054"><ele>319.0</ele><time>2026-03-28T13:27:47.449Z</time></trkpt><trkpt lat="40.0113258" lon="9.6699432"><ele>316.3333333333333</ele><time>2026-03-28T13:27:48.458Z</time></trkpt><trkpt lat="40.0112654" lon="9.6697771"><ele>313.6666666666667</ele><time>2026-03-28T13:27:49.455Z</time></trkpt><trkpt lat="40.0111644" lon="9.6696324"><ele>311.0</ele><time>2026-03-28T13:27:50.446Z</time></trkpt><trkpt lat="40.011051" lon="9.6694863"><ele>304.33333333333337</ele><time>2026-03-28T13:27:51.452Z</time></trkpt><trkpt lat="40.0109191" lon="9.6693329"><ele>297.6666666666667</ele><time>2026-03-28T13:27:52.453Z</time></trkpt><trkpt lat="40.0108103" lon="9.6691644"><ele>291.0</ele><time>2026-03-28T13:27:53.447Z</time></trkpt><trkpt lat="40.0107432" lon="9.6689581"><ele>289.5</ele><time>2026-03-28T13:27:54.454Z</time></trkpt><trkpt lat="40.0106799" lon="9.6687622"><ele>288.0</ele><time>2026-03-28T13:27:55.447Z</time></trkpt><trkpt lat="40.0106119" lon="9.6685993"><ele>286.5</ele><time>2026-03-28T13:27:56.451Z</time></trkpt><trkpt lat="40.0105218" lon="9.6684594"><ele>285.0</ele><time>2026-03-28T13:27:57.443Z</time></trkpt><trkpt lat="40.0104232" lon="9.6683265"><ele>282.25</ele><time>2026-03-28T13:27:58.452Z</time></trkpt><trkpt lat="40.0102995" lon="9.6682451"><ele>279.5</ele><time>2026-03-28T13:27:59.448Z</time></trkpt><trkpt lat="40.0101847" lon="9.6681996"><ele>276.75</ele><time>2026-03-28T13:28:00.454Z</time></trkpt><trkpt lat="40.0100833" lon="9.6681875"><ele>274.0</ele><time>2026-03-28T13:28:01.452Z</time></trkpt><trkpt lat="40.0099832" lon="9.6682464"><ele>264.75</ele><time>2026-03-28T13:28:02.456Z</time></trkpt><trkpt lat="40.0099306" lon="9.6683703"><ele>255.5</ele><time>2026-03-28T13:28:03.453Z</time></trkpt><trkpt lat="40.0099193" lon="9.6685252"><ele>246.25</ele><time>2026-03-28T13:28:04.45Z</time></trkpt><trkpt lat="40.0099157" lon="9.6686932"><ele>237.0</ele><time>2026-03-28T13:28:05.456Z</time></trkpt><trkpt lat="40.0099352" lon="9.6688752"><ele>237.0</ele><time>2026-03-28T13:28:06.451Z</time></trkpt><trkpt lat="40.0099328" lon="9.6690628"><ele>237.0</ele><time>2026-03-28T13:28:07.446Z</time></trkpt><trkpt lat="40.0098651" lon="9.6692225"><ele>237.0</ele><time>2026-03-28T13:28:08.45Z</time></trkpt><trkpt lat="40.0097548" lon="9.6693764"><ele>237.0</ele><time>2026-03-28T13:28:09.447Z</time></trkpt><trkpt lat="40.0096613" lon="9.6695474"><ele>244.0</ele><time>2026-03-28T13:28:10.455Z</time></trkpt><trkpt lat="40.0096062" lon="9.6697514"><ele>251.0</ele><time>2026-03-28T13:28:11.454Z</time></trkpt><trkpt lat="40.0095519" lon="9.6699569"><ele>258.0</ele><time>2026-03-28T13:28:12.456Z</time></trkpt><trkpt lat="40.0095047" lon="9.6701491"><ele>263.75</ele><time>2026-03-28T13:28:13.452Z</time></trkpt><trkpt lat="40.0094598" lon="9.6703157"><ele>269.5</ele><time>2026-03-28T13:28:14.454Z</time></trkpt><trkpt lat="40.0094179" lon="9.6704716"><ele>275.25</ele><time>2026-03-28T13:28:15.451Z</time></trkpt><trkpt lat="40.0093316" lon="9.6705713"><ele>281.0</ele><time>2026-03-28T13:28:16.448Z</time></trkpt><trkpt lat="40.0091769" lon="9.6706134"><ele>277.0</ele><time>2026-03-28T13:28:17.448Z</time></trkpt><trkpt lat="40.0090235" lon="9.670672"><ele>273.0</ele><time>2026-03-28T13:28:18.448Z</time></trkpt><trkpt lat="40.00886" lon="9.6707373"><ele>269.0</ele><time>2026-03-28T13:28:19.446Z</time></trkpt><trkpt lat="40.0086988" lon="9.670797"><ele>269.0</ele><time>2026-03-28T13:28:20.453Z</time></trkpt><trkpt lat="40.0085353" lon="9.6708369"><ele>269.0</ele><time>2026-03-28T13:28:21.445Z</time></trkpt><trkpt lat="40.0083707" lon="9.670848"><ele>269.0</ele><time>2026-03-28T13:28:22.449Z</time></trkpt><trkpt lat="40.0082174" lon="9.6708445"><ele>272.75</ele><time>2026-03-28T13:28:23.452Z</time></trkpt><trkpt lat="40.0080777" lon="9.6708407"><ele>276.5</ele><time>2026-03-28T13:28:24.452Z</time></trkpt><trkpt lat="40.0079401" lon="9.6708196"><ele>280.25</ele><time>2026-03-28T13:28:25.452Z</time></trkpt><trkpt lat="40.0078207" lon="9.6708039"><ele>284.0</ele><time>2026-03-28T13:28:26.453Z</time></trkpt><trkpt lat="40.0077395" lon="9.6706858"><ele>284.0</ele><time>2026-03-28T13:28:27.449Z</time></trkpt><trkpt lat="40.007656" lon="9.6705202"><ele>284.0</ele><time>2026-03-28T13:28:28.451Z</time></trkpt><trkpt lat="40.0075602" lon="9.6703541"><ele>284.0</ele><time>2026-03-28T13:28:29.451Z</time></trkpt><trkpt lat="40.0074555" lon="9.670191"><ele>282.0</ele><time>2026-03-28T13:28:30.452Z</time></trkpt><trkpt lat="40.0073333" lon="9.6700315"><ele>280.0</ele><time>2026-03-28T13:28:31.451Z</time></trkpt><trkpt lat="40.0071986" lon="9.6698706"><ele>278.0</ele><time>2026-03-28T13:28:32.454Z</time></trkpt><trkpt lat="40.0070598" lon="9.6696972"><ele>278.0</ele><time>2026-03-28T13:28:33.453Z</time></trkpt><trkpt lat="40.0069193" lon="9.6695146"><ele>278.0</ele><time>2026-03-28T13:28:34.45Z</time></trkpt><trkpt lat="40.0067788" lon="9.6693303"><ele>278.0</ele><time>2026-03-28T13:28:35.458Z</time></trkpt><trkpt lat="40.0066382" lon="9.6691437"><ele>270.6666666666667</ele><time>2026-03-28T13:28:36.45Z</time></trkpt><trkpt lat="40.0064979" lon="9.668956"><ele>263.3333333333333</ele><time>2026-03-28T13:28:37.451Z</time></trkpt><trkpt lat="40.0063612" lon="9.6687832"><ele>256.0</ele><time>2026-03-28T13:28:38.459Z</time></trkpt><trkpt lat="40.0062297" lon="9.6686254"><ele>249.33333333333331</ele><time>2026-03-28T13:28:39.462Z</time></trkpt><trkpt lat="40.0061024" lon="9.6684817"><ele>242.66666666666669</ele><time>2026-03-28T13:28:40.45Z</time></trkpt><trkpt lat="40.0059904" lon="9.6683527"><ele>236.0</ele><time>2026-03-28T13:28:41.451Z</time></trkpt><trkpt lat="40.0058848" lon="9.668225"><ele>232.0</ele><time>2026-03-28T13:28:42.455Z</time></trkpt><trkpt lat="40.0058046" lon="9.668065"><ele>228.0</ele><time>2026-03-28T13:28:43.458Z</time></trkpt><trkpt lat="40.005736" lon="9.6679082"><ele>224.0</ele><time>2026-03-28T13:28:44.458Z</time></trkpt><trkpt lat="40.0057112" lon="9.6677216"><ele>220.0</ele><time>2026-03-28T13:28:45.451Z</time></trkpt><trkpt lat="40.0057036" lon="9.6675465"><ele>219.75</ele><time>2026-03-28T13:28:46.456Z</time></trkpt><trkpt lat="40.0056914" lon="9.6673843"><ele>219.5</ele><time>2026-03-28T13:28:47.458Z</time></trkpt><trkpt lat="40.0056534" lon="9.6672321"><ele>219.25</ele><time>2026-03-28T13:28:48.462Z</time></trkpt><trkpt lat="40.0055807" lon="9.667101"><ele>219.0</ele><time>2026-03-28T13:28:49.457Z</time></trkpt><trkpt lat="40.0054731" lon="9.6670091"><ele>219.0</ele><time>2026-03-28T13:28:50.453Z</time></trkpt><trkpt lat="40.0053435" lon="9.6669637"><ele>219.0</ele><time>2026-03-28T13:28:51.449Z</time></trkpt><trkpt lat="40.0052137" lon="9.6669613"><ele>219.0</ele><time>2026-03-28T13:28:52.45Z</time></trkpt><trkpt lat="40.0051049" lon="9.6669991"><ele>219.0</ele><time>2026-03-28T13:28:53.445Z</time></trkpt><trkpt lat="40.0050245" lon="9.6670837"><ele>219.0</ele><time>2026-03-28T13:28:54.453Z</time></trkpt><trkpt lat="40.00496" lon="9.6671734"><ele>218.99999999999997</ele><time>2026-03-28T13:28:55.458Z</time></trkpt><trkpt lat="40.0049879" lon="9.667295"><ele>218.99999999999997</ele><time>2026-03-28T13:28:56.455Z</time></trkpt><trkpt lat="40.0050346" lon="9.6674186"><ele>219.0</ele><time>2026-03-28T13:28:57.455Z</time></trkpt><trkpt lat="40.005128" lon="9.6675547"><ele>219.0</ele><time>2026-03-28T13:28:58.456Z</time></trkpt><trkpt lat="40.0052233" lon="9.6677008"><ele>219.33333333333331</ele><time>2026-03-28T13:28:59.448Z</time></trkpt><trkpt lat="40.0053533" lon="9.6678616"><ele>219.66666666666666</ele><time>2026-03-28T13:29:00.462Z</time></trkpt><trkpt lat="40.0053912" lon="9.6680494"><ele>220.0</ele><time>2026-03-28T13:29:01.458Z</time></trkpt><trkpt lat="40.0054136" lon="9.6682345"><ele>220.0</ele><time>2026-03-28T13:29:02.458Z</time></trkpt><trkpt lat="40.0054209" lon="9.6683938"><ele>220.0</ele><time>2026-03-28T13:29:03.457Z</time></trkpt><trkpt lat="40.0054051" lon="9.6685268"><ele>220.0</ele><time>2026-03-28T13:29:04.456Z</time></trkpt><trkpt lat="40.0053518" lon="9.6686199"><ele>220.0</ele><time>2026-03-28T13:29:05.454Z</time></trkpt><trkpt lat="40.0052621" lon="9.6686697"><ele>220.0</ele><time>2026-03-28T13:29:06.454Z</time></trkpt><trkpt lat="40.0051286" lon="9.6686438"><ele>224.66666666666666</ele><time>2026-03-28T13:29:07.447Z</time></trkpt><trkpt lat="40.0049894" lon="9.6686229"><ele>229.33333333333331</ele><time>2026-03-28T13:29:08.458Z</time></trkpt><trkpt lat="40.0048297" lon="9.6685903"><ele>234.0</ele><time>2026-03-28T13:29:09.451Z</time></trkpt><trkpt lat="40.0046558" lon="9.6685671"><ele>222.33333333333331</ele><time>2026-03-28T13:29:10.45Z</time></trkpt><trkpt lat="40.0044916" lon="9.6685503"><ele>210.66666666666666</ele><time>2026-03-28T13:29:11.45Z</time></trkpt><trkpt lat="40.0043391" lon="9.6685445"><ele>199.0</ele><time>2026-03-28T13:29:12.447Z</time></trkpt><trkpt lat="40.0041984" lon="9.6685683"><ele>205.0</ele><time>2026-03-28T13:29:13.449Z</time></trkpt><trkpt lat="40.0040664" lon="9.6686437"><ele>211.0</ele><time>2026-03-28T13:29:14.454Z</time></trkpt><trkpt lat="40.0039324" lon="9.6687533"><ele>217.0</ele><time>2026-03-28T13:29:15.45Z</time></trkpt><trkpt lat="40.0037952" lon="9.6688653"><ele>217.0</ele><time>2026-03-28T13:29:16.459Z</time></trkpt><trkpt lat="40.0036613" lon="9.6689627"><ele>217.0</ele><time>2026-03-28T13:29:17.455Z</time></trkpt><trkpt lat="40.0035237" lon="9.6690226"><ele>217.0</ele><time>2026-03-28T13:29:18.453Z</time></trkpt><trkpt lat="40.0033797" lon="9.6690718"><ele>217.0</ele><time>2026-03-28T13:29:19.454Z</time></trkpt><trkpt lat="40.0032243" lon="9.669029"><ele>215.66666666666666</ele><time>2026-03-28T13:29:20.449Z</time></trkpt><trkpt lat="40.0030726" lon="9.668927"><ele>214.33333333333331</ele><time>2026-03-28T13:29:21.451Z</time></trkpt><trkpt lat="40.0029232" lon="9.6688294"><ele>213.0</ele><time>2026-03-28T13:29:22.458Z</time></trkpt><trkpt lat="40.0027893" lon="9.6687617"><ele>213.0</ele><time>2026-03-28T13:29:23.444Z</time></trkpt><trkpt lat="40.0026606" lon="9.6687043"><ele>213.0</ele><time>2026-03-28T13:29:24.451Z</time></trkpt><trkpt lat="40.0025391" lon="9.6687403"><ele>213.0</ele><time>2026-03-28T13:29:25.453Z</time></trkpt><trkpt lat="40.0024122" lon="9.6688236"><ele>213.0</ele><time>2026-03-28T13:29:26.452Z</time></trkpt><trkpt lat="40.0022867" lon="9.6689181"><ele>211.25</ele><time>2026-03-28T13:29:27.452Z</time></trkpt><trkpt lat="40.0021674" lon="9.6690028"><ele>209.5</ele><time>2026-03-28T13:29:28.449Z</time></trkpt><trkpt lat="40.002043" lon="9.669057"><ele>207.75</ele><time>2026-03-28T13:29:29.452Z</time></trkpt><trkpt lat="40.0019112" lon="9.6691138"><ele>206.0</ele><time>2026-03-28T13:29:30.451Z</time></trkpt><trkpt lat="40.0017588" lon="9.6690745"><ele>208.66666666666669</ele><time>2026-03-28T13:29:31.448Z</time></trkpt><trkpt lat="40.0016106" lon="9.6689721"><ele>211.33333333333331</ele><time>2026-03-28T13:29:32.447Z</time></trkpt><trkpt lat="40.0014545" lon="9.6688767"><ele>214.0</ele><time>2026-03-28T13:29:33.454Z</time></trkpt><trkpt lat="40.0013079" lon="9.6687624"><ele>214.0</ele><time>2026-03-28T13:29:34.452Z</time></trkpt><trkpt lat="40.0011698" lon="9.6686217"><ele>214.0</ele><time>2026-03-28T13:29:35.446Z</time></trkpt><trkpt lat="40.0010552" lon="9.6684654"><ele>214.0</ele><time>2026-03-28T13:29:36.446Z</time></trkpt><trkpt lat="40.0009667" lon="9.6682879"><ele>208.5</ele><time>2026-03-28T13:29:37.452Z</time></trkpt><trkpt lat="40.000898" lon="9.6681111"><ele>203.0</ele><time>2026-03-28T13:29:38.451Z</time></trkpt><trkpt lat="40.0008231" lon="9.667954"><ele>197.5</ele><time>2026-03-28T13:29:39.458Z</time></trkpt><trkpt lat="40.0007253" lon="9.6678235"><ele>192.0</ele><time>2026-03-28T13:29:40.448Z</time></trkpt><trkpt lat="40.0005994" lon="9.667729"><ele>189.0</ele><time>2026-03-28T13:29:41.452Z</time></trkpt><trkpt lat="40.0004778" lon="9.6676441"><ele>186.0</ele><time>2026-03-28T13:29:42.449Z</time></trkpt><trkpt lat="40.0003643" lon="9.667566"><ele>183.0</ele><time>2026-03-28T13:29:43.453Z</time></trkpt><trkpt lat="40.0002744" lon="9.6674358"><ele>180.0</ele><time>2026-03-28T13:29:44.447Z</time></trkpt><trkpt lat="40.0001868" lon="9.6672917"><ele>180.0</ele><time>2026-03-28T13:29:45.458Z</time></trkpt><trkpt lat="40.0000909" lon="9.6671394"><ele>180.0</ele><time>2026-03-28T13:29:46.454Z</time></trkpt><trkpt lat="39.9999719" lon="9.6670285"><ele>180.0</ele><time>2026-03-28T13:29:47.458Z</time></trkpt><trkpt lat="39.9998287" lon="9.6669478"><ele>175.0</ele><time>2026-03-28T13:29:48.455Z</time></trkpt><trkpt lat="39.9996671" lon="9.6668801"><ele>170.0</ele><time>2026-03-28T13:29:49.454Z</time></trkpt><trkpt lat="39.9994975" lon="9.6668109"><ele>165.0</ele><time>2026-03-28T13:29:50.458Z</time></trkpt><trkpt lat="39.9993207" lon="9.6667268"><ele>166.33333333333334</ele><time>2026-03-28T13:29:51.454Z</time></trkpt><trkpt lat="39.9991434" lon="9.6666437"><ele>167.66666666666669</ele><time>2026-03-28T13:29:52.452Z</time></trkpt><trkpt lat="39.9989668" lon="9.6665822"><ele>169.0</ele><time>2026-03-28T13:29:53.454Z</time></trkpt><trkpt lat="39.9987845" lon="9.6665554"><ele>169.0</ele><time>2026-03-28T13:29:54.457Z</time></trkpt><trkpt lat="39.9985953" lon="9.6665402"><ele>169.0</ele><time>2026-03-28T13:29:55.454Z</time></trkpt><trkpt lat="39.9984167" lon="9.6665075"><ele>169.0</ele><time>2026-03-28T13:29:56.457Z</time></trkpt><trkpt lat="39.9982398" lon="9.6664803"><ele>168.33333333333334</ele><time>2026-03-28T13:29:57.454Z</time></trkpt><trkpt lat="39.998065" lon="9.666462"><ele>167.66666666666666</ele><time>2026-03-28T13:29:58.446Z</time></trkpt><trkpt lat="39.9978881" lon="9.6664598"><ele>167.0</ele><time>2026-03-28T13:29:59.453Z</time></trkpt><trkpt lat="39.997716" lon="9.6664683"><ele>167.0</ele><time>2026-03-28T13:30:00.455Z</time></trkpt><trkpt lat="39.9975531" lon="9.6664805"><ele>167.0</ele><time>2026-03-28T13:30:01.454Z</time></trkpt><trkpt lat="39.9974007" lon="9.6664938"><ele>167.0</ele><time>2026-03-28T13:30:02.449Z</time></trkpt><trkpt lat="39.9972579" lon="9.666523"><ele>165.33333333333331</ele><time>2026-03-28T13:30:03.454Z</time></trkpt><trkpt lat="39.9971222" lon="9.6665892"><ele>163.66666666666666</ele><time>2026-03-28T13:30:04.455Z</time></trkpt><trkpt lat="39.9969893" lon="9.6666921"><ele>162.0</ele><time>2026-03-28T13:30:05.452Z</time></trkpt><trkpt lat="39.9968581" lon="9.66682"><ele>156.66666666666666</ele><time>2026-03-28T13:30:06.451Z</time></trkpt><trkpt lat="39.9967313" lon="9.6669541"><ele>151.33333333333331</ele><time>2026-03-28T13:30:07.457Z</time></trkpt><trkpt lat="39.9966115" lon="9.6670794"><ele>146.0</ele><time>2026-03-28T13:30:08.454Z</time></trkpt><trkpt lat="39.9964996" lon="9.6671943"><ele>146.0</ele><time>2026-03-28T13:30:09.454Z</time></trkpt><trkpt lat="39.9963889" lon="9.6672676"><ele>146.0</ele><time>2026-03-28T13:30:10.453Z</time></trkpt><trkpt lat="39.9962692" lon="9.6672898"><ele>146.0</ele><time>2026-03-28T13:30:11.457Z</time></trkpt><trkpt lat="39.9961551" lon="9.6672607"><ele>146.0</ele><time>2026-03-28T13:30:12.451Z</time></trkpt><trkpt lat="39.9960396" lon="9.6672173"><ele>146.0</ele><time>2026-03-28T13:30:13.451Z</time></trkpt><trkpt lat="39.9959626" lon="9.6670675"><ele>146.0</ele><time>2026-03-28T13:30:14.451Z</time></trkpt><trkpt lat="39.9958902" lon="9.6669041"><ele>146.0</ele><time>2026-03-28T13:30:15.463Z</time></trkpt><trkpt lat="39.9958248" lon="9.6667435"><ele>146.0</ele><time>2026-03-28T13:30:16.455Z</time></trkpt><trkpt lat="39.9957715" lon="9.6665711"><ele>146.33333333333331</ele><time>2026-03-28T13:30:17.456Z</time></trkpt><trkpt lat="39.995785" lon="9.6663709"><ele>146.66666666666666</ele><time>2026-03-28T13:30:18.459Z</time></trkpt><trkpt lat="39.9957982" lon="9.6661676"><ele>147.0</ele><time>2026-03-28T13:30:19.451Z</time></trkpt><trkpt lat="39.9958184" lon="9.6659555"><ele>147.0</ele><time>2026-03-28T13:30:20.452Z</time></trkpt><trkpt lat="39.9958335" lon="9.6657594"><ele>147.0</ele><time>2026-03-28T13:30:21.462Z</time></trkpt><trkpt lat="39.995861" lon="9.6655378"><ele>147.0</ele><time>2026-03-28T13:30:22.454Z</time></trkpt><trkpt lat="39.9959441" lon="9.6653435"><ele>149.0</ele><time>2026-03-28T13:30:23.452Z</time></trkpt><trkpt lat="39.9960456" lon="9.6651421"><ele>151.0</ele><time>2026-03-28T13:30:24.446Z</time></trkpt><trkpt lat="39.996125" lon="9.6649481"><ele>153.0</ele><time>2026-03-28T13:30:25.447Z</time></trkpt><trkpt lat="39.9961873" lon="9.6647663"><ele>153.0</ele><time>2026-03-28T13:30:26.455Z</time></trkpt><trkpt lat="39.996257" lon="9.6646112"><ele>153.0</ele><time>2026-03-28T13:30:27.454Z</time></trkpt><trkpt lat="39.99633" lon="9.6644564"><ele>153.0</ele><time>2026-03-28T13:30:28.456Z</time></trkpt><trkpt lat="39.9964501" lon="9.6643994"><ele>153.0</ele><time>2026-03-28T13:30:29.454Z</time></trkpt><trkpt lat="39.9965826" lon="9.6643818"><ele>150.75</ele><time>2026-03-28T13:30:30.458Z</time></trkpt><trkpt lat="39.9967001" lon="9.6643514"><ele>148.5</ele><time>2026-03-28T13:30:31.455Z</time></trkpt><trkpt lat="39.9968049" lon="9.6642734"><ele>146.25</ele><time>2026-03-28T13:30:32.454Z</time></trkpt><trkpt lat="39.9968767" lon="9.6641444"><ele>144.0</ele><time>2026-03-28T13:30:33.451Z</time></trkpt><trkpt lat="39.9969156" lon="9.6639844"><ele>144.0</ele><time>2026-03-28T13:30:34.455Z</time></trkpt><trkpt lat="39.9969154" lon="9.6638074"><ele>144.0</ele><time>2026-03-28T13:30:35.45Z</time></trkpt><trkpt lat="39.9968711" lon="9.6636258"><ele>144.0</ele><time>2026-03-28T13:30:36.454Z</time></trkpt><trkpt lat="39.9967914" lon="9.663453"><ele>144.0</ele><time>2026-03-28T13:30:37.453Z</time></trkpt><trkpt lat="39.9966863" lon="9.6632866"><ele>140.0</ele><time>2026-03-28T13:30:38.452Z</time></trkpt><trkpt lat="39.996584" lon="9.6631265"><ele>136.0</ele><time>2026-03-28T13:30:39.448Z</time></trkpt><trkpt lat="39.9964631" lon="9.6629635"><ele>132.0</ele><time>2026-03-28T13:30:40.456Z</time></trkpt><trkpt lat="39.9963519" lon="9.6628237"><ele>132.66666666666666</ele><time>2026-03-28T13:30:41.458Z</time></trkpt><trkpt lat="39.9962169" lon="9.6627326"><ele>133.33333333333331</ele><time>2026-03-28T13:30:42.454Z</time></trkpt><trkpt lat="39.9960616" lon="9.6626637"><ele>134.0</ele><time>2026-03-28T13:30:43.458Z</time></trkpt><trkpt lat="39.9959004" lon="9.6626152"><ele>132.66666666666666</ele><time>2026-03-28T13:30:44.458Z</time></trkpt><trkpt lat="39.9957213" lon="9.6625791"><ele>131.33333333333334</ele><time>2026-03-28T13:30:45.456Z</time></trkpt><trkpt lat="39.9955533" lon="9.6625334"><ele>130.0</ele><time>2026-03-28T13:30:46.454Z</time></trkpt><trkpt lat="39.9953911" lon="9.6624911"><ele>130.0</ele><time>2026-03-28T13:30:47.452Z</time></trkpt><trkpt lat="39.9952263" lon="9.6624314"><ele>130.0</ele><time>2026-03-28T13:30:48.453Z</time></trkpt><trkpt lat="39.995104" lon="9.6623295"><ele>130.0</ele><time>2026-03-28T13:30:49.46Z</time></trkpt><trkpt lat="39.9949684" lon="9.6622053"><ele>128.25</ele><time>2026-03-28T13:30:50.453Z</time></trkpt><trkpt lat="39.9948454" lon="9.6620765"><ele>126.5</ele><time>2026-03-28T13:30:51.458Z</time></trkpt><trkpt lat="39.9947274" lon="9.6619646"><ele>124.75</ele><time>2026-03-28T13:30:52.459Z</time></trkpt><trkpt lat="39.9946268" lon="9.6618654"><ele>123.0</ele><time>2026-03-28T13:30:53.458Z</time></trkpt><trkpt lat="39.9945739" lon="9.6617226"><ele>123.0</ele><time>2026-03-28T13:30:54.449Z</time></trkpt><trkpt lat="39.9945303" lon="9.6615547"><ele>123.0</ele><time>2026-03-28T13:30:55.46Z</time></trkpt><trkpt lat="39.9945442" lon="9.6614015"><ele>123.0</ele><time>2026-03-28T13:30:56.456Z</time></trkpt><trkpt lat="39.9945072" lon="9.6612533"><ele>123.0</ele><time>2026-03-28T13:30:57.449Z</time></trkpt><trkpt lat="39.9944296" lon="9.661142"><ele>122.75</ele><time>2026-03-28T13:30:58.456Z</time></trkpt><trkpt lat="39.9943061" lon="9.6610594"><ele>122.5</ele><time>2026-03-28T13:30:59.456Z</time></trkpt><trkpt lat="39.9941739" lon="9.6609778"><ele>122.25</ele><time>2026-03-28T13:31:00.454Z</time></trkpt><trkpt lat="39.9940366" lon="9.6608647"><ele>122.0</ele><time>2026-03-28T13:31:01.452Z</time></trkpt><trkpt lat="39.9938898" lon="9.6607308"><ele>117.66666666666666</ele><time>2026-03-28T13:31:02.451Z</time></trkpt><trkpt lat="39.9937384" lon="9.6605774"><ele>113.33333333333334</ele><time>2026-03-28T13:31:03.472Z</time></trkpt><trkpt lat="39.9936017" lon="9.6603767"><ele>109.0</ele><time>2026-03-28T13:31:04.454Z</time></trkpt><trkpt lat="39.9934691" lon="9.6602045"><ele>106.66666666666667</ele><time>2026-03-28T13:31:05.457Z</time></trkpt><trkpt lat="39.9933252" lon="9.6600431"><ele>104.33333333333334</ele><time>2026-03-28T13:31:06.458Z</time></trkpt><trkpt lat="39.9931644" lon="9.6599049"><ele>102.0</ele><time>2026-03-28T13:31:07.449Z</time></trkpt><trkpt lat="39.9929935" lon="9.6597698"><ele>102.0</ele><time>2026-03-28T13:31:08.452Z</time></trkpt><trkpt lat="39.992804" lon="9.6596657"><ele>102.0</ele><time>2026-03-28T13:31:09.457Z</time></trkpt><trkpt lat="39.9926187" lon="9.6595912"><ele>102.0</ele><time>2026-03-28T13:31:10.453Z</time></trkpt><trkpt lat="39.9924283" lon="9.6594937"><ele>101.66666666666666</ele><time>2026-03-28T13:31:11.459Z</time></trkpt><trkpt lat="39.9922447" lon="9.6593664"><ele>101.33333333333333</ele><time>2026-03-28T13:31:12.45Z</time></trkpt><trkpt lat="39.9920748" lon="9.6592465"><ele>101.0</ele><time>2026-03-28T13:31:13.454Z</time></trkpt><trkpt lat="39.9919185" lon="9.659133"><ele>101.0</ele><time>2026-03-28T13:31:14.457Z</time></trkpt><trkpt lat="39.9917553" lon="9.6590244"><ele>101.0</ele><time>2026-03-28T13:31:15.455Z</time></trkpt><trkpt lat="39.9916159" lon="9.6589157"><ele>101.0</ele><time>2026-03-28T13:31:16.454Z</time></trkpt><trkpt lat="39.9914691" lon="9.6588114"><ele>99.0</ele><time>2026-03-28T13:31:17.459Z</time></trkpt><trkpt lat="39.9913469" lon="9.6587166"><ele>97.0</ele><time>2026-03-28T13:31:18.451Z</time></trkpt><trkpt lat="39.9912415" lon="9.6586236"><ele>95.0</ele><time>2026-03-28T13:31:19.454Z</time></trkpt><trkpt lat="39.9911602" lon="9.6585248"><ele>93.0</ele><time>2026-03-28T13:31:20.45Z</time></trkpt><trkpt lat="39.9911353" lon="9.6583837"><ele>93.0</ele><time>2026-03-28T13:31:21.453Z</time></trkpt><trkpt lat="39.9911441" lon="9.6582342"><ele>93.0</ele><time>2026-03-28T13:31:22.456Z</time></trkpt><trkpt lat="39.9911677" lon="9.658078"><ele>93.0</ele><time>2026-03-28T13:31:23.457Z</time></trkpt><trkpt lat="39.9912044" lon="9.6578543"><ele>93.0</ele><time>2026-03-28T13:31:24.458Z</time></trkpt><trkpt lat="39.9912324" lon="9.6576483"><ele>89.25</ele><time>2026-03-28T13:31:25.447Z</time></trkpt><trkpt lat="39.9912565" lon="9.6574718"><ele>85.5</ele><time>2026-03-28T13:31:26.453Z</time></trkpt><trkpt lat="39.9912449" lon="9.6573093"><ele>81.75</ele><time>2026-03-28T13:31:27.45Z</time></trkpt><trkpt lat="39.9911962" lon="9.6571843"><ele>78.0</ele><time>2026-03-28T13:31:28.45Z</time></trkpt><trkpt lat="39.991102" lon="9.6571012"><ele>78.0</ele><time>2026-03-28T13:31:29.448Z</time></trkpt><trkpt lat="39.9909863" lon="9.657074"><ele>78.0</ele><time>2026-03-28T13:31:30.453Z</time></trkpt><trkpt lat="39.9908553" lon="9.657087"><ele>78.0</ele><time>2026-03-28T13:31:31.452Z</time></trkpt><trkpt lat="39.9906998" lon="9.6570904"><ele>78.0</ele><time>2026-03-28T13:31:32.452Z</time></trkpt><trkpt lat="39.9905429" lon="9.6571052"><ele>81.66666666666667</ele><time>2026-03-28T13:31:33.456Z</time></trkpt><trkpt lat="39.9903697" lon="9.6570917"><ele>85.33333333333334</ele><time>2026-03-28T13:31:34.454Z</time></trkpt><trkpt lat="39.9901977" lon="9.6570446"><ele>89.0</ele><time>2026-03-28T13:31:35.449Z</time></trkpt><trkpt lat="39.9900247" lon="9.6569973"><ele>85.33333333333334</ele><time>2026-03-28T13:31:36.451Z</time></trkpt><trkpt lat="39.9898628" lon="9.6569432"><ele>81.66666666666667</ele><time>2026-03-28T13:31:37.45Z</time></trkpt><trkpt lat="39.9897039" lon="9.6568984"><ele>78.0</ele><time>2026-03-28T13:31:38.455Z</time></trkpt><trkpt lat="39.9895381" lon="9.6568745"><ele>78.0</ele><time>2026-03-28T13:31:39.457Z</time></trkpt><trkpt lat="39.9893604" lon="9.6568792"><ele>78.0</ele><time>2026-03-28T13:31:40.458Z</time></trkpt><trkpt lat="39.989185" lon="9.6569047"><ele>78.0</ele><time>2026-03-28T13:31:41.461Z</time></trkpt><trkpt lat="39.9890093" lon="9.6569183"><ele>79.33333333333333</ele><time>2026-03-28T13:31:42.454Z</time></trkpt><trkpt lat="39.988829" lon="9.6569124"><ele>80.66666666666666</ele><time>2026-03-28T13:31:43.46Z</time></trkpt><trkpt lat="39.9886594" lon="9.6569118"><ele>82.0</ele><time>2026-03-28T13:31:44.454Z</time></trkpt><trkpt lat="39.9884952" lon="9.6569395"><ele>77.66666666666666</ele><time>2026-03-28T13:31:45.449Z</time></trkpt><trkpt lat="39.9883286" lon="9.6570011"><ele>73.33333333333333</ele><time>2026-03-28T13:31:46.454Z</time></trkpt><trkpt lat="39.9881667" lon="9.6571053"><ele>69.0</ele><time>2026-03-28T13:31:47.454Z</time></trkpt><trkpt lat="39.9880002" lon="9.6572175"><ele>69.0</ele><time>2026-03-28T13:31:48.453Z</time></trkpt><trkpt lat="39.9878299" lon="9.6573318"><ele>69.0</ele><time>2026-03-28T13:31:49.455Z</time></trkpt><trkpt lat="39.9876499" lon="9.6574382"><ele>69.0</ele><time>2026-03-28T13:31:50.455Z</time></trkpt><trkpt lat="39.9874747" lon="9.6575583"><ele>70.66666666666667</ele><time>2026-03-28T13:31:51.453Z</time></trkpt><trkpt lat="39.9872982" lon="9.6576599"><ele>72.33333333333334</ele><time>2026-03-28T13:31:52.455Z</time></trkpt><trkpt lat="39.9871227" lon="9.6577518"><ele>74.0</ele><time>2026-03-28T13:31:53.453Z</time></trkpt><trkpt lat="39.9869503" lon="9.657826"><ele>71.33333333333334</ele><time>2026-03-28T13:31:54.455Z</time></trkpt><trkpt lat="39.9867891" lon="9.6578857"><ele>68.66666666666667</ele><time>2026-03-28T13:31:55.463Z</time></trkpt><trkpt lat="39.9866448" lon="9.6579356"><ele>66.0</ele><time>2026-03-28T13:31:56.451Z</time></trkpt><trkpt lat="39.9865095" lon="9.65801"><ele>66.0</ele><time>2026-03-28T13:31:57.451Z</time></trkpt><trkpt lat="39.986384" lon="9.6581053"><ele>66.0</ele><time>2026-03-28T13:31:58.453Z</time></trkpt><trkpt lat="39.9862572" lon="9.6582487"><ele>66.0</ele><time>2026-03-28T13:31:59.451Z</time></trkpt><trkpt lat="39.9861397" lon="9.6584175"><ele>66.0</ele><time>2026-03-28T13:32:00.451Z</time></trkpt><trkpt lat="39.9860189" lon="9.6586121"><ele>66.0</ele><time>2026-03-28T13:32:01.454Z</time></trkpt><trkpt lat="39.9859019" lon="9.6588143"><ele>66.0</ele><time>2026-03-28T13:32:02.444Z</time></trkpt><trkpt lat="39.9857819" lon="9.6590102"><ele>65.66666666666667</ele><time>2026-03-28T13:32:03.45Z</time></trkpt><trkpt lat="39.9856616" lon="9.6591989"><ele>65.33333333333334</ele><time>2026-03-28T13:32:04.453Z</time></trkpt><trkpt lat="39.9855533" lon="9.6593683"><ele>65.0</ele><time>2026-03-28T13:32:05.453Z</time></trkpt><trkpt lat="39.9854462" lon="9.6595203"><ele>64.0</ele><time>2026-03-28T13:32:06.446Z</time></trkpt><trkpt lat="39.9853272" lon="9.6596514"><ele>63.0</ele><time>2026-03-28T13:32:07.445Z</time></trkpt><trkpt lat="39.9851734" lon="9.6597471"><ele>62.0</ele><time>2026-03-28T13:32:08.459Z</time></trkpt><trkpt lat="39.9850089" lon="9.6598332"><ele>62.0</ele><time>2026-03-28T13:32:09.449Z</time></trkpt><trkpt lat="39.9848462" lon="9.6599206"><ele>62.0</ele><time>2026-03-28T13:32:10.449Z</time></trkpt><trkpt lat="39.9846869" lon="9.6600454"><ele>62.0</ele><time>2026-03-28T13:32:11.45Z</time></trkpt><trkpt lat="39.9845313" lon="9.6601757"><ele>62.66666666666667</ele><time>2026-03-28T13:32:12.45Z</time></trkpt><trkpt lat="39.9843974" lon="9.6603657"><ele>63.33333333333333</ele><time>2026-03-28T13:32:13.453Z</time></trkpt><trkpt lat="39.9842727" lon="9.6605544"><ele>64.0</ele><time>2026-03-28T13:32:14.453Z</time></trkpt><trkpt lat="39.984178" lon="9.6607389"><ele>64.0</ele><time>2026-03-28T13:32:15.456Z</time></trkpt><trkpt lat="39.9840979" lon="9.6609024"><ele>64.0</ele><time>2026-03-28T13:32:16.449Z</time></trkpt><trkpt lat="39.9840181" lon="9.6610371"><ele>64.0</ele><time>2026-03-28T13:32:17.45Z</time></trkpt><trkpt lat="39.9839144" lon="9.6611412"><ele>64.0</ele><time>2026-03-28T13:32:18.458Z</time></trkpt><trkpt lat="39.9837825" lon="9.6612185"><ele>63.33333333333333</ele><time>2026-03-28T13:32:19.455Z</time></trkpt><trkpt lat="39.9836286" lon="9.6612905"><ele>62.66666666666667</ele><time>2026-03-28T13:32:20.451Z</time></trkpt><trkpt lat="39.9834709" lon="9.6613639"><ele>62.0</ele><time>2026-03-28T13:32:21.461Z</time></trkpt><trkpt lat="39.9833013" lon="9.6614386"><ele>60.333333333333336</ele><time>2026-03-28T13:32:22.457Z</time></trkpt><trkpt lat="39.9831236" lon="9.6615139"><ele>58.66666666666667</ele><time>2026-03-28T13:32:23.453Z</time></trkpt><trkpt lat="39.9829313" lon="9.6615937"><ele>57.0</ele><time>2026-03-28T13:32:24.456Z</time></trkpt><trkpt lat="39.9827429" lon="9.6616725"><ele>57.0</ele><time>2026-03-28T13:32:25.456Z</time></trkpt><trkpt lat="39.9825542" lon="9.6617562"><ele>57.0</ele><time>2026-03-28T13:32:26.454Z</time></trkpt><trkpt lat="39.9823639" lon="9.6618381"><ele>57.0</ele><time>2026-03-28T13:32:27.461Z</time></trkpt><trkpt lat="39.9821738" lon="9.6619249"><ele>55.0</ele><time>2026-03-28T13:32:28.454Z</time></trkpt><trkpt lat="39.9819979" lon="9.6620162"><ele>53.0</ele><time>2026-03-28T13:32:29.451Z</time></trkpt><trkpt lat="39.9818357" lon="9.6621096"><ele>51.0</ele><time>2026-03-28T13:32:30.453Z</time></trkpt><trkpt lat="39.9816852" lon="9.6621915"><ele>51.0</ele><time>2026-03-28T13:32:31.455Z</time></trkpt><trkpt lat="39.98154" lon="9.6622391"><ele>51.0</ele><time>2026-03-28T13:32:32.456Z</time></trkpt><trkpt lat="39.9813911" lon="9.6622302"><ele>51.0</ele><time>2026-03-28T13:32:33.451Z</time></trkpt><trkpt lat="39.9812519" lon="9.662194"><ele>51.0</ele><time>2026-03-28T13:32:34.462Z</time></trkpt><trkpt lat="39.9811136" lon="9.6621479"><ele>51.0</ele><time>2026-03-28T13:32:35.451Z</time></trkpt><trkpt lat="39.9809825" lon="9.6621384"><ele>51.0</ele><time>2026-03-28T13:32:36.451Z</time></trkpt><trkpt lat="39.9808533" lon="9.662195"><ele>51.0</ele><time>2026-03-28T13:32:37.454Z</time></trkpt><trkpt lat="39.9807205" lon="9.6623001"><ele>51.0</ele><time>2026-03-28T13:32:38.457Z</time></trkpt><trkpt lat="39.9805997" lon="9.6624394"><ele>49.0</ele><time>2026-03-28T13:32:39.455Z</time></trkpt><trkpt lat="39.9804673" lon="9.6625915"><ele>47.0</ele><time>2026-03-28T13:32:40.451Z</time></trkpt><trkpt lat="39.9803221" lon="9.6627408"><ele>45.0</ele><time>2026-03-28T13:32:41.455Z</time></trkpt><trkpt lat="39.9801771" lon="9.6628739"><ele>43.666666666666664</ele><time>2026-03-28T13:32:42.467Z</time></trkpt><trkpt lat="39.9800327" lon="9.6629922"><ele>42.33333333333333</ele><time>2026-03-28T13:32:43.449Z</time></trkpt><trkpt lat="39.9798912" lon="9.6630961"><ele>41.0</ele><time>2026-03-28T13:32:44.454Z</time></trkpt><trkpt lat="39.9797556" lon="9.6631886"><ele>37.666666666666664</ele><time>2026-03-28T13:32:45.458Z</time></trkpt><trkpt lat="39.9796194" lon="9.6632735"><ele>34.333333333333336</ele><time>2026-03-28T13:32:46.453Z</time></trkpt><trkpt lat="39.9794779" lon="9.6633432"><ele>31.0</ele><time>2026-03-28T13:32:47.45Z</time></trkpt><trkpt lat="39.9793256" lon="9.6633927"><ele>36.333333333333336</ele><time>2026-03-28T13:32:48.447Z</time></trkpt><trkpt lat="39.9791644" lon="9.6634278"><ele>41.666666666666664</ele><time>2026-03-28T13:32:49.452Z</time></trkpt><trkpt lat="39.9790001" lon="9.6634624"><ele>47.0</ele><time>2026-03-28T13:32:50.449Z</time></trkpt><trkpt lat="39.9788453" lon="9.6635016"><ele>47.0</ele><time>2026-03-28T13:32:51.452Z</time></trkpt><trkpt lat="39.9787002" lon="9.6635443"><ele>47.0</ele><time>2026-03-28T13:32:52.454Z</time></trkpt><trkpt lat="39.9785614" lon="9.6635768"><ele>47.0</ele><time>2026-03-28T13:32:53.453Z</time></trkpt><trkpt lat="39.9784205" lon="9.6635949"><ele>47.0</ele><time>2026-03-28T13:32:54.455Z</time></trkpt><trkpt lat="39.9782852" lon="9.6636059"><ele>39.75</ele><time>2026-03-28T13:32:55.453Z</time></trkpt><trkpt lat="39.9781486" lon="9.6636193"><ele>32.5</ele><time>2026-03-28T13:32:56.46Z</time></trkpt><trkpt lat="39.9780193" lon="9.6636673"><ele>25.25</ele><time>2026-03-28T13:32:57.459Z</time></trkpt><trkpt lat="39.9779098" lon="9.6637597"><ele>18.0</ele><time>2026-03-28T13:32:58.451Z</time></trkpt><trkpt lat="39.9778092" lon="9.663888"><ele>18.0</ele><time>2026-03-28T13:32:59.451Z</time></trkpt><trkpt lat="39.977719" lon="9.6640489"><ele>18.0</ele><time>2026-03-28T13:33:00.453Z</time></trkpt><trkpt lat="39.9776459" lon="9.6642198"><ele>18.0</ele><time>2026-03-28T13:33:01.456Z</time></trkpt><trkpt lat="39.9775774" lon="9.6643873"><ele>18.0</ele><time>2026-03-28T13:33:02.455Z</time></trkpt><trkpt lat="39.9775055" lon="9.6645429"><ele>17.5</ele><time>2026-03-28T13:33:03.454Z</time></trkpt><trkpt lat="39.9774303" lon="9.6646892"><ele>17.0</ele><time>2026-03-28T13:33:04.453Z</time></trkpt><trkpt lat="39.977351" lon="9.6648212"><ele>16.5</ele><time>2026-03-28T13:33:05.447Z</time></trkpt><trkpt lat="39.977271" lon="9.6649413"><ele>16.0</ele><time>2026-03-28T13:33:06.454Z</time></trkpt><trkpt lat="39.977189" lon="9.6650445"><ele>16.0</ele><time>2026-03-28T13:33:07.448Z</time></trkpt><trkpt lat="39.9771018" lon="9.6651225"><ele>16.0</ele><time>2026-03-28T13:33:08.458Z</time></trkpt><trkpt lat="39.977006" lon="9.6651621"><ele>16.0</ele><time>2026-03-28T13:33:09.454Z</time></trkpt><trkpt lat="39.9769036" lon="9.6651605"><ele>16.0</ele><time>2026-03-28T13:33:10.455Z</time></trkpt><trkpt lat="39.9767929" lon="9.6651408"><ele>16.0</ele><time>2026-03-28T13:33:11.453Z</time></trkpt><trkpt lat="39.9766746" lon="9.6651102"><ele>16.75</ele><time>2026-03-28T13:33:12.455Z</time></trkpt><trkpt lat="39.9765495" lon="9.6650763"><ele>17.5</ele><time>2026-03-28T13:33:13.454Z</time></trkpt><trkpt lat="39.9764185" lon="9.6650334"><ele>18.25</ele><time>2026-03-28T13:33:14.448Z</time></trkpt><trkpt lat="39.9762822" lon="9.6649893"><ele>19.0</ele><time>2026-03-28T13:33:15.454Z</time></trkpt><trkpt lat="39.9761501" lon="9.6649358"><ele>19.0</ele><time>2026-03-28T13:33:16.446Z</time></trkpt><trkpt lat="39.9760216" lon="9.6648634"><ele>19.0</ele><time>2026-03-28T13:33:17.451Z</time></trkpt><trkpt lat="39.9758754" lon="9.6647868"><ele>19.0</ele><time>2026-03-28T13:33:18.455Z</time></trkpt><trkpt lat="39.9757532" lon="9.6646757"><ele>19.0</ele><time>2026-03-28T13:33:19.454Z</time></trkpt><trkpt lat="39.9755941" lon="9.6645483"><ele>15.333333333333332</ele><time>2026-03-28T13:33:20.46Z</time></trkpt><trkpt lat="39.97543" lon="9.6644101"><ele>11.666666666666666</ele><time>2026-03-28T13:33:21.452Z</time></trkpt><trkpt lat="39.9752656" lon="9.6642636"><ele>8.0</ele><time>2026-03-28T13:33:22.456Z</time></trkpt><trkpt lat="39.9750856" lon="9.6640968"><ele>7.666666666666666</ele><time>2026-03-28T13:33:23.455Z</time></trkpt><trkpt lat="39.9749019" lon="9.6639309"><ele>7.333333333333334</ele><time>2026-03-28T13:33:24.456Z</time></trkpt><trkpt lat="39.9747131" lon="9.6637966"><ele>7.0</ele><time>2026-03-28T13:33:25.452Z</time></trkpt><trkpt lat="39.9745182" lon="9.6636808"><ele>7.0</ele><time>2026-03-28T13:33:26.451Z</time></trkpt><trkpt lat="39.97432" lon="9.6635862"><ele>7.0</ele><time>2026-03-28T13:33:27.455Z</time></trkpt><trkpt lat="39.9741157" lon="9.6635231"><ele>7.0</ele><time>2026-03-28T13:33:28.453Z</time></trkpt><trkpt lat="39.9739092" lon="9.6634793"><ele>7.0</ele><time>2026-03-28T13:33:29.458Z</time></trkpt><trkpt lat="39.9737046" lon="9.6634605"><ele>7.0</ele><time>2026-03-28T13:33:30.455Z</time></trkpt><trkpt lat="39.9735023" lon="9.6634646"><ele>7.0</ele><time>2026-03-28T13:33:31.453Z</time></trkpt><trkpt lat="39.9733023" lon="9.6634936"><ele>7.0</ele><time>2026-03-28T13:33:32.451Z</time></trkpt><trkpt lat="39.9731097" lon="9.6635403"><ele>7.0</ele><time>2026-03-28T13:33:33.455Z</time></trkpt><trkpt lat="39.9729208" lon="9.6636038"><ele>7.0</ele><time>2026-03-28T13:33:34.453Z</time></trkpt><trkpt lat="39.9727341" lon="9.6636737"><ele>7.0</ele><time>2026-03-28T13:33:35.458Z</time></trkpt><trkpt lat="39.9725604" lon="9.6637566"><ele>7.0</ele><time>2026-03-28T13:33:36.457Z</time></trkpt><trkpt lat="39.9723846" lon="9.6638295"><ele>7.0</ele><time>2026-03-28T13:33:37.445Z</time></trkpt><trkpt lat="39.972216" lon="9.663893"><ele>6.666666666666667</ele><time>2026-03-28T13:33:38.458Z</time></trkpt><trkpt lat="39.972046" lon="9.6639849"><ele>6.333333333333334</ele><time>2026-03-28T13:33:39.451Z</time></trkpt><trkpt lat="39.9718884" lon="9.6640311"><ele>6.0</ele><time>2026-03-28T13:33:40.459Z</time></trkpt><trkpt lat="39.9717369" lon="9.6640749"><ele>7.75</ele><time>2026-03-28T13:33:41.455Z</time></trkpt><trkpt lat="39.9715951" lon="9.6640825"><ele>9.5</ele><time>2026-03-28T13:33:42.452Z</time></trkpt><trkpt lat="39.9714668" lon="9.6640514"><ele>11.25</ele><time>2026-03-28T13:33:43.459Z</time></trkpt><trkpt lat="39.9713514" lon="9.6640212"><ele>13.0</ele><time>2026-03-28T13:33:44.455Z</time></trkpt><trkpt lat="39.9712483" lon="9.6639284"><ele>13.0</ele><time>2026-03-28T13:33:45.45Z</time></trkpt><trkpt lat="39.9711586" lon="9.6638355"><ele>13.0</ele><time>2026-03-28T13:33:46.453Z</time></trkpt><trkpt lat="39.9710812" lon="9.6637436"><ele>13.0</ele><time>2026-03-28T13:33:47.457Z</time></trkpt><trkpt lat="39.971" lon="9.6636411"><ele>13.0</ele><time>2026-03-28T13:33:48.456Z</time></trkpt><trkpt lat="39.9709313" lon="9.6635498"><ele>13.0</ele><time>2026-03-28T13:33:49.453Z</time></trkpt><trkpt lat="39.9708613" lon="9.6634548"><ele>13.8</ele><time>2026-03-28T13:33:50.456Z</time></trkpt><trkpt lat="39.9707856" lon="9.6633598"><ele>14.600000000000001</ele><time>2026-03-28T13:33:51.455Z</time></trkpt><trkpt lat="39.9707095" lon="9.6632714"><ele>15.399999999999999</ele><time>2026-03-28T13:33:52.456Z</time></trkpt><trkpt lat="39.9706355" lon="9.6631858"><ele>16.2</ele><time>2026-03-28T13:33:53.452Z</time></trkpt><trkpt lat="39.9705699" lon="9.6631045"><ele>17.0</ele><time>2026-03-28T13:33:54.46Z</time></trkpt><trkpt lat="39.9705101" lon="9.6630251"><ele>17.0</ele><time>2026-03-28T13:33:55.449Z</time></trkpt><trkpt lat="39.9704494" lon="9.6629371"><ele>17.0</ele><time>2026-03-28T13:33:56.456Z</time></trkpt><trkpt lat="39.9703992" lon="9.6628399"><ele>17.0</ele><time>2026-03-28T13:33:57.449Z</time></trkpt><trkpt lat="39.9703555" lon="9.6627281"><ele>17.0</ele><time>2026-03-28T13:33:58.456Z</time></trkpt><trkpt lat="39.9703234" lon="9.6626028"><ele>17.0</ele><time>2026-03-28T13:33:59.46Z</time></trkpt><trkpt lat="39.9702978" lon="9.6624644"><ele>17.0</ele><time>2026-03-28T13:34:00.457Z</time></trkpt><trkpt lat="39.9702823" lon="9.6623158"><ele>17.0</ele><time>2026-03-28T13:34:01.453Z</time></trkpt><trkpt lat="39.9702736" lon="9.6621723"><ele>17.0</ele><time>2026-03-28T13:34:02.456Z</time></trkpt><trkpt lat="39.970265" lon="9.6620376"><ele>17.0</ele><time>2026-03-28T13:34:03.456Z</time></trkpt><trkpt lat="39.9702525" lon="9.6619063"><ele>17.0</ele><time>2026-03-28T13:34:04.46Z</time></trkpt><trkpt lat="39.9702389" lon="9.6617856"><ele>17.166666666666668</ele><time>2026-03-28T13:34:05.457Z</time></trkpt><trkpt lat="39.9702239" lon="9.6616706"><ele>17.333333333333336</ele><time>2026-03-28T13:34:06.452Z</time></trkpt><trkpt lat="39.9701791" lon="9.661592"><ele>17.5</ele><time>2026-03-28T13:34:07.455Z</time></trkpt><trkpt lat="39.9701217" lon="9.6615332"><ele>17.666666666666668</ele><time>2026-03-28T13:34:08.456Z</time></trkpt><trkpt lat="39.9700546" lon="9.6614807"><ele>17.833333333333332</ele><time>2026-03-28T13:34:09.451Z</time></trkpt><trkpt lat="39.9699863" lon="9.6614427"><ele>18.0</ele><time>2026-03-28T13:34:10.451Z</time></trkpt><trkpt lat="39.9699276" lon="9.6613977"><ele>17.0</ele><time>2026-03-28T13:34:11.446Z</time></trkpt><trkpt lat="39.9698577" lon="9.6613471"><ele>16.0</ele><time>2026-03-28T13:34:12.454Z</time></trkpt><trkpt lat="39.9697766" lon="9.6612917"><ele>15.0</ele><time>2026-03-28T13:34:13.45Z</time></trkpt><trkpt lat="39.9696917" lon="9.6612293"><ele>14.0</ele><time>2026-03-28T13:34:14.46Z</time></trkpt><trkpt lat="39.969602" lon="9.6611567"><ele>13.0</ele><time>2026-03-28T13:34:15.45Z</time></trkpt><trkpt lat="39.9695071" lon="9.6610812"><ele>13.0</ele><time>2026-03-28T13:34:16.462Z</time></trkpt><trkpt lat="39.96941" lon="9.6610133"><ele>13.0</ele><time>2026-03-28T13:34:17.45Z</time></trkpt><trkpt lat="39.969313" lon="9.6609768"><ele>13.0</ele><time>2026-03-28T13:34:18.454Z</time></trkpt><trkpt lat="39.9692063" lon="9.6608931"><ele>13.0</ele><time>2026-03-28T13:34:19.459Z</time></trkpt><trkpt lat="39.9690989" lon="9.6608118"><ele>11.75</ele><time>2026-03-28T13:34:20.462Z</time></trkpt><trkpt lat="39.9689882" lon="9.6607225"><ele>10.5</ele><time>2026-03-28T13:34:21.458Z</time></trkpt><trkpt lat="39.9688799" lon="9.6606344"><ele>9.25</ele><time>2026-03-28T13:34:22.456Z</time></trkpt><trkpt lat="39.9687638" lon="9.6605553"><ele>8.0</ele><time>2026-03-28T13:34:23.453Z</time></trkpt><trkpt lat="39.9686484" lon="9.6604741"><ele>8.0</ele><time>2026-03-28T13:34:24.454Z</time></trkpt><trkpt lat="39.9685325" lon="9.6603941"><ele>8.0</ele><time>2026-03-28T13:34:25.462Z</time></trkpt><trkpt lat="39.968419" lon="9.6603113"><ele>8.0</ele><time>2026-03-28T13:34:26.453Z</time></trkpt><trkpt lat="39.9683123" lon="9.660235"><ele>8.0</ele><time>2026-03-28T13:34:27.451Z</time></trkpt><trkpt lat="39.9682108" lon="9.6601621"><ele>8.0</ele><time>2026-03-28T13:34:28.457Z</time></trkpt><trkpt lat="39.9681088" lon="9.6600888"><ele>8.0</ele><time>2026-03-28T13:34:29.453Z</time></trkpt><trkpt lat="39.968" lon="9.6600116"><ele>8.0</ele><time>2026-03-28T13:34:30.454Z</time></trkpt><trkpt lat="39.9678835" lon="9.6599309"><ele>8.0</ele><time>2026-03-28T13:34:31.459Z</time></trkpt><trkpt lat="39.9677635" lon="9.6598487"><ele>8.0</ele><time>2026-03-28T13:34:32.463Z</time></trkpt><trkpt lat="39.9676436" lon="9.6597672"><ele>8.0</ele><time>2026-03-28T13:34:33.454Z</time></trkpt><trkpt lat="39.9675246" lon="9.6596835"><ele>8.0</ele><time>2026-03-28T13:34:34.458Z</time></trkpt><trkpt lat="39.9674072" lon="9.6596005"><ele>8.0</ele><time>2026-03-28T13:34:35.456Z</time></trkpt><trkpt lat="39.9672858" lon="9.6595171"><ele>7.75</ele><time>2026-03-28T13:34:36.456Z</time></trkpt><trkpt lat="39.9671618" lon="9.6594308"><ele>7.5</ele><time>2026-03-28T13:34:37.455Z</time></trkpt><trkpt lat="39.967031" lon="9.6593397"><ele>7.25</ele><time>2026-03-28T13:34:38.453Z</time></trkpt><trkpt lat="39.9668979" lon="9.6592444"><ele>7.0</ele><time>2026-03-28T13:34:39.456Z</time></trkpt><trkpt lat="39.9667702" lon="9.6591566"><ele>6.333333333333334</ele><time>2026-03-28T13:34:40.454Z</time></trkpt><trkpt lat="39.966641" lon="9.6590636"><ele>5.666666666666667</ele><time>2026-03-28T13:34:41.453Z</time></trkpt><trkpt lat="39.9665042" lon="9.658968"><ele>5.0</ele><time>2026-03-28T13:34:42.457Z</time></trkpt><trkpt lat="39.9663666" lon="9.6588731"><ele>5.0</ele><time>2026-03-28T13:34:43.453Z</time></trkpt><trkpt lat="39.966229" lon="9.6587803"><ele>5.0</ele><time>2026-03-28T13:34:44.458Z</time></trkpt><trkpt lat="39.9660926" lon="9.6586904"><ele>5.0</ele><time>2026-03-28T13:34:45.453Z</time></trkpt><trkpt lat="39.9659569" lon="9.6585977"><ele>5.333333333333334</ele><time>2026-03-28T13:34:46.456Z</time></trkpt><trkpt lat="39.9658189" lon="9.6585042"><ele>5.666666666666667</ele><time>2026-03-28T13:34:47.455Z</time></trkpt><trkpt lat="39.9656773" lon="9.6584058"><ele>6.0</ele><time>2026-03-28T13:34:48.46Z</time></trkpt><trkpt lat="39.9655316" lon="9.6583031"><ele>6.0</ele><time>2026-03-28T13:34:49.458Z</time></trkpt><trkpt lat="39.9653837" lon="9.6581985"><ele>6.0</ele><time>2026-03-28T13:34:50.454Z</time></trkpt><trkpt lat="39.9652405" lon="9.6581014"><ele>6.0</ele><time>2026-03-28T13:34:51.458Z</time></trkpt><trkpt lat="39.9651001" lon="9.6580057"><ele>7.333333333333334</ele><time>2026-03-28T13:34:52.459Z</time></trkpt><trkpt lat="39.9649633" lon="9.6579107"><ele>8.666666666666668</ele><time>2026-03-28T13:34:53.455Z</time></trkpt><trkpt lat="39.9648296" lon="9.6578181"><ele>10.0</ele><time>2026-03-28T13:34:54.457Z</time></trkpt><trkpt lat="39.9647021" lon="9.6577314"><ele>10.75</ele><time>2026-03-28T13:34:55.454Z</time></trkpt><trkpt lat="39.964578" lon="9.6576501"><ele>11.5</ele><time>2026-03-28T13:34:56.457Z</time></trkpt><trkpt lat="39.9644582" lon="9.6575683"><ele>12.25</ele><time>2026-03-28T13:34:57.455Z</time></trkpt><trkpt lat="39.9643352" lon="9.6575056"><ele>13.0</ele><time>2026-03-28T13:34:58.455Z</time></trkpt><trkpt lat="39.9642086" lon="9.6574503"><ele>13.5</ele><time>2026-03-28T13:34:59.458Z</time></trkpt><trkpt lat="39.9640755" lon="9.6574072"><ele>14.0</ele><time>2026-03-28T13:35:00.454Z</time></trkpt><trkpt lat="39.9639452" lon="9.6573911"><ele>14.5</ele><time>2026-03-28T13:35:01.457Z</time></trkpt><trkpt lat="39.9638182" lon="9.6573947"><ele>15.0</ele><time>2026-03-28T13:35:02.454Z</time></trkpt><trkpt lat="39.9636863" lon="9.6574076"><ele>15.0</ele><time>2026-03-28T13:35:03.45Z</time></trkpt><trkpt lat="39.9635547" lon="9.6574207"><ele>15.0</ele><time>2026-03-28T13:35:04.459Z</time></trkpt><trkpt lat="39.9634225" lon="9.6574303"><ele>15.0</ele><time>2026-03-28T13:35:05.459Z</time></trkpt><trkpt lat="39.9632901" lon="9.6574329"><ele>15.0</ele><time>2026-03-28T13:35:06.458Z</time></trkpt><trkpt lat="39.9631557" lon="9.6574379"><ele>13.5</ele><time>2026-03-28T13:35:07.455Z</time></trkpt><trkpt lat="39.96302" lon="9.6574433"><ele>12.0</ele><time>2026-03-28T13:35:08.457Z</time></trkpt><trkpt lat="39.9628844" lon="9.657447"><ele>10.5</ele><time>2026-03-28T13:35:09.463Z</time></trkpt><trkpt lat="39.9627513" lon="9.6574453"><ele>9.0</ele><time>2026-03-28T13:35:10.453Z</time></trkpt><trkpt lat="39.9626178" lon="9.657443"><ele>9.25</ele><time>2026-03-28T13:35:11.451Z</time></trkpt><trkpt lat="39.9624815" lon="9.6574319"><ele>9.5</ele><time>2026-03-28T13:35:12.46Z</time></trkpt><trkpt lat="39.9623474" lon="9.6574137"><ele>9.75</ele><time>2026-03-28T13:35:13.454Z</time></trkpt><trkpt lat="39.9622137" lon="9.657395"><ele>10.0</ele><time>2026-03-28T13:35:14.462Z</time></trkpt><trkpt lat="39.9620805" lon="9.6573706"><ele>10.0</ele><time>2026-03-28T13:35:15.454Z</time></trkpt><trkpt lat="39.9619557" lon="9.6573394"><ele>10.0</ele><time>2026-03-28T13:35:16.458Z</time></trkpt><trkpt lat="39.9618301" lon="9.6573005"><ele>10.0</ele><time>2026-03-28T13:35:17.45Z</time></trkpt><trkpt lat="39.9617065" lon="9.6572543"><ele>10.0</ele><time>2026-03-28T13:35:18.462Z</time></trkpt><trkpt lat="39.9615821" lon="9.6572031"><ele>9.5</ele><time>2026-03-28T13:35:19.46Z</time></trkpt><trkpt lat="39.9614582" lon="9.657147"><ele>9.0</ele><time>2026-03-28T13:35:20.458Z</time></trkpt><trkpt lat="39.9613357" lon="9.6570851"><ele>8.5</ele><time>2026-03-28T13:35:21.462Z</time></trkpt><trkpt lat="39.9612143" lon="9.6570179"><ele>8.0</ele><time>2026-03-28T13:35:22.46Z</time></trkpt><trkpt lat="39.9610954" lon="9.6569446"><ele>8.0</ele><time>2026-03-28T13:35:23.449Z</time></trkpt><trkpt lat="39.9609768" lon="9.6568683"><ele>8.0</ele><time>2026-03-28T13:35:24.46Z</time></trkpt><trkpt lat="39.9608601" lon="9.6567902"><ele>8.0</ele><time>2026-03-28T13:35:25.455Z</time></trkpt><trkpt lat="39.9607512" lon="9.656715"><ele>8.0</ele><time>2026-03-28T13:35:26.455Z</time></trkpt><trkpt lat="39.9606482" lon="9.65664"><ele>8.200000000000001</ele><time>2026-03-28T13:35:27.459Z</time></trkpt><trkpt lat="39.9605504" lon="9.6565733"><ele>8.4</ele><time>2026-03-28T13:35:28.454Z</time></trkpt><trkpt lat="39.9604583" lon="9.6565103"><ele>8.600000000000001</ele><time>2026-03-28T13:35:29.453Z</time></trkpt><trkpt lat="39.9603688" lon="9.6564591"><ele>8.8</ele><time>2026-03-28T13:35:30.456Z</time></trkpt><trkpt lat="39.9602841" lon="9.6564016"><ele>9.0</ele><time>2026-03-28T13:35:31.464Z</time></trkpt><trkpt lat="39.9601978" lon="9.6563448"><ele>9.0</ele><time>2026-03-28T13:35:32.458Z</time></trkpt><trkpt lat="39.9601139" lon="9.6562837"><ele>9.0</ele><time>2026-03-28T13:35:33.453Z</time></trkpt><trkpt lat="39.9600255" lon="9.6562228"><ele>9.0</ele><time>2026-03-28T13:35:34.459Z</time></trkpt><trkpt lat="39.9599368" lon="9.6561608"><ele>9.0</ele><time>2026-03-28T13:35:35.456Z</time></trkpt><trkpt lat="39.9598499" lon="9.656103"><ele>9.0</ele><time>2026-03-28T13:35:36.461Z</time></trkpt><trkpt lat="39.9597569" lon="9.6560435"><ele>9.0</ele><time>2026-03-28T13:35:37.458Z</time></trkpt><trkpt lat="39.9596609" lon="9.6559782"><ele>9.0</ele><time>2026-03-28T13:35:38.456Z</time></trkpt><trkpt lat="39.9595576" lon="9.6559073"><ele>9.0</ele><time>2026-03-28T13:35:39.457Z</time></trkpt><trkpt lat="39.9594482" lon="9.6558291"><ele>9.0</ele><time>2026-03-28T13:35:40.463Z</time></trkpt><trkpt lat="39.9593466" lon="9.6557531"><ele>9.0</ele><time>2026-03-28T13:35:41.46Z</time></trkpt><trkpt lat="39.9592433" lon="9.6556771"><ele>9.0</ele><time>2026-03-28T13:35:42.453Z</time></trkpt><trkpt lat="39.9591323" lon="9.6555941"><ele>9.0</ele><time>2026-03-28T13:35:43.455Z</time></trkpt><trkpt lat="39.9590135" lon="9.6555066"><ele>9.0</ele><time>2026-03-28T13:35:44.455Z</time></trkpt><trkpt lat="39.9588859" lon="9.6554174"><ele>8.333333333333334</ele><time>2026-03-28T13:35:45.458Z</time></trkpt><trkpt lat="39.9587504" lon="9.6553255"><ele>7.666666666666667</ele><time>2026-03-28T13:35:46.479Z</time></trkpt><trkpt lat="39.958608" lon="9.6552298"><ele>7.0</ele><time>2026-03-28T13:35:47.456Z</time></trkpt><trkpt lat="39.9584606" lon="9.6551296"><ele>7.333333333333334</ele><time>2026-03-28T13:35:48.452Z</time></trkpt><trkpt lat="39.9583116" lon="9.6550252"><ele>7.666666666666666</ele><time>2026-03-28T13:35:49.454Z</time></trkpt><trkpt lat="39.9581632" lon="9.6549215"><ele>8.0</ele><time>2026-03-28T13:35:50.457Z</time></trkpt><trkpt lat="39.958012" lon="9.6548162"><ele>8.0</ele><time>2026-03-28T13:35:51.462Z</time></trkpt><trkpt lat="39.9578586" lon="9.6547114"><ele>8.0</ele><time>2026-03-28T13:35:52.457Z</time></trkpt><trkpt lat="39.9577024" lon="9.6546093"><ele>8.0</ele><time>2026-03-28T13:35:53.46Z</time></trkpt><trkpt lat="39.9575448" lon="9.6545074"><ele>8.0</ele><time>2026-03-28T13:35:54.455Z</time></trkpt><trkpt lat="39.957387" lon="9.6543967"><ele>8.0</ele><time>2026-03-28T13:35:55.458Z</time></trkpt><trkpt lat="39.9572271" lon="9.6542815"><ele>8.0</ele><time>2026-03-28T13:35:56.459Z</time></trkpt><trkpt lat="39.9570669" lon="9.6541689"><ele>8.0</ele><time>2026-03-28T13:35:57.46Z</time></trkpt><trkpt lat="39.9569031" lon="9.6540578"><ele>8.0</ele><time>2026-03-28T13:35:58.462Z</time></trkpt><trkpt lat="39.9567345" lon="9.6539421"><ele>8.0</ele><time>2026-03-28T13:35:59.454Z</time></trkpt><trkpt lat="39.9565622" lon="9.6538255"><ele>8.0</ele><time>2026-03-28T13:36:00.457Z</time></trkpt><trkpt lat="39.956393" lon="9.65371"><ele>8.0</ele><time>2026-03-28T13:36:01.458Z</time></trkpt><trkpt lat="39.9562223" lon="9.6535908"><ele>8.0</ele><time>2026-03-28T13:36:02.457Z</time></trkpt><trkpt lat="39.9560536" lon="9.6534719"><ele>7.666666666666666</ele><time>2026-03-28T13:36:03.454Z</time></trkpt><trkpt lat="39.9558821" lon="9.6533545"><ele>7.333333333333334</ele><time>2026-03-28T13:36:04.459Z</time></trkpt><trkpt lat="39.9557087" lon="9.6532369"><ele>7.0</ele><time>2026-03-28T13:36:05.454Z</time></trkpt><trkpt lat="39.9555358" lon="9.6531181"><ele>7.0</ele><time>2026-03-28T13:36:06.457Z</time></trkpt><trkpt lat="39.9553616" lon="9.6529988"><ele>7.0</ele><time>2026-03-28T13:36:07.455Z</time></trkpt><trkpt lat="39.9551882" lon="9.6528772"><ele>7.0</ele><time>2026-03-28T13:36:08.456Z</time></trkpt><trkpt lat="39.9550147" lon="9.6527533"><ele>7.666666666666667</ele><time>2026-03-28T13:36:09.459Z</time></trkpt><trkpt lat="39.9548394" lon="9.6526317"><ele>8.333333333333334</ele><time>2026-03-28T13:36:10.454Z</time></trkpt><trkpt lat="39.9546606" lon="9.6525129"><ele>9.0</ele><time>2026-03-28T13:36:11.449Z</time></trkpt><trkpt lat="39.9544785" lon="9.6523894"><ele>9.0</ele><time>2026-03-28T13:36:12.458Z</time></trkpt><trkpt lat="39.9543045" lon="9.6522673"><ele>9.0</ele><time>2026-03-28T13:36:13.457Z</time></trkpt><trkpt lat="39.9541268" lon="9.6521476"><ele>9.0</ele><time>2026-03-28T13:36:14.449Z</time></trkpt><trkpt lat="39.9539512" lon="9.6520237"><ele>9.0</ele><time>2026-03-28T13:36:15.456Z</time></trkpt><trkpt lat="39.953773" lon="9.6518989"><ele>9.0</ele><time>2026-03-28T13:36:16.456Z</time></trkpt><trkpt lat="39.953593" lon="9.6517736"><ele>9.0</ele><time>2026-03-28T13:36:17.463Z</time></trkpt><trkpt lat="39.9534151" lon="9.6516486"><ele>11.0</ele><time>2026-03-28T13:36:18.454Z</time></trkpt><trkpt lat="39.9532367" lon="9.6515237"><ele>13.0</ele><time>2026-03-28T13:36:19.455Z</time></trkpt><trkpt lat="39.9530576" lon="9.6514038"><ele>15.0</ele><time>2026-03-28T13:36:20.45Z</time></trkpt><trkpt lat="39.9528792" lon="9.6512818"><ele>15.0</ele><time>2026-03-28T13:36:21.453Z</time></trkpt><trkpt lat="39.9526983" lon="9.6511594"><ele>15.0</ele><time>2026-03-28T13:36:22.446Z</time></trkpt><trkpt lat="39.9525175" lon="9.6510354"><ele>15.0</ele><time>2026-03-28T13:36:23.451Z</time></trkpt><trkpt lat="39.9523359" lon="9.650911"><ele>15.0</ele><time>2026-03-28T13:36:24.445Z</time></trkpt><trkpt lat="39.9521549" lon="9.6507853"><ele>15.0</ele><time>2026-03-28T13:36:25.453Z</time></trkpt><trkpt lat="39.9519791" lon="9.6506659"><ele>15.0</ele><time>2026-03-28T13:36:26.455Z</time></trkpt><trkpt lat="39.9518107" lon="9.6505527"><ele>16.0</ele><time>2026-03-28T13:36:27.459Z</time></trkpt><trkpt lat="39.9516405" lon="9.6504319"><ele>17.0</ele><time>2026-03-28T13:36:28.457Z</time></trkpt><trkpt lat="39.9514764" lon="9.6503213"><ele>18.0</ele><time>2026-03-28T13:36:29.454Z</time></trkpt><trkpt lat="39.9513084" lon="9.6502065"><ele>18.0</ele><time>2026-03-28T13:36:30.458Z</time></trkpt><trkpt lat="39.9511419" lon="9.6500907"><ele>18.0</ele><time>2026-03-28T13:36:31.462Z</time></trkpt><trkpt lat="39.9509722" lon="9.6499794"><ele>18.0</ele><time>2026-03-28T13:36:32.454Z</time></trkpt><trkpt lat="39.9508021" lon="9.6498628"><ele>18.333333333333332</ele><time>2026-03-28T13:36:33.455Z</time></trkpt><trkpt lat="39.9506289" lon="9.6497474"><ele>18.666666666666664</ele><time>2026-03-28T13:36:34.452Z</time></trkpt><trkpt lat="39.9504589" lon="9.6496339"><ele>19.0</ele><time>2026-03-28T13:36:35.454Z</time></trkpt><trkpt lat="39.9502872" lon="9.6495215"><ele>19.333333333333332</ele><time>2026-03-28T13:36:36.452Z</time></trkpt><trkpt lat="39.9501152" lon="9.6494091"><ele>19.666666666666668</ele><time>2026-03-28T13:36:37.455Z</time></trkpt><trkpt lat="39.9499386" lon="9.6493031"><ele>20.0</ele><time>2026-03-28T13:36:38.454Z</time></trkpt><trkpt lat="39.9497587" lon="9.6492015"><ele>20.333333333333336</ele><time>2026-03-28T13:36:39.455Z</time></trkpt><trkpt lat="39.9495754" lon="9.649109"><ele>20.666666666666668</ele><time>2026-03-28T13:36:40.455Z</time></trkpt><trkpt lat="39.9493898" lon="9.6490255"><ele>21.0</ele><time>2026-03-28T13:36:41.455Z</time></trkpt><trkpt lat="39.9491999" lon="9.6489528"><ele>20.333333333333332</ele><time>2026-03-28T13:36:42.457Z</time></trkpt><trkpt lat="39.9490061" lon="9.648892"><ele>19.666666666666664</ele><time>2026-03-28T13:36:43.45Z</time></trkpt><trkpt lat="39.9488094" lon="9.6488375"><ele>19.0</ele><time>2026-03-28T13:36:44.457Z</time></trkpt><trkpt lat="39.9486107" lon="9.6487908"><ele>19.0</ele><time>2026-03-28T13:36:45.456Z</time></trkpt><trkpt lat="39.9484092" lon="9.6487505"><ele>19.0</ele><time>2026-03-28T13:36:46.45Z</time></trkpt><trkpt lat="39.9482051" lon="9.6487154"><ele>19.0</ele><time>2026-03-28T13:36:47.463Z</time></trkpt><trkpt lat="39.9479992" lon="9.648684"><ele>19.666666666666664</ele><time>2026-03-28T13:36:48.462Z</time></trkpt><trkpt lat="39.9477908" lon="9.6486531"><ele>20.333333333333332</ele><time>2026-03-28T13:36:49.461Z</time></trkpt><trkpt lat="39.9475821" lon="9.6486212"><ele>21.0</ele><time>2026-03-28T13:36:50.457Z</time></trkpt><trkpt lat="39.9473753" lon="9.6485939"><ele>22.0</ele><time>2026-03-28T13:36:51.453Z</time></trkpt><trkpt lat="39.9471635" lon="9.6485721"><ele>23.0</ele><time>2026-03-28T13:36:52.458Z</time></trkpt><trkpt lat="39.9469573" lon="9.6485373"><ele>24.0</ele><time>2026-03-28T13:36:53.455Z</time></trkpt><trkpt lat="39.9467486" lon="9.6485047"><ele>22.666666666666668</ele><time>2026-03-28T13:36:54.452Z</time></trkpt><trkpt lat="39.9465364" lon="9.648471"><ele>21.333333333333336</ele><time>2026-03-28T13:36:55.456Z</time></trkpt><trkpt lat="39.9463281" lon="9.6484477"><ele>20.0</ele><time>2026-03-28T13:36:56.457Z</time></trkpt><trkpt lat="39.946122" lon="9.6484194"><ele>20.0</ele><time>2026-03-28T13:36:57.46Z</time></trkpt><trkpt lat="39.9459094" lon="9.648385"><ele>20.0</ele><time>2026-03-28T13:36:58.459Z</time></trkpt><trkpt lat="39.945702" lon="9.6483551"><ele>20.0</ele><time>2026-03-28T13:36:59.454Z</time></trkpt><trkpt lat="39.9454915" lon="9.6483247"><ele>20.0</ele><time>2026-03-28T13:37:00.455Z</time></trkpt><trkpt lat="39.9452831" lon="9.6482978"><ele>20.0</ele><time>2026-03-28T13:37:01.451Z</time></trkpt><trkpt lat="39.9450735" lon="9.6482678"><ele>20.0</ele><time>2026-03-28T13:37:02.453Z</time></trkpt><trkpt lat="39.9448681" lon="9.6482374"><ele>20.0</ele><time>2026-03-28T13:37:03.454Z</time></trkpt><trkpt lat="39.9446612" lon="9.6482037"><ele>20.0</ele><time>2026-03-28T13:37:04.458Z</time></trkpt><trkpt lat="39.9444534" lon="9.6481747"><ele>20.0</ele><time>2026-03-28T13:37:05.458Z</time></trkpt><trkpt lat="39.9442475" lon="9.6481469"><ele>20.333333333333336</ele><time>2026-03-28T13:37:06.462Z</time></trkpt><trkpt lat="39.944041" lon="9.6481198"><ele>20.666666666666668</ele><time>2026-03-28T13:37:07.455Z</time></trkpt><trkpt lat="39.9438345" lon="9.6480922"><ele>21.0</ele><time>2026-03-28T13:37:08.457Z</time></trkpt><trkpt lat="39.9436296" lon="9.6480647"><ele>21.0</ele><time>2026-03-28T13:37:09.454Z</time></trkpt><trkpt lat="39.9434238" lon="9.6480351"><ele>21.0</ele><time>2026-03-28T13:37:10.455Z</time></trkpt><trkpt lat="39.943219" lon="9.6480052"><ele>21.0</ele><time>2026-03-28T13:37:11.458Z</time></trkpt><trkpt lat="39.9430152" lon="9.6479741"><ele>22.0</ele><time>2026-03-28T13:37:12.45Z</time></trkpt><trkpt lat="39.9428111" lon="9.6479444"><ele>23.0</ele><time>2026-03-28T13:37:13.45Z</time></trkpt><trkpt lat="39.9426067" lon="9.6479154"><ele>24.0</ele><time>2026-03-28T13:37:14.454Z</time></trkpt><trkpt lat="39.9424025" lon="9.6478867"><ele>24.0</ele><time>2026-03-28T13:37:15.454Z</time></trkpt><trkpt lat="39.9421974" lon="9.6478587"><ele>24.0</ele><time>2026-03-28T13:37:16.46Z</time></trkpt><trkpt lat="39.9419926" lon="9.6478291"><ele>24.0</ele><time>2026-03-28T13:37:17.452Z</time></trkpt><trkpt lat="39.9417883" lon="9.6478009"><ele>24.333333333333336</ele><time>2026-03-28T13:37:18.459Z</time></trkpt><trkpt lat="39.941585" lon="9.6477732"><ele>24.666666666666668</ele><time>2026-03-28T13:37:19.454Z</time></trkpt><trkpt lat="39.9413831" lon="9.6477455"><ele>25.0</ele><time>2026-03-28T13:37:20.458Z</time></trkpt><trkpt lat="39.94118" lon="9.6477171"><ele>25.0</ele><time>2026-03-28T13:37:21.453Z</time></trkpt><trkpt lat="39.9409777" lon="9.6476896"><ele>25.0</ele><time>2026-03-28T13:37:22.457Z</time></trkpt><trkpt lat="39.9407759" lon="9.6476617"><ele>25.0</ele><time>2026-03-28T13:37:23.454Z</time></trkpt><trkpt lat="39.9405757" lon="9.647634"><ele>25.333333333333336</ele><time>2026-03-28T13:37:24.447Z</time></trkpt><trkpt lat="39.9403775" lon="9.6476051"><ele>25.666666666666664</ele><time>2026-03-28T13:37:25.454Z</time></trkpt><trkpt lat="39.9401809" lon="9.6475775"><ele>26.0</ele><time>2026-03-28T13:37:26.462Z</time></trkpt><trkpt lat="39.9399829" lon="9.6475507"><ele>26.666666666666664</ele><time>2026-03-28T13:37:27.459Z</time></trkpt><trkpt lat="39.9397855" lon="9.6475239"><ele>27.333333333333336</ele><time>2026-03-28T13:37:28.453Z</time></trkpt><trkpt lat="39.9395874" lon="9.647496"><ele>28.0</ele><time>2026-03-28T13:37:29.456Z</time></trkpt><trkpt lat="39.9393899" lon="9.6474676"><ele>27.333333333333336</ele><time>2026-03-28T13:37:30.45Z</time></trkpt><trkpt lat="39.9391919" lon="9.647441"><ele>26.666666666666664</ele><time>2026-03-28T13:37:31.456Z</time></trkpt><trkpt lat="39.9389933" lon="9.6474138"><ele>26.0</ele><time>2026-03-28T13:37:32.452Z</time></trkpt><trkpt lat="39.938794" lon="9.6473866"><ele>26.0</ele><time>2026-03-28T13:37:33.458Z</time></trkpt><trkpt lat="39.9385938" lon="9.6473577"><ele>26.0</ele><time>2026-03-28T13:37:34.452Z</time></trkpt><trkpt lat="39.9383937" lon="9.6473289"><ele>26.0</ele><time>2026-03-28T13:37:35.453Z</time></trkpt><trkpt lat="39.9381934" lon="9.6473006"><ele>26.0</ele><time>2026-03-28T13:37:36.454Z</time></trkpt><trkpt lat="39.9379931" lon="9.6472722"><ele>26.0</ele><time>2026-03-28T13:37:37.449Z</time></trkpt><trkpt lat="39.9377934" lon="9.6472424"><ele>26.0</ele><time>2026-03-28T13:37:38.451Z</time></trkpt><trkpt lat="39.9375935" lon="9.6472128"><ele>25.666666666666664</ele><time>2026-03-28T13:37:39.455Z</time></trkpt><trkpt lat="39.9373931" lon="9.6471843"><ele>25.333333333333336</ele><time>2026-03-28T13:37:40.457Z</time></trkpt><trkpt lat="39.937193" lon="9.6471557"><ele>25.0</ele><time>2026-03-28T13:37:41.454Z</time></trkpt><trkpt lat="39.9369929" lon="9.6471268"><ele>25.0</ele><time>2026-03-28T13:37:42.456Z</time></trkpt><trkpt lat="39.9367927" lon="9.6470978"><ele>25.0</ele><time>2026-03-28T13:37:43.462Z</time></trkpt><trkpt lat="39.9365932" lon="9.6470683"><ele>25.0</ele><time>2026-03-28T13:37:44.451Z</time></trkpt><trkpt lat="39.9363937" lon="9.6470395"><ele>24.666666666666668</ele><time>2026-03-28T13:37:45.453Z</time></trkpt><trkpt lat="39.9361939" lon="9.6470104"><ele>24.333333333333336</ele><time>2026-03-28T13:37:46.452Z</time></trkpt><trkpt lat="39.9359949" lon="9.6469829"><ele>24.0</ele><time>2026-03-28T13:37:47.458Z</time></trkpt><trkpt lat="39.9357964" lon="9.6469566"><ele>26.0</ele><time>2026-03-28T13:37:48.455Z</time></trkpt><trkpt lat="39.9355974" lon="9.6469311"><ele>28.0</ele><time>2026-03-28T13:37:49.459Z</time></trkpt><trkpt lat="39.9353989" lon="9.6469054"><ele>30.0</ele><time>2026-03-28T13:37:50.461Z</time></trkpt><trkpt lat="39.9351999" lon="9.6468787"><ele>29.666666666666664</ele><time>2026-03-28T13:37:51.455Z</time></trkpt><trkpt lat="39.9350008" lon="9.6468502"><ele>29.333333333333332</ele><time>2026-03-28T13:37:52.454Z</time></trkpt><trkpt lat="39.9348015" lon="9.6468214"><ele>29.0</ele><time>2026-03-28T13:37:53.451Z</time></trkpt><trkpt lat="39.934602" lon="9.6467938"><ele>29.0</ele><time>2026-03-28T13:37:54.454Z</time></trkpt><trkpt lat="39.9344" lon="9.6467706"><ele>29.0</ele><time>2026-03-28T13:37:55.456Z</time></trkpt><trkpt lat="39.934201" lon="9.646743"><ele>29.0</ele><time>2026-03-28T13:37:56.45Z</time></trkpt><trkpt lat="39.9340027" lon="9.6467113"><ele>28.666666666666664</ele><time>2026-03-28T13:37:57.454Z</time></trkpt><trkpt lat="39.9338019" lon="9.6466822"><ele>28.333333333333336</ele><time>2026-03-28T13:37:58.452Z</time></trkpt><trkpt lat="39.9336022" lon="9.6466523"><ele>28.0</ele><time>2026-03-28T13:37:59.45Z</time></trkpt><trkpt lat="39.9334018" lon="9.6466218"><ele>27.666666666666668</ele><time>2026-03-28T13:38:00.45Z</time></trkpt><trkpt lat="39.9332018" lon="9.6465932"><ele>27.333333333333336</ele><time>2026-03-28T13:38:01.457Z</time></trkpt><trkpt lat="39.9330021" lon="9.6465654"><ele>27.0</ele><time>2026-03-28T13:38:02.453Z</time></trkpt><trkpt lat="39.9328011" lon="9.6465361"><ele>27.0</ele><time>2026-03-28T13:38:03.455Z</time></trkpt><trkpt lat="39.9325946" lon="9.6465057"><ele>27.0</ele><time>2026-03-28T13:38:04.455Z</time></trkpt><trkpt lat="39.9323994" lon="9.6464758"><ele>27.0</ele><time>2026-03-28T13:38:05.452Z</time></trkpt><trkpt lat="39.9322145" lon="9.646457"><ele>27.0</ele><time>2026-03-28T13:38:06.452Z</time></trkpt><trkpt lat="39.9320249" lon="9.6464392"><ele>27.0</ele><time>2026-03-28T13:38:07.452Z</time></trkpt><trkpt lat="39.9318304" lon="9.6464134"><ele>27.0</ele><time>2026-03-28T13:38:08.453Z</time></trkpt><trkpt lat="39.9316416" lon="9.6463869"><ele>28.0</ele><time>2026-03-28T13:38:09.45Z</time></trkpt><trkpt lat="39.931448" lon="9.6463603"><ele>29.0</ele><time>2026-03-28T13:38:10.458Z</time></trkpt><trkpt lat="39.9312495" lon="9.646329"><ele>30.0</ele><time>2026-03-28T13:38:11.451Z</time></trkpt><trkpt lat="39.931054" lon="9.6463005"><ele>30.0</ele><time>2026-03-28T13:38:12.454Z</time></trkpt><trkpt lat="39.9308532" lon="9.6462688"><ele>30.0</ele><time>2026-03-28T13:38:13.458Z</time></trkpt><trkpt lat="39.9306558" lon="9.6462359"><ele>30.0</ele><time>2026-03-28T13:38:14.491Z</time></trkpt><trkpt lat="39.9304595" lon="9.6462096"><ele>30.0</ele><time>2026-03-28T13:38:15.462Z</time></trkpt><trkpt lat="39.9302637" lon="9.6461853"><ele>30.0</ele><time>2026-03-28T13:38:16.451Z</time></trkpt><trkpt lat="39.9300715" lon="9.6461651"><ele>30.0</ele><time>2026-03-28T13:38:17.456Z</time></trkpt><trkpt lat="39.9298786" lon="9.6461503"><ele>30.666666666666664</ele><time>2026-03-28T13:38:18.452Z</time></trkpt><trkpt lat="39.929688" lon="9.6461411"><ele>31.333333333333332</ele><time>2026-03-28T13:38:19.446Z</time></trkpt><trkpt lat="39.9294976" lon="9.6461398"><ele>32.0</ele><time>2026-03-28T13:38:20.456Z</time></trkpt><trkpt lat="39.9293102" lon="9.6461512"><ele>31.0</ele><time>2026-03-28T13:38:21.462Z</time></trkpt><trkpt lat="39.9291223" lon="9.6461715"><ele>30.0</ele><time>2026-03-28T13:38:22.471Z</time></trkpt><trkpt lat="39.9289306" lon="9.6461989"><ele>29.0</ele><time>2026-03-28T13:38:23.456Z</time></trkpt><trkpt lat="39.928731" lon="9.6462366"><ele>29.0</ele><time>2026-03-28T13:38:24.457Z</time></trkpt><trkpt lat="39.9285215" lon="9.6462843"><ele>29.0</ele><time>2026-03-28T13:38:25.46Z</time></trkpt><trkpt lat="39.9283027" lon="9.6463394"><ele>29.0</ele><time>2026-03-28T13:38:26.454Z</time></trkpt><trkpt lat="39.9280716" lon="9.6463977"><ele>28.5</ele><time>2026-03-28T13:38:27.458Z</time></trkpt><trkpt lat="39.9278415" lon="9.6464687"><ele>28.0</ele><time>2026-03-28T13:38:28.447Z</time></trkpt><trkpt lat="39.9276271" lon="9.6465373"><ele>28.0</ele><time>2026-03-28T13:38:29.457Z</time></trkpt><trkpt lat="39.9274367" lon="9.6466001"><ele>28.0</ele><time>2026-03-28T13:38:30.454Z</time></trkpt><trkpt lat="39.9272577" lon="9.6466635"><ele>28.0</ele><time>2026-03-28T13:38:31.457Z</time></trkpt><trkpt lat="39.9270749" lon="9.6467295"><ele>28.0</ele><time>2026-03-28T13:38:32.449Z</time></trkpt><trkpt lat="39.9268867" lon="9.6467936"><ele>28.0</ele><time>2026-03-28T13:38:33.451Z</time></trkpt><trkpt lat="39.9266986" lon="9.6468536"><ele>28.0</ele><time>2026-03-28T13:38:34.457Z</time></trkpt><trkpt lat="39.9265174" lon="9.6469112"><ele>27.666666666666668</ele><time>2026-03-28T13:38:35.456Z</time></trkpt><trkpt lat="39.9263285" lon="9.6469508"><ele>27.333333333333336</ele><time>2026-03-28T13:38:36.45Z</time></trkpt><trkpt lat="39.9261694" lon="9.647001"><ele>27.0</ele><time>2026-03-28T13:38:37.457Z</time></trkpt><trkpt lat="39.926005" lon="9.6470449"><ele>26.25</ele><time>2026-03-28T13:38:38.455Z</time></trkpt><trkpt lat="39.925856" lon="9.6470849"><ele>25.5</ele><time>2026-03-28T13:38:39.465Z</time></trkpt><trkpt lat="39.9257192" lon="9.6471261"><ele>24.75</ele><time>2026-03-28T13:38:40.449Z</time></trkpt><trkpt lat="39.9255931" lon="9.6471647"><ele>24.0</ele><time>2026-03-28T13:38:41.466Z</time></trkpt><trkpt lat="39.9254791" lon="9.6472008"><ele>24.0</ele><time>2026-03-28T13:38:42.45Z</time></trkpt><trkpt lat="39.9253727" lon="9.6472382"><ele>24.0</ele><time>2026-03-28T13:38:43.462Z</time></trkpt><trkpt lat="39.9252847" lon="9.647256"><ele>24.0</ele><time>2026-03-28T13:38:44.46Z</time></trkpt><trkpt lat="39.9252176" lon="9.6472712"><ele>24.0</ele><time>2026-03-28T13:38:45.458Z</time></trkpt><trkpt lat="39.9251462" lon="9.6472979"><ele>24.0</ele><time>2026-03-28T13:38:47.468Z</time></trkpt><trkpt lat="39.9251191" lon="9.6473878"><ele>24.0</ele><time>2026-03-28T13:45:26.457Z</time></trkpt><trkpt lat="39.925258" lon="9.6473646"><ele>24.0</ele><time>2026-03-28T13:45:28.451Z</time></trkpt><trkpt lat="39.9253554" lon="9.6473286"><ele>24.0</ele><time>2026-03-28T13:45:29.458Z</time></trkpt><trkpt lat="39.925463" lon="9.6472937"><ele>24.0</ele><time>2026-03-28T13:45:30.46Z</time></trkpt><trkpt lat="39.9255932" lon="9.6472491"><ele>24.0</ele><time>2026-03-28T13:45:31.456Z</time></trkpt><trkpt lat="39.925725" lon="9.6472064"><ele>24.0</ele><time>2026-03-28T13:45:32.454Z</time></trkpt><trkpt lat="39.925865" lon="9.6471618"><ele>24.0</ele><time>2026-03-28T13:45:33.461Z</time></trkpt><trkpt lat="39.926011" lon="9.6471157"><ele>24.0</ele><time>2026-03-28T13:45:34.454Z</time></trkpt><trkpt lat="39.9261662" lon="9.6470679"><ele>24.0</ele><time>2026-03-28T13:45:35.463Z</time></trkpt><trkpt lat="39.9263335" lon="9.6470192"><ele>24.0</ele><time>2026-03-28T13:45:36.469Z</time></trkpt><trkpt lat="39.9265007" lon="9.6469699"><ele>24.0</ele><time>2026-03-28T13:45:37.451Z</time></trkpt><trkpt lat="39.9266684" lon="9.6469175"><ele>25.333333333333336</ele><time>2026-03-28T13:45:38.469Z</time></trkpt><trkpt lat="39.9268393" lon="9.6468616"><ele>26.666666666666668</ele><time>2026-03-28T13:45:39.448Z</time></trkpt><trkpt lat="39.9270123" lon="9.6468081"><ele>28.0</ele><time>2026-03-28T13:45:40.457Z</time></trkpt><trkpt lat="39.9271899" lon="9.6467523"><ele>28.0</ele><time>2026-03-28T13:45:41.457Z</time></trkpt><trkpt lat="39.9273663" lon="9.6466944"><ele>28.0</ele><time>2026-03-28T13:45:42.461Z</time></trkpt><trkpt lat="39.9275521" lon="9.6466361"><ele>28.0</ele><time>2026-03-28T13:45:43.45Z</time></trkpt><trkpt lat="39.927732" lon="9.6465781"><ele>28.0</ele><time>2026-03-28T13:45:44.452Z</time></trkpt><trkpt lat="39.9279154" lon="9.6465103"><ele>28.0</ele><time>2026-03-28T13:45:45.457Z</time></trkpt><trkpt lat="39.9281012" lon="9.6464529"><ele>28.0</ele><time>2026-03-28T13:45:46.459Z</time></trkpt><trkpt lat="39.9282968" lon="9.6463979"><ele>28.333333333333336</ele><time>2026-03-28T13:45:47.466Z</time></trkpt><trkpt lat="39.9284782" lon="9.646348"><ele>28.666666666666664</ele><time>2026-03-28T13:45:48.465Z</time></trkpt><trkpt lat="39.9286562" lon="9.6463043"><ele>29.0</ele><time>2026-03-28T13:45:49.474Z</time></trkpt><trkpt lat="39.9288422" lon="9.6462678"><ele>29.0</ele><time>2026-03-28T13:45:50.432Z</time></trkpt><trkpt lat="39.9290345" lon="9.6462395"><ele>29.0</ele><time>2026-03-28T13:45:51.426Z</time></trkpt><trkpt lat="39.9292284" lon="9.6462179"><ele>29.0</ele><time>2026-03-28T13:45:52.434Z</time></trkpt><trkpt lat="39.9294206" lon="9.6461981"><ele>30.0</ele><time>2026-03-28T13:45:53.435Z</time></trkpt><trkpt lat="39.9296131" lon="9.6461886"><ele>31.0</ele><time>2026-03-28T13:45:54.435Z</time></trkpt><trkpt lat="39.9298298" lon="9.6461916"><ele>32.0</ele><time>2026-03-28T13:45:55.445Z</time></trkpt><trkpt lat="39.9300403" lon="9.646202"><ele>31.333333333333332</ele><time>2026-03-28T13:45:56.422Z</time></trkpt><trkpt lat="39.9302568" lon="9.6462312"><ele>30.666666666666664</ele><time>2026-03-28T13:45:57.448Z</time></trkpt><trkpt lat="39.9304854" lon="9.6462659"><ele>30.0</ele><time>2026-03-28T13:45:58.438Z</time></trkpt><trkpt lat="39.9307151" lon="9.6463007"><ele>30.0</ele><time>2026-03-28T13:45:59.439Z</time></trkpt><trkpt lat="39.9309457" lon="9.6463346"><ele>30.0</ele><time>2026-03-28T13:46:00.447Z</time></trkpt><trkpt lat="39.9311821" lon="9.6463713"><ele>30.0</ele><time>2026-03-28T13:46:01.447Z</time></trkpt><trkpt lat="39.9314244" lon="9.6464029"><ele>30.0</ele><time>2026-03-28T13:46:02.454Z</time></trkpt><trkpt lat="39.9316677" lon="9.64644"><ele>28.5</ele><time>2026-03-28T13:46:03.42Z</time></trkpt><trkpt lat="39.9319127" lon="9.6464721"><ele>27.0</ele><time>2026-03-28T13:46:04.434Z</time></trkpt><trkpt lat="39.9321585" lon="9.6465119"><ele>27.0</ele><time>2026-03-28T13:46:05.439Z</time></trkpt><trkpt lat="39.9324046" lon="9.6465422"><ele>27.0</ele><time>2026-03-28T13:46:06.444Z</time></trkpt><trkpt lat="39.9326547" lon="9.6465846"><ele>27.0</ele><time>2026-03-28T13:46:07.437Z</time></trkpt><trkpt lat="39.9329032" lon="9.6466276"><ele>27.0</ele><time>2026-03-28T13:46:08.441Z</time></trkpt><trkpt lat="39.9331565" lon="9.6466681"><ele>27.5</ele><time>2026-03-28T13:46:09.442Z</time></trkpt><trkpt lat="39.9334048" lon="9.6466961"><ele>28.0</ele><time>2026-03-28T13:46:10.408Z</time></trkpt><trkpt lat="39.9336572" lon="9.6467186"><ele>28.0</ele><time>2026-03-28T13:46:11.444Z</time></trkpt><trkpt lat="39.9339139" lon="9.6467604"><ele>28.0</ele><time>2026-03-28T13:46:12.431Z</time></trkpt><trkpt lat="39.9341723" lon="9.6467951"><ele>28.5</ele><time>2026-03-28T13:46:13.441Z</time></trkpt><trkpt lat="39.9344218" lon="9.6468369"><ele>29.0</ele><time>2026-03-28T13:46:14.444Z</time></trkpt><trkpt lat="39.9346706" lon="9.6468781"><ele>29.0</ele><time>2026-03-28T13:46:15.437Z</time></trkpt><trkpt lat="39.934921" lon="9.646914"><ele>29.0</ele><time>2026-03-28T13:46:16.429Z</time></trkpt><trkpt lat="39.9351722" lon="9.6469482"><ele>27.0</ele><time>2026-03-28T13:46:17.448Z</time></trkpt><trkpt lat="39.935424" lon="9.6469824"><ele>25.0</ele><time>2026-03-28T13:46:18.435Z</time></trkpt><trkpt lat="39.9356754" lon="9.6470156"><ele>24.5</ele><time>2026-03-28T13:46:19.438Z</time></trkpt><trkpt lat="39.9359268" lon="9.6470519"><ele>24.0</ele><time>2026-03-28T13:46:20.442Z</time></trkpt><trkpt lat="39.9361799" lon="9.6470853"><ele>24.0</ele><time>2026-03-28T13:46:21.436Z</time></trkpt><trkpt lat="39.9364347" lon="9.6471213"><ele>24.0</ele><time>2026-03-28T13:46:22.442Z</time></trkpt><trkpt lat="39.9366883" lon="9.6471563"><ele>24.5</ele><time>2026-03-28T13:46:23.442Z</time></trkpt><trkpt lat="39.9369398" lon="9.6471924"><ele>25.0</ele><time>2026-03-28T13:46:24.437Z</time></trkpt><trkpt lat="39.9371916" lon="9.6472261"><ele>25.0</ele><time>2026-03-28T13:46:25.446Z</time></trkpt><trkpt lat="39.9374415" lon="9.6472597"><ele>25.0</ele><time>2026-03-28T13:46:26.44Z</time></trkpt><trkpt lat="39.9376886" lon="9.6472944"><ele>25.5</ele><time>2026-03-28T13:46:27.447Z</time></trkpt><trkpt lat="39.9379374" lon="9.6473261"><ele>26.0</ele><time>2026-03-28T13:46:28.452Z</time></trkpt><trkpt lat="39.938182" lon="9.6473575"><ele>26.0</ele><time>2026-03-28T13:46:29.416Z</time></trkpt><trkpt lat="39.9384239" lon="9.6473877"><ele>26.0</ele><time>2026-03-28T13:46:30.433Z</time></trkpt><trkpt lat="39.9386598" lon="9.6474244"><ele>26.0</ele><time>2026-03-28T13:46:31.411Z</time></trkpt><trkpt lat="39.9388969" lon="9.647453"><ele>26.0</ele><time>2026-03-28T13:46:32.434Z</time></trkpt><trkpt lat="39.939131" lon="9.6474889"><ele>27.0</ele><time>2026-03-28T13:46:33.422Z</time></trkpt><trkpt lat="39.9393558" lon="9.6475283"><ele>28.0</ele><time>2026-03-28T13:46:34.444Z</time></trkpt><trkpt lat="39.9395847" lon="9.6475754"><ele>28.0</ele><time>2026-03-28T13:46:35.418Z</time></trkpt><trkpt lat="39.939816" lon="9.6476174"><ele>28.0</ele><time>2026-03-28T13:46:36.426Z</time></trkpt><trkpt lat="39.9400451" lon="9.6476454"><ele>27.0</ele><time>2026-03-28T13:46:37.446Z</time></trkpt><trkpt lat="39.9402699" lon="9.6476704"><ele>26.0</ele><time>2026-03-28T13:46:38.447Z</time></trkpt><trkpt lat="39.9404993" lon="9.6476991"><ele>26.0</ele><time>2026-03-28T13:46:39.44Z</time></trkpt><trkpt lat="39.9407226" lon="9.6477273"><ele>26.0</ele><time>2026-03-28T13:46:40.434Z</time></trkpt><trkpt lat="39.9409472" lon="9.6477555"><ele>25.666666666666664</ele><time>2026-03-28T13:46:41.44Z</time></trkpt><trkpt lat="39.9411693" lon="9.6477878"><ele>25.333333333333336</ele><time>2026-03-28T13:46:42.438Z</time></trkpt><trkpt lat="39.9413894" lon="9.6478199"><ele>25.0</ele><time>2026-03-28T13:46:43.442Z</time></trkpt><trkpt lat="39.9416095" lon="9.6478509"><ele>24.666666666666668</ele><time>2026-03-28T13:46:44.457Z</time></trkpt><trkpt lat="39.9418244" lon="9.6478838"><ele>24.333333333333336</ele><time>2026-03-28T13:46:45.435Z</time></trkpt><trkpt lat="39.9420434" lon="9.6479144"><ele>24.0</ele><time>2026-03-28T13:46:46.435Z</time></trkpt><trkpt lat="39.9422649" lon="9.6479448"><ele>24.0</ele><time>2026-03-28T13:46:47.449Z</time></trkpt><trkpt lat="39.9424854" lon="9.6479739"><ele>24.0</ele><time>2026-03-28T13:46:48.448Z</time></trkpt><trkpt lat="39.9427052" lon="9.648004"><ele>24.0</ele><time>2026-03-28T13:46:49.436Z</time></trkpt><trkpt lat="39.9429265" lon="9.6480349"><ele>24.0</ele><time>2026-03-28T13:46:50.438Z</time></trkpt><trkpt lat="39.9431453" lon="9.6480656"><ele>24.0</ele><time>2026-03-28T13:46:51.434Z</time></trkpt><trkpt lat="39.9433636" lon="9.6480964"><ele>24.0</ele><time>2026-03-28T13:46:52.42Z</time></trkpt><trkpt lat="39.9435842" lon="9.6481269"><ele>23.0</ele><time>2026-03-28T13:46:53.426Z</time></trkpt><trkpt lat="39.9438059" lon="9.6481575"><ele>22.0</ele><time>2026-03-28T13:46:54.448Z</time></trkpt><trkpt lat="39.9440275" lon="9.6481861"><ele>21.0</ele><time>2026-03-28T13:46:55.456Z</time></trkpt><trkpt lat="39.9442465" lon="9.6482185"><ele>20.666666666666668</ele><time>2026-03-28T13:46:56.439Z</time></trkpt><trkpt lat="39.9444688" lon="9.6482505"><ele>20.333333333333336</ele><time>2026-03-28T13:46:57.447Z</time></trkpt><trkpt lat="39.9446906" lon="9.648282"><ele>20.0</ele><time>2026-03-28T13:46:58.443Z</time></trkpt><trkpt lat="39.9449115" lon="9.6483119"><ele>19.333333333333336</ele><time>2026-03-28T13:46:59.427Z</time></trkpt><trkpt lat="39.9451342" lon="9.6483438"><ele>18.666666666666668</ele><time>2026-03-28T13:47:00.441Z</time></trkpt><trkpt lat="39.9453533" lon="9.6483814"><ele>18.0</ele><time>2026-03-28T13:47:01.44Z</time></trkpt><trkpt lat="39.9455743" lon="9.6484093"><ele>18.0</ele><time>2026-03-28T13:47:02.432Z</time></trkpt><trkpt lat="39.9457947" lon="9.648442"><ele>18.0</ele><time>2026-03-28T13:47:03.441Z</time></trkpt><trkpt lat="39.9460137" lon="9.6484754"><ele>18.0</ele><time>2026-03-28T13:47:04.459Z</time></trkpt><trkpt lat="39.9462302" lon="9.6485075"><ele>18.666666666666668</ele><time>2026-03-28T13:47:05.44Z</time></trkpt><trkpt lat="39.9464473" lon="9.6485399"><ele>19.333333333333336</ele><time>2026-03-28T13:47:06.438Z</time></trkpt><trkpt lat="39.9466659" lon="9.6485744"><ele>20.0</ele><time>2026-03-28T13:47:07.451Z</time></trkpt><trkpt lat="39.9468843" lon="9.6486077"><ele>20.666666666666668</ele><time>2026-03-28T13:47:08.444Z</time></trkpt><trkpt lat="39.9471039" lon="9.6486388"><ele>21.333333333333332</ele><time>2026-03-28T13:47:09.445Z</time></trkpt><trkpt lat="39.9473205" lon="9.6486682"><ele>22.0</ele><time>2026-03-28T13:47:10.435Z</time></trkpt><trkpt lat="39.9475388" lon="9.6486939"><ele>21.666666666666664</ele><time>2026-03-28T13:47:11.436Z</time></trkpt><trkpt lat="39.9477579" lon="9.6487176"><ele>21.333333333333332</ele><time>2026-03-28T13:47:12.448Z</time></trkpt><trkpt lat="39.9479816" lon="9.6487408"><ele>21.0</ele><time>2026-03-28T13:47:13.427Z</time></trkpt><trkpt lat="39.9481981" lon="9.6487718"><ele>20.333333333333332</ele><time>2026-03-28T13:47:14.445Z</time></trkpt><trkpt lat="39.9484149" lon="9.6488108"><ele>19.666666666666664</ele><time>2026-03-28T13:47:15.426Z</time></trkpt><trkpt lat="39.9486307" lon="9.6488582"><ele>19.0</ele><time>2026-03-28T13:47:16.441Z</time></trkpt><trkpt lat="39.9488429" lon="9.64891"><ele>19.0</ele><time>2026-03-28T13:47:17.451Z</time></trkpt><trkpt lat="39.9490526" lon="9.6489729"><ele>19.0</ele><time>2026-03-28T13:47:18.444Z</time></trkpt><trkpt lat="39.9492608" lon="9.649057"><ele>19.0</ele><time>2026-03-28T13:47:19.429Z</time></trkpt><trkpt lat="39.9494703" lon="9.6491454"><ele>19.0</ele><time>2026-03-28T13:47:20.446Z</time></trkpt><trkpt lat="39.9496751" lon="9.6492421"><ele>19.0</ele><time>2026-03-28T13:47:21.44Z</time></trkpt><trkpt lat="39.9498743" lon="9.6493525"><ele>19.0</ele><time>2026-03-28T13:47:22.442Z</time></trkpt><trkpt lat="39.9500717" lon="9.6494712"><ele>19.0</ele><time>2026-03-28T13:47:23.445Z</time></trkpt><trkpt lat="39.9502658" lon="9.6495929"><ele>19.0</ele><time>2026-03-28T13:47:24.42Z</time></trkpt><trkpt lat="39.9504541" lon="9.6497213"><ele>19.0</ele><time>2026-03-28T13:47:25.447Z</time></trkpt><trkpt lat="39.9506356" lon="9.6498651"><ele>19.0</ele><time>2026-03-28T13:47:26.437Z</time></trkpt><trkpt lat="39.9508156" lon="9.6499786"><ele>19.0</ele><time>2026-03-28T13:47:27.437Z</time></trkpt><trkpt lat="39.9509927" lon="9.6500943"><ele>19.0</ele><time>2026-03-28T13:47:28.451Z</time></trkpt><trkpt lat="39.9511588" lon="9.6502143"><ele>18.666666666666664</ele><time>2026-03-28T13:47:29.429Z</time></trkpt><trkpt lat="39.9513263" lon="9.6503215"><ele>18.333333333333332</ele><time>2026-03-28T13:47:30.435Z</time></trkpt><trkpt lat="39.9514959" lon="9.6504413"><ele>18.0</ele><time>2026-03-28T13:47:31.435Z</time></trkpt><trkpt lat="39.9516632" lon="9.6505614"><ele>17.0</ele><time>2026-03-28T13:47:32.445Z</time></trkpt><trkpt lat="39.9518289" lon="9.6506813"><ele>16.0</ele><time>2026-03-28T13:47:33.432Z</time></trkpt><trkpt lat="39.9520028" lon="9.6507957"><ele>15.0</ele><time>2026-03-28T13:47:34.44Z</time></trkpt><trkpt lat="39.9521659" lon="9.6509032"><ele>15.0</ele><time>2026-03-28T13:47:35.463Z</time></trkpt><trkpt lat="39.9523245" lon="9.6510218"><ele>15.0</ele><time>2026-03-28T13:47:36.432Z</time></trkpt><trkpt lat="39.9524902" lon="9.6511328"><ele>15.0</ele><time>2026-03-28T13:47:37.442Z</time></trkpt><trkpt lat="39.9526444" lon="9.6512266"><ele>15.0</ele><time>2026-03-28T13:47:38.439Z</time></trkpt><trkpt lat="39.9528185" lon="9.6513447"><ele>15.0</ele><time>2026-03-28T13:47:39.435Z</time></trkpt><trkpt lat="39.9530014" lon="9.651462"><ele>15.0</ele><time>2026-03-28T13:47:40.434Z</time></trkpt><trkpt lat="39.9531848" lon="9.6515915"><ele>15.0</ele><time>2026-03-28T13:47:41.444Z</time></trkpt><trkpt lat="39.953372" lon="9.6517194"><ele>15.0</ele><time>2026-03-28T13:47:42.451Z</time></trkpt><trkpt lat="39.9535644" lon="9.6518523"><ele>15.0</ele><time>2026-03-28T13:47:43.445Z</time></trkpt><trkpt lat="39.9537596" lon="9.6519897"><ele>12.5</ele><time>2026-03-28T13:47:44.448Z</time></trkpt><trkpt lat="39.953959" lon="9.6521256"><ele>10.0</ele><time>2026-03-28T13:47:45.441Z</time></trkpt><trkpt lat="39.9541629" lon="9.6522641"><ele>9.5</ele><time>2026-03-28T13:47:46.444Z</time></trkpt><trkpt lat="39.9543689" lon="9.6524028"><ele>9.0</ele><time>2026-03-28T13:47:47.447Z</time></trkpt><trkpt lat="39.954576" lon="9.6525448"><ele>9.0</ele><time>2026-03-28T13:47:48.446Z</time></trkpt><trkpt lat="39.9547863" lon="9.6526872"><ele>9.0</ele><time>2026-03-28T13:47:49.423Z</time></trkpt><trkpt lat="39.9549951" lon="9.6528306"><ele>8.0</ele><time>2026-03-28T13:47:50.456Z</time></trkpt><trkpt lat="39.9552049" lon="9.6529801"><ele>7.0</ele><time>2026-03-28T13:47:51.426Z</time></trkpt><trkpt lat="39.9554166" lon="9.6531251"><ele>7.0</ele><time>2026-03-28T13:47:52.44Z</time></trkpt><trkpt lat="39.9556275" lon="9.6532692"><ele>7.0</ele><time>2026-03-28T13:47:53.452Z</time></trkpt><trkpt lat="39.9558364" lon="9.653413"><ele>7.0</ele><time>2026-03-28T13:47:54.447Z</time></trkpt><trkpt lat="39.9560511" lon="9.653558"><ele>7.0</ele><time>2026-03-28T13:47:55.436Z</time></trkpt><trkpt lat="39.956261" lon="9.6537056"><ele>7.5</ele><time>2026-03-28T13:47:56.443Z</time></trkpt><trkpt lat="39.9564735" lon="9.6538462"><ele>8.0</ele><time>2026-03-28T13:47:57.427Z</time></trkpt><trkpt lat="39.9566854" lon="9.6539942"><ele>8.0</ele><time>2026-03-28T13:47:58.448Z</time></trkpt><trkpt lat="39.9568989" lon="9.6541408"><ele>8.0</ele><time>2026-03-28T13:47:59.45Z</time></trkpt><trkpt lat="39.9571126" lon="9.6542871"><ele>8.0</ele><time>2026-03-28T13:48:00.448Z</time></trkpt><trkpt lat="39.9573261" lon="9.6544328"><ele>8.0</ele><time>2026-03-28T13:48:01.454Z</time></trkpt><trkpt lat="39.9575387" lon="9.6545786"><ele>8.0</ele><time>2026-03-28T13:48:02.436Z</time></trkpt><trkpt lat="39.9577479" lon="9.6547217"><ele>8.0</ele><time>2026-03-28T13:48:03.435Z</time></trkpt><trkpt lat="39.9579571" lon="9.6548654"><ele>8.0</ele><time>2026-03-28T13:48:04.447Z</time></trkpt><trkpt lat="39.9581664" lon="9.6550094"><ele>8.0</ele><time>2026-03-28T13:48:05.451Z</time></trkpt><trkpt lat="39.9583748" lon="9.6551536"><ele>7.5</ele><time>2026-03-28T13:48:06.442Z</time></trkpt><trkpt lat="39.9585814" lon="9.655295"><ele>7.0</ele><time>2026-03-28T13:48:07.452Z</time></trkpt><trkpt lat="39.9587877" lon="9.6554352"><ele>7.0</ele><time>2026-03-28T13:48:08.466Z</time></trkpt><trkpt lat="39.9589921" lon="9.6555756"><ele>7.0</ele><time>2026-03-28T13:48:09.457Z</time></trkpt><trkpt lat="39.9591958" lon="9.6557137"><ele>8.0</ele><time>2026-03-28T13:48:10.423Z</time></trkpt><trkpt lat="39.9593973" lon="9.6558546"><ele>9.0</ele><time>2026-03-28T13:48:11.451Z</time></trkpt><trkpt lat="39.9595972" lon="9.6559965"><ele>8.5</ele><time>2026-03-28T13:48:12.452Z</time></trkpt><trkpt lat="39.9597978" lon="9.6561395"><ele>8.0</ele><time>2026-03-28T13:48:13.453Z</time></trkpt><trkpt lat="39.9599985" lon="9.6562818"><ele>8.5</ele><time>2026-03-28T13:48:14.446Z</time></trkpt><trkpt lat="39.960201" lon="9.6564232"><ele>9.0</ele><time>2026-03-28T13:48:15.436Z</time></trkpt><trkpt lat="39.9604017" lon="9.6565686"><ele>9.0</ele><time>2026-03-28T13:48:16.429Z</time></trkpt><trkpt lat="39.9606052" lon="9.6567124"><ele>9.0</ele><time>2026-03-28T13:48:17.452Z</time></trkpt><trkpt lat="39.9608086" lon="9.6568542"><ele>8.5</ele><time>2026-03-28T13:48:18.432Z</time></trkpt><trkpt lat="39.9610124" lon="9.6569899"><ele>8.0</ele><time>2026-03-28T13:48:19.442Z</time></trkpt><trkpt lat="39.9612171" lon="9.6571128"><ele>8.0</ele><time>2026-03-28T13:48:20.429Z</time></trkpt><trkpt lat="39.9614234" lon="9.657221"><ele>8.0</ele><time>2026-03-28T13:48:21.453Z</time></trkpt><trkpt lat="39.9616301" lon="9.6573116"><ele>8.0</ele><time>2026-03-28T13:48:22.445Z</time></trkpt><trkpt lat="39.9618354" lon="9.6573858"><ele>8.666666666666666</ele><time>2026-03-28T13:48:23.439Z</time></trkpt><trkpt lat="39.9620392" lon="9.6574423"><ele>9.333333333333334</ele><time>2026-03-28T13:48:24.445Z</time></trkpt><trkpt lat="39.9622406" lon="9.6574808"><ele>10.0</ele><time>2026-03-28T13:48:25.437Z</time></trkpt><trkpt lat="39.9624406" lon="9.6575025"><ele>9.666666666666668</ele><time>2026-03-28T13:48:26.448Z</time></trkpt><trkpt lat="39.9626412" lon="9.6575093"><ele>9.333333333333334</ele><time>2026-03-28T13:48:27.465Z</time></trkpt><trkpt lat="39.9628402" lon="9.6575067"><ele>9.0</ele><time>2026-03-28T13:48:28.434Z</time></trkpt><trkpt lat="39.9630353" lon="9.6574988"><ele>9.0</ele><time>2026-03-28T13:48:29.463Z</time></trkpt><trkpt lat="39.963227" lon="9.6574884"><ele>9.0</ele><time>2026-03-28T13:48:30.44Z</time></trkpt><trkpt lat="39.9634141" lon="9.6574766"><ele>9.0</ele><time>2026-03-28T13:48:31.454Z</time></trkpt><trkpt lat="39.9635928" lon="9.6574658"><ele>11.0</ele><time>2026-03-28T13:48:32.453Z</time></trkpt><trkpt lat="39.9637634" lon="9.6574562"><ele>13.0</ele><time>2026-03-28T13:48:33.452Z</time></trkpt><trkpt lat="39.9639228" lon="9.6574578"><ele>15.0</ele><time>2026-03-28T13:48:34.454Z</time></trkpt><trkpt lat="39.9640773" lon="9.6574791"><ele>14.5</ele><time>2026-03-28T13:48:35.434Z</time></trkpt><trkpt lat="39.964224" lon="9.6575226"><ele>14.0</ele><time>2026-03-28T13:48:36.433Z</time></trkpt><trkpt lat="39.9643644" lon="9.6575823"><ele>13.5</ele><time>2026-03-28T13:48:37.425Z</time></trkpt><trkpt lat="39.9644993" lon="9.6576559"><ele>13.0</ele><time>2026-03-28T13:48:38.43Z</time></trkpt><trkpt lat="39.9646274" lon="9.6577358"><ele>12.25</ele><time>2026-03-28T13:48:39.442Z</time></trkpt><trkpt lat="39.9647497" lon="9.6578148"><ele>11.5</ele><time>2026-03-28T13:48:40.439Z</time></trkpt><trkpt lat="39.9648674" lon="9.6578955"><ele>10.75</ele><time>2026-03-28T13:48:41.427Z</time></trkpt><trkpt lat="39.964982" lon="9.6579737"><ele>10.0</ele><time>2026-03-28T13:48:42.435Z</time></trkpt><trkpt lat="39.9650903" lon="9.6580492"><ele>9.0</ele><time>2026-03-28T13:48:43.431Z</time></trkpt><trkpt lat="39.9651972" lon="9.6581247"><ele>8.0</ele><time>2026-03-28T13:48:44.441Z</time></trkpt><trkpt lat="39.9653061" lon="9.658202"><ele>7.0</ele><time>2026-03-28T13:48:45.423Z</time></trkpt><trkpt lat="39.9654173" lon="9.65828"><ele>6.0</ele><time>2026-03-28T13:48:46.452Z</time></trkpt><trkpt lat="39.9655318" lon="9.6583602"><ele>6.0</ele><time>2026-03-28T13:48:47.437Z</time></trkpt><trkpt lat="39.9656492" lon="9.6584423"><ele>6.0</ele><time>2026-03-28T13:48:48.439Z</time></trkpt><trkpt lat="39.9657663" lon="9.6585249"><ele>6.0</ele><time>2026-03-28T13:48:49.437Z</time></trkpt><trkpt lat="39.9658929" lon="9.6586042"><ele>6.0</ele><time>2026-03-28T13:48:50.431Z</time></trkpt><trkpt lat="39.9660048" lon="9.6586913"><ele>5.75</ele><time>2026-03-28T13:48:51.439Z</time></trkpt><trkpt lat="39.9661234" lon="9.6587739"><ele>5.5</ele><time>2026-03-28T13:48:52.438Z</time></trkpt><trkpt lat="39.9662401" lon="9.658855"><ele>5.25</ele><time>2026-03-28T13:48:53.436Z</time></trkpt><trkpt lat="39.9663586" lon="9.6589365"><ele>5.0</ele><time>2026-03-28T13:48:54.437Z</time></trkpt><trkpt lat="39.966473" lon="9.6590132"><ele>5.0</ele><time>2026-03-28T13:48:55.433Z</time></trkpt><trkpt lat="39.9665829" lon="9.6590866"><ele>5.0</ele><time>2026-03-28T13:48:56.443Z</time></trkpt><trkpt lat="39.9666873" lon="9.6591601"><ele>5.0</ele><time>2026-03-28T13:48:57.427Z</time></trkpt><trkpt lat="39.9667919" lon="9.6592356"><ele>5.0</ele><time>2026-03-28T13:48:58.44Z</time></trkpt><trkpt lat="39.9668982" lon="9.659314"><ele>5.5</ele><time>2026-03-28T13:48:59.442Z</time></trkpt><trkpt lat="39.9670032" lon="9.6593891"><ele>6.0</ele><time>2026-03-28T13:49:00.436Z</time></trkpt><trkpt lat="39.9671072" lon="9.6594622"><ele>6.5</ele><time>2026-03-28T13:49:01.41Z</time></trkpt><trkpt lat="39.9672077" lon="9.659532"><ele>7.0</ele><time>2026-03-28T13:49:02.442Z</time></trkpt><trkpt lat="39.9673052" lon="9.6595978"><ele>7.199999999999999</ele><time>2026-03-28T13:49:03.439Z</time></trkpt><trkpt lat="39.9674005" lon="9.6596636"><ele>7.3999999999999995</ele><time>2026-03-28T13:49:04.441Z</time></trkpt><trkpt lat="39.9674954" lon="9.6597309"><ele>7.6000000000000005</ele><time>2026-03-28T13:49:05.437Z</time></trkpt><trkpt lat="39.9675944" lon="9.6598056"><ele>7.800000000000001</ele><time>2026-03-28T13:49:06.449Z</time></trkpt><trkpt lat="39.9676975" lon="9.6598813"><ele>8.0</ele><time>2026-03-28T13:49:07.437Z</time></trkpt><trkpt lat="39.9678038" lon="9.6599574"><ele>8.0</ele><time>2026-03-28T13:49:08.444Z</time></trkpt><trkpt lat="39.9679112" lon="9.6600321"><ele>8.0</ele><time>2026-03-28T13:49:09.43Z</time></trkpt><trkpt lat="39.9680166" lon="9.6601042"><ele>8.0</ele><time>2026-03-28T13:49:10.434Z</time></trkpt><trkpt lat="39.9681191" lon="9.6601743"><ele>8.0</ele><time>2026-03-28T13:49:11.446Z</time></trkpt><trkpt lat="39.9682192" lon="9.660245"><ele>8.0</ele><time>2026-03-28T13:49:12.439Z</time></trkpt><trkpt lat="39.9683198" lon="9.6603162"><ele>8.0</ele><time>2026-03-28T13:49:13.437Z</time></trkpt><trkpt lat="39.9684205" lon="9.6603869"><ele>8.0</ele><time>2026-03-28T13:49:14.445Z</time></trkpt><trkpt lat="39.9685216" lon="9.6604554"><ele>8.0</ele><time>2026-03-28T13:49:15.434Z</time></trkpt><trkpt lat="39.9686217" lon="9.6605246"><ele>8.0</ele><time>2026-03-28T13:49:16.445Z</time></trkpt><trkpt lat="39.9687209" lon="9.6605926"><ele>8.0</ele><time>2026-03-28T13:49:17.439Z</time></trkpt><trkpt lat="39.9688193" lon="9.6606605"><ele>8.0</ele><time>2026-03-28T13:49:18.432Z</time></trkpt><trkpt lat="39.9689169" lon="9.6607283"><ele>8.0</ele><time>2026-03-28T13:49:19.434Z</time></trkpt><trkpt lat="39.9690133" lon="9.6607955"><ele>8.0</ele><time>2026-03-28T13:49:20.432Z</time></trkpt><trkpt lat="39.9691078" lon="9.6608608"><ele>8.8</ele><time>2026-03-28T13:49:21.437Z</time></trkpt><trkpt lat="39.9692027" lon="9.6609274"><ele>9.600000000000001</ele><time>2026-03-28T13:49:22.426Z</time></trkpt><trkpt lat="39.9692975" lon="9.6609954"><ele>10.399999999999999</ele><time>2026-03-28T13:49:23.446Z</time></trkpt><trkpt lat="39.9693897" lon="9.6610627"><ele>11.2</ele><time>2026-03-28T13:49:24.42Z</time></trkpt><trkpt lat="39.969474" lon="9.6611264"><ele>12.0</ele><time>2026-03-28T13:49:25.431Z</time></trkpt><trkpt lat="39.9695511" lon="9.6611862"><ele>12.0</ele><time>2026-03-28T13:49:26.423Z</time></trkpt><trkpt lat="39.9696234" lon="9.6612441"><ele>12.0</ele><time>2026-03-28T13:49:27.436Z</time></trkpt><trkpt lat="39.9696976" lon="9.6612932"><ele>12.0</ele><time>2026-03-28T13:49:28.443Z</time></trkpt><trkpt lat="39.9697658" lon="9.6613449"><ele>12.0</ele><time>2026-03-28T13:49:29.44Z</time></trkpt><trkpt lat="39.9698373" lon="9.6613834"><ele>12.0</ele><time>2026-03-28T13:49:30.448Z</time></trkpt><trkpt lat="39.9699121" lon="9.6614223"><ele>12.0</ele><time>2026-03-28T13:49:31.419Z</time></trkpt><trkpt lat="39.9699782" lon="9.6614687"><ele>12.833333333333334</ele><time>2026-03-28T13:49:32.442Z</time></trkpt><trkpt lat="39.9700287" lon="9.6615213"><ele>13.666666666666668</ele><time>2026-03-28T13:49:33.428Z</time></trkpt><trkpt lat="39.9700872" lon="9.6615789"><ele>14.5</ele><time>2026-03-28T13:49:34.431Z</time></trkpt><trkpt lat="39.9701796" lon="9.6616978"><ele>15.333333333333334</ele><time>2026-03-28T13:49:36.417Z</time></trkpt><trkpt lat="39.970203" lon="9.6617859"><ele>16.166666666666668</ele><time>2026-03-28T13:49:37.423Z</time></trkpt><trkpt lat="39.9702143" lon="9.6618844"><ele>17.0</ele><time>2026-03-28T13:49:38.421Z</time></trkpt><trkpt lat="39.9702251" lon="9.661996"><ele>17.0</ele><time>2026-03-28T13:49:39.437Z</time></trkpt><trkpt lat="39.9702333" lon="9.6621211"><ele>17.0</ele><time>2026-03-28T13:49:40.433Z</time></trkpt><trkpt lat="39.970241" lon="9.6622562"><ele>17.0</ele><time>2026-03-28T13:49:41.427Z</time></trkpt><trkpt lat="39.970255" lon="9.6623973"><ele>17.0</ele><time>2026-03-28T13:49:42.411Z</time></trkpt><trkpt lat="39.9702761" lon="9.6625357"><ele>17.0</ele><time>2026-03-28T13:49:43.43Z</time></trkpt><trkpt lat="39.9703031" lon="9.6626689"><ele>17.0</ele><time>2026-03-28T13:49:44.433Z</time></trkpt><trkpt lat="39.9703484" lon="9.6627951"><ele>17.0</ele><time>2026-03-28T13:49:45.424Z</time></trkpt><trkpt lat="39.970405" lon="9.6629158"><ele>17.0</ele><time>2026-03-28T13:49:46.428Z</time></trkpt><trkpt lat="39.9704731" lon="9.6630227"><ele>17.0</ele><time>2026-03-28T13:49:47.431Z</time></trkpt><trkpt lat="39.9705488" lon="9.6631229"><ele>17.0</ele><time>2026-03-28T13:49:48.427Z</time></trkpt><trkpt lat="39.9706248" lon="9.6632164"><ele>17.0</ele><time>2026-03-28T13:49:49.419Z</time></trkpt><trkpt lat="39.9707049" lon="9.6633136"><ele>17.0</ele><time>2026-03-28T13:49:50.428Z</time></trkpt><trkpt lat="39.97079" lon="9.6634141"><ele>17.0</ele><time>2026-03-28T13:49:51.435Z</time></trkpt><trkpt lat="39.9708746" lon="9.663517"><ele>17.0</ele><time>2026-03-28T13:49:52.425Z</time></trkpt><trkpt lat="39.970961" lon="9.6636155"><ele>16.2</ele><time>2026-03-28T13:49:53.425Z</time></trkpt><trkpt lat="39.9710447" lon="9.6637129"><ele>15.399999999999999</ele><time>2026-03-28T13:49:54.426Z</time></trkpt><trkpt lat="39.9711246" lon="9.6638029"><ele>14.600000000000001</ele><time>2026-03-28T13:49:55.444Z</time></trkpt><trkpt lat="39.9712059" lon="9.6638901"><ele>13.8</ele><time>2026-03-28T13:49:56.416Z</time></trkpt><trkpt lat="39.9712961" lon="9.6639775"><ele>13.0</ele><time>2026-03-28T13:49:57.425Z</time></trkpt><trkpt lat="39.9713987" lon="9.6640432"><ele>13.0</ele><time>2026-03-28T13:49:58.438Z</time></trkpt><trkpt lat="39.9715066" lon="9.6640917"><ele>13.0</ele><time>2026-03-28T13:49:59.431Z</time></trkpt><trkpt lat="39.9716145" lon="9.6641129"><ele>13.0</ele><time>2026-03-28T13:50:00.439Z</time></trkpt><trkpt lat="39.9717305" lon="9.6641026"><ele>13.0</ele><time>2026-03-28T13:50:01.432Z</time></trkpt><trkpt lat="39.97185" lon="9.6640719"><ele>11.25</ele><time>2026-03-28T13:50:02.419Z</time></trkpt><trkpt lat="39.971976" lon="9.6640286"><ele>9.5</ele><time>2026-03-28T13:50:03.421Z</time></trkpt><trkpt lat="39.972105" lon="9.6639833"><ele>7.75</ele><time>2026-03-28T13:50:04.428Z</time></trkpt><trkpt lat="39.972236" lon="9.6639382"><ele>6.0</ele><time>2026-03-28T13:50:05.422Z</time></trkpt><trkpt lat="39.9723696" lon="9.6638813"><ele>6.0</ele><time>2026-03-28T13:50:06.442Z</time></trkpt><trkpt lat="39.9725062" lon="9.6638306"><ele>6.0</ele><time>2026-03-28T13:50:07.442Z</time></trkpt><trkpt lat="39.9726495" lon="9.663776"><ele>6.0</ele><time>2026-03-28T13:50:08.442Z</time></trkpt><trkpt lat="39.972798" lon="9.6637206"><ele>6.0</ele><time>2026-03-28T13:50:09.45Z</time></trkpt><trkpt lat="39.9729412" lon="9.6636615"><ele>6.333333333333334</ele><time>2026-03-28T13:50:10.438Z</time></trkpt><trkpt lat="39.9730768" lon="9.6635963"><ele>6.666666666666667</ele><time>2026-03-28T13:50:11.421Z</time></trkpt><trkpt lat="39.9732316" lon="9.6635505"><ele>7.0</ele><time>2026-03-28T13:50:12.44Z</time></trkpt><trkpt lat="39.9733874" lon="9.6635131"><ele>7.333333333333334</ele><time>2026-03-28T13:50:13.438Z</time></trkpt><trkpt lat="39.9735411" lon="9.6634948"><ele>7.666666666666666</ele><time>2026-03-28T13:50:14.437Z</time></trkpt><trkpt lat="39.9736904" lon="9.6634907"><ele>8.0</ele><time>2026-03-28T13:50:15.43Z</time></trkpt><trkpt lat="39.9738372" lon="9.6635026"><ele>8.0</ele><time>2026-03-28T13:50:16.439Z</time></trkpt><trkpt lat="39.9739841" lon="9.6635255"><ele>8.0</ele><time>2026-03-28T13:50:17.439Z</time></trkpt><trkpt lat="39.9741328" lon="9.6635603"><ele>8.0</ele><time>2026-03-28T13:50:18.44Z</time></trkpt><trkpt lat="39.9742833" lon="9.6635905"><ele>7.666666666666666</ele><time>2026-03-28T13:50:19.44Z</time></trkpt><trkpt lat="39.9744254" lon="9.6636459"><ele>7.333333333333334</ele><time>2026-03-28T13:50:20.44Z</time></trkpt><trkpt lat="39.9745616" lon="9.6637222"><ele>7.0</ele><time>2026-03-28T13:50:21.44Z</time></trkpt><trkpt lat="39.9747034" lon="9.6638133"><ele>7.0</ele><time>2026-03-28T13:50:22.44Z</time></trkpt><trkpt lat="39.9748404" lon="9.6639154"><ele>7.0</ele><time>2026-03-28T13:50:23.441Z</time></trkpt><trkpt lat="39.9749732" lon="9.6640272"><ele>7.0</ele><time>2026-03-28T13:50:24.436Z</time></trkpt><trkpt lat="39.9751026" lon="9.6641427"><ele>7.25</ele><time>2026-03-28T13:50:25.445Z</time></trkpt><trkpt lat="39.9752298" lon="9.6642557"><ele>7.5</ele><time>2026-03-28T13:50:26.443Z</time></trkpt><trkpt lat="39.9753505" lon="9.6643611"><ele>7.75</ele><time>2026-03-28T13:50:27.432Z</time></trkpt><trkpt lat="39.9754639" lon="9.6644615"><ele>8.0</ele><time>2026-03-28T13:50:28.438Z</time></trkpt><trkpt lat="39.9755714" lon="9.6645566"><ele>8.200000000000001</ele><time>2026-03-28T13:50:29.45Z</time></trkpt><trkpt lat="39.9756742" lon="9.6646499"><ele>8.4</ele><time>2026-03-28T13:50:30.438Z</time></trkpt><trkpt lat="39.9757717" lon="9.6647357"><ele>8.600000000000001</ele><time>2026-03-28T13:50:31.444Z</time></trkpt><trkpt lat="39.9758539" lon="9.6648091"><ele>8.8</ele><time>2026-03-28T13:50:32.434Z</time></trkpt><trkpt lat="39.9759186" lon="9.6648739"><ele>9.0</ele><time>2026-03-28T13:50:33.443Z</time></trkpt><trkpt lat="39.9759638" lon="9.6649377"><ele>9.4</ele><time>2026-03-28T13:50:34.435Z</time></trkpt><trkpt lat="39.9760051" lon="9.6650933"><ele>9.8</ele><time>2026-03-28T13:50:36.43Z</time></trkpt><trkpt lat="39.975996" lon="9.6652067"><ele>10.200000000000001</ele><time>2026-03-28T13:50:37.424Z</time></trkpt><trkpt lat="39.9759912" lon="9.6653282"><ele>10.600000000000001</ele><time>2026-03-28T13:50:38.435Z</time></trkpt><trkpt lat="39.9760026" lon="9.6654564"><ele>11.0</ele><time>2026-03-28T13:50:39.439Z</time></trkpt><trkpt lat="39.9760254" lon="9.6655797"><ele>11.0</ele><time>2026-03-28T13:50:40.426Z</time></trkpt><trkpt lat="39.9760646" lon="9.6656961"><ele>11.0</ele><time>2026-03-28T13:50:41.423Z</time></trkpt><trkpt lat="39.9761102" lon="9.6658037"><ele>11.0</ele><time>2026-03-28T13:50:42.44Z</time></trkpt><trkpt lat="39.9761942" lon="9.6658758"><ele>11.0</ele><time>2026-03-28T13:50:43.432Z</time></trkpt><trkpt lat="39.9762859" lon="9.6659365"><ele>11.0</ele><time>2026-03-28T13:50:44.433Z</time></trkpt><trkpt lat="39.976393" lon="9.6659672"><ele>11.0</ele><time>2026-03-28T13:50:45.431Z</time></trkpt><trkpt lat="39.9765038" lon="9.6659905"><ele>11.0</ele><time>2026-03-28T13:50:46.426Z</time></trkpt><trkpt lat="39.9766251" lon="9.6659946"><ele>11.0</ele><time>2026-03-28T13:50:47.434Z</time></trkpt><trkpt lat="39.9767638" lon="9.6659995"><ele>11.0</ele><time>2026-03-28T13:50:48.432Z</time></trkpt><trkpt lat="39.9769079" lon="9.6660097"><ele>11.25</ele><time>2026-03-28T13:50:49.428Z</time></trkpt><trkpt lat="39.9770547" lon="9.6660193"><ele>11.5</ele><time>2026-03-28T13:50:50.42Z</time></trkpt><trkpt lat="39.9771964" lon="9.6660251"><ele>11.75</ele><time>2026-03-28T13:50:51.428Z</time></trkpt><trkpt lat="39.9773341" lon="9.6660315"><ele>12.0</ele><time>2026-03-28T13:50:52.428Z</time></trkpt><trkpt lat="39.9774618" lon="9.6660403"><ele>12.0</ele><time>2026-03-28T13:50:53.429Z</time></trkpt><trkpt lat="39.9775796" lon="9.6660553"><ele>12.0</ele><time>2026-03-28T13:50:54.43Z</time></trkpt><trkpt lat="39.9776897" lon="9.666082"><ele>12.0</ele><time>2026-03-28T13:50:55.426Z</time></trkpt><trkpt lat="39.9777989" lon="9.6661164"><ele>12.0</ele><time>2026-03-28T13:50:56.421Z</time></trkpt><trkpt lat="39.9778988" lon="9.6661982"><ele>12.25</ele><time>2026-03-28T13:50:57.421Z</time></trkpt><trkpt lat="39.9779888" lon="9.6662935"><ele>12.5</ele><time>2026-03-28T13:50:58.418Z</time></trkpt><trkpt lat="39.9780761" lon="9.6664031"><ele>12.75</ele><time>2026-03-28T13:50:59.428Z</time></trkpt><trkpt lat="39.9781556" lon="9.666516"><ele>13.0</ele><time>2026-03-28T13:51:00.443Z</time></trkpt><trkpt lat="39.9782346" lon="9.6666702"><ele>13.0</ele><time>2026-03-28T13:51:01.436Z</time></trkpt><trkpt lat="39.9783135" lon="9.6668204"><ele>13.0</ele><time>2026-03-28T13:51:02.445Z</time></trkpt><trkpt lat="39.9783902" lon="9.6669689"><ele>13.0</ele><time>2026-03-28T13:51:03.446Z</time></trkpt><trkpt lat="39.9784662" lon="9.6671149"><ele>13.0</ele><time>2026-03-28T13:51:04.442Z</time></trkpt><trkpt lat="39.9785411" lon="9.6672596"><ele>12.75</ele><time>2026-03-28T13:51:05.441Z</time></trkpt><trkpt lat="39.9786165" lon="9.6674049"><ele>12.5</ele><time>2026-03-28T13:51:06.431Z</time></trkpt><trkpt lat="39.9786915" lon="9.6675512"><ele>12.25</ele><time>2026-03-28T13:51:07.442Z</time></trkpt><trkpt lat="39.9787685" lon="9.6676947"><ele>12.0</ele><time>2026-03-28T13:51:08.431Z</time></trkpt><trkpt lat="39.9788473" lon="9.6678424"><ele>12.5</ele><time>2026-03-28T13:51:09.45Z</time></trkpt><trkpt lat="39.9789273" lon="9.6679912"><ele>13.0</ele><time>2026-03-28T13:51:10.439Z</time></trkpt><trkpt lat="39.9789997" lon="9.6681394"><ele>13.5</ele><time>2026-03-28T13:51:11.431Z</time></trkpt><trkpt lat="39.9790625" lon="9.6682916"><ele>14.0</ele><time>2026-03-28T13:51:12.442Z</time></trkpt><trkpt lat="39.979114" lon="9.668445"><ele>14.0</ele><time>2026-03-28T13:51:13.443Z</time></trkpt><trkpt lat="39.9791503" lon="9.668606"><ele>14.0</ele><time>2026-03-28T13:51:14.422Z</time></trkpt><trkpt lat="39.9791651" lon="9.6687752"><ele>14.0</ele><time>2026-03-28T13:51:15.436Z</time></trkpt><trkpt lat="39.9791552" lon="9.6689468"><ele>14.0</ele><time>2026-03-28T13:51:16.431Z</time></trkpt><trkpt lat="39.9791244" lon="9.6691189"><ele>13.666666666666668</ele><time>2026-03-28T13:51:17.408Z</time></trkpt><trkpt lat="39.979079" lon="9.6692895"><ele>13.333333333333332</ele><time>2026-03-28T13:51:18.44Z</time></trkpt><trkpt lat="39.9790233" lon="9.6694695"><ele>13.0</ele><time>2026-03-28T13:51:19.442Z</time></trkpt><trkpt lat="39.9789564" lon="9.6696674"><ele>12.333333333333332</ele><time>2026-03-28T13:51:20.443Z</time></trkpt><trkpt lat="39.9788772" lon="9.66987"><ele>11.666666666666666</ele><time>2026-03-28T13:51:21.437Z</time></trkpt><trkpt lat="39.9788006" lon="9.6700823"><ele>11.0</ele><time>2026-03-28T13:51:22.426Z</time></trkpt><trkpt lat="39.9787266" lon="9.6702714"><ele>9.666666666666666</ele><time>2026-03-28T13:51:23.447Z</time></trkpt><trkpt lat="39.9786593" lon="9.6704564"><ele>8.333333333333334</ele><time>2026-03-28T13:51:24.437Z</time></trkpt><trkpt lat="39.978592" lon="9.670639"><ele>7.0</ele><time>2026-03-28T13:51:25.44Z</time></trkpt><trkpt lat="39.9785157" lon="9.6708223"><ele>7.0</ele><time>2026-03-28T13:51:26.426Z</time></trkpt><trkpt lat="39.9784425" lon="9.6710132"><ele>7.0</ele><time>2026-03-28T13:51:27.437Z</time></trkpt><trkpt lat="39.9783721" lon="9.6712055"><ele>7.0</ele><time>2026-03-28T13:51:28.428Z</time></trkpt><trkpt lat="39.9783019" lon="9.6713949"><ele>7.333333333333334</ele><time>2026-03-28T13:51:29.43Z</time></trkpt><trkpt lat="39.9782322" lon="9.6715887"><ele>7.666666666666666</ele><time>2026-03-28T13:51:30.426Z</time></trkpt><trkpt lat="39.9781616" lon="9.6717839"><ele>8.0</ele><time>2026-03-28T13:51:31.423Z</time></trkpt><trkpt lat="39.9780957" lon="9.6719799"><ele>7.333333333333333</ele><time>2026-03-28T13:51:32.427Z</time></trkpt><trkpt lat="39.9780405" lon="9.6721749"><ele>6.666666666666666</ele><time>2026-03-28T13:51:33.424Z</time></trkpt><trkpt lat="39.9779984" lon="9.6723763"><ele>6.0</ele><time>2026-03-28T13:51:34.415Z</time></trkpt><trkpt lat="39.9779707" lon="9.67258"><ele>5.75</ele><time>2026-03-28T13:51:35.434Z</time></trkpt><trkpt lat="39.9779601" lon="9.6727769"><ele>5.5</ele><time>2026-03-28T13:51:36.433Z</time></trkpt><trkpt lat="39.9779606" lon="9.6729616"><ele>5.25</ele><time>2026-03-28T13:51:37.447Z</time></trkpt><trkpt lat="39.9779946" lon="9.6731321"><ele>5.0</ele><time>2026-03-28T13:51:38.433Z</time></trkpt><trkpt lat="39.9780461" lon="9.6732933"><ele>5.0</ele><time>2026-03-28T13:51:39.417Z</time></trkpt><trkpt lat="39.9781173" lon="9.6734376"><ele>5.0</ele><time>2026-03-28T13:51:40.431Z</time></trkpt><trkpt lat="39.9782117" lon="9.6735591"><ele>5.0</ele><time>2026-03-28T13:51:41.426Z</time></trkpt><trkpt lat="39.9783291" lon="9.6736659"><ele>5.0</ele><time>2026-03-28T13:51:42.43Z</time></trkpt><trkpt lat="39.9784641" lon="9.6737569"><ele>4.0</ele><time>2026-03-28T13:51:43.443Z</time></trkpt><trkpt lat="39.9786132" lon="9.673838"><ele>3.0</ele><time>2026-03-28T13:51:44.447Z</time></trkpt><trkpt lat="39.9787619" lon="9.6739153"><ele>2.0</ele><time>2026-03-28T13:51:45.447Z</time></trkpt><trkpt lat="39.9789014" lon="9.6740005"><ele>2.0</ele><time>2026-03-28T13:51:46.44Z</time></trkpt><trkpt lat="39.9790288" lon="9.6740954"><ele>2.0</ele><time>2026-03-28T13:51:47.44Z</time></trkpt><trkpt lat="39.9791594" lon="9.6742128"><ele>2.0</ele><time>2026-03-28T13:51:48.458Z</time></trkpt><trkpt lat="39.9792851" lon="9.6743444"><ele>2.6666666666666665</ele><time>2026-03-28T13:51:49.443Z</time></trkpt><trkpt lat="39.9794106" lon="9.6744818"><ele>3.333333333333333</ele><time>2026-03-28T13:51:50.418Z</time></trkpt><trkpt lat="39.9795391" lon="9.6746306"><ele>4.0</ele><time>2026-03-28T13:51:51.438Z</time></trkpt><trkpt lat="39.9796725" lon="9.6747886"><ele>4.0</ele><time>2026-03-28T13:51:52.439Z</time></trkpt><trkpt lat="39.9798035" lon="9.6749407"><ele>4.0</ele><time>2026-03-28T13:51:53.42Z</time></trkpt><trkpt lat="39.9799301" lon="9.6750912"><ele>4.0</ele><time>2026-03-28T13:51:54.428Z</time></trkpt><trkpt lat="39.9800558" lon="9.6752353"><ele>4.666666666666666</ele><time>2026-03-28T13:51:55.426Z</time></trkpt><trkpt lat="39.9801805" lon="9.6753782"><ele>5.333333333333333</ele><time>2026-03-28T13:51:56.424Z</time></trkpt><trkpt lat="39.9803019" lon="9.6755157"><ele>6.0</ele><time>2026-03-28T13:51:57.426Z</time></trkpt><trkpt lat="39.9804194" lon="9.67565"><ele>6.0</ele><time>2026-03-28T13:51:58.426Z</time></trkpt><trkpt lat="39.9805364" lon="9.6757839"><ele>6.0</ele><time>2026-03-28T13:51:59.431Z</time></trkpt><trkpt lat="39.9806528" lon="9.6759162"><ele>6.0</ele><time>2026-03-28T13:52:00.427Z</time></trkpt><trkpt lat="39.9807637" lon="9.676052"><ele>6.5</ele><time>2026-03-28T13:52:01.429Z</time></trkpt><trkpt lat="39.9808653" lon="9.6761989"><ele>7.0</ele><time>2026-03-28T13:52:02.426Z</time></trkpt><trkpt lat="39.9809539" lon="9.6763495"><ele>7.5</ele><time>2026-03-28T13:52:03.425Z</time></trkpt><trkpt lat="39.9810334" lon="9.676505"><ele>8.0</ele><time>2026-03-28T13:52:04.429Z</time></trkpt><trkpt lat="39.9811006" lon="9.6766667"><ele>8.0</ele><time>2026-03-28T13:52:05.435Z</time></trkpt><trkpt lat="39.9811563" lon="9.6768376"><ele>8.0</ele><time>2026-03-28T13:52:06.43Z</time></trkpt><trkpt lat="39.9812038" lon="9.6770149"><ele>8.0</ele><time>2026-03-28T13:52:07.44Z</time></trkpt><trkpt lat="39.9812487" lon="9.6771965"><ele>8.0</ele><time>2026-03-28T13:52:08.433Z</time></trkpt><trkpt lat="39.981293" lon="9.6773829"><ele>8.0</ele><time>2026-03-28T13:52:09.437Z</time></trkpt><trkpt lat="39.9813382" lon="9.6775711"><ele>8.0</ele><time>2026-03-28T13:52:10.443Z</time></trkpt><trkpt lat="39.9813848" lon="9.6777608"><ele>8.0</ele><time>2026-03-28T13:52:11.437Z</time></trkpt><trkpt lat="39.9814314" lon="9.6779514"><ele>8.0</ele><time>2026-03-28T13:52:12.434Z</time></trkpt><trkpt lat="39.9814748" lon="9.678141"><ele>8.0</ele><time>2026-03-28T13:52:13.439Z</time></trkpt><trkpt lat="39.9815091" lon="9.6783227"><ele>8.0</ele><time>2026-03-28T13:52:14.44Z</time></trkpt><trkpt lat="39.9815283" lon="9.6785016"><ele>8.0</ele><time>2026-03-28T13:52:15.426Z</time></trkpt><trkpt lat="39.9815243" lon="9.678679"><ele>8.5</ele><time>2026-03-28T13:52:16.408Z</time></trkpt><trkpt lat="39.9815007" lon="9.678853"><ele>9.0</ele><time>2026-03-28T13:52:17.449Z</time></trkpt><trkpt lat="39.9814731" lon="9.6790249"><ele>9.5</ele><time>2026-03-28T13:52:18.422Z</time></trkpt><trkpt lat="39.9814161" lon="9.6791863"><ele>10.0</ele><time>2026-03-28T13:52:19.426Z</time></trkpt><trkpt lat="39.9813626" lon="9.6793562"><ele>10.25</ele><time>2026-03-28T13:52:20.437Z</time></trkpt><trkpt lat="39.9813122" lon="9.6795344"><ele>10.5</ele><time>2026-03-28T13:52:21.434Z</time></trkpt><trkpt lat="39.9812723" lon="9.6797202"><ele>10.75</ele><time>2026-03-28T13:52:22.437Z</time></trkpt><trkpt lat="39.9812463" lon="9.6799035"><ele>11.0</ele><time>2026-03-28T13:52:23.439Z</time></trkpt><trkpt lat="39.9812392" lon="9.6800844"><ele>11.0</ele><time>2026-03-28T13:52:24.44Z</time></trkpt><trkpt lat="39.9812477" lon="9.6802618"><ele>11.0</ele><time>2026-03-28T13:52:25.434Z</time></trkpt><trkpt lat="39.9812731" lon="9.6804391"><ele>11.0</ele><time>2026-03-28T13:52:26.45Z</time></trkpt><trkpt lat="39.9813127" lon="9.6806141"><ele>11.0</ele><time>2026-03-28T13:52:27.43Z</time></trkpt><trkpt lat="39.9813656" lon="9.6807821"><ele>9.75</ele><time>2026-03-28T13:52:28.436Z</time></trkpt><trkpt lat="39.9814272" lon="9.6809442"><ele>8.5</ele><time>2026-03-28T13:52:29.424Z</time></trkpt><trkpt lat="39.9814946" lon="9.6811012"><ele>7.25</ele><time>2026-03-28T13:52:30.426Z</time></trkpt><trkpt lat="39.981564" lon="9.6812542"><ele>6.0</ele><time>2026-03-28T13:52:31.446Z</time></trkpt><trkpt lat="39.9816345" lon="9.6814148"><ele>6.25</ele><time>2026-03-28T13:52:32.438Z</time></trkpt><trkpt lat="39.9817065" lon="9.6815794"><ele>6.5</ele><time>2026-03-28T13:52:33.431Z</time></trkpt><trkpt lat="39.9817806" lon="9.6817478"><ele>6.75</ele><time>2026-03-28T13:52:34.425Z</time></trkpt><trkpt lat="39.9818605" lon="9.6819102"><ele>7.0</ele><time>2026-03-28T13:52:35.427Z</time></trkpt><trkpt lat="39.9819498" lon="9.6820655"><ele>7.333333333333334</ele><time>2026-03-28T13:52:36.446Z</time></trkpt><trkpt lat="39.9820463" lon="9.6822139"><ele>7.666666666666666</ele><time>2026-03-28T13:52:37.435Z</time></trkpt><trkpt lat="39.9821491" lon="9.6823561"><ele>8.0</ele><time>2026-03-28T13:52:38.44Z</time></trkpt><trkpt lat="39.9822556" lon="9.6824952"><ele>8.0</ele><time>2026-03-28T13:52:39.426Z</time></trkpt><trkpt lat="39.9823635" lon="9.6826329"><ele>8.0</ele><time>2026-03-28T13:52:40.431Z</time></trkpt><trkpt lat="39.9824697" lon="9.6827613"><ele>8.0</ele><time>2026-03-28T13:52:41.449Z</time></trkpt><trkpt lat="39.9825786" lon="9.6828753"><ele>8.0</ele><time>2026-03-28T13:52:42.434Z</time></trkpt><trkpt lat="39.9826811" lon="9.6829671"><ele>7.6000000000000005</ele><time>2026-03-28T13:52:43.444Z</time></trkpt><trkpt lat="39.9827811" lon="9.6830448"><ele>7.200000000000001</ele><time>2026-03-28T13:52:44.437Z</time></trkpt><trkpt lat="39.9828588" lon="9.6831018"><ele>6.8</ele><time>2026-03-28T13:52:45.44Z</time></trkpt><trkpt lat="39.9829445" lon="9.6831587"><ele>6.4</ele><time>2026-03-28T13:52:46.436Z</time></trkpt><trkpt lat="39.9830336" lon="9.6832261"><ele>6.0</ele><time>2026-03-28T13:52:47.446Z</time></trkpt><trkpt lat="39.9831334" lon="9.6833019"><ele>6.0</ele><time>2026-03-28T13:52:48.442Z</time></trkpt><trkpt lat="39.9832407" lon="9.6833853"><ele>6.0</ele><time>2026-03-28T13:52:49.435Z</time></trkpt><trkpt lat="39.9833507" lon="9.6834729"><ele>6.0</ele><time>2026-03-28T13:52:50.439Z</time></trkpt><trkpt lat="39.9834657" lon="9.6835653"><ele>6.0</ele><time>2026-03-28T13:52:51.444Z</time></trkpt><trkpt lat="39.9835816" lon="9.6836563"><ele>7.0</ele><time>2026-03-28T13:52:52.442Z</time></trkpt><trkpt lat="39.9836986" lon="9.6837451"><ele>8.0</ele><time>2026-03-28T13:52:53.439Z</time></trkpt><trkpt lat="39.9838118" lon="9.6838296"><ele>9.0</ele><time>2026-03-28T13:52:54.436Z</time></trkpt><trkpt lat="39.9839264" lon="9.6839315"><ele>10.0</ele><time>2026-03-28T13:52:55.427Z</time></trkpt><trkpt lat="39.9840228" lon="9.6840129"><ele>10.0</ele><time>2026-03-28T13:52:56.423Z</time></trkpt><trkpt lat="39.9841098" lon="9.6840897"><ele>10.0</ele><time>2026-03-28T13:52:57.44Z</time></trkpt><trkpt lat="39.9841847" lon="9.6841672"><ele>10.0</ele><time>2026-03-28T13:52:58.441Z</time></trkpt><trkpt lat="39.984253" lon="9.6842505"><ele>10.0</ele><time>2026-03-28T13:52:59.437Z</time></trkpt><trkpt lat="39.9843154" lon="9.6843515"><ele>10.0</ele><time>2026-03-28T13:53:00.444Z</time></trkpt><trkpt lat="39.984377" lon="9.6844606"><ele>10.6</ele><time>2026-03-28T13:53:01.441Z</time></trkpt><trkpt lat="39.9844471" lon="9.6845744"><ele>11.2</ele><time>2026-03-28T13:53:02.439Z</time></trkpt><trkpt lat="39.9845143" lon="9.6846883"><ele>11.8</ele><time>2026-03-28T13:53:03.428Z</time></trkpt><trkpt lat="39.9845803" lon="9.6848016"><ele>12.4</ele><time>2026-03-28T13:53:04.428Z</time></trkpt><trkpt lat="39.9846485" lon="9.6849216"><ele>13.0</ele><time>2026-03-28T13:53:05.431Z</time></trkpt><trkpt lat="39.9847171" lon="9.6850403"><ele>13.0</ele><time>2026-03-28T13:53:06.451Z</time></trkpt><trkpt lat="39.9847857" lon="9.6851631"><ele>13.0</ele><time>2026-03-28T13:53:07.424Z</time></trkpt><trkpt lat="39.9848566" lon="9.6852885"><ele>13.0</ele><time>2026-03-28T13:53:08.431Z</time></trkpt><trkpt lat="39.9849246" lon="9.6854064"><ele>13.0</ele><time>2026-03-28T13:53:09.432Z</time></trkpt><trkpt lat="39.9849869" lon="9.6855201"><ele>12.600000000000001</ele><time>2026-03-28T13:53:10.43Z</time></trkpt><trkpt lat="39.9850444" lon="9.6856226"><ele>12.200000000000001</ele><time>2026-03-28T13:53:11.433Z</time></trkpt><trkpt lat="39.9850966" lon="9.6857341"><ele>11.8</ele><time>2026-03-28T13:53:12.429Z</time></trkpt><trkpt lat="39.9851326" lon="9.6858361"><ele>11.4</ele><time>2026-03-28T13:53:13.428Z</time></trkpt><trkpt lat="39.9851722" lon="9.6859631"><ele>11.0</ele><time>2026-03-28T13:53:14.432Z</time></trkpt><trkpt lat="39.9852167" lon="9.6860933"><ele>11.0</ele><time>2026-03-28T13:53:15.442Z</time></trkpt><trkpt lat="39.9852739" lon="9.6862176"><ele>11.0</ele><time>2026-03-28T13:53:16.438Z</time></trkpt><trkpt lat="39.9853383" lon="9.6863321"><ele>11.0</ele><time>2026-03-28T13:53:17.437Z</time></trkpt><trkpt lat="39.9854089" lon="9.6864488"><ele>11.0</ele><time>2026-03-28T13:53:18.414Z</time></trkpt><trkpt lat="39.985495" lon="9.6865356"><ele>11.0</ele><time>2026-03-28T13:53:19.437Z</time></trkpt><trkpt lat="39.9855824" lon="9.6866263"><ele>11.0</ele><time>2026-03-28T13:53:20.406Z</time></trkpt><trkpt lat="39.9856677" lon="9.6867239"><ele>11.0</ele><time>2026-03-28T13:53:21.424Z</time></trkpt><trkpt lat="39.9857486" lon="9.6868273"><ele>11.0</ele><time>2026-03-28T13:53:22.423Z</time></trkpt><trkpt lat="39.9858306" lon="9.6869175"><ele>11.0</ele><time>2026-03-28T13:53:23.43Z</time></trkpt><trkpt lat="39.9859105" lon="9.6870009"><ele>11.0</ele><time>2026-03-28T13:53:24.424Z</time></trkpt><trkpt lat="39.9859865" lon="9.6870805"><ele>11.166666666666666</ele><time>2026-03-28T13:53:25.431Z</time></trkpt><trkpt lat="39.9860575" lon="9.6871569"><ele>11.333333333333332</ele><time>2026-03-28T13:53:26.442Z</time></trkpt><trkpt lat="39.9861222" lon="9.6872298"><ele>11.5</ele><time>2026-03-28T13:53:27.432Z</time></trkpt><trkpt lat="39.9861838" lon="9.6872952"><ele>11.666666666666666</ele><time>2026-03-28T13:53:28.427Z</time></trkpt><trkpt lat="39.9862431" lon="9.6873536"><ele>11.833333333333334</ele><time>2026-03-28T13:53:29.439Z</time></trkpt><trkpt lat="39.986302" lon="9.6874129"><ele>12.0</ele><time>2026-03-28T13:53:30.451Z</time></trkpt><trkpt lat="39.9863631" lon="9.6874791"><ele>12.0</ele><time>2026-03-28T13:53:31.426Z</time></trkpt><trkpt lat="39.9864238" lon="9.6875451"><ele>12.0</ele><time>2026-03-28T13:53:32.439Z</time></trkpt><trkpt lat="39.9864843" lon="9.6876065"><ele>12.0</ele><time>2026-03-28T13:53:33.435Z</time></trkpt><trkpt lat="39.9865379" lon="9.6876633"><ele>12.0</ele><time>2026-03-28T13:53:34.433Z</time></trkpt><trkpt lat="39.9866226" lon="9.6877523"><ele>12.0</ele><time>2026-03-28T13:53:36.452Z</time></trkpt><trkpt lat="39.9866778" lon="9.6878136"><ele>12.0</ele><time>2026-03-28T13:53:38.431Z</time></trkpt><trkpt lat="39.9867582" lon="9.6878917"><ele>11.428571428571427</ele><time>2026-03-28T13:53:40.437Z</time></trkpt><trkpt lat="39.9868117" lon="9.687946"><ele>10.857142857142858</ele><time>2026-03-28T13:53:41.429Z</time></trkpt><trkpt lat="39.9868697" lon="9.6880039"><ele>10.285714285714285</ele><time>2026-03-28T13:53:42.427Z</time></trkpt><trkpt lat="39.9869295" lon="9.6880653"><ele>9.714285714285714</ele><time>2026-03-28T13:53:43.439Z</time></trkpt><trkpt lat="39.9869892" lon="9.6881258"><ele>9.142857142857142</ele><time>2026-03-28T13:53:44.437Z</time></trkpt><trkpt lat="39.9870462" lon="9.6881853"><ele>8.571428571428571</ele><time>2026-03-28T13:53:45.439Z</time></trkpt><trkpt lat="39.9871032" lon="9.688244"><ele>8.0</ele><time>2026-03-28T13:53:46.426Z</time></trkpt><trkpt lat="39.9871544" lon="9.6883228"><ele>8.0</ele><time>2026-03-28T13:53:47.437Z</time></trkpt><trkpt lat="39.9872056" lon="9.6883807"><ele>8.0</ele><time>2026-03-28T13:53:48.444Z</time></trkpt><trkpt lat="39.9872632" lon="9.6884298"><ele>8.0</ele><time>2026-03-28T13:53:49.442Z</time></trkpt><trkpt lat="39.9873635" lon="9.6885219"><ele>8.0</ele><time>2026-03-28T13:53:51.448Z</time></trkpt><trkpt lat="39.9874495" lon="9.688614"><ele>8.0</ele><time>2026-03-28T13:53:53.435Z</time></trkpt><trkpt lat="39.9875252" lon="9.6887035"><ele>13.0</ele><time>2026-03-28T13:53:55.415Z</time></trkpt><trkpt lat="39.9875836" lon="9.6887701"><ele>13.0</ele><time>2026-03-28T13:53:57.436Z</time></trkpt></trkseg><trkseg><trkpt lat="39.981054" lon="9.6621719"><ele>49.0</ele><time>2026-03-28T14:15:50.002Z</time></trkpt><trkpt lat="39.9808062" lon="9.6622072"><ele>47.0</ele><time>2026-03-28T14:15:52.018Z</time></trkpt><trkpt lat="39.9806987" lon="9.66232"><ele>45.0</ele><time>2026-03-28T14:15:53.026Z</time></trkpt><trkpt lat="39.9805769" lon="9.6624561"><ele>45.0</ele><time>2026-03-28T14:15:54.04Z</time></trkpt><trkpt lat="39.9804153" lon="9.6626527"><ele>45.0</ele><time>2026-03-28T14:15:55.017Z</time></trkpt><trkpt lat="39.9803533" lon="9.6628373"><ele>45.0</ele><time>2026-03-28T14:15:56.019Z</time></trkpt><trkpt lat="39.9801743" lon="9.6629886"><ele>40.333333333333336</ele><time>2026-03-28T14:15:57.27Z</time></trkpt><trkpt lat="39.9800077" lon="9.6630982"><ele>35.66666666666667</ele><time>2026-03-28T14:15:58.284Z</time></trkpt><trkpt lat="39.9798415" lon="9.6632034"><ele>31.0</ele><time>2026-03-28T14:15:59.287Z</time></trkpt><trkpt lat="39.9796727" lon="9.6632997"><ele>31.0</ele><time>2026-03-28T14:16:00.301Z</time></trkpt><trkpt lat="39.9795078" lon="9.6633797"><ele>31.0</ele><time>2026-03-28T14:16:01.297Z</time></trkpt><trkpt lat="39.9793412" lon="9.6634405"><ele>31.0</ele><time>2026-03-28T14:16:02.29Z</time></trkpt><trkpt lat="39.9791679" lon="9.6634787"><ele>36.333333333333336</ele><time>2026-03-28T14:16:03.293Z</time></trkpt><trkpt lat="39.9790055" lon="9.6635123"><ele>41.666666666666664</ele><time>2026-03-28T14:16:04.29Z</time></trkpt><trkpt lat="39.9788361" lon="9.6635513"><ele>47.0</ele><time>2026-03-28T14:16:05.31Z</time></trkpt><trkpt lat="39.9786739" lon="9.6635931"><ele>37.666666666666664</ele><time>2026-03-28T14:16:06.291Z</time></trkpt><trkpt lat="39.9785226" lon="9.6636263"><ele>28.333333333333332</ele><time>2026-03-28T14:16:07.295Z</time></trkpt><trkpt lat="39.9783679" lon="9.6636424"><ele>19.0</ele><time>2026-03-28T14:16:08.298Z</time></trkpt><trkpt lat="39.9782214" lon="9.6636549"><ele>18.75</ele><time>2026-03-28T14:16:09.295Z</time></trkpt><trkpt lat="39.9780784" lon="9.6636941"><ele>18.5</ele><time>2026-03-28T14:16:10.302Z</time></trkpt><trkpt lat="39.9779561" lon="9.6637772"><ele>18.25</ele><time>2026-03-28T14:16:11.3Z</time></trkpt><trkpt lat="39.9778426" lon="9.6639036"><ele>18.0</ele><time>2026-03-28T14:16:12.301Z</time></trkpt><trkpt lat="39.9777418" lon="9.6640567"><ele>18.0</ele><time>2026-03-28T14:16:13.309Z</time></trkpt><trkpt lat="39.9776504" lon="9.6642398"><ele>18.0</ele><time>2026-03-28T14:16:14.306Z</time></trkpt><trkpt lat="39.9775606" lon="9.6644374"><ele>18.0</ele><time>2026-03-28T14:16:15.316Z</time></trkpt><trkpt lat="39.9774657" lon="9.6646309"><ele>17.333333333333332</ele><time>2026-03-28T14:16:16.307Z</time></trkpt><trkpt lat="39.9773686" lon="9.6648065"><ele>16.666666666666664</ele><time>2026-03-28T14:16:17.308Z</time></trkpt><trkpt lat="39.9772705" lon="9.6649601"><ele>16.0</ele><time>2026-03-28T14:16:18.307Z</time></trkpt><trkpt lat="39.9771667" lon="9.6650797"><ele>16.0</ele><time>2026-03-28T14:16:19.311Z</time></trkpt><trkpt lat="39.9770707" lon="9.6651855"><ele>16.0</ele><time>2026-03-28T14:16:20.316Z</time></trkpt><trkpt lat="39.9769505" lon="9.6652099"><ele>16.0</ele><time>2026-03-28T14:16:21.305Z</time></trkpt><trkpt lat="39.9768298" lon="9.6652246"><ele>16.0</ele><time>2026-03-28T14:16:22.308Z</time></trkpt><trkpt lat="39.9767025" lon="9.6651781"><ele>16.75</ele><time>2026-03-28T14:16:23.305Z</time></trkpt><trkpt lat="39.9765734" lon="9.6651317"><ele>17.5</ele><time>2026-03-28T14:16:24.308Z</time></trkpt><trkpt lat="39.9764371" lon="9.6650906"><ele>18.25</ele><time>2026-03-28T14:16:25.309Z</time></trkpt><trkpt lat="39.9762983" lon="9.6650445"><ele>19.0</ele><time>2026-03-28T14:16:26.318Z</time></trkpt><trkpt lat="39.9761584" lon="9.664981"><ele>19.0</ele><time>2026-03-28T14:16:27.314Z</time></trkpt><trkpt lat="39.976022" lon="9.6649059"><ele>19.0</ele><time>2026-03-28T14:16:28.308Z</time></trkpt><trkpt lat="39.9758894" lon="9.6648099"><ele>19.0</ele><time>2026-03-28T14:16:29.309Z</time></trkpt><trkpt lat="39.975752" lon="9.6647111"><ele>15.666666666666666</ele><time>2026-03-28T14:16:30.311Z</time></trkpt><trkpt lat="39.9756176" lon="9.6645935"><ele>12.333333333333332</ele><time>2026-03-28T14:16:31.317Z</time></trkpt><trkpt lat="39.9754829" lon="9.6644667"><ele>9.0</ele><time>2026-03-28T14:16:32.307Z</time></trkpt><trkpt lat="39.9753522" lon="9.6643409"><ele>8.666666666666666</ele><time>2026-03-28T14:16:33.314Z</time></trkpt><trkpt lat="39.9752198" lon="9.6642177"><ele>8.333333333333332</ele><time>2026-03-28T14:16:34.315Z</time></trkpt><trkpt lat="39.975096" lon="9.6641029"><ele>8.0</ele><time>2026-03-28T14:16:35.315Z</time></trkpt><trkpt lat="39.974978" lon="9.6639985"><ele>7.75</ele><time>2026-03-28T14:16:36.325Z</time></trkpt><trkpt lat="39.974855" lon="9.6639004"><ele>7.5</ele><time>2026-03-28T14:16:37.313Z</time></trkpt><trkpt lat="39.9747262" lon="9.6638091"><ele>7.25</ele><time>2026-03-28T14:16:38.308Z</time></trkpt><trkpt lat="39.9745953" lon="9.6637239"><ele>7.0</ele><time>2026-03-28T14:16:39.318Z</time></trkpt><trkpt lat="39.9744708" lon="9.663627"><ele>7.0</ele><time>2026-03-28T14:16:40.31Z</time></trkpt><trkpt lat="39.9743274" lon="9.663556"><ele>7.0</ele><time>2026-03-28T14:16:41.312Z</time></trkpt><trkpt lat="39.9741798" lon="9.6635064"><ele>7.0</ele><time>2026-03-28T14:16:42.332Z</time></trkpt><trkpt lat="39.9740196" lon="9.6634686"><ele>7.333333333333334</ele><time>2026-03-28T14:16:43.31Z</time></trkpt><trkpt lat="39.9738597" lon="9.6634522"><ele>7.666666666666666</ele><time>2026-03-28T14:16:44.317Z</time></trkpt><trkpt lat="39.9736975" lon="9.6634458"><ele>8.0</ele><time>2026-03-28T14:16:45.312Z</time></trkpt><trkpt lat="39.9735354" lon="9.6634622"><ele>8.0</ele><time>2026-03-28T14:16:46.308Z</time></trkpt><trkpt lat="39.9733732" lon="9.6634871"><ele>8.0</ele><time>2026-03-28T14:16:47.312Z</time></trkpt><trkpt lat="39.9732241" lon="9.6635239"><ele>8.0</ele><time>2026-03-28T14:16:48.327Z</time></trkpt><trkpt lat="39.9730796" lon="9.6635672"><ele>7.666666666666666</ele><time>2026-03-28T14:16:49.312Z</time></trkpt><trkpt lat="39.9729361" lon="9.6636177"><ele>7.333333333333334</ele><time>2026-03-28T14:16:50.309Z</time></trkpt><trkpt lat="39.9727852" lon="9.6636765"><ele>7.0</ele><time>2026-03-28T14:16:51.314Z</time></trkpt><trkpt lat="39.9726397" lon="9.6637332"><ele>6.666666666666667</ele><time>2026-03-28T14:16:52.314Z</time></trkpt><trkpt lat="39.972488" lon="9.6637973"><ele>6.333333333333334</ele><time>2026-03-28T14:16:53.312Z</time></trkpt><trkpt lat="39.9723316" lon="9.6638639"><ele>6.0</ele><time>2026-03-28T14:16:54.344Z</time></trkpt><trkpt lat="39.9721798" lon="9.6639253"><ele>6.0</ele><time>2026-03-28T14:16:55.311Z</time></trkpt><trkpt lat="39.97204" lon="9.6639792"><ele>6.0</ele><time>2026-03-28T14:16:56.313Z</time></trkpt><trkpt lat="39.9719142" lon="9.6640266"><ele>6.0</ele><time>2026-03-28T14:16:57.311Z</time></trkpt><trkpt lat="39.9718004" lon="9.6640605"><ele>6.0</ele><time>2026-03-28T14:16:58.311Z</time></trkpt><trkpt lat="39.9716933" lon="9.6640798"><ele>7.4</ele><time>2026-03-28T14:16:59.327Z</time></trkpt><trkpt lat="39.9715866" lon="9.6640801"><ele>8.8</ele><time>2026-03-28T14:17:00.312Z</time></trkpt><trkpt lat="39.9714849" lon="9.6640589"><ele>10.200000000000001</ele><time>2026-03-28T14:17:01.318Z</time></trkpt><trkpt lat="39.9713917" lon="9.6640147"><ele>11.6</ele><time>2026-03-28T14:17:02.316Z</time></trkpt><trkpt lat="39.9713082" lon="9.6639559"><ele>13.0</ele><time>2026-03-28T14:17:03.307Z</time></trkpt><trkpt lat="39.9712333" lon="9.6638909"><ele>12.999999999999998</ele><time>2026-03-28T14:17:04.326Z</time></trkpt><trkpt lat="39.971159" lon="9.663822"><ele>13.0</ele><time>2026-03-28T14:17:05.311Z</time></trkpt><trkpt lat="39.9711127" lon="9.6637564"><ele>13.0</ele><time>2026-03-28T14:17:06.31Z</time></trkpt><trkpt lat="39.971066" lon="9.6636912"><ele>13.0</ele><time>2026-03-28T14:17:07.316Z</time></trkpt><trkpt lat="39.970982" lon="9.6636158"><ele>12.999999999999998</ele><time>2026-03-28T14:17:09.317Z</time></trkpt><trkpt lat="39.9709748" lon="9.6635327"><ele>13.0</ele><time>2026-03-28T14:17:12.324Z</time></trkpt><trkpt lat="39.9710175" lon="9.6634301"><ele>13.166666666666666</ele><time>2026-03-28T14:17:14.325Z</time></trkpt><trkpt lat="39.9710997" lon="9.663363"><ele>13.333333333333332</ele><time>2026-03-28T14:17:16.307Z</time></trkpt><trkpt lat="39.9711467" lon="9.6632526"><ele>13.5</ele><time>2026-03-28T14:17:18.308Z</time></trkpt><trkpt lat="39.9711435" lon="9.6631525"><ele>13.666666666666668</ele><time>2026-03-28T14:17:20.318Z</time></trkpt><trkpt lat="39.9711347" lon="9.6630553"><ele>13.833333333333334</ele><time>2026-03-28T14:17:21.31Z</time></trkpt><trkpt lat="39.9711391" lon="9.6629598"><ele>14.0</ele><time>2026-03-28T14:17:22.316Z</time></trkpt><trkpt lat="39.9711424" lon="9.6628767"><ele>13.799999999999999</ele><time>2026-03-28T14:17:23.313Z</time></trkpt><trkpt lat="39.9711331" lon="9.662745"><ele>13.599999999999998</ele><time>2026-03-28T14:17:25.31Z</time></trkpt><trkpt lat="39.9711251" lon="9.6625926"><ele>13.4</ele><time>2026-03-28T14:17:27.307Z</time></trkpt><trkpt lat="39.9711396" lon="9.662443"><ele>13.2</ele><time>2026-03-28T14:17:29.315Z</time></trkpt><trkpt lat="39.9711394" lon="9.6623211"><ele>13.0</ele><time>2026-03-28T14:17:31.307Z</time></trkpt><trkpt lat="39.9712562" lon="9.6622741"><ele>13.0</ele><time>2026-03-28T14:17:38.313Z</time></trkpt><trkpt lat="39.9713686" lon="9.6623309"><ele>13.0</ele><time>2026-03-28T14:17:39.318Z</time></trkpt><trkpt lat="39.9715139" lon="9.6623313"><ele>13.0</ele><time>2026-03-28T14:17:40.308Z</time></trkpt><trkpt lat="39.9716767" lon="9.6623406"><ele>13.0</ele><time>2026-03-28T14:17:41.318Z</time></trkpt><trkpt lat="39.9717615" lon="9.662295"><ele>12.333333333333332</ele><time>2026-03-28T14:17:42.324Z</time></trkpt><trkpt lat="39.9718308" lon="9.662239"><ele>11.666666666666666</ele><time>2026-03-28T14:17:43.304Z</time></trkpt><trkpt lat="39.9719127" lon="9.6621825"><ele>11.0</ele><time>2026-03-28T14:17:44.312Z</time></trkpt><trkpt lat="39.9719544" lon="9.6621121"><ele>10.333333333333332</ele><time>2026-03-28T14:17:45.311Z</time></trkpt><trkpt lat="39.9720054" lon="9.6620464"><ele>9.666666666666666</ele><time>2026-03-28T14:17:46.312Z</time></trkpt><trkpt lat="39.9720554" lon="9.6619701"><ele>9.0</ele><time>2026-03-28T14:17:47.309Z</time></trkpt><trkpt lat="39.9721076" lon="9.6618783"><ele>9.0</ele><time>2026-03-28T14:17:48.315Z</time></trkpt><trkpt lat="39.9721608" lon="9.6617643"><ele>9.0</ele><time>2026-03-28T14:17:49.312Z</time></trkpt><trkpt lat="39.9722075" lon="9.6616525"><ele>9.0</ele><time>2026-03-28T14:17:50.308Z</time></trkpt><trkpt lat="39.9722549" lon="9.6615493"><ele>9.0</ele><time>2026-03-28T14:17:51.311Z</time></trkpt><trkpt lat="39.9723095" lon="9.6614581"><ele>9.0</ele><time>2026-03-28T14:17:52.327Z</time></trkpt><trkpt lat="39.9723764" lon="9.6613758"><ele>9.0</ele><time>2026-03-28T14:17:53.313Z</time></trkpt><trkpt lat="39.972451" lon="9.6613015"><ele>9.0</ele><time>2026-03-28T14:17:54.313Z</time></trkpt><trkpt lat="39.9725255" lon="9.6612286"><ele>9.0</ele><time>2026-03-28T14:17:55.32Z</time></trkpt><trkpt lat="39.9725893" lon="9.6611415"><ele>9.0</ele><time>2026-03-28T14:17:56.307Z</time></trkpt><trkpt lat="39.9726416" lon="9.6610372"><ele>9.0</ele><time>2026-03-28T14:17:57.332Z</time></trkpt><trkpt lat="39.9726806" lon="9.6609337"><ele>8.8</ele><time>2026-03-28T14:17:58.311Z</time></trkpt><trkpt lat="39.9727147" lon="9.6608477"><ele>8.600000000000001</ele><time>2026-03-28T14:17:59.315Z</time></trkpt><trkpt lat="39.9727913" lon="9.660729"><ele>8.4</ele><time>2026-03-28T14:18:01.314Z</time></trkpt><trkpt lat="39.9728899" lon="9.6606542"><ele>8.200000000000001</ele><time>2026-03-28T14:18:03.307Z</time></trkpt><trkpt lat="39.9729637" lon="9.6605965"><ele>8.0</ele><time>2026-03-28T14:18:05.306Z</time></trkpt><trkpt lat="39.9730504" lon="9.660545"><ele>7.999999999999999</ele><time>2026-03-28T14:18:07.306Z</time></trkpt><trkpt lat="39.9731151" lon="9.6605193"><ele>8.0</ele><time>2026-03-28T14:18:09.304Z</time></trkpt><trkpt lat="39.973181" lon="9.660468"><ele>8.0</ele><time>2026-03-28T14:18:11.309Z</time></trkpt><trkpt lat="39.9732494" lon="9.6603513"><ele>8.0</ele><time>2026-03-28T14:18:13.307Z</time></trkpt><trkpt lat="39.9732761" lon="9.660268"><ele>7.999999999999999</ele><time>2026-03-28T14:18:14.312Z</time></trkpt><trkpt lat="39.9733055" lon="9.6601698"><ele>8.0</ele><time>2026-03-28T14:18:15.315Z</time></trkpt><trkpt lat="39.9733418" lon="9.6600607"><ele>8.0</ele><time>2026-03-28T14:18:16.312Z</time></trkpt><trkpt lat="39.9733838" lon="9.6599375"><ele>8.0</ele><time>2026-03-28T14:18:17.311Z</time></trkpt><trkpt lat="39.973434" lon="9.6598043"><ele>8.0</ele><time>2026-03-28T14:18:18.309Z</time></trkpt><trkpt lat="39.9734904" lon="9.6596669"><ele>8.0</ele><time>2026-03-28T14:18:19.32Z</time></trkpt><trkpt lat="39.9735521" lon="9.6595326"><ele>8.25</ele><time>2026-03-28T14:18:20.308Z</time></trkpt><trkpt lat="39.9736207" lon="9.6594032"><ele>8.5</ele><time>2026-03-28T14:18:21.306Z</time></trkpt><trkpt lat="39.9736943" lon="9.659277"><ele>8.75</ele><time>2026-03-28T14:18:22.308Z</time></trkpt><trkpt lat="39.9737735" lon="9.6591537"><ele>9.0</ele><time>2026-03-28T14:18:23.307Z</time></trkpt><trkpt lat="39.9738405" lon="9.6590416"><ele>9.0</ele><time>2026-03-28T14:18:24.309Z</time></trkpt><trkpt lat="39.9738918" lon="9.6589396"><ele>9.0</ele><time>2026-03-28T14:18:25.317Z</time></trkpt><trkpt lat="39.9739232" lon="9.6588373"><ele>9.0</ele><time>2026-03-28T14:18:26.309Z</time></trkpt><trkpt lat="39.9739409" lon="9.6587298"><ele>9.0</ele><time>2026-03-28T14:18:27.309Z</time></trkpt><trkpt lat="39.9739415" lon="9.6586031"><ele>9.0</ele><time>2026-03-28T14:18:28.307Z</time></trkpt><trkpt lat="39.9739372" lon="9.6584971"><ele>9.0</ele><time>2026-03-28T14:18:29.308Z</time></trkpt><trkpt lat="39.9739468" lon="9.6584134"><ele>9.0</ele><time>2026-03-28T14:18:30.336Z</time></trkpt><trkpt lat="39.9740307" lon="9.658276"><ele>9.0</ele><time>2026-03-28T14:18:32.315Z</time></trkpt><trkpt lat="39.9741055" lon="9.6581791"><ele>9.0</ele><time>2026-03-28T14:18:33.304Z</time></trkpt><trkpt lat="39.9741806" lon="9.6580809"><ele>9.0</ele><time>2026-03-28T14:18:34.312Z</time></trkpt><trkpt lat="39.9742628" lon="9.6579945"><ele>9.0</ele><time>2026-03-28T14:18:35.306Z</time></trkpt><trkpt lat="39.9743408" lon="9.6579201"><ele>9.0</ele><time>2026-03-28T14:18:36.305Z</time></trkpt><trkpt lat="39.974415" lon="9.6578425"><ele>9.0</ele><time>2026-03-28T14:18:37.313Z</time></trkpt><trkpt lat="39.9744819" lon="9.6577682"><ele>9.0</ele><time>2026-03-28T14:18:38.315Z</time></trkpt><trkpt lat="39.974561" lon="9.6576917"><ele>9.0</ele><time>2026-03-28T14:18:39.31Z</time></trkpt><trkpt lat="39.9746546" lon="9.657625"><ele>9.0</ele><time>2026-03-28T14:18:40.304Z</time></trkpt><trkpt lat="39.9747578" lon="9.6575606"><ele>9.0</ele><time>2026-03-28T14:18:41.307Z</time></trkpt><trkpt lat="39.9748568" lon="9.6575011"><ele>9.0</ele><time>2026-03-28T14:18:42.308Z</time></trkpt><trkpt lat="39.974944" lon="9.6574444"><ele>9.0</ele><time>2026-03-28T14:18:43.324Z</time></trkpt><trkpt lat="39.9750399" lon="9.6574019"><ele>9.0</ele><time>2026-03-28T14:18:44.307Z</time></trkpt><trkpt lat="39.9751213" lon="9.6573501"><ele>9.0</ele><time>2026-03-28T14:18:45.306Z</time></trkpt><trkpt lat="39.975201" lon="9.6572973"><ele>9.0</ele><time>2026-03-28T14:18:46.306Z</time></trkpt><trkpt lat="39.975286" lon="9.6572211"><ele>9.0</ele><time>2026-03-28T14:18:47.307Z</time></trkpt><trkpt lat="39.9753715" lon="9.6571314"><ele>9.0</ele><time>2026-03-28T14:18:48.304Z</time></trkpt><trkpt lat="39.9754457" lon="9.6570308"><ele>9.0</ele><time>2026-03-28T14:18:49.307Z</time></trkpt><trkpt lat="39.9755135" lon="9.6569314"><ele>9.0</ele><time>2026-03-28T14:18:50.318Z</time></trkpt><trkpt lat="39.9755675" lon="9.6568225"><ele>9.0</ele><time>2026-03-28T14:18:51.302Z</time></trkpt><trkpt lat="39.9756182" lon="9.6566952"><ele>9.0</ele><time>2026-03-28T14:18:52.307Z</time></trkpt><trkpt lat="39.9756711" lon="9.6565687"><ele>9.0</ele><time>2026-03-28T14:18:53.303Z</time></trkpt><trkpt lat="39.9757074" lon="9.6564645"><ele>9.0</ele><time>2026-03-28T14:18:54.31Z</time></trkpt><trkpt lat="39.9757652" lon="9.6563777"><ele>9.0</ele><time>2026-03-28T14:18:55.307Z</time></trkpt><trkpt lat="39.975824" lon="9.6562955"><ele>9.0</ele><time>2026-03-28T14:18:56.309Z</time></trkpt><trkpt lat="39.9759045" lon="9.6562341"><ele>9.0</ele><time>2026-03-28T14:18:57.305Z</time></trkpt><trkpt lat="39.9759612" lon="9.6561655"><ele>9.0</ele><time>2026-03-28T14:18:58.305Z</time></trkpt><trkpt lat="39.9760151" lon="9.6560811"><ele>9.0</ele><time>2026-03-28T14:18:59.317Z</time></trkpt><trkpt lat="39.9760753" lon="9.6559842"><ele>9.0</ele><time>2026-03-28T14:19:00.307Z</time></trkpt><trkpt lat="39.9761419" lon="9.655876"><ele>9.0</ele><time>2026-03-28T14:19:01.332Z</time></trkpt><trkpt lat="39.9762065" lon="9.6557644"><ele>9.0</ele><time>2026-03-28T14:19:02.306Z</time></trkpt><trkpt lat="39.9762572" lon="9.6556499"><ele>9.0</ele><time>2026-03-28T14:19:03.311Z</time></trkpt><trkpt lat="39.9763053" lon="9.6555147"><ele>9.0</ele><time>2026-03-28T14:19:04.303Z</time></trkpt><trkpt lat="39.9763496" lon="9.6553631"><ele>9.0</ele><time>2026-03-28T14:19:05.31Z</time></trkpt><trkpt lat="39.9763947" lon="9.6552041"><ele>9.0</ele><time>2026-03-28T14:19:06.313Z</time></trkpt><trkpt lat="39.9764207" lon="9.6550412"><ele>9.0</ele><time>2026-03-28T14:19:07.307Z</time></trkpt><trkpt lat="39.9764433" lon="9.6548985"><ele>9.0</ele><time>2026-03-28T14:19:08.304Z</time></trkpt><trkpt lat="39.9764778" lon="9.6547655"><ele>9.0</ele><time>2026-03-28T14:19:09.33Z</time></trkpt><trkpt lat="39.9765295" lon="9.6546339"><ele>9.0</ele><time>2026-03-28T14:19:10.307Z</time></trkpt><trkpt lat="39.9765746" lon="9.6545142"><ele>9.0</ele><time>2026-03-28T14:19:11.329Z</time></trkpt><trkpt lat="39.9766179" lon="9.654403"><ele>9.0</ele><time>2026-03-28T14:19:12.313Z</time></trkpt><trkpt lat="39.9766625" lon="9.6543158"><ele>9.0</ele><time>2026-03-28T14:19:13.31Z</time></trkpt><trkpt lat="39.9767054" lon="9.6542089"><ele>9.0</ele><time>2026-03-28T14:19:14.304Z</time></trkpt><trkpt lat="39.9767282" lon="9.6540868"><ele>9.166666666666666</ele><time>2026-03-28T14:19:15.303Z</time></trkpt><trkpt lat="39.9767458" lon="9.6539763"><ele>9.333333333333334</ele><time>2026-03-28T14:19:16.307Z</time></trkpt><trkpt lat="39.9767603" lon="9.6538796"><ele>9.5</ele><time>2026-03-28T14:19:17.309Z</time></trkpt><trkpt lat="39.9767876" lon="9.6537931"><ele>9.666666666666668</ele><time>2026-03-28T14:19:18.304Z</time></trkpt><trkpt lat="39.9768472" lon="9.6536935"><ele>9.833333333333334</ele><time>2026-03-28T14:19:19.318Z</time></trkpt><trkpt lat="39.9769114" lon="9.6535856"><ele>10.0</ele><time>2026-03-28T14:19:20.303Z</time></trkpt><trkpt lat="39.9769779" lon="9.6534675"><ele>10.0</ele><time>2026-03-28T14:19:21.307Z</time></trkpt><trkpt lat="39.9770617" lon="9.6533369"><ele>10.0</ele><time>2026-03-28T14:19:22.304Z</time></trkpt><trkpt lat="39.9771476" lon="9.6532073"><ele>10.0</ele><time>2026-03-28T14:19:23.307Z</time></trkpt><trkpt lat="39.977234" lon="9.6530745"><ele>10.0</ele><time>2026-03-28T14:19:24.316Z</time></trkpt><trkpt lat="39.9773143" lon="9.6529533"><ele>10.0</ele><time>2026-03-28T14:19:25.308Z</time></trkpt><trkpt lat="39.9773888" lon="9.6528287"><ele>10.0</ele><time>2026-03-28T14:19:26.334Z</time></trkpt><trkpt lat="39.9774535" lon="9.6527166"><ele>10.0</ele><time>2026-03-28T14:19:27.306Z</time></trkpt><trkpt lat="39.9775138" lon="9.6526117"><ele>10.0</ele><time>2026-03-28T14:19:28.303Z</time></trkpt><trkpt lat="39.9775761" lon="9.6525065"><ele>10.0</ele><time>2026-03-28T14:19:29.306Z</time></trkpt><trkpt lat="39.9776316" lon="9.6524051"><ele>10.2</ele><time>2026-03-28T14:19:30.305Z</time></trkpt><trkpt lat="39.9776726" lon="9.6523093"><ele>10.4</ele><time>2026-03-28T14:19:31.308Z</time></trkpt><trkpt lat="39.9776956" lon="9.6522237"><ele>10.600000000000001</ele><time>2026-03-28T14:19:32.31Z</time></trkpt><trkpt lat="39.9777037" lon="9.6520897"><ele>10.8</ele><time>2026-03-28T14:19:34.325Z</time></trkpt><trkpt lat="39.9776901" lon="9.6519696"><ele>11.0</ele><time>2026-03-28T14:19:46.315Z</time></trkpt><trkpt lat="39.9776518" lon="9.6518201"><ele>11.4</ele><time>2026-03-28T14:19:48.308Z</time></trkpt><trkpt lat="39.9776178" lon="9.651728"><ele>11.8</ele><time>2026-03-28T14:19:49.334Z</time></trkpt><trkpt lat="39.9775838" lon="9.6516363"><ele>12.200000000000001</ele><time>2026-03-28T14:19:50.311Z</time></trkpt><trkpt lat="39.9775535" lon="9.6515514"><ele>12.600000000000001</ele><time>2026-03-28T14:19:51.308Z</time></trkpt><trkpt lat="39.9775578" lon="9.6513363"><ele>13.0</ele><time>2026-03-28T14:19:53.304Z</time></trkpt><trkpt lat="39.9775645" lon="9.6511972"><ele>12.600000000000001</ele><time>2026-03-28T14:19:54.313Z</time></trkpt><trkpt lat="39.9775734" lon="9.6510538"><ele>12.200000000000001</ele><time>2026-03-28T14:19:55.311Z</time></trkpt><trkpt lat="39.9775799" lon="9.6509132"><ele>11.8</ele><time>2026-03-28T14:19:56.316Z</time></trkpt><trkpt lat="39.9775864" lon="9.6507723"><ele>11.4</ele><time>2026-03-28T14:19:57.307Z</time></trkpt><trkpt lat="39.9776085" lon="9.6506368"><ele>11.0</ele><time>2026-03-28T14:19:58.311Z</time></trkpt><trkpt lat="39.9776389" lon="9.6504932"><ele>11.0</ele><time>2026-03-28T14:19:59.318Z</time></trkpt><trkpt lat="39.9776743" lon="9.6503373"><ele>11.0</ele><time>2026-03-28T14:20:00.316Z</time></trkpt><trkpt lat="39.9777083" lon="9.6501685"><ele>11.0</ele><time>2026-03-28T14:20:01.306Z</time></trkpt><trkpt lat="39.9777444" lon="9.6499983"><ele>11.0</ele><time>2026-03-28T14:20:02.312Z</time></trkpt><trkpt lat="39.9777752" lon="9.6498384"><ele>11.5</ele><time>2026-03-28T14:20:03.312Z</time></trkpt><trkpt lat="39.9778108" lon="9.6496942"><ele>12.0</ele><time>2026-03-28T14:20:04.323Z</time></trkpt><trkpt lat="39.9778473" lon="9.64955"><ele>12.5</ele><time>2026-03-28T14:20:05.314Z</time></trkpt><trkpt lat="39.977905" lon="9.6494122"><ele>13.0</ele><time>2026-03-28T14:20:06.31Z</time></trkpt><trkpt lat="39.9779692" lon="9.6492571"><ele>13.75</ele><time>2026-03-28T14:20:07.31Z</time></trkpt><trkpt lat="39.9780466" lon="9.6490892"><ele>14.5</ele><time>2026-03-28T14:20:08.311Z</time></trkpt><trkpt lat="39.9781138" lon="9.6489198"><ele>15.25</ele><time>2026-03-28T14:20:09.309Z</time></trkpt><trkpt lat="39.9781826" lon="9.6487557"><ele>16.0</ele><time>2026-03-28T14:20:10.311Z</time></trkpt><trkpt lat="39.9782636" lon="9.6485917"><ele>16.25</ele><time>2026-03-28T14:20:11.309Z</time></trkpt><trkpt lat="39.9783414" lon="9.6484415"><ele>16.5</ele><time>2026-03-28T14:20:12.329Z</time></trkpt><trkpt lat="39.9784169" lon="9.6482942"><ele>16.75</ele><time>2026-03-28T14:20:13.309Z</time></trkpt><trkpt lat="39.9785106" lon="9.6481499"><ele>17.0</ele><time>2026-03-28T14:20:14.31Z</time></trkpt><trkpt lat="39.9786063" lon="9.6480019"><ele>17.0</ele><time>2026-03-28T14:20:15.309Z</time></trkpt><trkpt lat="39.9786819" lon="9.6478574"><ele>17.0</ele><time>2026-03-28T14:20:16.306Z</time></trkpt><trkpt lat="39.9787437" lon="9.6477043"><ele>17.0</ele><time>2026-03-28T14:20:17.317Z</time></trkpt><trkpt lat="39.9788071" lon="9.6475458"><ele>17.0</ele><time>2026-03-28T14:20:18.312Z</time></trkpt><trkpt lat="39.9788608" lon="9.6473671"><ele>17.5</ele><time>2026-03-28T14:20:19.325Z</time></trkpt><trkpt lat="39.9789197" lon="9.6471808"><ele>18.0</ele><time>2026-03-28T14:20:20.309Z</time></trkpt><trkpt lat="39.9789814" lon="9.6469954"><ele>18.5</ele><time>2026-03-28T14:20:21.306Z</time></trkpt><trkpt lat="39.9790405" lon="9.6468296"><ele>19.0</ele><time>2026-03-28T14:20:22.311Z</time></trkpt><trkpt lat="39.9790957" lon="9.6466721"><ele>19.5</ele><time>2026-03-28T14:20:23.312Z</time></trkpt><trkpt lat="39.9791452" lon="9.646524"><ele>20.0</ele><time>2026-03-28T14:20:24.32Z</time></trkpt><trkpt lat="39.9791785" lon="9.6463644"><ele>20.5</ele><time>2026-03-28T14:20:25.31Z</time></trkpt><trkpt lat="39.9792119" lon="9.6461999"><ele>21.0</ele><time>2026-03-28T14:20:26.326Z</time></trkpt><trkpt lat="39.9792376" lon="9.6460273"><ele>19.75</ele><time>2026-03-28T14:20:27.312Z</time></trkpt><trkpt lat="39.9792654" lon="9.645866"><ele>18.5</ele><time>2026-03-28T14:20:28.314Z</time></trkpt><trkpt lat="39.9793014" lon="9.6457245"><ele>17.25</ele><time>2026-03-28T14:20:29.311Z</time></trkpt><trkpt lat="39.9793379" lon="9.6455882"><ele>16.0</ele><time>2026-03-28T14:20:30.304Z</time></trkpt><trkpt lat="39.9793971" lon="9.645447"><ele>16.5</ele><time>2026-03-28T14:20:31.31Z</time></trkpt><trkpt lat="39.9794606" lon="9.6452848"><ele>17.0</ele><time>2026-03-28T14:20:32.312Z</time></trkpt><trkpt lat="39.9795247" lon="9.6451168"><ele>17.5</ele><time>2026-03-28T14:20:33.303Z</time></trkpt><trkpt lat="39.9795725" lon="9.6449328"><ele>18.0</ele><time>2026-03-28T14:20:34.313Z</time></trkpt><trkpt lat="39.97963" lon="9.6447388"><ele>18.0</ele><time>2026-03-28T14:20:35.31Z</time></trkpt><trkpt lat="39.9796822" lon="9.6445447"><ele>18.0</ele><time>2026-03-28T14:20:36.308Z</time></trkpt><trkpt lat="39.9797372" lon="9.6443471"><ele>18.0</ele><time>2026-03-28T14:20:37.329Z</time></trkpt><trkpt lat="39.9797886" lon="9.6441522"><ele>18.6</ele><time>2026-03-28T14:20:38.309Z</time></trkpt><trkpt lat="39.9798313" lon="9.6439747"><ele>19.200000000000003</ele><time>2026-03-28T14:20:39.305Z</time></trkpt><trkpt lat="39.9798672" lon="9.6438392"><ele>19.8</ele><time>2026-03-28T14:20:40.304Z</time></trkpt><trkpt lat="39.9798862" lon="9.6437393"><ele>20.400000000000002</ele><time>2026-03-28T14:20:41.313Z</time></trkpt><trkpt lat="39.9798592" lon="9.6435926"><ele>21.0</ele><time>2026-03-28T14:20:43.329Z</time></trkpt><trkpt lat="39.979798" lon="9.6435402"><ele>21.0</ele><time>2026-03-28T14:20:44.304Z</time></trkpt><trkpt lat="39.9797127" lon="9.6434954"><ele>21.0</ele><time>2026-03-28T14:20:45.3Z</time></trkpt><trkpt lat="39.9796212" lon="9.6434438"><ele>21.0</ele><time>2026-03-28T14:20:46.312Z</time></trkpt><trkpt lat="39.9795568" lon="9.6433756"><ele>21.0</ele><time>2026-03-28T14:20:47.304Z</time></trkpt><trkpt lat="39.9795018" lon="9.6432892"><ele>21.0</ele><time>2026-03-28T14:20:48.316Z</time></trkpt><trkpt lat="39.9794889" lon="9.6431607"><ele>21.0</ele><time>2026-03-28T14:20:49.312Z</time></trkpt><trkpt lat="39.9794747" lon="9.6430058"><ele>21.0</ele><time>2026-03-28T14:20:50.303Z</time></trkpt><trkpt lat="39.9794643" lon="9.6428335"><ele>21.0</ele><time>2026-03-28T14:20:51.308Z</time></trkpt><trkpt lat="39.9794564" lon="9.6426851"><ele>21.0</ele><time>2026-03-28T14:20:52.312Z</time></trkpt><trkpt lat="39.9794777" lon="9.6425433"><ele>21.200000000000003</ele><time>2026-03-28T14:20:53.322Z</time></trkpt><trkpt lat="39.9795058" lon="9.6424141"><ele>21.400000000000002</ele><time>2026-03-28T14:20:54.315Z</time></trkpt><trkpt lat="39.9795516" lon="9.6423022"><ele>21.6</ele><time>2026-03-28T14:20:55.311Z</time></trkpt><trkpt lat="39.9795818" lon="9.6422084"><ele>21.8</ele><time>2026-03-28T14:20:56.303Z</time></trkpt><trkpt lat="39.9796164" lon="9.642099"><ele>22.0</ele><time>2026-03-28T14:20:58.322Z</time></trkpt><trkpt lat="39.9797142" lon="9.642084"><ele>22.0</ele><time>2026-03-28T14:21:07.312Z</time></trkpt><trkpt lat="39.9797849" lon="9.6421085"><ele>22.0</ele><time>2026-03-28T14:21:08.311Z</time></trkpt><trkpt lat="39.9798633" lon="9.6421338"><ele>22.0</ele><time>2026-03-28T14:21:09.311Z</time></trkpt><trkpt lat="39.9799532" lon="9.6421605"><ele>22.0</ele><time>2026-03-28T14:21:10.314Z</time></trkpt><trkpt lat="39.9800535" lon="9.6421858"><ele>22.0</ele><time>2026-03-28T14:21:11.309Z</time></trkpt><trkpt lat="39.9801631" lon="9.6422108"><ele>21.400000000000002</ele><time>2026-03-28T14:21:12.313Z</time></trkpt><trkpt lat="39.9802761" lon="9.642233"><ele>20.8</ele><time>2026-03-28T14:21:13.31Z</time></trkpt><trkpt lat="39.9803865" lon="9.6422537"><ele>20.2</ele><time>2026-03-28T14:21:14.314Z</time></trkpt><trkpt lat="39.9804917" lon="9.6422729"><ele>19.6</ele><time>2026-03-28T14:21:15.306Z</time></trkpt><trkpt lat="39.9805916" lon="9.6422851"><ele>19.0</ele><time>2026-03-28T14:21:16.328Z</time></trkpt><trkpt lat="39.9806956" lon="9.6422923"><ele>19.0</ele><time>2026-03-28T14:21:17.304Z</time></trkpt><trkpt lat="39.9807993" lon="9.6422965"><ele>19.0</ele><time>2026-03-28T14:21:18.31Z</time></trkpt><trkpt lat="39.9809126" lon="9.6423052"><ele>19.0</ele><time>2026-03-28T14:21:19.307Z</time></trkpt><trkpt lat="39.9810346" lon="9.6423124"><ele>19.0</ele><time>2026-03-28T14:21:20.309Z</time></trkpt><trkpt lat="39.9811667" lon="9.642317"><ele>18.25</ele><time>2026-03-28T14:21:21.324Z</time></trkpt><trkpt lat="39.9813071" lon="9.6423189"><ele>17.5</ele><time>2026-03-28T14:21:22.313Z</time></trkpt><trkpt lat="39.9814574" lon="9.6423144"><ele>16.75</ele><time>2026-03-28T14:21:23.309Z</time></trkpt><trkpt lat="39.9816159" lon="9.6423057"><ele>16.0</ele><time>2026-03-28T14:21:24.31Z</time></trkpt><trkpt lat="39.9817845" lon="9.6422944"><ele>15.333333333333332</ele><time>2026-03-28T14:21:25.307Z</time></trkpt><trkpt lat="39.9819602" lon="9.6422847"><ele>14.666666666666668</ele><time>2026-03-28T14:21:26.311Z</time></trkpt><trkpt lat="39.9821394" lon="9.6422838"><ele>14.0</ele><time>2026-03-28T14:21:27.31Z</time></trkpt><trkpt lat="39.9823156" lon="9.6422898"><ele>14.0</ele><time>2026-03-28T14:21:28.319Z</time></trkpt><trkpt lat="39.982489" lon="9.6422998"><ele>14.0</ele><time>2026-03-28T14:21:29.317Z</time></trkpt><trkpt lat="39.9826611" lon="9.64231"><ele>14.0</ele><time>2026-03-28T14:21:30.314Z</time></trkpt><trkpt lat="39.9828331" lon="9.6423223"><ele>14.0</ele><time>2026-03-28T14:21:31.309Z</time></trkpt><trkpt lat="39.983001" lon="9.6423375"><ele>14.0</ele><time>2026-03-28T14:21:32.313Z</time></trkpt><trkpt lat="39.9831659" lon="9.6423625"><ele>14.0</ele><time>2026-03-28T14:21:33.306Z</time></trkpt><trkpt lat="39.9833212" lon="9.6423924"><ele>13.75</ele><time>2026-03-28T14:21:34.306Z</time></trkpt><trkpt lat="39.9834631" lon="9.6424279"><ele>13.5</ele><time>2026-03-28T14:21:35.316Z</time></trkpt><trkpt lat="39.9835968" lon="9.6424648"><ele>13.25</ele><time>2026-03-28T14:21:36.306Z</time></trkpt><trkpt lat="39.9837299" lon="9.6424891"><ele>13.0</ele><time>2026-03-28T14:21:37.33Z</time></trkpt><trkpt lat="39.9838585" lon="9.6425097"><ele>12.999999999999998</ele><time>2026-03-28T14:21:38.308Z</time></trkpt><trkpt lat="39.9839765" lon="9.6425285"><ele>13.0</ele><time>2026-03-28T14:21:39.312Z</time></trkpt><trkpt lat="39.9840739" lon="9.642539"><ele>13.0</ele><time>2026-03-28T14:21:40.303Z</time></trkpt><trkpt lat="39.9841422" lon="9.6425441"><ele>13.0</ele><time>2026-03-28T14:21:41.32Z</time></trkpt><trkpt lat="39.9842085" lon="9.6425398"><ele>12.999999999999998</ele><time>2026-03-28T14:21:43.307Z</time></trkpt><trkpt lat="39.9842753" lon="9.6426024"><ele>13.0</ele><time>2026-03-28T14:21:50.315Z</time></trkpt><trkpt lat="39.9843714" lon="9.6427472"><ele>12.999999999999998</ele><time>2026-03-28T14:21:52.334Z</time></trkpt><trkpt lat="39.9844186" lon="9.642842"><ele>13.0</ele><time>2026-03-28T14:21:53.312Z</time></trkpt><trkpt lat="39.9844628" lon="9.6429264"><ele>13.0</ele><time>2026-03-28T14:21:54.312Z</time></trkpt><trkpt lat="39.9845217" lon="9.6430483"><ele>13.0</ele><time>2026-03-28T14:21:56.308Z</time></trkpt><trkpt lat="39.984576" lon="9.6431151"><ele>12.999999999999998</ele><time>2026-03-28T14:21:58.305Z</time></trkpt><trkpt lat="39.9846488" lon="9.6431989"><ele>13.0</ele><time>2026-03-28T14:22:02.307Z</time></trkpt><trkpt lat="39.9846996" lon="9.6432564"><ele>13.0</ele><time>2026-03-28T14:22:05.325Z</time></trkpt><trkpt lat="39.9847599" lon="9.6433307"><ele>13.0</ele><time>2026-03-28T14:22:12.323Z</time></trkpt><trkpt lat="39.984875" lon="9.6434523"><ele>13.0</ele><time>2026-03-28T14:22:14.317Z</time></trkpt><trkpt lat="39.9849512" lon="9.6435811"><ele>13.0</ele><time>2026-03-28T14:22:16.303Z</time></trkpt><trkpt lat="39.9849905" lon="9.6436557"><ele>13.0</ele><time>2026-03-28T14:22:17.313Z</time></trkpt><trkpt lat="39.9850671" lon="9.6437532"><ele>13.166666666666666</ele><time>2026-03-28T14:22:19.305Z</time></trkpt><trkpt lat="39.9851232" lon="9.6438219"><ele>13.333333333333332</ele><time>2026-03-28T14:22:21.31Z</time></trkpt><trkpt lat="39.9851911" lon="9.6438642"><ele>13.5</ele><time>2026-03-28T14:22:24.313Z</time></trkpt><trkpt lat="39.9852565" lon="9.6439012"><ele>13.666666666666668</ele><time>2026-03-28T14:22:27.312Z</time></trkpt><trkpt lat="39.9853633" lon="9.643955"><ele>13.833333333333334</ele><time>2026-03-28T14:22:31.305Z</time></trkpt><trkpt lat="39.9854242" lon="9.6439913"><ele>14.0</ele><time>2026-03-28T14:22:33.311Z</time></trkpt><trkpt lat="39.9854967" lon="9.644048"><ele>14.0</ele><time>2026-03-28T14:22:35.307Z</time></trkpt><trkpt lat="39.9855935" lon="9.6441023"><ele>13.999999999999998</ele><time>2026-03-28T14:22:37.308Z</time></trkpt><trkpt lat="39.9856648" lon="9.6441309"><ele>13.999999999999998</ele><time>2026-03-28T14:22:38.309Z</time></trkpt><trkpt lat="39.9857532" lon="9.6441604"><ele>14.0</ele><time>2026-03-28T14:22:39.31Z</time></trkpt><trkpt lat="39.9858475" lon="9.6441906"><ele>14.0</ele><time>2026-03-28T14:22:40.307Z</time></trkpt><trkpt lat="39.9859626" lon="9.6442424"><ele>14.0</ele><time>2026-03-28T14:22:41.316Z</time></trkpt><trkpt lat="39.9860738" lon="9.6442979"><ele>14.0</ele><time>2026-03-28T14:22:42.309Z</time></trkpt><trkpt lat="39.9861906" lon="9.6443585"><ele>14.0</ele><time>2026-03-28T14:22:43.31Z</time></trkpt><trkpt lat="39.9863021" lon="9.6444152"><ele>14.0</ele><time>2026-03-28T14:22:44.317Z</time></trkpt><trkpt lat="39.9863971" lon="9.6444593"><ele>14.25</ele><time>2026-03-28T14:22:45.309Z</time></trkpt><trkpt lat="39.9864981" lon="9.6444937"><ele>14.5</ele><time>2026-03-28T14:22:46.31Z</time></trkpt><trkpt lat="39.9866092" lon="9.6445219"><ele>14.75</ele><time>2026-03-28T14:22:47.306Z</time></trkpt><trkpt lat="39.9867354" lon="9.6445182"><ele>15.0</ele><time>2026-03-28T14:22:48.308Z</time></trkpt><trkpt lat="39.9868522" lon="9.6445131"><ele>15.0</ele><time>2026-03-28T14:22:49.319Z</time></trkpt><trkpt lat="39.9869663" lon="9.6445022"><ele>15.0</ele><time>2026-03-28T14:22:50.325Z</time></trkpt><trkpt lat="39.9870841" lon="9.6444944"><ele>15.0</ele><time>2026-03-28T14:22:51.313Z</time></trkpt><trkpt lat="39.9871933" lon="9.6444966"><ele>15.0</ele><time>2026-03-28T14:22:52.307Z</time></trkpt><trkpt lat="39.9873024" lon="9.6444954"><ele>15.0</ele><time>2026-03-28T14:22:53.315Z</time></trkpt><trkpt lat="39.9873969" lon="9.6444955"><ele>15.0</ele><time>2026-03-28T14:22:54.305Z</time></trkpt><trkpt lat="39.9874826" lon="9.6445028"><ele>15.0</ele><time>2026-03-28T14:22:55.309Z</time></trkpt><trkpt lat="39.9875728" lon="9.6445547"><ele>15.0</ele><time>2026-03-28T14:22:56.318Z</time></trkpt><trkpt lat="39.9876679" lon="9.6446222"><ele>15.0</ele><time>2026-03-28T14:22:57.304Z</time></trkpt><trkpt lat="39.9877596" lon="9.6447297"><ele>15.0</ele><time>2026-03-28T14:22:58.305Z</time></trkpt><trkpt lat="39.9878353" lon="9.6448064"><ele>15.0</ele><time>2026-03-28T14:22:59.308Z</time></trkpt><trkpt lat="39.9879096" lon="9.6448673"><ele>15.0</ele><time>2026-03-28T14:23:00.303Z</time></trkpt><trkpt lat="39.9879764" lon="9.6449081"><ele>15.0</ele><time>2026-03-28T14:23:01.305Z</time></trkpt><trkpt lat="39.9880745" lon="9.6449484"><ele>15.0</ele><time>2026-03-28T14:23:03.304Z</time></trkpt><trkpt lat="39.9881796" lon="9.6448972"><ele>15.0</ele><time>2026-03-28T14:23:05.31Z</time></trkpt><trkpt lat="39.9882572" lon="9.6448471"><ele>15.0</ele><time>2026-03-28T14:23:06.318Z</time></trkpt><trkpt lat="39.9883396" lon="9.6447867"><ele>15.0</ele><time>2026-03-28T14:23:07.341Z</time></trkpt><trkpt lat="39.9884228" lon="9.6447084"><ele>15.0</ele><time>2026-03-28T14:23:08.302Z</time></trkpt><trkpt lat="39.9885028" lon="9.6446307"><ele>15.0</ele><time>2026-03-28T14:23:09.313Z</time></trkpt><trkpt lat="39.9885723" lon="9.644561"><ele>15.2</ele><time>2026-03-28T14:23:10.304Z</time></trkpt><trkpt lat="39.9886377" lon="9.6444821"><ele>15.4</ele><time>2026-03-28T14:23:11.315Z</time></trkpt><trkpt lat="39.9887136" lon="9.6444257"><ele>15.600000000000001</ele><time>2026-03-28T14:23:12.305Z</time></trkpt><trkpt lat="39.9887959" lon="9.6443741"><ele>15.8</ele><time>2026-03-28T14:23:13.311Z</time></trkpt><trkpt lat="39.9888876" lon="9.6443239"><ele>16.0</ele><time>2026-03-28T14:23:14.311Z</time></trkpt><trkpt lat="39.9889746" lon="9.64426"><ele>16.0</ele><time>2026-03-28T14:23:15.31Z</time></trkpt><trkpt lat="39.9890552" lon="9.6442089"><ele>15.999999999999998</ele><time>2026-03-28T14:23:16.322Z</time></trkpt><trkpt lat="39.9891263" lon="9.6441694"><ele>16.0</ele><time>2026-03-28T14:23:17.314Z</time></trkpt><trkpt lat="39.9891897" lon="9.6441493"><ele>16.0</ele><time>2026-03-28T14:23:18.307Z</time></trkpt><trkpt lat="39.9892575" lon="9.6441528"><ele>15.999999999999998</ele><time>2026-03-28T14:23:19.305Z</time></trkpt><trkpt lat="39.9893271" lon="9.6441681"><ele>16.0</ele><time>2026-03-28T14:23:20.304Z</time></trkpt><trkpt lat="39.9893944" lon="9.644173"><ele>16.0</ele><time>2026-03-28T14:23:21.303Z</time></trkpt><trkpt lat="39.9894697" lon="9.6441679"><ele>16.400000000000002</ele><time>2026-03-28T14:23:22.302Z</time></trkpt><trkpt lat="39.9895392" lon="9.6440999"><ele>16.8</ele><time>2026-03-28T14:23:23.318Z</time></trkpt><trkpt lat="39.9896092" lon="9.6439994"><ele>17.200000000000003</ele><time>2026-03-28T14:23:24.31Z</time></trkpt><trkpt lat="39.9896945" lon="9.6438875"><ele>17.6</ele><time>2026-03-28T14:23:25.309Z</time></trkpt><trkpt lat="39.9897892" lon="9.6437732"><ele>18.0</ele><time>2026-03-28T14:23:26.312Z</time></trkpt><trkpt lat="39.9898814" lon="9.643661"><ele>17.8</ele><time>2026-03-28T14:23:27.309Z</time></trkpt><trkpt lat="39.989963" lon="9.6435446"><ele>17.6</ele><time>2026-03-28T14:23:28.32Z</time></trkpt><trkpt lat="39.9900393" lon="9.6434378"><ele>17.4</ele><time>2026-03-28T14:23:29.314Z</time></trkpt><trkpt lat="39.9901198" lon="9.6433516"><ele>17.2</ele><time>2026-03-28T14:23:30.306Z</time></trkpt><trkpt lat="39.9902077" lon="9.6432709"><ele>17.0</ele><time>2026-03-28T14:23:31.308Z</time></trkpt><trkpt lat="39.990303" lon="9.6431969"><ele>17.0</ele><time>2026-03-28T14:23:32.316Z</time></trkpt><trkpt lat="39.9903918" lon="9.643134"><ele>17.0</ele><time>2026-03-28T14:23:33.31Z</time></trkpt><trkpt lat="39.9904814" lon="9.6431078"><ele>17.0</ele><time>2026-03-28T14:23:34.309Z</time></trkpt><trkpt lat="39.9905847" lon="9.6430978"><ele>17.0</ele><time>2026-03-28T14:23:35.307Z</time></trkpt><trkpt lat="39.9906731" lon="9.6430846"><ele>17.0</ele><time>2026-03-28T14:23:36.315Z</time></trkpt><trkpt lat="39.9907549" lon="9.6430794"><ele>17.0</ele><time>2026-03-28T14:23:37.307Z</time></trkpt><trkpt lat="39.9908181" lon="9.6430811"><ele>17.0</ele><time>2026-03-28T14:23:38.317Z</time></trkpt><trkpt lat="39.9909175" lon="9.6431054"><ele>17.0</ele><time>2026-03-28T14:23:40.302Z</time></trkpt><trkpt lat="39.9909709" lon="9.6431588"><ele>17.0</ele><time>2026-03-28T14:23:43.33Z</time></trkpt><trkpt lat="39.9910234" lon="9.6432212"><ele>17.0</ele><time>2026-03-28T14:23:47.322Z</time></trkpt><trkpt lat="39.9911273" lon="9.6432524"><ele>17.0</ele><time>2026-03-28T14:23:49.312Z</time></trkpt><trkpt lat="39.9912581" lon="9.6432861"><ele>17.5</ele><time>2026-03-28T14:23:51.313Z</time></trkpt><trkpt lat="39.9913522" lon="9.6433065"><ele>18.0</ele><time>2026-03-28T14:23:52.311Z</time></trkpt><trkpt lat="39.9914456" lon="9.6433062"><ele>18.5</ele><time>2026-03-28T14:23:53.31Z</time></trkpt><trkpt lat="39.9915379" lon="9.6432848"><ele>19.0</ele><time>2026-03-28T14:23:54.315Z</time></trkpt><trkpt lat="39.9916206" lon="9.6432644"><ele>19.5</ele><time>2026-03-28T14:23:55.322Z</time></trkpt><trkpt lat="39.9916886" lon="9.643248"><ele>20.0</ele><time>2026-03-28T14:23:56.318Z</time></trkpt><trkpt lat="39.9917796" lon="9.6432782"><ele>20.6</ele><time>2026-03-28T14:23:58.312Z</time></trkpt><trkpt lat="39.9918695" lon="9.6433438"><ele>21.2</ele><time>2026-03-28T14:24:00.319Z</time></trkpt><trkpt lat="39.9919413" lon="9.6434236"><ele>21.799999999999997</ele><time>2026-03-28T14:24:01.303Z</time></trkpt><trkpt lat="39.9920178" lon="9.6435144"><ele>22.4</ele><time>2026-03-28T14:24:02.314Z</time></trkpt><trkpt lat="39.9920925" lon="9.6435985"><ele>23.0</ele><time>2026-03-28T14:24:03.307Z</time></trkpt><trkpt lat="39.9921699" lon="9.643672"><ele>23.799999999999997</ele><time>2026-03-28T14:24:04.304Z</time></trkpt><trkpt lat="39.99225" lon="9.6437444"><ele>24.6</ele><time>2026-03-28T14:24:05.315Z</time></trkpt><trkpt lat="39.9923351" lon="9.6438273"><ele>25.400000000000002</ele><time>2026-03-28T14:24:06.313Z</time></trkpt><trkpt lat="39.9924251" lon="9.6439262"><ele>26.200000000000003</ele><time>2026-03-28T14:24:07.324Z</time></trkpt><trkpt lat="39.9925176" lon="9.644027"><ele>27.0</ele><time>2026-03-28T14:24:08.31Z</time></trkpt><trkpt lat="39.9926113" lon="9.6441302"><ele>27.5</ele><time>2026-03-28T14:24:09.318Z</time></trkpt><trkpt lat="39.9927056" lon="9.6442228"><ele>28.0</ele><time>2026-03-28T14:24:10.315Z</time></trkpt><trkpt lat="39.9928048" lon="9.6443066"><ele>28.5</ele><time>2026-03-28T14:24:11.311Z</time></trkpt><trkpt lat="39.9929064" lon="9.6443887"><ele>29.0</ele><time>2026-03-28T14:24:12.313Z</time></trkpt><trkpt lat="39.9930124" lon="9.6444676"><ele>29.4</ele><time>2026-03-28T14:24:13.335Z</time></trkpt><trkpt lat="39.9931149" lon="9.6445398"><ele>29.799999999999997</ele><time>2026-03-28T14:24:14.316Z</time></trkpt><trkpt lat="39.9932046" lon="9.6446015"><ele>30.200000000000003</ele><time>2026-03-28T14:24:15.314Z</time></trkpt><trkpt lat="39.993289" lon="9.6446611"><ele>30.6</ele><time>2026-03-28T14:24:16.308Z</time></trkpt><trkpt lat="39.9933776" lon="9.6447308"><ele>31.0</ele><time>2026-03-28T14:24:17.316Z</time></trkpt><trkpt lat="39.9934675" lon="9.6448232"><ele>31.25</ele><time>2026-03-28T14:24:18.309Z</time></trkpt><trkpt lat="39.9935589" lon="9.6449198"><ele>31.5</ele><time>2026-03-28T14:24:19.306Z</time></trkpt><trkpt lat="39.993666" lon="9.6450058"><ele>31.75</ele><time>2026-03-28T14:24:20.311Z</time></trkpt><trkpt lat="39.9937812" lon="9.6450834"><ele>32.0</ele><time>2026-03-28T14:24:21.303Z</time></trkpt><trkpt lat="39.9938948" lon="9.6451494"><ele>32.0</ele><time>2026-03-28T14:24:22.329Z</time></trkpt><trkpt lat="39.9939928" lon="9.6452155"><ele>32.0</ele><time>2026-03-28T14:24:23.31Z</time></trkpt><trkpt lat="39.994073" lon="9.6452934"><ele>32.0</ele><time>2026-03-28T14:24:24.31Z</time></trkpt><trkpt lat="39.9941551" lon="9.6453671"><ele>32.0</ele><time>2026-03-28T14:24:25.309Z</time></trkpt><trkpt lat="39.994229" lon="9.6454584"><ele>32.0</ele><time>2026-03-28T14:24:26.312Z</time></trkpt><trkpt lat="39.9943008" lon="9.6455336"><ele>32.83333333333333</ele><time>2026-03-28T14:24:27.311Z</time></trkpt><trkpt lat="39.9943545" lon="9.6456219"><ele>33.666666666666664</ele><time>2026-03-28T14:24:28.331Z</time></trkpt><trkpt lat="39.9944004" lon="9.6457148"><ele>34.5</ele><time>2026-03-28T14:24:29.307Z</time></trkpt><trkpt lat="39.994426" lon="9.6457982"><ele>35.333333333333336</ele><time>2026-03-28T14:24:30.319Z</time></trkpt><trkpt lat="39.9944434" lon="9.6459365"><ele>36.16666666666667</ele><time>2026-03-28T14:24:32.31Z</time></trkpt><trkpt lat="39.9944302" lon="9.6460551"><ele>37.0</ele><time>2026-03-28T14:24:34.311Z</time></trkpt><trkpt lat="39.9944307" lon="9.6461911"><ele>38.333333333333336</ele><time>2026-03-28T14:24:36.342Z</time></trkpt><trkpt lat="39.994435" lon="9.6462756"><ele>39.66666666666667</ele><time>2026-03-28T14:24:37.311Z</time></trkpt><trkpt lat="39.9944668" lon="9.6464426"><ele>41.0</ele><time>2026-03-28T14:24:39.306Z</time></trkpt><trkpt lat="39.9944837" lon="9.6465412"><ele>42.333333333333336</ele><time>2026-03-28T14:24:40.322Z</time></trkpt><trkpt lat="39.9945016" lon="9.6466436"><ele>43.666666666666664</ele><time>2026-03-28T14:24:41.313Z</time></trkpt><trkpt lat="39.9945275" lon="9.6467529"><ele>45.0</ele><time>2026-03-28T14:24:42.314Z</time></trkpt><trkpt lat="39.9945587" lon="9.646868"><ele>45.0</ele><time>2026-03-28T14:24:43.313Z</time></trkpt><trkpt lat="39.9945905" lon="9.6469814"><ele>45.0</ele><time>2026-03-28T14:24:44.313Z</time></trkpt><trkpt lat="39.994621" lon="9.6470871"><ele>45.0</ele><time>2026-03-28T14:24:45.334Z</time></trkpt><trkpt lat="39.9946461" lon="9.6471808"><ele>45.0</ele><time>2026-03-28T14:24:46.311Z</time></trkpt><trkpt lat="39.9946724" lon="9.6472752"><ele>45.0</ele><time>2026-03-28T14:24:47.311Z</time></trkpt><trkpt lat="39.9947068" lon="9.6473654"><ele>45.0</ele><time>2026-03-28T14:24:48.323Z</time></trkpt><trkpt lat="39.9947462" lon="9.6474472"><ele>45.0</ele><time>2026-03-28T14:24:49.307Z</time></trkpt><trkpt lat="39.9947919" lon="9.6475196"><ele>45.0</ele><time>2026-03-28T14:24:50.348Z</time></trkpt><trkpt lat="39.9948437" lon="9.6475824"><ele>45.0</ele><time>2026-03-28T14:24:51.311Z</time></trkpt><trkpt lat="39.9949037" lon="9.6476388"><ele>45.0</ele><time>2026-03-28T14:24:52.311Z</time></trkpt><trkpt lat="39.9949698" lon="9.6476934"><ele>45.0</ele><time>2026-03-28T14:24:53.304Z</time></trkpt><trkpt lat="39.9950411" lon="9.6477509"><ele>45.0</ele><time>2026-03-28T14:24:54.311Z</time></trkpt><trkpt lat="39.995112" lon="9.6478052"><ele>45.166666666666664</ele><time>2026-03-28T14:24:55.31Z</time></trkpt><trkpt lat="39.9951817" lon="9.6478529"><ele>45.333333333333336</ele><time>2026-03-28T14:24:56.313Z</time></trkpt><trkpt lat="39.995247" lon="9.647889"><ele>45.5</ele><time>2026-03-28T14:24:57.314Z</time></trkpt><trkpt lat="39.9953109" lon="9.6479136"><ele>45.66666666666667</ele><time>2026-03-28T14:24:58.312Z</time></trkpt><trkpt lat="39.9954235" lon="9.647938"><ele>45.833333333333336</ele><time>2026-03-28T14:25:00.309Z</time></trkpt><trkpt lat="39.9955029" lon="9.6479254"><ele>46.0</ele><time>2026-03-28T14:25:02.315Z</time></trkpt><trkpt lat="39.99556" lon="9.6478749"><ele>46.0</ele><time>2026-03-28T14:25:04.315Z</time></trkpt><trkpt lat="39.9956085" lon="9.6478102"><ele>46.0</ele><time>2026-03-28T14:25:05.312Z</time></trkpt><trkpt lat="39.9956541" lon="9.647719"><ele>46.0</ele><time>2026-03-28T14:25:06.309Z</time></trkpt><trkpt lat="39.9957069" lon="9.64761"><ele>46.0</ele><time>2026-03-28T14:25:07.321Z</time></trkpt><trkpt lat="39.9957549" lon="9.6474725"><ele>46.0</ele><time>2026-03-28T14:25:08.306Z</time></trkpt><trkpt lat="39.9958393" lon="9.6473407"><ele>46.5</ele><time>2026-03-28T14:25:09.306Z</time></trkpt><trkpt lat="39.9959416" lon="9.6472122"><ele>47.0</ele><time>2026-03-28T14:25:10.342Z</time></trkpt><trkpt lat="39.9960515" lon="9.6470823"><ele>47.5</ele><time>2026-03-28T14:25:11.323Z</time></trkpt><trkpt lat="39.996165" lon="9.6469491"><ele>48.0</ele><time>2026-03-28T14:25:12.315Z</time></trkpt><trkpt lat="39.9962809" lon="9.6468123"><ele>44.666666666666664</ele><time>2026-03-28T14:25:13.319Z</time></trkpt><trkpt lat="39.996396" lon="9.6466731"><ele>41.33333333333333</ele><time>2026-03-28T14:25:14.316Z</time></trkpt><trkpt lat="39.9965111" lon="9.6465362"><ele>38.0</ele><time>2026-03-28T14:25:15.315Z</time></trkpt><trkpt lat="39.9966305" lon="9.6464053"><ele>38.25</ele><time>2026-03-28T14:25:16.313Z</time></trkpt><trkpt lat="39.9967557" lon="9.6462883"><ele>38.5</ele><time>2026-03-28T14:25:17.307Z</time></trkpt><trkpt lat="39.9968836" lon="9.6461884"><ele>38.75</ele><time>2026-03-28T14:25:18.306Z</time></trkpt><trkpt lat="39.997005" lon="9.6460987"><ele>39.0</ele><time>2026-03-28T14:25:19.311Z</time></trkpt><trkpt lat="39.9971136" lon="9.646022"><ele>38.5</ele><time>2026-03-28T14:25:20.306Z</time></trkpt><trkpt lat="39.9971981" lon="9.6459189"><ele>38.0</ele><time>2026-03-28T14:25:21.313Z</time></trkpt><trkpt lat="39.9972549" lon="9.6457888"><ele>37.5</ele><time>2026-03-28T14:25:22.31Z</time></trkpt><trkpt lat="39.9972866" lon="9.6456322"><ele>37.0</ele><time>2026-03-28T14:25:23.312Z</time></trkpt><trkpt lat="39.9973178" lon="9.6454858"><ele>37.0</ele><time>2026-03-28T14:25:24.325Z</time></trkpt><trkpt lat="39.9973484" lon="9.6453471"><ele>37.0</ele><time>2026-03-28T14:25:25.313Z</time></trkpt><trkpt lat="39.9974083" lon="9.6452463"><ele>37.0</ele><time>2026-03-28T14:25:26.31Z</time></trkpt><trkpt lat="39.9974654" lon="9.6451772"><ele>37.0</ele><time>2026-03-28T14:25:27.303Z</time></trkpt><trkpt lat="39.9975447" lon="9.645109"><ele>37.0</ele><time>2026-03-28T14:25:29.312Z</time></trkpt><trkpt lat="39.9976091" lon="9.645119"><ele>37.0</ele><time>2026-03-28T14:25:31.309Z</time></trkpt><trkpt lat="39.9976645" lon="9.6452192"><ele>39.0</ele><time>2026-03-28T14:25:33.308Z</time></trkpt><trkpt lat="39.9977482" lon="9.6453298"><ele>41.0</ele><time>2026-03-28T14:25:35.32Z</time></trkpt><trkpt lat="39.9978143" lon="9.6453916"><ele>43.0</ele><time>2026-03-28T14:25:36.317Z</time></trkpt><trkpt lat="39.9978878" lon="9.6454375"><ele>45.0</ele><time>2026-03-28T14:25:37.309Z</time></trkpt><trkpt lat="39.9979866" lon="9.6454725"><ele>47.0</ele><time>2026-03-28T14:25:38.316Z</time></trkpt><trkpt lat="39.998084" lon="9.6455309"><ele>47.0</ele><time>2026-03-28T14:25:39.313Z</time></trkpt><trkpt lat="39.9981842" lon="9.6455779"><ele>47.0</ele><time>2026-03-28T14:25:40.308Z</time></trkpt><trkpt lat="39.9982861" lon="9.6456402"><ele>47.0</ele><time>2026-03-28T14:25:41.313Z</time></trkpt><trkpt lat="39.9983728" lon="9.6456938"><ele>47.0</ele><time>2026-03-28T14:25:42.314Z</time></trkpt><trkpt lat="39.9984281" lon="9.6457526"><ele>47.0</ele><time>2026-03-28T14:25:43.307Z</time></trkpt><trkpt lat="39.9985043" lon="9.6458383"><ele>48.6</ele><time>2026-03-28T14:25:45.306Z</time></trkpt><trkpt lat="39.9985664" lon="9.6459054"><ele>50.2</ele><time>2026-03-28T14:25:47.313Z</time></trkpt><trkpt lat="39.9986424" lon="9.6459653"><ele>51.8</ele><time>2026-03-28T14:25:49.316Z</time></trkpt><trkpt lat="39.9987252" lon="9.6460287"><ele>53.4</ele><time>2026-03-28T14:25:51.314Z</time></trkpt><trkpt lat="39.9988168" lon="9.6460874"><ele>55.0</ele><time>2026-03-28T14:25:53.314Z</time></trkpt><trkpt lat="39.9989165" lon="9.6461335"><ele>55.28571428571428</ele><time>2026-03-28T14:25:55.336Z</time></trkpt><trkpt lat="39.9990138" lon="9.6461841"><ele>55.57142857142857</ele><time>2026-03-28T14:25:57.31Z</time></trkpt><trkpt lat="39.9990727" lon="9.646227"><ele>55.857142857142854</ele><time>2026-03-28T14:25:58.312Z</time></trkpt><trkpt lat="39.9991363" lon="9.6462677"><ele>56.14285714285714</ele><time>2026-03-28T14:25:59.308Z</time></trkpt><trkpt lat="39.9991929" lon="9.646317"><ele>56.42857142857142</ele><time>2026-03-28T14:26:00.311Z</time></trkpt><trkpt lat="39.999249" lon="9.6463627"><ele>56.71428571428571</ele><time>2026-03-28T14:26:01.313Z</time></trkpt><trkpt lat="39.9993115" lon="9.646394"><ele>57.0</ele><time>2026-03-28T14:26:02.311Z</time></trkpt><trkpt lat="39.9994219" lon="9.6464712"><ele>59.8</ele><time>2026-03-28T14:26:04.311Z</time></trkpt><trkpt lat="39.9995286" lon="9.6465561"><ele>62.6</ele><time>2026-03-28T14:26:06.308Z</time></trkpt><trkpt lat="39.9995912" lon="9.6465912"><ele>65.39999999999999</ele><time>2026-03-28T14:26:07.313Z</time></trkpt><trkpt lat="39.9996564" lon="9.6465963"><ele>68.2</ele><time>2026-03-28T14:26:08.31Z</time></trkpt><trkpt lat="39.9997222" lon="9.6466103"><ele>71.0</ele><time>2026-03-28T14:26:09.311Z</time></trkpt><trkpt lat="39.9998617" lon="9.6466262"><ele>71.0</ele><time>2026-03-28T14:26:11.307Z</time></trkpt><trkpt lat="39.9999596" lon="9.6466502"><ele>71.0</ele><time>2026-03-28T14:26:13.313Z</time></trkpt><trkpt lat="40.0000308" lon="9.646726"><ele>71.0</ele><time>2026-03-28T14:26:15.323Z</time></trkpt><trkpt lat="40.0000815" lon="9.6467896"><ele>71.0</ele><time>2026-03-28T14:26:16.315Z</time></trkpt><trkpt lat="40.0001346" lon="9.6468795"><ele>71.0</ele><time>2026-03-28T14:26:17.309Z</time></trkpt><trkpt lat="40.0001911" lon="9.6469789"><ele>71.0</ele><time>2026-03-28T14:26:18.306Z</time></trkpt><trkpt lat="40.0002589" lon="9.6470942"><ele>71.5</ele><time>2026-03-28T14:26:19.316Z</time></trkpt><trkpt lat="40.0003341" lon="9.6472225"><ele>72.0</ele><time>2026-03-28T14:26:20.317Z</time></trkpt><trkpt lat="40.0004123" lon="9.6473712"><ele>72.5</ele><time>2026-03-28T14:26:21.339Z</time></trkpt><trkpt lat="40.0004892" lon="9.6474992"><ele>73.0</ele><time>2026-03-28T14:26:22.305Z</time></trkpt><trkpt lat="40.000554" lon="9.6476394"><ele>73.0</ele><time>2026-03-28T14:26:23.324Z</time></trkpt><trkpt lat="40.000627" lon="9.64777"><ele>73.0</ele><time>2026-03-28T14:26:24.315Z</time></trkpt><trkpt lat="40.0006903" lon="9.6479215"><ele>73.0</ele><time>2026-03-28T14:26:25.317Z</time></trkpt><trkpt lat="40.0007596" lon="9.6480633"><ele>73.0</ele><time>2026-03-28T14:26:26.31Z</time></trkpt><trkpt lat="40.0008296" lon="9.6482048"><ele>79.0</ele><time>2026-03-28T14:26:27.312Z</time></trkpt><trkpt lat="40.0009018" lon="9.648338"><ele>85.0</ele><time>2026-03-28T14:26:28.319Z</time></trkpt><trkpt lat="40.0009726" lon="9.6484831"><ele>91.0</ele><time>2026-03-28T14:26:29.319Z</time></trkpt><trkpt lat="40.0010341" lon="9.6486217"><ele>97.0</ele><time>2026-03-28T14:26:30.316Z</time></trkpt><trkpt lat="40.0010686" lon="9.6487591"><ele>98.6</ele><time>2026-03-28T14:26:31.331Z</time></trkpt><trkpt lat="40.0010888" lon="9.6489154"><ele>100.19999999999999</ele><time>2026-03-28T14:26:32.323Z</time></trkpt><trkpt lat="40.0011244" lon="9.6490529"><ele>101.8</ele><time>2026-03-28T14:26:33.313Z</time></trkpt><trkpt lat="40.0011581" lon="9.6491741"><ele>103.4</ele><time>2026-03-28T14:26:34.316Z</time></trkpt><trkpt lat="40.0011823" lon="9.6492865"><ele>105.0</ele><time>2026-03-28T14:26:35.31Z</time></trkpt><trkpt lat="40.001191" lon="9.6494018"><ele>108.0</ele><time>2026-03-28T14:26:36.307Z</time></trkpt><trkpt lat="40.0011806" lon="9.6495304"><ele>111.0</ele><time>2026-03-28T14:26:37.314Z</time></trkpt><trkpt lat="40.0011521" lon="9.6496968"><ele>114.0</ele><time>2026-03-28T14:26:38.317Z</time></trkpt><trkpt lat="40.0011214" lon="9.6498733"><ele>117.0</ele><time>2026-03-28T14:26:39.314Z</time></trkpt><trkpt lat="40.0010813" lon="9.6500631"><ele>117.0</ele><time>2026-03-28T14:26:40.324Z</time></trkpt><trkpt lat="40.00105" lon="9.6502151"><ele>116.99999999999999</ele><time>2026-03-28T14:26:41.316Z</time></trkpt><trkpt lat="40.001069" lon="9.6503473"><ele>116.99999999999999</ele><time>2026-03-28T14:26:42.312Z</time></trkpt><trkpt lat="40.0010596" lon="9.6504637"><ele>117.0</ele><time>2026-03-28T14:26:43.307Z</time></trkpt><trkpt lat="40.0010619" lon="9.6505651"><ele>117.0</ele><time>2026-03-28T14:26:44.316Z</time></trkpt><trkpt lat="40.0010817" lon="9.6506832"><ele>117.0</ele><time>2026-03-28T14:26:45.309Z</time></trkpt><trkpt lat="40.0011108" lon="9.650831"><ele>116.99999999999999</ele><time>2026-03-28T14:26:46.319Z</time></trkpt><trkpt lat="40.001141" lon="9.6509735"><ele>116.99999999999999</ele><time>2026-03-28T14:26:47.307Z</time></trkpt><trkpt lat="40.0011636" lon="9.6511181"><ele>117.0</ele><time>2026-03-28T14:26:48.316Z</time></trkpt><trkpt lat="40.0011811" lon="9.6512481"><ele>117.0</ele><time>2026-03-28T14:26:49.318Z</time></trkpt><trkpt lat="40.0011963" lon="9.6513608"><ele>115.33333333333333</ele><time>2026-03-28T14:26:50.319Z</time></trkpt><trkpt lat="40.0012131" lon="9.6514599"><ele>113.66666666666666</ele><time>2026-03-28T14:26:51.311Z</time></trkpt><trkpt lat="40.0012341" lon="9.6515622"><ele>112.0</ele><time>2026-03-28T14:26:52.311Z</time></trkpt><trkpt lat="40.0012584" lon="9.651661"><ele>110.33333333333333</ele><time>2026-03-28T14:26:53.315Z</time></trkpt><trkpt lat="40.0012796" lon="9.6517467"><ele>108.66666666666666</ele><time>2026-03-28T14:26:54.318Z</time></trkpt><trkpt lat="40.0012669" lon="9.6519245"><ele>107.0</ele><time>2026-03-28T14:26:56.313Z</time></trkpt><trkpt lat="40.0012548" lon="9.6520338"><ele>105.8</ele><time>2026-03-28T14:26:57.312Z</time></trkpt><trkpt lat="40.0012435" lon="9.6521402"><ele>104.6</ele><time>2026-03-28T14:26:58.315Z</time></trkpt><trkpt lat="40.0012249" lon="9.6522544"><ele>103.39999999999999</ele><time>2026-03-28T14:26:59.315Z</time></trkpt><trkpt lat="40.0011928" lon="9.6523746"><ele>102.19999999999999</ele><time>2026-03-28T14:27:00.344Z</time></trkpt><trkpt lat="40.0011332" lon="9.6525229"><ele>101.0</ele><time>2026-03-28T14:27:01.314Z</time></trkpt><trkpt lat="40.0010917" lon="9.6526555"><ele>101.25</ele><time>2026-03-28T14:27:02.316Z</time></trkpt><trkpt lat="40.001046" lon="9.6528111"><ele>101.5</ele><time>2026-03-28T14:27:03.321Z</time></trkpt><trkpt lat="40.0009997" lon="9.6529636"><ele>101.75</ele><time>2026-03-28T14:27:04.319Z</time></trkpt><trkpt lat="40.0009674" lon="9.653115"><ele>102.0</ele><time>2026-03-28T14:27:05.313Z</time></trkpt><trkpt lat="40.0009317" lon="9.653254"><ele>102.0</ele><time>2026-03-28T14:27:06.329Z</time></trkpt><trkpt lat="40.0009132" lon="9.6534138"><ele>102.0</ele><time>2026-03-28T14:27:07.313Z</time></trkpt><trkpt lat="40.0009019" lon="9.6535643"><ele>102.0</ele><time>2026-03-28T14:27:08.314Z</time></trkpt><trkpt lat="40.0009012" lon="9.6536923"><ele>102.0</ele><time>2026-03-28T14:27:09.305Z</time></trkpt><trkpt lat="40.000912" lon="9.6538113"><ele>102.0</ele><time>2026-03-28T14:27:10.314Z</time></trkpt><trkpt lat="40.0009461" lon="9.6539289"><ele>103.19999999999999</ele><time>2026-03-28T14:27:11.308Z</time></trkpt><trkpt lat="40.0009685" lon="9.6540274"><ele>104.4</ele><time>2026-03-28T14:27:12.316Z</time></trkpt><trkpt lat="40.0010058" lon="9.6541393"><ele>105.60000000000001</ele><time>2026-03-28T14:27:14.32Z</time></trkpt><trkpt lat="40.0010493" lon="9.6542236"><ele>106.80000000000001</ele><time>2026-03-28T14:31:51.313Z</time></trkpt><trkpt lat="40.0011173" lon="9.6543593"><ele>108.0</ele><time>2026-03-28T14:31:53.316Z</time></trkpt><trkpt lat="40.0011747" lon="9.6544453"><ele>107.4</ele><time>2026-03-28T14:31:54.307Z</time></trkpt><trkpt lat="40.0012438" lon="9.654536"><ele>106.80000000000001</ele><time>2026-03-28T14:31:55.316Z</time></trkpt><trkpt lat="40.0013186" lon="9.6546229"><ele>106.2</ele><time>2026-03-28T14:31:56.305Z</time></trkpt><trkpt lat="40.0013946" lon="9.65471"><ele>105.6</ele><time>2026-03-28T14:31:57.31Z</time></trkpt><trkpt lat="40.0014816" lon="9.6547973"><ele>105.0</ele><time>2026-03-28T14:31:58.307Z</time></trkpt><trkpt lat="40.0015694" lon="9.6548752"><ele>105.0</ele><time>2026-03-28T14:31:59.316Z</time></trkpt><trkpt lat="40.0016547" lon="9.6549558"><ele>105.0</ele><time>2026-03-28T14:32:00.316Z</time></trkpt><trkpt lat="40.0017348" lon="9.6550404"><ele>105.0</ele><time>2026-03-28T14:32:01.302Z</time></trkpt><trkpt lat="40.0018086" lon="9.6551289"><ele>105.0</ele><time>2026-03-28T14:32:02.326Z</time></trkpt><trkpt lat="40.0018735" lon="9.6552096"><ele>105.0</ele><time>2026-03-28T14:32:03.308Z</time></trkpt><trkpt lat="40.0019343" lon="9.655284"><ele>102.66666666666667</ele><time>2026-03-28T14:32:04.309Z</time></trkpt><trkpt lat="40.0020056" lon="9.6553553"><ele>100.33333333333333</ele><time>2026-03-28T14:32:05.314Z</time></trkpt><trkpt lat="40.0020687" lon="9.6554199"><ele>98.0</ele><time>2026-03-28T14:32:06.312Z</time></trkpt><trkpt lat="40.0021112" lon="9.655507"><ele>95.66666666666666</ele><time>2026-03-28T14:32:07.31Z</time></trkpt><trkpt lat="40.0021576" lon="9.6556218"><ele>93.33333333333333</ele><time>2026-03-28T14:32:08.337Z</time></trkpt><trkpt lat="40.0022066" lon="9.6557366"><ele>91.0</ele><time>2026-03-28T14:32:09.313Z</time></trkpt><trkpt lat="40.0022499" lon="9.6558293"><ele>91.0</ele><time>2026-03-28T14:32:10.307Z</time></trkpt><trkpt lat="40.0022953" lon="9.6558991"><ele>91.0</ele><time>2026-03-28T14:32:11.308Z</time></trkpt><trkpt lat="40.0023599" lon="9.6559536"><ele>91.0</ele><time>2026-03-28T14:32:12.307Z</time></trkpt><trkpt lat="40.0024394" lon="9.6560019"><ele>91.0</ele><time>2026-03-28T14:32:13.322Z</time></trkpt><trkpt lat="40.002516" lon="9.6560483"><ele>91.0</ele><time>2026-03-28T14:32:14.303Z</time></trkpt><trkpt lat="40.0025778" lon="9.6561303"><ele>91.0</ele><time>2026-03-28T14:32:15.32Z</time></trkpt><trkpt lat="40.0026433" lon="9.65622"><ele>91.0</ele><time>2026-03-28T14:32:16.311Z</time></trkpt><trkpt lat="40.0027116" lon="9.6563282"><ele>91.0</ele><time>2026-03-28T14:32:17.306Z</time></trkpt><trkpt lat="40.002772" lon="9.6564499"><ele>91.0</ele><time>2026-03-28T14:32:18.308Z</time></trkpt><trkpt lat="40.0028292" lon="9.6565839"><ele>91.0</ele><time>2026-03-28T14:32:19.311Z</time></trkpt><trkpt lat="40.0028991" lon="9.6567309"><ele>91.0</ele><time>2026-03-28T14:32:20.311Z</time></trkpt><trkpt lat="40.0029771" lon="9.6568798"><ele>91.0</ele><time>2026-03-28T14:32:21.338Z</time></trkpt><trkpt lat="40.0030545" lon="9.6570246"><ele>91.0</ele><time>2026-03-28T14:32:22.31Z</time></trkpt><trkpt lat="40.0031295" lon="9.6571585"><ele>91.0</ele><time>2026-03-28T14:32:23.318Z</time></trkpt><trkpt lat="40.0031978" lon="9.6572803"><ele>90.8</ele><time>2026-03-28T14:32:24.311Z</time></trkpt><trkpt lat="40.0032621" lon="9.6573979"><ele>90.6</ele><time>2026-03-28T14:32:25.312Z</time></trkpt><trkpt lat="40.0033209" lon="9.6575116"><ele>90.4</ele><time>2026-03-28T14:32:26.307Z</time></trkpt><trkpt lat="40.0033833" lon="9.6576236"><ele>90.2</ele><time>2026-03-28T14:32:27.31Z</time></trkpt><trkpt lat="40.0034724" lon="9.6577312"><ele>90.0</ele><time>2026-03-28T14:32:28.332Z</time></trkpt><trkpt lat="40.0035627" lon="9.6578364"><ele>90.0</ele><time>2026-03-28T14:32:29.313Z</time></trkpt><trkpt lat="40.0036579" lon="9.6579485"><ele>90.0</ele><time>2026-03-28T14:32:30.324Z</time></trkpt><trkpt lat="40.0037506" lon="9.6580587"><ele>90.0</ele><time>2026-03-28T14:32:31.304Z</time></trkpt><trkpt lat="40.0038319" lon="9.658176"><ele>90.0</ele><time>2026-03-28T14:32:32.306Z</time></trkpt><trkpt lat="40.003909" lon="9.6583016"><ele>90.0</ele><time>2026-03-28T14:32:33.305Z</time></trkpt><trkpt lat="40.0039849" lon="9.6584289"><ele>90.0</ele><time>2026-03-28T14:32:34.307Z</time></trkpt><trkpt lat="40.0040506" lon="9.6585433"><ele>90.0</ele><time>2026-03-28T14:32:35.307Z</time></trkpt><trkpt lat="40.0041133" lon="9.6586458"><ele>90.0</ele><time>2026-03-28T14:32:36.311Z</time></trkpt><trkpt lat="40.0041533" lon="9.6587493"><ele>90.0</ele><time>2026-03-28T14:32:37.309Z</time></trkpt><trkpt lat="40.004193" lon="9.6588574"><ele>89.0</ele><time>2026-03-28T14:32:38.301Z</time></trkpt><trkpt lat="40.0042304" lon="9.6589522"><ele>88.0</ele><time>2026-03-28T14:32:39.309Z</time></trkpt><trkpt lat="40.0042916" lon="9.6590516"><ele>87.0</ele><time>2026-03-28T14:32:41.322Z</time></trkpt><trkpt lat="40.0042334" lon="9.6590849"><ele>86.0</ele><time>2026-03-28T14:33:17.307Z</time></trkpt><trkpt lat="40.0041667" lon="9.6590307"><ele>85.0</ele><time>2026-03-28T14:33:19.309Z</time></trkpt><trkpt lat="40.0040636" lon="9.6589642"><ele>84.0</ele><time>2026-03-28T14:33:21.328Z</time></trkpt><trkpt lat="40.0039818" lon="9.6589118"><ele>84.0</ele><time>2026-03-28T14:33:22.307Z</time></trkpt><trkpt lat="40.0038883" lon="9.6588508"><ele>84.0</ele><time>2026-03-28T14:33:23.305Z</time></trkpt><trkpt lat="40.0038044" lon="9.6587957"><ele>84.0</ele><time>2026-03-28T14:33:24.318Z</time></trkpt><trkpt lat="40.0037138" lon="9.6587357"><ele>84.0</ele><time>2026-03-28T14:33:25.306Z</time></trkpt><trkpt lat="40.0036227" lon="9.6586783"><ele>84.0</ele><time>2026-03-28T14:33:26.304Z</time></trkpt><trkpt lat="40.0035287" lon="9.6586122"><ele>85.2</ele><time>2026-03-28T14:33:27.307Z</time></trkpt><trkpt lat="40.0034329" lon="9.6585531"><ele>86.4</ele><time>2026-03-28T14:33:28.308Z</time></trkpt><trkpt lat="40.0033447" lon="9.6585019"><ele>87.6</ele><time>2026-03-28T14:33:29.314Z</time></trkpt><trkpt lat="40.0032653" lon="9.6584545"><ele>88.8</ele><time>2026-03-28T14:33:30.308Z</time></trkpt><trkpt lat="40.0031925" lon="9.658393"><ele>90.0</ele><time>2026-03-28T14:33:31.315Z</time></trkpt><trkpt lat="40.003104" lon="9.658313"><ele>87.4</ele><time>2026-03-28T14:33:32.301Z</time></trkpt><trkpt lat="40.0030134" lon="9.6582371"><ele>84.8</ele><time>2026-03-28T14:33:33.312Z</time></trkpt><trkpt lat="40.0029256" lon="9.6581746"><ele>82.2</ele><time>2026-03-28T14:33:34.304Z</time></trkpt><trkpt lat="40.002834" lon="9.6581182"><ele>79.6</ele><time>2026-03-28T14:33:35.307Z</time></trkpt><trkpt lat="40.0027249" lon="9.6580631"><ele>77.0</ele><time>2026-03-28T14:33:36.302Z</time></trkpt><trkpt lat="40.0026233" lon="9.6580093"><ele>77.0</ele><time>2026-03-28T14:33:37.315Z</time></trkpt><trkpt lat="40.0025413" lon="9.6579708"><ele>77.0</ele><time>2026-03-28T14:33:38.31Z</time></trkpt><trkpt lat="40.0024908" lon="9.6580656"><ele>77.0</ele><time>2026-03-28T14:33:44.31Z</time></trkpt><trkpt lat="40.0025134" lon="9.6582148"><ele>77.0</ele><time>2026-03-28T14:33:46.316Z</time></trkpt><trkpt lat="40.0025281" lon="9.6583763"><ele>77.0</ele><time>2026-03-28T14:33:48.327Z</time></trkpt><trkpt lat="40.0025381" lon="9.6584942"><ele>77.66666666666667</ele><time>2026-03-28T14:33:49.302Z</time></trkpt><trkpt lat="40.0025469" lon="9.6586191"><ele>78.33333333333334</ele><time>2026-03-28T14:33:50.303Z</time></trkpt><trkpt lat="40.0025557" lon="9.6587374"><ele>79.0</ele><time>2026-03-28T14:33:51.308Z</time></trkpt><trkpt lat="40.0025639" lon="9.6588343"><ele>79.66666666666667</ele><time>2026-03-28T14:33:52.312Z</time></trkpt><trkpt lat="40.0025683" lon="9.6589362"><ele>80.33333333333333</ele><time>2026-03-28T14:33:53.341Z</time></trkpt><trkpt lat="40.0025586" lon="9.6590405"><ele>81.0</ele><time>2026-03-28T14:33:54.303Z</time></trkpt><trkpt lat="40.0025308" lon="9.6591654"><ele>81.0</ele><time>2026-03-28T14:33:55.306Z</time></trkpt><trkpt lat="40.0024982" lon="9.6592929"><ele>81.0</ele><time>2026-03-28T14:33:56.301Z</time></trkpt><trkpt lat="40.002465" lon="9.6594067"><ele>81.0</ele><time>2026-03-28T14:33:57.308Z</time></trkpt><trkpt lat="40.0024185" lon="9.6594965"><ele>81.0</ele><time>2026-03-28T14:33:58.302Z</time></trkpt><trkpt lat="40.002364" lon="9.6595535"><ele>81.0</ele><time>2026-03-28T14:33:59.307Z</time></trkpt><trkpt lat="40.0023039" lon="9.6595838"><ele>81.0</ele><time>2026-03-28T14:34:01.31Z</time></trkpt><trkpt lat="40.0022271" lon="9.659624"><ele>81.4</ele><time>2026-03-28T14:34:04.315Z</time></trkpt><trkpt lat="40.0021126" lon="9.6597029"><ele>81.8</ele><time>2026-03-28T14:34:06.315Z</time></trkpt><trkpt lat="40.0020384" lon="9.6597321"><ele>82.2</ele><time>2026-03-28T14:34:07.303Z</time></trkpt><trkpt lat="40.0019506" lon="9.6597538"><ele>82.60000000000001</ele><time>2026-03-28T14:34:08.308Z</time></trkpt><trkpt lat="40.0018748" lon="9.6597839"><ele>83.0</ele><time>2026-03-28T14:34:09.305Z</time></trkpt><trkpt lat="40.0017989" lon="9.6598134"><ele>83.0</ele><time>2026-03-28T14:34:10.329Z</time></trkpt><trkpt lat="40.0017352" lon="9.6598299"><ele>83.0</ele><time>2026-03-28T14:34:11.309Z</time></trkpt><trkpt lat="40.0016692" lon="9.6598674"><ele>83.0</ele><time>2026-03-28T14:34:13.307Z</time></trkpt><trkpt lat="40.0016771" lon="9.6599645"><ele>83.0</ele><time>2026-03-28T14:34:15.311Z</time></trkpt><trkpt lat="40.0016857" lon="9.6600991"><ele>83.0</ele><time>2026-03-28T14:34:17.304Z</time></trkpt><trkpt lat="40.0016921" lon="9.6602471"><ele>83.0</ele><time>2026-03-28T14:34:19.312Z</time></trkpt><trkpt lat="40.001692" lon="9.660335"><ele>84.33333333333334</ele><time>2026-03-28T14:34:20.305Z</time></trkpt><trkpt lat="40.0016884" lon="9.6604431"><ele>85.66666666666667</ele><time>2026-03-28T14:34:21.332Z</time></trkpt><trkpt lat="40.0016848" lon="9.6605512"><ele>87.0</ele><time>2026-03-28T14:34:22.31Z</time></trkpt><trkpt lat="40.0016859" lon="9.6606641"><ele>88.33333333333333</ele><time>2026-03-28T14:34:23.302Z</time></trkpt><trkpt lat="40.0016849" lon="9.6607843"><ele>89.66666666666666</ele><time>2026-03-28T14:34:24.31Z</time></trkpt><trkpt lat="40.0016724" lon="9.66091"><ele>91.0</ele><time>2026-03-28T14:34:25.312Z</time></trkpt><trkpt lat="40.0016655" lon="9.6610262"><ele>91.4</ele><time>2026-03-28T14:34:26.305Z</time></trkpt><trkpt lat="40.0016632" lon="9.6611378"><ele>91.8</ele><time>2026-03-28T14:34:27.327Z</time></trkpt><trkpt lat="40.0016599" lon="9.6612578"><ele>92.2</ele><time>2026-03-28T14:34:28.305Z</time></trkpt><trkpt lat="40.0016547" lon="9.6613866"><ele>92.60000000000001</ele><time>2026-03-28T14:34:29.315Z</time></trkpt><trkpt lat="40.0016502" lon="9.6615135"><ele>93.0</ele><time>2026-03-28T14:34:30.301Z</time></trkpt><trkpt lat="40.0016467" lon="9.6616381"><ele>93.0</ele><time>2026-03-28T14:34:31.307Z</time></trkpt><trkpt lat="40.001653" lon="9.6617778"><ele>93.0</ele><time>2026-03-28T14:34:32.301Z</time></trkpt><trkpt lat="40.0016591" lon="9.6619198"><ele>93.0</ele><time>2026-03-28T14:34:33.304Z</time></trkpt><trkpt lat="40.0016652" lon="9.662066"><ele>93.0</ele><time>2026-03-28T14:34:34.307Z</time></trkpt><trkpt lat="40.0016711" lon="9.6622039"><ele>93.0</ele><time>2026-03-28T14:34:35.32Z</time></trkpt><trkpt lat="40.0016699" lon="9.6623281"><ele>94.0</ele><time>2026-03-28T14:34:36.308Z</time></trkpt><trkpt lat="40.001663" lon="9.6624285"><ele>95.0</ele><time>2026-03-28T14:34:37.329Z</time></trkpt><trkpt lat="40.0016442" lon="9.6625199"><ele>96.0</ele><time>2026-03-28T14:34:38.299Z</time></trkpt><trkpt lat="40.0016134" lon="9.6626132"><ele>97.0</ele><time>2026-03-28T14:34:39.305Z</time></trkpt><trkpt lat="40.0015844" lon="9.6627168"><ele>98.0</ele><time>2026-03-28T14:34:40.309Z</time></trkpt><trkpt lat="40.0015734" lon="9.6628136"><ele>99.0</ele><time>2026-03-28T14:34:41.31Z</time></trkpt><trkpt lat="40.0015651" lon="9.6628988"><ele>99.0</ele><time>2026-03-28T14:34:42.303Z</time></trkpt><trkpt lat="40.0016154" lon="9.6630333"><ele>99.0</ele><time>2026-03-28T14:34:44.308Z</time></trkpt><trkpt lat="40.0016751" lon="9.6630912"><ele>99.0</ele><time>2026-03-28T14:34:45.308Z</time></trkpt><trkpt lat="40.0017592" lon="9.6631608"><ele>99.0</ele><time>2026-03-28T14:34:46.309Z</time></trkpt><trkpt lat="40.0018473" lon="9.6632352"><ele>99.0</ele><time>2026-03-28T14:34:47.306Z</time></trkpt><trkpt lat="40.0019375" lon="9.6633141"><ele>101.2</ele><time>2026-03-28T14:34:48.307Z</time></trkpt><trkpt lat="40.002021" lon="9.663385"><ele>103.4</ele><time>2026-03-28T14:34:49.306Z</time></trkpt><trkpt lat="40.002096" lon="9.6634576"><ele>105.6</ele><time>2026-03-28T14:34:50.306Z</time></trkpt><trkpt lat="40.0021532" lon="9.6635377"><ele>107.8</ele><time>2026-03-28T14:34:51.302Z</time></trkpt><trkpt lat="40.0022124" lon="9.6636454"><ele>110.0</ele><time>2026-03-28T14:34:52.305Z</time></trkpt><trkpt lat="40.0022773" lon="9.6637738"><ele>110.0</ele><time>2026-03-28T14:34:53.312Z</time></trkpt><trkpt lat="40.002342" lon="9.6639009"><ele>110.0</ele><time>2026-03-28T14:34:54.308Z</time></trkpt><trkpt lat="40.0023929" lon="9.6640035"><ele>110.0</ele><time>2026-03-28T14:34:55.311Z</time></trkpt><trkpt lat="40.0024235" lon="9.6640852"><ele>110.0</ele><time>2026-03-28T14:34:56.308Z</time></trkpt><trkpt lat="40.0024386" lon="9.6642576"><ele>110.0</ele><time>2026-03-28T14:34:58.306Z</time></trkpt><trkpt lat="40.0024246" lon="9.664351"><ele>109.6</ele><time>2026-03-28T14:34:59.31Z</time></trkpt><trkpt lat="40.0024142" lon="9.6644642"><ele>109.2</ele><time>2026-03-28T14:35:01.3Z</time></trkpt><trkpt lat="40.0024928" lon="9.6644498"><ele>108.80000000000001</ele><time>2026-03-28T14:35:12.311Z</time></trkpt><trkpt lat="40.0026014" lon="9.6644019"><ele>108.4</ele><time>2026-03-28T14:35:14.317Z</time></trkpt><trkpt lat="40.0026834" lon="9.6643796"><ele>108.0</ele><time>2026-03-28T14:35:15.309Z</time></trkpt><trkpt lat="40.0028046" lon="9.66436"><ele>111.4</ele><time>2026-03-28T14:35:16.312Z</time></trkpt><trkpt lat="40.002924" lon="9.6643519"><ele>114.80000000000001</ele><time>2026-03-28T14:35:17.309Z</time></trkpt><trkpt lat="40.0030343" lon="9.6643551"><ele>118.2</ele><time>2026-03-28T14:35:18.315Z</time></trkpt><trkpt lat="40.0031339" lon="9.6643489"><ele>121.6</ele><time>2026-03-28T14:35:19.303Z</time></trkpt><trkpt lat="40.0032246" lon="9.6643186"><ele>125.0</ele><time>2026-03-28T14:35:20.328Z</time></trkpt><trkpt lat="40.0033043" lon="9.6642902"><ele>125.99999999999999</ele><time>2026-03-28T14:35:21.308Z</time></trkpt><trkpt lat="40.0033807" lon="9.6642633"><ele>127.0</ele><time>2026-03-28T14:35:22.305Z</time></trkpt><trkpt lat="40.0034572" lon="9.6642762"><ele>128.0</ele><time>2026-03-28T14:35:23.303Z</time></trkpt><trkpt lat="40.0035433" lon="9.6643263"><ele>129.0</ele><time>2026-03-28T14:35:24.31Z</time></trkpt><trkpt lat="40.003616" lon="9.6643597"><ele>130.0</ele><time>2026-03-28T14:35:25.307Z</time></trkpt><trkpt lat="40.0036805" lon="9.6643644"><ele>131.0</ele><time>2026-03-28T14:35:26.308Z</time></trkpt><trkpt lat="40.0037746" lon="9.6643039"><ele>131.0</ele><time>2026-03-28T14:35:28.307Z</time></trkpt><trkpt lat="40.003802" lon="9.6642148"><ele>131.0</ele><time>2026-03-28T14:35:29.329Z</time></trkpt><trkpt lat="40.0038226" lon="9.6640947"><ele>131.0</ele><time>2026-03-28T14:35:30.31Z</time></trkpt><trkpt lat="40.0038323" lon="9.6639495"><ele>131.0</ele><time>2026-03-28T14:35:31.311Z</time></trkpt><trkpt lat="40.0038392" lon="9.6638129"><ele>131.0</ele><time>2026-03-28T14:35:32.312Z</time></trkpt><trkpt lat="40.0038442" lon="9.6636828"><ele>127.75</ele><time>2026-03-28T14:35:33.308Z</time></trkpt><trkpt lat="40.0038727" lon="9.6635544"><ele>124.5</ele><time>2026-03-28T14:35:34.302Z</time></trkpt><trkpt lat="40.0039339" lon="9.6634139"><ele>121.25</ele><time>2026-03-28T14:35:35.311Z</time></trkpt><trkpt lat="40.0040304" lon="9.6632732"><ele>118.0</ele><time>2026-03-28T14:35:36.318Z</time></trkpt><trkpt lat="40.0041247" lon="9.6631371"><ele>121.2</ele><time>2026-03-28T14:35:37.302Z</time></trkpt><trkpt lat="40.0041966" lon="9.6630436"><ele>124.4</ele><time>2026-03-28T14:35:38.316Z</time></trkpt><trkpt lat="40.0042636" lon="9.6630203"><ele>127.60000000000001</ele><time>2026-03-28T14:35:39.309Z</time></trkpt><trkpt lat="40.0043796" lon="9.6630516"><ele>130.8</ele><time>2026-03-28T14:35:41.313Z</time></trkpt><trkpt lat="40.0044547" lon="9.6631329"><ele>134.0</ele><time>2026-03-28T14:35:43.312Z</time></trkpt><trkpt lat="40.0045056" lon="9.6632114"><ele>134.0</ele><time>2026-03-28T14:35:46.31Z</time></trkpt><trkpt lat="40.0045454" lon="9.6632812"><ele>134.0</ele><time>2026-03-28T14:35:48.306Z</time></trkpt><trkpt lat="40.0045998" lon="9.6633448"><ele>134.0</ele><time>2026-03-28T14:35:49.314Z</time></trkpt><trkpt lat="40.0046691" lon="9.6634255"><ele>134.0</ele><time>2026-03-28T14:35:50.304Z</time></trkpt><trkpt lat="40.0047466" lon="9.6635361"><ele>134.0</ele><time>2026-03-28T14:35:51.322Z</time></trkpt><trkpt lat="40.004828" lon="9.6636464"><ele>137.25</ele><time>2026-03-28T14:35:52.306Z</time></trkpt><trkpt lat="40.0049164" lon="9.6637314"><ele>140.5</ele><time>2026-03-28T14:35:53.312Z</time></trkpt><trkpt lat="40.0050069" lon="9.663816"><ele>143.75</ele><time>2026-03-28T14:35:54.308Z</time></trkpt><trkpt lat="40.0051258" lon="9.6638559"><ele>147.0</ele><time>2026-03-28T14:35:55.317Z</time></trkpt><trkpt lat="40.0052458" lon="9.6638952"><ele>147.0</ele><time>2026-03-28T14:35:56.31Z</time></trkpt><trkpt lat="40.0053477" lon="9.6639448"><ele>147.0</ele><time>2026-03-28T14:35:57.341Z</time></trkpt><trkpt lat="40.0054312" lon="9.6640118"><ele>147.0</ele><time>2026-03-28T14:35:58.307Z</time></trkpt><trkpt lat="40.0055136" lon="9.664091"><ele>147.0</ele><time>2026-03-28T14:35:59.317Z</time></trkpt><trkpt lat="40.0055835" lon="9.664145"><ele>147.0</ele><time>2026-03-28T14:36:00.316Z</time></trkpt><trkpt lat="40.0056428" lon="9.6641888"><ele>147.0</ele><time>2026-03-28T14:36:01.319Z</time></trkpt><trkpt lat="40.0057626" lon="9.6641087"><ele>147.0</ele><time>2026-03-28T14:36:03.336Z</time></trkpt><trkpt lat="40.0058252" lon="9.664019"><ele>147.0</ele><time>2026-03-28T14:36:04.314Z</time></trkpt><trkpt lat="40.0058778" lon="9.6638979"><ele>147.0</ele><time>2026-03-28T14:36:05.31Z</time></trkpt><trkpt lat="40.0059337" lon="9.6637633"><ele>146.33333333333334</ele><time>2026-03-28T14:36:06.311Z</time></trkpt><trkpt lat="40.0059755" lon="9.6636172"><ele>145.66666666666666</ele><time>2026-03-28T14:36:07.315Z</time></trkpt><trkpt lat="40.0060265" lon="9.6635191"><ele>145.0</ele><time>2026-03-28T14:36:08.309Z</time></trkpt><trkpt lat="40.0060689" lon="9.6634371"><ele>144.33333333333331</ele><time>2026-03-28T14:36:09.307Z</time></trkpt><trkpt lat="40.0061486" lon="9.6634472"><ele>143.66666666666666</ele><time>2026-03-28T14:36:14.314Z</time></trkpt><trkpt lat="40.0061619" lon="9.6635352"><ele>143.0</ele><time>2026-03-28T14:36:16.314Z</time></trkpt><trkpt lat="40.006161" lon="9.663705"><ele>143.0</ele><time>2026-03-28T14:36:18.312Z</time></trkpt><trkpt lat="40.006169" lon="9.6638326"><ele>143.0</ele><time>2026-03-28T14:36:19.315Z</time></trkpt><trkpt lat="40.006175" lon="9.6639764"><ele>143.0</ele><time>2026-03-28T14:36:20.317Z</time></trkpt><trkpt lat="40.0061767" lon="9.6641395"><ele>143.0</ele><time>2026-03-28T14:36:21.312Z</time></trkpt><trkpt lat="40.0061771" lon="9.6642976"><ele>143.0</ele><time>2026-03-28T14:36:22.311Z</time></trkpt><trkpt lat="40.006181" lon="9.6644358"><ele>143.0</ele><time>2026-03-28T14:36:23.31Z</time></trkpt><trkpt lat="40.0061955" lon="9.6645496"><ele>143.0</ele><time>2026-03-28T14:36:24.333Z</time></trkpt><trkpt lat="40.0062278" lon="9.6646533"><ele>143.0</ele><time>2026-03-28T14:36:25.307Z</time></trkpt><trkpt lat="40.0062784" lon="9.6647691"><ele>143.0</ele><time>2026-03-28T14:36:26.31Z</time></trkpt><trkpt lat="40.0063366" lon="9.6648992"><ele>147.75</ele><time>2026-03-28T14:36:27.313Z</time></trkpt><trkpt lat="40.0064003" lon="9.6650418"><ele>152.5</ele><time>2026-03-28T14:36:28.317Z</time></trkpt><trkpt lat="40.0064677" lon="9.6651967"><ele>157.25</ele><time>2026-03-28T14:36:29.315Z</time></trkpt><trkpt lat="40.0065322" lon="9.6653591"><ele>162.0</ele><time>2026-03-28T14:36:30.32Z</time></trkpt><trkpt lat="40.006585" lon="9.6655131"><ele>163.0</ele><time>2026-03-28T14:36:31.308Z</time></trkpt><trkpt lat="40.0066247" lon="9.6656658"><ele>164.0</ele><time>2026-03-28T14:36:32.333Z</time></trkpt><trkpt lat="40.0066466" lon="9.6658151"><ele>165.0</ele><time>2026-03-28T14:36:33.305Z</time></trkpt><trkpt lat="40.0066658" lon="9.6659496"><ele>166.0</ele><time>2026-03-28T14:36:34.321Z</time></trkpt><trkpt lat="40.0066989" lon="9.6660523"><ele>167.0</ele><time>2026-03-28T14:36:35.31Z</time></trkpt><trkpt lat="40.0067519" lon="9.6661514"><ele>169.6</ele><time>2026-03-28T14:36:36.305Z</time></trkpt><trkpt lat="40.0068149" lon="9.6662602"><ele>172.2</ele><time>2026-03-28T14:36:37.311Z</time></trkpt><trkpt lat="40.0068597" lon="9.6663843"><ele>174.8</ele><time>2026-03-28T14:36:38.316Z</time></trkpt><trkpt lat="40.0068856" lon="9.6665177"><ele>177.4</ele><time>2026-03-28T14:36:39.309Z</time></trkpt><trkpt lat="40.0068981" lon="9.6666425"><ele>180.0</ele><time>2026-03-28T14:36:40.327Z</time></trkpt><trkpt lat="40.0069089" lon="9.6667578"><ele>180.0</ele><time>2026-03-28T14:36:41.31Z</time></trkpt><trkpt lat="40.0069225" lon="9.6668479"><ele>180.0</ele><time>2026-03-28T14:36:42.316Z</time></trkpt><trkpt lat="40.0070097" lon="9.6669856"><ele>180.0</ele><time>2026-03-28T14:36:44.319Z</time></trkpt><trkpt lat="40.0070705" lon="9.667069"><ele>180.0</ele><time>2026-03-28T14:36:45.313Z</time></trkpt><trkpt lat="40.0071345" lon="9.6672073"><ele>180.0</ele><time>2026-03-28T14:36:46.313Z</time></trkpt><trkpt lat="40.0071968" lon="9.6673332"><ele>183.6</ele><time>2026-03-28T14:36:47.315Z</time></trkpt><trkpt lat="40.0072628" lon="9.6674471"><ele>187.2</ele><time>2026-03-28T14:36:48.309Z</time></trkpt><trkpt lat="40.0073219" lon="9.66755"><ele>190.8</ele><time>2026-03-28T14:36:49.306Z</time></trkpt><trkpt lat="40.0073778" lon="9.667653"><ele>194.4</ele><time>2026-03-28T14:36:50.314Z</time></trkpt><trkpt lat="40.0074152" lon="9.6677968"><ele>198.0</ele><time>2026-03-28T14:36:51.309Z</time></trkpt><trkpt lat="40.0074477" lon="9.6679534"><ele>196.8</ele><time>2026-03-28T14:36:52.329Z</time></trkpt><trkpt lat="40.0074821" lon="9.6681133"><ele>195.60000000000002</ele><time>2026-03-28T14:36:53.304Z</time></trkpt><trkpt lat="40.0075136" lon="9.6682645"><ele>194.39999999999998</ele><time>2026-03-28T14:36:54.319Z</time></trkpt><trkpt lat="40.0075405" lon="9.6683788"><ele>193.2</ele><time>2026-03-28T14:36:55.309Z</time></trkpt><trkpt lat="40.0075682" lon="9.6684635"><ele>192.0</ele><time>2026-03-28T14:36:56.31Z</time></trkpt><trkpt lat="40.0076248" lon="9.6685502"><ele>197.6</ele><time>2026-03-28T14:36:57.312Z</time></trkpt><trkpt lat="40.0076834" lon="9.6686339"><ele>203.2</ele><time>2026-03-28T14:36:58.312Z</time></trkpt><trkpt lat="40.0077536" lon="9.6687378"><ele>208.8</ele><time>2026-03-28T14:36:59.3Z</time></trkpt><trkpt lat="40.0078075" lon="9.6688585"><ele>214.4</ele><time>2026-03-28T14:37:00.312Z</time></trkpt><trkpt lat="40.0078521" lon="9.6689539"><ele>220.0</ele><time>2026-03-28T14:37:01.303Z</time></trkpt><trkpt lat="40.0079095" lon="9.6690325"><ele>219.99999999999997</ele><time>2026-03-28T14:37:02.303Z</time></trkpt><trkpt lat="40.0079903" lon="9.6690693"><ele>220.0</ele><time>2026-03-28T14:37:04.306Z</time></trkpt><trkpt lat="40.0080688" lon="9.6689778"><ele>220.0</ele><time>2026-03-28T14:37:06.318Z</time></trkpt><trkpt lat="40.0081109" lon="9.668882"><ele>220.0</ele><time>2026-03-28T14:37:07.311Z</time></trkpt><trkpt lat="40.0081608" lon="9.6687858"><ele>219.99999999999997</ele><time>2026-03-28T14:37:08.307Z</time></trkpt><trkpt lat="40.0082091" lon="9.6687046"><ele>220.0</ele><time>2026-03-28T14:37:09.318Z</time></trkpt><trkpt lat="40.0082858" lon="9.6686421"><ele>219.16666666666666</ele><time>2026-03-28T14:37:11.305Z</time></trkpt><trkpt lat="40.0083617" lon="9.668662"><ele>218.33333333333331</ele><time>2026-03-28T14:37:12.312Z</time></trkpt><trkpt lat="40.0084484" lon="9.6687045"><ele>217.5</ele><time>2026-03-28T14:37:13.315Z</time></trkpt><trkpt lat="40.0085245" lon="9.6687409"><ele>216.66666666666669</ele><time>2026-03-28T14:37:14.303Z</time></trkpt><trkpt lat="40.00858" lon="9.6687806"><ele>215.83333333333334</ele><time>2026-03-28T14:37:15.313Z</time></trkpt><trkpt lat="40.0086629" lon="9.6687976"><ele>215.0</ele><time>2026-03-28T14:37:17.305Z</time></trkpt><trkpt lat="40.008707" lon="9.6686585"><ele>210.8</ele><time>2026-03-28T14:37:19.321Z</time></trkpt><trkpt lat="40.0087354" lon="9.6685625"><ele>206.6</ele><time>2026-03-28T14:37:20.313Z</time></trkpt><trkpt lat="40.0087915" lon="9.6684668"><ele>202.39999999999998</ele><time>2026-03-28T14:37:21.303Z</time></trkpt><trkpt lat="40.0088546" lon="9.6683465"><ele>198.2</ele><time>2026-03-28T14:37:22.308Z</time></trkpt><trkpt lat="40.0088994" lon="9.6682135"><ele>194.0</ele><time>2026-03-28T14:37:23.322Z</time></trkpt><trkpt lat="40.0089366" lon="9.6680662"><ele>194.0</ele><time>2026-03-28T14:37:24.303Z</time></trkpt><trkpt lat="40.0089766" lon="9.667906"><ele>194.0</ele><time>2026-03-28T14:37:25.322Z</time></trkpt><trkpt lat="40.0090201" lon="9.6677424"><ele>194.0</ele><time>2026-03-28T14:37:26.303Z</time></trkpt><trkpt lat="40.0090613" lon="9.6675874"><ele>194.0</ele><time>2026-03-28T14:37:27.313Z</time></trkpt><trkpt lat="40.0090937" lon="9.667436"><ele>196.2</ele><time>2026-03-28T14:37:28.317Z</time></trkpt><trkpt lat="40.0091218" lon="9.6673004"><ele>198.39999999999998</ele><time>2026-03-28T14:37:29.312Z</time></trkpt><trkpt lat="40.0091481" lon="9.6671811"><ele>200.6</ele><time>2026-03-28T14:37:30.318Z</time></trkpt><trkpt lat="40.009183" lon="9.667069"><ele>202.8</ele><time>2026-03-28T14:37:31.312Z</time></trkpt><trkpt lat="40.0092197" lon="9.6669569"><ele>205.0</ele><time>2026-03-28T14:37:32.306Z</time></trkpt><trkpt lat="40.0092408" lon="9.6668481"><ele>204.99999999999997</ele><time>2026-03-28T14:37:33.308Z</time></trkpt><trkpt lat="40.0092595" lon="9.666748"><ele>205.0</ele><time>2026-03-28T14:37:34.31Z</time></trkpt><trkpt lat="40.009262" lon="9.6666529"><ele>205.0</ele><time>2026-03-28T14:37:35.322Z</time></trkpt><trkpt lat="40.0092667" lon="9.6665484"><ele>205.0</ele><time>2026-03-28T14:37:36.306Z</time></trkpt><trkpt lat="40.0092797" lon="9.6664502"><ele>204.99999999999997</ele><time>2026-03-28T14:37:37.342Z</time></trkpt><trkpt lat="40.0092926" lon="9.6663578"><ele>205.0</ele><time>2026-03-28T14:37:38.309Z</time></trkpt><trkpt lat="40.0093255" lon="9.666275"><ele>204.99999999999997</ele><time>2026-03-28T14:37:39.316Z</time></trkpt><trkpt lat="40.0093667" lon="9.6661962"><ele>205.0</ele><time>2026-03-28T14:37:40.319Z</time></trkpt><trkpt lat="40.0094309" lon="9.6661151"><ele>205.0</ele><time>2026-03-28T14:37:41.314Z</time></trkpt><trkpt lat="40.0094825" lon="9.6660442"><ele>205.0</ele><time>2026-03-28T14:37:42.327Z</time></trkpt><trkpt lat="40.0095147" lon="9.665918"><ele>204.99999999999997</ele><time>2026-03-28T14:37:44.306Z</time></trkpt><trkpt lat="40.0094994" lon="9.6657936"><ele>205.0</ele><time>2026-03-28T14:37:46.308Z</time></trkpt><trkpt lat="40.0094477" lon="9.665667"><ele>204.33333333333331</ele><time>2026-03-28T14:37:48.318Z</time></trkpt><trkpt lat="40.0094148" lon="9.6655942"><ele>203.66666666666666</ele><time>2026-03-28T14:37:49.315Z</time></trkpt><trkpt lat="40.0093809" lon="9.6655221"><ele>203.0</ele><time>2026-03-28T14:37:50.308Z</time></trkpt><trkpt lat="40.009346" lon="9.6654512"><ele>202.33333333333331</ele><time>2026-03-28T14:37:51.315Z</time></trkpt><trkpt lat="40.0092824" lon="9.665321"><ele>201.66666666666666</ele><time>2026-03-28T14:37:53.314Z</time></trkpt><trkpt lat="40.0092177" lon="9.6652068"><ele>201.0</ele><time>2026-03-28T14:37:55.334Z</time></trkpt><trkpt lat="40.0091537" lon="9.6651188"><ele>197.4</ele><time>2026-03-28T14:37:57.309Z</time></trkpt><trkpt lat="40.0090966" lon="9.6650443"><ele>193.8</ele><time>2026-03-28T14:37:59.317Z</time></trkpt><trkpt lat="40.0090429" lon="9.6649741"><ele>190.20000000000002</ele><time>2026-03-28T14:38:01.313Z</time></trkpt><trkpt lat="40.0089821" lon="9.6649011"><ele>186.60000000000002</ele><time>2026-03-28T14:38:03.311Z</time></trkpt><trkpt lat="40.0088886" lon="9.6647684"><ele>183.0</ele><time>2026-03-28T14:38:05.32Z</time></trkpt><trkpt lat="40.0088455" lon="9.6646699"><ele>183.0</ele><time>2026-03-28T14:38:06.308Z</time></trkpt><trkpt lat="40.0088085" lon="9.6645594"><ele>183.0</ele><time>2026-03-28T14:38:07.315Z</time></trkpt><trkpt lat="40.008781" lon="9.6644324"><ele>183.0</ele><time>2026-03-28T14:38:08.314Z</time></trkpt><trkpt lat="40.0087537" lon="9.6642862"><ele>183.0</ele><time>2026-03-28T14:38:09.307Z</time></trkpt><trkpt lat="40.0087233" lon="9.6641322"><ele>183.0</ele><time>2026-03-28T14:38:10.328Z</time></trkpt><trkpt lat="40.0086923" lon="9.6639756"><ele>182.0</ele><time>2026-03-28T14:38:11.305Z</time></trkpt><trkpt lat="40.0086593" lon="9.6638192"><ele>181.0</ele><time>2026-03-28T14:38:12.318Z</time></trkpt><trkpt lat="40.0086243" lon="9.6636567"><ele>180.0</ele><time>2026-03-28T14:38:13.312Z</time></trkpt><trkpt lat="40.0085847" lon="9.6634932"><ele>179.0</ele><time>2026-03-28T14:38:14.318Z</time></trkpt><trkpt lat="40.0085469" lon="9.6633565"><ele>178.79999999999998</ele><time>2026-03-28T14:38:15.314Z</time></trkpt><trkpt lat="40.0085244" lon="9.6632315"><ele>178.6</ele><time>2026-03-28T14:38:16.314Z</time></trkpt><trkpt lat="40.0085053" lon="9.6631135"><ele>178.4</ele><time>2026-03-28T14:38:17.316Z</time></trkpt><trkpt lat="40.0085073" lon="9.6629769"><ele>178.2</ele><time>2026-03-28T14:38:18.314Z</time></trkpt><trkpt lat="40.0084977" lon="9.6628367"><ele>178.0</ele><time>2026-03-28T14:38:19.308Z</time></trkpt><trkpt lat="40.0084802" lon="9.6627229"><ele>178.33333333333334</ele><time>2026-03-28T14:38:20.318Z</time></trkpt><trkpt lat="40.0084505" lon="9.6626223"><ele>178.66666666666669</ele><time>2026-03-28T14:38:21.307Z</time></trkpt><trkpt lat="40.0084171" lon="9.6625427"><ele>179.0</ele><time>2026-03-28T14:38:22.306Z</time></trkpt><trkpt lat="40.0083715" lon="9.6624625"><ele>179.33333333333334</ele><time>2026-03-28T14:38:23.309Z</time></trkpt><trkpt lat="40.0083239" lon="9.6623731"><ele>179.66666666666666</ele><time>2026-03-28T14:38:24.309Z</time></trkpt><trkpt lat="40.0082684" lon="9.6622675"><ele>180.0</ele><time>2026-03-28T14:38:25.328Z</time></trkpt><trkpt lat="40.0082125" lon="9.6621395"><ele>172.75</ele><time>2026-03-28T14:38:26.314Z</time></trkpt><trkpt lat="40.0081523" lon="9.6619897"><ele>165.5</ele><time>2026-03-28T14:38:27.31Z</time></trkpt><trkpt lat="40.0080863" lon="9.6618373"><ele>158.25</ele><time>2026-03-28T14:38:28.303Z</time></trkpt><trkpt lat="40.008014" lon="9.6616975"><ele>151.0</ele><time>2026-03-28T14:38:29.312Z</time></trkpt><trkpt lat="40.0079408" lon="9.6615641"><ele>151.0</ele><time>2026-03-28T14:38:30.304Z</time></trkpt><trkpt lat="40.0078715" lon="9.6614423"><ele>151.0</ele><time>2026-03-28T14:38:31.305Z</time></trkpt><trkpt lat="40.0078068" lon="9.6613225"><ele>151.0</ele><time>2026-03-28T14:38:32.308Z</time></trkpt><trkpt lat="40.0077443" lon="9.6612097"><ele>151.0</ele><time>2026-03-28T14:38:33.302Z</time></trkpt><trkpt lat="40.0076762" lon="9.6611142"><ele>151.0</ele><time>2026-03-28T14:38:34.321Z</time></trkpt><trkpt lat="40.0075982" lon="9.6610231"><ele>151.2</ele><time>2026-03-28T14:38:35.308Z</time></trkpt><trkpt lat="40.0075165" lon="9.6609363"><ele>151.39999999999998</ele><time>2026-03-28T14:38:36.309Z</time></trkpt><trkpt lat="40.0074351" lon="9.6608559"><ele>151.6</ele><time>2026-03-28T14:38:37.312Z</time></trkpt><trkpt lat="40.0073598" lon="9.6607841"><ele>151.79999999999998</ele><time>2026-03-28T14:38:38.31Z</time></trkpt><trkpt lat="40.0072845" lon="9.660719"><ele>152.0</ele><time>2026-03-28T14:38:39.324Z</time></trkpt><trkpt lat="40.0072127" lon="9.660666"><ele>149.16666666666666</ele><time>2026-03-28T14:38:40.315Z</time></trkpt><trkpt lat="40.007142" lon="9.6606222"><ele>146.33333333333331</ele><time>2026-03-28T14:38:41.306Z</time></trkpt><trkpt lat="40.0070711" lon="9.6605934"><ele>143.5</ele><time>2026-03-28T14:38:42.308Z</time></trkpt><trkpt lat="40.0070068" lon="9.6605713"><ele>140.66666666666666</ele><time>2026-03-28T14:38:43.317Z</time></trkpt><trkpt lat="40.0069232" lon="9.6605168"><ele>137.83333333333334</ele><time>2026-03-28T14:38:45.315Z</time></trkpt><trkpt lat="40.0069775" lon="9.6604297"><ele>135.0</ele><time>2026-03-28T14:38:53.306Z</time></trkpt><trkpt lat="40.0070576" lon="9.660391"><ele>135.0</ele><time>2026-03-28T14:38:55.308Z</time></trkpt><trkpt lat="40.0071654" lon="9.6603498"><ele>135.0</ele><time>2026-03-28T14:38:57.31Z</time></trkpt><trkpt lat="40.0072426" lon="9.6603284"><ele>135.0</ele><time>2026-03-28T14:38:58.309Z</time></trkpt><trkpt lat="40.0073176" lon="9.6603085"><ele>135.0</ele><time>2026-03-28T14:38:59.328Z</time></trkpt><trkpt lat="40.0073885" lon="9.6603044"><ele>135.0</ele><time>2026-03-28T14:39:00.31Z</time></trkpt><trkpt lat="40.007459" lon="9.6603375"><ele>135.0</ele><time>2026-03-28T14:39:01.317Z</time></trkpt><trkpt lat="40.0075423" lon="9.6603691"><ele>136.0</ele><time>2026-03-28T14:39:02.31Z</time></trkpt><trkpt lat="40.0076172" lon="9.6603867"><ele>137.0</ele><time>2026-03-28T14:39:03.309Z</time></trkpt><trkpt lat="40.0077295" lon="9.6603842"><ele>138.0</ele><time>2026-03-28T14:39:05.307Z</time></trkpt><trkpt lat="40.0077693" lon="9.6603005"><ele>139.0</ele><time>2026-03-28T14:39:07.31Z</time></trkpt><trkpt lat="40.0077771" lon="9.6601334"><ele>140.0</ele><time>2026-03-28T14:39:09.308Z</time></trkpt><trkpt lat="40.0077842" lon="9.6600413"><ele>140.0</ele><time>2026-03-28T14:39:10.313Z</time></trkpt><trkpt lat="40.0078096" lon="9.6599604"><ele>140.0</ele><time>2026-03-28T14:39:11.307Z</time></trkpt><trkpt lat="40.0078504" lon="9.65987"><ele>140.0</ele><time>2026-03-28T14:39:12.313Z</time></trkpt><trkpt lat="40.0078878" lon="9.6597723"><ele>140.0</ele><time>2026-03-28T14:39:13.309Z</time></trkpt><trkpt lat="40.0079174" lon="9.6596918"><ele>140.0</ele><time>2026-03-28T14:39:14.312Z</time></trkpt><trkpt lat="40.0079761" lon="9.6596378"><ele>140.0</ele><time>2026-03-28T14:39:16.307Z</time></trkpt><trkpt lat="40.0080999" lon="9.6596926"><ele>140.0</ele><time>2026-03-28T14:39:18.31Z</time></trkpt><trkpt lat="40.008182" lon="9.6597401"><ele>140.0</ele><time>2026-03-28T14:39:19.313Z</time></trkpt><trkpt lat="40.0082691" lon="9.6597763"><ele>140.0</ele><time>2026-03-28T14:39:20.308Z</time></trkpt><trkpt lat="40.0083537" lon="9.6597929"><ele>140.0</ele><time>2026-03-28T14:39:21.308Z</time></trkpt><trkpt lat="40.0084285" lon="9.6597888"><ele>140.0</ele><time>2026-03-28T14:39:22.309Z</time></trkpt><trkpt lat="40.0084922" lon="9.6597644"><ele>140.0</ele><time>2026-03-28T14:39:23.317Z</time></trkpt><trkpt lat="40.0085549" lon="9.6597162"><ele>142.5</ele><time>2026-03-28T14:39:24.307Z</time></trkpt><trkpt lat="40.0086193" lon="9.659666"><ele>145.0</ele><time>2026-03-28T14:39:25.308Z</time></trkpt><trkpt lat="40.0086941" lon="9.6596289"><ele>147.5</ele><time>2026-03-28T14:39:26.304Z</time></trkpt><trkpt lat="40.0087805" lon="9.6596109"><ele>150.0</ele><time>2026-03-28T14:39:27.308Z</time></trkpt><trkpt lat="40.0088689" lon="9.6595926"><ele>152.5</ele><time>2026-03-28T14:39:28.306Z</time></trkpt><trkpt lat="40.0089537" lon="9.6595852"><ele>155.0</ele><time>2026-03-28T14:39:29.306Z</time></trkpt><trkpt lat="40.0090227" lon="9.6595563"><ele>155.0</ele><time>2026-03-28T14:39:30.304Z</time></trkpt><trkpt lat="40.0090812" lon="9.6595024"><ele>155.0</ele><time>2026-03-28T14:39:31.305Z</time></trkpt><trkpt lat="40.0091437" lon="9.65944"><ele>155.0</ele><time>2026-03-28T14:39:32.322Z</time></trkpt><trkpt lat="40.0091888" lon="9.6593275"><ele>155.0</ele><time>2026-03-28T14:39:33.31Z</time></trkpt><trkpt lat="40.0092264" lon="9.6592121"><ele>155.0</ele><time>2026-03-28T14:39:34.308Z</time></trkpt><trkpt lat="40.0092635" lon="9.6591247"><ele>155.0</ele><time>2026-03-28T14:39:35.313Z</time></trkpt><trkpt lat="40.009302" lon="9.6590397"><ele>151.0</ele><time>2026-03-28T14:39:36.319Z</time></trkpt><trkpt lat="40.0093774" lon="9.6589651"><ele>147.0</ele><time>2026-03-28T14:39:37.317Z</time></trkpt><trkpt lat="40.0094655" lon="9.658889"><ele>143.0</ele><time>2026-03-28T14:39:38.329Z</time></trkpt><trkpt lat="40.0095374" lon="9.6588093"><ele>139.0</ele><time>2026-03-28T14:39:39.306Z</time></trkpt><trkpt lat="40.0095822" lon="9.6587339"><ele>135.0</ele><time>2026-03-28T14:39:40.313Z</time></trkpt><trkpt lat="40.0096188" lon="9.65865"><ele>131.0</ele><time>2026-03-28T14:39:41.316Z</time></trkpt><trkpt lat="40.0096514" lon="9.6585551"><ele>127.19999999999999</ele><time>2026-03-28T14:39:42.317Z</time></trkpt><trkpt lat="40.0096834" lon="9.6584558"><ele>123.39999999999999</ele><time>2026-03-28T14:39:43.328Z</time></trkpt><trkpt lat="40.0097199" lon="9.6583545"><ele>119.6</ele><time>2026-03-28T14:39:44.303Z</time></trkpt><trkpt lat="40.0097735" lon="9.6582601"><ele>115.8</ele><time>2026-03-28T14:39:45.307Z</time></trkpt><trkpt lat="40.0098338" lon="9.6581591"><ele>112.0</ele><time>2026-03-28T14:39:46.319Z</time></trkpt><trkpt lat="40.0098827" lon="9.6580518"><ele>112.0</ele><time>2026-03-28T14:39:47.308Z</time></trkpt><trkpt lat="40.0099204" lon="9.6579396"><ele>111.99999999999999</ele><time>2026-03-28T14:39:48.331Z</time></trkpt><trkpt lat="40.0099552" lon="9.6578273"><ele>111.99999999999999</ele><time>2026-03-28T14:39:49.306Z</time></trkpt><trkpt lat="40.0099922" lon="9.6577207"><ele>112.0</ele><time>2026-03-28T14:39:50.306Z</time></trkpt><trkpt lat="40.0100357" lon="9.6576158"><ele>112.0</ele><time>2026-03-28T14:39:51.313Z</time></trkpt><trkpt lat="40.0100834" lon="9.6575254"><ele>112.83333333333334</ele><time>2026-03-28T14:39:52.308Z</time></trkpt><trkpt lat="40.0101266" lon="9.6574445"><ele>113.66666666666667</ele><time>2026-03-28T14:39:53.329Z</time></trkpt><trkpt lat="40.0101811" lon="9.657385"><ele>114.5</ele><time>2026-03-28T14:39:54.307Z</time></trkpt><trkpt lat="40.0102441" lon="9.6573336"><ele>115.33333333333334</ele><time>2026-03-28T14:39:55.311Z</time></trkpt><trkpt lat="40.0103131" lon="9.6572882"><ele>116.16666666666667</ele><time>2026-03-28T14:39:56.309Z</time></trkpt><trkpt lat="40.0103765" lon="9.6572627"><ele>117.0</ele><time>2026-03-28T14:39:57.316Z</time></trkpt><trkpt lat="40.0105112" lon="9.6572741"><ele>117.0</ele><time>2026-03-28T14:39:59.321Z</time></trkpt><trkpt lat="40.0106177" lon="9.6573064"><ele>116.99999999999999</ele><time>2026-03-28T14:40:00.31Z</time></trkpt><trkpt lat="40.0107247" lon="9.6573415"><ele>116.99999999999999</ele><time>2026-03-28T14:40:01.308Z</time></trkpt><trkpt lat="40.0108161" lon="9.6573611"><ele>117.0</ele><time>2026-03-28T14:40:02.312Z</time></trkpt><trkpt lat="40.010892" lon="9.6573605"><ele>117.0</ele><time>2026-03-28T14:40:03.308Z</time></trkpt><trkpt lat="40.0109701" lon="9.657329"><ele>115.19999999999999</ele><time>2026-03-28T14:40:04.31Z</time></trkpt><trkpt lat="40.0110543" lon="9.6572934"><ele>113.39999999999999</ele><time>2026-03-28T14:40:05.317Z</time></trkpt><trkpt lat="40.0111374" lon="9.6572629"><ele>111.60000000000001</ele><time>2026-03-28T14:40:06.326Z</time></trkpt><trkpt lat="40.0112498" lon="9.6572485"><ele>109.80000000000001</ele><time>2026-03-28T14:40:08.314Z</time></trkpt><trkpt lat="40.0113354" lon="9.6573248"><ele>108.0</ele><time>2026-03-28T14:40:10.312Z</time></trkpt><trkpt lat="40.0113714" lon="9.6574081"><ele>108.0</ele><time>2026-03-28T14:40:11.307Z</time></trkpt><trkpt lat="40.0114083" lon="9.6574928"><ele>108.0</ele><time>2026-03-28T14:40:12.306Z</time></trkpt><trkpt lat="40.0114297" lon="9.657581"><ele>108.0</ele><time>2026-03-28T14:40:13.311Z</time></trkpt><trkpt lat="40.0114585" lon="9.657671"><ele>108.0</ele><time>2026-03-28T14:40:14.313Z</time></trkpt><trkpt lat="40.0114941" lon="9.657769"><ele>108.0</ele><time>2026-03-28T14:40:15.305Z</time></trkpt><trkpt lat="40.0115284" lon="9.6578631"><ele>108.0</ele><time>2026-03-28T14:40:16.333Z</time></trkpt><trkpt lat="40.0115582" lon="9.6579469"><ele>107.80000000000001</ele><time>2026-03-28T14:40:17.31Z</time></trkpt><trkpt lat="40.0116113" lon="9.658066"><ele>107.60000000000001</ele><time>2026-03-28T14:40:19.313Z</time></trkpt><trkpt lat="40.0117017" lon="9.6581192"><ele>107.39999999999999</ele><time>2026-03-28T14:40:21.313Z</time></trkpt><trkpt lat="40.011826" lon="9.6581348"><ele>107.19999999999999</ele><time>2026-03-28T14:40:23.303Z</time></trkpt><trkpt lat="40.0119157" lon="9.6581518"><ele>107.0</ele><time>2026-03-28T14:40:24.31Z</time></trkpt><trkpt lat="40.012022" lon="9.6581756"><ele>104.0</ele><time>2026-03-28T14:40:25.314Z</time></trkpt><trkpt lat="40.0121244" lon="9.6582067"><ele>100.99999999999999</ele><time>2026-03-28T14:40:26.305Z</time></trkpt><trkpt lat="40.0122201" lon="9.6582472"><ele>98.0</ele><time>2026-03-28T14:40:27.328Z</time></trkpt><trkpt lat="40.0123189" lon="9.6582875"><ele>95.0</ele><time>2026-03-28T14:40:28.307Z</time></trkpt><trkpt lat="40.0124154" lon="9.6583458"><ele>92.0</ele><time>2026-03-28T14:40:29.307Z</time></trkpt><trkpt lat="40.0125026" lon="9.6583953"><ele>91.6</ele><time>2026-03-28T14:40:30.322Z</time></trkpt><trkpt lat="40.0125776" lon="9.6584369"><ele>91.19999999999999</ele><time>2026-03-28T14:40:31.319Z</time></trkpt><trkpt lat="40.0126457" lon="9.658489"><ele>90.8</ele><time>2026-03-28T14:40:32.313Z</time></trkpt><trkpt lat="40.0127147" lon="9.6585722"><ele>90.4</ele><time>2026-03-28T14:40:33.311Z</time></trkpt><trkpt lat="40.0127898" lon="9.6586619"><ele>90.0</ele><time>2026-03-28T14:40:34.314Z</time></trkpt><trkpt lat="40.0128667" lon="9.6587446"><ele>91.28571428571428</ele><time>2026-03-28T14:40:35.313Z</time></trkpt><trkpt lat="40.0129324" lon="9.6588182"><ele>92.57142857142858</ele><time>2026-03-28T14:40:36.325Z</time></trkpt><trkpt lat="40.0129942" lon="9.6588352"><ele>93.85714285714286</ele><time>2026-03-28T14:40:37.303Z</time></trkpt><trkpt lat="40.0130573" lon="9.6588472"><ele>95.14285714285714</ele><time>2026-03-28T14:40:38.306Z</time></trkpt><trkpt lat="40.0131206" lon="9.6588512"><ele>96.42857142857142</ele><time>2026-03-28T14:40:39.311Z</time></trkpt><trkpt lat="40.0131856" lon="9.6588759"><ele>97.71428571428572</ele><time>2026-03-28T14:40:40.306Z</time></trkpt><trkpt lat="40.0132442" lon="9.6589529"><ele>99.0</ele><time>2026-03-28T14:40:41.331Z</time></trkpt><trkpt lat="40.013319" lon="9.6590645"><ele>99.2</ele><time>2026-03-28T14:40:42.308Z</time></trkpt><trkpt lat="40.0133953" lon="9.6591662"><ele>99.4</ele><time>2026-03-28T14:40:43.308Z</time></trkpt><trkpt lat="40.0134541" lon="9.6592526"><ele>99.6</ele><time>2026-03-28T14:40:44.304Z</time></trkpt><trkpt lat="40.0134975" lon="9.6593167"><ele>99.8</ele><time>2026-03-28T14:40:45.308Z</time></trkpt><trkpt lat="40.0135843" lon="9.6593749"><ele>100.0</ele><time>2026-03-28T14:40:47.298Z</time></trkpt><trkpt lat="40.013673" lon="9.6593546"><ele>100.00000000000001</ele><time>2026-03-28T14:41:25.309Z</time></trkpt><trkpt lat="40.0137298" lon="9.6592432"><ele>100.0</ele><time>2026-03-28T14:41:27.335Z</time></trkpt><trkpt lat="40.0137711" lon="9.6591537"><ele>100.0</ele><time>2026-03-28T14:41:28.308Z</time></trkpt><trkpt lat="40.0138106" lon="9.6590641"><ele>100.0</ele><time>2026-03-28T14:41:29.32Z</time></trkpt><trkpt lat="40.0138534" lon="9.6589701"><ele>100.00000000000001</ele><time>2026-03-28T14:41:30.316Z</time></trkpt><trkpt lat="40.013907" lon="9.6588818"><ele>100.0</ele><time>2026-03-28T14:41:31.306Z</time></trkpt><trkpt lat="40.0139784" lon="9.6588109"><ele>100.00000000000001</ele><time>2026-03-28T14:41:32.308Z</time></trkpt><trkpt lat="40.0140438" lon="9.6587585"><ele>100.0</ele><time>2026-03-28T14:41:33.314Z</time></trkpt><trkpt lat="40.0140997" lon="9.658716"><ele>100.0</ele><time>2026-03-28T14:41:34.31Z</time></trkpt><trkpt lat="40.014182" lon="9.6586867"><ele>100.0</ele><time>2026-03-28T14:41:36.31Z</time></trkpt><trkpt lat="40.0142646" lon="9.6587465"><ele>100.00000000000001</ele><time>2026-03-28T14:41:38.332Z</time></trkpt><trkpt lat="40.0143024" lon="9.6588385"><ele>100.0</ele><time>2026-03-28T14:41:39.303Z</time></trkpt><trkpt lat="40.0143474" lon="9.6589551"><ele>100.0</ele><time>2026-03-28T14:41:40.306Z</time></trkpt><trkpt lat="40.0143954" lon="9.6590905"><ele>100.0</ele><time>2026-03-28T14:41:41.31Z</time></trkpt><trkpt lat="40.0144431" lon="9.6592328"><ele>100.0</ele><time>2026-03-28T14:41:42.311Z</time></trkpt><trkpt lat="40.0144898" lon="9.6593763"><ele>100.0</ele><time>2026-03-28T14:41:43.33Z</time></trkpt><trkpt lat="40.0145359" lon="9.6595182"><ele>100.0</ele><time>2026-03-28T14:41:44.308Z</time></trkpt><trkpt lat="40.0145954" lon="9.6596595"><ele>100.0</ele><time>2026-03-28T14:41:45.311Z</time></trkpt><trkpt lat="40.0146681" lon="9.6598026"><ele>100.0</ele><time>2026-03-28T14:41:46.311Z</time></trkpt><trkpt lat="40.0147414" lon="9.6599399"><ele>100.0</ele><time>2026-03-28T14:41:47.312Z</time></trkpt><trkpt lat="40.0148067" lon="9.6600709"><ele>100.0</ele><time>2026-03-28T14:41:48.319Z</time></trkpt><trkpt lat="40.0148662" lon="9.6602019"><ele>100.0</ele><time>2026-03-28T14:41:49.313Z</time></trkpt><trkpt lat="40.0149218" lon="9.660324"><ele>100.0</ele><time>2026-03-28T14:41:50.339Z</time></trkpt><trkpt lat="40.0149671" lon="9.6604284"><ele>100.0</ele><time>2026-03-28T14:41:51.314Z</time></trkpt><trkpt lat="40.0149999" lon="9.6605101"><ele>100.0</ele><time>2026-03-28T14:41:52.312Z</time></trkpt><trkpt lat="40.0150547" lon="9.6606362"><ele>100.50000000000001</ele><time>2026-03-28T14:41:54.306Z</time></trkpt><trkpt lat="40.0151464" lon="9.6606991"><ele>101.0</ele><time>2026-03-28T14:41:56.31Z</time></trkpt><trkpt lat="40.0152491" lon="9.6607686"><ele>101.5</ele><time>2026-03-28T14:41:58.308Z</time></trkpt><trkpt lat="40.0153075" lon="9.660818"><ele>102.0</ele><time>2026-03-28T14:41:59.304Z</time></trkpt><trkpt lat="40.0153723" lon="9.66087"><ele>102.50000000000001</ele><time>2026-03-28T14:42:00.312Z</time></trkpt><trkpt lat="40.0154398" lon="9.6609215"><ele>103.0</ele><time>2026-03-28T14:42:01.313Z</time></trkpt><trkpt lat="40.0155129" lon="9.660959"><ele>103.00000000000001</ele><time>2026-03-28T14:42:02.327Z</time></trkpt><trkpt lat="40.0155853" lon="9.6609869"><ele>103.0</ele><time>2026-03-28T14:42:03.314Z</time></trkpt><trkpt lat="40.0156603" lon="9.6610026"><ele>103.0</ele><time>2026-03-28T14:42:04.311Z</time></trkpt><trkpt lat="40.0157265" lon="9.6610137"><ele>103.0</ele><time>2026-03-28T14:42:05.31Z</time></trkpt><trkpt lat="40.0158257" lon="9.6609167"><ele>103.00000000000001</ele><time>2026-03-28T14:42:07.313Z</time></trkpt><trkpt lat="40.0158648" lon="9.66085"><ele>103.0</ele><time>2026-03-28T14:42:08.306Z</time></trkpt><trkpt lat="40.0159496" lon="9.6607797"><ele>102.66666666666667</ele><time>2026-03-28T14:42:10.306Z</time></trkpt><trkpt lat="40.0160401" lon="9.6608131"><ele>102.33333333333334</ele><time>2026-03-28T14:42:12.311Z</time></trkpt><trkpt lat="40.0161398" lon="9.6609091"><ele>102.0</ele><time>2026-03-28T14:42:14.326Z</time></trkpt><trkpt lat="40.0162099" lon="9.6609327"><ele>101.66666666666666</ele><time>2026-03-28T14:42:15.313Z</time></trkpt><trkpt lat="40.016282" lon="9.6609566"><ele>101.33333333333333</ele><time>2026-03-28T14:42:16.314Z</time></trkpt><trkpt lat="40.0163625" lon="9.6609674"><ele>101.0</ele><time>2026-03-28T14:42:17.31Z</time></trkpt><trkpt lat="40.0164389" lon="9.6609835"><ele>100.99999999999999</ele><time>2026-03-28T14:42:18.312Z</time></trkpt><trkpt lat="40.0165021" lon="9.6610018"><ele>101.0</ele><time>2026-03-28T14:42:19.327Z</time></trkpt><trkpt lat="40.0165603" lon="9.6610472"><ele>101.0</ele><time>2026-03-28T14:42:20.307Z</time></trkpt><trkpt lat="40.0166102" lon="9.6611364"><ele>101.0</ele><time>2026-03-28T14:42:21.313Z</time></trkpt><trkpt lat="40.0166734" lon="9.6612371"><ele>100.99999999999999</ele><time>2026-03-28T14:42:22.306Z</time></trkpt><trkpt lat="40.0167481" lon="9.6613468"><ele>101.0</ele><time>2026-03-28T14:42:23.305Z</time></trkpt><trkpt lat="40.0168294" lon="9.6614541"><ele>105.0</ele><time>2026-03-28T14:42:24.316Z</time></trkpt><trkpt lat="40.0169086" lon="9.6615565"><ele>109.0</ele><time>2026-03-28T14:42:25.308Z</time></trkpt><trkpt lat="40.0169893" lon="9.66167"><ele>113.0</ele><time>2026-03-28T14:42:26.305Z</time></trkpt><trkpt lat="40.0170772" lon="9.6617842"><ele>117.0</ele><time>2026-03-28T14:42:27.329Z</time></trkpt><trkpt lat="40.0171614" lon="9.6619168"><ele>117.0</ele><time>2026-03-28T14:42:28.314Z</time></trkpt><trkpt lat="40.0172373" lon="9.662025"><ele>116.99999999999999</ele><time>2026-03-28T14:42:29.309Z</time></trkpt><trkpt lat="40.0173194" lon="9.6621067"><ele>116.99999999999999</ele><time>2026-03-28T14:42:30.314Z</time></trkpt><trkpt lat="40.0174161" lon="9.6621804"><ele>117.0</ele><time>2026-03-28T14:42:31.314Z</time></trkpt><trkpt lat="40.0175196" lon="9.6622439"><ele>117.0</ele><time>2026-03-28T14:42:32.329Z</time></trkpt><trkpt lat="40.0176249" lon="9.6623005"><ele>121.8</ele><time>2026-03-28T14:42:33.311Z</time></trkpt><trkpt lat="40.0177294" lon="9.6623497"><ele>126.6</ele><time>2026-03-28T14:42:34.312Z</time></trkpt><trkpt lat="40.0178251" lon="9.6623935"><ele>131.39999999999998</ele><time>2026-03-28T14:42:35.31Z</time></trkpt><trkpt lat="40.017892" lon="9.6624061"><ele>136.2</ele><time>2026-03-28T14:42:36.313Z</time></trkpt><trkpt lat="40.0179786" lon="9.6624287"><ele>141.0</ele><time>2026-03-28T14:42:38.318Z</time></trkpt><trkpt lat="40.0180364" lon="9.662515"><ele>141.0</ele><time>2026-03-28T14:42:40.317Z</time></trkpt><trkpt lat="40.018041" lon="9.6626423"><ele>141.0</ele><time>2026-03-28T14:42:42.308Z</time></trkpt><trkpt lat="40.0181061" lon="9.662709"><ele>141.0</ele><time>2026-03-28T14:42:44.319Z</time></trkpt><trkpt lat="40.0182382" lon="9.6627118"><ele>141.0</ele><time>2026-03-28T14:42:46.32Z</time></trkpt><trkpt lat="40.0183173" lon="9.6627001"><ele>141.0</ele><time>2026-03-28T14:42:47.31Z</time></trkpt><trkpt lat="40.0184039" lon="9.6626722"><ele>144.2</ele><time>2026-03-28T14:42:48.31Z</time></trkpt><trkpt lat="40.0184888" lon="9.6626253"><ele>147.39999999999998</ele><time>2026-03-28T14:42:49.309Z</time></trkpt><trkpt lat="40.018574" lon="9.6625545"><ele>150.6</ele><time>2026-03-28T14:42:50.306Z</time></trkpt><trkpt lat="40.018659" lon="9.6624721"><ele>153.79999999999998</ele><time>2026-03-28T14:42:51.308Z</time></trkpt><trkpt lat="40.0187446" lon="9.6623872"><ele>157.0</ele><time>2026-03-28T14:42:52.313Z</time></trkpt><trkpt lat="40.018827" lon="9.6623057"><ele>157.0</ele><time>2026-03-28T14:42:53.307Z</time></trkpt><trkpt lat="40.0189021" lon="9.6622315"><ele>157.0</ele><time>2026-03-28T14:42:54.315Z</time></trkpt><trkpt lat="40.018984" lon="9.662195"><ele>157.0</ele><time>2026-03-28T14:42:55.31Z</time></trkpt><trkpt lat="40.0190866" lon="9.662196"><ele>157.0</ele><time>2026-03-28T14:42:56.317Z</time></trkpt><trkpt lat="40.0191988" lon="9.6622085"><ele>157.0</ele><time>2026-03-28T14:42:57.31Z</time></trkpt><trkpt lat="40.0193048" lon="9.6622113"><ele>158.8</ele><time>2026-03-28T14:42:58.314Z</time></trkpt><trkpt lat="40.0194107" lon="9.6622095"><ele>160.6</ele><time>2026-03-28T14:42:59.306Z</time></trkpt><trkpt lat="40.0195273" lon="9.6622116"><ele>162.4</ele><time>2026-03-28T14:43:00.31Z</time></trkpt><trkpt lat="40.0196349" lon="9.6622083"><ele>164.20000000000002</ele><time>2026-03-28T14:43:01.31Z</time></trkpt><trkpt lat="40.0197192" lon="9.6622222"><ele>166.0</ele><time>2026-03-28T14:43:02.31Z</time></trkpt><trkpt lat="40.019783" lon="9.6622342"><ele>166.0</ele><time>2026-03-28T14:43:03.322Z</time></trkpt><trkpt lat="40.0198521" lon="9.6622338"><ele>166.0</ele><time>2026-03-28T14:43:06.314Z</time></trkpt><trkpt lat="40.0199798" lon="9.6622065"><ele>166.0</ele><time>2026-03-28T14:43:12.31Z</time></trkpt><trkpt lat="40.0200498" lon="9.6621879"><ele>166.0</ele><time>2026-03-28T14:43:13.306Z</time></trkpt><trkpt lat="40.0201387" lon="9.6621695"><ele>166.0</ele><time>2026-03-28T14:43:14.315Z</time></trkpt><trkpt lat="40.020243" lon="9.6621589"><ele>167.66666666666669</ele><time>2026-03-28T14:43:15.305Z</time></trkpt><trkpt lat="40.0203435" lon="9.6621423"><ele>169.33333333333334</ele><time>2026-03-28T14:43:16.309Z</time></trkpt><trkpt lat="40.0204381" lon="9.6621267"><ele>171.0</ele><time>2026-03-28T14:43:17.311Z</time></trkpt><trkpt lat="40.0205215" lon="9.6621043"><ele>172.66666666666666</ele><time>2026-03-28T14:43:18.309Z</time></trkpt><trkpt lat="40.0206019" lon="9.6620859"><ele>174.33333333333331</ele><time>2026-03-28T14:43:19.303Z</time></trkpt><trkpt lat="40.0206708" lon="9.6620591"><ele>176.0</ele><time>2026-03-28T14:43:20.316Z</time></trkpt><trkpt lat="40.0207326" lon="9.6620134"><ele>176.42857142857144</ele><time>2026-03-28T14:43:21.313Z</time></trkpt><trkpt lat="40.0207618" lon="9.6619356"><ele>176.85714285714286</ele><time>2026-03-28T14:43:22.309Z</time></trkpt><trkpt lat="40.020772" lon="9.6618429"><ele>177.28571428571428</ele><time>2026-03-28T14:43:23.319Z</time></trkpt><trkpt lat="40.0207783" lon="9.6617561"><ele>177.71428571428572</ele><time>2026-03-28T14:43:24.309Z</time></trkpt><trkpt lat="40.0207962" lon="9.6616715"><ele>178.14285714285714</ele><time>2026-03-28T14:43:25.327Z</time></trkpt><trkpt lat="40.0208237" lon="9.6615856"><ele>178.57142857142858</ele><time>2026-03-28T14:43:26.313Z</time></trkpt><trkpt lat="40.0208505" lon="9.6614934"><ele>179.0</ele><time>2026-03-28T14:43:27.32Z</time></trkpt><trkpt lat="40.0208373" lon="9.6613901"><ele>179.0</ele><time>2026-03-28T14:43:28.318Z</time></trkpt><trkpt lat="40.020821" lon="9.661282"><ele>179.0</ele><time>2026-03-28T14:43:29.309Z</time></trkpt><trkpt lat="40.0207886" lon="9.6611531"><ele>179.0</ele><time>2026-03-28T14:43:30.307Z</time></trkpt><trkpt lat="40.020757" lon="9.6610292"><ele>179.0</ele><time>2026-03-28T14:43:31.319Z</time></trkpt><trkpt lat="40.0207386" lon="9.6609443"><ele>179.0</ele><time>2026-03-28T14:43:32.307Z</time></trkpt><trkpt lat="40.0207331" lon="9.6607925"><ele>179.0</ele><time>2026-03-28T14:43:34.316Z</time></trkpt><trkpt lat="40.0207635" lon="9.6607125"><ele>179.0</ele><time>2026-03-28T14:43:35.312Z</time></trkpt><trkpt lat="40.0208034" lon="9.6606239"><ele>179.0</ele><time>2026-03-28T14:43:36.314Z</time></trkpt><trkpt lat="40.0208522" lon="9.6605022"><ele>179.0</ele><time>2026-03-28T14:43:37.311Z</time></trkpt><trkpt lat="40.0208997" lon="9.6603746"><ele>179.0</ele><time>2026-03-28T14:43:38.306Z</time></trkpt><trkpt lat="40.0209379" lon="9.6602494"><ele>178.6</ele><time>2026-03-28T14:43:39.316Z</time></trkpt><trkpt lat="40.0209749" lon="9.6601265"><ele>178.2</ele><time>2026-03-28T14:43:40.31Z</time></trkpt><trkpt lat="40.0209897" lon="9.6599943"><ele>177.79999999999998</ele><time>2026-03-28T14:43:41.329Z</time></trkpt><trkpt lat="40.021003" lon="9.6598776"><ele>177.39999999999998</ele><time>2026-03-28T14:43:42.309Z</time></trkpt><trkpt lat="40.0209933" lon="9.6597626"><ele>177.0</ele><time>2026-03-28T14:43:43.311Z</time></trkpt><trkpt lat="40.020978" lon="9.6596438"><ele>177.0</ele><time>2026-03-28T14:43:44.315Z</time></trkpt><trkpt lat="40.0209645" lon="9.6595385"><ele>177.0</ele><time>2026-03-28T14:43:45.311Z</time></trkpt><trkpt lat="40.0209804" lon="9.6594419"><ele>177.0</ele><time>2026-03-28T14:43:47.307Z</time></trkpt><trkpt lat="40.0209417" lon="9.6595333"><ele>177.0</ele><time>2026-03-28T14:44:14.313Z</time></trkpt><trkpt lat="40.0209531" lon="9.6596212"><ele>177.0</ele><time>2026-03-28T14:44:16.305Z</time></trkpt><trkpt lat="40.0208886" lon="9.6596257"><ele>177.0</ele><time>2026-03-28T14:44:22.304Z</time></trkpt><trkpt lat="40.0208276" lon="9.6595261"><ele>173.4</ele><time>2026-03-28T14:44:24.303Z</time></trkpt><trkpt lat="40.0207739" lon="9.6594098"><ele>169.79999999999998</ele><time>2026-03-28T14:44:26.331Z</time></trkpt><trkpt lat="40.0207148" lon="9.6592975"><ele>166.2</ele><time>2026-03-28T14:44:28.31Z</time></trkpt><trkpt lat="40.0206286" lon="9.6591856"><ele>162.6</ele><time>2026-03-28T14:44:30.315Z</time></trkpt><trkpt lat="40.0205682" lon="9.659127"><ele>159.0</ele><time>2026-03-28T14:44:31.328Z</time></trkpt><trkpt lat="40.020508" lon="9.6590656"><ele>159.0</ele><time>2026-03-28T14:44:32.313Z</time></trkpt><trkpt lat="40.0204475" lon="9.6590037"><ele>159.0</ele><time>2026-03-28T14:44:33.312Z</time></trkpt><trkpt lat="40.0203942" lon="9.6589343"><ele>159.0</ele><time>2026-03-28T14:44:34.311Z</time></trkpt><trkpt lat="40.0203529" lon="9.6588647"><ele>159.0</ele><time>2026-03-28T14:44:35.311Z</time></trkpt><trkpt lat="40.020309" lon="9.6587433"><ele>159.0</ele><time>2026-03-28T14:44:37.31Z</time></trkpt><trkpt lat="40.0203114" lon="9.6585922"><ele>159.0</ele><time>2026-03-28T14:44:39.314Z</time></trkpt><trkpt lat="40.0203156" lon="9.6584974"><ele>159.14285714285714</ele><time>2026-03-28T14:44:40.316Z</time></trkpt><trkpt lat="40.0203119" lon="9.6584123"><ele>159.2857142857143</ele><time>2026-03-28T14:44:41.311Z</time></trkpt><trkpt lat="40.0203063" lon="9.6583264"><ele>159.42857142857144</ele><time>2026-03-28T14:44:42.333Z</time></trkpt><trkpt lat="40.0202992" lon="9.6582433"><ele>159.57142857142856</ele><time>2026-03-28T14:44:43.31Z</time></trkpt><trkpt lat="40.0202633" lon="9.6581495"><ele>159.71428571428572</ele><time>2026-03-28T14:44:44.315Z</time></trkpt><trkpt lat="40.0202295" lon="9.6580607"><ele>159.85714285714286</ele><time>2026-03-28T14:44:45.307Z</time></trkpt><trkpt lat="40.0201976" lon="9.6579713"><ele>160.0</ele><time>2026-03-28T14:44:46.31Z</time></trkpt><trkpt lat="40.0201682" lon="9.6578881"><ele>160.0</ele><time>2026-03-28T14:44:47.315Z</time></trkpt><trkpt lat="40.0201407" lon="9.6577915"><ele>160.0</ele><time>2026-03-28T14:44:48.313Z</time></trkpt><trkpt lat="40.020127" lon="9.6576759"><ele>160.0</ele><time>2026-03-28T14:44:49.301Z</time></trkpt><trkpt lat="40.0201145" lon="9.6575608"><ele>160.0</ele><time>2026-03-28T14:44:50.312Z</time></trkpt><trkpt lat="40.020101" lon="9.6574475"><ele>160.0</ele><time>2026-03-28T14:44:51.306Z</time></trkpt><trkpt lat="40.0200831" lon="9.6573297"><ele>160.0</ele><time>2026-03-28T14:44:52.305Z</time></trkpt><trkpt lat="40.0200476" lon="9.6572023"><ele>159.5</ele><time>2026-03-28T14:44:53.308Z</time></trkpt><trkpt lat="40.0200085" lon="9.6570833"><ele>159.0</ele><time>2026-03-28T14:44:54.31Z</time></trkpt><trkpt lat="40.0199731" lon="9.6569769"><ele>158.5</ele><time>2026-03-28T14:44:55.312Z</time></trkpt><trkpt lat="40.0199302" lon="9.6568848"><ele>158.0</ele><time>2026-03-28T14:44:56.315Z</time></trkpt><trkpt lat="40.0198725" lon="9.6567944"><ele>157.5</ele><time>2026-03-28T14:44:57.324Z</time></trkpt><trkpt lat="40.0198142" lon="9.6567189"><ele>157.0</ele><time>2026-03-28T14:44:58.314Z</time></trkpt><trkpt lat="40.0197519" lon="9.6566535"><ele>154.83333333333334</ele><time>2026-03-28T14:44:59.309Z</time></trkpt><trkpt lat="40.0196823" lon="9.6565831"><ele>152.66666666666669</ele><time>2026-03-28T14:45:00.306Z</time></trkpt><trkpt lat="40.0196101" lon="9.6565257"><ele>150.5</ele><time>2026-03-28T14:45:01.311Z</time></trkpt><trkpt lat="40.0195395" lon="9.6564814"><ele>148.33333333333334</ele><time>2026-03-28T14:45:02.316Z</time></trkpt><trkpt lat="40.0194729" lon="9.6564334"><ele>146.16666666666666</ele><time>2026-03-28T14:45:03.315Z</time></trkpt><trkpt lat="40.0194091" lon="9.6563892"><ele>144.0</ele><time>2026-03-28T14:45:04.31Z</time></trkpt><trkpt lat="40.019344" lon="9.6563246"><ele>144.0</ele><time>2026-03-28T14:45:05.309Z</time></trkpt><trkpt lat="40.0192629" lon="9.6562494"><ele>144.0</ele><time>2026-03-28T14:45:06.311Z</time></trkpt><trkpt lat="40.0191903" lon="9.6561906"><ele>144.0</ele><time>2026-03-28T14:45:07.312Z</time></trkpt><trkpt lat="40.0191172" lon="9.6561348"><ele>144.0</ele><time>2026-03-28T14:45:08.312Z</time></trkpt><trkpt lat="40.0190414" lon="9.6560973"><ele>144.0</ele><time>2026-03-28T14:45:09.308Z</time></trkpt><trkpt lat="40.0189634" lon="9.6560736"><ele>144.0</ele><time>2026-03-28T14:45:10.306Z</time></trkpt><trkpt lat="40.0188933" lon="9.6560533"><ele>143.83333333333334</ele><time>2026-03-28T14:45:11.31Z</time></trkpt><trkpt lat="40.018826" lon="9.6560326"><ele>143.66666666666666</ele><time>2026-03-28T14:45:12.309Z</time></trkpt><trkpt lat="40.0187368" lon="9.6559999"><ele>143.5</ele><time>2026-03-28T14:45:14.312Z</time></trkpt><trkpt lat="40.0186634" lon="9.6559757"><ele>143.33333333333331</ele><time>2026-03-28T14:45:16.335Z</time></trkpt><trkpt lat="40.0186012" lon="9.6559581"><ele>143.16666666666666</ele><time>2026-03-28T14:45:17.317Z</time></trkpt><trkpt lat="40.0185097" lon="9.6559332"><ele>143.0</ele><time>2026-03-28T14:45:18.31Z</time></trkpt><trkpt lat="40.0184076" lon="9.6559073"><ele>138.83333333333331</ele><time>2026-03-28T14:45:19.312Z</time></trkpt><trkpt lat="40.0183156" lon="9.6558853"><ele>134.66666666666666</ele><time>2026-03-28T14:45:20.306Z</time></trkpt><trkpt lat="40.0182258" lon="9.6558613"><ele>130.5</ele><time>2026-03-28T14:45:21.309Z</time></trkpt><trkpt lat="40.0181615" lon="9.6558196"><ele>126.33333333333334</ele><time>2026-03-28T14:45:22.304Z</time></trkpt><trkpt lat="40.0180975" lon="9.6557737"><ele>122.16666666666667</ele><time>2026-03-28T14:45:23.31Z</time></trkpt><trkpt lat="40.0180587" lon="9.6556814"><ele>118.0</ele><time>2026-03-28T14:45:24.304Z</time></trkpt><trkpt lat="40.0180388" lon="9.6555704"><ele>118.00000000000001</ele><time>2026-03-28T14:45:25.305Z</time></trkpt><trkpt lat="40.0180326" lon="9.6554522"><ele>118.0</ele><time>2026-03-28T14:45:26.311Z</time></trkpt><trkpt lat="40.0180303" lon="9.6553512"><ele>118.0</ele><time>2026-03-28T14:45:27.311Z</time></trkpt><trkpt lat="40.0180302" lon="9.6552543"><ele>118.0</ele><time>2026-03-28T14:45:28.334Z</time></trkpt><trkpt lat="40.0180129" lon="9.6551731"><ele>118.00000000000001</ele><time>2026-03-28T14:45:29.313Z</time></trkpt><trkpt lat="40.0179572" lon="9.6551084"><ele>118.0</ele><time>2026-03-28T14:45:30.309Z</time></trkpt><trkpt lat="40.0178865" lon="9.6550459"><ele>117.80000000000001</ele><time>2026-03-28T14:45:31.305Z</time></trkpt><trkpt lat="40.0178028" lon="9.6549682"><ele>117.60000000000001</ele><time>2026-03-28T14:45:32.306Z</time></trkpt><trkpt lat="40.0177195" lon="9.6549014"><ele>117.39999999999999</ele><time>2026-03-28T14:45:33.313Z</time></trkpt><trkpt lat="40.0176395" lon="9.6548557"><ele>117.19999999999999</ele><time>2026-03-28T14:45:34.312Z</time></trkpt><trkpt lat="40.0175514" lon="9.6548331"><ele>117.0</ele><time>2026-03-28T14:45:35.33Z</time></trkpt><trkpt lat="40.017456" lon="9.6548197"><ele>117.0</ele><time>2026-03-28T14:45:36.31Z</time></trkpt><trkpt lat="40.0173697" lon="9.6548134"><ele>117.00000000000001</ele><time>2026-03-28T14:45:37.312Z</time></trkpt><trkpt lat="40.0173008" lon="9.6548079"><ele>117.0</ele><time>2026-03-28T14:45:38.311Z</time></trkpt><trkpt lat="40.0172374" lon="9.654787"><ele>117.0</ele><time>2026-03-28T14:45:40.315Z</time></trkpt><trkpt lat="40.0172158" lon="9.6547036"><ele>117.00000000000001</ele><time>2026-03-28T14:45:43.31Z</time></trkpt><trkpt lat="40.0172512" lon="9.6545978"><ele>117.0</ele><time>2026-03-28T14:45:45.307Z</time></trkpt><trkpt lat="40.0172854" lon="9.6545184"><ele>117.0</ele><time>2026-03-28T14:45:46.307Z</time></trkpt><trkpt lat="40.0173305" lon="9.6544141"><ele>115.6</ele><time>2026-03-28T14:45:47.321Z</time></trkpt><trkpt lat="40.0173787" lon="9.65429"><ele>114.19999999999999</ele><time>2026-03-28T14:45:48.311Z</time></trkpt><trkpt lat="40.0174165" lon="9.6541397"><ele>112.8</ele><time>2026-03-28T14:45:49.305Z</time></trkpt><trkpt lat="40.0174413" lon="9.6539976"><ele>111.4</ele><time>2026-03-28T14:45:50.312Z</time></trkpt><trkpt lat="40.0174547" lon="9.6538575"><ele>110.0</ele><time>2026-03-28T14:45:51.314Z</time></trkpt><trkpt lat="40.0174704" lon="9.6537335"><ele>108.0</ele><time>2026-03-28T14:45:52.315Z</time></trkpt><trkpt lat="40.0174846" lon="9.653615"><ele>106.0</ele><time>2026-03-28T14:45:53.311Z</time></trkpt><trkpt lat="40.0175247" lon="9.6534964"><ele>104.0</ele><time>2026-03-28T14:45:54.319Z</time></trkpt><trkpt lat="40.0175819" lon="9.6533581"><ele>102.0</ele><time>2026-03-28T14:45:55.313Z</time></trkpt><trkpt lat="40.0176446" lon="9.6532076"><ele>100.0</ele><time>2026-03-28T14:45:56.313Z</time></trkpt><trkpt lat="40.0176829" lon="9.6530736"><ele>103.8</ele><time>2026-03-28T14:45:57.315Z</time></trkpt><trkpt lat="40.0177141" lon="9.6529469"><ele>107.6</ele><time>2026-03-28T14:45:58.313Z</time></trkpt><trkpt lat="40.0177438" lon="9.6528181"><ele>111.4</ele><time>2026-03-28T14:45:59.325Z</time></trkpt><trkpt lat="40.017769" lon="9.6526842"><ele>115.2</ele><time>2026-03-28T14:46:00.313Z</time></trkpt><trkpt lat="40.0177858" lon="9.6525148"><ele>119.0</ele><time>2026-03-28T14:46:01.316Z</time></trkpt><trkpt lat="40.0177901" lon="9.6523463"><ele>119.0</ele><time>2026-03-28T14:46:02.311Z</time></trkpt><trkpt lat="40.0177841" lon="9.6521911"><ele>119.0</ele><time>2026-03-28T14:46:03.314Z</time></trkpt><trkpt lat="40.0177708" lon="9.6520697"><ele>119.0</ele><time>2026-03-28T14:46:04.309Z</time></trkpt><trkpt lat="40.0177486" lon="9.6519819"><ele>119.0</ele><time>2026-03-28T14:46:05.317Z</time></trkpt><trkpt lat="40.0177083" lon="9.6518584"><ele>119.0</ele><time>2026-03-28T14:46:07.329Z</time></trkpt><trkpt lat="40.0176646" lon="9.651733"><ele>120.2</ele><time>2026-03-28T14:46:09.308Z</time></trkpt><trkpt lat="40.0176062" lon="9.6515852"><ele>121.4</ele><time>2026-03-28T14:46:11.31Z</time></trkpt><trkpt lat="40.0175617" lon="9.6514923"><ele>122.6</ele><time>2026-03-28T14:46:12.333Z</time></trkpt><trkpt lat="40.0175099" lon="9.651409"><ele>123.8</ele><time>2026-03-28T14:46:13.312Z</time></trkpt><trkpt lat="40.0174516" lon="9.651327"><ele>125.0</ele><time>2026-03-28T14:46:14.307Z</time></trkpt><trkpt lat="40.0173893" lon="9.6512563"><ele>125.0</ele><time>2026-03-28T14:46:15.328Z</time></trkpt><trkpt lat="40.0173246" lon="9.6511827"><ele>125.0</ele><time>2026-03-28T14:46:16.343Z</time></trkpt><trkpt lat="40.0172514" lon="9.6510952"><ele>125.0</ele><time>2026-03-28T14:46:17.317Z</time></trkpt><trkpt lat="40.0171696" lon="9.6509914"><ele>125.0</ele><time>2026-03-28T14:46:18.333Z</time></trkpt><trkpt lat="40.0170813" lon="9.6508663"><ele>125.0</ele><time>2026-03-28T14:46:19.317Z</time></trkpt><trkpt lat="40.0169871" lon="9.6507397"><ele>125.0</ele><time>2026-03-28T14:46:20.311Z</time></trkpt><trkpt lat="40.0168971" lon="9.65062"><ele>125.0</ele><time>2026-03-28T14:46:21.308Z</time></trkpt><trkpt lat="40.0168058" lon="9.6505378"><ele>125.0</ele><time>2026-03-28T14:46:22.308Z</time></trkpt><trkpt lat="40.0167281" lon="9.6504683"><ele>125.0</ele><time>2026-03-28T14:46:23.313Z</time></trkpt><trkpt lat="40.0166688" lon="9.6504147"><ele>125.0</ele><time>2026-03-28T14:46:24.309Z</time></trkpt><trkpt lat="40.0165971" lon="9.6503494"><ele>125.49999999999999</ele><time>2026-03-28T14:46:26.326Z</time></trkpt><trkpt lat="40.0165756" lon="9.6502553"><ele>126.0</ele><time>2026-03-28T14:46:32.321Z</time></trkpt><trkpt lat="40.0165522" lon="9.6501294"><ele>126.5</ele><time>2026-03-28T14:46:34.321Z</time></trkpt><trkpt lat="40.0164947" lon="9.649992"><ele>127.0</ele><time>2026-03-28T14:46:36.307Z</time></trkpt><trkpt lat="40.0164494" lon="9.6499171"><ele>127.49999999999999</ele><time>2026-03-28T14:46:37.309Z</time></trkpt><trkpt lat="40.0164029" lon="9.6498345"><ele>128.0</ele><time>2026-03-28T14:46:38.306Z</time></trkpt><trkpt lat="40.0163611" lon="9.6497546"><ele>128.0</ele><time>2026-03-28T14:46:39.312Z</time></trkpt><trkpt lat="40.0163178" lon="9.6496821"><ele>127.99999999999999</ele><time>2026-03-28T14:46:40.317Z</time></trkpt><trkpt lat="40.0162612" lon="9.6496322"><ele>128.0</ele><time>2026-03-28T14:46:41.313Z</time></trkpt><trkpt lat="40.0161916" lon="9.6495876"><ele>128.0</ele><time>2026-03-28T14:46:42.31Z</time></trkpt><trkpt lat="40.0161287" lon="9.6495411"><ele>127.99999999999999</ele><time>2026-03-28T14:46:43.329Z</time></trkpt><trkpt lat="40.0160796" lon="9.6494738"><ele>128.0</ele><time>2026-03-28T14:46:44.314Z</time></trkpt><trkpt lat="40.0160502" lon="9.6493862"><ele>128.0</ele><time>2026-03-28T14:46:45.308Z</time></trkpt><trkpt lat="40.0160419" lon="9.6492889"><ele>128.33333333333331</ele><time>2026-03-28T14:46:46.309Z</time></trkpt><trkpt lat="40.0160543" lon="9.6491857"><ele>128.66666666666666</ele><time>2026-03-28T14:46:47.306Z</time></trkpt><trkpt lat="40.0160687" lon="9.6490828"><ele>129.0</ele><time>2026-03-28T14:46:48.313Z</time></trkpt><trkpt lat="40.0160939" lon="9.6489692"><ele>129.33333333333334</ele><time>2026-03-28T14:46:49.327Z</time></trkpt><trkpt lat="40.0161193" lon="9.6488622"><ele>129.66666666666669</ele><time>2026-03-28T14:46:50.307Z</time></trkpt><trkpt lat="40.0161511" lon="9.648763"><ele>130.0</ele><time>2026-03-28T14:46:51.31Z</time></trkpt><trkpt lat="40.0161933" lon="9.6486768"><ele>129.0</ele><time>2026-03-28T14:46:52.307Z</time></trkpt><trkpt lat="40.0162528" lon="9.6485887"><ele>128.0</ele><time>2026-03-28T14:46:53.313Z</time></trkpt><trkpt lat="40.0163083" lon="9.6485043"><ele>127.0</ele><time>2026-03-28T14:46:54.31Z</time></trkpt><trkpt lat="40.0163347" lon="9.6484211"><ele>126.0</ele><time>2026-03-28T14:46:55.31Z</time></trkpt><trkpt lat="40.0163412" lon="9.6483303"><ele>125.00000000000001</ele><time>2026-03-28T14:46:56.307Z</time></trkpt><trkpt lat="40.0163279" lon="9.6482371"><ele>124.0</ele><time>2026-03-28T14:46:57.315Z</time></trkpt><trkpt lat="40.0162961" lon="9.6481453"><ele>124.00000000000001</ele><time>2026-03-28T14:46:58.308Z</time></trkpt><trkpt lat="40.016242" lon="9.6480522"><ele>124.0</ele><time>2026-03-28T14:46:59.309Z</time></trkpt><trkpt lat="40.0161863" lon="9.6479573"><ele>124.0</ele><time>2026-03-28T14:47:00.315Z</time></trkpt><trkpt lat="40.0161325" lon="9.6478607"><ele>124.0</ele><time>2026-03-28T14:47:01.313Z</time></trkpt><trkpt lat="40.0160854" lon="9.6477739"><ele>124.00000000000001</ele><time>2026-03-28T14:47:02.34Z</time></trkpt><trkpt lat="40.0160748" lon="9.6476731"><ele>124.0</ele><time>2026-03-28T14:47:03.312Z</time></trkpt><trkpt lat="40.0160773" lon="9.6475661"><ele>121.83333333333334</ele><time>2026-03-28T14:47:04.31Z</time></trkpt><trkpt lat="40.0160811" lon="9.6474679"><ele>119.66666666666667</ele><time>2026-03-28T14:47:05.311Z</time></trkpt><trkpt lat="40.0160592" lon="9.6473719"><ele>117.5</ele><time>2026-03-28T14:47:06.317Z</time></trkpt><trkpt lat="40.0160373" lon="9.6472791"><ele>115.33333333333334</ele><time>2026-03-28T14:47:07.308Z</time></trkpt><trkpt lat="40.0160051" lon="9.6471685"><ele>113.16666666666667</ele><time>2026-03-28T14:47:08.321Z</time></trkpt><trkpt lat="40.016003" lon="9.6470438"><ele>111.0</ele><time>2026-03-28T14:47:09.308Z</time></trkpt><trkpt lat="40.0160175" lon="9.6469309"><ele>109.16666666666667</ele><time>2026-03-28T14:47:10.315Z</time></trkpt><trkpt lat="40.0160316" lon="9.6468162"><ele>107.33333333333334</ele><time>2026-03-28T14:47:11.323Z</time></trkpt><trkpt lat="40.0160771" lon="9.6467091"><ele>105.5</ele><time>2026-03-28T14:47:12.317Z</time></trkpt><trkpt lat="40.0161311" lon="9.6466083"><ele>103.66666666666667</ele><time>2026-03-28T14:47:13.338Z</time></trkpt><trkpt lat="40.0161778" lon="9.6465059"><ele>101.83333333333334</ele><time>2026-03-28T14:47:14.311Z</time></trkpt><trkpt lat="40.0162194" lon="9.6464189"><ele>100.0</ele><time>2026-03-28T14:47:15.315Z</time></trkpt><trkpt lat="40.0162535" lon="9.6463427"><ele>100.00000000000001</ele><time>2026-03-28T14:47:16.314Z</time></trkpt><trkpt lat="40.0162505" lon="9.646188"><ele>100.0</ele><time>2026-03-28T14:47:18.313Z</time></trkpt><trkpt lat="40.0162167" lon="9.6460991"><ele>100.0</ele><time>2026-03-28T14:47:19.332Z</time></trkpt><trkpt lat="40.0161694" lon="9.6460309"><ele>100.0</ele><time>2026-03-28T14:47:20.312Z</time></trkpt><trkpt lat="40.0161172" lon="9.6459622"><ele>100.00000000000001</ele><time>2026-03-28T14:47:21.309Z</time></trkpt><trkpt lat="40.0160366" lon="9.6458903"><ele>100.0</ele><time>2026-03-28T14:47:22.309Z</time></trkpt><trkpt lat="40.0159463" lon="9.64583"><ele>98.16666666666667</ele><time>2026-03-28T14:47:23.307Z</time></trkpt><trkpt lat="40.0158586" lon="9.6457733"><ele>96.33333333333334</ele><time>2026-03-28T14:47:24.326Z</time></trkpt><trkpt lat="40.0157846" lon="9.6457459"><ele>94.5</ele><time>2026-03-28T14:47:25.314Z</time></trkpt><trkpt lat="40.0157183" lon="9.6457236"><ele>92.66666666666667</ele><time>2026-03-28T14:47:26.306Z</time></trkpt><trkpt lat="40.0156517" lon="9.6456857"><ele>90.83333333333334</ele><time>2026-03-28T14:47:28.307Z</time></trkpt><trkpt lat="40.0156607" lon="9.645553"><ele>89.0</ele><time>2026-03-28T14:47:31.32Z</time></trkpt><trkpt lat="40.0156913" lon="9.6454646"><ele>87.80000000000001</ele><time>2026-03-28T14:47:32.312Z</time></trkpt><trkpt lat="40.0157107" lon="9.6453492"><ele>86.60000000000001</ele><time>2026-03-28T14:47:33.317Z</time></trkpt><trkpt lat="40.0157322" lon="9.6452294"><ele>85.4</ele><time>2026-03-28T14:47:34.309Z</time></trkpt><trkpt lat="40.0157473" lon="9.6450977"><ele>84.2</ele><time>2026-03-28T14:47:35.33Z</time></trkpt><trkpt lat="40.0157835" lon="9.6449727"><ele>83.0</ele><time>2026-03-28T14:47:36.304Z</time></trkpt><trkpt lat="40.015817" lon="9.6448682"><ele>83.0</ele><time>2026-03-28T14:47:37.317Z</time></trkpt><trkpt lat="40.0158962" lon="9.6447775"><ele>83.0</ele><time>2026-03-28T14:47:39.313Z</time></trkpt><trkpt lat="40.015992" lon="9.6447491"><ele>83.0</ele><time>2026-03-28T14:47:41.307Z</time></trkpt><trkpt lat="40.0160328" lon="9.6446257"><ele>83.0</ele><time>2026-03-28T14:47:43.306Z</time></trkpt><trkpt lat="40.0160479" lon="9.6445364"><ele>83.0</ele><time>2026-03-28T14:47:44.306Z</time></trkpt><trkpt lat="40.016062" lon="9.6444148"><ele>81.80000000000001</ele><time>2026-03-28T14:47:45.311Z</time></trkpt><trkpt lat="40.016078" lon="9.6442721"><ele>80.60000000000001</ele><time>2026-03-28T14:47:46.314Z</time></trkpt><trkpt lat="40.0160916" lon="9.6441349"><ele>79.4</ele><time>2026-03-28T14:47:47.306Z</time></trkpt><trkpt lat="40.0161048" lon="9.6439995"><ele>78.2</ele><time>2026-03-28T14:47:48.332Z</time></trkpt><trkpt lat="40.0161178" lon="9.6438741"><ele>77.0</ele><time>2026-03-28T14:47:49.315Z</time></trkpt><trkpt lat="40.0161374" lon="9.6437638"><ele>77.0</ele><time>2026-03-28T14:47:50.316Z</time></trkpt><trkpt lat="40.016157" lon="9.6436649"><ele>77.0</ele><time>2026-03-28T14:47:51.313Z</time></trkpt><trkpt lat="40.0161684" lon="9.6434993"><ele>77.0</ele><time>2026-03-28T14:47:53.314Z</time></trkpt><trkpt lat="40.0161342" lon="9.6434046"><ele>77.0</ele><time>2026-03-28T14:47:54.318Z</time></trkpt><trkpt lat="40.0160825" lon="9.6433036"><ele>77.0</ele><time>2026-03-28T14:47:55.311Z</time></trkpt><trkpt lat="40.0160406" lon="9.6432086"><ele>75.8</ele><time>2026-03-28T14:47:56.321Z</time></trkpt><trkpt lat="40.0159873" lon="9.6431091"><ele>74.6</ele><time>2026-03-28T14:47:57.309Z</time></trkpt><trkpt lat="40.0159398" lon="9.643006"><ele>73.39999999999999</ele><time>2026-03-28T14:47:58.311Z</time></trkpt><trkpt lat="40.0159005" lon="9.6429008"><ele>72.2</ele><time>2026-03-28T14:47:59.312Z</time></trkpt><trkpt lat="40.0158627" lon="9.6427934"><ele>71.0</ele><time>2026-03-28T14:48:00.32Z</time></trkpt><trkpt lat="40.0158416" lon="9.6426618"><ele>70.8</ele><time>2026-03-28T14:48:01.312Z</time></trkpt><trkpt lat="40.0158308" lon="9.6425335"><ele>70.6</ele><time>2026-03-28T14:48:02.31Z</time></trkpt><trkpt lat="40.0158148" lon="9.6424014"><ele>70.4</ele><time>2026-03-28T14:48:03.312Z</time></trkpt><trkpt lat="40.0158003" lon="9.6422785"><ele>70.2</ele><time>2026-03-28T14:48:04.314Z</time></trkpt><trkpt lat="40.015777" lon="9.6421508"><ele>70.0</ele><time>2026-03-28T14:48:05.319Z</time></trkpt><trkpt lat="40.0157466" lon="9.642017"><ele>69.5</ele><time>2026-03-28T14:48:06.306Z</time></trkpt><trkpt lat="40.0157157" lon="9.641873"><ele>69.0</ele><time>2026-03-28T14:48:07.313Z</time></trkpt><trkpt lat="40.0156821" lon="9.6417277"><ele>68.5</ele><time>2026-03-28T14:48:08.313Z</time></trkpt><trkpt lat="40.0156511" lon="9.6415818"><ele>68.0</ele><time>2026-03-28T14:48:09.325Z</time></trkpt><trkpt lat="40.0156227" lon="9.6414433"><ele>68.0</ele><time>2026-03-28T14:48:10.303Z</time></trkpt><trkpt lat="40.0156038" lon="9.6413038"><ele>68.0</ele><time>2026-03-28T14:48:11.318Z</time></trkpt><trkpt lat="40.0155978" lon="9.6411555"><ele>68.0</ele><time>2026-03-28T14:48:12.309Z</time></trkpt><trkpt lat="40.015596" lon="9.641002"><ele>68.0</ele><time>2026-03-28T14:48:13.309Z</time></trkpt><trkpt lat="40.0155894" lon="9.6408561"><ele>67.8</ele><time>2026-03-28T14:48:14.311Z</time></trkpt><trkpt lat="40.0155819" lon="9.6407232"><ele>67.6</ele><time>2026-03-28T14:48:15.322Z</time></trkpt><trkpt lat="40.0155748" lon="9.640599"><ele>67.4</ele><time>2026-03-28T14:48:16.321Z</time></trkpt><trkpt lat="40.0155955" lon="9.6404699"><ele>67.2</ele><time>2026-03-28T14:48:17.343Z</time></trkpt><trkpt lat="40.0156269" lon="9.6403371"><ele>67.0</ele><time>2026-03-28T14:48:18.312Z</time></trkpt><trkpt lat="40.0156664" lon="9.6402117"><ele>66.8</ele><time>2026-03-28T14:48:19.313Z</time></trkpt><trkpt lat="40.0157201" lon="9.6400913"><ele>66.6</ele><time>2026-03-28T14:48:20.309Z</time></trkpt><trkpt lat="40.015769" lon="9.639967"><ele>66.39999999999999</ele><time>2026-03-28T14:48:21.315Z</time></trkpt><trkpt lat="40.0158417" lon="9.639855"><ele>66.2</ele><time>2026-03-28T14:48:22.318Z</time></trkpt><trkpt lat="40.0159111" lon="9.6397441"><ele>66.0</ele><time>2026-03-28T14:48:23.312Z</time></trkpt><trkpt lat="40.0159767" lon="9.6396357"><ele>65.0</ele><time>2026-03-28T14:48:24.306Z</time></trkpt><trkpt lat="40.0160347" lon="9.6395353"><ele>64.0</ele><time>2026-03-28T14:48:25.318Z</time></trkpt><trkpt lat="40.0160866" lon="9.6394414"><ele>63.0</ele><time>2026-03-28T14:48:26.318Z</time></trkpt><trkpt lat="40.016139" lon="9.639355"><ele>62.0</ele><time>2026-03-28T14:48:27.309Z</time></trkpt><trkpt lat="40.0161859" lon="9.6392756"><ele>61.0</ele><time>2026-03-28T14:48:28.309Z</time></trkpt><trkpt lat="40.0162231" lon="9.6392051"><ele>60.0</ele><time>2026-03-28T14:48:29.319Z</time></trkpt><trkpt lat="40.0162616" lon="9.639105"><ele>59.6</ele><time>2026-03-28T14:48:31.329Z</time></trkpt><trkpt lat="40.016255" lon="9.638998"><ele>59.2</ele><time>2026-03-28T14:48:33.318Z</time></trkpt><trkpt lat="40.0162435" lon="9.6389062"><ele>58.8</ele><time>2026-03-28T14:48:34.309Z</time></trkpt><trkpt lat="40.0162167" lon="9.6387954"><ele>58.4</ele><time>2026-03-28T14:48:35.308Z</time></trkpt><trkpt lat="40.0161662" lon="9.6386832"><ele>58.0</ele><time>2026-03-28T14:48:36.31Z</time></trkpt><trkpt lat="40.0161029" lon="9.6385568"><ele>57.4</ele><time>2026-03-28T14:48:37.307Z</time></trkpt><trkpt lat="40.0160484" lon="9.6384159"><ele>56.8</ele><time>2026-03-28T14:48:38.331Z</time></trkpt><trkpt lat="40.0160012" lon="9.6382706"><ele>56.2</ele><time>2026-03-28T14:48:39.305Z</time></trkpt><trkpt lat="40.0159623" lon="9.6381441"><ele>55.6</ele><time>2026-03-28T14:48:40.317Z</time></trkpt><trkpt lat="40.0159351" lon="9.6380379"><ele>55.0</ele><time>2026-03-28T14:48:41.32Z</time></trkpt><trkpt lat="40.0159219" lon="9.6379353"><ele>55.0</ele><time>2026-03-28T14:48:42.304Z</time></trkpt><trkpt lat="40.0159232" lon="9.6378125"><ele>55.0</ele><time>2026-03-28T14:48:43.323Z</time></trkpt><trkpt lat="40.0159275" lon="9.6376725"><ele>55.0</ele><time>2026-03-28T14:48:44.303Z</time></trkpt><trkpt lat="40.0159264" lon="9.6375256"><ele>55.0</ele><time>2026-03-28T14:48:45.306Z</time></trkpt><trkpt lat="40.0159218" lon="9.6373826"><ele>55.0</ele><time>2026-03-28T14:48:46.309Z</time></trkpt><trkpt lat="40.0159207" lon="9.6372522"><ele>54.6</ele><time>2026-03-28T14:48:47.31Z</time></trkpt><trkpt lat="40.0159208" lon="9.6371327"><ele>54.2</ele><time>2026-03-28T14:48:48.307Z</time></trkpt><trkpt lat="40.0159005" lon="9.6370118"><ele>53.8</ele><time>2026-03-28T14:48:49.304Z</time></trkpt><trkpt lat="40.0158794" lon="9.6368895"><ele>53.4</ele><time>2026-03-28T14:48:50.308Z</time></trkpt><trkpt lat="40.015843" lon="9.636774"><ele>53.0</ele><time>2026-03-28T14:48:51.31Z</time></trkpt><trkpt lat="40.0158052" lon="9.6366597"><ele>52.4</ele><time>2026-03-28T14:48:52.311Z</time></trkpt><trkpt lat="40.0157697" lon="9.6365584"><ele>51.8</ele><time>2026-03-28T14:48:53.331Z</time></trkpt><trkpt lat="40.0157202" lon="9.6364436"><ele>51.2</ele><time>2026-03-28T14:48:54.307Z</time></trkpt><trkpt lat="40.0156548" lon="9.6363587"><ele>50.6</ele><time>2026-03-28T14:48:55.317Z</time></trkpt><trkpt lat="40.0155902" lon="9.6362781"><ele>50.0</ele><time>2026-03-28T14:48:56.312Z</time></trkpt><trkpt lat="40.0154946" lon="9.636195"><ele>49.6</ele><time>2026-03-28T14:48:57.306Z</time></trkpt><trkpt lat="40.0153925" lon="9.6361131"><ele>49.2</ele><time>2026-03-28T14:48:58.33Z</time></trkpt><trkpt lat="40.015305" lon="9.6360481"><ele>48.8</ele><time>2026-03-28T14:48:59.309Z</time></trkpt><trkpt lat="40.0152217" lon="9.6359845"><ele>48.4</ele><time>2026-03-28T14:49:00.318Z</time></trkpt><trkpt lat="40.0151509" lon="9.6359204"><ele>48.0</ele><time>2026-03-28T14:49:01.314Z</time></trkpt><trkpt lat="40.0150798" lon="9.6358421"><ele>48.0</ele><time>2026-03-28T14:49:02.316Z</time></trkpt><trkpt lat="40.0150219" lon="9.6357503"><ele>48.0</ele><time>2026-03-28T14:49:03.316Z</time></trkpt><trkpt lat="40.014968" lon="9.6356465"><ele>48.0</ele><time>2026-03-28T14:49:04.318Z</time></trkpt><trkpt lat="40.014926" lon="9.6355517"><ele>48.0</ele><time>2026-03-28T14:49:05.311Z</time></trkpt><trkpt lat="40.0148812" lon="9.6353984"><ele>48.0</ele><time>2026-03-28T14:49:07.312Z</time></trkpt><trkpt lat="40.0148858" lon="9.6352861"><ele>49.0</ele><time>2026-03-28T14:49:08.315Z</time></trkpt><trkpt lat="40.0148817" lon="9.6351504"><ele>50.0</ele><time>2026-03-28T14:49:09.31Z</time></trkpt><trkpt lat="40.0148701" lon="9.6350313"><ele>51.0</ele><time>2026-03-28T14:49:10.307Z</time></trkpt><trkpt lat="40.0148585" lon="9.6349144"><ele>52.0</ele><time>2026-03-28T14:49:11.316Z</time></trkpt><trkpt lat="40.0148277" lon="9.6348049"><ele>53.0</ele><time>2026-03-28T14:49:12.305Z</time></trkpt><trkpt lat="40.0147842" lon="9.6346945"><ele>53.00000000000001</ele><time>2026-03-28T14:49:13.336Z</time></trkpt><trkpt lat="40.0147361" lon="9.6345885"><ele>53.0</ele><time>2026-03-28T14:49:14.304Z</time></trkpt><trkpt lat="40.0146791" lon="9.6345054"><ele>53.0</ele><time>2026-03-28T14:49:15.309Z</time></trkpt><trkpt lat="40.0146051" lon="9.6344629"><ele>53.0</ele><time>2026-03-28T14:49:16.306Z</time></trkpt><trkpt lat="40.014522" lon="9.6344437"><ele>53.00000000000001</ele><time>2026-03-28T14:49:17.311Z</time></trkpt><trkpt lat="40.0144523" lon="9.6344526"><ele>53.0</ele><time>2026-03-28T14:49:18.311Z</time></trkpt><trkpt lat="40.0143615" lon="9.6344799"><ele>54.16666666666667</ele><time>2026-03-28T14:49:20.338Z</time></trkpt><trkpt lat="40.0144007" lon="9.6344069"><ele>55.333333333333336</ele><time>2026-03-28T14:49:25.309Z</time></trkpt><trkpt lat="40.0145265" lon="9.6343806"><ele>56.5</ele><time>2026-03-28T14:49:27.312Z</time></trkpt><trkpt lat="40.0146051" lon="9.6343801"><ele>57.66666666666667</ele><time>2026-03-28T14:49:28.317Z</time></trkpt><trkpt lat="40.0146708" lon="9.6343829"><ele>58.833333333333336</ele><time>2026-03-28T14:49:29.309Z</time></trkpt><trkpt lat="40.0147582" lon="9.6343785"><ele>60.0</ele><time>2026-03-28T14:49:31.313Z</time></trkpt><trkpt lat="40.0147725" lon="9.6342662"><ele>60.0</ele><time>2026-03-28T14:49:34.319Z</time></trkpt><trkpt lat="40.0147675" lon="9.6341293"><ele>60.0</ele><time>2026-03-28T14:49:36.318Z</time></trkpt><trkpt lat="40.0147639" lon="9.6340367"><ele>60.0</ele><time>2026-03-28T14:49:37.312Z</time></trkpt><trkpt lat="40.0147624" lon="9.6339284"><ele>60.0</ele><time>2026-03-28T14:49:38.316Z</time></trkpt><trkpt lat="40.0147615" lon="9.633815"><ele>60.0</ele><time>2026-03-28T14:49:39.318Z</time></trkpt><trkpt lat="40.0147656" lon="9.63369"><ele>60.0</ele><time>2026-03-28T14:49:40.311Z</time></trkpt><trkpt lat="40.0147699" lon="9.6335752"><ele>59.833333333333336</ele><time>2026-03-28T14:49:41.313Z</time></trkpt><trkpt lat="40.0147704" lon="9.6334738"><ele>59.66666666666667</ele><time>2026-03-28T14:49:42.31Z</time></trkpt><trkpt lat="40.0147669" lon="9.6333822"><ele>59.5</ele><time>2026-03-28T14:49:43.33Z</time></trkpt><trkpt lat="40.0147509" lon="9.6332476"><ele>59.333333333333336</ele><time>2026-03-28T14:49:45.308Z</time></trkpt><trkpt lat="40.0147021" lon="9.6331873"><ele>59.16666666666667</ele><time>2026-03-28T14:49:47.311Z</time></trkpt><trkpt lat="40.0145974" lon="9.6331715"><ele>59.0</ele><time>2026-03-28T14:49:49.314Z</time></trkpt><trkpt lat="40.0144907" lon="9.6331323"><ele>59.0</ele><time>2026-03-28T14:49:51.31Z</time></trkpt><trkpt lat="40.0144549" lon="9.6330486"><ele>59.00000000000001</ele><time>2026-03-28T14:49:52.308Z</time></trkpt><trkpt lat="40.0144142" lon="9.6329319"><ele>59.00000000000001</ele><time>2026-03-28T14:49:53.334Z</time></trkpt><trkpt lat="40.0143745" lon="9.6327954"><ele>59.0</ele><time>2026-03-28T14:49:54.309Z</time></trkpt><trkpt lat="40.0143336" lon="9.6326494"><ele>59.0</ele><time>2026-03-28T14:49:55.319Z</time></trkpt><trkpt lat="40.014297" lon="9.6325161"><ele>59.00000000000001</ele><time>2026-03-28T14:49:56.315Z</time></trkpt><trkpt lat="40.0142637" lon="9.6324048"><ele>59.0</ele><time>2026-03-28T14:49:57.312Z</time></trkpt><trkpt lat="40.0142282" lon="9.6323146"><ele>59.0</ele><time>2026-03-28T14:49:58.314Z</time></trkpt><trkpt lat="40.0141904" lon="9.6322275"><ele>59.0</ele><time>2026-03-28T14:49:59.306Z</time></trkpt><trkpt lat="40.0141321" lon="9.6321474"><ele>59.00000000000001</ele><time>2026-03-28T14:50:00.314Z</time></trkpt><trkpt lat="40.0140829" lon="9.6320746"><ele>59.0</ele><time>2026-03-28T14:50:01.316Z</time></trkpt><trkpt lat="40.0140352" lon="9.6320086"><ele>58.6</ele><time>2026-03-28T14:50:02.31Z</time></trkpt><trkpt lat="40.0139772" lon="9.6319034"><ele>58.2</ele><time>2026-03-28T14:50:04.318Z</time></trkpt><trkpt lat="40.0139436" lon="9.6317585"><ele>57.800000000000004</ele><time>2026-03-28T14:50:06.309Z</time></trkpt><trkpt lat="40.0139492" lon="9.6316594"><ele>57.400000000000006</ele><time>2026-03-28T14:50:07.313Z</time></trkpt><trkpt lat="40.0139394" lon="9.6315741"><ele>57.0</ele><time>2026-03-28T14:50:08.325Z</time></trkpt><trkpt lat="40.0139602" lon="9.6314274"><ele>57.0</ele><time>2026-03-28T14:50:10.309Z</time></trkpt><trkpt lat="40.0140097" lon="9.6313615"><ele>57.0</ele><time>2026-03-28T14:50:11.31Z</time></trkpt><trkpt lat="40.0140543" lon="9.6312956"><ele>57.0</ele><time>2026-03-28T14:50:12.308Z</time></trkpt><trkpt lat="40.0141077" lon="9.6311781"><ele>57.0</ele><time>2026-03-28T14:50:14.311Z</time></trkpt><trkpt lat="40.0140993" lon="9.6310724"><ele>57.0</ele><time>2026-03-28T14:50:16.32Z</time></trkpt><trkpt lat="40.0140093" lon="9.6309505"><ele>56.8</ele><time>2026-03-28T14:50:18.326Z</time></trkpt><trkpt lat="40.0139438" lon="9.6308722"><ele>56.6</ele><time>2026-03-28T14:50:19.31Z</time></trkpt><trkpt lat="40.0138728" lon="9.6307854"><ele>56.39999999999999</ele><time>2026-03-28T14:50:20.313Z</time></trkpt><trkpt lat="40.0138024" lon="9.6307006"><ele>56.199999999999996</ele><time>2026-03-28T14:50:21.311Z</time></trkpt><trkpt lat="40.0137252" lon="9.6306149"><ele>56.0</ele><time>2026-03-28T14:50:22.315Z</time></trkpt><trkpt lat="40.0136454" lon="9.6305269"><ele>56.0</ele><time>2026-03-28T14:50:23.323Z</time></trkpt><trkpt lat="40.013574" lon="9.6304419"><ele>55.99999999999999</ele><time>2026-03-28T14:50:24.318Z</time></trkpt><trkpt lat="40.0134999" lon="9.6303421"><ele>55.99999999999999</ele><time>2026-03-28T14:50:25.316Z</time></trkpt><trkpt lat="40.0134267" lon="9.6302447"><ele>56.0</ele><time>2026-03-28T14:50:26.305Z</time></trkpt><trkpt lat="40.0133525" lon="9.630142"><ele>56.0</ele><time>2026-03-28T14:50:27.311Z</time></trkpt><trkpt lat="40.0132766" lon="9.6300449"><ele>55.4</ele><time>2026-03-28T14:50:28.317Z</time></trkpt><trkpt lat="40.0132057" lon="9.6299481"><ele>54.8</ele><time>2026-03-28T14:50:29.308Z</time></trkpt><trkpt lat="40.0131436" lon="9.6298574"><ele>54.199999999999996</ele><time>2026-03-28T14:50:30.32Z</time></trkpt><trkpt lat="40.0130883" lon="9.6297785"><ele>53.599999999999994</ele><time>2026-03-28T14:50:31.306Z</time></trkpt><trkpt lat="40.0130072" lon="9.629699"><ele>53.0</ele><time>2026-03-28T14:50:33.309Z</time></trkpt><trkpt lat="40.012939" lon="9.6296548"><ele>53.0</ele><time>2026-03-28T14:50:35.313Z</time></trkpt><trkpt lat="40.0128455" lon="9.6295624"><ele>53.0</ele><time>2026-03-28T14:50:37.311Z</time></trkpt><trkpt lat="40.012798" lon="9.6295054"><ele>53.0</ele><time>2026-03-28T14:50:38.315Z</time></trkpt><trkpt lat="40.0127167" lon="9.6294061"><ele>53.0</ele><time>2026-03-28T14:50:40.306Z</time></trkpt><trkpt lat="40.01265" lon="9.6293909"><ele>53.0</ele><time>2026-03-28T14:50:42.315Z</time></trkpt><trkpt lat="40.012568" lon="9.6294749"><ele>53.00000000000001</ele><time>2026-03-28T14:50:44.312Z</time></trkpt><trkpt lat="40.0125131" lon="9.6295449"><ele>53.0</ele><time>2026-03-28T14:50:45.315Z</time></trkpt><trkpt lat="40.0124531" lon="9.6296203"><ele>53.0</ele><time>2026-03-28T14:50:46.312Z</time></trkpt><trkpt lat="40.01239" lon="9.629701"><ele>53.0</ele><time>2026-03-28T14:50:47.31Z</time></trkpt><trkpt lat="40.012328" lon="9.6297815"><ele>53.00000000000001</ele><time>2026-03-28T14:50:48.304Z</time></trkpt><trkpt lat="40.0122813" lon="9.629844"><ele>53.0</ele><time>2026-03-28T14:50:49.309Z</time></trkpt><trkpt lat="40.012167" lon="9.6299062"><ele>52.8</ele><time>2026-03-28T14:50:51.31Z</time></trkpt><trkpt lat="40.0120836" lon="9.6299023"><ele>52.599999999999994</ele><time>2026-03-28T14:50:52.304Z</time></trkpt><trkpt lat="40.0119812" lon="9.629893"><ele>52.400000000000006</ele><time>2026-03-28T14:50:53.313Z</time></trkpt><trkpt lat="40.0118693" lon="9.6298866"><ele>52.2</ele><time>2026-03-28T14:50:54.34Z</time></trkpt><trkpt lat="40.0117649" lon="9.6298828"><ele>52.0</ele><time>2026-03-28T14:50:55.311Z</time></trkpt><trkpt lat="40.011658" lon="9.6298698"><ele>51.666666666666664</ele><time>2026-03-28T14:50:56.315Z</time></trkpt><trkpt lat="40.0115608" lon="9.6298465"><ele>51.33333333333333</ele><time>2026-03-28T14:50:57.316Z</time></trkpt><trkpt lat="40.0114702" lon="9.6298222"><ele>51.0</ele><time>2026-03-28T14:50:58.307Z</time></trkpt><trkpt lat="40.0113884" lon="9.6297793"><ele>50.66666666666667</ele><time>2026-03-28T14:50:59.324Z</time></trkpt><trkpt lat="40.0113097" lon="9.6297484"><ele>50.333333333333336</ele><time>2026-03-28T14:51:00.312Z</time></trkpt><trkpt lat="40.0112347" lon="9.6297467"><ele>50.0</ele><time>2026-03-28T14:51:01.31Z</time></trkpt><trkpt lat="40.0111612" lon="9.6297754"><ele>50.0</ele><time>2026-03-28T14:51:02.305Z</time></trkpt><trkpt lat="40.0110716" lon="9.6298298"><ele>50.0</ele><time>2026-03-28T14:51:03.309Z</time></trkpt><trkpt lat="40.0109713" lon="9.6298984"><ele>50.0</ele><time>2026-03-28T14:51:04.316Z</time></trkpt><trkpt lat="40.0108632" lon="9.6299699"><ele>50.0</ele><time>2026-03-28T14:51:05.312Z</time></trkpt><trkpt lat="40.0107592" lon="9.6300355"><ele>50.0</ele><time>2026-03-28T14:51:06.327Z</time></trkpt><trkpt lat="40.010666" lon="9.6300864"><ele>49.5</ele><time>2026-03-28T14:51:07.31Z</time></trkpt><trkpt lat="40.0105559" lon="9.6301097"><ele>49.0</ele><time>2026-03-28T14:51:08.318Z</time></trkpt><trkpt lat="40.0104475" lon="9.6301277"><ele>48.5</ele><time>2026-03-28T14:51:09.309Z</time></trkpt><trkpt lat="40.0103296" lon="9.6301191"><ele>48.0</ele><time>2026-03-28T14:51:10.314Z</time></trkpt><trkpt lat="40.0102152" lon="9.6301235"><ele>48.0</ele><time>2026-03-28T14:51:11.307Z</time></trkpt><trkpt lat="40.0101306" lon="9.6301313"><ele>48.0</ele><time>2026-03-28T14:51:12.303Z</time></trkpt><trkpt lat="40.0100348" lon="9.630144"><ele>48.0</ele><time>2026-03-28T14:51:14.31Z</time></trkpt><trkpt lat="40.0099258" lon="9.6301091"><ele>48.0</ele><time>2026-03-28T14:51:16.321Z</time></trkpt><trkpt lat="40.0098428" lon="9.6301048"><ele>48.0</ele><time>2026-03-28T14:51:17.313Z</time></trkpt><trkpt lat="40.0097568" lon="9.6301019"><ele>47.4</ele><time>2026-03-28T14:51:18.333Z</time></trkpt><trkpt lat="40.0096663" lon="9.6301215"><ele>46.8</ele><time>2026-03-28T14:51:19.31Z</time></trkpt><trkpt lat="40.0095787" lon="9.6301341"><ele>46.2</ele><time>2026-03-28T14:51:20.317Z</time></trkpt><trkpt lat="40.0094968" lon="9.6301345"><ele>45.6</ele><time>2026-03-28T14:51:21.317Z</time></trkpt><trkpt lat="40.0094228" lon="9.6301331"><ele>45.0</ele><time>2026-03-28T14:51:22.314Z</time></trkpt><trkpt lat="40.0093202" lon="9.6300656"><ele>45.0</ele><time>2026-03-28T14:51:24.306Z</time></trkpt><trkpt lat="40.0092817" lon="9.6299968"><ele>45.0</ele><time>2026-03-28T14:51:25.315Z</time></trkpt><trkpt lat="40.0092515" lon="9.6298907"><ele>45.0</ele><time>2026-03-28T14:51:26.315Z</time></trkpt><trkpt lat="40.009232" lon="9.6297693"><ele>45.0</ele><time>2026-03-28T14:51:27.336Z</time></trkpt><trkpt lat="40.0092202" lon="9.6296475"><ele>45.0</ele><time>2026-03-28T14:51:28.313Z</time></trkpt><trkpt lat="40.0091929" lon="9.6295214"><ele>45.0</ele><time>2026-03-28T14:51:29.318Z</time></trkpt><trkpt lat="40.009162" lon="9.6293851"><ele>44.5</ele><time>2026-03-28T14:51:30.312Z</time></trkpt><trkpt lat="40.0091106" lon="9.629259"><ele>44.0</ele><time>2026-03-28T14:51:31.312Z</time></trkpt><trkpt lat="40.0090646" lon="9.6291124"><ele>43.5</ele><time>2026-03-28T14:51:32.313Z</time></trkpt><trkpt lat="40.0090206" lon="9.6289567"><ele>43.0</ele><time>2026-03-28T14:51:33.308Z</time></trkpt><trkpt lat="40.0089753" lon="9.6287924"><ele>43.5</ele><time>2026-03-28T14:51:34.313Z</time></trkpt><trkpt lat="40.0089264" lon="9.6286301"><ele>44.0</ele><time>2026-03-28T14:51:35.308Z</time></trkpt><trkpt lat="40.008878" lon="9.6284787"><ele>44.5</ele><time>2026-03-28T14:51:36.33Z</time></trkpt><trkpt lat="40.0088275" lon="9.6283287"><ele>45.0</ele><time>2026-03-28T14:51:37.311Z</time></trkpt><trkpt lat="40.0087772" lon="9.6281803"><ele>45.0</ele><time>2026-03-28T14:51:38.315Z</time></trkpt><trkpt lat="40.0087387" lon="9.6280169"><ele>45.0</ele><time>2026-03-28T14:51:39.309Z</time></trkpt><trkpt lat="40.0086991" lon="9.6278375"><ele>45.0</ele><time>2026-03-28T14:51:40.307Z</time></trkpt><trkpt lat="40.0086616" lon="9.6276602"><ele>45.0</ele><time>2026-03-28T14:51:41.309Z</time></trkpt><trkpt lat="40.0086188" lon="9.627476"><ele>45.75</ele><time>2026-03-28T14:51:42.308Z</time></trkpt><trkpt lat="40.008572" lon="9.6272923"><ele>46.5</ele><time>2026-03-28T14:51:43.315Z</time></trkpt><trkpt lat="40.0085238" lon="9.6271072"><ele>47.25</ele><time>2026-03-28T14:51:44.309Z</time></trkpt><trkpt lat="40.0084774" lon="9.6269227"><ele>48.0</ele><time>2026-03-28T14:51:45.311Z</time></trkpt><trkpt lat="40.0084325" lon="9.6267519"><ele>49.2</ele><time>2026-03-28T14:51:46.332Z</time></trkpt><trkpt lat="40.0083909" lon="9.6266046"><ele>50.4</ele><time>2026-03-28T14:51:47.309Z</time></trkpt><trkpt lat="40.0083517" lon="9.6264696"><ele>51.60000000000001</ele><time>2026-03-28T14:51:48.306Z</time></trkpt><trkpt lat="40.0083317" lon="9.6263527"><ele>52.800000000000004</ele><time>2026-03-28T14:51:49.309Z</time></trkpt><trkpt lat="40.0083336" lon="9.6262413"><ele>54.0</ele><time>2026-03-28T14:51:50.31Z</time></trkpt><trkpt lat="40.0083527" lon="9.6261193"><ele>54.5</ele><time>2026-03-28T14:51:51.313Z</time></trkpt><trkpt lat="40.008373" lon="9.6260134"><ele>55.0</ele><time>2026-03-28T14:51:52.325Z</time></trkpt><trkpt lat="40.0083651" lon="9.625924"><ele>55.5</ele><time>2026-03-28T14:51:53.31Z</time></trkpt><trkpt lat="40.0083574" lon="9.625835"><ele>56.0</ele><time>2026-03-28T14:51:54.305Z</time></trkpt><trkpt lat="40.0083285" lon="9.6257286"><ele>56.5</ele><time>2026-03-28T14:51:56.314Z</time></trkpt><trkpt lat="40.0083923" lon="9.6256919"><ele>57.0</ele><time>2026-03-28T14:52:06.334Z</time></trkpt><trkpt lat="40.0084847" lon="9.6256833"><ele>57.0</ele><time>2026-03-28T14:52:08.332Z</time></trkpt><trkpt lat="40.0085577" lon="9.6256763"><ele>57.0</ele><time>2026-03-28T14:52:09.319Z</time></trkpt><trkpt lat="40.0086567" lon="9.6256807"><ele>57.0</ele><time>2026-03-28T14:52:10.307Z</time></trkpt><trkpt lat="40.0087558" lon="9.6256792"><ele>57.0</ele><time>2026-03-28T14:52:11.313Z</time></trkpt><trkpt lat="40.0088583" lon="9.625689"><ele>57.0</ele><time>2026-03-28T14:52:12.316Z</time></trkpt><trkpt lat="40.0089384" lon="9.6256973"><ele>57.0</ele><time>2026-03-28T14:52:13.318Z</time></trkpt><trkpt lat="40.0090419" lon="9.6256881"><ele>57.0</ele><time>2026-03-28T14:52:15.308Z</time></trkpt><trkpt lat="40.0090776" lon="9.6255981"><ele>57.0</ele><time>2026-03-28T14:52:17.311Z</time></trkpt><trkpt lat="40.009066" lon="9.6254237"><ele>57.0</ele><time>2026-03-28T14:52:19.315Z</time></trkpt><trkpt lat="40.0090525" lon="9.6252953"><ele>57.0</ele><time>2026-03-28T14:52:20.315Z</time></trkpt><trkpt lat="40.0090471" lon="9.6251843"><ele>56.666666666666664</ele><time>2026-03-28T14:52:21.307Z</time></trkpt><trkpt lat="40.0090429" lon="9.6250912"><ele>56.33333333333333</ele><time>2026-03-28T14:52:22.32Z</time></trkpt><trkpt lat="40.0090323" lon="9.6249733"><ele>56.0</ele><time>2026-03-28T14:52:24.335Z</time></trkpt><trkpt lat="40.0089804" lon="9.6249014"><ele>55.666666666666664</ele><time>2026-03-28T14:52:26.319Z</time></trkpt><trkpt lat="40.0089173" lon="9.6248603"><ele>55.33333333333333</ele><time>2026-03-28T14:52:27.312Z</time></trkpt><trkpt lat="40.008835" lon="9.6248073"><ele>55.0</ele><time>2026-03-28T14:52:28.318Z</time></trkpt><trkpt lat="40.0087392" lon="9.6247513"><ele>54.99999999999999</ele><time>2026-03-28T14:52:29.306Z</time></trkpt><trkpt lat="40.0086516" lon="9.6246986"><ele>55.0</ele><time>2026-03-28T14:52:30.307Z</time></trkpt><trkpt lat="40.0085764" lon="9.6246537"><ele>55.0</ele><time>2026-03-28T14:52:31.309Z</time></trkpt><trkpt lat="40.0085062" lon="9.6245965"><ele>55.0</ele><time>2026-03-28T14:52:32.309Z</time></trkpt><trkpt lat="40.0084313" lon="9.6245385"><ele>54.99999999999999</ele><time>2026-03-28T14:52:33.313Z</time></trkpt><trkpt lat="40.0083551" lon="9.6244759"><ele>55.0</ele><time>2026-03-28T14:52:34.332Z</time></trkpt><trkpt lat="40.0082726" lon="9.6244092"><ele>53.8</ele><time>2026-03-28T14:52:35.313Z</time></trkpt><trkpt lat="40.0081843" lon="9.6243446"><ele>52.6</ele><time>2026-03-28T14:52:36.313Z</time></trkpt><trkpt lat="40.0080888" lon="9.6242793"><ele>51.400000000000006</ele><time>2026-03-28T14:52:37.317Z</time></trkpt><trkpt lat="40.0079889" lon="9.6242099"><ele>50.2</ele><time>2026-03-28T14:52:38.31Z</time></trkpt><trkpt lat="40.0078867" lon="9.6241346"><ele>49.0</ele><time>2026-03-28T14:52:39.31Z</time></trkpt><trkpt lat="40.0077856" lon="9.6240571"><ele>49.0</ele><time>2026-03-28T14:52:40.313Z</time></trkpt><trkpt lat="40.0076844" lon="9.6239757"><ele>49.0</ele><time>2026-03-28T14:52:41.314Z</time></trkpt><trkpt lat="40.0075876" lon="9.6238947"><ele>49.0</ele><time>2026-03-28T14:52:42.326Z</time></trkpt><trkpt lat="40.0074951" lon="9.6238166"><ele>49.0</ele><time>2026-03-28T14:52:43.311Z</time></trkpt><trkpt lat="40.0074043" lon="9.6237434"><ele>49.2</ele><time>2026-03-28T14:52:44.317Z</time></trkpt><trkpt lat="40.0073164" lon="9.6236712"><ele>49.400000000000006</ele><time>2026-03-28T14:52:45.309Z</time></trkpt><trkpt lat="40.0072293" lon="9.6236004"><ele>49.6</ele><time>2026-03-28T14:52:46.312Z</time></trkpt><trkpt lat="40.0071454" lon="9.6235337"><ele>49.8</ele><time>2026-03-28T14:52:47.316Z</time></trkpt><trkpt lat="40.0070663" lon="9.6234688"><ele>50.0</ele><time>2026-03-28T14:52:48.307Z</time></trkpt><trkpt lat="40.0069841" lon="9.6234049"><ele>50.00000000000001</ele><time>2026-03-28T14:52:49.328Z</time></trkpt><trkpt lat="40.0069084" lon="9.6233463"><ele>50.0</ele><time>2026-03-28T14:52:50.31Z</time></trkpt><trkpt lat="40.0068319" lon="9.6232859"><ele>50.0</ele><time>2026-03-28T14:52:51.312Z</time></trkpt><trkpt lat="40.0067539" lon="9.6232258"><ele>50.0</ele><time>2026-03-28T14:52:52.307Z</time></trkpt><trkpt lat="40.0066746" lon="9.6231641"><ele>50.00000000000001</ele><time>2026-03-28T14:52:53.306Z</time></trkpt><trkpt lat="40.0065998" lon="9.623104"><ele>50.0</ele><time>2026-03-28T14:52:54.311Z</time></trkpt><trkpt lat="40.006528" lon="9.6230435"><ele>49.833333333333336</ele><time>2026-03-28T14:52:55.311Z</time></trkpt><trkpt lat="40.0064618" lon="9.6229882"><ele>49.66666666666667</ele><time>2026-03-28T14:52:56.321Z</time></trkpt><trkpt lat="40.0063974" lon="9.6229386"><ele>49.5</ele><time>2026-03-28T14:52:57.307Z</time></trkpt><trkpt lat="40.0063324" lon="9.6228889"><ele>49.33333333333333</ele><time>2026-03-28T14:52:58.309Z</time></trkpt><trkpt lat="40.0062733" lon="9.6228439"><ele>49.166666666666664</ele><time>2026-03-28T14:52:59.317Z</time></trkpt><trkpt lat="40.0061728" lon="9.6227653"><ele>49.0</ele><time>2026-03-28T14:53:01.309Z</time></trkpt><trkpt lat="40.0061123" lon="9.6227242"><ele>48.6</ele><time>2026-03-28T14:53:02.302Z</time></trkpt><trkpt lat="40.0060425" lon="9.6226774"><ele>48.2</ele><time>2026-03-28T14:53:03.316Z</time></trkpt><trkpt lat="40.0059598" lon="9.6226219"><ele>47.800000000000004</ele><time>2026-03-28T14:53:04.305Z</time></trkpt><trkpt lat="40.0058648" lon="9.6225623"><ele>47.400000000000006</ele><time>2026-03-28T14:53:05.321Z</time></trkpt><trkpt lat="40.005758" lon="9.6224997"><ele>47.0</ele><time>2026-03-28T14:53:06.305Z</time></trkpt><trkpt lat="40.0056557" lon="9.6224394"><ele>47.0</ele><time>2026-03-28T14:53:07.313Z</time></trkpt><trkpt lat="40.0055667" lon="9.622381"><ele>47.0</ele><time>2026-03-28T14:53:08.308Z</time></trkpt><trkpt lat="40.0054957" lon="9.6223176"><ele>47.0</ele><time>2026-03-28T14:53:09.309Z</time></trkpt><trkpt lat="40.0054464" lon="9.6222451"><ele>47.0</ele><time>2026-03-28T14:53:10.316Z</time></trkpt><trkpt lat="40.005424" lon="9.622165"><ele>47.0</ele><time>2026-03-28T14:53:11.315Z</time></trkpt><trkpt lat="40.0054672" lon="9.6220056"><ele>46.400000000000006</ele><time>2026-03-28T14:53:13.339Z</time></trkpt><trkpt lat="40.0055212" lon="9.6219179"><ele>45.800000000000004</ele><time>2026-03-28T14:53:14.31Z</time></trkpt><trkpt lat="40.005586" lon="9.6218145"><ele>45.2</ele><time>2026-03-28T14:53:15.332Z</time></trkpt><trkpt lat="40.005659" lon="9.6216975"><ele>44.6</ele><time>2026-03-28T14:53:16.307Z</time></trkpt><trkpt lat="40.0057389" lon="9.6215701"><ele>44.0</ele><time>2026-03-28T14:53:17.311Z</time></trkpt><trkpt lat="40.005825" lon="9.6214387"><ele>44.25</ele><time>2026-03-28T14:53:18.305Z</time></trkpt><trkpt lat="40.0059143" lon="9.6213077"><ele>44.5</ele><time>2026-03-28T14:53:19.312Z</time></trkpt><trkpt lat="40.0060066" lon="9.6211789"><ele>44.75</ele><time>2026-03-28T14:53:20.309Z</time></trkpt><trkpt lat="40.0061042" lon="9.621054"><ele>45.0</ele><time>2026-03-28T14:53:21.313Z</time></trkpt><trkpt lat="40.0062048" lon="9.6209421"><ele>45.0</ele><time>2026-03-28T14:53:22.306Z</time></trkpt><trkpt lat="40.0063136" lon="9.6208443"><ele>45.0</ele><time>2026-03-28T14:53:23.307Z</time></trkpt><trkpt lat="40.0064296" lon="9.6207499"><ele>45.0</ele><time>2026-03-28T14:53:24.309Z</time></trkpt><trkpt lat="40.0065468" lon="9.6206564"><ele>45.0</ele><time>2026-03-28T14:53:25.307Z</time></trkpt><trkpt lat="40.0066638" lon="9.6205619"><ele>45.25</ele><time>2026-03-28T14:53:26.306Z</time></trkpt><trkpt lat="40.0067864" lon="9.6204676"><ele>45.5</ele><time>2026-03-28T14:53:27.307Z</time></trkpt><trkpt lat="40.0069126" lon="9.6203686"><ele>45.75</ele><time>2026-03-28T14:53:28.326Z</time></trkpt><trkpt lat="40.0070363" lon="9.6202721"><ele>46.0</ele><time>2026-03-28T14:53:29.306Z</time></trkpt><trkpt lat="40.0071462" lon="9.6201898"><ele>46.0</ele><time>2026-03-28T14:53:30.305Z</time></trkpt><trkpt lat="40.0072408" lon="9.6201176"><ele>46.0</ele><time>2026-03-28T14:53:31.31Z</time></trkpt><trkpt lat="40.0073239" lon="9.6200525"><ele>46.0</ele><time>2026-03-28T14:53:32.304Z</time></trkpt><trkpt lat="40.0073749" lon="9.619978"><ele>46.0</ele><time>2026-03-28T14:53:33.324Z</time></trkpt><trkpt lat="40.0074013" lon="9.6198869"><ele>46.0</ele><time>2026-03-28T14:53:34.312Z</time></trkpt><trkpt lat="40.0073993" lon="9.6197792"><ele>46.0</ele><time>2026-03-28T14:53:35.308Z</time></trkpt><trkpt lat="40.0073724" lon="9.6196631"><ele>46.0</ele><time>2026-03-28T14:53:36.315Z</time></trkpt><trkpt lat="40.0073255" lon="9.619541"><ele>46.0</ele><time>2026-03-28T14:53:37.324Z</time></trkpt><trkpt lat="40.0072819" lon="9.6194267"><ele>46.0</ele><time>2026-03-28T14:53:38.322Z</time></trkpt><trkpt lat="40.0072589" lon="9.6193179"><ele>46.0</ele><time>2026-03-28T14:53:39.314Z</time></trkpt><trkpt lat="40.0072406" lon="9.6192193"><ele>46.0</ele><time>2026-03-28T14:53:40.328Z</time></trkpt><trkpt lat="40.0072834" lon="9.6191319"><ele>46.0</ele><time>2026-03-28T14:53:41.304Z</time></trkpt><trkpt lat="40.0073495" lon="9.6190485"><ele>46.0</ele><time>2026-03-28T14:53:42.311Z</time></trkpt><trkpt lat="40.0074331" lon="9.6189587"><ele>46.0</ele><time>2026-03-28T14:53:43.31Z</time></trkpt><trkpt lat="40.0075305" lon="9.6188593"><ele>46.0</ele><time>2026-03-28T14:53:44.306Z</time></trkpt><trkpt lat="40.0076386" lon="9.6187489"><ele>46.0</ele><time>2026-03-28T14:53:45.305Z</time></trkpt><trkpt lat="40.0077498" lon="9.6186314"><ele>46.0</ele><time>2026-03-28T14:53:46.328Z</time></trkpt><trkpt lat="40.0078639" lon="9.6185132"><ele>46.0</ele><time>2026-03-28T14:53:47.307Z</time></trkpt><trkpt lat="40.0079803" lon="9.6183903"><ele>46.0</ele><time>2026-03-28T14:53:48.319Z</time></trkpt><trkpt lat="40.0080832" lon="9.6182753"><ele>46.0</ele><time>2026-03-28T14:53:49.317Z</time></trkpt><trkpt lat="40.0081604" lon="9.6181896"><ele>46.0</ele><time>2026-03-28T14:53:50.316Z</time></trkpt><trkpt lat="40.0082079" lon="9.6181307"><ele>46.0</ele><time>2026-03-28T14:53:51.312Z</time></trkpt><trkpt lat="40.0082153" lon="9.6180442"><ele>46.0</ele><time>2026-03-28T14:53:53.312Z</time></trkpt><trkpt lat="40.008155" lon="9.6179236"><ele>46.0</ele><time>2026-03-28T14:53:55.325Z</time></trkpt><trkpt lat="40.008115" lon="9.6178324"><ele>46.0</ele><time>2026-03-28T14:53:56.315Z</time></trkpt><trkpt lat="40.0080614" lon="9.6177119"><ele>46.0</ele><time>2026-03-28T14:53:57.309Z</time></trkpt><trkpt lat="40.0079897" lon="9.617559"><ele>45.75</ele><time>2026-03-28T14:53:58.32Z</time></trkpt><trkpt lat="40.0079139" lon="9.6174054"><ele>45.5</ele><time>2026-03-28T14:53:59.306Z</time></trkpt><trkpt lat="40.0078391" lon="9.6172542"><ele>45.25</ele><time>2026-03-28T14:54:00.324Z</time></trkpt><trkpt lat="40.0077688" lon="9.6171124"><ele>45.0</ele><time>2026-03-28T14:54:01.308Z</time></trkpt><trkpt lat="40.0077123" lon="9.616994"><ele>44.6</ele><time>2026-03-28T14:54:02.311Z</time></trkpt><trkpt lat="40.007663" lon="9.6168891"><ele>44.2</ele><time>2026-03-28T14:54:03.308Z</time></trkpt><trkpt lat="40.0076353" lon="9.6168019"><ele>43.8</ele><time>2026-03-28T14:54:04.317Z</time></trkpt><trkpt lat="40.0076347" lon="9.6167041"><ele>43.4</ele><time>2026-03-28T14:54:05.312Z</time></trkpt><trkpt lat="40.007663" lon="9.6165878"><ele>43.0</ele><time>2026-03-28T14:54:06.315Z</time></trkpt><trkpt lat="40.0076874" lon="9.6164289"><ele>43.0</ele><time>2026-03-28T14:54:07.31Z</time></trkpt><trkpt lat="40.0077094" lon="9.6162698"><ele>43.0</ele><time>2026-03-28T14:54:08.312Z</time></trkpt><trkpt lat="40.0077311" lon="9.6161168"><ele>43.0</ele><time>2026-03-28T14:54:09.317Z</time></trkpt><trkpt lat="40.0077612" lon="9.6159518"><ele>43.0</ele><time>2026-03-28T14:54:10.314Z</time></trkpt><trkpt lat="40.0078067" lon="9.6157919"><ele>42.5</ele><time>2026-03-28T14:54:11.324Z</time></trkpt><trkpt lat="40.0078461" lon="9.6156663"><ele>42.0</ele><time>2026-03-28T14:54:12.31Z</time></trkpt><trkpt lat="40.0078931" lon="9.6155806"><ele>41.5</ele><time>2026-03-28T14:54:13.306Z</time></trkpt><trkpt lat="40.0079613" lon="9.6155236"><ele>41.0</ele><time>2026-03-28T14:54:14.31Z</time></trkpt><trkpt lat="40.0080295" lon="9.6154777"><ele>40.5</ele><time>2026-03-28T14:54:15.313Z</time></trkpt><trkpt lat="40.0080934" lon="9.6153901"><ele>40.0</ele><time>2026-03-28T14:54:17.316Z</time></trkpt><trkpt lat="40.00804" lon="9.6152041"><ele>39.833333333333336</ele><time>2026-03-28T14:54:19.308Z</time></trkpt><trkpt lat="40.0080045" lon="9.6150982"><ele>39.66666666666667</ele><time>2026-03-28T14:54:20.309Z</time></trkpt><trkpt lat="40.0079765" lon="9.6150041"><ele>39.5</ele><time>2026-03-28T14:54:21.311Z</time></trkpt><trkpt lat="40.0079517" lon="9.6149158"><ele>39.333333333333336</ele><time>2026-03-28T14:54:22.333Z</time></trkpt><trkpt lat="40.0079581" lon="9.6148189"><ele>39.166666666666664</ele><time>2026-03-28T14:54:23.314Z</time></trkpt><trkpt lat="40.0079636" lon="9.6147274"><ele>39.0</ele><time>2026-03-28T14:54:24.307Z</time></trkpt><trkpt lat="40.0079454" lon="9.6146411"><ele>39.0</ele><time>2026-03-28T14:54:25.311Z</time></trkpt><trkpt lat="40.0079063" lon="9.6145582"><ele>39.0</ele><time>2026-03-28T14:54:26.31Z</time></trkpt><trkpt lat="40.0078661" lon="9.6144783"><ele>39.0</ele><time>2026-03-28T14:54:27.316Z</time></trkpt><trkpt lat="40.0077967" lon="9.6143995"><ele>39.0</ele><time>2026-03-28T14:54:28.324Z</time></trkpt><trkpt lat="40.0077196" lon="9.6143124"><ele>39.0</ele><time>2026-03-28T14:54:29.321Z</time></trkpt><trkpt lat="40.0076536" lon="9.6141979"><ele>39.0</ele><time>2026-03-28T14:54:30.309Z</time></trkpt><trkpt lat="40.0075893" lon="9.6140867"><ele>39.0</ele><time>2026-03-28T14:54:31.311Z</time></trkpt><trkpt lat="40.0075317" lon="9.6139905"><ele>39.0</ele><time>2026-03-28T14:54:32.313Z</time></trkpt><trkpt lat="40.0074783" lon="9.6138947"><ele>39.0</ele><time>2026-03-28T14:54:33.341Z</time></trkpt><trkpt lat="40.0074256" lon="9.6137988"><ele>39.0</ele><time>2026-03-28T14:54:34.31Z</time></trkpt><trkpt lat="40.0073887" lon="9.6136821"><ele>39.0</ele><time>2026-03-28T14:54:35.307Z</time></trkpt><trkpt lat="40.0073568" lon="9.6135709"><ele>39.0</ele><time>2026-03-28T14:54:36.31Z</time></trkpt><trkpt lat="40.0073383" lon="9.6134699"><ele>39.0</ele><time>2026-03-28T14:54:37.315Z</time></trkpt><trkpt lat="40.007334" lon="9.6133758"><ele>39.0</ele><time>2026-03-28T14:54:38.31Z</time></trkpt><trkpt lat="40.0073323" lon="9.6132896"><ele>39.0</ele><time>2026-03-28T14:54:39.312Z</time></trkpt><trkpt lat="40.0073468" lon="9.6131868"><ele>39.0</ele><time>2026-03-28T14:54:40.323Z</time></trkpt><trkpt lat="40.0073722" lon="9.6130749"><ele>39.0</ele><time>2026-03-28T14:54:41.314Z</time></trkpt><trkpt lat="40.0074044" lon="9.6129704"><ele>39.0</ele><time>2026-03-28T14:54:42.326Z</time></trkpt><trkpt lat="40.0074487" lon="9.6128717"><ele>39.0</ele><time>2026-03-28T14:54:43.331Z</time></trkpt><trkpt lat="40.0074841" lon="9.6127794"><ele>39.0</ele><time>2026-03-28T14:54:44.307Z</time></trkpt><trkpt lat="40.0075074" lon="9.612682"><ele>39.0</ele><time>2026-03-28T14:54:45.313Z</time></trkpt><trkpt lat="40.0075207" lon="9.6125753"><ele>39.0</ele><time>2026-03-28T14:54:46.308Z</time></trkpt><trkpt lat="40.0075385" lon="9.6124493"><ele>39.0</ele><time>2026-03-28T14:54:47.323Z</time></trkpt><trkpt lat="40.007554" lon="9.6123293"><ele>39.0</ele><time>2026-03-28T14:54:48.311Z</time></trkpt><trkpt lat="40.0075668" lon="9.612218"><ele>39.0</ele><time>2026-03-28T14:54:49.31Z</time></trkpt><trkpt lat="40.0075797" lon="9.612094"><ele>39.0</ele><time>2026-03-28T14:54:50.301Z</time></trkpt><trkpt lat="40.0075938" lon="9.6119758"><ele>39.0</ele><time>2026-03-28T14:54:51.306Z</time></trkpt><trkpt lat="40.0076122" lon="9.6118562"><ele>39.0</ele><time>2026-03-28T14:54:52.305Z</time></trkpt><trkpt lat="40.0076267" lon="9.611739"><ele>39.0</ele><time>2026-03-28T14:54:53.311Z</time></trkpt><trkpt lat="40.0076373" lon="9.6116293"><ele>39.0</ele><time>2026-03-28T14:54:54.314Z</time></trkpt><trkpt lat="40.0076513" lon="9.6115185"><ele>39.0</ele><time>2026-03-28T14:54:55.329Z</time></trkpt><trkpt lat="40.0076519" lon="9.6114027"><ele>39.0</ele><time>2026-03-28T14:54:56.305Z</time></trkpt><trkpt lat="40.0076583" lon="9.611301"><ele>39.0</ele><time>2026-03-28T14:54:57.308Z</time></trkpt><trkpt lat="40.0076596" lon="9.6112049"><ele>39.5</ele><time>2026-03-28T14:54:58.318Z</time></trkpt><trkpt lat="40.0076599" lon="9.6110998"><ele>40.0</ele><time>2026-03-28T14:54:59.308Z</time></trkpt><trkpt lat="40.0076333" lon="9.6109928"><ele>40.5</ele><time>2026-03-28T14:55:00.33Z</time></trkpt><trkpt lat="40.0076004" lon="9.6108788"><ele>41.0</ele><time>2026-03-28T14:55:01.304Z</time></trkpt><trkpt lat="40.0075737" lon="9.6107807"><ele>41.5</ele><time>2026-03-28T14:55:02.31Z</time></trkpt><trkpt lat="40.0075646" lon="9.6106917"><ele>42.0</ele><time>2026-03-28T14:55:03.306Z</time></trkpt><trkpt lat="40.0075604" lon="9.6105789"><ele>42.0</ele><time>2026-03-28T14:55:04.311Z</time></trkpt><trkpt lat="40.0075684" lon="9.6104607"><ele>42.0</ele><time>2026-03-28T14:55:05.31Z</time></trkpt><trkpt lat="40.0075933" lon="9.6103582"><ele>42.0</ele><time>2026-03-28T14:55:06.316Z</time></trkpt><trkpt lat="40.0076049" lon="9.6102642"><ele>42.0</ele><time>2026-03-28T14:55:07.315Z</time></trkpt><trkpt lat="40.0076675" lon="9.6101808"><ele>42.0</ele><time>2026-03-28T14:55:08.315Z</time></trkpt><trkpt lat="40.0077315" lon="9.6100972"><ele>42.0</ele><time>2026-03-28T14:55:09.309Z</time></trkpt><trkpt lat="40.0077805" lon="9.6100286"><ele>42.0</ele><time>2026-03-28T14:55:10.317Z</time></trkpt><trkpt lat="40.0078159" lon="9.6099472"><ele>42.0</ele><time>2026-03-28T14:55:11.311Z</time></trkpt><trkpt lat="40.0078553" lon="9.6098467"><ele>42.0</ele><time>2026-03-28T14:55:12.311Z</time></trkpt><trkpt lat="40.0079041" lon="9.6097295"><ele>42.0</ele><time>2026-03-28T14:55:13.307Z</time></trkpt><trkpt lat="40.0079582" lon="9.6096034"><ele>42.0</ele><time>2026-03-28T14:55:14.337Z</time></trkpt><trkpt lat="40.0080166" lon="9.6094677"><ele>41.75</ele><time>2026-03-28T14:55:15.307Z</time></trkpt><trkpt lat="40.0080775" lon="9.6093248"><ele>41.5</ele><time>2026-03-28T14:55:16.307Z</time></trkpt><trkpt lat="40.0081403" lon="9.6091875"><ele>41.25</ele><time>2026-03-28T14:55:17.317Z</time></trkpt><trkpt lat="40.0081974" lon="9.6090588"><ele>41.0</ele><time>2026-03-28T14:55:18.307Z</time></trkpt><trkpt lat="40.0082422" lon="9.6089426"><ele>41.0</ele><time>2026-03-28T14:55:19.324Z</time></trkpt><trkpt lat="40.0082757" lon="9.6088406"><ele>41.0</ele><time>2026-03-28T14:55:20.313Z</time></trkpt><trkpt lat="40.0082962" lon="9.6087423"><ele>41.0</ele><time>2026-03-28T14:55:21.307Z</time></trkpt><trkpt lat="40.0083273" lon="9.6086615"><ele>41.0</ele><time>2026-03-28T14:55:22.31Z</time></trkpt><trkpt lat="40.0083969" lon="9.6085229"><ele>41.0</ele><time>2026-03-28T14:55:24.312Z</time></trkpt><trkpt lat="40.0084276" lon="9.6084445"><ele>41.0</ele><time>2026-03-28T14:55:25.325Z</time></trkpt><trkpt lat="40.0085126" lon="9.6083244"><ele>41.33333333333333</ele><time>2026-03-28T14:55:27.312Z</time></trkpt><trkpt lat="40.0085671" lon="9.6082619"><ele>41.666666666666664</ele><time>2026-03-28T14:55:28.31Z</time></trkpt><trkpt lat="40.0086043" lon="9.6081836"><ele>42.0</ele><time>2026-03-28T14:55:29.319Z</time></trkpt><trkpt lat="40.0086466" lon="9.608088"><ele>42.333333333333336</ele><time>2026-03-28T14:55:30.311Z</time></trkpt><trkpt lat="40.0087047" lon="9.6079753"><ele>42.66666666666667</ele><time>2026-03-28T14:55:31.308Z</time></trkpt><trkpt lat="40.0087738" lon="9.6078577"><ele>43.0</ele><time>2026-03-28T14:55:32.309Z</time></trkpt><trkpt lat="40.0088398" lon="9.6077358"><ele>43.2</ele><time>2026-03-28T14:55:33.306Z</time></trkpt><trkpt lat="40.0089047" lon="9.6076166"><ele>43.4</ele><time>2026-03-28T14:55:34.318Z</time></trkpt><trkpt lat="40.0089471" lon="9.6074823"><ele>43.6</ele><time>2026-03-28T14:55:35.31Z</time></trkpt><trkpt lat="40.0089859" lon="9.6073535"><ele>43.800000000000004</ele><time>2026-03-28T14:55:36.305Z</time></trkpt><trkpt lat="40.0090022" lon="9.6072309"><ele>44.0</ele><time>2026-03-28T14:55:37.311Z</time></trkpt><trkpt lat="40.009008" lon="9.607128"><ele>44.0</ele><time>2026-03-28T14:55:38.308Z</time></trkpt><trkpt lat="40.0090042" lon="9.6070026"><ele>44.0</ele><time>2026-03-28T14:55:40.313Z</time></trkpt><trkpt lat="40.0089949" lon="9.6069058"><ele>44.0</ele><time>2026-03-28T14:55:43.316Z</time></trkpt><trkpt lat="40.0089689" lon="9.6067931"><ele>44.0</ele><time>2026-03-28T14:55:49.312Z</time></trkpt><trkpt lat="40.0089456" lon="9.6067146"><ele>44.0</ele><time>2026-03-28T14:55:50.312Z</time></trkpt><trkpt lat="40.008921" lon="9.6066355"><ele>44.0</ele><time>2026-03-28T14:55:51.313Z</time></trkpt><trkpt lat="40.0088974" lon="9.6065569"><ele>44.142857142857146</ele><time>2026-03-28T14:55:52.311Z</time></trkpt><trkpt lat="40.008879" lon="9.6064689"><ele>44.285714285714285</ele><time>2026-03-28T14:55:53.311Z</time></trkpt><trkpt lat="40.0088564" lon="9.6063821"><ele>44.42857142857143</ele><time>2026-03-28T14:55:54.319Z</time></trkpt><trkpt lat="40.0088364" lon="9.6063006"><ele>44.57142857142857</ele><time>2026-03-28T14:55:55.315Z</time></trkpt><trkpt lat="40.0088187" lon="9.6062128"><ele>44.714285714285715</ele><time>2026-03-28T14:55:56.306Z</time></trkpt><trkpt lat="40.0088087" lon="9.6061123"><ele>44.857142857142854</ele><time>2026-03-28T14:55:57.318Z</time></trkpt><trkpt lat="40.0088104" lon="9.6059892"><ele>45.0</ele><time>2026-03-28T14:55:58.307Z</time></trkpt><trkpt lat="40.0088122" lon="9.6058585"><ele>45.0</ele><time>2026-03-28T14:55:59.325Z</time></trkpt><trkpt lat="40.0087972" lon="9.6057128"><ele>45.0</ele><time>2026-03-28T14:56:00.312Z</time></trkpt><trkpt lat="40.0087855" lon="9.6055589"><ele>45.0</ele><time>2026-03-28T14:56:01.309Z</time></trkpt><trkpt lat="40.0087714" lon="9.6054024"><ele>45.0</ele><time>2026-03-28T14:56:02.315Z</time></trkpt><trkpt lat="40.0087573" lon="9.605263"><ele>45.2</ele><time>2026-03-28T14:56:03.315Z</time></trkpt><trkpt lat="40.0087537" lon="9.6051421"><ele>45.4</ele><time>2026-03-28T14:56:04.335Z</time></trkpt><trkpt lat="40.0087683" lon="9.6050407"><ele>45.599999999999994</ele><time>2026-03-28T14:56:05.318Z</time></trkpt><trkpt lat="40.0087868" lon="9.6049342"><ele>45.8</ele><time>2026-03-28T14:56:06.322Z</time></trkpt><trkpt lat="40.0088407" lon="9.6048168"><ele>46.0</ele><time>2026-03-28T14:56:07.313Z</time></trkpt><trkpt lat="40.0088995" lon="9.6046932"><ele>46.0</ele><time>2026-03-28T14:56:08.31Z</time></trkpt><trkpt lat="40.0089344" lon="9.6045557"><ele>46.0</ele><time>2026-03-28T14:56:09.314Z</time></trkpt><trkpt lat="40.008964" lon="9.604405"><ele>46.0</ele><time>2026-03-28T14:56:10.309Z</time></trkpt><trkpt lat="40.0089936" lon="9.6042453"><ele>46.0</ele><time>2026-03-28T14:56:11.331Z</time></trkpt><trkpt lat="40.0090215" lon="9.6040875"><ele>46.5</ele><time>2026-03-28T14:56:12.321Z</time></trkpt><trkpt lat="40.0090358" lon="9.603917"><ele>47.0</ele><time>2026-03-28T14:56:13.312Z</time></trkpt><trkpt lat="40.0090511" lon="9.6037498"><ele>47.5</ele><time>2026-03-28T14:56:14.332Z</time></trkpt><trkpt lat="40.009078" lon="9.6035842"><ele>48.0</ele><time>2026-03-28T14:56:15.33Z</time></trkpt><trkpt lat="40.0091081" lon="9.6034313"><ele>48.166666666666664</ele><time>2026-03-28T14:56:16.373Z</time></trkpt><trkpt lat="40.0091229" lon="9.6032963"><ele>48.33333333333333</ele><time>2026-03-28T14:56:17.31Z</time></trkpt><trkpt lat="40.0091277" lon="9.60319"><ele>48.5</ele><time>2026-03-28T14:56:18.316Z</time></trkpt><trkpt lat="40.0091494" lon="9.6030785"><ele>48.666666666666664</ele><time>2026-03-28T14:56:20.313Z</time></trkpt><trkpt lat="40.009201" lon="9.6030129"><ele>48.83333333333333</ele><time>2026-03-28T14:56:22.313Z</time></trkpt><trkpt lat="40.0092624" lon="9.6029079"><ele>49.0</ele><time>2026-03-28T14:56:24.323Z</time></trkpt><trkpt lat="40.0092996" lon="9.6028329"><ele>49.400000000000006</ele><time>2026-03-28T14:56:25.319Z</time></trkpt><trkpt lat="40.0093543" lon="9.6027371"><ele>49.8</ele><time>2026-03-28T14:56:26.314Z</time></trkpt><trkpt lat="40.0094226" lon="9.6026278"><ele>50.2</ele><time>2026-03-28T14:56:27.317Z</time></trkpt><trkpt lat="40.0094944" lon="9.6025058"><ele>50.599999999999994</ele><time>2026-03-28T14:56:28.312Z</time></trkpt><trkpt lat="40.0095685" lon="9.6023642"><ele>51.0</ele><time>2026-03-28T14:56:29.312Z</time></trkpt><trkpt lat="40.0096501" lon="9.6022031"><ele>51.0</ele><time>2026-03-28T14:56:30.335Z</time></trkpt><trkpt lat="40.009736" lon="9.6020276"><ele>51.0</ele><time>2026-03-28T14:56:31.304Z</time></trkpt><trkpt lat="40.0098233" lon="9.6018241"><ele>51.0</ele><time>2026-03-28T14:56:32.309Z</time></trkpt><trkpt lat="40.0099084" lon="9.6016232"><ele>50.66666666666667</ele><time>2026-03-28T14:56:33.308Z</time></trkpt><trkpt lat="40.0099857" lon="9.6014317"><ele>50.333333333333336</ele><time>2026-03-28T14:56:34.31Z</time></trkpt><trkpt lat="40.010045" lon="9.6012336"><ele>50.0</ele><time>2026-03-28T14:56:35.329Z</time></trkpt><trkpt lat="40.0101051" lon="9.6010214"><ele>49.66666666666667</ele><time>2026-03-28T14:56:36.318Z</time></trkpt><trkpt lat="40.0101585" lon="9.6007766"><ele>49.33333333333333</ele><time>2026-03-28T14:56:37.316Z</time></trkpt><trkpt lat="40.0102039" lon="9.6004971"><ele>49.0</ele><time>2026-03-28T14:56:38.315Z</time></trkpt><trkpt lat="40.0102573" lon="9.600198"><ele>49.0</ele><time>2026-03-28T14:56:39.311Z</time></trkpt><trkpt lat="40.0103062" lon="9.5999223"><ele>49.0</ele><time>2026-03-28T14:56:40.308Z</time></trkpt><trkpt lat="40.0103657" lon="9.5996517"><ele>49.0</ele><time>2026-03-28T14:56:41.316Z</time></trkpt><trkpt lat="40.010431" lon="9.5993852"><ele>49.666666666666664</ele><time>2026-03-28T14:56:42.31Z</time></trkpt><trkpt lat="40.0104871" lon="9.5991646"><ele>50.33333333333333</ele><time>2026-03-28T14:56:43.329Z</time></trkpt><trkpt lat="40.0105571" lon="9.598968"><ele>51.0</ele><time>2026-03-28T14:56:44.314Z</time></trkpt><trkpt lat="40.0106428" lon="9.598762"><ele>51.33333333333333</ele><time>2026-03-28T14:56:45.313Z</time></trkpt><trkpt lat="40.0107335" lon="9.5985517"><ele>51.666666666666664</ele><time>2026-03-28T14:56:46.31Z</time></trkpt><trkpt lat="40.01082" lon="9.5983609"><ele>52.0</ele><time>2026-03-28T14:56:47.314Z</time></trkpt><trkpt lat="40.010899" lon="9.5981828"><ele>52.0</ele><time>2026-03-28T14:56:48.31Z</time></trkpt><trkpt lat="40.0109887" lon="9.5980154"><ele>52.0</ele><time>2026-03-28T14:56:49.31Z</time></trkpt><trkpt lat="40.0110937" lon="9.5978487"><ele>52.0</ele><time>2026-03-28T14:56:50.313Z</time></trkpt><trkpt lat="40.0112005" lon="9.5976738"><ele>52.33333333333333</ele><time>2026-03-28T14:56:51.31Z</time></trkpt><trkpt lat="40.0113184" lon="9.5974878"><ele>52.66666666666667</ele><time>2026-03-28T14:56:52.318Z</time></trkpt><trkpt lat="40.0114327" lon="9.59731"><ele>53.0</ele><time>2026-03-28T14:56:53.324Z</time></trkpt><trkpt lat="40.0115615" lon="9.5971499"><ele>53.0</ele><time>2026-03-28T14:56:54.321Z</time></trkpt><trkpt lat="40.0116874" lon="9.5969874"><ele>53.0</ele><time>2026-03-28T14:56:55.326Z</time></trkpt><trkpt lat="40.011823" lon="9.596823"><ele>53.0</ele><time>2026-03-28T14:56:56.31Z</time></trkpt><trkpt lat="40.0119578" lon="9.5966625"><ele>53.0</ele><time>2026-03-28T14:56:57.312Z</time></trkpt><trkpt lat="40.0120849" lon="9.5965031"><ele>53.0</ele><time>2026-03-28T14:56:58.316Z</time></trkpt><trkpt lat="40.0122068" lon="9.5963523"><ele>53.0</ele><time>2026-03-28T14:56:59.317Z</time></trkpt><trkpt lat="40.0123254" lon="9.5961901"><ele>53.333333333333336</ele><time>2026-03-28T14:57:00.325Z</time></trkpt><trkpt lat="40.0124384" lon="9.5960288"><ele>53.66666666666667</ele><time>2026-03-28T14:57:01.309Z</time></trkpt><trkpt lat="40.0125449" lon="9.5958765"><ele>54.0</ele><time>2026-03-28T14:57:02.307Z</time></trkpt><trkpt lat="40.0126504" lon="9.5957493"><ele>54.0</ele><time>2026-03-28T14:57:03.311Z</time></trkpt><trkpt lat="40.0127544" lon="9.5956402"><ele>54.0</ele><time>2026-03-28T14:57:04.309Z</time></trkpt><trkpt lat="40.0128696" lon="9.5955424"><ele>54.0</ele><time>2026-03-28T14:57:05.311Z</time></trkpt><trkpt lat="40.0129983" lon="9.595461"><ele>54.0</ele><time>2026-03-28T14:57:06.322Z</time></trkpt><trkpt lat="40.0131202" lon="9.5953874"><ele>54.0</ele><time>2026-03-28T14:57:07.32Z</time></trkpt><trkpt lat="40.013229" lon="9.5952968"><ele>54.0</ele><time>2026-03-28T14:57:08.332Z</time></trkpt><trkpt lat="40.0133538" lon="9.5951824"><ele>54.0</ele><time>2026-03-28T14:57:09.315Z</time></trkpt><trkpt lat="40.0134898" lon="9.5950517"><ele>54.33333333333333</ele><time>2026-03-28T14:57:10.316Z</time></trkpt><trkpt lat="40.0136247" lon="9.5949071"><ele>54.666666666666664</ele><time>2026-03-28T14:57:11.318Z</time></trkpt><trkpt lat="40.013758" lon="9.5947546"><ele>55.0</ele><time>2026-03-28T14:57:12.31Z</time></trkpt><trkpt lat="40.0138878" lon="9.5945937"><ele>55.0</ele><time>2026-03-28T14:57:13.315Z</time></trkpt><trkpt lat="40.014015" lon="9.5944299"><ele>55.0</ele><time>2026-03-28T14:57:14.311Z</time></trkpt><trkpt lat="40.0141177" lon="9.5942882"><ele>55.0</ele><time>2026-03-28T14:57:15.329Z</time></trkpt><trkpt lat="40.0142072" lon="9.5941486"><ele>55.33333333333333</ele><time>2026-03-28T14:57:16.308Z</time></trkpt><trkpt lat="40.0142926" lon="9.5939806"><ele>55.66666666666667</ele><time>2026-03-28T14:57:17.32Z</time></trkpt><trkpt lat="40.0143695" lon="9.5937999"><ele>56.0</ele><time>2026-03-28T14:57:18.309Z</time></trkpt><trkpt lat="40.0144522" lon="9.5936079"><ele>56.0</ele><time>2026-03-28T14:57:19.314Z</time></trkpt><trkpt lat="40.0145425" lon="9.5933998"><ele>56.0</ele><time>2026-03-28T14:57:20.311Z</time></trkpt><trkpt lat="40.0146287" lon="9.5931898"><ele>56.0</ele><time>2026-03-28T14:57:21.309Z</time></trkpt><trkpt lat="40.0147083" lon="9.592988"><ele>56.25</ele><time>2026-03-28T14:57:22.309Z</time></trkpt><trkpt lat="40.0147922" lon="9.5928005"><ele>56.5</ele><time>2026-03-28T14:57:23.308Z</time></trkpt><trkpt lat="40.0148804" lon="9.5926407"><ele>56.75</ele><time>2026-03-28T14:57:24.316Z</time></trkpt><trkpt lat="40.0149479" lon="9.592502"><ele>57.0</ele><time>2026-03-28T14:57:25.325Z</time></trkpt><trkpt lat="40.0150208" lon="9.592383"><ele>57.666666666666664</ele><time>2026-03-28T14:57:26.313Z</time></trkpt><trkpt lat="40.0151002" lon="9.5922919"><ele>58.33333333333333</ele><time>2026-03-28T14:57:27.307Z</time></trkpt><trkpt lat="40.0151656" lon="9.5922202"><ele>59.0</ele><time>2026-03-28T14:57:28.313Z</time></trkpt><trkpt lat="40.0152359" lon="9.5921996"><ele>59.666666666666664</ele><time>2026-03-28T14:57:29.309Z</time></trkpt><trkpt lat="40.0153139" lon="9.5921888"><ele>60.33333333333333</ele><time>2026-03-28T14:57:30.308Z</time></trkpt><trkpt lat="40.0154093" lon="9.5921888"><ele>61.0</ele><time>2026-03-28T14:57:31.307Z</time></trkpt><trkpt lat="40.0154819" lon="9.592181"><ele>60.99999999999999</ele><time>2026-03-28T14:57:32.306Z</time></trkpt><trkpt lat="40.0155685" lon="9.5921221"><ele>61.0</ele><time>2026-03-28T14:57:34.307Z</time></trkpt><trkpt lat="40.0156272" lon="9.5920096"><ele>61.0</ele><time>2026-03-28T14:57:36.324Z</time></trkpt><trkpt lat="40.0156494" lon="9.5919187"><ele>61.0</ele><time>2026-03-28T14:57:38.324Z</time></trkpt><trkpt lat="40.0156659" lon="9.5918074"><ele>60.99999999999999</ele><time>2026-03-28T14:57:40.313Z</time></trkpt><trkpt lat="40.0156402" lon="9.5917011"><ele>61.0</ele><time>2026-03-28T14:57:42.313Z</time></trkpt><trkpt lat="40.0156002" lon="9.5916321"><ele>61.0</ele><time>2026-03-28T14:57:44.327Z</time></trkpt><trkpt lat="40.0155065" lon="9.5915666"><ele>60.99999999999999</ele><time>2026-03-28T15:03:29.291Z</time></trkpt><trkpt lat="40.0154631" lon="9.5914595"><ele>60.99999999999999</ele><time>2026-03-28T15:07:36.286Z</time></trkpt><trkpt lat="40.0154104" lon="9.5913001"><ele>61.0</ele><time>2026-03-28T15:07:39.312Z</time></trkpt><trkpt lat="40.0153702" lon="9.5911805"><ele>61.0</ele><time>2026-03-28T15:07:40.316Z</time></trkpt><trkpt lat="40.0153334" lon="9.5910786"><ele>61.0</ele><time>2026-03-28T15:07:41.32Z</time></trkpt><trkpt lat="40.0152488" lon="9.5908608"><ele>61.0</ele><time>2026-03-28T15:07:42.32Z</time></trkpt><trkpt lat="40.0151513" lon="9.5906579"><ele>61.0</ele><time>2026-03-28T15:07:43.313Z</time></trkpt><trkpt lat="40.0151063" lon="9.5904807"><ele>61.25</ele><time>2026-03-28T15:07:44.322Z</time></trkpt><trkpt lat="40.0150922" lon="9.590296"><ele>61.5</ele><time>2026-03-28T15:07:45.311Z</time></trkpt><trkpt lat="40.0150802" lon="9.5901048"><ele>61.75</ele><time>2026-03-28T15:07:46.316Z</time></trkpt><trkpt lat="40.0150651" lon="9.5899262"><ele>62.0</ele><time>2026-03-28T15:07:47.306Z</time></trkpt><trkpt lat="40.0150329" lon="9.5897336"><ele>62.0</ele><time>2026-03-28T15:07:48.318Z</time></trkpt><trkpt lat="40.0149907" lon="9.5895325"><ele>62.0</ele><time>2026-03-28T15:07:49.317Z</time></trkpt><trkpt lat="40.0149502" lon="9.5893349"><ele>62.0</ele><time>2026-03-28T15:07:50.326Z</time></trkpt><trkpt lat="40.0149268" lon="9.5891701"><ele>62.0</ele><time>2026-03-28T15:07:51.311Z</time></trkpt><trkpt lat="40.014908" lon="9.5890165"><ele>62.5</ele><time>2026-03-28T15:07:52.317Z</time></trkpt><trkpt lat="40.0149367" lon="9.5888515"><ele>63.0</ele><time>2026-03-28T15:07:53.311Z</time></trkpt><trkpt lat="40.0149663" lon="9.5886955"><ele>63.5</ele><time>2026-03-28T15:07:54.316Z</time></trkpt><trkpt lat="40.014997" lon="9.5885654"><ele>64.0</ele><time>2026-03-28T15:07:55.322Z</time></trkpt><trkpt lat="40.0150431" lon="9.5884471"><ele>64.0</ele><time>2026-03-28T15:07:56.314Z</time></trkpt><trkpt lat="40.0151168" lon="9.5883405"><ele>64.0</ele><time>2026-03-28T15:07:57.308Z</time></trkpt><trkpt lat="40.0152106" lon="9.5882138"><ele>64.0</ele><time>2026-03-28T15:07:58.307Z</time></trkpt><trkpt lat="40.0152911" lon="9.5880975"><ele>64.0</ele><time>2026-03-28T15:07:59.307Z</time></trkpt><trkpt lat="40.0153352" lon="9.587973"><ele>64.25</ele><time>2026-03-28T15:08:00.309Z</time></trkpt><trkpt lat="40.0153702" lon="9.5878148"><ele>64.5</ele><time>2026-03-28T15:08:01.306Z</time></trkpt><trkpt lat="40.015406" lon="9.5876488"><ele>64.75</ele><time>2026-03-28T15:08:02.305Z</time></trkpt><trkpt lat="40.015438" lon="9.5875112"><ele>65.0</ele><time>2026-03-28T15:08:03.325Z</time></trkpt><trkpt lat="40.0154676" lon="9.587389"><ele>65.0</ele><time>2026-03-28T15:08:04.314Z</time></trkpt><trkpt lat="40.0155046" lon="9.5872927"><ele>65.0</ele><time>2026-03-28T15:08:05.303Z</time></trkpt><trkpt lat="40.0155503" lon="9.5871957"><ele>65.0</ele><time>2026-03-28T15:08:06.315Z</time></trkpt><trkpt lat="40.0156206" lon="9.5871004"><ele>65.0</ele><time>2026-03-28T15:08:07.311Z</time></trkpt><trkpt lat="40.0156785" lon="9.587016"><ele>65.0</ele><time>2026-03-28T15:08:08.333Z</time></trkpt><trkpt lat="40.0157297" lon="9.5869097"><ele>65.5</ele><time>2026-03-28T15:08:09.308Z</time></trkpt><trkpt lat="40.0157745" lon="9.586772"><ele>66.0</ele><time>2026-03-28T15:08:10.314Z</time></trkpt><trkpt lat="40.015806" lon="9.5866233"><ele>66.5</ele><time>2026-03-28T15:08:11.309Z</time></trkpt><trkpt lat="40.0158255" lon="9.5864661"><ele>67.0</ele><time>2026-03-28T15:08:12.318Z</time></trkpt><trkpt lat="40.0158368" lon="9.5863047"><ele>68.75</ele><time>2026-03-28T15:08:13.306Z</time></trkpt><trkpt lat="40.0158472" lon="9.5861469"><ele>70.5</ele><time>2026-03-28T15:08:14.337Z</time></trkpt><trkpt lat="40.0158654" lon="9.5859949"><ele>72.25</ele><time>2026-03-28T15:08:15.318Z</time></trkpt><trkpt lat="40.0159006" lon="9.5858409"><ele>74.0</ele><time>2026-03-28T15:08:16.314Z</time></trkpt><trkpt lat="40.0159557" lon="9.5856769"><ele>74.0</ele><time>2026-03-28T15:08:17.302Z</time></trkpt><trkpt lat="40.0160277" lon="9.5855021"><ele>74.0</ele><time>2026-03-28T15:08:18.31Z</time></trkpt><trkpt lat="40.016115" lon="9.5853244"><ele>74.0</ele><time>2026-03-28T15:08:19.304Z</time></trkpt><trkpt lat="40.0162054" lon="9.5851679"><ele>74.5</ele><time>2026-03-28T15:08:20.315Z</time></trkpt><trkpt lat="40.0163129" lon="9.5850316"><ele>75.0</ele><time>2026-03-28T15:08:21.312Z</time></trkpt><trkpt lat="40.0164275" lon="9.5849015"><ele>75.5</ele><time>2026-03-28T15:08:22.327Z</time></trkpt><trkpt lat="40.0165468" lon="9.5847911"><ele>76.0</ele><time>2026-03-28T15:08:23.308Z</time></trkpt><trkpt lat="40.0166446" lon="9.5846979"><ele>76.8</ele><time>2026-03-28T15:08:24.312Z</time></trkpt><trkpt lat="40.0167236" lon="9.584645"><ele>77.6</ele><time>2026-03-28T15:08:25.299Z</time></trkpt><trkpt lat="40.0168278" lon="9.584619"><ele>78.4</ele><time>2026-03-28T15:08:27.303Z</time></trkpt><trkpt lat="40.0169023" lon="9.584641"><ele>79.2</ele><time>2026-03-28T15:08:40.31Z</time></trkpt><trkpt lat="40.0170032" lon="9.584664"><ele>80.0</ele><time>2026-03-28T15:08:43.316Z</time></trkpt><trkpt lat="40.0171135" lon="9.5846615"><ele>80.0</ele><time>2026-03-28T15:08:45.314Z</time></trkpt><trkpt lat="40.0171832" lon="9.5846636"><ele>80.0</ele><time>2026-03-28T15:08:46.311Z</time></trkpt><trkpt lat="40.0172579" lon="9.5846662"><ele>80.0</ele><time>2026-03-28T15:08:47.309Z</time></trkpt><trkpt lat="40.0173387" lon="9.584669"><ele>80.0</ele><time>2026-03-28T15:08:48.329Z</time></trkpt><trkpt lat="40.0174273" lon="9.5846764"><ele>80.0</ele><time>2026-03-28T15:08:49.307Z</time></trkpt><trkpt lat="40.0175193" lon="9.5846819"><ele>80.0</ele><time>2026-03-28T15:08:50.31Z</time></trkpt><trkpt lat="40.0176166" lon="9.5846827"><ele>81.4</ele><time>2026-03-28T15:08:51.302Z</time></trkpt><trkpt lat="40.0177223" lon="9.5846878"><ele>82.8</ele><time>2026-03-28T15:08:52.307Z</time></trkpt><trkpt lat="40.0178255" lon="9.5846984"><ele>84.19999999999999</ele><time>2026-03-28T15:08:53.308Z</time></trkpt><trkpt lat="40.0179141" lon="9.5847123"><ele>85.6</ele><time>2026-03-28T15:08:54.303Z</time></trkpt><trkpt lat="40.0179888" lon="9.5847252"><ele>87.0</ele><time>2026-03-28T15:08:55.305Z</time></trkpt><trkpt lat="40.0180663" lon="9.5847363"><ele>87.0</ele><time>2026-03-28T15:08:56.305Z</time></trkpt><trkpt lat="40.0181437" lon="9.5847377"><ele>87.0</ele><time>2026-03-28T15:08:57.31Z</time></trkpt><trkpt lat="40.0182173" lon="9.5847435"><ele>87.0</ele><time>2026-03-28T15:08:58.307Z</time></trkpt><trkpt lat="40.0182839" lon="9.5847528"><ele>87.0</ele><time>2026-03-28T15:08:59.304Z</time></trkpt><trkpt lat="40.0183472" lon="9.5847857"><ele>87.0</ele><time>2026-03-28T15:09:00.306Z</time></trkpt><trkpt lat="40.0184127" lon="9.584835"><ele>87.0</ele><time>2026-03-28T15:09:01.305Z</time></trkpt><trkpt lat="40.0184746" lon="9.5848963"><ele>87.0</ele><time>2026-03-28T15:09:02.307Z</time></trkpt><trkpt lat="40.0185378" lon="9.5849587"><ele>89.0</ele><time>2026-03-28T15:09:03.305Z</time></trkpt><trkpt lat="40.0186076" lon="9.5850053"><ele>91.0</ele><time>2026-03-28T15:09:04.321Z</time></trkpt><trkpt lat="40.0187019" lon="9.5850565"><ele>93.0</ele><time>2026-03-28T15:09:05.306Z</time></trkpt><trkpt lat="40.0188102" lon="9.5851104"><ele>95.0</ele><time>2026-03-28T15:09:06.306Z</time></trkpt><trkpt lat="40.0189055" lon="9.58516"><ele>97.0</ele><time>2026-03-28T15:09:07.31Z</time></trkpt><trkpt lat="40.0189929" lon="9.585209"><ele>97.00000000000001</ele><time>2026-03-28T15:09:08.314Z</time></trkpt><trkpt lat="40.0190681" lon="9.5852535"><ele>97.0</ele><time>2026-03-28T15:09:09.308Z</time></trkpt><trkpt lat="40.0191317" lon="9.5852763"><ele>97.0</ele><time>2026-03-28T15:09:10.312Z</time></trkpt><trkpt lat="40.0192454" lon="9.5852593"><ele>97.0</ele><time>2026-03-28T15:09:12.305Z</time></trkpt><trkpt lat="40.0193035" lon="9.5852124"><ele>97.00000000000001</ele><time>2026-03-28T15:09:13.308Z</time></trkpt><trkpt lat="40.0193694" lon="9.5850951"><ele>97.0</ele><time>2026-03-28T15:09:15.306Z</time></trkpt><trkpt lat="40.019403" lon="9.5849457"><ele>100.39999999999999</ele><time>2026-03-28T15:09:17.306Z</time></trkpt><trkpt lat="40.0194138" lon="9.5847963"><ele>103.8</ele><time>2026-03-28T15:09:19.306Z</time></trkpt><trkpt lat="40.0193789" lon="9.584665"><ele>107.2</ele><time>2026-03-28T15:09:21.319Z</time></trkpt><trkpt lat="40.0193141" lon="9.5845449"><ele>110.6</ele><time>2026-03-28T15:09:23.308Z</time></trkpt><trkpt lat="40.0192956" lon="9.5844244"><ele>114.0</ele><time>2026-03-28T15:09:25.301Z</time></trkpt><trkpt lat="40.019307" lon="9.5843113"><ele>116.16666666666667</ele><time>2026-03-28T15:09:27.312Z</time></trkpt><trkpt lat="40.019396" lon="9.5842106"><ele>118.33333333333334</ele><time>2026-03-28T15:09:29.303Z</time></trkpt><trkpt lat="40.0194557" lon="9.5841537"><ele>120.5</ele><time>2026-03-28T15:09:30.311Z</time></trkpt><trkpt lat="40.0195259" lon="9.5841001"><ele>122.66666666666667</ele><time>2026-03-28T15:09:31.306Z</time></trkpt><trkpt lat="40.0195987" lon="9.5840637"><ele>124.83333333333334</ele><time>2026-03-28T15:09:32.31Z</time></trkpt><trkpt lat="40.0196681" lon="9.584049"><ele>127.0</ele><time>2026-03-28T15:09:33.313Z</time></trkpt><trkpt lat="40.0197439" lon="9.5840531"><ele>127.00000000000001</ele><time>2026-03-28T15:09:34.305Z</time></trkpt><trkpt lat="40.0198355" lon="9.584068"><ele>127.0</ele><time>2026-03-28T15:09:35.307Z</time></trkpt><trkpt lat="40.0199183" lon="9.5840975"><ele>127.0</ele><time>2026-03-28T15:09:36.308Z</time></trkpt><trkpt lat="40.019983" lon="9.5841253"><ele>127.0</ele><time>2026-03-28T15:09:37.308Z</time></trkpt><trkpt lat="40.0200412" lon="9.584159"><ele>127.00000000000001</ele><time>2026-03-28T15:09:38.309Z</time></trkpt><trkpt lat="40.0201047" lon="9.584196"><ele>127.0</ele><time>2026-03-28T15:09:39.31Z</time></trkpt><trkpt lat="40.0201893" lon="9.5842701"><ele>127.0</ele><time>2026-03-28T15:09:41.304Z</time></trkpt><trkpt lat="40.0202922" lon="9.5842894"><ele>126.99999999999999</ele><time>2026-03-28T15:09:49.314Z</time></trkpt><trkpt lat="40.0203265" lon="9.5841818"><ele>126.99999999999999</ele><time>2026-03-28T15:09:51.313Z</time></trkpt><trkpt lat="40.0203611" lon="9.5840642"><ele>127.0</ele><time>2026-03-28T15:09:53.314Z</time></trkpt><trkpt lat="40.0204334" lon="9.583965"><ele>127.0</ele><time>2026-03-28T15:09:55.305Z</time></trkpt><trkpt lat="40.020502" lon="9.5839187"><ele>127.0</ele><time>2026-03-28T15:09:56.304Z</time></trkpt><trkpt lat="40.0205811" lon="9.5838095"><ele>126.99999999999999</ele><time>2026-03-28T15:09:58.305Z</time></trkpt><trkpt lat="40.0206174" lon="9.5836342"><ele>126.99999999999999</ele><time>2026-03-28T15:10:00.304Z</time></trkpt><trkpt lat="40.0206255" lon="9.5835187"><ele>127.0</ele><time>2026-03-28T15:10:01.307Z</time></trkpt><trkpt lat="40.0206406" lon="9.5834269"><ele>127.0</ele><time>2026-03-28T15:10:02.307Z</time></trkpt><trkpt lat="40.0206558" lon="9.5833219"><ele>128.0</ele><time>2026-03-28T15:10:03.307Z</time></trkpt><trkpt lat="40.0206769" lon="9.5832115"><ele>129.0</ele><time>2026-03-28T15:10:04.311Z</time></trkpt><trkpt lat="40.0206948" lon="9.5831245"><ele>130.0</ele><time>2026-03-28T15:10:05.31Z</time></trkpt><trkpt lat="40.0207687" lon="9.5830864"><ele>131.0</ele><time>2026-03-28T15:10:08.314Z</time></trkpt><trkpt lat="40.0208601" lon="9.5831247"><ele>132.0</ele><time>2026-03-28T15:10:10.311Z</time></trkpt><trkpt lat="40.0209366" lon="9.5831631"><ele>133.0</ele><time>2026-03-28T15:10:12.306Z</time></trkpt><trkpt lat="40.0210123" lon="9.5831607"><ele>134.0</ele><time>2026-03-28T15:10:15.305Z</time></trkpt><trkpt lat="40.0211002" lon="9.5831604"><ele>135.0</ele><time>2026-03-28T15:10:17.313Z</time></trkpt><trkpt lat="40.0212008" lon="9.5831409"><ele>136.0</ele><time>2026-03-28T15:10:19.328Z</time></trkpt><trkpt lat="40.0213103" lon="9.5830716"><ele>137.0</ele><time>2026-03-28T15:10:21.308Z</time></trkpt><trkpt lat="40.0213719" lon="9.5830178"><ele>138.0</ele><time>2026-03-28T15:10:22.304Z</time></trkpt><trkpt lat="40.0214348" lon="9.5829424"><ele>138.0</ele><time>2026-03-28T15:10:23.309Z</time></trkpt><trkpt lat="40.0214834" lon="9.5828648"><ele>138.0</ele><time>2026-03-28T15:10:24.306Z</time></trkpt><trkpt lat="40.0215224" lon="9.5827952"><ele>138.0</ele><time>2026-03-28T15:10:25.321Z</time></trkpt><trkpt lat="40.0215976" lon="9.5827103"><ele>138.0</ele><time>2026-03-28T15:10:27.31Z</time></trkpt><trkpt lat="40.0216714" lon="9.5827187"><ele>138.0</ele><time>2026-03-28T15:10:29.316Z</time></trkpt><trkpt lat="40.0217624" lon="9.5828073"><ele>138.0</ele><time>2026-03-28T15:10:31.308Z</time></trkpt><trkpt lat="40.0218352" lon="9.582869"><ele>141.0</ele><time>2026-03-28T15:10:32.323Z</time></trkpt><trkpt lat="40.0219132" lon="9.5829253"><ele>144.0</ele><time>2026-03-28T15:10:33.322Z</time></trkpt><trkpt lat="40.021988" lon="9.5829761"><ele>147.0</ele><time>2026-03-28T15:10:34.304Z</time></trkpt><trkpt lat="40.0220487" lon="9.5830166"><ele>150.0</ele><time>2026-03-28T15:10:35.31Z</time></trkpt><trkpt lat="40.0221493" lon="9.5830721"><ele>153.0</ele><time>2026-03-28T15:10:37.312Z</time></trkpt><trkpt lat="40.0222716" lon="9.5830196"><ele>153.0</ele><time>2026-03-28T15:10:39.306Z</time></trkpt><trkpt lat="40.0223434" lon="9.5829924"><ele>153.0</ele><time>2026-03-28T15:10:40.308Z</time></trkpt><trkpt lat="40.0224108" lon="9.5829714"><ele>153.0</ele><time>2026-03-28T15:10:41.31Z</time></trkpt><trkpt lat="40.0225051" lon="9.5829376"><ele>153.0</ele><time>2026-03-28T15:10:43.322Z</time></trkpt><trkpt lat="40.0225476" lon="9.5828504"><ele>153.0</ele><time>2026-03-28T15:10:45.323Z</time></trkpt><trkpt lat="40.0225784" lon="9.5827111"><ele>153.0</ele><time>2026-03-28T15:10:47.306Z</time></trkpt><trkpt lat="40.0226507" lon="9.5826004"><ele>154.16666666666666</ele><time>2026-03-28T15:10:49.307Z</time></trkpt><trkpt lat="40.0227037" lon="9.5825465"><ele>155.33333333333334</ele><time>2026-03-28T15:10:50.31Z</time></trkpt><trkpt lat="40.0227563" lon="9.5824831"><ele>156.5</ele><time>2026-03-28T15:10:51.308Z</time></trkpt><trkpt lat="40.0228039" lon="9.582416"><ele>157.66666666666669</ele><time>2026-03-28T15:10:52.312Z</time></trkpt><trkpt lat="40.0228522" lon="9.5823583"><ele>158.83333333333334</ele><time>2026-03-28T15:10:53.309Z</time></trkpt><trkpt lat="40.02291" lon="9.5822548"><ele>160.0</ele><time>2026-03-28T15:10:55.316Z</time></trkpt><trkpt lat="40.0229462" lon="9.5821203"><ele>161.8</ele><time>2026-03-28T15:10:57.308Z</time></trkpt><trkpt lat="40.0229905" lon="9.581983"><ele>163.6</ele><time>2026-03-28T15:10:59.306Z</time></trkpt><trkpt lat="40.0230477" lon="9.5818735"><ele>165.39999999999998</ele><time>2026-03-28T15:11:01.304Z</time></trkpt><trkpt lat="40.0231044" lon="9.5818196"><ele>167.2</ele><time>2026-03-28T15:11:03.322Z</time></trkpt><trkpt lat="40.0232167" lon="9.5818547"><ele>169.0</ele><time>2026-03-28T15:11:05.316Z</time></trkpt><trkpt lat="40.0232822" lon="9.5818877"><ele>171.83333333333334</ele><time>2026-03-28T15:11:06.308Z</time></trkpt><trkpt lat="40.023365" lon="9.5819168"><ele>174.66666666666669</ele><time>2026-03-28T15:11:07.311Z</time></trkpt><trkpt lat="40.0234555" lon="9.5819383"><ele>177.5</ele><time>2026-03-28T15:11:08.309Z</time></trkpt><trkpt lat="40.0235451" lon="9.5819576"><ele>180.33333333333334</ele><time>2026-03-28T15:11:09.306Z</time></trkpt><trkpt lat="40.0236342" lon="9.5819622"><ele>183.16666666666666</ele><time>2026-03-28T15:11:10.32Z</time></trkpt><trkpt lat="40.0237188" lon="9.5819661"><ele>186.0</ele><time>2026-03-28T15:11:11.304Z</time></trkpt><trkpt lat="40.0237892" lon="9.581969"><ele>185.5</ele><time>2026-03-28T15:11:12.307Z</time></trkpt><trkpt lat="40.0238984" lon="9.5820305"><ele>185.0</ele><time>2026-03-28T15:11:14.306Z</time></trkpt><trkpt lat="40.0239541" lon="9.5820842"><ele>184.5</ele><time>2026-03-28T15:11:15.329Z</time></trkpt><trkpt lat="40.0240206" lon="9.5821274"><ele>184.0</ele><time>2026-03-28T15:11:16.31Z</time></trkpt><trkpt lat="40.0240979" lon="9.5821447"><ele>183.5</ele><time>2026-03-28T15:11:17.307Z</time></trkpt><trkpt lat="40.0241725" lon="9.5821591"><ele>183.0</ele><time>2026-03-28T15:11:18.309Z</time></trkpt><trkpt lat="40.0242471" lon="9.5821579"><ele>183.0</ele><time>2026-03-28T15:11:19.302Z</time></trkpt><trkpt lat="40.0243196" lon="9.5821572"><ele>183.0</ele><time>2026-03-28T15:11:20.307Z</time></trkpt><trkpt lat="40.024407" lon="9.5821439"><ele>183.0</ele><time>2026-03-28T15:11:21.304Z</time></trkpt><trkpt lat="40.0244944" lon="9.5821206"><ele>183.0</ele><time>2026-03-28T15:11:22.319Z</time></trkpt><trkpt lat="40.0245743" lon="9.5820986"><ele>183.0</ele><time>2026-03-28T15:11:23.307Z</time></trkpt><trkpt lat="40.0246486" lon="9.5820905"><ele>183.0</ele><time>2026-03-28T15:11:24.309Z</time></trkpt><trkpt lat="40.0247296" lon="9.5821057"><ele>183.0</ele><time>2026-03-28T15:11:25.306Z</time></trkpt><trkpt lat="40.0248086" lon="9.5821246"><ele>183.0</ele><time>2026-03-28T15:11:26.308Z</time></trkpt><trkpt lat="40.0248766" lon="9.5821344"><ele>183.0</ele><time>2026-03-28T15:11:27.321Z</time></trkpt><trkpt lat="40.0249454" lon="9.5821386"><ele>183.0</ele><time>2026-03-28T15:11:28.305Z</time></trkpt><trkpt lat="40.0250655" lon="9.5821521"><ele>183.0</ele><time>2026-03-28T15:11:30.303Z</time></trkpt><trkpt lat="40.0251669" lon="9.5821294"><ele>183.0</ele><time>2026-03-28T15:11:32.305Z</time></trkpt><trkpt lat="40.0252227" lon="9.5820891"><ele>185.16666666666666</ele><time>2026-03-28T15:11:33.302Z</time></trkpt><trkpt lat="40.0252916" lon="9.5820396"><ele>187.33333333333331</ele><time>2026-03-28T15:11:34.307Z</time></trkpt><trkpt lat="40.0253625" lon="9.5819952"><ele>189.5</ele><time>2026-03-28T15:11:35.307Z</time></trkpt><trkpt lat="40.0254205" lon="9.5819452"><ele>191.66666666666666</ele><time>2026-03-28T15:11:36.307Z</time></trkpt><trkpt lat="40.0254704" lon="9.5818752"><ele>193.83333333333331</ele><time>2026-03-28T15:11:37.308Z</time></trkpt><trkpt lat="40.0255086" lon="9.5817887"><ele>196.0</ele><time>2026-03-28T15:11:38.332Z</time></trkpt><trkpt lat="40.0255446" lon="9.5817003"><ele>197.49999999999997</ele><time>2026-03-28T15:11:39.302Z</time></trkpt><trkpt lat="40.0255668" lon="9.5815955"><ele>199.0</ele><time>2026-03-28T15:11:40.303Z</time></trkpt><trkpt lat="40.0255805" lon="9.5814857"><ele>200.5</ele><time>2026-03-28T15:11:41.313Z</time></trkpt><trkpt lat="40.0255848" lon="9.5813678"><ele>202.0</ele><time>2026-03-28T15:11:42.307Z</time></trkpt><trkpt lat="40.0255894" lon="9.5812557"><ele>203.49999999999997</ele><time>2026-03-28T15:11:43.303Z</time></trkpt><trkpt lat="40.0255955" lon="9.5811738"><ele>205.0</ele><time>2026-03-28T15:11:44.315Z</time></trkpt><trkpt lat="40.0256528" lon="9.5810902"><ele>207.2</ele><time>2026-03-28T15:11:46.302Z</time></trkpt><trkpt lat="40.0257942" lon="9.5811067"><ele>209.4</ele><time>2026-03-28T15:11:48.306Z</time></trkpt><trkpt lat="40.0258836" lon="9.58113"><ele>211.60000000000002</ele><time>2026-03-28T15:11:49.33Z</time></trkpt><trkpt lat="40.0259684" lon="9.5811462"><ele>213.8</ele><time>2026-03-28T15:11:50.309Z</time></trkpt><trkpt lat="40.026057" lon="9.5811554"><ele>216.0</ele><time>2026-03-28T15:11:51.307Z</time></trkpt><trkpt lat="40.0261442" lon="9.581154"><ele>216.0</ele><time>2026-03-28T15:11:52.306Z</time></trkpt><trkpt lat="40.026216" lon="9.5811532"><ele>216.0</ele><time>2026-03-28T15:11:53.315Z</time></trkpt><trkpt lat="40.0262935" lon="9.5811451"><ele>216.0</ele><time>2026-03-28T15:11:54.303Z</time></trkpt><trkpt lat="40.0263736" lon="9.5811363"><ele>216.0</ele><time>2026-03-28T15:11:55.315Z</time></trkpt><trkpt lat="40.0264567" lon="9.5811349"><ele>216.0</ele><time>2026-03-28T15:11:56.321Z</time></trkpt><trkpt lat="40.0265399" lon="9.5811635"><ele>216.0</ele><time>2026-03-28T15:11:57.301Z</time></trkpt><trkpt lat="40.0266268" lon="9.5812002"><ele>213.20000000000002</ele><time>2026-03-28T15:11:58.332Z</time></trkpt><trkpt lat="40.0267229" lon="9.5812315"><ele>210.40000000000003</ele><time>2026-03-28T15:11:59.316Z</time></trkpt><trkpt lat="40.0268122" lon="9.5812618"><ele>207.6</ele><time>2026-03-28T15:12:00.304Z</time></trkpt><trkpt lat="40.0268993" lon="9.5812788"><ele>204.8</ele><time>2026-03-28T15:12:01.305Z</time></trkpt><trkpt lat="40.0269897" lon="9.5812791"><ele>202.0</ele><time>2026-03-28T15:12:02.307Z</time></trkpt><trkpt lat="40.0270805" lon="9.5812694"><ele>202.0</ele><time>2026-03-28T15:12:03.306Z</time></trkpt><trkpt lat="40.0271884" lon="9.5812537"><ele>202.0</ele><time>2026-03-28T15:12:04.306Z</time></trkpt><trkpt lat="40.0272888" lon="9.5812327"><ele>202.0</ele><time>2026-03-28T15:12:05.317Z</time></trkpt><trkpt lat="40.0273858" lon="9.581232"><ele>202.0</ele><time>2026-03-28T15:12:06.308Z</time></trkpt><trkpt lat="40.0274812" lon="9.5812552"><ele>202.0</ele><time>2026-03-28T15:12:07.311Z</time></trkpt><trkpt lat="40.0275845" lon="9.5812748"><ele>203.0</ele><time>2026-03-28T15:12:08.309Z</time></trkpt><trkpt lat="40.0276869" lon="9.5812943"><ele>204.0</ele><time>2026-03-28T15:12:09.307Z</time></trkpt><trkpt lat="40.0277948" lon="9.5813029"><ele>205.0</ele><time>2026-03-28T15:12:10.308Z</time></trkpt><trkpt lat="40.0279" lon="9.5812986"><ele>206.0</ele><time>2026-03-28T15:12:11.314Z</time></trkpt><trkpt lat="40.0280072" lon="9.5812895"><ele>207.0</ele><time>2026-03-28T15:12:12.314Z</time></trkpt><trkpt lat="40.0281093" lon="9.5812785"><ele>207.0</ele><time>2026-03-28T15:12:13.306Z</time></trkpt><trkpt lat="40.0282094" lon="9.5812686"><ele>207.0</ele><time>2026-03-28T15:12:14.306Z</time></trkpt><trkpt lat="40.0283186" lon="9.5812584"><ele>207.0</ele><time>2026-03-28T15:12:15.308Z</time></trkpt><trkpt lat="40.0284337" lon="9.58124"><ele>207.0</ele><time>2026-03-28T15:12:16.311Z</time></trkpt><trkpt lat="40.0285412" lon="9.5812214"><ele>207.0</ele><time>2026-03-28T15:12:17.306Z</time></trkpt><trkpt lat="40.0286166" lon="9.5811872"><ele>208.5</ele><time>2026-03-28T15:12:18.316Z</time></trkpt><trkpt lat="40.0286778" lon="9.5811549"><ele>210.0</ele><time>2026-03-28T15:12:19.306Z</time></trkpt><trkpt lat="40.0287506" lon="9.5811252"><ele>211.5</ele><time>2026-03-28T15:12:21.303Z</time></trkpt><trkpt lat="40.0288404" lon="9.5812153"><ele>213.0</ele><time>2026-03-28T15:12:23.31Z</time></trkpt><trkpt lat="40.0289044" lon="9.581248"><ele>214.5</ele><time>2026-03-28T15:12:24.31Z</time></trkpt><trkpt lat="40.0289837" lon="9.5812598"><ele>216.0</ele><time>2026-03-28T15:12:25.309Z</time></trkpt><trkpt lat="40.0290766" lon="9.5812561"><ele>218.16666666666666</ele><time>2026-03-28T15:12:26.303Z</time></trkpt><trkpt lat="40.0291679" lon="9.5812486"><ele>220.33333333333331</ele><time>2026-03-28T15:12:27.316Z</time></trkpt><trkpt lat="40.0292563" lon="9.5812411"><ele>222.5</ele><time>2026-03-28T15:12:28.309Z</time></trkpt><trkpt lat="40.0293352" lon="9.581241"><ele>224.66666666666666</ele><time>2026-03-28T15:12:29.31Z</time></trkpt><trkpt lat="40.0294115" lon="9.5812471"><ele>226.83333333333331</ele><time>2026-03-28T15:12:30.31Z</time></trkpt><trkpt lat="40.0294948" lon="9.5812449"><ele>229.0</ele><time>2026-03-28T15:12:31.316Z</time></trkpt><trkpt lat="40.029576" lon="9.5812495"><ele>229.0</ele><time>2026-03-28T15:12:32.313Z</time></trkpt><trkpt lat="40.0296526" lon="9.5812897"><ele>228.99999999999997</ele><time>2026-03-28T15:12:33.309Z</time></trkpt><trkpt lat="40.0296928" lon="9.5813667"><ele>228.99999999999997</ele><time>2026-03-28T15:12:34.314Z</time></trkpt><trkpt lat="40.0297298" lon="9.5814351"><ele>229.0</ele><time>2026-03-28T15:12:35.309Z</time></trkpt><trkpt lat="40.0297308" lon="9.5816088"><ele>229.0</ele><time>2026-03-28T15:12:37.309Z</time></trkpt><trkpt lat="40.0297001" lon="9.5817553"><ele>228.99999999999997</ele><time>2026-03-28T15:12:39.308Z</time></trkpt><trkpt lat="40.0296515" lon="9.5818209"><ele>229.0</ele><time>2026-03-28T15:12:40.317Z</time></trkpt><trkpt lat="40.0295905" lon="9.5818915"><ele>229.0</ele><time>2026-03-28T15:12:42.313Z</time></trkpt><trkpt lat="40.0296324" lon="9.5819659"><ele>229.0</ele><time>2026-03-28T15:12:45.325Z</time></trkpt><trkpt lat="40.0297439" lon="9.5819231"><ele>228.99999999999997</ele><time>2026-03-28T15:12:47.312Z</time></trkpt><trkpt lat="40.0298218" lon="9.581893"><ele>229.0</ele><time>2026-03-28T15:12:48.307Z</time></trkpt><trkpt lat="40.0299022" lon="9.5818764"><ele>229.0</ele><time>2026-03-28T15:12:49.313Z</time></trkpt><trkpt lat="40.0299682" lon="9.5818579"><ele>228.99999999999997</ele><time>2026-03-28T15:12:50.32Z</time></trkpt><trkpt lat="40.0300518" lon="9.5817967"><ele>228.99999999999997</ele><time>2026-03-28T15:12:52.307Z</time></trkpt><trkpt lat="40.0301248" lon="9.5816583"><ele>229.0</ele><time>2026-03-28T15:12:54.308Z</time></trkpt><trkpt lat="40.0302091" lon="9.5815552"><ele>229.0</ele><time>2026-03-28T15:12:56.31Z</time></trkpt><trkpt lat="40.0302705" lon="9.5815235"><ele>231.83333333333331</ele><time>2026-03-28T15:12:57.316Z</time></trkpt><trkpt lat="40.0303484" lon="9.5814826"><ele>234.66666666666666</ele><time>2026-03-28T15:12:58.306Z</time></trkpt><trkpt lat="40.030432" lon="9.5814725"><ele>237.5</ele><time>2026-03-28T15:12:59.329Z</time></trkpt><trkpt lat="40.0305085" lon="9.5814752"><ele>240.33333333333331</ele><time>2026-03-28T15:13:00.31Z</time></trkpt><trkpt lat="40.0306061" lon="9.5814586"><ele>243.16666666666666</ele><time>2026-03-28T15:13:02.31Z</time></trkpt><trkpt lat="40.0306741" lon="9.5814508"><ele>246.0</ele><time>2026-03-28T15:13:43.318Z</time></trkpt><trkpt lat="40.0307553" lon="9.5814613"><ele>247.83333333333334</ele><time>2026-03-28T15:13:46.311Z</time></trkpt><trkpt lat="40.0308339" lon="9.5815082"><ele>249.66666666666669</ele><time>2026-03-28T15:13:48.319Z</time></trkpt><trkpt lat="40.0309304" lon="9.5815911"><ele>251.5</ele><time>2026-03-28T15:13:50.312Z</time></trkpt><trkpt lat="40.0309825" lon="9.5816409"><ele>253.33333333333334</ele><time>2026-03-28T15:13:51.334Z</time></trkpt><trkpt lat="40.0310382" lon="9.5816953"><ele>255.16666666666669</ele><time>2026-03-28T15:13:52.317Z</time></trkpt><trkpt lat="40.0310935" lon="9.581743"><ele>257.0</ele><time>2026-03-28T15:13:53.307Z</time></trkpt><trkpt lat="40.0311772" lon="9.581826"><ele>257.0</ele><time>2026-03-28T15:13:55.315Z</time></trkpt><trkpt lat="40.0312416" lon="9.5818957"><ele>257.0</ele><time>2026-03-28T15:13:58.327Z</time></trkpt><trkpt lat="40.031291" lon="9.5818423"><ele>257.0</ele><time>2026-03-28T15:14:01.307Z</time></trkpt><trkpt lat="40.0312853" lon="9.5817362"><ele>257.0</ele><time>2026-03-28T15:14:03.308Z</time></trkpt><trkpt lat="40.0312793" lon="9.5815774"><ele>257.0</ele><time>2026-03-28T15:14:05.321Z</time></trkpt><trkpt lat="40.0312984" lon="9.5814465"><ele>257.0</ele><time>2026-03-28T15:14:07.315Z</time></trkpt><trkpt lat="40.0313664" lon="9.581331"><ele>257.0</ele><time>2026-03-28T15:14:09.305Z</time></trkpt><trkpt lat="40.0314599" lon="9.5812403"><ele>257.0</ele><time>2026-03-28T15:14:11.313Z</time></trkpt><trkpt lat="40.0315363" lon="9.5811998"><ele>257.0</ele><time>2026-03-28T15:14:13.317Z</time></trkpt><trkpt lat="40.0316426" lon="9.5812014"><ele>257.0</ele><time>2026-03-28T15:14:15.333Z</time></trkpt><trkpt lat="40.0317603" lon="9.5811713"><ele>256.83333333333337</ele><time>2026-03-28T15:14:17.306Z</time></trkpt><trkpt lat="40.0318716" lon="9.5811438"><ele>256.6666666666667</ele><time>2026-03-28T15:14:19.31Z</time></trkpt><trkpt lat="40.0319373" lon="9.581144"><ele>256.5</ele><time>2026-03-28T15:14:20.335Z</time></trkpt><trkpt lat="40.0320046" lon="9.5811452"><ele>256.3333333333333</ele><time>2026-03-28T15:14:21.308Z</time></trkpt><trkpt lat="40.0320959" lon="9.5811411"><ele>256.16666666666663</ele><time>2026-03-28T15:14:22.306Z</time></trkpt><trkpt lat="40.0321843" lon="9.581142"><ele>256.0</ele><time>2026-03-28T15:14:23.313Z</time></trkpt><trkpt lat="40.0322689" lon="9.5811464"><ele>255.99999999999997</ele><time>2026-03-28T15:14:24.309Z</time></trkpt><trkpt lat="40.0323371" lon="9.581158"><ele>256.0</ele><time>2026-03-28T15:14:25.311Z</time></trkpt><trkpt lat="40.0324013" lon="9.5811672"><ele>256.0</ele><time>2026-03-28T15:14:26.333Z</time></trkpt><trkpt lat="40.0324661" lon="9.581159"><ele>256.0</ele><time>2026-03-28T15:14:27.311Z</time></trkpt><trkpt lat="40.0325352" lon="9.5811334"><ele>255.99999999999997</ele><time>2026-03-28T15:14:28.31Z</time></trkpt><trkpt lat="40.0326399" lon="9.5810712"><ele>256.0</ele><time>2026-03-28T15:14:30.303Z</time></trkpt><trkpt lat="40.0327284" lon="9.5810783"><ele>255.4</ele><time>2026-03-28T15:14:32.313Z</time></trkpt><trkpt lat="40.0327963" lon="9.5811218"><ele>254.8</ele><time>2026-03-28T15:14:33.314Z</time></trkpt><trkpt lat="40.0328615" lon="9.5811602"><ele>254.20000000000002</ele><time>2026-03-28T15:14:34.304Z</time></trkpt><trkpt lat="40.0329773" lon="9.5811994"><ele>253.60000000000002</ele><time>2026-03-28T15:14:36.304Z</time></trkpt><trkpt lat="40.0330916" lon="9.5811615"><ele>253.0</ele><time>2026-03-28T15:14:38.314Z</time></trkpt><trkpt lat="40.0331499" lon="9.5811239"><ele>252.99999999999997</ele><time>2026-03-28T15:14:39.31Z</time></trkpt><trkpt lat="40.0332099" lon="9.5810812"><ele>253.0</ele><time>2026-03-28T15:14:40.31Z</time></trkpt><trkpt lat="40.0332716" lon="9.5810193"><ele>253.0</ele><time>2026-03-28T15:14:41.333Z</time></trkpt><trkpt lat="40.0333323" lon="9.5809576"><ele>253.0</ele><time>2026-03-28T15:14:42.308Z</time></trkpt><trkpt lat="40.033387" lon="9.5809016"><ele>252.99999999999997</ele><time>2026-03-28T15:14:43.31Z</time></trkpt><trkpt lat="40.0334327" lon="9.5808443"><ele>253.0</ele><time>2026-03-28T15:14:44.311Z</time></trkpt><trkpt lat="40.0334944" lon="9.5807153"><ele>250.33333333333331</ele><time>2026-03-28T15:14:46.323Z</time></trkpt><trkpt lat="40.0335354" lon="9.5806159"><ele>247.66666666666666</ele><time>2026-03-28T15:14:48.314Z</time></trkpt><trkpt lat="40.033603" lon="9.5806206"><ele>245.0</ele><time>2026-03-28T15:14:50.314Z</time></trkpt><trkpt lat="40.0336612" lon="9.5807567"><ele>242.33333333333331</ele><time>2026-03-28T15:14:52.313Z</time></trkpt><trkpt lat="40.0336932" lon="9.5808417"><ele>239.66666666666666</ele><time>2026-03-28T15:14:53.313Z</time></trkpt><trkpt lat="40.0337327" lon="9.5809088"><ele>237.0</ele><time>2026-03-28T15:14:54.313Z</time></trkpt><trkpt lat="40.0338323" lon="9.5809791"><ele>237.0</ele><time>2026-03-28T15:14:56.312Z</time></trkpt><trkpt lat="40.0339592" lon="9.5809892"><ele>237.0</ele><time>2026-03-28T15:14:58.306Z</time></trkpt><trkpt lat="40.0340849" lon="9.5809927"><ele>237.0</ele><time>2026-03-28T15:15:00.314Z</time></trkpt><trkpt lat="40.0341572" lon="9.5810308"><ele>237.0</ele><time>2026-03-28T15:15:01.31Z</time></trkpt><trkpt lat="40.0342355" lon="9.5810766"><ele>237.0</ele><time>2026-03-28T15:15:02.31Z</time></trkpt><trkpt lat="40.0343037" lon="9.5811146"><ele>236.39999999999998</ele><time>2026-03-28T15:15:03.315Z</time></trkpt><trkpt lat="40.0343687" lon="9.5811431"><ele>235.79999999999998</ele><time>2026-03-28T15:15:04.313Z</time></trkpt><trkpt lat="40.0344777" lon="9.5811555"><ele>235.2</ele><time>2026-03-28T15:15:06.311Z</time></trkpt><trkpt lat="40.0345802" lon="9.581126"><ele>234.6</ele><time>2026-03-28T15:15:08.341Z</time></trkpt><trkpt lat="40.0346717" lon="9.5810625"><ele>234.0</ele><time>2026-03-28T15:15:10.31Z</time></trkpt><trkpt lat="40.0347615" lon="9.5809561"><ele>234.0</ele><time>2026-03-28T15:15:12.31Z</time></trkpt><trkpt lat="40.034807" lon="9.5808792"><ele>234.0</ele><time>2026-03-28T15:15:13.335Z</time></trkpt><trkpt lat="40.0348438" lon="9.5807979"><ele>234.0</ele><time>2026-03-28T15:15:14.304Z</time></trkpt><trkpt lat="40.0348808" lon="9.5807091"><ele>234.0</ele><time>2026-03-28T15:15:15.309Z</time></trkpt><trkpt lat="40.0349207" lon="9.5806178"><ele>234.0</ele><time>2026-03-28T15:15:16.314Z</time></trkpt><trkpt lat="40.0349663" lon="9.5805273"><ele>234.0</ele><time>2026-03-28T15:15:17.308Z</time></trkpt><trkpt lat="40.0350096" lon="9.5804365"><ele>232.16666666666666</ele><time>2026-03-28T15:15:18.318Z</time></trkpt><trkpt lat="40.0350497" lon="9.5803396"><ele>230.33333333333331</ele><time>2026-03-28T15:15:19.314Z</time></trkpt><trkpt lat="40.0350857" lon="9.5802507"><ele>228.5</ele><time>2026-03-28T15:15:20.317Z</time></trkpt><trkpt lat="40.0351175" lon="9.5801619"><ele>226.66666666666666</ele><time>2026-03-28T15:15:21.312Z</time></trkpt><trkpt lat="40.0351487" lon="9.5800805"><ele>224.83333333333331</ele><time>2026-03-28T15:15:22.329Z</time></trkpt><trkpt lat="40.035177" lon="9.5799922"><ele>223.0</ele><time>2026-03-28T15:15:23.314Z</time></trkpt><trkpt lat="40.035193" lon="9.5799019"><ele>222.99999999999997</ele><time>2026-03-28T15:15:24.31Z</time></trkpt><trkpt lat="40.0351947" lon="9.5798186"><ele>223.0</ele><time>2026-03-28T15:15:25.309Z</time></trkpt><trkpt lat="40.0352003" lon="9.5796959"><ele>223.0</ele><time>2026-03-28T15:15:27.316Z</time></trkpt><trkpt lat="40.0352549" lon="9.5796225"><ele>223.0</ele><time>2026-03-28T15:15:29.324Z</time></trkpt><trkpt lat="40.035342" lon="9.5795527"><ele>222.99999999999997</ele><time>2026-03-28T15:15:31.306Z</time></trkpt><trkpt lat="40.0353964" lon="9.5794512"><ele>223.0</ele><time>2026-03-28T15:15:33.313Z</time></trkpt><trkpt lat="40.0354881" lon="9.5793684"><ele>222.99999999999997</ele><time>2026-03-28T15:15:35.314Z</time></trkpt><trkpt lat="40.0355751" lon="9.5793163"><ele>223.0</ele><time>2026-03-28T15:15:37.335Z</time></trkpt><trkpt lat="40.0356408" lon="9.5792644"><ele>223.0</ele><time>2026-03-28T15:15:40.318Z</time></trkpt><trkpt lat="40.0357067" lon="9.5792975"><ele>223.0</ele><time>2026-03-28T15:15:43.322Z</time></trkpt><trkpt lat="40.035722" lon="9.5793875"><ele>222.99999999999997</ele><time>2026-03-28T15:15:45.32Z</time></trkpt><trkpt lat="40.0357266" lon="9.5795424"><ele>223.0</ele><time>2026-03-28T15:15:47.323Z</time></trkpt><trkpt lat="40.0357386" lon="9.5796262"><ele>223.0</ele><time>2026-03-28T15:15:48.311Z</time></trkpt><trkpt lat="40.0357877" lon="9.5797566"><ele>223.0</ele><time>2026-03-28T15:15:50.31Z</time></trkpt><trkpt lat="40.0358297" lon="9.5798502"><ele>223.0</ele><time>2026-03-28T15:16:31.334Z</time></trkpt><trkpt lat="40.035866" lon="9.5799179"><ele>223.0</ele><time>2026-03-28T15:23:51.287Z</time></trkpt><trkpt lat="40.0358952" lon="9.5800231"><ele>223.0</ele><time>2026-03-28T15:23:53.316Z</time></trkpt><trkpt lat="40.0359385" lon="9.5801754"><ele>221.66666666666666</ele><time>2026-03-28T15:23:55.332Z</time></trkpt><trkpt lat="40.0359677" lon="9.5802526"><ele>220.33333333333331</ele><time>2026-03-28T15:23:56.304Z</time></trkpt><trkpt lat="40.0360019" lon="9.5803317"><ele>219.0</ele><time>2026-03-28T15:23:57.311Z</time></trkpt><trkpt lat="40.0360285" lon="9.580409"><ele>217.66666666666669</ele><time>2026-03-28T15:23:58.308Z</time></trkpt><trkpt lat="40.0360495" lon="9.5805462"><ele>216.33333333333334</ele><time>2026-03-28T15:24:00.323Z</time></trkpt><trkpt lat="40.0360928" lon="9.5806305"><ele>215.0</ele><time>2026-03-28T15:24:02.314Z</time></trkpt><trkpt lat="40.0361909" lon="9.5806917"><ele>215.00000000000003</ele><time>2026-03-28T15:24:04.307Z</time></trkpt><trkpt lat="40.0362616" lon="9.5807227"><ele>215.0</ele><time>2026-03-28T15:24:05.31Z</time></trkpt><trkpt lat="40.0363418" lon="9.5807599"><ele>215.0</ele><time>2026-03-28T15:24:06.352Z</time></trkpt><trkpt lat="40.0364286" lon="9.5808037"><ele>215.0</ele><time>2026-03-28T15:24:07.299Z</time></trkpt><trkpt lat="40.0365122" lon="9.5808496"><ele>215.00000000000003</ele><time>2026-03-28T15:24:08.315Z</time></trkpt><trkpt lat="40.0365966" lon="9.5808968"><ele>215.0</ele><time>2026-03-28T15:24:09.304Z</time></trkpt><trkpt lat="40.0366687" lon="9.5809514"><ele>215.00000000000003</ele><time>2026-03-28T15:24:10.314Z</time></trkpt><trkpt lat="40.0367317" lon="9.5809984"><ele>215.0</ele><time>2026-03-28T15:24:11.31Z</time></trkpt><trkpt lat="40.0368284" lon="9.5810231"><ele>215.0</ele><time>2026-03-28T15:24:13.308Z</time></trkpt><trkpt lat="40.0369159" lon="9.580999"><ele>215.0</ele><time>2026-03-28T15:24:15.311Z</time></trkpt><trkpt lat="40.0369974" lon="9.5809888"><ele>215.00000000000003</ele><time>2026-03-28T15:24:17.308Z</time></trkpt><trkpt lat="40.03708" lon="9.5810765"><ele>215.0</ele><time>2026-03-28T15:24:19.312Z</time></trkpt><trkpt lat="40.037122" lon="9.5811504"><ele>214.7142857142857</ele><time>2026-03-28T15:24:20.306Z</time></trkpt><trkpt lat="40.0371659" lon="9.581226"><ele>214.42857142857144</ele><time>2026-03-28T15:24:21.312Z</time></trkpt><trkpt lat="40.0372059" lon="9.581303"><ele>214.14285714285714</ele><time>2026-03-28T15:24:22.314Z</time></trkpt><trkpt lat="40.0372534" lon="9.5813813"><ele>213.85714285714283</ele><time>2026-03-28T15:24:23.31Z</time></trkpt><trkpt lat="40.037306" lon="9.5814511"><ele>213.57142857142856</ele><time>2026-03-28T15:24:24.319Z</time></trkpt><trkpt lat="40.0373609" lon="9.5815118"><ele>213.28571428571428</ele><time>2026-03-28T15:24:25.31Z</time></trkpt><trkpt lat="40.0374217" lon="9.5815594"><ele>213.0</ele><time>2026-03-28T15:24:26.313Z</time></trkpt><trkpt lat="40.0374845" lon="9.5815949"><ele>213.0</ele><time>2026-03-28T15:24:27.313Z</time></trkpt><trkpt lat="40.0375487" lon="9.5816157"><ele>213.0</ele><time>2026-03-28T15:24:28.31Z</time></trkpt><trkpt lat="40.0376233" lon="9.5816235"><ele>213.0</ele><time>2026-03-28T15:24:29.32Z</time></trkpt><trkpt lat="40.0376976" lon="9.5816314"><ele>213.0</ele><time>2026-03-28T15:24:30.309Z</time></trkpt><trkpt lat="40.0377611" lon="9.5816395"><ele>213.0</ele><time>2026-03-28T15:24:31.347Z</time></trkpt><trkpt lat="40.0378696" lon="9.5817465"><ele>213.0</ele><time>2026-03-28T15:24:33.314Z</time></trkpt><trkpt lat="40.0379196" lon="9.5818074"><ele>213.0</ele><time>2026-03-28T15:24:34.315Z</time></trkpt><trkpt lat="40.0380293" lon="9.5819184"><ele>213.0</ele><time>2026-03-28T15:24:36.311Z</time></trkpt><trkpt lat="40.0380959" lon="9.5819773"><ele>213.0</ele><time>2026-03-28T15:24:37.338Z</time></trkpt><trkpt lat="40.0381618" lon="9.582029"><ele>213.0</ele><time>2026-03-28T15:24:38.312Z</time></trkpt><trkpt lat="40.0382361" lon="9.5820762"><ele>213.0</ele><time>2026-03-28T15:24:39.318Z</time></trkpt><trkpt lat="40.038316" lon="9.5821157"><ele>212.16666666666666</ele><time>2026-03-28T15:24:40.317Z</time></trkpt><trkpt lat="40.038392" lon="9.5821467"><ele>211.33333333333331</ele><time>2026-03-28T15:24:41.307Z</time></trkpt><trkpt lat="40.0384616" lon="9.582173"><ele>210.5</ele><time>2026-03-28T15:24:42.32Z</time></trkpt><trkpt lat="40.0385294" lon="9.582193"><ele>209.66666666666666</ele><time>2026-03-28T15:24:43.31Z</time></trkpt><trkpt lat="40.0386079" lon="9.5822093"><ele>208.83333333333331</ele><time>2026-03-28T15:24:44.314Z</time></trkpt><trkpt lat="40.0386891" lon="9.582225"><ele>208.0</ele><time>2026-03-28T15:24:45.331Z</time></trkpt><trkpt lat="40.0387768" lon="9.582247"><ele>207.99999999999997</ele><time>2026-03-28T15:24:46.307Z</time></trkpt><trkpt lat="40.0388632" lon="9.5822721"><ele>208.0</ele><time>2026-03-28T15:24:47.313Z</time></trkpt><trkpt lat="40.0389486" lon="9.5823193"><ele>208.0</ele><time>2026-03-28T15:24:48.31Z</time></trkpt><trkpt lat="40.0390279" lon="9.5823595"><ele>208.0</ele><time>2026-03-28T15:24:49.317Z</time></trkpt><trkpt lat="40.0391051" lon="9.5823846"><ele>207.99999999999997</ele><time>2026-03-28T15:24:50.313Z</time></trkpt><trkpt lat="40.0391891" lon="9.5824067"><ele>208.0</ele><time>2026-03-28T15:24:51.309Z</time></trkpt><trkpt lat="40.0392656" lon="9.582433"><ele>208.83333333333331</ele><time>2026-03-28T15:24:52.308Z</time></trkpt><trkpt lat="40.0393414" lon="9.5824616"><ele>209.66666666666666</ele><time>2026-03-28T15:24:53.312Z</time></trkpt><trkpt lat="40.0394297" lon="9.5825107"><ele>210.5</ele><time>2026-03-28T15:24:54.317Z</time></trkpt><trkpt lat="40.0395076" lon="9.5825582"><ele>211.33333333333331</ele><time>2026-03-28T15:24:55.314Z</time></trkpt><trkpt lat="40.0395711" lon="9.5826034"><ele>212.16666666666666</ele><time>2026-03-28T15:24:56.307Z</time></trkpt><trkpt lat="40.0396316" lon="9.5826413"><ele>213.0</ele><time>2026-03-28T15:24:57.327Z</time></trkpt><trkpt lat="40.0397033" lon="9.5826593"><ele>212.99999999999997</ele><time>2026-03-28T15:24:58.303Z</time></trkpt><trkpt lat="40.0397805" lon="9.5826782"><ele>213.0</ele><time>2026-03-28T15:24:59.315Z</time></trkpt><trkpt lat="40.0398456" lon="9.582705"><ele>213.0</ele><time>2026-03-28T15:25:00.302Z</time></trkpt><trkpt lat="40.0399025" lon="9.5827529"><ele>213.0</ele><time>2026-03-28T15:25:01.315Z</time></trkpt><trkpt lat="40.0399622" lon="9.5828258"><ele>213.0</ele><time>2026-03-28T15:25:02.303Z</time></trkpt><trkpt lat="40.0400179" lon="9.5828958"><ele>212.99999999999997</ele><time>2026-03-28T15:25:03.306Z</time></trkpt><trkpt lat="40.0400738" lon="9.5829469"><ele>213.0</ele><time>2026-03-28T15:25:04.305Z</time></trkpt><trkpt lat="40.0401781" lon="9.5829883"><ele>211.0</ele><time>2026-03-28T15:25:06.329Z</time></trkpt><trkpt lat="40.0402735" lon="9.5829408"><ele>209.0</ele><time>2026-03-28T15:25:08.306Z</time></trkpt><trkpt lat="40.0403579" lon="9.5828657"><ele>207.0</ele><time>2026-03-28T15:25:10.317Z</time></trkpt><trkpt lat="40.0404456" lon="9.5828431"><ele>205.0</ele><time>2026-03-28T15:25:12.305Z</time></trkpt><trkpt lat="40.0405635" lon="9.5828481"><ele>203.0</ele><time>2026-03-28T15:25:14.314Z</time></trkpt><trkpt lat="40.0406319" lon="9.5828519"><ele>207.0</ele><time>2026-03-28T15:25:15.309Z</time></trkpt><trkpt lat="40.0407318" lon="9.5828473"><ele>211.0</ele><time>2026-03-28T15:25:17.318Z</time></trkpt><trkpt lat="40.0408048" lon="9.5828466"><ele>215.0</ele><time>2026-03-28T15:25:19.322Z</time></trkpt><trkpt lat="40.0409278" lon="9.582778"><ele>219.0</ele><time>2026-03-28T15:25:22.313Z</time></trkpt><trkpt lat="40.0410348" lon="9.5827368"><ele>223.0</ele><time>2026-03-28T15:25:24.315Z</time></trkpt><trkpt lat="40.041112" lon="9.5827105"><ele>222.99999999999997</ele><time>2026-03-28T15:25:26.317Z</time></trkpt><trkpt lat="40.041177" lon="9.5826557"><ele>223.0</ele><time>2026-03-28T15:25:28.314Z</time></trkpt><trkpt lat="40.0412313" lon="9.5825721"><ele>223.0</ele><time>2026-03-28T15:25:30.315Z</time></trkpt><trkpt lat="40.0413118" lon="9.5824905"><ele>223.0</ele><time>2026-03-28T15:25:32.307Z</time></trkpt><trkpt lat="40.0413854" lon="9.5824394"><ele>222.99999999999997</ele><time>2026-03-28T15:25:34.317Z</time></trkpt><trkpt lat="40.0414744" lon="9.5823923"><ele>223.0</ele><time>2026-03-28T15:25:47.318Z</time></trkpt><trkpt lat="40.0415389" lon="9.5824489"><ele>222.99999999999997</ele><time>2026-03-28T15:25:50.311Z</time></trkpt><trkpt lat="40.0415819" lon="9.5825219"><ele>223.0</ele><time>2026-03-28T15:25:52.306Z</time></trkpt><trkpt lat="40.0416269" lon="9.5826196"><ele>223.0</ele><time>2026-03-28T15:25:54.308Z</time></trkpt><trkpt lat="40.0416088" lon="9.5827678"><ele>223.0</ele><time>2026-03-28T15:25:56.304Z</time></trkpt><trkpt lat="40.0415861" lon="9.5828558"><ele>222.99999999999997</ele><time>2026-03-28T15:25:57.31Z</time></trkpt><trkpt lat="40.041581" lon="9.58295"><ele>223.0</ele><time>2026-03-28T15:25:58.31Z</time></trkpt><trkpt lat="40.0415923" lon="9.5830415"><ele>220.66666666666666</ele><time>2026-03-28T15:25:59.312Z</time></trkpt><trkpt lat="40.0416154" lon="9.5831338"><ele>218.33333333333331</ele><time>2026-03-28T15:26:00.304Z</time></trkpt><trkpt lat="40.0416332" lon="9.583229"><ele>216.0</ele><time>2026-03-28T15:26:01.311Z</time></trkpt><trkpt lat="40.0416527" lon="9.5833174"><ele>213.66666666666669</ele><time>2026-03-28T15:26:02.312Z</time></trkpt><trkpt lat="40.0416578" lon="9.5834614"><ele>211.33333333333334</ele><time>2026-03-28T15:26:04.324Z</time></trkpt><trkpt lat="40.0415807" lon="9.5835596"><ele>209.0</ele><time>2026-03-28T15:26:06.317Z</time></trkpt><trkpt lat="40.0415249" lon="9.5836057"><ele>207.66666666666669</ele><time>2026-03-28T15:26:07.312Z</time></trkpt><trkpt lat="40.0414663" lon="9.5836513"><ele>206.33333333333334</ele><time>2026-03-28T15:26:08.306Z</time></trkpt><trkpt lat="40.0414113" lon="9.5837548"><ele>205.0</ele><time>2026-03-28T15:26:10.308Z</time></trkpt><trkpt lat="40.0414302" lon="9.5838791"><ele>203.66666666666669</ele><time>2026-03-28T15:26:12.329Z</time></trkpt><trkpt lat="40.0414677" lon="9.5839663"><ele>202.33333333333334</ele><time>2026-03-28T15:26:13.313Z</time></trkpt><trkpt lat="40.0415156" lon="9.5840769"><ele>201.0</ele><time>2026-03-28T15:26:14.316Z</time></trkpt><trkpt lat="40.0415604" lon="9.5841664"><ele>201.0</ele><time>2026-03-28T15:26:15.312Z</time></trkpt><trkpt lat="40.0416061" lon="9.5842267"><ele>201.0</ele><time>2026-03-28T15:26:16.306Z</time></trkpt><trkpt lat="40.0416579" lon="9.5842759"><ele>201.0</ele><time>2026-03-28T15:26:17.319Z</time></trkpt><trkpt lat="40.0417263" lon="9.5843388"><ele>201.0</ele><time>2026-03-28T15:26:19.326Z</time></trkpt><trkpt lat="40.0417236" lon="9.5844361"><ele>201.0</ele><time>2026-03-28T15:26:29.319Z</time></trkpt><trkpt lat="40.0416364" lon="9.5845028"><ele>201.0</ele><time>2026-03-28T15:26:32.312Z</time></trkpt><trkpt lat="40.0415714" lon="9.5845115"><ele>204.28571428571428</ele><time>2026-03-28T15:26:33.333Z</time></trkpt><trkpt lat="40.0414998" lon="9.5845137"><ele>207.57142857142858</ele><time>2026-03-28T15:26:34.311Z</time></trkpt><trkpt lat="40.0414368" lon="9.5845274"><ele>210.85714285714286</ele><time>2026-03-28T15:26:35.31Z</time></trkpt><trkpt lat="40.041376" lon="9.5845728"><ele>214.14285714285714</ele><time>2026-03-28T15:26:36.312Z</time></trkpt><trkpt lat="40.0413087" lon="9.5846291"><ele>217.42857142857144</ele><time>2026-03-28T15:26:37.318Z</time></trkpt><trkpt lat="40.0412408" lon="9.5846959"><ele>220.71428571428572</ele><time>2026-03-28T15:26:38.315Z</time></trkpt><trkpt lat="40.0411751" lon="9.5847453"><ele>224.0</ele><time>2026-03-28T15:26:39.309Z</time></trkpt><trkpt lat="40.0411091" lon="9.5847762"><ele>224.00000000000003</ele><time>2026-03-28T15:26:40.318Z</time></trkpt><trkpt lat="40.0410373" lon="9.5847822"><ele>224.0</ele><time>2026-03-28T15:26:41.31Z</time></trkpt><trkpt lat="40.0409488" lon="9.58476"><ele>224.0</ele><time>2026-03-28T15:26:43.308Z</time></trkpt><trkpt lat="40.0409494" lon="9.5848495"><ele>224.0</ele><time>2026-03-28T15:26:48.317Z</time></trkpt><trkpt lat="40.0410262" lon="9.5848536"><ele>224.00000000000003</ele><time>2026-03-28T15:26:50.312Z</time></trkpt><trkpt lat="40.0411374" lon="9.5849304"><ele>224.0</ele><time>2026-03-28T15:26:52.315Z</time></trkpt><trkpt lat="40.0412059" lon="9.5849556"><ele>224.0</ele><time>2026-03-28T15:26:53.34Z</time></trkpt><trkpt lat="40.041321" lon="9.5849424"><ele>223.99999999999997</ele><time>2026-03-28T15:26:55.319Z</time></trkpt><trkpt lat="40.0414116" lon="9.5848609"><ele>223.99999999999997</ele><time>2026-03-28T15:26:57.309Z</time></trkpt><trkpt lat="40.0414849" lon="9.5848313"><ele>224.0</ele><time>2026-03-28T15:26:59.315Z</time></trkpt><trkpt lat="40.0415954" lon="9.5848943"><ele>224.0</ele><time>2026-03-28T15:27:01.307Z</time></trkpt><trkpt lat="40.0416673" lon="9.584929"><ele>225.0</ele><time>2026-03-28T15:27:02.31Z</time></trkpt><trkpt lat="40.0417315" lon="9.5849305"><ele>225.99999999999997</ele><time>2026-03-28T15:27:03.313Z</time></trkpt><trkpt lat="40.0418467" lon="9.5848869"><ele>226.99999999999997</ele><time>2026-03-28T15:27:05.304Z</time></trkpt><trkpt lat="40.0419666" lon="9.5848507"><ele>228.0</ele><time>2026-03-28T15:27:07.313Z</time></trkpt><trkpt lat="40.0420515" lon="9.5848213"><ele>229.0</ele><time>2026-03-28T15:27:09.327Z</time></trkpt><trkpt lat="40.0420962" lon="9.5848888"><ele>229.0</ele><time>2026-03-28T15:27:34.309Z</time></trkpt><trkpt lat="40.0420345" lon="9.5849372"><ele>228.99999999999997</ele><time>2026-03-28T15:27:36.348Z</time></trkpt><trkpt lat="40.0419293" lon="9.5850175"><ele>228.99999999999997</ele><time>2026-03-28T15:27:38.311Z</time></trkpt><trkpt lat="40.0418787" lon="9.5850863"><ele>229.0</ele><time>2026-03-28T15:27:39.319Z</time></trkpt><trkpt lat="40.0418298" lon="9.5851529"><ele>229.0</ele><time>2026-03-28T15:27:40.31Z</time></trkpt><trkpt lat="40.0417107" lon="9.5851955"><ele>228.99999999999997</ele><time>2026-03-28T15:27:42.308Z</time></trkpt><trkpt lat="40.0416343" lon="9.5851985"><ele>229.0</ele><time>2026-03-28T15:27:43.311Z</time></trkpt><trkpt lat="40.0415653" lon="9.5852127"><ele>229.0</ele><time>2026-03-28T15:27:44.306Z</time></trkpt><trkpt lat="40.0414914" lon="9.5852351"><ele>229.0</ele><time>2026-03-28T15:27:45.314Z</time></trkpt><trkpt lat="40.0414183" lon="9.5853029"><ele>228.99999999999997</ele><time>2026-03-28T15:27:46.307Z</time></trkpt><trkpt lat="40.0413412" lon="9.5853763"><ele>229.0</ele><time>2026-03-28T15:27:47.311Z</time></trkpt><trkpt lat="40.0412761" lon="9.5854337"><ele>232.33333333333331</ele><time>2026-03-28T15:27:48.328Z</time></trkpt><trkpt lat="40.0412119" lon="9.585452"><ele>235.66666666666666</ele><time>2026-03-28T15:27:49.314Z</time></trkpt><trkpt lat="40.0411244" lon="9.585489"><ele>239.0</ele><time>2026-03-28T15:27:51.305Z</time></trkpt><trkpt lat="40.0411531" lon="9.585581"><ele>242.33333333333331</ele><time>2026-03-28T15:27:54.311Z</time></trkpt><trkpt lat="40.0412217" lon="9.5856003"><ele>245.66666666666666</ele><time>2026-03-28T15:27:55.31Z</time></trkpt><trkpt lat="40.0412946" lon="9.5856101"><ele>249.0</ele><time>2026-03-28T15:27:56.307Z</time></trkpt><trkpt lat="40.0413754" lon="9.5855817"><ele>249.0</ele><time>2026-03-28T15:27:57.307Z</time></trkpt><trkpt lat="40.0414435" lon="9.5855467"><ele>249.0</ele><time>2026-03-28T15:27:58.307Z</time></trkpt><trkpt lat="40.0415009" lon="9.5855082"><ele>249.0</ele><time>2026-03-28T15:27:59.312Z</time></trkpt><trkpt lat="40.0416101" lon="9.5854899"><ele>249.0</ele><time>2026-03-28T15:28:01.306Z</time></trkpt><trkpt lat="40.0417283" lon="9.585516"><ele>249.0</ele><time>2026-03-28T15:28:03.305Z</time></trkpt><trkpt lat="40.0418024" lon="9.5855466"><ele>249.0</ele><time>2026-03-28T15:28:04.308Z</time></trkpt><trkpt lat="40.041874" lon="9.5855767"><ele>248.83333333333334</ele><time>2026-03-28T15:28:05.306Z</time></trkpt><trkpt lat="40.0419787" lon="9.5855792"><ele>248.66666666666669</ele><time>2026-03-28T15:28:07.312Z</time></trkpt><trkpt lat="40.042037" lon="9.5855431"><ele>248.5</ele><time>2026-03-28T15:28:08.311Z</time></trkpt><trkpt lat="40.0420952" lon="9.5854884"><ele>248.33333333333334</ele><time>2026-03-28T15:28:09.307Z</time></trkpt><trkpt lat="40.0421536" lon="9.5854293"><ele>248.16666666666669</ele><time>2026-03-28T15:28:10.318Z</time></trkpt><trkpt lat="40.0422191" lon="9.5853797"><ele>248.0</ele><time>2026-03-28T15:28:11.307Z</time></trkpt><trkpt lat="40.0423288" lon="9.5853529"><ele>248.00000000000003</ele><time>2026-03-28T15:28:13.31Z</time></trkpt><trkpt lat="40.04239" lon="9.5853817"><ele>248.0</ele><time>2026-03-28T15:28:14.317Z</time></trkpt><trkpt lat="40.042462" lon="9.5854188"><ele>248.0</ele><time>2026-03-28T15:28:15.318Z</time></trkpt><trkpt lat="40.0425371" lon="9.5854778"><ele>248.0</ele><time>2026-03-28T15:28:16.311Z</time></trkpt><trkpt lat="40.0426104" lon="9.5855455"><ele>248.00000000000003</ele><time>2026-03-28T15:28:17.338Z</time></trkpt><trkpt lat="40.0426783" lon="9.5855822"><ele>248.0</ele><time>2026-03-28T15:28:18.308Z</time></trkpt><trkpt lat="40.0427565" lon="9.5855774"><ele>246.2</ele><time>2026-03-28T15:28:19.307Z</time></trkpt><trkpt lat="40.0428381" lon="9.5855656"><ele>244.4</ele><time>2026-03-28T15:28:20.317Z</time></trkpt><trkpt lat="40.0429105" lon="9.5855094"><ele>242.59999999999997</ele><time>2026-03-28T15:28:21.312Z</time></trkpt><trkpt lat="40.0429766" lon="9.5854466"><ele>240.79999999999998</ele><time>2026-03-28T15:28:22.311Z</time></trkpt><trkpt lat="40.0430298" lon="9.5853905"><ele>239.0</ele><time>2026-03-28T15:28:23.321Z</time></trkpt><trkpt lat="40.0431522" lon="9.5853212"><ele>239.00000000000003</ele><time>2026-03-28T15:28:25.305Z</time></trkpt><trkpt lat="40.0432329" lon="9.5852914"><ele>239.0</ele><time>2026-03-28T15:28:26.307Z</time></trkpt><trkpt lat="40.0433126" lon="9.5852756"><ele>239.0</ele><time>2026-03-28T15:28:27.314Z</time></trkpt><trkpt lat="40.0433965" lon="9.5852797"><ele>239.0</ele><time>2026-03-28T15:28:28.322Z</time></trkpt><trkpt lat="40.043492" lon="9.5852854"><ele>239.00000000000003</ele><time>2026-03-28T15:28:29.309Z</time></trkpt><trkpt lat="40.0435643" lon="9.5852838"><ele>239.0</ele><time>2026-03-28T15:28:30.311Z</time></trkpt><trkpt lat="40.0436338" lon="9.5852711"><ele>242.00000000000003</ele><time>2026-03-28T15:28:31.307Z</time></trkpt><trkpt lat="40.0437072" lon="9.5852143"><ele>245.0</ele><time>2026-03-28T15:28:32.314Z</time></trkpt><trkpt lat="40.0437847" lon="9.5851556"><ele>248.0</ele><time>2026-03-28T15:28:33.309Z</time></trkpt><trkpt lat="40.0438641" lon="9.585091"><ele>251.0</ele><time>2026-03-28T15:28:34.31Z</time></trkpt><trkpt lat="40.0439391" lon="9.5850151"><ele>254.00000000000003</ele><time>2026-03-28T15:28:35.31Z</time></trkpt><trkpt lat="40.0439897" lon="9.5849425"><ele>257.0</ele><time>2026-03-28T15:28:36.318Z</time></trkpt><trkpt lat="40.0440832" lon="9.584902"><ele>260.8</ele><time>2026-03-28T15:28:38.316Z</time></trkpt><trkpt lat="40.0441483" lon="9.5849212"><ele>264.6</ele><time>2026-03-28T15:28:39.311Z</time></trkpt><trkpt lat="40.0442368" lon="9.584969"><ele>268.40000000000003</ele><time>2026-03-28T15:28:40.311Z</time></trkpt><trkpt lat="40.0443362" lon="9.5850248"><ele>272.2</ele><time>2026-03-28T15:28:41.308Z</time></trkpt><trkpt lat="40.044436" lon="9.5850751"><ele>276.0</ele><time>2026-03-28T15:28:42.341Z</time></trkpt><trkpt lat="40.0445249" lon="9.5851086"><ele>276.0</ele><time>2026-03-28T15:28:43.313Z</time></trkpt><trkpt lat="40.0446112" lon="9.5851378"><ele>276.0</ele><time>2026-03-28T15:28:44.307Z</time></trkpt><trkpt lat="40.0446922" lon="9.5851286"><ele>276.0</ele><time>2026-03-28T15:28:45.311Z</time></trkpt><trkpt lat="40.0447767" lon="9.5850992"><ele>276.0</ele><time>2026-03-28T15:28:46.308Z</time></trkpt><trkpt lat="40.0448348" lon="9.5850482"><ele>276.0</ele><time>2026-03-28T15:28:47.324Z</time></trkpt><trkpt lat="40.0448907" lon="9.5849689"><ele>276.0</ele><time>2026-03-28T15:28:48.311Z</time></trkpt><trkpt lat="40.0449368" lon="9.5848743"><ele>278.40000000000003</ele><time>2026-03-28T15:28:49.325Z</time></trkpt><trkpt lat="40.0449754" lon="9.5847913"><ele>280.8</ele><time>2026-03-28T15:28:50.311Z</time></trkpt><trkpt lat="40.0450626" lon="9.5846919"><ele>283.20000000000005</ele><time>2026-03-28T15:28:52.333Z</time></trkpt><trkpt lat="40.0451323" lon="9.5846057"><ele>285.6</ele><time>2026-03-28T15:28:53.311Z</time></trkpt><trkpt lat="40.0451839" lon="9.5845062"><ele>288.0</ele><time>2026-03-28T15:28:54.312Z</time></trkpt><trkpt lat="40.0452146" lon="9.5843894"><ele>288.0</ele><time>2026-03-28T15:28:55.31Z</time></trkpt><trkpt lat="40.0452441" lon="9.5842677"><ele>288.0</ele><time>2026-03-28T15:28:56.315Z</time></trkpt><trkpt lat="40.0452647" lon="9.5841586"><ele>288.0</ele><time>2026-03-28T15:28:57.302Z</time></trkpt><trkpt lat="40.0452811" lon="9.5840651"><ele>288.0</ele><time>2026-03-28T15:28:58.314Z</time></trkpt><trkpt lat="40.0452501" lon="9.5839126"><ele>288.0</ele><time>2026-03-28T15:29:00.319Z</time></trkpt><trkpt lat="40.0452092" lon="9.5838303"><ele>288.0</ele><time>2026-03-28T15:29:01.311Z</time></trkpt><trkpt lat="40.0451506" lon="9.5837375"><ele>288.0</ele><time>2026-03-28T15:29:02.307Z</time></trkpt><trkpt lat="40.045102" lon="9.5836443"><ele>288.0</ele><time>2026-03-28T15:29:03.317Z</time></trkpt><trkpt lat="40.0450389" lon="9.5835474"><ele>288.0</ele><time>2026-03-28T15:29:05.336Z</time></trkpt><trkpt lat="40.045038" lon="9.5834592"><ele>288.0</ele><time>2026-03-28T15:29:08.316Z</time></trkpt><trkpt lat="40.045109" lon="9.5835035"><ele>288.0</ele><time>2026-03-28T15:29:11.31Z</time></trkpt><trkpt lat="40.0451992" lon="9.5835843"><ele>288.0</ele><time>2026-03-28T15:29:13.324Z</time></trkpt><trkpt lat="40.0453008" lon="9.5836593"><ele>288.0</ele><time>2026-03-28T15:29:15.314Z</time></trkpt><trkpt lat="40.0453978" lon="9.5837278"><ele>288.0</ele><time>2026-03-28T15:29:17.309Z</time></trkpt><trkpt lat="40.0454822" lon="9.58379"><ele>288.0</ele><time>2026-03-28T15:29:19.315Z</time></trkpt><trkpt lat="40.0455458" lon="9.5838469"><ele>288.0</ele><time>2026-03-28T15:29:21.31Z</time></trkpt><trkpt lat="40.0456" lon="9.5839061"><ele>288.0</ele><time>2026-03-28T15:29:23.311Z</time></trkpt><trkpt lat="40.0456604" lon="9.583979"><ele>288.0</ele><time>2026-03-28T15:29:25.312Z</time></trkpt><trkpt lat="40.0457226" lon="9.5840486"><ele>288.0</ele><time>2026-03-28T15:29:27.309Z</time></trkpt><trkpt lat="40.0457884" lon="9.5840957"><ele>288.0</ele><time>2026-03-28T15:29:29.316Z</time></trkpt><trkpt lat="40.0458512" lon="9.5841357"><ele>288.0</ele><time>2026-03-28T15:29:32.316Z</time></trkpt><trkpt lat="40.0459349" lon="9.5841522"><ele>288.0</ele><time>2026-03-28T15:29:38.315Z</time></trkpt><trkpt lat="40.0459915" lon="9.5842063"><ele>291.8333333333333</ele><time>2026-03-28T15:29:39.313Z</time></trkpt><trkpt lat="40.0460424" lon="9.584263"><ele>295.6666666666667</ele><time>2026-03-28T15:29:40.311Z</time></trkpt><trkpt lat="40.0460893" lon="9.5843335"><ele>299.5</ele><time>2026-03-28T15:29:41.335Z</time></trkpt><trkpt lat="40.0461227" lon="9.5844358"><ele>303.33333333333337</ele><time>2026-03-28T15:29:42.311Z</time></trkpt><trkpt lat="40.0461528" lon="9.5845357"><ele>307.1666666666667</ele><time>2026-03-28T15:29:43.312Z</time></trkpt><trkpt lat="40.0461769" lon="9.5846287"><ele>311.0</ele><time>2026-03-28T15:29:44.314Z</time></trkpt><trkpt lat="40.046196" lon="9.5847154"><ele>311.1666666666667</ele><time>2026-03-28T15:29:45.324Z</time></trkpt><trkpt lat="40.0462162" lon="9.5848402"><ele>311.33333333333337</ele><time>2026-03-28T15:29:47.334Z</time></trkpt><trkpt lat="40.0462032" lon="9.5849384"><ele>311.5</ele><time>2026-03-28T15:29:50.315Z</time></trkpt><trkpt lat="40.0462399" lon="9.5850099"><ele>311.6666666666667</ele><time>2026-03-28T15:29:54.317Z</time></trkpt><trkpt lat="40.0462792" lon="9.5849226"><ele>311.8333333333333</ele><time>2026-03-28T15:29:57.307Z</time></trkpt><trkpt lat="40.0463014" lon="9.5847656"><ele>312.0</ele><time>2026-03-28T15:29:59.315Z</time></trkpt><trkpt lat="40.0463085" lon="9.5846653"><ele>312.0</ele><time>2026-03-28T15:30:00.312Z</time></trkpt><trkpt lat="40.0463141" lon="9.5845612"><ele>312.0</ele><time>2026-03-28T15:30:01.312Z</time></trkpt><trkpt lat="40.046325" lon="9.584442"><ele>312.0</ele><time>2026-03-28T15:30:02.308Z</time></trkpt><trkpt lat="40.046335" lon="9.5843387"><ele>312.0</ele><time>2026-03-28T15:30:03.312Z</time></trkpt><trkpt lat="40.0463566" lon="9.5842544"><ele>312.0</ele><time>2026-03-28T15:30:04.322Z</time></trkpt><trkpt lat="40.0463804" lon="9.5841777"><ele>312.0</ele><time>2026-03-28T15:30:05.311Z</time></trkpt><trkpt lat="40.0464173" lon="9.5840606"><ele>311.8333333333333</ele><time>2026-03-28T15:30:07.305Z</time></trkpt><trkpt lat="40.0464785" lon="9.5840125"><ele>311.6666666666667</ele><time>2026-03-28T15:30:09.333Z</time></trkpt><trkpt lat="40.0466082" lon="9.5839846"><ele>311.5</ele><time>2026-03-28T15:30:11.312Z</time></trkpt><trkpt lat="40.046678" lon="9.5839773"><ele>311.33333333333337</ele><time>2026-03-28T15:30:12.312Z</time></trkpt><trkpt lat="40.0467446" lon="9.583987"><ele>311.1666666666667</ele><time>2026-03-28T15:30:13.31Z</time></trkpt><trkpt lat="40.0468113" lon="9.5839932"><ele>311.0</ele><time>2026-03-28T15:30:14.31Z</time></trkpt><trkpt lat="40.0468774" lon="9.583998"><ele>309.5</ele><time>2026-03-28T15:30:15.334Z</time></trkpt><trkpt lat="40.0469417" lon="9.5840106"><ele>308.0</ele><time>2026-03-28T15:30:16.308Z</time></trkpt><trkpt lat="40.0470139" lon="9.5840543"><ele>306.5</ele><time>2026-03-28T15:30:17.316Z</time></trkpt><trkpt lat="40.0470889" lon="9.5841034"><ele>305.0</ele><time>2026-03-28T15:30:18.311Z</time></trkpt><trkpt lat="40.0471577" lon="9.5841445"><ele>303.5</ele><time>2026-03-28T15:30:19.317Z</time></trkpt><trkpt lat="40.0472592" lon="9.5841784"><ele>302.0</ele><time>2026-03-28T15:30:21.311Z</time></trkpt><trkpt lat="40.0473766" lon="9.5841422"><ele>302.0</ele><time>2026-03-28T15:30:23.31Z</time></trkpt><trkpt lat="40.0474387" lon="9.5841124"><ele>302.0</ele><time>2026-03-28T15:30:24.338Z</time></trkpt><trkpt lat="40.0475073" lon="9.5840671"><ele>302.0</ele><time>2026-03-28T15:30:25.309Z</time></trkpt><trkpt lat="40.0475733" lon="9.5840165"><ele>302.0</ele><time>2026-03-28T15:30:26.306Z</time></trkpt><trkpt lat="40.0476274" lon="9.5839613"><ele>302.0</ele><time>2026-03-28T15:30:27.307Z</time></trkpt><trkpt lat="40.0477084" lon="9.5838609"><ele>302.0</ele><time>2026-03-28T15:30:29.314Z</time></trkpt><trkpt lat="40.0477831" lon="9.5838051"><ele>300.83333333333337</ele><time>2026-03-28T15:30:31.314Z</time></trkpt><trkpt lat="40.0478604" lon="9.5838175"><ele>299.6666666666667</ele><time>2026-03-28T15:30:33.312Z</time></trkpt><trkpt lat="40.0479335" lon="9.5838696"><ele>298.5</ele><time>2026-03-28T15:30:35.312Z</time></trkpt><trkpt lat="40.0480033" lon="9.58391"><ele>297.3333333333333</ele><time>2026-03-28T16:04:56.287Z</time></trkpt><trkpt lat="40.0480998" lon="9.5839612"><ele>296.16666666666663</ele><time>2026-03-28T16:04:58.303Z</time></trkpt><trkpt lat="40.0481974" lon="9.5840017"><ele>295.0</ele><time>2026-03-28T16:05:00.334Z</time></trkpt><trkpt lat="40.0482808" lon="9.5840325"><ele>294.00000000000006</ele><time>2026-03-28T16:05:02.31Z</time></trkpt><trkpt lat="40.0483443" lon="9.5840633"><ele>293.0</ele><time>2026-03-28T16:05:04.317Z</time></trkpt><trkpt lat="40.0484076" lon="9.5840943"><ele>292.0</ele><time>2026-03-28T16:05:06.332Z</time></trkpt><trkpt lat="40.0484705" lon="9.5841354"><ele>291.0</ele><time>2026-03-28T16:05:14.316Z</time></trkpt><trkpt lat="40.0485497" lon="9.5841812"><ele>290.0</ele><time>2026-03-28T16:05:17.311Z</time></trkpt><trkpt lat="40.0486201" lon="9.584209"><ele>289.00000000000006</ele><time>2026-03-28T16:05:19.317Z</time></trkpt><trkpt lat="40.048688" lon="9.5842416"><ele>288.0</ele><time>2026-03-28T16:05:21.314Z</time></trkpt><trkpt lat="40.048761" lon="9.584273"><ele>288.0</ele><time>2026-03-28T16:05:23.319Z</time></trkpt><trkpt lat="40.0488316" lon="9.5842996"><ele>288.0</ele><time>2026-03-28T16:05:25.313Z</time></trkpt><trkpt lat="40.0489152" lon="9.5843202"><ele>288.0</ele><time>2026-03-28T16:05:28.309Z</time></trkpt><trkpt lat="40.0489793" lon="9.5843225"><ele>288.0</ele><time>2026-03-28T16:06:07.279Z</time></trkpt><trkpt lat="40.0490436" lon="9.5843694"><ele>288.0</ele><time>2026-03-28T16:06:09.311Z</time></trkpt><trkpt lat="40.0490991" lon="9.5844741"><ele>288.0</ele><time>2026-03-28T16:06:11.32Z</time></trkpt><trkpt lat="40.0491335" lon="9.5845685"><ele>288.3333333333333</ele><time>2026-03-28T16:06:13.313Z</time></trkpt><trkpt lat="40.0491959" lon="9.5846247"><ele>288.6666666666667</ele><time>2026-03-28T16:06:16.332Z</time></trkpt><trkpt lat="40.0492814" lon="9.5845377"><ele>289.0</ele><time>2026-03-28T16:06:19.311Z</time></trkpt><trkpt lat="40.0493409" lon="9.5844635"><ele>289.33333333333337</ele><time>2026-03-28T16:06:21.308Z</time></trkpt><trkpt lat="40.0494204" lon="9.5844374"><ele>289.6666666666667</ele><time>2026-03-28T16:06:23.312Z</time></trkpt><trkpt lat="40.0495177" lon="9.5844399"><ele>290.0</ele><time>2026-03-28T16:06:25.32Z</time></trkpt><trkpt lat="40.0496201" lon="9.5844451"><ele>290.0</ele><time>2026-03-28T16:06:27.309Z</time></trkpt><trkpt lat="40.0497108" lon="9.5844235"><ele>290.0</ele><time>2026-03-28T16:06:29.306Z</time></trkpt><trkpt lat="40.0497909" lon="9.5843994"><ele>290.0</ele><time>2026-03-28T16:06:31.314Z</time></trkpt><trkpt lat="40.0498775" lon="9.5844098"><ele>290.0</ele><time>2026-03-28T16:06:33.313Z</time></trkpt><trkpt lat="40.0499473" lon="9.5844651"><ele>290.0</ele><time>2026-03-28T16:06:36.315Z</time></trkpt><trkpt lat="40.0499647" lon="9.5845581"><ele>290.0</ele><time>2026-03-28T16:06:42.311Z</time></trkpt><trkpt lat="40.0499246" lon="9.5846259"><ele>287.33333333333337</ele><time>2026-03-28T16:06:45.311Z</time></trkpt><trkpt lat="40.0499234" lon="9.5847186"><ele>284.6666666666667</ele><time>2026-03-28T16:07:14.31Z</time></trkpt><trkpt lat="40.0499704" lon="9.5848365"><ele>282.0</ele><time>2026-03-28T16:07:17.323Z</time></trkpt><trkpt lat="40.0500382" lon="9.5849506"><ele>279.3333333333333</ele><time>2026-03-28T16:07:19.311Z</time></trkpt><trkpt lat="40.0500776" lon="9.5850456"><ele>276.66666666666663</ele><time>2026-03-28T16:07:21.313Z</time></trkpt><trkpt lat="40.0501032" lon="9.585148"><ele>274.0</ele><time>2026-03-28T16:07:23.305Z</time></trkpt><trkpt lat="40.0501418" lon="9.5852666"><ele>272.0</ele><time>2026-03-28T16:07:25.31Z</time></trkpt><trkpt lat="40.0501693" lon="9.585355"><ele>270.0</ele><time>2026-03-28T16:07:27.309Z</time></trkpt><trkpt lat="40.0502124" lon="9.5854593"><ele>268.0</ele><time>2026-03-28T16:07:30.32Z</time></trkpt><trkpt lat="40.0502296" lon="9.5855725"><ele>266.0</ele><time>2026-03-28T16:07:33.303Z</time></trkpt><trkpt lat="40.0502905" lon="9.5856596"><ele>264.0</ele><time>2026-03-28T16:07:36.323Z</time></trkpt><trkpt lat="40.0503618" lon="9.5856783"><ele>262.0</ele><time>2026-03-28T16:07:38.314Z</time></trkpt><trkpt lat="40.0504405" lon="9.5856493"><ele>262.0</ele><time>2026-03-28T16:07:40.308Z</time></trkpt><trkpt lat="40.0505169" lon="9.585606"><ele>262.0</ele><time>2026-03-28T16:07:42.307Z</time></trkpt><trkpt lat="40.0505839" lon="9.5855459"><ele>262.0</ele><time>2026-03-28T16:07:44.314Z</time></trkpt><trkpt lat="40.0506552" lon="9.5854652"><ele>262.0</ele><time>2026-03-28T16:07:46.324Z</time></trkpt><trkpt lat="40.0507354" lon="9.5854252"><ele>262.0</ele><time>2026-03-28T16:07:48.303Z</time></trkpt><trkpt lat="40.0508113" lon="9.5854076"><ele>262.0</ele><time>2026-03-28T16:07:50.303Z</time></trkpt><trkpt lat="40.0508776" lon="9.5854115"><ele>262.0</ele><time>2026-03-28T16:07:52.306Z</time></trkpt><trkpt lat="40.0509412" lon="9.5854352"><ele>262.0</ele><time>2026-03-28T16:07:54.311Z</time></trkpt><trkpt lat="40.051029" lon="9.5854788"><ele>262.0</ele><time>2026-03-28T16:07:56.307Z</time></trkpt><trkpt lat="40.0510904" lon="9.5855138"><ele>262.0</ele><time>2026-03-28T16:07:57.305Z</time></trkpt><trkpt lat="40.0511678" lon="9.5855828"><ele>262.0</ele><time>2026-03-28T16:07:59.308Z</time></trkpt><trkpt lat="40.0512352" lon="9.5856595"><ele>262.0</ele><time>2026-03-28T16:08:01.314Z</time></trkpt><trkpt lat="40.0513133" lon="9.5857276"><ele>262.0</ele><time>2026-03-28T16:08:03.311Z</time></trkpt><trkpt lat="40.0514169" lon="9.5857714"><ele>262.0</ele><time>2026-03-28T16:08:05.307Z</time></trkpt><trkpt lat="40.05148" lon="9.5857907"><ele>262.0</ele><time>2026-03-28T16:08:06.306Z</time></trkpt><trkpt lat="40.0515874" lon="9.5857977"><ele>262.0</ele><time>2026-03-28T16:08:08.313Z</time></trkpt><trkpt lat="40.0516736" lon="9.5857921"><ele>262.0</ele><time>2026-03-28T16:08:10.307Z</time></trkpt><trkpt lat="40.0517532" lon="9.5858568"><ele>262.4</ele><time>2026-03-28T16:08:12.312Z</time></trkpt><trkpt lat="40.0518265" lon="9.5859625"><ele>262.79999999999995</ele><time>2026-03-28T16:08:14.324Z</time></trkpt><trkpt lat="40.0519091" lon="9.5860338"><ele>263.2</ele><time>2026-03-28T16:08:16.309Z</time></trkpt><trkpt lat="40.0519927" lon="9.5860763"><ele>263.59999999999997</ele><time>2026-03-28T16:08:18.308Z</time></trkpt><trkpt lat="40.0520676" lon="9.5861354"><ele>264.0</ele><time>2026-03-28T16:08:20.313Z</time></trkpt><trkpt lat="40.0521493" lon="9.5862086"><ele>262.2</ele><time>2026-03-28T16:08:22.31Z</time></trkpt><trkpt lat="40.0522388" lon="9.5862706"><ele>260.4</ele><time>2026-03-28T16:08:24.313Z</time></trkpt><trkpt lat="40.05235" lon="9.5863054"><ele>258.6</ele><time>2026-03-28T16:08:26.309Z</time></trkpt><trkpt lat="40.0524558" lon="9.5863373"><ele>256.8</ele><time>2026-03-28T16:08:28.327Z</time></trkpt><trkpt lat="40.0525505" lon="9.5863948"><ele>255.0</ele><time>2026-03-28T16:08:30.312Z</time></trkpt><trkpt lat="40.0526441" lon="9.5864508"><ele>255.0</ele><time>2026-03-28T16:08:32.311Z</time></trkpt><trkpt lat="40.0527292" lon="9.5865144"><ele>255.0</ele><time>2026-03-28T16:08:34.315Z</time></trkpt><trkpt lat="40.0528013" lon="9.5865753"><ele>255.0</ele><time>2026-03-28T16:08:36.305Z</time></trkpt><trkpt lat="40.0528794" lon="9.5866379"><ele>255.0</ele><time>2026-03-28T16:08:38.322Z</time></trkpt><trkpt lat="40.0529739" lon="9.5867149"><ele>255.0</ele><time>2026-03-28T16:08:40.314Z</time></trkpt><trkpt lat="40.0530749" lon="9.5867934"><ele>255.0</ele><time>2026-03-28T16:08:42.308Z</time></trkpt><trkpt lat="40.0531818" lon="9.586836"><ele>255.0</ele><time>2026-03-28T16:08:44.313Z</time></trkpt><trkpt lat="40.0533006" lon="9.5868215"><ele>255.0</ele><time>2026-03-28T16:08:46.302Z</time></trkpt><trkpt lat="40.0534136" lon="9.5867815"><ele>255.0</ele><time>2026-03-28T16:08:48.309Z</time></trkpt><trkpt lat="40.0534913" lon="9.5867527"><ele>255.0</ele><time>2026-03-28T16:08:50.304Z</time></trkpt><trkpt lat="40.0535703" lon="9.5867576"><ele>255.2</ele><time>2026-03-28T16:08:52.32Z</time></trkpt><trkpt lat="40.0536452" lon="9.586836"><ele>255.4</ele><time>2026-03-28T16:08:54.327Z</time></trkpt><trkpt lat="40.0536951" lon="9.5868983"><ele>255.60000000000002</ele><time>2026-03-28T16:08:55.313Z</time></trkpt><trkpt lat="40.0537764" lon="9.5870067"><ele>255.8</ele><time>2026-03-28T16:08:57.303Z</time></trkpt><trkpt lat="40.053864" lon="9.5870636"><ele>256.0</ele><time>2026-03-28T16:08:59.308Z</time></trkpt><trkpt lat="40.0539358" lon="9.5870376"><ele>255.99999999999997</ele><time>2026-03-28T16:09:01.31Z</time></trkpt><trkpt lat="40.0539843" lon="9.5869512"><ele>256.0</ele><time>2026-03-28T16:09:03.31Z</time></trkpt><trkpt lat="40.0540544" lon="9.5869011"><ele>256.0</ele><time>2026-03-28T16:09:05.306Z</time></trkpt><trkpt lat="40.0541211" lon="9.5869246"><ele>256.0</ele><time>2026-03-28T16:09:07.306Z</time></trkpt><trkpt lat="40.0541949" lon="9.5870243"><ele>255.99999999999997</ele><time>2026-03-28T16:09:09.306Z</time></trkpt><trkpt lat="40.0542848" lon="9.5870814"><ele>256.0</ele><time>2026-03-28T16:09:11.305Z</time></trkpt><trkpt lat="40.0543862" lon="9.587091"><ele>252.4</ele><time>2026-03-28T16:09:13.313Z</time></trkpt><trkpt lat="40.0544897" lon="9.5870646"><ele>248.8</ele><time>2026-03-28T16:09:15.334Z</time></trkpt><trkpt lat="40.0545961" lon="9.5870416"><ele>245.20000000000002</ele><time>2026-03-28T16:09:17.315Z</time></trkpt><trkpt lat="40.0546795" lon="9.5870568"><ele>241.60000000000002</ele><time>2026-03-28T16:09:19.303Z</time></trkpt><trkpt lat="40.0547717" lon="9.5870682"><ele>238.0</ele><time>2026-03-28T16:09:21.303Z</time></trkpt><trkpt lat="40.0548509" lon="9.5870497"><ele>237.99999999999997</ele><time>2026-03-28T16:09:23.306Z</time></trkpt><trkpt lat="40.0549254" lon="9.5870441"><ele>238.0</ele><time>2026-03-28T16:09:26.313Z</time></trkpt><trkpt lat="40.054957" lon="9.5871271"><ele>238.0</ele><time>2026-03-28T16:09:29.312Z</time></trkpt><trkpt lat="40.0549048" lon="9.5871862"><ele>238.0</ele><time>2026-03-28T16:09:31.32Z</time></trkpt><trkpt lat="40.0548258" lon="9.5872886"><ele>237.99999999999997</ele><time>2026-03-28T16:09:33.307Z</time></trkpt><trkpt lat="40.0547469" lon="9.587366"><ele>238.0</ele><time>2026-03-28T16:09:35.306Z</time></trkpt><trkpt lat="40.0546688" lon="9.587406"><ele>237.99999999999997</ele><time>2026-03-28T16:09:38.313Z</time></trkpt><trkpt lat="40.0546175" lon="9.5874561"><ele>238.0</ele><time>2026-03-28T16:09:41.311Z</time></trkpt><trkpt lat="40.0546524" lon="9.5875348"><ele>238.0</ele><time>2026-03-28T16:09:43.309Z</time></trkpt><trkpt lat="40.0547534" lon="9.587603"><ele>238.0</ele><time>2026-03-28T16:09:45.31Z</time></trkpt><trkpt lat="40.0548789" lon="9.587614"><ele>237.99999999999997</ele><time>2026-03-28T16:09:47.307Z</time></trkpt><trkpt lat="40.0549442" lon="9.5875953"><ele>238.0</ele><time>2026-03-28T16:09:48.304Z</time></trkpt><trkpt lat="40.0550525" lon="9.5875699"><ele>237.83333333333331</ele><time>2026-03-28T16:09:50.311Z</time></trkpt><trkpt lat="40.0551318" lon="9.5875544"><ele>237.66666666666666</ele><time>2026-03-28T16:09:52.312Z</time></trkpt><trkpt lat="40.0551952" lon="9.5875088"><ele>237.5</ele><time>2026-03-28T16:09:54.309Z</time></trkpt><trkpt lat="40.0552269" lon="9.587412"><ele>237.33333333333331</ele><time>2026-03-28T16:09:56.31Z</time></trkpt><trkpt lat="40.0552427" lon="9.5873025"><ele>237.16666666666666</ele><time>2026-03-28T16:09:58.331Z</time></trkpt><trkpt lat="40.0553093" lon="9.5872475"><ele>237.0</ele><time>2026-03-28T16:10:00.309Z</time></trkpt><trkpt lat="40.0553756" lon="9.5872684"><ele>237.0</ele><time>2026-03-28T16:10:02.305Z</time></trkpt><trkpt lat="40.0554571" lon="9.5873285"><ele>237.0</ele><time>2026-03-28T16:10:04.308Z</time></trkpt><trkpt lat="40.0555409" lon="9.5872853"><ele>237.0</ele><time>2026-03-28T16:10:06.311Z</time></trkpt><trkpt lat="40.0556209" lon="9.5872201"><ele>237.0</ele><time>2026-03-28T16:10:08.307Z</time></trkpt><trkpt lat="40.0557013" lon="9.5871977"><ele>237.0</ele><time>2026-03-28T16:10:10.305Z</time></trkpt><trkpt lat="40.0558024" lon="9.5872349"><ele>235.16666666666666</ele><time>2026-03-28T16:10:12.31Z</time></trkpt><trkpt lat="40.0558731" lon="9.5872442"><ele>233.33333333333331</ele><time>2026-03-28T16:10:13.327Z</time></trkpt><trkpt lat="40.0559362" lon="9.5872453"><ele>231.5</ele><time>2026-03-28T16:10:14.308Z</time></trkpt><trkpt lat="40.0560302" lon="9.5872335"><ele>229.66666666666666</ele><time>2026-03-28T16:10:16.302Z</time></trkpt><trkpt lat="40.0561161" lon="9.5872023"><ele>227.83333333333331</ele><time>2026-03-28T16:10:18.332Z</time></trkpt><trkpt lat="40.0561884" lon="9.5871797"><ele>226.0</ele><time>2026-03-28T16:10:20.307Z</time></trkpt><trkpt lat="40.0562766" lon="9.5872229"><ele>226.0</ele><time>2026-03-28T16:10:23.317Z</time></trkpt><trkpt lat="40.0563499" lon="9.5873104"><ele>226.00000000000003</ele><time>2026-03-28T16:10:25.315Z</time></trkpt><trkpt lat="40.0564627" lon="9.5873729"><ele>226.00000000000003</ele><time>2026-03-28T16:10:27.311Z</time></trkpt><trkpt lat="40.0565352" lon="9.5873782"><ele>226.0</ele><time>2026-03-28T16:10:28.309Z</time></trkpt><trkpt lat="40.0566123" lon="9.5873824"><ele>226.0</ele><time>2026-03-28T16:10:29.311Z</time></trkpt><trkpt lat="40.0566933" lon="9.58739"><ele>226.16666666666666</ele><time>2026-03-28T16:10:30.315Z</time></trkpt><trkpt lat="40.0567651" lon="9.5873961"><ele>226.33333333333331</ele><time>2026-03-28T16:10:31.309Z</time></trkpt><trkpt lat="40.0568427" lon="9.5873866"><ele>226.5</ele><time>2026-03-28T16:10:32.305Z</time></trkpt><trkpt lat="40.0569125" lon="9.5873885"><ele>226.66666666666669</ele><time>2026-03-28T16:10:33.323Z</time></trkpt><trkpt lat="40.0570448" lon="9.5873814"><ele>226.83333333333334</ele><time>2026-03-28T16:10:35.311Z</time></trkpt><trkpt lat="40.05712" lon="9.5873754"><ele>227.0</ele><time>2026-03-28T16:10:36.313Z</time></trkpt><trkpt lat="40.0572022" lon="9.587367"><ele>227.0</ele><time>2026-03-28T16:10:37.308Z</time></trkpt><trkpt lat="40.057285" lon="9.5873612"><ele>227.00000000000003</ele><time>2026-03-28T16:10:38.307Z</time></trkpt><trkpt lat="40.0573565" lon="9.5873589"><ele>227.0</ele><time>2026-03-28T16:10:39.304Z</time></trkpt><trkpt lat="40.0574254" lon="9.5873658"><ele>227.0</ele><time>2026-03-28T16:10:40.302Z</time></trkpt><trkpt lat="40.0574996" lon="9.5873727"><ele>227.00000000000003</ele><time>2026-03-28T16:10:41.306Z</time></trkpt><trkpt lat="40.0575745" lon="9.5873847"><ele>227.0</ele><time>2026-03-28T16:10:42.325Z</time></trkpt><trkpt lat="40.0576436" lon="9.5874028"><ele>227.0</ele><time>2026-03-28T16:10:43.302Z</time></trkpt><trkpt lat="40.0577131" lon="9.5874294"><ele>227.57142857142858</ele><time>2026-03-28T16:10:44.302Z</time></trkpt><trkpt lat="40.0577835" lon="9.5874568"><ele>228.14285714285717</ele><time>2026-03-28T16:10:45.302Z</time></trkpt><trkpt lat="40.0578573" lon="9.5874944"><ele>228.71428571428572</ele><time>2026-03-28T16:10:46.312Z</time></trkpt><trkpt lat="40.0579221" lon="9.5875306"><ele>229.28571428571428</ele><time>2026-03-28T16:10:47.302Z</time></trkpt><trkpt lat="40.0579838" lon="9.587573"><ele>229.85714285714286</ele><time>2026-03-28T16:10:48.322Z</time></trkpt><trkpt lat="40.0580505" lon="9.5876136"><ele>230.42857142857144</ele><time>2026-03-28T16:10:49.306Z</time></trkpt><trkpt lat="40.0581162" lon="9.5876513"><ele>231.0</ele><time>2026-03-28T16:10:50.305Z</time></trkpt><trkpt lat="40.0581877" lon="9.5876667"><ele>231.0</ele><time>2026-03-28T16:10:51.312Z</time></trkpt><trkpt lat="40.0582582" lon="9.5876816"><ele>231.00000000000003</ele><time>2026-03-28T16:10:52.312Z</time></trkpt><trkpt lat="40.0583237" lon="9.5876956"><ele>231.00000000000003</ele><time>2026-03-28T16:10:53.327Z</time></trkpt><trkpt lat="40.0583906" lon="9.5877164"><ele>231.0</ele><time>2026-03-28T16:10:54.308Z</time></trkpt><trkpt lat="40.058506" lon="9.5877652"><ele>231.0</ele><time>2026-03-28T16:10:56.302Z</time></trkpt><trkpt lat="40.0586284" lon="9.5878099"><ele>232.0</ele><time>2026-03-28T16:10:58.305Z</time></trkpt><trkpt lat="40.0587432" lon="9.5878186"><ele>233.00000000000003</ele><time>2026-03-28T16:11:00.329Z</time></trkpt><trkpt lat="40.0588289" lon="9.587833"><ele>234.00000000000003</ele><time>2026-03-28T16:11:02.323Z</time></trkpt><trkpt lat="40.058891" lon="9.5878788"><ele>235.0</ele><time>2026-03-28T16:11:04.313Z</time></trkpt><trkpt lat="40.0589504" lon="9.587958"><ele>236.0</ele><time>2026-03-28T16:11:06.31Z</time></trkpt><trkpt lat="40.0590335" lon="9.5880461"><ele>236.00000000000003</ele><time>2026-03-28T16:11:08.321Z</time></trkpt><trkpt lat="40.0590918" lon="9.5880841"><ele>236.0</ele><time>2026-03-28T16:11:09.311Z</time></trkpt><trkpt lat="40.059149" lon="9.5881198"><ele>236.0</ele><time>2026-03-28T16:11:10.323Z</time></trkpt><trkpt lat="40.0592119" lon="9.5881288"><ele>236.0</ele><time>2026-03-28T16:11:11.305Z</time></trkpt><trkpt lat="40.0593288" lon="9.5881679"><ele>236.00000000000003</ele><time>2026-03-28T16:11:13.306Z</time></trkpt><trkpt lat="40.0594363" lon="9.5882329"><ele>236.0</ele><time>2026-03-28T16:11:15.309Z</time></trkpt><trkpt lat="40.0595443" lon="9.5883094"><ele>238.25</ele><time>2026-03-28T16:11:17.307Z</time></trkpt><trkpt lat="40.0596659" lon="9.5883284"><ele>240.5</ele><time>2026-03-28T16:11:19.304Z</time></trkpt><trkpt lat="40.0597877" lon="9.5883442"><ele>242.75</ele><time>2026-03-28T16:11:21.304Z</time></trkpt><trkpt lat="40.059905" lon="9.588361"><ele>245.0</ele><time>2026-03-28T16:11:23.305Z</time></trkpt><trkpt lat="40.0600059" lon="9.5884121"><ele>246.66666666666669</ele><time>2026-03-28T16:11:25.307Z</time></trkpt><trkpt lat="40.0601056" lon="9.5885031"><ele>248.33333333333334</ele><time>2026-03-28T16:11:27.31Z</time></trkpt><trkpt lat="40.0601539" lon="9.5885635"><ele>250.0</ele><time>2026-03-28T16:11:28.309Z</time></trkpt><trkpt lat="40.0602013" lon="9.5886211"><ele>251.66666666666669</ele><time>2026-03-28T16:11:29.312Z</time></trkpt><trkpt lat="40.0602681" lon="9.5886544"><ele>253.33333333333334</ele><time>2026-03-28T16:11:30.306Z</time></trkpt><trkpt lat="40.0603334" lon="9.5886658"><ele>255.0</ele><time>2026-03-28T16:11:31.311Z</time></trkpt><trkpt lat="40.0603973" lon="9.5886648"><ele>255.0</ele><time>2026-03-28T16:11:32.303Z</time></trkpt><trkpt lat="40.0605139" lon="9.588631"><ele>255.0</ele><time>2026-03-28T16:11:34.307Z</time></trkpt><trkpt lat="40.0606126" lon="9.5885753"><ele>255.0</ele><time>2026-03-28T16:11:36.347Z</time></trkpt><trkpt lat="40.0606918" lon="9.5885168"><ele>255.0</ele><time>2026-03-28T16:11:38.305Z</time></trkpt><trkpt lat="40.0607761" lon="9.5884665"><ele>255.0</ele><time>2026-03-28T16:11:40.334Z</time></trkpt><trkpt lat="40.0608436" lon="9.5884482"><ele>255.0</ele><time>2026-03-28T16:11:42.308Z</time></trkpt><trkpt lat="40.0609142" lon="9.5885052"><ele>255.0</ele><time>2026-03-28T16:11:45.305Z</time></trkpt><trkpt lat="40.0609264" lon="9.5885882"><ele>255.0</ele><time>2026-03-28T16:11:47.307Z</time></trkpt><trkpt lat="40.0609044" lon="9.5886886"><ele>255.0</ele><time>2026-03-28T16:11:49.318Z</time></trkpt><trkpt lat="40.0609235" lon="9.5887774"><ele>255.0</ele><time>2026-03-28T16:11:52.306Z</time></trkpt><trkpt lat="40.061013" lon="9.5887867"><ele>255.0</ele><time>2026-03-28T16:11:55.308Z</time></trkpt><trkpt lat="40.0611017" lon="9.5888234"><ele>253.83333333333334</ele><time>2026-03-28T16:11:57.305Z</time></trkpt><trkpt lat="40.0611882" lon="9.5888603"><ele>252.66666666666669</ele><time>2026-03-28T16:11:59.324Z</time></trkpt><trkpt lat="40.061279" lon="9.5888676"><ele>251.5</ele><time>2026-03-28T16:12:01.313Z</time></trkpt><trkpt lat="40.0613494" lon="9.58889"><ele>250.33333333333334</ele><time>2026-03-28T16:12:03.308Z</time></trkpt><trkpt lat="40.0613902" lon="9.5889695"><ele>249.16666666666669</ele><time>2026-03-28T16:12:15.309Z</time></trkpt><trkpt lat="40.0613711" lon="9.5891195"><ele>248.0</ele><time>2026-03-28T16:12:18.307Z</time></trkpt><trkpt lat="40.0613785" lon="9.58928"><ele>248.00000000000003</ele><time>2026-03-28T16:12:20.313Z</time></trkpt><trkpt lat="40.0614211" lon="9.589363"><ele>248.0</ele><time>2026-03-28T16:12:21.316Z</time></trkpt><trkpt lat="40.0614812" lon="9.5894465"><ele>248.0</ele><time>2026-03-28T16:12:22.307Z</time></trkpt><trkpt lat="40.0615493" lon="9.5895247"><ele>248.0</ele><time>2026-03-28T16:12:23.308Z</time></trkpt><trkpt lat="40.061609" lon="9.5895899"><ele>248.00000000000003</ele><time>2026-03-28T16:12:24.315Z</time></trkpt><trkpt lat="40.0616605" lon="9.5896417"><ele>248.0</ele><time>2026-03-28T16:12:25.308Z</time></trkpt><trkpt lat="40.0617648" lon="9.5896699"><ele>248.50000000000003</ele><time>2026-03-28T16:12:27.303Z</time></trkpt><trkpt lat="40.0618426" lon="9.5896552"><ele>249.0</ele><time>2026-03-28T16:12:29.328Z</time></trkpt><trkpt lat="40.0619181" lon="9.5896256"><ele>249.5</ele><time>2026-03-28T16:12:31.317Z</time></trkpt><trkpt lat="40.0620009" lon="9.589588"><ele>250.0</ele><time>2026-03-28T16:12:33.308Z</time></trkpt><trkpt lat="40.0620798" lon="9.5895774"><ele>250.50000000000003</ele><time>2026-03-28T16:12:35.316Z</time></trkpt><trkpt lat="40.0621614" lon="9.5896188"><ele>251.0</ele><time>2026-03-28T16:12:37.333Z</time></trkpt><trkpt lat="40.0622746" lon="9.5896442"><ele>250.99999999999997</ele><time>2026-03-28T16:12:39.302Z</time></trkpt><trkpt lat="40.0623385" lon="9.589625"><ele>251.0</ele><time>2026-03-28T16:12:40.311Z</time></trkpt><trkpt lat="40.0624032" lon="9.589604"><ele>250.99999999999997</ele><time>2026-03-28T16:12:41.309Z</time></trkpt><trkpt lat="40.062465" lon="9.5895547"><ele>250.99999999999997</ele><time>2026-03-28T16:12:42.319Z</time></trkpt><trkpt lat="40.0625269" lon="9.5894929"><ele>251.0</ele><time>2026-03-28T16:12:43.302Z</time></trkpt><trkpt lat="40.0625891" lon="9.5894359"><ele>250.99999999999997</ele><time>2026-03-28T16:12:44.336Z</time></trkpt><trkpt lat="40.0626461" lon="9.5893896"><ele>250.99999999999997</ele><time>2026-03-28T16:12:45.308Z</time></trkpt><trkpt lat="40.0627228" lon="9.5893737"><ele>251.8</ele><time>2026-03-28T16:12:47.312Z</time></trkpt><trkpt lat="40.0628008" lon="9.5894225"><ele>252.60000000000002</ele><time>2026-03-28T16:12:49.311Z</time></trkpt><trkpt lat="40.0628637" lon="9.5895369"><ele>253.4</ele><time>2026-03-28T16:12:51.31Z</time></trkpt><trkpt lat="40.0629196" lon="9.5896357"><ele>254.2</ele><time>2026-03-28T16:12:53.306Z</time></trkpt><trkpt lat="40.062956" lon="9.5897326"><ele>255.0</ele><time>2026-03-28T16:12:55.308Z</time></trkpt><trkpt lat="40.0630555" lon="9.5897813"><ele>255.0</ele><time>2026-03-28T16:12:57.307Z</time></trkpt><trkpt lat="40.0631211" lon="9.5897701"><ele>255.0</ele><time>2026-03-28T16:12:58.335Z</time></trkpt><trkpt lat="40.0632034" lon="9.5897392"><ele>255.0</ele><time>2026-03-28T16:12:59.31Z</time></trkpt><trkpt lat="40.0632844" lon="9.5897073"><ele>255.0</ele><time>2026-03-28T16:13:00.306Z</time></trkpt><trkpt lat="40.0633642" lon="9.5896848"><ele>255.0</ele><time>2026-03-28T16:13:01.305Z</time></trkpt><trkpt lat="40.0634372" lon="9.5896742"><ele>255.0</ele><time>2026-03-28T16:13:02.304Z</time></trkpt><trkpt lat="40.0635126" lon="9.5896624"><ele>257.0</ele><time>2026-03-28T16:13:03.303Z</time></trkpt><trkpt lat="40.0636045" lon="9.5896432"><ele>259.0</ele><time>2026-03-28T16:13:04.309Z</time></trkpt><trkpt lat="40.0637037" lon="9.5896221"><ele>261.0</ele><time>2026-03-28T16:13:05.321Z</time></trkpt><trkpt lat="40.0638067" lon="9.5895955"><ele>263.0</ele><time>2026-03-28T16:13:06.305Z</time></trkpt><trkpt lat="40.0639122" lon="9.5895496"><ele>265.0</ele><time>2026-03-28T16:13:07.308Z</time></trkpt><trkpt lat="40.0640074" lon="9.5895101"><ele>266.8333333333333</ele><time>2026-03-28T16:13:08.306Z</time></trkpt><trkpt lat="40.0641008" lon="9.5894745"><ele>268.66666666666663</ele><time>2026-03-28T16:13:09.307Z</time></trkpt><trkpt lat="40.0641984" lon="9.5894396"><ele>270.5</ele><time>2026-03-28T16:13:10.307Z</time></trkpt><trkpt lat="40.0642725" lon="9.589408"><ele>272.3333333333333</ele><time>2026-03-28T16:13:11.315Z</time></trkpt><trkpt lat="40.0643408" lon="9.5893779"><ele>274.1666666666667</ele><time>2026-03-28T16:13:12.303Z</time></trkpt><trkpt lat="40.0644235" lon="9.5893509"><ele>276.0</ele><time>2026-03-28T16:13:14.307Z</time></trkpt><trkpt lat="40.0644857" lon="9.589431"><ele>276.8333333333333</ele><time>2026-03-28T16:13:17.31Z</time></trkpt><trkpt lat="40.0644562" lon="9.5895502"><ele>277.6666666666667</ele><time>2026-03-28T16:13:19.307Z</time></trkpt><trkpt lat="40.0644252" lon="9.5896269"><ele>278.5</ele><time>2026-03-28T16:13:20.322Z</time></trkpt><trkpt lat="40.0643795" lon="9.5897208"><ele>279.33333333333337</ele><time>2026-03-28T16:13:21.316Z</time></trkpt><trkpt lat="40.0643297" lon="9.5898314"><ele>280.1666666666667</ele><time>2026-03-28T16:13:22.312Z</time></trkpt><trkpt lat="40.0643047" lon="9.5899396"><ele>281.0</ele><time>2026-03-28T16:13:23.312Z</time></trkpt><trkpt lat="40.0642828" lon="9.5900442"><ele>281.0</ele><time>2026-03-28T16:13:24.308Z</time></trkpt><trkpt lat="40.0642847" lon="9.5901483"><ele>281.0</ele><time>2026-03-28T16:13:25.321Z</time></trkpt><trkpt lat="40.0643069" lon="9.5902466"><ele>281.0</ele><time>2026-03-28T16:13:26.304Z</time></trkpt><trkpt lat="40.0643443" lon="9.5903224"><ele>281.0</ele><time>2026-03-28T16:13:27.304Z</time></trkpt><trkpt lat="40.0644448" lon="9.5904111"><ele>281.0</ele><time>2026-03-28T16:13:29.309Z</time></trkpt><trkpt lat="40.0645406" lon="9.5904036"><ele>281.0</ele><time>2026-03-28T16:13:31.306Z</time></trkpt><trkpt lat="40.0646122" lon="9.5903343"><ele>281.0</ele><time>2026-03-28T16:13:33.319Z</time></trkpt><trkpt lat="40.064686" lon="9.590174"><ele>281.0</ele><time>2026-03-28T16:13:35.306Z</time></trkpt><trkpt lat="40.064739" lon="9.5901032"><ele>281.0</ele><time>2026-03-28T16:13:36.303Z</time></trkpt><trkpt lat="40.064799" lon="9.5900515"><ele>281.0</ele><time>2026-03-28T16:13:37.312Z</time></trkpt><trkpt lat="40.0648512" lon="9.5900035"><ele>281.0</ele><time>2026-03-28T16:13:38.311Z</time></trkpt><trkpt lat="40.0649321" lon="9.5898996"><ele>281.0</ele><time>2026-03-28T16:13:40.311Z</time></trkpt><trkpt lat="40.0649392" lon="9.5897794"><ele>281.0</ele><time>2026-03-28T16:13:42.311Z</time></trkpt><trkpt lat="40.0649529" lon="9.5896772"><ele>281.0</ele><time>2026-03-28T16:13:44.304Z</time></trkpt><trkpt lat="40.0650236" lon="9.5895895"><ele>281.0</ele><time>2026-03-28T16:13:46.32Z</time></trkpt><trkpt lat="40.0650834" lon="9.5895504"><ele>281.0</ele><time>2026-03-28T16:13:47.307Z</time></trkpt><trkpt lat="40.0651495" lon="9.5894993"><ele>281.0</ele><time>2026-03-28T16:13:48.319Z</time></trkpt><trkpt lat="40.0652124" lon="9.5894238"><ele>283.0</ele><time>2026-03-28T16:13:49.309Z</time></trkpt><trkpt lat="40.0652661" lon="9.589338"><ele>285.0</ele><time>2026-03-28T16:13:50.317Z</time></trkpt><trkpt lat="40.0653192" lon="9.5892518"><ele>287.0</ele><time>2026-03-28T16:13:51.303Z</time></trkpt><trkpt lat="40.065362" lon="9.5891617"><ele>289.0</ele><time>2026-03-28T16:13:52.311Z</time></trkpt><trkpt lat="40.065409" lon="9.5890794"><ele>291.0</ele><time>2026-03-28T16:13:53.302Z</time></trkpt><trkpt lat="40.0654568" lon="9.5890112"><ele>293.0</ele><time>2026-03-28T16:13:54.31Z</time></trkpt><trkpt lat="40.0655041" lon="9.588952"><ele>293.0</ele><time>2026-03-28T16:13:55.307Z</time></trkpt><trkpt lat="40.065602" lon="9.5888403"><ele>293.0</ele><time>2026-03-28T16:13:57.309Z</time></trkpt><trkpt lat="40.0656621" lon="9.5887958"><ele>293.0</ele><time>2026-03-28T16:13:58.328Z</time></trkpt><trkpt lat="40.0657338" lon="9.5887743"><ele>293.0</ele><time>2026-03-28T16:13:59.305Z</time></trkpt><trkpt lat="40.0658227" lon="9.5887626"><ele>293.0</ele><time>2026-03-28T16:14:00.323Z</time></trkpt><trkpt lat="40.0659154" lon="9.588756"><ele>296.6</ele><time>2026-03-28T16:14:01.309Z</time></trkpt><trkpt lat="40.0660157" lon="9.588769"><ele>300.20000000000005</ele><time>2026-03-28T16:14:02.307Z</time></trkpt><trkpt lat="40.0661159" lon="9.5887764"><ele>303.8</ele><time>2026-03-28T16:14:03.307Z</time></trkpt><trkpt lat="40.0661942" lon="9.5887839"><ele>307.40000000000003</ele><time>2026-03-28T16:14:04.308Z</time></trkpt><trkpt lat="40.0663045" lon="9.5887799"><ele>311.0</ele><time>2026-03-28T16:14:06.306Z</time></trkpt><trkpt lat="40.0663727" lon="9.58874"><ele>310.40000000000003</ele><time>2026-03-28T16:14:08.308Z</time></trkpt><trkpt lat="40.0664352" lon="9.5886329"><ele>309.8</ele><time>2026-03-28T16:14:10.307Z</time></trkpt><trkpt lat="40.0665081" lon="9.5885691"><ele>309.20000000000005</ele><time>2026-03-28T16:14:12.31Z</time></trkpt><trkpt lat="40.0665836" lon="9.5885764"><ele>308.6</ele><time>2026-03-28T16:14:14.314Z</time></trkpt><trkpt lat="40.0666802" lon="9.588625"><ele>308.0</ele><time>2026-03-28T16:14:16.303Z</time></trkpt><trkpt lat="40.0667812" lon="9.5886087"><ele>308.0</ele><time>2026-03-28T16:14:18.314Z</time></trkpt><trkpt lat="40.0668684" lon="9.5885251"><ele>308.0</ele><time>2026-03-28T16:14:20.312Z</time></trkpt><trkpt lat="40.0669306" lon="9.588483"><ele>308.0</ele><time>2026-03-28T16:14:21.309Z</time></trkpt><trkpt lat="40.0669974" lon="9.5884711"><ele>308.0</ele><time>2026-03-28T16:14:22.311Z</time></trkpt><trkpt lat="40.067123" lon="9.5884554"><ele>308.0</ele><time>2026-03-28T16:14:24.31Z</time></trkpt><trkpt lat="40.0671897" lon="9.5884523"><ele>308.0</ele><time>2026-03-28T16:14:25.302Z</time></trkpt><trkpt lat="40.0673157" lon="9.5884823"><ele>308.0</ele><time>2026-03-28T16:14:27.299Z</time></trkpt><trkpt lat="40.0673899" lon="9.5884976"><ele>308.0</ele><time>2026-03-28T16:14:28.306Z</time></trkpt><trkpt lat="40.067469" lon="9.5885054"><ele>308.0</ele><time>2026-03-28T16:14:29.305Z</time></trkpt><trkpt lat="40.0675419" lon="9.5885106"><ele>308.0</ele><time>2026-03-28T16:14:30.307Z</time></trkpt><trkpt lat="40.0676175" lon="9.5884971"><ele>308.0</ele><time>2026-03-28T16:14:31.305Z</time></trkpt><trkpt lat="40.06769" lon="9.5884732"><ele>308.0</ele><time>2026-03-28T16:14:32.306Z</time></trkpt><trkpt lat="40.0677667" lon="9.5884511"><ele>309.5</ele><time>2026-03-28T16:14:33.305Z</time></trkpt><trkpt lat="40.0678498" lon="9.588434"><ele>311.0</ele><time>2026-03-28T16:14:34.303Z</time></trkpt><trkpt lat="40.0679375" lon="9.5884168"><ele>312.5</ele><time>2026-03-28T16:14:35.313Z</time></trkpt><trkpt lat="40.0680258" lon="9.588403"><ele>314.0</ele><time>2026-03-28T16:14:36.307Z</time></trkpt><trkpt lat="40.0681102" lon="9.5883897"><ele>315.5</ele><time>2026-03-28T16:14:37.305Z</time></trkpt><trkpt lat="40.0681991" lon="9.588371"><ele>317.0</ele><time>2026-03-28T16:14:38.316Z</time></trkpt><trkpt lat="40.0682822" lon="9.5883544"><ele>318.1666666666667</ele><time>2026-03-28T16:14:39.312Z</time></trkpt><trkpt lat="40.0683616" lon="9.5883388"><ele>319.33333333333337</ele><time>2026-03-28T16:14:40.307Z</time></trkpt><trkpt lat="40.0684484" lon="9.5883164"><ele>320.5</ele><time>2026-03-28T16:14:41.302Z</time></trkpt><trkpt lat="40.0685264" lon="9.5882962"><ele>321.6666666666667</ele><time>2026-03-28T16:14:42.311Z</time></trkpt><trkpt lat="40.0685918" lon="9.5882799"><ele>322.8333333333333</ele><time>2026-03-28T16:14:43.307Z</time></trkpt><trkpt lat="40.0686743" lon="9.5882338"><ele>324.0</ele><time>2026-03-28T16:14:45.312Z</time></trkpt><trkpt lat="40.0687627" lon="9.5881735"><ele>324.0</ele><time>2026-03-28T16:14:47.312Z</time></trkpt><trkpt lat="40.068864" lon="9.5881191"><ele>324.0</ele><time>2026-03-28T16:14:49.313Z</time></trkpt><trkpt lat="40.0689472" lon="9.5881137"><ele>324.0</ele><time>2026-03-28T16:14:51.303Z</time></trkpt><trkpt lat="40.0690433" lon="9.5881076"><ele>324.0</ele><time>2026-03-28T16:14:53.323Z</time></trkpt><trkpt lat="40.0691454" lon="9.5881146"><ele>324.0</ele><time>2026-03-28T16:14:55.303Z</time></trkpt><trkpt lat="40.069211" lon="9.58813"><ele>324.3333333333333</ele><time>2026-03-28T16:14:56.303Z</time></trkpt><trkpt lat="40.0692776" lon="9.5881438"><ele>324.6666666666667</ele><time>2026-03-28T16:14:57.309Z</time></trkpt><trkpt lat="40.0693955" lon="9.5881771"><ele>325.0</ele><time>2026-03-28T16:14:59.306Z</time></trkpt><trkpt lat="40.0694556" lon="9.588202"><ele>325.33333333333337</ele><time>2026-03-28T16:15:00.31Z</time></trkpt><trkpt lat="40.0695226" lon="9.5882191"><ele>325.6666666666667</ele><time>2026-03-28T16:15:01.305Z</time></trkpt><trkpt lat="40.0695895" lon="9.588227"><ele>326.0</ele><time>2026-03-28T16:15:02.314Z</time></trkpt><trkpt lat="40.0696545" lon="9.5882332"><ele>326.0</ele><time>2026-03-28T16:15:03.306Z</time></trkpt><trkpt lat="40.0697673" lon="9.5882412"><ele>326.0</ele><time>2026-03-28T16:15:05.305Z</time></trkpt><trkpt lat="40.0699051" lon="9.5882403"><ele>326.0</ele><time>2026-03-28T16:15:07.314Z</time></trkpt><trkpt lat="40.0699776" lon="9.5882387"><ele>326.0</ele><time>2026-03-28T16:15:08.309Z</time></trkpt><trkpt lat="40.0700968" lon="9.5882246"><ele>326.0</ele><time>2026-03-28T16:15:10.311Z</time></trkpt><trkpt lat="40.0702012" lon="9.5882293"><ele>325.20000000000005</ele><time>2026-03-28T16:15:12.304Z</time></trkpt><trkpt lat="40.0703243" lon="9.5882736"><ele>324.40000000000003</ele><time>2026-03-28T16:15:14.303Z</time></trkpt><trkpt lat="40.0703835" lon="9.5883044"><ele>323.6</ele><time>2026-03-28T16:15:15.332Z</time></trkpt><trkpt lat="40.070492" lon="9.5883439"><ele>322.8</ele><time>2026-03-28T16:15:17.308Z</time></trkpt><trkpt lat="40.0706236" lon="9.5883812"><ele>322.0</ele><time>2026-03-28T16:15:19.307Z</time></trkpt><trkpt lat="40.0707048" lon="9.5884035"><ele>322.14285714285717</ele><time>2026-03-28T16:15:20.303Z</time></trkpt><trkpt lat="40.0707779" lon="9.588413"><ele>322.2857142857143</ele><time>2026-03-28T16:15:21.308Z</time></trkpt><trkpt lat="40.0708531" lon="9.5884093"><ele>322.42857142857144</ele><time>2026-03-28T16:15:22.31Z</time></trkpt><trkpt lat="40.0709276" lon="9.5883958"><ele>322.57142857142856</ele><time>2026-03-28T16:15:23.295Z</time></trkpt><trkpt lat="40.0710012" lon="9.5883748"><ele>322.7142857142857</ele><time>2026-03-28T16:15:24.34Z</time></trkpt><trkpt lat="40.0710717" lon="9.5883486"><ele>322.8571428571429</ele><time>2026-03-28T16:15:25.301Z</time></trkpt><trkpt lat="40.0711346" lon="9.5883238"><ele>323.0</ele><time>2026-03-28T16:15:26.31Z</time></trkpt><trkpt lat="40.0712404" lon="9.5882773"><ele>323.0</ele><time>2026-03-28T16:15:28.303Z</time></trkpt><trkpt lat="40.0713392" lon="9.5882176"><ele>323.0</ele><time>2026-03-28T16:15:30.307Z</time></trkpt><trkpt lat="40.0714264" lon="9.588143"><ele>323.0</ele><time>2026-03-28T16:15:32.309Z</time></trkpt><trkpt lat="40.0715055" lon="9.5880791"><ele>323.0</ele><time>2026-03-28T16:15:34.307Z</time></trkpt><trkpt lat="40.071567" lon="9.5880113"><ele>323.0</ele><time>2026-03-28T16:15:36.307Z</time></trkpt><trkpt lat="40.0716359" lon="9.5879392"><ele>321.5</ele><time>2026-03-28T16:15:38.319Z</time></trkpt><trkpt lat="40.0716895" lon="9.5878909"><ele>320.0</ele><time>2026-03-28T16:15:40.327Z</time></trkpt><trkpt lat="40.0717571" lon="9.5878863"><ele>318.5</ele><time>2026-03-28T16:15:44.315Z</time></trkpt><trkpt lat="40.071818" lon="9.5879505"><ele>317.0</ele><time>2026-03-28T16:15:48.304Z</time></trkpt><trkpt lat="40.0718526" lon="9.588043"><ele>315.5</ele><time>2026-03-28T16:15:50.308Z</time></trkpt><trkpt lat="40.0718983" lon="9.588153"><ele>314.0</ele><time>2026-03-28T16:15:52.302Z</time></trkpt><trkpt lat="40.0719402" lon="9.5882447"><ele>314.0</ele><time>2026-03-28T16:15:53.308Z</time></trkpt><trkpt lat="40.0719811" lon="9.5883244"><ele>314.0</ele><time>2026-03-28T16:15:54.306Z</time></trkpt><trkpt lat="40.0720278" lon="9.5884158"><ele>314.0</ele><time>2026-03-28T16:15:55.304Z</time></trkpt><trkpt lat="40.0720812" lon="9.5885069"><ele>314.0</ele><time>2026-03-28T16:15:56.328Z</time></trkpt><trkpt lat="40.0721317" lon="9.5885901"><ele>314.0</ele><time>2026-03-28T16:15:57.312Z</time></trkpt><trkpt lat="40.0721738" lon="9.5886571"><ele>314.0</ele><time>2026-03-28T16:15:58.302Z</time></trkpt><trkpt lat="40.0722504" lon="9.5887656"><ele>311.8</ele><time>2026-03-28T16:16:00.305Z</time></trkpt><trkpt lat="40.072348" lon="9.5888728"><ele>309.59999999999997</ele><time>2026-03-28T16:16:02.304Z</time></trkpt><trkpt lat="40.0723965" lon="9.5889285"><ele>307.4</ele><time>2026-03-28T16:16:03.31Z</time></trkpt><trkpt lat="40.0724936" lon="9.5890235"><ele>305.2</ele><time>2026-03-28T16:16:05.302Z</time></trkpt><trkpt lat="40.0726092" lon="9.5890901"><ele>303.0</ele><time>2026-03-28T16:16:07.302Z</time></trkpt><trkpt lat="40.0727194" lon="9.5891533"><ele>303.0</ele><time>2026-03-28T16:16:09.317Z</time></trkpt><trkpt lat="40.072785" lon="9.5892102"><ele>303.0</ele><time>2026-03-28T16:16:11.344Z</time></trkpt><trkpt lat="40.0728118" lon="9.5892986"><ele>303.0</ele><time>2026-03-28T16:16:13.317Z</time></trkpt><trkpt lat="40.0727996" lon="9.589395"><ele>303.0</ele><time>2026-03-28T16:16:15.31Z</time></trkpt><trkpt lat="40.0727646" lon="9.5895448"><ele>303.0</ele><time>2026-03-28T16:16:17.304Z</time></trkpt><trkpt lat="40.072748" lon="9.5896454"><ele>303.0</ele><time>2026-03-28T16:16:18.317Z</time></trkpt><trkpt lat="40.0727389" lon="9.5897377"><ele>301.2857142857143</ele><time>2026-03-28T16:16:19.316Z</time></trkpt><trkpt lat="40.0727287" lon="9.5898267"><ele>299.57142857142856</ele><time>2026-03-28T16:16:20.304Z</time></trkpt><trkpt lat="40.0727327" lon="9.5899099"><ele>297.85714285714283</ele><time>2026-03-28T16:16:21.307Z</time></trkpt><trkpt lat="40.0727424" lon="9.5899994"><ele>296.1428571428571</ele><time>2026-03-28T16:16:22.307Z</time></trkpt><trkpt lat="40.0727625" lon="9.5900918"><ele>294.4285714285714</ele><time>2026-03-28T16:16:23.338Z</time></trkpt><trkpt lat="40.0727916" lon="9.5901844"><ele>292.7142857142857</ele><time>2026-03-28T16:16:24.308Z</time></trkpt><trkpt lat="40.0728235" lon="9.5902797"><ele>291.0</ele><time>2026-03-28T16:16:25.307Z</time></trkpt><trkpt lat="40.0728618" lon="9.5903466"><ele>291.0</ele><time>2026-03-28T16:16:26.306Z</time></trkpt><trkpt lat="40.0729727" lon="9.590433"><ele>291.0</ele><time>2026-03-28T16:16:28.306Z</time></trkpt><trkpt lat="40.0730497" lon="9.5904598"><ele>291.0</ele><time>2026-03-28T16:16:29.314Z</time></trkpt><trkpt lat="40.0731296" lon="9.5904802"><ele>291.0</ele><time>2026-03-28T16:16:30.303Z</time></trkpt><trkpt lat="40.0731983" lon="9.5904996"><ele>291.0</ele><time>2026-03-28T16:16:31.328Z</time></trkpt><trkpt lat="40.0732607" lon="9.590518"><ele>291.0</ele><time>2026-03-28T16:16:32.308Z</time></trkpt><trkpt lat="40.0733567" lon="9.5904941"><ele>291.0</ele><time>2026-03-28T16:16:34.312Z</time></trkpt><trkpt lat="40.0734329" lon="9.5904332"><ele>291.0</ele><time>2026-03-28T16:16:36.31Z</time></trkpt><trkpt lat="40.0735126" lon="9.5903749"><ele>291.0</ele><time>2026-03-28T16:16:38.307Z</time></trkpt><trkpt lat="40.0736298" lon="9.5903306"><ele>291.0</ele><time>2026-03-28T16:16:40.312Z</time></trkpt><trkpt lat="40.0737088" lon="9.5903124"><ele>291.0</ele><time>2026-03-28T16:16:41.305Z</time></trkpt><trkpt lat="40.073799" lon="9.5902979"><ele>293.3333333333333</ele><time>2026-03-28T16:16:42.315Z</time></trkpt><trkpt lat="40.0738884" lon="9.5903002"><ele>295.6666666666667</ele><time>2026-03-28T16:16:43.313Z</time></trkpt><trkpt lat="40.0739659" lon="9.5902995"><ele>298.0</ele><time>2026-03-28T16:16:44.333Z</time></trkpt><trkpt lat="40.0740408" lon="9.5902966"><ele>300.33333333333337</ele><time>2026-03-28T16:16:45.306Z</time></trkpt><trkpt lat="40.0741156" lon="9.5902916"><ele>302.6666666666667</ele><time>2026-03-28T16:16:46.311Z</time></trkpt><trkpt lat="40.0741799" lon="9.5902837"><ele>305.0</ele><time>2026-03-28T16:16:47.309Z</time></trkpt><trkpt lat="40.0742849" lon="9.5902652"><ele>305.0</ele><time>2026-03-28T16:16:49.31Z</time></trkpt><trkpt lat="40.074348" lon="9.5902576"><ele>305.0</ele><time>2026-03-28T16:16:50.308Z</time></trkpt><trkpt lat="40.0744151" lon="9.5902461"><ele>305.0</ele><time>2026-03-28T16:16:51.329Z</time></trkpt><trkpt lat="40.0744833" lon="9.5902351"><ele>305.0</ele><time>2026-03-28T16:16:52.306Z</time></trkpt><trkpt lat="40.0745533" lon="9.5902287"><ele>305.0</ele><time>2026-03-28T16:16:53.316Z</time></trkpt><trkpt lat="40.0746256" lon="9.5902185"><ele>305.0</ele><time>2026-03-28T16:16:54.304Z</time></trkpt><trkpt lat="40.0746997" lon="9.5902122"><ele>305.0</ele><time>2026-03-28T16:16:55.31Z</time></trkpt><trkpt lat="40.0747715" lon="9.5902047"><ele>305.0</ele><time>2026-03-28T16:16:56.311Z</time></trkpt><trkpt lat="40.0748434" lon="9.590194"><ele>305.0</ele><time>2026-03-28T16:16:57.309Z</time></trkpt><trkpt lat="40.0749112" lon="9.5901782"><ele>305.0</ele><time>2026-03-28T16:16:58.312Z</time></trkpt><trkpt lat="40.0750287" lon="9.5901176"><ele>305.0</ele><time>2026-03-28T16:17:00.32Z</time></trkpt><trkpt lat="40.0750975" lon="9.5900666"><ele>305.0</ele><time>2026-03-28T16:17:01.308Z</time></trkpt><trkpt lat="40.0751691" lon="9.5900104"><ele>305.0</ele><time>2026-03-28T16:17:02.328Z</time></trkpt><trkpt lat="40.0752379" lon="9.5899491"><ele>304.6666666666667</ele><time>2026-03-28T16:17:03.307Z</time></trkpt><trkpt lat="40.0753073" lon="9.5898855"><ele>304.33333333333337</ele><time>2026-03-28T16:17:04.311Z</time></trkpt><trkpt lat="40.0753695" lon="9.5898306"><ele>304.0</ele><time>2026-03-28T16:17:05.31Z</time></trkpt><trkpt lat="40.0754225" lon="9.5897848"><ele>303.6666666666667</ele><time>2026-03-28T16:17:06.308Z</time></trkpt><trkpt lat="40.0755175" lon="9.589732"><ele>303.3333333333333</ele><time>2026-03-28T16:17:08.31Z</time></trkpt><trkpt lat="40.0755987" lon="9.5896549"><ele>303.0</ele><time>2026-03-28T16:17:10.31Z</time></trkpt><trkpt lat="40.0756688" lon="9.5895515"><ele>303.8</ele><time>2026-03-28T16:17:12.31Z</time></trkpt><trkpt lat="40.075713" lon="9.589447"><ele>304.6</ele><time>2026-03-28T16:17:14.326Z</time></trkpt><trkpt lat="40.0757578" lon="9.5893492"><ele>305.4</ele><time>2026-03-28T16:17:16.304Z</time></trkpt><trkpt lat="40.0758292" lon="9.5892969"><ele>306.2</ele><time>2026-03-28T16:17:18.314Z</time></trkpt><trkpt lat="40.0759367" lon="9.5892799"><ele>307.0</ele><time>2026-03-28T16:17:20.317Z</time></trkpt><trkpt lat="40.0760368" lon="9.5892644"><ele>307.0</ele><time>2026-03-28T16:17:22.304Z</time></trkpt><trkpt lat="40.0761416" lon="9.5892603"><ele>307.0</ele><time>2026-03-28T16:17:24.311Z</time></trkpt><trkpt lat="40.0762666" lon="9.5892775"><ele>307.0</ele><time>2026-03-28T16:17:26.317Z</time></trkpt><trkpt lat="40.0763411" lon="9.5893115"><ele>307.0</ele><time>2026-03-28T16:17:27.309Z</time></trkpt><trkpt lat="40.0764075" lon="9.5893485"><ele>307.0</ele><time>2026-03-28T16:17:28.312Z</time></trkpt><trkpt lat="40.0764774" lon="9.5893897"><ele>306.99999999999994</ele><time>2026-03-28T16:17:29.31Z</time></trkpt><trkpt lat="40.0765452" lon="9.5894312"><ele>307.0</ele><time>2026-03-28T16:17:30.309Z</time></trkpt><trkpt lat="40.0766249" lon="9.5894411"><ele>307.0</ele><time>2026-03-28T16:17:31.314Z</time></trkpt><trkpt lat="40.0766903" lon="9.5894466"><ele>307.0</ele><time>2026-03-28T16:17:32.307Z</time></trkpt><trkpt lat="40.0767566" lon="9.5894524"><ele>307.0</ele><time>2026-03-28T16:17:33.312Z</time></trkpt><trkpt lat="40.0768292" lon="9.5894535"><ele>306.99999999999994</ele><time>2026-03-28T16:17:34.306Z</time></trkpt><trkpt lat="40.0769002" lon="9.5894534"><ele>307.0</ele><time>2026-03-28T16:17:35.34Z</time></trkpt><trkpt lat="40.0769748" lon="9.5894466"><ele>309.0</ele><time>2026-03-28T16:17:36.304Z</time></trkpt><trkpt lat="40.0770759" lon="9.5893664"><ele>311.0</ele><time>2026-03-28T16:17:38.314Z</time></trkpt><trkpt lat="40.077156" lon="9.5893082"><ele>313.0</ele><time>2026-03-28T16:17:39.308Z</time></trkpt><trkpt lat="40.0772436" lon="9.5892377"><ele>315.0</ele><time>2026-03-28T16:17:40.332Z</time></trkpt><trkpt lat="40.077316" lon="9.58917"><ele>317.0</ele><time>2026-03-28T16:17:41.31Z</time></trkpt><trkpt lat="40.0773832" lon="9.5891069"><ele>318.8</ele><time>2026-03-28T16:17:42.31Z</time></trkpt><trkpt lat="40.0774603" lon="9.5890503"><ele>320.6</ele><time>2026-03-28T16:17:43.312Z</time></trkpt><trkpt lat="40.0775437" lon="9.5890105"><ele>322.40000000000003</ele><time>2026-03-28T16:17:44.309Z</time></trkpt><trkpt lat="40.0776433" lon="9.5889756"><ele>324.2</ele><time>2026-03-28T16:17:45.314Z</time></trkpt><trkpt lat="40.0777346" lon="9.588951"><ele>326.0</ele><time>2026-03-28T16:17:46.309Z</time></trkpt><trkpt lat="40.0778131" lon="9.5889325"><ele>326.0</ele><time>2026-03-28T16:17:47.326Z</time></trkpt><trkpt lat="40.0778889" lon="9.5889173"><ele>326.0</ele><time>2026-03-28T16:17:48.308Z</time></trkpt><trkpt lat="40.0780216" lon="9.5889213"><ele>326.0</ele><time>2026-03-28T16:17:50.309Z</time></trkpt><trkpt lat="40.078108" lon="9.5889585"><ele>326.0</ele><time>2026-03-28T16:17:51.31Z</time></trkpt><trkpt lat="40.0782042" lon="9.5889797"><ele>326.0</ele><time>2026-03-28T16:17:52.308Z</time></trkpt><trkpt lat="40.0782933" lon="9.5889793"><ele>328.5</ele><time>2026-03-28T16:17:53.314Z</time></trkpt><trkpt lat="40.0783765" lon="9.5889789"><ele>331.0</ele><time>2026-03-28T16:17:54.318Z</time></trkpt><trkpt lat="40.0784546" lon="9.5889944"><ele>333.5</ele><time>2026-03-28T16:17:55.307Z</time></trkpt><trkpt lat="40.0785364" lon="9.5890118"><ele>336.0</ele><time>2026-03-28T16:17:56.308Z</time></trkpt><trkpt lat="40.0786097" lon="9.5890409"><ele>338.5</ele><time>2026-03-28T16:17:57.312Z</time></trkpt><trkpt lat="40.078697" lon="9.5890469"><ele>341.0</ele><time>2026-03-28T16:17:58.336Z</time></trkpt><trkpt lat="40.078775" lon="9.5890479"><ele>341.0</ele><time>2026-03-28T16:17:59.31Z</time></trkpt><trkpt lat="40.0788438" lon="9.5890253"><ele>341.0</ele><time>2026-03-28T16:18:00.315Z</time></trkpt><trkpt lat="40.0789131" lon="9.5889813"><ele>341.0</ele><time>2026-03-28T16:18:01.306Z</time></trkpt><trkpt lat="40.0789646" lon="9.5889267"><ele>341.0</ele><time>2026-03-28T16:18:02.311Z</time></trkpt><trkpt lat="40.0790104" lon="9.5888659"><ele>341.0</ele><time>2026-03-28T16:18:03.312Z</time></trkpt><trkpt lat="40.0790889" lon="9.5887324"><ele>341.0</ele><time>2026-03-28T16:18:05.307Z</time></trkpt><trkpt lat="40.0791506" lon="9.5886818"><ele>343.33333333333337</ele><time>2026-03-28T16:18:06.3Z</time></trkpt><trkpt lat="40.079236" lon="9.5885801"><ele>345.6666666666667</ele><time>2026-03-28T16:18:08.31Z</time></trkpt><trkpt lat="40.0792763" lon="9.5885045"><ele>348.0</ele><time>2026-03-28T16:18:09.31Z</time></trkpt><trkpt lat="40.0793306" lon="9.5884284"><ele>350.3333333333333</ele><time>2026-03-28T16:18:10.315Z</time></trkpt><trkpt lat="40.0793926" lon="9.5883829"><ele>352.66666666666663</ele><time>2026-03-28T16:18:11.331Z</time></trkpt><trkpt lat="40.0794591" lon="9.5883398"><ele>355.0</ele><time>2026-03-28T16:18:12.306Z</time></trkpt><trkpt lat="40.0795188" lon="9.5883073"><ele>355.0</ele><time>2026-03-28T16:18:13.309Z</time></trkpt><trkpt lat="40.0795737" lon="9.5882654"><ele>355.0</ele><time>2026-03-28T16:18:14.306Z</time></trkpt><trkpt lat="40.0796271" lon="9.5882158"><ele>355.0</ele><time>2026-03-28T16:18:15.308Z</time></trkpt><trkpt lat="40.0797225" lon="9.5881566"><ele>355.0</ele><time>2026-03-28T16:18:17.303Z</time></trkpt><trkpt lat="40.0798126" lon="9.5881475"><ele>355.0</ele><time>2026-03-28T16:18:19.31Z</time></trkpt><trkpt lat="40.0799025" lon="9.5881391"><ele>355.0</ele><time>2026-03-28T16:18:21.308Z</time></trkpt><trkpt lat="40.0799712" lon="9.5881407"><ele>353.4</ele><time>2026-03-28T16:18:23.309Z</time></trkpt><trkpt lat="40.0800196" lon="9.5881947"><ele>351.8</ele><time>2026-03-28T16:18:25.317Z</time></trkpt><trkpt lat="40.0800853" lon="9.5883207"><ele>350.20000000000005</ele><time>2026-03-28T16:18:27.308Z</time></trkpt><trkpt lat="40.0801978" lon="9.588407"><ele>348.6</ele><time>2026-03-28T16:18:29.336Z</time></trkpt><trkpt lat="40.0802701" lon="9.5884246"><ele>347.0</ele><time>2026-03-28T16:18:30.309Z</time></trkpt><trkpt lat="40.0803637" lon="9.5884266"><ele>347.0</ele><time>2026-03-28T16:18:31.306Z</time></trkpt><trkpt lat="40.0804555" lon="9.5884194"><ele>347.0</ele><time>2026-03-28T16:18:32.316Z</time></trkpt><trkpt lat="40.0805405" lon="9.5884065"><ele>347.0</ele><time>2026-03-28T16:18:33.309Z</time></trkpt><trkpt lat="40.080627" lon="9.5883869"><ele>347.0</ele><time>2026-03-28T16:18:34.322Z</time></trkpt><trkpt lat="40.0807106" lon="9.5883561"><ele>347.0</ele><time>2026-03-28T16:18:35.311Z</time></trkpt><trkpt lat="40.0808012" lon="9.5883134"><ele>347.0</ele><time>2026-03-28T16:18:36.307Z</time></trkpt><trkpt lat="40.0808847" lon="9.5882675"><ele>348.8</ele><time>2026-03-28T16:18:37.311Z</time></trkpt><trkpt lat="40.0809801" lon="9.5882145"><ele>350.6</ele><time>2026-03-28T16:18:39.321Z</time></trkpt><trkpt lat="40.0810752" lon="9.5881951"><ele>352.40000000000003</ele><time>2026-03-28T16:18:42.307Z</time></trkpt><trkpt lat="40.0811703" lon="9.588235"><ele>354.20000000000005</ele><time>2026-03-28T16:18:44.311Z</time></trkpt><trkpt lat="40.0812398" lon="9.5882812"><ele>356.0</ele><time>2026-03-28T16:18:45.322Z</time></trkpt><trkpt lat="40.0813113" lon="9.5883231"><ele>355.99999999999994</ele><time>2026-03-28T16:18:46.31Z</time></trkpt><trkpt lat="40.0813798" lon="9.5883715"><ele>356.0</ele><time>2026-03-28T16:18:47.32Z</time></trkpt><trkpt lat="40.0814421" lon="9.5884104"><ele>356.0</ele><time>2026-03-28T16:18:48.309Z</time></trkpt><trkpt lat="40.081503" lon="9.5884378"><ele>356.0</ele><time>2026-03-28T16:18:49.312Z</time></trkpt><trkpt lat="40.0815827" lon="9.588473"><ele>356.0</ele><time>2026-03-28T16:18:50.311Z</time></trkpt><trkpt lat="40.0816517" lon="9.5885082"><ele>355.99999999999994</ele><time>2026-03-28T16:18:51.302Z</time></trkpt><trkpt lat="40.0817027" lon="9.5885608"><ele>356.0</ele><time>2026-03-28T16:18:52.311Z</time></trkpt><trkpt lat="40.0817535" lon="9.5886111"><ele>355.83333333333337</ele><time>2026-03-28T16:18:53.305Z</time></trkpt><trkpt lat="40.081814" lon="9.5886478"><ele>355.6666666666667</ele><time>2026-03-28T16:18:54.349Z</time></trkpt><trkpt lat="40.0818958" lon="9.5886681"><ele>355.5</ele><time>2026-03-28T16:18:55.31Z</time></trkpt><trkpt lat="40.0819838" lon="9.5886878"><ele>355.3333333333333</ele><time>2026-03-28T16:18:56.31Z</time></trkpt><trkpt lat="40.0820754" lon="9.5887075"><ele>355.16666666666663</ele><time>2026-03-28T16:18:57.311Z</time></trkpt><trkpt lat="40.0821734" lon="9.5887239"><ele>355.0</ele><time>2026-03-28T16:18:58.308Z</time></trkpt><trkpt lat="40.082271" lon="9.5887378"><ele>355.0</ele><time>2026-03-28T16:18:59.315Z</time></trkpt><trkpt lat="40.0823599" lon="9.5887513"><ele>355.0</ele><time>2026-03-28T16:19:00.301Z</time></trkpt><trkpt lat="40.0824388" lon="9.5887628"><ele>355.0</ele><time>2026-03-28T16:19:01.307Z</time></trkpt><trkpt lat="40.0825098" lon="9.5887758"><ele>355.0</ele><time>2026-03-28T16:19:02.315Z</time></trkpt><trkpt lat="40.0825764" lon="9.5887979"><ele>355.0</ele><time>2026-03-28T16:19:03.309Z</time></trkpt><trkpt lat="40.0826528" lon="9.5888416"><ele>355.0</ele><time>2026-03-28T16:19:04.314Z</time></trkpt><trkpt lat="40.0827342" lon="9.5888925"><ele>357.16666666666663</ele><time>2026-03-28T16:19:05.313Z</time></trkpt><trkpt lat="40.0828125" lon="9.5889401"><ele>359.3333333333333</ele><time>2026-03-28T16:19:06.31Z</time></trkpt><trkpt lat="40.0828954" lon="9.5889851"><ele>361.5</ele><time>2026-03-28T16:19:07.308Z</time></trkpt><trkpt lat="40.0829846" lon="9.5890087"><ele>363.6666666666667</ele><time>2026-03-28T16:19:08.31Z</time></trkpt><trkpt lat="40.0830614" lon="9.5890178"><ele>365.83333333333337</ele><time>2026-03-28T16:19:09.304Z</time></trkpt><trkpt lat="40.0831403" lon="9.589026"><ele>368.0</ele><time>2026-03-28T16:19:10.307Z</time></trkpt><trkpt lat="40.0832118" lon="9.5890358"><ele>369.1666666666667</ele><time>2026-03-28T16:19:11.312Z</time></trkpt><trkpt lat="40.0832895" lon="9.5890389"><ele>370.33333333333337</ele><time>2026-03-28T16:19:12.303Z</time></trkpt><trkpt lat="40.083361" lon="9.5890302"><ele>371.5</ele><time>2026-03-28T16:19:13.349Z</time></trkpt><trkpt lat="40.0834288" lon="9.5890188"><ele>372.6666666666667</ele><time>2026-03-28T16:19:14.305Z</time></trkpt><trkpt lat="40.0835042" lon="9.5889847"><ele>373.8333333333333</ele><time>2026-03-28T16:19:15.309Z</time></trkpt><trkpt lat="40.0835852" lon="9.5889523"><ele>375.0</ele><time>2026-03-28T16:19:16.304Z</time></trkpt><trkpt lat="40.0836737" lon="9.5889113"><ele>375.0</ele><time>2026-03-28T16:19:17.307Z</time></trkpt><trkpt lat="40.0837682" lon="9.5888678"><ele>375.0</ele><time>2026-03-28T16:19:18.306Z</time></trkpt><trkpt lat="40.0838457" lon="9.5888314"><ele>375.0</ele><time>2026-03-28T16:19:19.307Z</time></trkpt><trkpt lat="40.0839122" lon="9.5887777"><ele>375.0</ele><time>2026-03-28T16:19:20.326Z</time></trkpt><trkpt lat="40.0839645" lon="9.5887108"><ele>375.0</ele><time>2026-03-28T16:19:21.308Z</time></trkpt><trkpt lat="40.0840056" lon="9.5886301"><ele>375.0</ele><time>2026-03-28T16:19:22.308Z</time></trkpt><trkpt lat="40.0840471" lon="9.5885503"><ele>376.2857142857143</ele><time>2026-03-28T16:19:23.31Z</time></trkpt><trkpt lat="40.0840892" lon="9.5884684"><ele>377.57142857142856</ele><time>2026-03-28T16:19:24.314Z</time></trkpt><trkpt lat="40.0841371" lon="9.5884062"><ele>378.85714285714283</ele><time>2026-03-28T16:19:25.308Z</time></trkpt><trkpt lat="40.0841944" lon="9.5883459"><ele>380.1428571428571</ele><time>2026-03-28T16:19:26.313Z</time></trkpt><trkpt lat="40.084254" lon="9.5882887"><ele>381.42857142857144</ele><time>2026-03-28T16:19:27.312Z</time></trkpt><trkpt lat="40.0843114" lon="9.5882382"><ele>382.71428571428567</ele><time>2026-03-28T16:19:28.306Z</time></trkpt><trkpt lat="40.084374" lon="9.5881966"><ele>384.0</ele><time>2026-03-28T16:19:29.322Z</time></trkpt><trkpt lat="40.0844405" lon="9.5881608"><ele>384.0</ele><time>2026-03-28T16:19:30.308Z</time></trkpt><trkpt lat="40.0845122" lon="9.5881262"><ele>384.0</ele><time>2026-03-28T16:19:31.304Z</time></trkpt><trkpt lat="40.0845961" lon="9.5880862"><ele>384.0</ele><time>2026-03-28T16:19:32.313Z</time></trkpt><trkpt lat="40.0846877" lon="9.5880365"><ele>384.0</ele><time>2026-03-28T16:19:33.305Z</time></trkpt><trkpt lat="40.0847674" lon="9.5879957"><ele>384.0</ele><time>2026-03-28T16:19:34.318Z</time></trkpt><trkpt lat="40.0848815" lon="9.5879469"><ele>385.6666666666667</ele><time>2026-03-28T16:19:36.307Z</time></trkpt><trkpt lat="40.0849971" lon="9.5878812"><ele>387.33333333333337</ele><time>2026-03-28T16:19:38.317Z</time></trkpt><trkpt lat="40.085075" lon="9.5878404"><ele>389.0</ele><time>2026-03-28T16:19:39.306Z</time></trkpt><trkpt lat="40.0851536" lon="9.5878273"><ele>390.6666666666667</ele><time>2026-03-28T16:19:40.309Z</time></trkpt><trkpt lat="40.0852277" lon="9.5878338"><ele>392.33333333333337</ele><time>2026-03-28T16:19:41.311Z</time></trkpt><trkpt lat="40.0852961" lon="9.5878534"><ele>394.0</ele><time>2026-03-28T16:19:42.316Z</time></trkpt><trkpt lat="40.0853588" lon="9.5878715"><ele>394.0</ele><time>2026-03-28T16:19:43.307Z</time></trkpt><trkpt lat="40.0854272" lon="9.5878868"><ele>394.0</ele><time>2026-03-28T16:19:44.311Z</time></trkpt><trkpt lat="40.0855301" lon="9.5878634"><ele>394.0</ele><time>2026-03-28T16:19:46.318Z</time></trkpt><trkpt lat="40.0856572" lon="9.5878192"><ele>394.0</ele><time>2026-03-28T16:19:48.315Z</time></trkpt><trkpt lat="40.0857357" lon="9.5878038"><ele>394.0</ele><time>2026-03-28T16:19:49.347Z</time></trkpt><trkpt lat="40.0858116" lon="9.5877805"><ele>393.6666666666667</ele><time>2026-03-28T16:19:50.31Z</time></trkpt><trkpt lat="40.0858856" lon="9.5877448"><ele>393.33333333333337</ele><time>2026-03-28T16:19:51.307Z</time></trkpt><trkpt lat="40.085958" lon="9.5877009"><ele>393.0</ele><time>2026-03-28T16:19:52.318Z</time></trkpt><trkpt lat="40.0860276" lon="9.5876836"><ele>392.66666666666663</ele><time>2026-03-28T16:19:53.307Z</time></trkpt><trkpt lat="40.0861022" lon="9.5876692"><ele>392.3333333333333</ele><time>2026-03-28T16:19:54.328Z</time></trkpt><trkpt lat="40.0861766" lon="9.5876485"><ele>392.0</ele><time>2026-03-28T16:19:55.307Z</time></trkpt><trkpt lat="40.0862617" lon="9.5876305"><ele>392.0</ele><time>2026-03-28T16:19:56.31Z</time></trkpt><trkpt lat="40.0863452" lon="9.5876196"><ele>392.0</ele><time>2026-03-28T16:19:57.309Z</time></trkpt><trkpt lat="40.0864365" lon="9.5876169"><ele>392.0</ele><time>2026-03-28T16:19:58.312Z</time></trkpt><trkpt lat="40.0865314" lon="9.5876179"><ele>392.0</ele><time>2026-03-28T16:19:59.308Z</time></trkpt><trkpt lat="40.0866219" lon="9.587622"><ele>392.0</ele><time>2026-03-28T16:20:00.304Z</time></trkpt><trkpt lat="40.0867147" lon="9.5876377"><ele>392.20000000000005</ele><time>2026-03-28T16:20:01.308Z</time></trkpt><trkpt lat="40.0868043" lon="9.5876523"><ele>392.4</ele><time>2026-03-28T16:20:02.302Z</time></trkpt><trkpt lat="40.086883" lon="9.5876644"><ele>392.6</ele><time>2026-03-28T16:20:03.307Z</time></trkpt><trkpt lat="40.0869592" lon="9.5876731"><ele>392.79999999999995</ele><time>2026-03-28T16:20:04.323Z</time></trkpt><trkpt lat="40.0870821" lon="9.5876598"><ele>393.0</ele><time>2026-03-28T16:20:06.306Z</time></trkpt><trkpt lat="40.0871676" lon="9.5876561"><ele>393.0</ele><time>2026-03-28T16:20:07.316Z</time></trkpt><trkpt lat="40.087265" lon="9.5876547"><ele>393.0</ele><time>2026-03-28T16:20:08.308Z</time></trkpt><trkpt lat="40.0873603" lon="9.587654"><ele>393.0</ele><time>2026-03-28T16:20:09.336Z</time></trkpt><trkpt lat="40.0874464" lon="9.5876514"><ele>393.0</ele><time>2026-03-28T16:20:10.311Z</time></trkpt><trkpt lat="40.0875576" lon="9.5876547"><ele>393.0</ele><time>2026-03-28T16:20:11.317Z</time></trkpt><trkpt lat="40.0876744" lon="9.5876767"><ele>393.2</ele><time>2026-03-28T16:20:12.306Z</time></trkpt><trkpt lat="40.0877722" lon="9.5876972"><ele>393.4</ele><time>2026-03-28T16:20:13.314Z</time></trkpt><trkpt lat="40.0878467" lon="9.5877114"><ele>393.59999999999997</ele><time>2026-03-28T16:20:14.333Z</time></trkpt><trkpt lat="40.0879442" lon="9.5877351"><ele>393.79999999999995</ele><time>2026-03-28T16:20:16.31Z</time></trkpt><trkpt lat="40.088047" lon="9.5877564"><ele>394.0</ele><time>2026-03-28T16:20:18.303Z</time></trkpt><trkpt lat="40.0881262" lon="9.5877811"><ele>394.0</ele><time>2026-03-28T16:20:19.33Z</time></trkpt><trkpt lat="40.0882188" lon="9.5877996"><ele>394.0</ele><time>2026-03-28T16:20:20.307Z</time></trkpt><trkpt lat="40.0883284" lon="9.5878087"><ele>394.0</ele><time>2026-03-28T16:20:21.314Z</time></trkpt><trkpt lat="40.0884504" lon="9.5878028"><ele>394.0</ele><time>2026-03-28T16:20:22.308Z</time></trkpt><trkpt lat="40.0885658" lon="9.587802"><ele>394.0</ele><time>2026-03-28T16:20:23.311Z</time></trkpt><trkpt lat="40.0886649" lon="9.5878096"><ele>394.1666666666667</ele><time>2026-03-28T16:20:24.318Z</time></trkpt><trkpt lat="40.0887511" lon="9.5878097"><ele>394.33333333333337</ele><time>2026-03-28T16:20:25.312Z</time></trkpt><trkpt lat="40.0888382" lon="9.5878019"><ele>394.5</ele><time>2026-03-28T16:20:26.312Z</time></trkpt><trkpt lat="40.0889238" lon="9.5877728"><ele>394.66666666666663</ele><time>2026-03-28T16:20:27.318Z</time></trkpt><trkpt lat="40.0890031" lon="9.5877232"><ele>394.8333333333333</ele><time>2026-03-28T16:20:28.311Z</time></trkpt><trkpt lat="40.0890758" lon="9.5876614"><ele>395.0</ele><time>2026-03-28T16:20:29.317Z</time></trkpt><trkpt lat="40.0891526" lon="9.5875935"><ele>396.0</ele><time>2026-03-28T16:20:30.31Z</time></trkpt><trkpt lat="40.0892437" lon="9.5875545"><ele>397.0</ele><time>2026-03-28T16:20:31.311Z</time></trkpt><trkpt lat="40.0893205" lon="9.5875319"><ele>398.0</ele><time>2026-03-28T16:20:32.308Z</time></trkpt><trkpt lat="40.0893962" lon="9.5875324"><ele>399.0</ele><time>2026-03-28T16:20:33.312Z</time></trkpt><trkpt lat="40.089497" lon="9.5875422"><ele>400.0</ele><time>2026-03-28T16:20:35.33Z</time></trkpt><trkpt lat="40.0896114" lon="9.587658"><ele>400.00000000000006</ele><time>2026-03-28T16:20:37.321Z</time></trkpt><trkpt lat="40.0896827" lon="9.5877244"><ele>400.0</ele><time>2026-03-28T16:20:38.31Z</time></trkpt><trkpt lat="40.0897595" lon="9.5877735"><ele>400.0</ele><time>2026-03-28T16:20:39.312Z</time></trkpt><trkpt lat="40.0898319" lon="9.5877868"><ele>400.0</ele><time>2026-03-28T16:20:40.322Z</time></trkpt><trkpt lat="40.0899253" lon="9.5877824"><ele>400.00000000000006</ele><time>2026-03-28T16:20:41.316Z</time></trkpt><trkpt lat="40.0900124" lon="9.5877724"><ele>400.0</ele><time>2026-03-28T16:20:42.346Z</time></trkpt><trkpt lat="40.0901051" lon="9.5877441"><ele>400.4</ele><time>2026-03-28T16:20:43.31Z</time></trkpt><trkpt lat="40.0902005" lon="9.5877091"><ele>400.8</ele><time>2026-03-28T16:20:44.313Z</time></trkpt><trkpt lat="40.0902913" lon="9.5876649"><ele>401.20000000000005</ele><time>2026-03-28T16:20:45.311Z</time></trkpt><trkpt lat="40.0903853" lon="9.5876176"><ele>401.6</ele><time>2026-03-28T16:20:46.306Z</time></trkpt><trkpt lat="40.0904753" lon="9.5875869"><ele>402.0</ele><time>2026-03-28T16:20:47.321Z</time></trkpt><trkpt lat="40.0905756" lon="9.5875544"><ele>402.0</ele><time>2026-03-28T16:20:48.319Z</time></trkpt><trkpt lat="40.0906785" lon="9.5875328"><ele>402.0</ele><time>2026-03-28T16:20:49.311Z</time></trkpt><trkpt lat="40.0907692" lon="9.5875049"><ele>402.0</ele><time>2026-03-28T16:20:50.31Z</time></trkpt><trkpt lat="40.0908541" lon="9.5874606"><ele>402.0</ele><time>2026-03-28T16:20:51.31Z</time></trkpt><trkpt lat="40.0909157" lon="9.5873974"><ele>402.0</ele><time>2026-03-28T16:20:52.314Z</time></trkpt><trkpt lat="40.0909847" lon="9.5873286"><ele>403.8333333333333</ele><time>2026-03-28T16:20:53.314Z</time></trkpt><trkpt lat="40.0910456" lon="9.5872593"><ele>405.66666666666663</ele><time>2026-03-28T16:20:54.326Z</time></trkpt><trkpt lat="40.0910978" lon="9.5871775"><ele>407.5</ele><time>2026-03-28T16:20:55.308Z</time></trkpt><trkpt lat="40.091159" lon="9.587093"><ele>409.3333333333333</ele><time>2026-03-28T16:20:56.313Z</time></trkpt><trkpt lat="40.0912317" lon="9.5870277"><ele>411.16666666666663</ele><time>2026-03-28T16:20:57.313Z</time></trkpt><trkpt lat="40.0912983" lon="9.5869653"><ele>413.0</ele><time>2026-03-28T16:20:58.308Z</time></trkpt><trkpt lat="40.0913545" lon="9.5868934"><ele>414.66666666666663</ele><time>2026-03-28T16:20:59.337Z</time></trkpt><trkpt lat="40.0914103" lon="9.5868184"><ele>416.3333333333333</ele><time>2026-03-28T16:21:00.316Z</time></trkpt><trkpt lat="40.0914461" lon="9.586728"><ele>418.0</ele><time>2026-03-28T16:21:01.308Z</time></trkpt><trkpt lat="40.0914762" lon="9.586633"><ele>419.66666666666663</ele><time>2026-03-28T16:21:02.315Z</time></trkpt><trkpt lat="40.0915164" lon="9.5865417"><ele>421.3333333333333</ele><time>2026-03-28T16:21:03.31Z</time></trkpt><trkpt lat="40.0915622" lon="9.586453"><ele>423.0</ele><time>2026-03-28T16:21:04.33Z</time></trkpt><trkpt lat="40.0916168" lon="9.5863603"><ele>423.0</ele><time>2026-03-28T16:21:05.31Z</time></trkpt><trkpt lat="40.0916793" lon="9.5862682"><ele>423.0</ele><time>2026-03-28T16:21:06.308Z</time></trkpt><trkpt lat="40.0917498" lon="9.5861832"><ele>423.0</ele><time>2026-03-28T16:21:07.307Z</time></trkpt><trkpt lat="40.0918188" lon="9.5861082"><ele>423.0</ele><time>2026-03-28T16:21:08.312Z</time></trkpt><trkpt lat="40.0918912" lon="9.5860103"><ele>423.0</ele><time>2026-03-28T16:21:09.329Z</time></trkpt><trkpt lat="40.09197" lon="9.585909"><ele>425.59999999999997</ele><time>2026-03-28T16:21:10.316Z</time></trkpt><trkpt lat="40.0920461" lon="9.5858208"><ele>428.2</ele><time>2026-03-28T16:21:11.308Z</time></trkpt><trkpt lat="40.0921302" lon="9.5857072"><ele>430.8</ele><time>2026-03-28T16:21:12.309Z</time></trkpt><trkpt lat="40.092214" lon="9.5855945"><ele>433.4</ele><time>2026-03-28T16:21:13.307Z</time></trkpt><trkpt lat="40.0922817" lon="9.5855053"><ele>436.0</ele><time>2026-03-28T16:21:14.31Z</time></trkpt><trkpt lat="40.0923613" lon="9.5854038"><ele>438.1666666666667</ele><time>2026-03-28T16:21:15.313Z</time></trkpt><trkpt lat="40.0924407" lon="9.5853189"><ele>440.33333333333337</ele><time>2026-03-28T16:21:16.313Z</time></trkpt><trkpt lat="40.0925111" lon="9.5852526"><ele>442.5</ele><time>2026-03-28T16:21:17.321Z</time></trkpt><trkpt lat="40.0925858" lon="9.5851816"><ele>444.66666666666663</ele><time>2026-03-28T16:21:18.315Z</time></trkpt><trkpt lat="40.0926601" lon="9.5851111"><ele>446.8333333333333</ele><time>2026-03-28T16:21:19.311Z</time></trkpt><trkpt lat="40.0927202" lon="9.5850651"><ele>449.0</ele><time>2026-03-28T16:21:20.31Z</time></trkpt><trkpt lat="40.0927936" lon="9.5850323"><ele>448.99999999999994</ele><time>2026-03-28T16:21:21.307Z</time></trkpt><trkpt lat="40.0929015" lon="9.5850197"><ele>449.0</ele><time>2026-03-28T16:21:23.31Z</time></trkpt><trkpt lat="40.0929786" lon="9.5850318"><ele>449.0</ele><time>2026-03-28T16:21:25.313Z</time></trkpt><trkpt lat="40.093058" lon="9.5850346"><ele>449.0</ele><time>2026-03-28T16:21:27.314Z</time></trkpt><trkpt lat="40.0931255" lon="9.5850634"><ele>448.99999999999994</ele><time>2026-03-28T16:21:29.319Z</time></trkpt><trkpt lat="40.0931572" lon="9.5851598"><ele>449.0</ele><time>2026-03-28T16:21:32.325Z</time></trkpt><trkpt lat="40.0931446" lon="9.5852757"><ele>448.79999999999995</ele><time>2026-03-28T16:21:34.331Z</time></trkpt><trkpt lat="40.0931151" lon="9.5854356"><ele>448.59999999999997</ele><time>2026-03-28T16:21:36.314Z</time></trkpt><trkpt lat="40.0931355" lon="9.5855205"><ele>448.4</ele><time>2026-03-28T16:21:37.311Z</time></trkpt><trkpt lat="40.0931761" lon="9.5856164"><ele>448.2</ele><time>2026-03-28T16:21:38.307Z</time></trkpt><trkpt lat="40.093233" lon="9.5857271"><ele>448.0</ele><time>2026-03-28T16:21:39.314Z</time></trkpt><trkpt lat="40.0932969" lon="9.5858212"><ele>448.0</ele><time>2026-03-28T16:21:40.314Z</time></trkpt><trkpt lat="40.0933736" lon="9.5859021"><ele>447.99999999999994</ele><time>2026-03-28T16:21:41.337Z</time></trkpt><trkpt lat="40.0934674" lon="9.5859631"><ele>447.99999999999994</ele><time>2026-03-28T16:21:42.312Z</time></trkpt><trkpt lat="40.093571" lon="9.5859961"><ele>448.0</ele><time>2026-03-28T16:21:43.313Z</time></trkpt><trkpt lat="40.0936626" lon="9.5860111"><ele>448.0</ele><time>2026-03-28T16:21:44.311Z</time></trkpt><trkpt lat="40.0937504" lon="9.5860113"><ele>448.00000000000006</ele><time>2026-03-28T16:21:45.311Z</time></trkpt><trkpt lat="40.0938474" lon="9.5859748"><ele>448.0</ele><time>2026-03-28T16:21:46.309Z</time></trkpt><trkpt lat="40.0939482" lon="9.5859342"><ele>448.0</ele><time>2026-03-28T16:21:47.316Z</time></trkpt><trkpt lat="40.0940356" lon="9.5859021"><ele>448.0</ele><time>2026-03-28T16:21:48.306Z</time></trkpt><trkpt lat="40.0940991" lon="9.5858826"><ele>448.00000000000006</ele><time>2026-03-28T16:21:49.313Z</time></trkpt><trkpt lat="40.0941625" lon="9.5858643"><ele>448.0</ele><time>2026-03-28T16:21:50.31Z</time></trkpt><trkpt lat="40.09423" lon="9.5858588"><ele>449.59999999999997</ele><time>2026-03-28T16:21:51.311Z</time></trkpt><trkpt lat="40.0943128" lon="9.5858484"><ele>451.19999999999993</ele><time>2026-03-28T16:21:52.33Z</time></trkpt><trkpt lat="40.094412" lon="9.5858306"><ele>452.8</ele><time>2026-03-28T16:21:53.305Z</time></trkpt><trkpt lat="40.0944987" lon="9.5858108"><ele>454.4</ele><time>2026-03-28T16:21:54.306Z</time></trkpt><trkpt lat="40.0945899" lon="9.5857753"><ele>456.0</ele><time>2026-03-28T16:21:55.307Z</time></trkpt><trkpt lat="40.0946822" lon="9.5857209"><ele>456.0</ele><time>2026-03-28T16:21:56.313Z</time></trkpt><trkpt lat="40.0947765" lon="9.5856601"><ele>456.0</ele><time>2026-03-28T16:21:57.314Z</time></trkpt><trkpt lat="40.0948526" lon="9.5855987"><ele>456.0</ele><time>2026-03-28T16:21:58.32Z</time></trkpt><trkpt lat="40.094922" lon="9.5855496"><ele>456.0</ele><time>2026-03-28T16:21:59.312Z</time></trkpt><trkpt lat="40.0950146" lon="9.5854972"><ele>456.0</ele><time>2026-03-28T16:22:01.315Z</time></trkpt><trkpt lat="40.0950788" lon="9.5854646"><ele>456.0</ele><time>2026-03-28T16:22:03.347Z</time></trkpt><trkpt lat="40.095156" lon="9.5854747"><ele>456.20000000000005</ele><time>2026-03-28T16:22:06.31Z</time></trkpt><trkpt lat="40.0951756" lon="9.5856108"><ele>456.40000000000003</ele><time>2026-03-28T16:22:09.32Z</time></trkpt><trkpt lat="40.0951851" lon="9.5857031"><ele>456.6</ele><time>2026-03-28T16:22:10.306Z</time></trkpt><trkpt lat="40.0951972" lon="9.585809"><ele>456.8</ele><time>2026-03-28T16:22:11.314Z</time></trkpt><trkpt lat="40.095249" lon="9.5859212"><ele>457.0</ele><time>2026-03-28T16:22:13.311Z</time></trkpt><trkpt lat="40.0953339" lon="9.5860113"><ele>457.0</ele><time>2026-03-28T16:22:15.31Z</time></trkpt><trkpt lat="40.0954589" lon="9.5860292"><ele>457.00000000000006</ele><time>2026-03-28T16:22:17.306Z</time></trkpt><trkpt lat="40.0955446" lon="9.5860428"><ele>457.00000000000006</ele><time>2026-03-28T16:22:18.331Z</time></trkpt><trkpt lat="40.095646" lon="9.5860647"><ele>457.0</ele><time>2026-03-28T16:22:19.314Z</time></trkpt><trkpt lat="40.0957481" lon="9.5860865"><ele>457.0</ele><time>2026-03-28T16:22:20.311Z</time></trkpt><trkpt lat="40.095839" lon="9.5861026"><ele>457.00000000000006</ele><time>2026-03-28T16:22:21.309Z</time></trkpt><trkpt lat="40.0959206" lon="9.5861173"><ele>457.0</ele><time>2026-03-28T16:22:22.314Z</time></trkpt><trkpt lat="40.0959969" lon="9.5861305"><ele>457.0</ele><time>2026-03-28T16:22:23.333Z</time></trkpt><trkpt lat="40.0960742" lon="9.5861524"><ele>457.0</ele><time>2026-03-28T16:22:24.314Z</time></trkpt><trkpt lat="40.0961406" lon="9.5861879"><ele>457.00000000000006</ele><time>2026-03-28T16:22:25.314Z</time></trkpt><trkpt lat="40.0962062" lon="9.5862264"><ele>457.0</ele><time>2026-03-28T16:22:26.315Z</time></trkpt><trkpt lat="40.0962717" lon="9.586269"><ele>457.00000000000006</ele><time>2026-03-28T16:22:27.311Z</time></trkpt><trkpt lat="40.0963439" lon="9.5863199"><ele>457.0</ele><time>2026-03-28T16:22:28.313Z</time></trkpt><trkpt lat="40.0964218" lon="9.5863601"><ele>457.0</ele><time>2026-03-28T16:22:29.31Z</time></trkpt><trkpt lat="40.0965095" lon="9.5863825"><ele>457.0</ele><time>2026-03-28T16:22:30.33Z</time></trkpt><trkpt lat="40.0965787" lon="9.5863982"><ele>457.00000000000006</ele><time>2026-03-28T16:22:31.31Z</time></trkpt><trkpt lat="40.0966739" lon="9.5864216"><ele>457.0</ele><time>2026-03-28T16:22:33.308Z</time></trkpt><trkpt lat="40.0967345" lon="9.586453"><ele>457.00000000000006</ele><time>2026-03-28T16:22:36.319Z</time></trkpt><trkpt lat="40.0967438" lon="9.5865383"><ele>457.0</ele><time>2026-03-28T16:22:39.318Z</time></trkpt><trkpt lat="40.0966879" lon="9.5866414"><ele>457.0</ele><time>2026-03-28T16:22:41.321Z</time></trkpt><trkpt lat="40.0966036" lon="9.5867498"><ele>457.0</ele><time>2026-03-28T16:22:43.338Z</time></trkpt><trkpt lat="40.0965679" lon="9.5868428"><ele>457.00000000000006</ele><time>2026-03-28T16:22:45.307Z</time></trkpt><trkpt lat="40.0966226" lon="9.5869124"><ele>457.0</ele><time>2026-03-28T16:22:47.307Z</time></trkpt><trkpt lat="40.096716" lon="9.5869499"><ele>459.00000000000006</ele><time>2026-03-28T16:22:49.308Z</time></trkpt><trkpt lat="40.0967771" lon="9.5870095"><ele>461.0</ele><time>2026-03-28T16:22:51.308Z</time></trkpt><trkpt lat="40.0968222" lon="9.5871197"><ele>463.0</ele><time>2026-03-28T16:22:53.319Z</time></trkpt><trkpt lat="40.0968766" lon="9.5872657"><ele>465.0</ele><time>2026-03-28T16:22:55.319Z</time></trkpt><trkpt lat="40.0969101" lon="9.5873428"><ele>467.00000000000006</ele><time>2026-03-28T16:22:56.322Z</time></trkpt><trkpt lat="40.0969499" lon="9.5874103"><ele>469.0</ele><time>2026-03-28T16:22:57.311Z</time></trkpt><trkpt lat="40.0970351" lon="9.5875284"><ele>469.4</ele><time>2026-03-28T16:22:59.307Z</time></trkpt><trkpt lat="40.0970878" lon="9.5876229"><ele>469.79999999999995</ele><time>2026-03-28T16:23:01.315Z</time></trkpt><trkpt lat="40.0971376" lon="9.5877255"><ele>470.20000000000005</ele><time>2026-03-28T16:23:03.312Z</time></trkpt><trkpt lat="40.0971267" lon="9.5878489"><ele>470.6</ele><time>2026-03-28T16:23:05.309Z</time></trkpt><trkpt lat="40.09703" lon="9.587972"><ele>471.0</ele><time>2026-03-28T16:23:07.321Z</time></trkpt><trkpt lat="40.0969709" lon="9.5880413"><ele>472.1666666666667</ele><time>2026-03-28T16:23:08.336Z</time></trkpt><trkpt lat="40.0969338" lon="9.5881541"><ele>473.33333333333337</ele><time>2026-03-28T16:23:09.314Z</time></trkpt><trkpt lat="40.09692" lon="9.5882531"><ele>474.5</ele><time>2026-03-28T16:23:10.312Z</time></trkpt><trkpt lat="40.0969066" lon="9.5883521"><ele>475.6666666666667</ele><time>2026-03-28T16:23:11.311Z</time></trkpt><trkpt lat="40.0969176" lon="9.5884568"><ele>476.83333333333337</ele><time>2026-03-28T16:23:12.309Z</time></trkpt><trkpt lat="40.0969337" lon="9.5885601"><ele>478.0</ele><time>2026-03-28T16:23:13.313Z</time></trkpt><trkpt lat="40.0969633" lon="9.5886618"><ele>479.6666666666667</ele><time>2026-03-28T16:23:14.306Z</time></trkpt><trkpt lat="40.0969899" lon="9.5887665"><ele>481.33333333333337</ele><time>2026-03-28T16:23:15.325Z</time></trkpt><trkpt lat="40.0970091" lon="9.5888744"><ele>483.0</ele><time>2026-03-28T16:23:16.307Z</time></trkpt><trkpt lat="40.0970201" lon="9.5889736"><ele>484.66666666666663</ele><time>2026-03-28T16:23:17.309Z</time></trkpt><trkpt lat="40.0970395" lon="9.5890988"><ele>486.3333333333333</ele><time>2026-03-28T16:23:19.309Z</time></trkpt><trkpt lat="40.0970707" lon="9.5892083"><ele>488.0</ele><time>2026-03-28T16:23:22.323Z</time></trkpt><trkpt lat="40.0971451" lon="9.589231"><ele>488.0</ele><time>2026-03-28T16:23:24.316Z</time></trkpt><trkpt lat="40.0972207" lon="9.5891937"><ele>487.99999999999994</ele><time>2026-03-28T16:23:26.315Z</time></trkpt><trkpt lat="40.0973299" lon="9.5890772"><ele>487.99999999999994</ele><time>2026-03-28T16:23:28.316Z</time></trkpt><trkpt lat="40.0973914" lon="9.5890198"><ele>488.0</ele><time>2026-03-28T16:23:29.316Z</time></trkpt><trkpt lat="40.09745" lon="9.5889604"><ele>488.0</ele><time>2026-03-28T16:23:30.316Z</time></trkpt><trkpt lat="40.09751" lon="9.588862"><ele>489.8333333333333</ele><time>2026-03-28T16:23:32.316Z</time></trkpt><trkpt lat="40.0975922" lon="9.5888198"><ele>491.66666666666663</ele><time>2026-03-28T16:23:34.346Z</time></trkpt><trkpt lat="40.097647" lon="9.5888878"><ele>493.5</ele><time>2026-03-28T16:23:36.321Z</time></trkpt><trkpt lat="40.0976561" lon="9.5889742"><ele>495.33333333333337</ele><time>2026-03-28T16:23:37.315Z</time></trkpt><trkpt lat="40.0976545" lon="9.5890741"><ele>497.1666666666667</ele><time>2026-03-28T16:23:38.308Z</time></trkpt><trkpt lat="40.0976584" lon="9.5891749"><ele>499.0</ele><time>2026-03-28T16:23:39.34Z</time></trkpt><trkpt lat="40.0976605" lon="9.5892615"><ele>499.00000000000006</ele><time>2026-03-28T16:23:40.314Z</time></trkpt><trkpt lat="40.0976658" lon="9.5893613"><ele>499.0</ele><time>2026-03-28T16:23:41.312Z</time></trkpt><trkpt lat="40.0976746" lon="9.5894553"><ele>499.00000000000006</ele><time>2026-03-28T16:23:42.311Z</time></trkpt><trkpt lat="40.097677" lon="9.5895386"><ele>499.00000000000006</ele><time>2026-03-28T16:23:43.305Z</time></trkpt><trkpt lat="40.0976831" lon="9.5896301"><ele>499.0</ele><time>2026-03-28T16:23:44.311Z</time></trkpt><trkpt lat="40.0976876" lon="9.5897246"><ele>499.00000000000006</ele><time>2026-03-28T16:23:45.316Z</time></trkpt><trkpt lat="40.0976965" lon="9.58982"><ele>499.00000000000006</ele><time>2026-03-28T16:23:46.321Z</time></trkpt><trkpt lat="40.0977062" lon="9.5899105"><ele>500.50000000000006</ele><time>2026-03-28T16:23:47.31Z</time></trkpt><trkpt lat="40.0977152" lon="9.5900306"><ele>502.0</ele><time>2026-03-28T16:23:49.311Z</time></trkpt><trkpt lat="40.0977735" lon="9.5900824"><ele>503.5</ele><time>2026-03-28T16:23:51.321Z</time></trkpt><trkpt lat="40.0978591" lon="9.5900614"><ele>505.0</ele><time>2026-03-28T16:23:53.313Z</time></trkpt><trkpt lat="40.0979619" lon="9.5899778"><ele>506.50000000000006</ele><time>2026-03-28T16:23:55.313Z</time></trkpt><trkpt lat="40.0980146" lon="9.5899218"><ele>508.0</ele><time>2026-03-28T16:23:56.328Z</time></trkpt><trkpt lat="40.0980707" lon="9.5898497"><ele>508.00000000000006</ele><time>2026-03-28T16:23:57.315Z</time></trkpt><trkpt lat="40.0981337" lon="9.5897625"><ele>508.0</ele><time>2026-03-28T16:23:58.316Z</time></trkpt><trkpt lat="40.0982" lon="9.5896925"><ele>508.0</ele><time>2026-03-28T16:23:59.308Z</time></trkpt><trkpt lat="40.0982705" lon="9.5896365"><ele>508.0</ele><time>2026-03-28T16:24:00.305Z</time></trkpt><trkpt lat="40.0983534" lon="9.5895852"><ele>508.00000000000006</ele><time>2026-03-28T16:24:01.306Z</time></trkpt><trkpt lat="40.0984304" lon="9.5895376"><ele>508.0</ele><time>2026-03-28T16:24:02.312Z</time></trkpt><trkpt lat="40.0985143" lon="9.5894858"><ele>509.0</ele><time>2026-03-28T16:24:03.311Z</time></trkpt><trkpt lat="40.0986257" lon="9.5894145"><ele>509.99999999999994</ele><time>2026-03-28T16:24:05.316Z</time></trkpt><trkpt lat="40.0987144" lon="9.5893617"><ele>510.99999999999994</ele><time>2026-03-28T16:24:07.308Z</time></trkpt><trkpt lat="40.0987676" lon="9.5894162"><ele>512.0</ele><time>2026-03-28T16:24:12.32Z</time></trkpt><trkpt lat="40.0987095" lon="9.5895444"><ele>513.0</ele><time>2026-03-28T16:24:14.311Z</time></trkpt><trkpt lat="40.0986719" lon="9.5896327"><ele>514.5714285714287</ele><time>2026-03-28T16:24:15.314Z</time></trkpt><trkpt lat="40.0986347" lon="9.5897188"><ele>516.1428571428571</ele><time>2026-03-28T16:24:16.328Z</time></trkpt><trkpt lat="40.0986046" lon="9.5898143"><ele>517.7142857142858</ele><time>2026-03-28T16:24:17.308Z</time></trkpt><trkpt lat="40.0985802" lon="9.5899041"><ele>519.2857142857143</ele><time>2026-03-28T16:24:18.312Z</time></trkpt><trkpt lat="40.0985646" lon="9.5899969"><ele>520.8571428571429</ele><time>2026-03-28T16:24:19.321Z</time></trkpt><trkpt lat="40.0985545" lon="9.5900825"><ele>522.4285714285714</ele><time>2026-03-28T16:24:20.309Z</time></trkpt><trkpt lat="40.09857" lon="9.5901655"><ele>524.0</ele><time>2026-03-28T16:24:21.313Z</time></trkpt><trkpt lat="40.0986054" lon="9.5902633"><ele>526.1666666666666</ele><time>2026-03-28T16:24:22.345Z</time></trkpt><trkpt lat="40.098642" lon="9.5903709"><ele>528.3333333333333</ele><time>2026-03-28T16:24:23.314Z</time></trkpt><trkpt lat="40.0986658" lon="9.5904639"><ele>530.5</ele><time>2026-03-28T16:24:24.313Z</time></trkpt><trkpt lat="40.098675" lon="9.5905956"><ele>532.6666666666666</ele><time>2026-03-28T16:24:26.311Z</time></trkpt><trkpt lat="40.098699" lon="9.5906837"><ele>534.8333333333334</ele><time>2026-03-28T16:24:28.322Z</time></trkpt><trkpt lat="40.0987678" lon="9.5906619"><ele>537.0</ele><time>2026-03-28T16:24:30.321Z</time></trkpt><trkpt lat="40.0988408" lon="9.5905458"><ele>537.0</ele><time>2026-03-28T16:24:32.316Z</time></trkpt><trkpt lat="40.0988759" lon="9.5904547"><ele>537.0</ele><time>2026-03-28T16:24:33.326Z</time></trkpt><trkpt lat="40.0989307" lon="9.5903597"><ele>537.0</ele><time>2026-03-28T16:24:34.312Z</time></trkpt><trkpt lat="40.0989822" lon="9.5902792"><ele>537.0</ele><time>2026-03-28T16:24:35.313Z</time></trkpt><trkpt lat="40.0990278" lon="9.5902048"><ele>537.0</ele><time>2026-03-28T16:24:36.313Z</time></trkpt><trkpt lat="40.0990939" lon="9.590119"><ele>537.0</ele><time>2026-03-28T16:24:38.325Z</time></trkpt><trkpt lat="40.099155" lon="9.5900937"><ele>538.8000000000001</ele><time>2026-03-28T16:24:40.309Z</time></trkpt><trkpt lat="40.0992165" lon="9.5901222"><ele>540.6</ele><time>2026-03-28T16:24:44.31Z</time></trkpt><trkpt lat="40.0991623" lon="9.5902396"><ele>542.4000000000001</ele><time>2026-03-28T16:24:47.317Z</time></trkpt><trkpt lat="40.0991127" lon="9.5903933"><ele>544.2</ele><time>2026-03-28T16:24:49.329Z</time></trkpt><trkpt lat="40.0990989" lon="9.5904967"><ele>546.0</ele><time>2026-03-28T16:24:50.307Z</time></trkpt><trkpt lat="40.0991088" lon="9.5905918"><ele>548.0</ele><time>2026-03-28T16:24:51.315Z</time></trkpt><trkpt lat="40.0991184" lon="9.5906991"><ele>550.0</ele><time>2026-03-28T16:24:52.306Z</time></trkpt><trkpt lat="40.0991253" lon="9.5907855"><ele>552.0</ele><time>2026-03-28T16:24:53.316Z</time></trkpt><trkpt lat="40.0991159" lon="9.5909181"><ele>554.0</ele><time>2026-03-28T16:24:55.307Z</time></trkpt><trkpt lat="40.0991453" lon="9.5909984"><ele>556.0</ele><time>2026-03-28T16:24:57.315Z</time></trkpt><trkpt lat="40.0992147" lon="9.5909949"><ele>558.0</ele><time>2026-03-28T16:24:59.314Z</time></trkpt><trkpt lat="40.0992841" lon="9.590878"><ele>558.0</ele><time>2026-03-28T16:25:01.327Z</time></trkpt><trkpt lat="40.0993253" lon="9.5907918"><ele>558.0</ele><time>2026-03-28T16:25:02.313Z</time></trkpt><trkpt lat="40.0993891" lon="9.5906961"><ele>558.0</ele><time>2026-03-28T16:25:04.317Z</time></trkpt><trkpt lat="40.0994871" lon="9.5906654"><ele>558.0</ele><time>2026-03-28T16:25:06.325Z</time></trkpt><trkpt lat="40.0995657" lon="9.5906495"><ele>558.0</ele><time>2026-03-28T16:25:07.306Z</time></trkpt><trkpt lat="40.0996693" lon="9.5906173"><ele>558.0</ele><time>2026-03-28T16:25:09.312Z</time></trkpt><trkpt lat="40.0997321" lon="9.5905332"><ele>558.0</ele><time>2026-03-28T16:25:11.314Z</time></trkpt><trkpt lat="40.0998055" lon="9.5905478"><ele>558.0</ele><time>2026-03-28T16:25:13.312Z</time></trkpt><trkpt lat="40.0998217" lon="9.5906303"><ele>558.0</ele><time>2026-03-28T16:25:16.324Z</time></trkpt><trkpt lat="40.0997755" lon="9.5907132"><ele>558.0</ele><time>2026-03-28T16:25:18.336Z</time></trkpt><trkpt lat="40.0996602" lon="9.5907958"><ele>558.0</ele><time>2026-03-28T16:25:20.318Z</time></trkpt><trkpt lat="40.0996034" lon="9.5908427"><ele>557.9999999999999</ele><time>2026-03-28T16:25:21.323Z</time></trkpt><trkpt lat="40.0995557" lon="9.5908987"><ele>558.0</ele><time>2026-03-28T16:25:22.315Z</time></trkpt><trkpt lat="40.0995129" lon="9.5909649"><ele>558.0</ele><time>2026-03-28T16:25:23.311Z</time></trkpt><trkpt lat="40.0994743" lon="9.5910562"><ele>558.0</ele><time>2026-03-28T16:25:24.311Z</time></trkpt><trkpt lat="40.0994562" lon="9.5911531"><ele>558.0</ele><time>2026-03-28T16:25:25.317Z</time></trkpt><trkpt lat="40.0994342" lon="9.5912511"><ele>557.9999999999999</ele><time>2026-03-28T16:25:26.315Z</time></trkpt><trkpt lat="40.0994274" lon="9.5913511"><ele>558.0</ele><time>2026-03-28T16:25:27.31Z</time></trkpt><trkpt lat="40.0994171" lon="9.5914518"><ele>560.3333333333334</ele><time>2026-03-28T16:25:28.319Z</time></trkpt><trkpt lat="40.099388" lon="9.5915572"><ele>562.6666666666666</ele><time>2026-03-28T16:25:29.306Z</time></trkpt><trkpt lat="40.0993526" lon="9.5916526"><ele>565.0</ele><time>2026-03-28T16:25:30.31Z</time></trkpt><trkpt lat="40.0993198" lon="9.5917416"><ele>567.3333333333333</ele><time>2026-03-28T16:25:31.313Z</time></trkpt><trkpt lat="40.0992713" lon="9.5918441"><ele>569.6666666666666</ele><time>2026-03-28T16:25:32.312Z</time></trkpt><trkpt lat="40.0992212" lon="9.5919262"><ele>572.0</ele><time>2026-03-28T16:25:33.31Z</time></trkpt><trkpt lat="40.0991648" lon="9.5920246"><ele>575.0</ele><time>2026-03-28T16:25:34.31Z</time></trkpt><trkpt lat="40.0991077" lon="9.5921181"><ele>578.0</ele><time>2026-03-28T16:25:35.307Z</time></trkpt><trkpt lat="40.0990555" lon="9.5922115"><ele>581.0</ele><time>2026-03-28T16:25:36.308Z</time></trkpt><trkpt lat="40.0990043" lon="9.5922941"><ele>584.0</ele><time>2026-03-28T16:25:37.32Z</time></trkpt><trkpt lat="40.0989387" lon="9.5923682"><ele>587.0</ele><time>2026-03-28T16:25:38.313Z</time></trkpt><trkpt lat="40.0988626" lon="9.5924147"><ele>590.0</ele><time>2026-03-28T16:25:39.337Z</time></trkpt><trkpt lat="40.0988044" lon="9.5924559"><ele>590.0</ele><time>2026-03-28T16:25:40.313Z</time></trkpt><trkpt lat="40.0987479" lon="9.5925151"><ele>590.0</ele><time>2026-03-28T16:25:42.319Z</time></trkpt><trkpt lat="40.0987812" lon="9.592604"><ele>590.0</ele><time>2026-03-28T16:25:45.319Z</time></trkpt><trkpt lat="40.0988564" lon="9.5925975"><ele>590.0</ele><time>2026-03-28T16:25:47.315Z</time></trkpt><trkpt lat="40.0989484" lon="9.5925213"><ele>590.0</ele><time>2026-03-28T16:25:49.32Z</time></trkpt><trkpt lat="40.0990356" lon="9.5924797"><ele>590.0</ele><time>2026-03-28T16:25:50.315Z</time></trkpt><trkpt lat="40.0991195" lon="9.5924267"><ele>591.1666666666666</ele><time>2026-03-28T16:25:51.316Z</time></trkpt><trkpt lat="40.0992124" lon="9.5923598"><ele>592.3333333333333</ele><time>2026-03-28T16:25:52.313Z</time></trkpt><trkpt lat="40.0992883" lon="9.5922979"><ele>593.5</ele><time>2026-03-28T16:25:53.317Z</time></trkpt><trkpt lat="40.0993551" lon="9.5922486"><ele>594.6666666666666</ele><time>2026-03-28T16:25:54.312Z</time></trkpt><trkpt lat="40.0994193" lon="9.59221"><ele>595.8333333333334</ele><time>2026-03-28T16:25:55.309Z</time></trkpt><trkpt lat="40.0994966" lon="9.5921637"><ele>597.0</ele><time>2026-03-28T16:25:56.312Z</time></trkpt><trkpt lat="40.0995749" lon="9.5921172"><ele>597.0</ele><time>2026-03-28T16:25:57.315Z</time></trkpt><trkpt lat="40.0996622" lon="9.5920671"><ele>597.0</ele><time>2026-03-28T16:25:58.307Z</time></trkpt><trkpt lat="40.0997352" lon="9.5920238"><ele>597.0</ele><time>2026-03-28T16:25:59.32Z</time></trkpt><trkpt lat="40.0997928" lon="9.5919839"><ele>597.0</ele><time>2026-03-28T16:26:00.309Z</time></trkpt><trkpt lat="40.0998528" lon="9.5919341"><ele>597.0</ele><time>2026-03-28T16:26:01.311Z</time></trkpt><trkpt lat="40.0999182" lon="9.5918762"><ele>597.0</ele><time>2026-03-28T16:26:02.317Z</time></trkpt><trkpt lat="40.0999784" lon="9.5918092"><ele>597.6666666666666</ele><time>2026-03-28T16:26:03.317Z</time></trkpt><trkpt lat="40.1000489" lon="9.5917352"><ele>598.3333333333334</ele><time>2026-03-28T16:26:04.327Z</time></trkpt><trkpt lat="40.1000894" lon="9.5916671"><ele>599.0</ele><time>2026-03-28T16:26:05.311Z</time></trkpt><trkpt lat="40.1001506" lon="9.5915698"><ele>599.6666666666667</ele><time>2026-03-28T16:26:07.31Z</time></trkpt><trkpt lat="40.1002029" lon="9.5916327"><ele>600.3333333333334</ele><time>2026-03-28T16:26:11.323Z</time></trkpt><trkpt lat="40.100176" lon="9.5917501"><ele>601.0</ele><time>2026-03-28T16:26:13.31Z</time></trkpt><trkpt lat="40.1001303" lon="9.5919136"><ele>601.0</ele><time>2026-03-28T16:26:15.316Z</time></trkpt><trkpt lat="40.1001079" lon="9.5919968"><ele>601.0</ele><time>2026-03-28T16:26:16.324Z</time></trkpt><trkpt lat="40.1000657" lon="9.5921597"><ele>601.0</ele><time>2026-03-28T16:26:18.312Z</time></trkpt><trkpt lat="40.1000511" lon="9.5922418"><ele>601.0</ele><time>2026-03-28T16:26:19.312Z</time></trkpt><trkpt lat="40.1000193" lon="9.5923215"><ele>601.0</ele><time>2026-03-28T16:26:20.321Z</time></trkpt><trkpt lat="40.099974" lon="9.5923926"><ele>601.0</ele><time>2026-03-28T16:26:21.312Z</time></trkpt><trkpt lat="40.0999284" lon="9.5924499"><ele>600.4285714285714</ele><time>2026-03-28T16:26:22.314Z</time></trkpt><trkpt lat="40.0998783" lon="9.5925057"><ele>599.8571428571429</ele><time>2026-03-28T16:26:23.319Z</time></trkpt><trkpt lat="40.0998252" lon="9.5925616"><ele>599.2857142857143</ele><time>2026-03-28T16:26:24.322Z</time></trkpt><trkpt lat="40.0997956" lon="9.5926584"><ele>598.7142857142858</ele><time>2026-03-28T16:26:25.322Z</time></trkpt><trkpt lat="40.0997682" lon="9.5927476"><ele>598.1428571428571</ele><time>2026-03-28T16:26:26.32Z</time></trkpt><trkpt lat="40.0997504" lon="9.5928503"><ele>597.5714285714287</ele><time>2026-03-28T16:26:27.319Z</time></trkpt><trkpt lat="40.0997288" lon="9.5929491"><ele>597.0</ele><time>2026-03-28T16:26:28.322Z</time></trkpt><trkpt lat="40.0996821" lon="9.5930294"><ele>602.5</ele><time>2026-03-28T16:26:29.322Z</time></trkpt><trkpt lat="40.099631" lon="9.5931128"><ele>608.0</ele><time>2026-03-28T16:26:30.322Z</time></trkpt><trkpt lat="40.099574" lon="9.5931891"><ele>613.5</ele><time>2026-03-28T16:26:31.318Z</time></trkpt><trkpt lat="40.0995059" lon="9.5932704"><ele>619.0</ele><time>2026-03-28T16:26:32.317Z</time></trkpt><trkpt lat="40.0994359" lon="9.5933416"><ele>624.5</ele><time>2026-03-28T16:26:33.325Z</time></trkpt><trkpt lat="40.0993745" lon="9.5934086"><ele>630.0</ele><time>2026-03-28T16:26:34.322Z</time></trkpt><trkpt lat="40.099313" lon="9.593475"><ele>630.0</ele><time>2026-03-28T16:26:35.329Z</time></trkpt><trkpt lat="40.0992539" lon="9.5935298"><ele>630.0</ele><time>2026-03-28T16:26:36.319Z</time></trkpt><trkpt lat="40.0991824" lon="9.5935813"><ele>630.0</ele><time>2026-03-28T16:26:37.316Z</time></trkpt><trkpt lat="40.0991036" lon="9.5936104"><ele>630.0</ele><time>2026-03-28T16:26:38.316Z</time></trkpt><trkpt lat="40.0990086" lon="9.593652"><ele>630.0</ele><time>2026-03-28T16:26:39.323Z</time></trkpt><trkpt lat="40.0989128" lon="9.5936976"><ele>630.0</ele><time>2026-03-28T16:26:40.322Z</time></trkpt><trkpt lat="40.0988201" lon="9.593756"><ele>634.6666666666666</ele><time>2026-03-28T16:26:41.314Z</time></trkpt><trkpt lat="40.0987335" lon="9.5938074"><ele>639.3333333333334</ele><time>2026-03-28T16:26:42.324Z</time></trkpt><trkpt lat="40.0986616" lon="9.5938536"><ele>644.0</ele><time>2026-03-28T16:26:43.322Z</time></trkpt><trkpt lat="40.098594" lon="9.5938751"><ele>648.6666666666667</ele><time>2026-03-28T16:26:44.315Z</time></trkpt><trkpt lat="40.0985211" lon="9.5938767"><ele>653.3333333333334</ele><time>2026-03-28T16:26:45.31Z</time></trkpt><trkpt lat="40.0984311" lon="9.5938801"><ele>658.0</ele><time>2026-03-28T16:26:46.322Z</time></trkpt><trkpt lat="40.0983412" lon="9.5938804"><ele>658.0</ele><time>2026-03-28T16:26:47.31Z</time></trkpt><trkpt lat="40.0982632" lon="9.5938689"><ele>658.0</ele><time>2026-03-28T16:26:48.332Z</time></trkpt><trkpt lat="40.098188" lon="9.5938561"><ele>658.0</ele><time>2026-03-28T16:26:49.309Z</time></trkpt><trkpt lat="40.0981239" lon="9.5938446"><ele>658.0</ele><time>2026-03-28T16:26:50.315Z</time></trkpt><trkpt lat="40.0980072" lon="9.5938645"><ele>658.0</ele><time>2026-03-28T16:26:52.321Z</time></trkpt><trkpt lat="40.0979133" lon="9.5939869"><ele>657.1666666666667</ele><time>2026-03-28T16:26:54.322Z</time></trkpt><trkpt lat="40.0978733" lon="9.5940863"><ele>656.3333333333334</ele><time>2026-03-28T16:26:55.308Z</time></trkpt><trkpt lat="40.0978258" lon="9.5941837"><ele>655.5</ele><time>2026-03-28T16:26:56.312Z</time></trkpt><trkpt lat="40.0977857" lon="9.5942796"><ele>654.6666666666666</ele><time>2026-03-28T16:26:57.312Z</time></trkpt><trkpt lat="40.0977467" lon="9.5943708"><ele>653.8333333333333</ele><time>2026-03-28T16:26:58.318Z</time></trkpt><trkpt lat="40.0977128" lon="9.594455"><ele>653.0</ele><time>2026-03-28T16:26:59.308Z</time></trkpt><trkpt lat="40.0976986" lon="9.5945357"><ele>653.0</ele><time>2026-03-28T16:27:00.328Z</time></trkpt><trkpt lat="40.0976991" lon="9.5946213"><ele>653.0</ele><time>2026-03-28T16:27:01.314Z</time></trkpt><trkpt lat="40.0977023" lon="9.5947131"><ele>653.0</ele><time>2026-03-28T16:27:02.314Z</time></trkpt><trkpt lat="40.0977225" lon="9.5948109"><ele>653.0</ele><time>2026-03-28T16:27:03.305Z</time></trkpt><trkpt lat="40.0977502" lon="9.5949188"><ele>653.0</ele><time>2026-03-28T16:27:04.316Z</time></trkpt><trkpt lat="40.0977941" lon="9.5950146"><ele>653.0</ele><time>2026-03-28T16:27:05.32Z</time></trkpt><trkpt lat="40.0978398" lon="9.5951203"><ele>653.0</ele><time>2026-03-28T16:27:06.311Z</time></trkpt><trkpt lat="40.0978784" lon="9.595217"><ele>653.0</ele><time>2026-03-28T16:27:07.312Z</time></trkpt><trkpt lat="40.0979044" lon="9.595292"><ele>653.0</ele><time>2026-03-28T16:27:08.313Z</time></trkpt><trkpt lat="40.0979204" lon="9.5954104"><ele>653.0</ele><time>2026-03-28T16:27:10.312Z</time></trkpt><trkpt lat="40.0979294" lon="9.5955082"><ele>653.0</ele><time>2026-03-28T16:27:12.336Z</time></trkpt><trkpt lat="40.0979999" lon="9.595561"><ele>653.0</ele><time>2026-03-28T16:27:15.315Z</time></trkpt><trkpt lat="40.0980717" lon="9.5954494"><ele>653.0000000000001</ele><time>2026-03-28T16:27:17.319Z</time></trkpt><trkpt lat="40.0980994" lon="9.5953622"><ele>653.0</ele><time>2026-03-28T16:27:18.314Z</time></trkpt><trkpt lat="40.0981188" lon="9.5952636"><ele>653.0</ele><time>2026-03-28T16:27:19.322Z</time></trkpt><trkpt lat="40.0981317" lon="9.595168"><ele>653.0</ele><time>2026-03-28T16:27:20.31Z</time></trkpt><trkpt lat="40.0981406" lon="9.5950737"><ele>653.0</ele><time>2026-03-28T16:27:21.314Z</time></trkpt><trkpt lat="40.0981443" lon="9.5949765"><ele>653.0000000000001</ele><time>2026-03-28T16:27:22.316Z</time></trkpt><trkpt lat="40.0981499" lon="9.5948917"><ele>653.0</ele><time>2026-03-28T16:27:23.319Z</time></trkpt><trkpt lat="40.0981995" lon="9.5947605"><ele>656.5714285714287</ele><time>2026-03-28T16:27:25.32Z</time></trkpt><trkpt lat="40.0982535" lon="9.5947077"><ele>660.1428571428571</ele><time>2026-03-28T16:27:26.311Z</time></trkpt><trkpt lat="40.0983147" lon="9.5946624"><ele>663.7142857142858</ele><time>2026-03-28T16:27:27.32Z</time></trkpt><trkpt lat="40.0983805" lon="9.5946481"><ele>667.2857142857143</ele><time>2026-03-28T16:27:28.309Z</time></trkpt><trkpt lat="40.0984525" lon="9.5946436"><ele>670.8571428571429</ele><time>2026-03-28T16:27:29.315Z</time></trkpt><trkpt lat="40.0985508" lon="9.5946444"><ele>674.4285714285714</ele><time>2026-03-28T16:27:31.322Z</time></trkpt><trkpt lat="40.0986113" lon="9.5946728"><ele>678.0</ele><time>2026-03-28T16:27:33.329Z</time></trkpt><trkpt lat="40.098574" lon="9.5947782"><ele>678.0</ele><time>2026-03-28T16:27:37.314Z</time></trkpt><trkpt lat="40.0984853" lon="9.5948625"><ele>678.0</ele><time>2026-03-28T16:27:39.321Z</time></trkpt><trkpt lat="40.0984525" lon="9.5950017"><ele>678.0</ele><time>2026-03-28T16:27:41.317Z</time></trkpt><trkpt lat="40.0984515" lon="9.5951123"><ele>678.0</ele><time>2026-03-28T16:27:43.316Z</time></trkpt><trkpt lat="40.0984508" lon="9.5952054"><ele>678.0</ele><time>2026-03-28T16:27:45.314Z</time></trkpt><trkpt lat="40.0984371" lon="9.5952883"><ele>678.0</ele><time>2026-03-28T16:28:17.315Z</time></trkpt><trkpt lat="40.0984085" lon="9.5954074"><ele>677.0</ele><time>2026-03-28T16:28:20.323Z</time></trkpt><trkpt lat="40.0983803" lon="9.5955312"><ele>676.0</ele><time>2026-03-28T16:28:23.323Z</time></trkpt><trkpt lat="40.098353" lon="9.5956329"><ele>675.0</ele><time>2026-03-28T16:28:25.316Z</time></trkpt><trkpt lat="40.0983194" lon="9.5957441"><ele>674.0</ele><time>2026-03-28T16:28:27.317Z</time></trkpt><trkpt lat="40.0982822" lon="9.5958527"><ele>673.0</ele><time>2026-03-28T16:28:29.322Z</time></trkpt><trkpt lat="40.0982435" lon="9.5959553"><ele>673.0</ele><time>2026-03-28T16:28:31.312Z</time></trkpt><trkpt lat="40.0982115" lon="9.5960534"><ele>673.0</ele><time>2026-03-28T16:28:33.323Z</time></trkpt><trkpt lat="40.0981806" lon="9.596142"><ele>673.0</ele><time>2026-03-28T16:28:36.312Z</time></trkpt></trkseg></trk></gpx>